<?xml version='1.0' encoding='UTF-8'?><gpx version="1.1" creator="JPX - https://github.com/jenetics/jpx" xmlns="http://www.topografix.com/GPX/1/1"><trk><trkseg><trkpt lat="44.9972401" lon="9.7882693"><ele>67.0</ele><time>2026-04-26T05:59:25.571Z</time></trkpt><trkpt lat="44.9971749" lon="9.7882526"><ele>67.0</ele><time>2026-04-26T05:59:32.576Z</time></trkpt><trkpt lat="44.997175" lon="9.7884624"><ele>67.0</ele><time>2026-04-26T05:59:53.595Z</time></trkpt><trkpt lat="44.9971567" lon="9.7883693"><ele>67.0</ele><time>2026-04-26T05:59:59.589Z</time></trkpt><trkpt lat="44.9971871" lon="9.7882728"><ele>67.0</ele><time>2026-04-26T06:00:20.609Z</time></trkpt><trkpt lat="44.9971984" lon="9.7881569"><ele>67.0</ele><time>2026-04-26T06:00:27.604Z</time></trkpt><trkpt lat="44.9971647" lon="9.7880518"><ele>67.0</ele><time>2026-04-26T06:00:31.611Z</time></trkpt><trkpt lat="44.9970998" lon="9.7879888"><ele>67.0</ele><time>2026-04-26T06:00:34.603Z</time></trkpt><trkpt lat="44.9970515" lon="9.7879229"><ele>67.0</ele><time>2026-04-26T06:00:36.611Z</time></trkpt><trkpt lat="44.9970059" lon="9.7878588"><ele>67.0</ele><time>2026-04-26T06:00:38.616Z</time></trkpt><trkpt lat="44.9969321" lon="9.7877886"><ele>67.0</ele><time>2026-04-26T06:00:41.609Z</time></trkpt><trkpt lat="44.9968649" lon="9.7877093"><ele>67.0</ele><time>2026-04-26T06:00:44.61Z</time></trkpt><trkpt lat="44.9968174" lon="9.7876475"><ele>67.0</ele><time>2026-04-26T06:00:46.595Z</time></trkpt><trkpt lat="44.9967671" lon="9.7875922"><ele>67.0</ele><time>2026-04-26T06:00:48.595Z</time></trkpt><trkpt lat="44.9967128" lon="9.7875286"><ele>67.0</ele><time>2026-04-26T06:00:50.613Z</time></trkpt><trkpt lat="44.9966609" lon="9.7874613"><ele>67.0</ele><time>2026-04-26T06:00:52.608Z</time></trkpt><trkpt lat="44.996599" lon="9.7873908"><ele>67.0</ele><time>2026-04-26T06:00:54.613Z</time></trkpt><trkpt lat="44.9965358" lon="9.7873472"><ele>67.0</ele><time>2026-04-26T06:00:56.616Z</time></trkpt><trkpt lat="44.9964813" lon="9.7872856"><ele>67.0</ele><time>2026-04-26T06:00:58.617Z</time></trkpt><trkpt lat="44.9964189" lon="9.7872156"><ele>67.0</ele><time>2026-04-26T06:01:00.611Z</time></trkpt><trkpt lat="44.9963648" lon="9.7871421"><ele>67.0</ele><time>2026-04-26T06:01:02.606Z</time></trkpt><trkpt lat="44.9963174" lon="9.7870637"><ele>67.0</ele><time>2026-04-26T06:01:04.6Z</time></trkpt><trkpt lat="44.9962552" lon="9.7869967"><ele>67.0</ele><time>2026-04-26T06:01:06.607Z</time></trkpt><trkpt lat="44.996186" lon="9.786928"><ele>67.0</ele><time>2026-04-26T06:01:08.613Z</time></trkpt><trkpt lat="44.9961279" lon="9.7868523"><ele>67.0</ele><time>2026-04-26T06:01:10.622Z</time></trkpt><trkpt lat="44.9960715" lon="9.7868041"><ele>67.0</ele><time>2026-04-26T06:01:12.611Z</time></trkpt><trkpt lat="44.996003" lon="9.78676"><ele>67.0</ele><time>2026-04-26T06:01:14.607Z</time></trkpt><trkpt lat="44.9959412" lon="9.7867003"><ele>67.0</ele><time>2026-04-26T06:01:16.6Z</time></trkpt><trkpt lat="44.9958705" lon="9.7866472"><ele>67.0</ele><time>2026-04-26T06:01:18.61Z</time></trkpt><trkpt lat="44.9957969" lon="9.7865821"><ele>67.0</ele><time>2026-04-26T06:01:20.61Z</time></trkpt><trkpt lat="44.995734" lon="9.7865208"><ele>67.0</ele><time>2026-04-26T06:01:22.601Z</time></trkpt><trkpt lat="44.9956655" lon="9.7864811"><ele>67.0</ele><time>2026-04-26T06:01:24.596Z</time></trkpt><trkpt lat="44.9956052" lon="9.7864397"><ele>67.0</ele><time>2026-04-26T06:01:26.617Z</time></trkpt><trkpt lat="44.9955345" lon="9.7863972"><ele>67.0</ele><time>2026-04-26T06:01:28.623Z</time></trkpt><trkpt lat="44.9954571" lon="9.786356"><ele>67.0</ele><time>2026-04-26T06:01:30.615Z</time></trkpt><trkpt lat="44.9953872" lon="9.7863098"><ele>67.0</ele><time>2026-04-26T06:01:32.62Z</time></trkpt><trkpt lat="44.9953299" lon="9.7862676"><ele>67.0</ele><time>2026-04-26T06:01:34.619Z</time></trkpt><trkpt lat="44.995261" lon="9.7862383"><ele>67.0</ele><time>2026-04-26T06:01:36.614Z</time></trkpt><trkpt lat="44.9951862" lon="9.7861858"><ele>67.0</ele><time>2026-04-26T06:01:38.618Z</time></trkpt><trkpt lat="44.995125" lon="9.7861251"><ele>67.0</ele><time>2026-04-26T06:01:40.613Z</time></trkpt><trkpt lat="44.9950543" lon="9.7860813"><ele>67.0</ele><time>2026-04-26T06:01:42.619Z</time></trkpt><trkpt lat="44.9949849" lon="9.7860436"><ele>67.0</ele><time>2026-04-26T06:01:44.598Z</time></trkpt><trkpt lat="44.9949128" lon="9.7860039"><ele>67.0</ele><time>2026-04-26T06:01:46.588Z</time></trkpt><trkpt lat="44.9948354" lon="9.7859606"><ele>67.0</ele><time>2026-04-26T06:01:48.609Z</time></trkpt><trkpt lat="44.9947435" lon="9.7859105"><ele>67.0</ele><time>2026-04-26T06:01:50.612Z</time></trkpt><trkpt lat="44.9946622" lon="9.7858664"><ele>67.0</ele><time>2026-04-26T06:01:52.606Z</time></trkpt><trkpt lat="44.9945919" lon="9.785819"><ele>67.0</ele><time>2026-04-26T06:01:54.62Z</time></trkpt><trkpt lat="44.9945193" lon="9.7857807"><ele>67.0</ele><time>2026-04-26T06:01:56.606Z</time></trkpt><trkpt lat="44.9944482" lon="9.785734"><ele>67.0</ele><time>2026-04-26T06:01:58.621Z</time></trkpt><trkpt lat="44.9943801" lon="9.7856715"><ele>67.0</ele><time>2026-04-26T06:02:00.621Z</time></trkpt><trkpt lat="44.994307" lon="9.7856156"><ele>67.0</ele><time>2026-04-26T06:02:02.614Z</time></trkpt><trkpt lat="44.9942348" lon="9.7855741"><ele>67.0</ele><time>2026-04-26T06:02:04.614Z</time></trkpt><trkpt lat="44.9941586" lon="9.7855256"><ele>67.0</ele><time>2026-04-26T06:02:06.616Z</time></trkpt><trkpt lat="44.9940787" lon="9.7854829"><ele>67.0</ele><time>2026-04-26T06:02:08.604Z</time></trkpt><trkpt lat="44.9940026" lon="9.7854422"><ele>67.0</ele><time>2026-04-26T06:02:10.607Z</time></trkpt><trkpt lat="44.9939212" lon="9.7853929"><ele>67.0</ele><time>2026-04-26T06:02:12.605Z</time></trkpt><trkpt lat="44.9938408" lon="9.7853595"><ele>66.83333333333333</ele><time>2026-04-26T06:02:14.612Z</time></trkpt><trkpt lat="44.9937636" lon="9.7853138"><ele>66.66666666666666</ele><time>2026-04-26T06:02:16.61Z</time></trkpt><trkpt lat="44.9936855" lon="9.7852747"><ele>66.5</ele><time>2026-04-26T06:02:18.612Z</time></trkpt><trkpt lat="44.9936099" lon="9.785245"><ele>66.33333333333333</ele><time>2026-04-26T06:02:20.61Z</time></trkpt><trkpt lat="44.9935395" lon="9.7852021"><ele>66.16666666666667</ele><time>2026-04-26T06:02:22.62Z</time></trkpt><trkpt lat="44.9934586" lon="9.7851586"><ele>66.0</ele><time>2026-04-26T06:02:24.62Z</time></trkpt><trkpt lat="44.9933807" lon="9.7851212"><ele>66.0</ele><time>2026-04-26T06:02:26.618Z</time></trkpt><trkpt lat="44.9932979" lon="9.7850891"><ele>66.0</ele><time>2026-04-26T06:02:28.612Z</time></trkpt><trkpt lat="44.9932153" lon="9.7850549"><ele>66.0</ele><time>2026-04-26T06:02:30.608Z</time></trkpt><trkpt lat="44.9931363" lon="9.785013"><ele>66.0</ele><time>2026-04-26T06:02:32.621Z</time></trkpt><trkpt lat="44.9930468" lon="9.7849815"><ele>66.0</ele><time>2026-04-26T06:02:34.609Z</time></trkpt><trkpt lat="44.9929577" lon="9.7849469"><ele>66.0</ele><time>2026-04-26T06:02:36.618Z</time></trkpt><trkpt lat="44.9928826" lon="9.7849146"><ele>66.0</ele><time>2026-04-26T06:02:38.617Z</time></trkpt><trkpt lat="44.9928067" lon="9.7848842"><ele>66.0</ele><time>2026-04-26T06:02:40.617Z</time></trkpt><trkpt lat="44.9927316" lon="9.7848611"><ele>66.0</ele><time>2026-04-26T06:02:42.612Z</time></trkpt><trkpt lat="44.9926493" lon="9.7848302"><ele>66.0</ele><time>2026-04-26T06:02:44.609Z</time></trkpt><trkpt lat="44.9925759" lon="9.7848052"><ele>66.0</ele><time>2026-04-26T06:02:46.62Z</time></trkpt><trkpt lat="44.9925052" lon="9.7847909"><ele>66.0</ele><time>2026-04-26T06:02:48.612Z</time></trkpt><trkpt lat="44.9924418" lon="9.7848873"><ele>66.0</ele><time>2026-04-26T06:02:51.61Z</time></trkpt><trkpt lat="44.9924249" lon="9.785003"><ele>66.0</ele><time>2026-04-26T06:02:53.607Z</time></trkpt><trkpt lat="44.9924324" lon="9.7851293"><ele>66.0</ele><time>2026-04-26T06:02:55.605Z</time></trkpt><trkpt lat="44.9924402" lon="9.7852476"><ele>66.0</ele><time>2026-04-26T06:02:57.623Z</time></trkpt><trkpt lat="44.9924598" lon="9.7853655"><ele>66.0</ele><time>2026-04-26T06:02:59.611Z</time></trkpt><trkpt lat="44.992481" lon="9.7854851"><ele>66.0</ele><time>2026-04-26T06:03:01.618Z</time></trkpt><trkpt lat="44.9924967" lon="9.785601"><ele>66.16666666666667</ele><time>2026-04-26T06:03:03.603Z</time></trkpt><trkpt lat="44.9925063" lon="9.7857293"><ele>66.33333333333333</ele><time>2026-04-26T06:03:05.621Z</time></trkpt><trkpt lat="44.9924366" lon="9.7857808"><ele>66.5</ele><time>2026-04-26T06:03:07.625Z</time></trkpt><trkpt lat="44.9923547" lon="9.7857585"><ele>66.66666666666666</ele><time>2026-04-26T06:03:09.597Z</time></trkpt><trkpt lat="44.992264" lon="9.7857422"><ele>66.83333333333333</ele><time>2026-04-26T06:03:11.617Z</time></trkpt><trkpt lat="44.9921726" lon="9.7857264"><ele>67.0</ele><time>2026-04-26T06:03:13.613Z</time></trkpt><trkpt lat="44.9920899" lon="9.7856998"><ele>67.0</ele><time>2026-04-26T06:03:15.617Z</time></trkpt><trkpt lat="44.9919964" lon="9.7856813"><ele>67.0</ele><time>2026-04-26T06:03:17.614Z</time></trkpt><trkpt lat="44.9919167" lon="9.7856522"><ele>67.0</ele><time>2026-04-26T06:03:19.608Z</time></trkpt><trkpt lat="44.9918306" lon="9.7856313"><ele>67.0</ele><time>2026-04-26T06:03:21.624Z</time></trkpt><trkpt lat="44.9917438" lon="9.7856041"><ele>67.0</ele><time>2026-04-26T06:03:23.618Z</time></trkpt><trkpt lat="44.9916577" lon="9.7855814"><ele>67.0</ele><time>2026-04-26T06:03:25.618Z</time></trkpt><trkpt lat="44.9915688" lon="9.7855844"><ele>66.6</ele><time>2026-04-26T06:03:27.628Z</time></trkpt><trkpt lat="44.9914909" lon="9.7856337"><ele>66.2</ele><time>2026-04-26T06:03:29.619Z</time></trkpt><trkpt lat="44.9914593" lon="9.7857655"><ele>65.8</ele><time>2026-04-26T06:03:31.627Z</time></trkpt><trkpt lat="44.9914414" lon="9.7858905"><ele>65.4</ele><time>2026-04-26T06:03:33.623Z</time></trkpt><trkpt lat="44.9914282" lon="9.7860177"><ele>65.0</ele><time>2026-04-26T06:03:35.62Z</time></trkpt><trkpt lat="44.991418" lon="9.7861405"><ele>65.0</ele><time>2026-04-26T06:03:37.628Z</time></trkpt><trkpt lat="44.9914013" lon="9.7862645"><ele>65.0</ele><time>2026-04-26T06:03:39.612Z</time></trkpt><trkpt lat="44.9913824" lon="9.7863862"><ele>65.0</ele><time>2026-04-26T06:03:41.635Z</time></trkpt><trkpt lat="44.9913636" lon="9.7865224"><ele>65.0</ele><time>2026-04-26T06:03:43.631Z</time></trkpt><trkpt lat="44.9913412" lon="9.7866538"><ele>65.0</ele><time>2026-04-26T06:03:45.622Z</time></trkpt><trkpt lat="44.9913239" lon="9.7867924"><ele>65.0</ele><time>2026-04-26T06:03:47.626Z</time></trkpt><trkpt lat="44.9913012" lon="9.7869303"><ele>65.0</ele><time>2026-04-26T06:03:49.606Z</time></trkpt><trkpt lat="44.9912768" lon="9.787063"><ele>65.0</ele><time>2026-04-26T06:03:51.61Z</time></trkpt><trkpt lat="44.9912518" lon="9.787198"><ele>65.0</ele><time>2026-04-26T06:03:53.626Z</time></trkpt><trkpt lat="44.9912386" lon="9.787339"><ele>65.0</ele><time>2026-04-26T06:03:55.614Z</time></trkpt><trkpt lat="44.991217" lon="9.7874607"><ele>65.0</ele><time>2026-04-26T06:03:57.624Z</time></trkpt><trkpt lat="44.9912026" lon="9.7875926"><ele>65.0</ele><time>2026-04-26T06:03:59.624Z</time></trkpt><trkpt lat="44.9911759" lon="9.7877218"><ele>65.0</ele><time>2026-04-26T06:04:01.623Z</time></trkpt><trkpt lat="44.9911648" lon="9.7878518"><ele>65.0</ele><time>2026-04-26T06:04:03.62Z</time></trkpt><trkpt lat="44.9911612" lon="9.7879835"><ele>65.0</ele><time>2026-04-26T06:04:05.624Z</time></trkpt><trkpt lat="44.9911487" lon="9.7881053"><ele>65.0</ele><time>2026-04-26T06:04:07.626Z</time></trkpt><trkpt lat="44.9911277" lon="9.7882288"><ele>65.0</ele><time>2026-04-26T06:04:09.612Z</time></trkpt><trkpt lat="44.9911081" lon="9.7883284"><ele>65.0</ele><time>2026-04-26T06:04:11.633Z</time></trkpt><trkpt lat="44.9910421" lon="9.788355"><ele>65.0</ele><time>2026-04-26T06:04:13.629Z</time></trkpt><trkpt lat="44.9909574" lon="9.7883159"><ele>65.0</ele><time>2026-04-26T06:04:15.62Z</time></trkpt><trkpt lat="44.9908738" lon="9.7883037"><ele>65.0</ele><time>2026-04-26T06:04:17.628Z</time></trkpt><trkpt lat="44.990784" lon="9.7883006"><ele>65.0</ele><time>2026-04-26T06:04:19.617Z</time></trkpt><trkpt lat="44.9906922" lon="9.7882925"><ele>65.0</ele><time>2026-04-26T06:04:21.622Z</time></trkpt><trkpt lat="44.9906072" lon="9.7882662"><ele>65.0</ele><time>2026-04-26T06:04:23.619Z</time></trkpt><trkpt lat="44.9905183" lon="9.7882464"><ele>65.0</ele><time>2026-04-26T06:04:25.61Z</time></trkpt><trkpt lat="44.9904272" lon="9.7882217"><ele>65.0</ele><time>2026-04-26T06:04:27.599Z</time></trkpt><trkpt lat="44.990336" lon="9.788204"><ele>65.0</ele><time>2026-04-26T06:04:29.625Z</time></trkpt><trkpt lat="44.9902506" lon="9.7881807"><ele>65.0</ele><time>2026-04-26T06:04:31.623Z</time></trkpt><trkpt lat="44.9901594" lon="9.7881658"><ele>65.0</ele><time>2026-04-26T06:04:33.626Z</time></trkpt><trkpt lat="44.9900663" lon="9.7881412"><ele>65.0</ele><time>2026-04-26T06:04:35.62Z</time></trkpt><trkpt lat="44.9899789" lon="9.788105"><ele>65.0</ele><time>2026-04-26T06:04:37.627Z</time></trkpt><trkpt lat="44.9898902" lon="9.7880877"><ele>64.6</ele><time>2026-04-26T06:04:39.618Z</time></trkpt><trkpt lat="44.9897969" lon="9.788072"><ele>64.2</ele><time>2026-04-26T06:04:41.626Z</time></trkpt><trkpt lat="44.989705" lon="9.788059"><ele>63.8</ele><time>2026-04-26T06:04:43.629Z</time></trkpt><trkpt lat="44.989613" lon="9.788041"><ele>63.4</ele><time>2026-04-26T06:04:45.628Z</time></trkpt><trkpt lat="44.9895225" lon="9.7880205"><ele>63.0</ele><time>2026-04-26T06:04:47.624Z</time></trkpt><trkpt lat="44.9894276" lon="9.7880005"><ele>63.0</ele><time>2026-04-26T06:04:49.624Z</time></trkpt><trkpt lat="44.9893354" lon="9.7879737"><ele>63.0</ele><time>2026-04-26T06:04:51.629Z</time></trkpt><trkpt lat="44.9892402" lon="9.787943"><ele>63.0</ele><time>2026-04-26T06:04:53.617Z</time></trkpt><trkpt lat="44.98915" lon="9.7879134"><ele>63.0</ele><time>2026-04-26T06:04:55.626Z</time></trkpt><trkpt lat="44.9890634" lon="9.7878922"><ele>63.0</ele><time>2026-04-26T06:04:57.635Z</time></trkpt><trkpt lat="44.9889775" lon="9.7878614"><ele>63.0</ele><time>2026-04-26T06:04:59.633Z</time></trkpt><trkpt lat="44.9888851" lon="9.7878412"><ele>63.0</ele><time>2026-04-26T06:05:01.629Z</time></trkpt><trkpt lat="44.9887951" lon="9.7878088"><ele>63.0</ele><time>2026-04-26T06:05:03.635Z</time></trkpt><trkpt lat="44.98871" lon="9.787775"><ele>63.0</ele><time>2026-04-26T06:05:05.598Z</time></trkpt><trkpt lat="44.9886298" lon="9.7877548"><ele>63.0</ele><time>2026-04-26T06:05:07.619Z</time></trkpt><trkpt lat="44.988544" lon="9.787717"><ele>63.0</ele><time>2026-04-26T06:05:09.63Z</time></trkpt><trkpt lat="44.9884516" lon="9.787683"><ele>63.2</ele><time>2026-04-26T06:05:11.627Z</time></trkpt><trkpt lat="44.9883569" lon="9.7876525"><ele>63.4</ele><time>2026-04-26T06:05:13.628Z</time></trkpt><trkpt lat="44.9882608" lon="9.7876227"><ele>63.60000000000001</ele><time>2026-04-26T06:05:15.626Z</time></trkpt><trkpt lat="44.9881695" lon="9.7875895"><ele>63.800000000000004</ele><time>2026-04-26T06:05:17.633Z</time></trkpt><trkpt lat="44.9880827" lon="9.7875546"><ele>64.0</ele><time>2026-04-26T06:05:19.622Z</time></trkpt><trkpt lat="44.9879934" lon="9.7875263"><ele>63.6</ele><time>2026-04-26T06:05:21.635Z</time></trkpt><trkpt lat="44.9879062" lon="9.7874823"><ele>63.2</ele><time>2026-04-26T06:05:23.632Z</time></trkpt><trkpt lat="44.987814" lon="9.7874469"><ele>62.800000000000004</ele><time>2026-04-26T06:05:25.629Z</time></trkpt><trkpt lat="44.9877269" lon="9.7874263"><ele>62.400000000000006</ele><time>2026-04-26T06:05:27.635Z</time></trkpt><trkpt lat="44.9876447" lon="9.7873977"><ele>62.0</ele><time>2026-04-26T06:05:29.612Z</time></trkpt><trkpt lat="44.9875566" lon="9.7873618"><ele>62.0</ele><time>2026-04-26T06:05:31.632Z</time></trkpt><trkpt lat="44.98747" lon="9.7873289"><ele>62.0</ele><time>2026-04-26T06:05:33.632Z</time></trkpt><trkpt lat="44.9873771" lon="9.7872956"><ele>62.0</ele><time>2026-04-26T06:05:35.62Z</time></trkpt><trkpt lat="44.9872832" lon="9.7872733"><ele>62.0</ele><time>2026-04-26T06:05:37.636Z</time></trkpt><trkpt lat="44.9871929" lon="9.7872389"><ele>62.0</ele><time>2026-04-26T06:05:39.627Z</time></trkpt><trkpt lat="44.987108" lon="9.7871997"><ele>62.0</ele><time>2026-04-26T06:05:41.632Z</time></trkpt><trkpt lat="44.987014" lon="9.7871766"><ele>62.0</ele><time>2026-04-26T06:05:43.623Z</time></trkpt><trkpt lat="44.9869188" lon="9.7871415"><ele>62.0</ele><time>2026-04-26T06:05:45.634Z</time></trkpt><trkpt lat="44.9868342" lon="9.7871049"><ele>62.0</ele><time>2026-04-26T06:05:47.626Z</time></trkpt><trkpt lat="44.9867491" lon="9.7870697"><ele>62.0</ele><time>2026-04-26T06:05:49.629Z</time></trkpt><trkpt lat="44.9866559" lon="9.7870411"><ele>62.2</ele><time>2026-04-26T06:05:51.632Z</time></trkpt><trkpt lat="44.9865608" lon="9.787036"><ele>62.400000000000006</ele><time>2026-04-26T06:05:53.624Z</time></trkpt><trkpt lat="44.9864678" lon="9.7870673"><ele>62.599999999999994</ele><time>2026-04-26T06:05:55.631Z</time></trkpt><trkpt lat="44.9863763" lon="9.7871241"><ele>62.8</ele><time>2026-04-26T06:05:57.63Z</time></trkpt><trkpt lat="44.9863014" lon="9.7872015"><ele>63.0</ele><time>2026-04-26T06:05:59.627Z</time></trkpt><trkpt lat="44.9862384" lon="9.7873089"><ele>63.0</ele><time>2026-04-26T06:06:01.637Z</time></trkpt><trkpt lat="44.9861897" lon="9.7874335"><ele>63.0</ele><time>2026-04-26T06:06:03.643Z</time></trkpt><trkpt lat="44.9861598" lon="9.7875719"><ele>63.0</ele><time>2026-04-26T06:06:05.625Z</time></trkpt><trkpt lat="44.9861341" lon="9.7877077"><ele>63.0</ele><time>2026-04-26T06:06:07.619Z</time></trkpt><trkpt lat="44.9861134" lon="9.7878408"><ele>63.0</ele><time>2026-04-26T06:06:09.639Z</time></trkpt><trkpt lat="44.9860916" lon="9.7879763"><ele>63.599999999999994</ele><time>2026-04-26T06:06:11.628Z</time></trkpt><trkpt lat="44.9860668" lon="9.7881087"><ele>64.19999999999999</ele><time>2026-04-26T06:06:13.64Z</time></trkpt><trkpt lat="44.9860435" lon="9.7882425"><ele>64.8</ele><time>2026-04-26T06:06:15.629Z</time></trkpt><trkpt lat="44.9860237" lon="9.7883786"><ele>65.39999999999999</ele><time>2026-04-26T06:06:17.627Z</time></trkpt><trkpt lat="44.986" lon="9.788514"><ele>66.0</ele><time>2026-04-26T06:06:19.625Z</time></trkpt><trkpt lat="44.9859788" lon="9.7886415"><ele>66.0</ele><time>2026-04-26T06:06:21.612Z</time></trkpt><trkpt lat="44.9859524" lon="9.7887715"><ele>66.0</ele><time>2026-04-26T06:06:23.629Z</time></trkpt><trkpt lat="44.9859218" lon="9.7889073"><ele>66.0</ele><time>2026-04-26T06:06:25.623Z</time></trkpt><trkpt lat="44.9858627" lon="9.7890215"><ele>66.0</ele><time>2026-04-26T06:06:27.616Z</time></trkpt><trkpt lat="44.9857827" lon="9.789113"><ele>66.0</ele><time>2026-04-26T06:06:29.626Z</time></trkpt><trkpt lat="44.9856934" lon="9.7891656"><ele>65.6</ele><time>2026-04-26T06:06:31.613Z</time></trkpt><trkpt lat="44.9855936" lon="9.7891749"><ele>65.19999999999999</ele><time>2026-04-26T06:06:33.618Z</time></trkpt><trkpt lat="44.9854955" lon="9.7891596"><ele>64.80000000000001</ele><time>2026-04-26T06:06:35.627Z</time></trkpt><trkpt lat="44.9854009" lon="9.7891317"><ele>64.4</ele><time>2026-04-26T06:06:37.627Z</time></trkpt><trkpt lat="44.9853106" lon="9.7891024"><ele>64.0</ele><time>2026-04-26T06:06:39.619Z</time></trkpt><trkpt lat="44.9852164" lon="9.7890743"><ele>64.0</ele><time>2026-04-26T06:06:41.634Z</time></trkpt><trkpt lat="44.9851222" lon="9.789039"><ele>64.0</ele><time>2026-04-26T06:06:43.633Z</time></trkpt><trkpt lat="44.9850323" lon="9.789014"><ele>64.0</ele><time>2026-04-26T06:06:45.628Z</time></trkpt><trkpt lat="44.9849436" lon="9.7889799"><ele>64.0</ele><time>2026-04-26T06:06:47.623Z</time></trkpt><trkpt lat="44.9848508" lon="9.7889435"><ele>64.0</ele><time>2026-04-26T06:06:49.627Z</time></trkpt><trkpt lat="44.9847519" lon="9.788907"><ele>63.6</ele><time>2026-04-26T06:06:51.606Z</time></trkpt><trkpt lat="44.9846606" lon="9.7888762"><ele>63.2</ele><time>2026-04-26T06:06:53.638Z</time></trkpt><trkpt lat="44.9845669" lon="9.7888439"><ele>62.800000000000004</ele><time>2026-04-26T06:06:55.627Z</time></trkpt><trkpt lat="44.9844671" lon="9.7888137"><ele>62.400000000000006</ele><time>2026-04-26T06:06:57.628Z</time></trkpt><trkpt lat="44.9843787" lon="9.7887755"><ele>62.0</ele><time>2026-04-26T06:06:59.634Z</time></trkpt><trkpt lat="44.9842887" lon="9.7887415"><ele>62.0</ele><time>2026-04-26T06:07:01.624Z</time></trkpt><trkpt lat="44.9841941" lon="9.7887122"><ele>62.0</ele><time>2026-04-26T06:07:03.628Z</time></trkpt><trkpt lat="44.9840992" lon="9.7886781"><ele>62.0</ele><time>2026-04-26T06:07:05.624Z</time></trkpt><trkpt lat="44.9840064" lon="9.7886442"><ele>62.0</ele><time>2026-04-26T06:07:07.627Z</time></trkpt><trkpt lat="44.9839083" lon="9.7886073"><ele>62.0</ele><time>2026-04-26T06:07:09.633Z</time></trkpt><trkpt lat="44.9838093" lon="9.7885748"><ele>62.400000000000006</ele><time>2026-04-26T06:07:11.631Z</time></trkpt><trkpt lat="44.9837132" lon="9.7885459"><ele>62.800000000000004</ele><time>2026-04-26T06:07:13.619Z</time></trkpt><trkpt lat="44.9836148" lon="9.7885187"><ele>63.2</ele><time>2026-04-26T06:07:15.625Z</time></trkpt><trkpt lat="44.9835212" lon="9.7884809"><ele>63.6</ele><time>2026-04-26T06:07:17.614Z</time></trkpt><trkpt lat="44.983421" lon="9.7884484"><ele>64.0</ele><time>2026-04-26T06:07:19.629Z</time></trkpt><trkpt lat="44.9833267" lon="9.7884163"><ele>64.2</ele><time>2026-04-26T06:07:21.612Z</time></trkpt><trkpt lat="44.983228" lon="9.7884257"><ele>64.4</ele><time>2026-04-26T06:07:23.621Z</time></trkpt><trkpt lat="44.9831369" lon="9.788482"><ele>64.6</ele><time>2026-04-26T06:07:25.632Z</time></trkpt><trkpt lat="44.9830563" lon="9.7885538"><ele>64.8</ele><time>2026-04-26T06:07:27.63Z</time></trkpt><trkpt lat="44.9829903" lon="9.7886314"><ele>65.0</ele><time>2026-04-26T06:07:29.617Z</time></trkpt><trkpt lat="44.9829058" lon="9.7887085"><ele>65.2</ele><time>2026-04-26T06:07:31.62Z</time></trkpt><trkpt lat="44.9828096" lon="9.7887339"><ele>65.4</ele><time>2026-04-26T06:07:33.632Z</time></trkpt><trkpt lat="44.9827091" lon="9.7887024"><ele>65.6</ele><time>2026-04-26T06:07:35.622Z</time></trkpt><trkpt lat="44.9826239" lon="9.7886528"><ele>65.8</ele><time>2026-04-26T06:07:37.628Z</time></trkpt><trkpt lat="44.9825368" lon="9.7885917"><ele>66.0</ele><time>2026-04-26T06:07:39.622Z</time></trkpt><trkpt lat="44.9824459" lon="9.7885221"><ele>66.0</ele><time>2026-04-26T06:07:41.636Z</time></trkpt><trkpt lat="44.9823597" lon="9.7884481"><ele>66.0</ele><time>2026-04-26T06:07:43.632Z</time></trkpt><trkpt lat="44.9822723" lon="9.788374"><ele>66.0</ele><time>2026-04-26T06:07:45.621Z</time></trkpt><trkpt lat="44.9821843" lon="9.7883088"><ele>66.0</ele><time>2026-04-26T06:07:47.622Z</time></trkpt><trkpt lat="44.9821005" lon="9.7882519"><ele>66.0</ele><time>2026-04-26T06:07:49.636Z</time></trkpt><trkpt lat="44.9820108" lon="9.7881861"><ele>66.0</ele><time>2026-04-26T06:07:51.626Z</time></trkpt><trkpt lat="44.9819257" lon="9.7881178"><ele>66.0</ele><time>2026-04-26T06:07:53.631Z</time></trkpt><trkpt lat="44.9818454" lon="9.7880516"><ele>66.0</ele><time>2026-04-26T06:07:55.589Z</time></trkpt><trkpt lat="44.9817573" lon="9.7879873"><ele>66.0</ele><time>2026-04-26T06:07:57.6Z</time></trkpt><trkpt lat="44.9816722" lon="9.7879178"><ele>66.0</ele><time>2026-04-26T06:07:59.621Z</time></trkpt><trkpt lat="44.9815844" lon="9.7878572"><ele>66.0</ele><time>2026-04-26T06:08:01.627Z</time></trkpt><trkpt lat="44.9814982" lon="9.7877861"><ele>66.0</ele><time>2026-04-26T06:08:03.635Z</time></trkpt><trkpt lat="44.9814144" lon="9.7877228"><ele>66.0</ele><time>2026-04-26T06:08:05.622Z</time></trkpt><trkpt lat="44.981329" lon="9.7876567"><ele>66.0</ele><time>2026-04-26T06:08:07.624Z</time></trkpt><trkpt lat="44.9812399" lon="9.7875928"><ele>66.0</ele><time>2026-04-26T06:08:09.631Z</time></trkpt><trkpt lat="44.9811553" lon="9.7875309"><ele>66.0</ele><time>2026-04-26T06:08:11.621Z</time></trkpt><trkpt lat="44.9810736" lon="9.7874638"><ele>66.0</ele><time>2026-04-26T06:08:13.611Z</time></trkpt><trkpt lat="44.980991" lon="9.7873978"><ele>66.0</ele><time>2026-04-26T06:08:15.63Z</time></trkpt><trkpt lat="44.9809072" lon="9.7873297"><ele>66.0</ele><time>2026-04-26T06:08:17.619Z</time></trkpt><trkpt lat="44.9808226" lon="9.7872595"><ele>66.0</ele><time>2026-04-26T06:08:19.626Z</time></trkpt><trkpt lat="44.9807368" lon="9.7871934"><ele>66.0</ele><time>2026-04-26T06:08:21.631Z</time></trkpt><trkpt lat="44.9806419" lon="9.7871283"><ele>66.0</ele><time>2026-04-26T06:08:23.623Z</time></trkpt><trkpt lat="44.9805545" lon="9.7870618"><ele>66.0</ele><time>2026-04-26T06:08:25.631Z</time></trkpt><trkpt lat="44.9804684" lon="9.78699"><ele>66.0</ele><time>2026-04-26T06:08:27.626Z</time></trkpt><trkpt lat="44.9803884" lon="9.7869237"><ele>66.0</ele><time>2026-04-26T06:08:29.632Z</time></trkpt><trkpt lat="44.9803008" lon="9.7868722"><ele>65.8</ele><time>2026-04-26T06:08:31.621Z</time></trkpt><trkpt lat="44.9802061" lon="9.7868433"><ele>65.6</ele><time>2026-04-26T06:08:33.632Z</time></trkpt><trkpt lat="44.980106" lon="9.7868373"><ele>65.4</ele><time>2026-04-26T06:08:35.633Z</time></trkpt><trkpt lat="44.980011" lon="9.7868609"><ele>65.2</ele><time>2026-04-26T06:08:37.637Z</time></trkpt><trkpt lat="44.9799297" lon="9.786919"><ele>65.0</ele><time>2026-04-26T06:08:39.625Z</time></trkpt><trkpt lat="44.9798479" lon="9.7869939"><ele>65.6</ele><time>2026-04-26T06:08:41.636Z</time></trkpt><trkpt lat="44.9797846" lon="9.7870841"><ele>66.2</ele><time>2026-04-26T06:08:43.623Z</time></trkpt><trkpt lat="44.9797225" lon="9.787196"><ele>66.8</ele><time>2026-04-26T06:08:45.635Z</time></trkpt><trkpt lat="44.9796547" lon="9.7872937"><ele>67.4</ele><time>2026-04-26T06:08:47.623Z</time></trkpt><trkpt lat="44.9795651" lon="9.7873335"><ele>68.0</ele><time>2026-04-26T06:08:49.637Z</time></trkpt><trkpt lat="44.9794737" lon="9.7873307"><ele>68.0</ele><time>2026-04-26T06:08:51.627Z</time></trkpt><trkpt lat="44.9793808" lon="9.7873014"><ele>68.0</ele><time>2026-04-26T06:08:53.625Z</time></trkpt><trkpt lat="44.9792923" lon="9.7872476"><ele>68.0</ele><time>2026-04-26T06:08:55.626Z</time></trkpt><trkpt lat="44.9792042" lon="9.7872043"><ele>68.0</ele><time>2026-04-26T06:08:57.628Z</time></trkpt><trkpt lat="44.9791168" lon="9.7871628"><ele>68.0</ele><time>2026-04-26T06:08:59.631Z</time></trkpt><trkpt lat="44.9790294" lon="9.7871162"><ele>68.2</ele><time>2026-04-26T06:09:01.624Z</time></trkpt><trkpt lat="44.9789419" lon="9.7870717"><ele>68.4</ele><time>2026-04-26T06:09:03.624Z</time></trkpt><trkpt lat="44.9788551" lon="9.7870197"><ele>68.60000000000001</ele><time>2026-04-26T06:09:05.633Z</time></trkpt><trkpt lat="44.9787697" lon="9.7869721"><ele>68.8</ele><time>2026-04-26T06:09:07.615Z</time></trkpt><trkpt lat="44.9786793" lon="9.7869209"><ele>69.0</ele><time>2026-04-26T06:09:09.622Z</time></trkpt><trkpt lat="44.978592" lon="9.7868764"><ele>69.4</ele><time>2026-04-26T06:09:11.624Z</time></trkpt><trkpt lat="44.9784986" lon="9.7868303"><ele>69.80000000000001</ele><time>2026-04-26T06:09:13.637Z</time></trkpt><trkpt lat="44.978408" lon="9.7867851"><ele>70.19999999999999</ele><time>2026-04-26T06:09:15.629Z</time></trkpt><trkpt lat="44.978324" lon="9.7867342"><ele>70.6</ele><time>2026-04-26T06:09:17.623Z</time></trkpt><trkpt lat="44.978226" lon="9.7866813"><ele>71.0</ele><time>2026-04-26T06:09:19.625Z</time></trkpt><trkpt lat="44.9781348" lon="9.7866342"><ele>71.0</ele><time>2026-04-26T06:09:21.628Z</time></trkpt><trkpt lat="44.9780447" lon="9.7865833"><ele>71.0</ele><time>2026-04-26T06:09:23.607Z</time></trkpt><trkpt lat="44.9779513" lon="9.7865428"><ele>71.0</ele><time>2026-04-26T06:09:25.628Z</time></trkpt><trkpt lat="44.9778648" lon="9.7864884"><ele>71.0</ele><time>2026-04-26T06:09:27.63Z</time></trkpt><trkpt lat="44.9777685" lon="9.7864411"><ele>71.0</ele><time>2026-04-26T06:09:29.625Z</time></trkpt><trkpt lat="44.9776769" lon="9.7863901"><ele>71.0</ele><time>2026-04-26T06:09:31.619Z</time></trkpt><trkpt lat="44.977585" lon="9.7863456"><ele>71.0</ele><time>2026-04-26T06:09:33.626Z</time></trkpt><trkpt lat="44.9774948" lon="9.7862993"><ele>71.0</ele><time>2026-04-26T06:09:35.62Z</time></trkpt><trkpt lat="44.977405" lon="9.7862477"><ele>71.0</ele><time>2026-04-26T06:09:37.63Z</time></trkpt><trkpt lat="44.9773177" lon="9.7862068"><ele>71.0</ele><time>2026-04-26T06:09:39.618Z</time></trkpt><trkpt lat="44.9772243" lon="9.7861567"><ele>70.8</ele><time>2026-04-26T06:09:41.626Z</time></trkpt><trkpt lat="44.9771312" lon="9.7861066"><ele>70.6</ele><time>2026-04-26T06:09:43.628Z</time></trkpt><trkpt lat="44.977035" lon="9.7860689"><ele>70.4</ele><time>2026-04-26T06:09:45.624Z</time></trkpt><trkpt lat="44.9769473" lon="9.7860248"><ele>70.2</ele><time>2026-04-26T06:09:47.634Z</time></trkpt><trkpt lat="44.9768591" lon="9.7859755"><ele>70.0</ele><time>2026-04-26T06:09:49.599Z</time></trkpt><trkpt lat="44.9767687" lon="9.7859393"><ele>70.0</ele><time>2026-04-26T06:09:51.631Z</time></trkpt><trkpt lat="44.9766726" lon="9.7858959"><ele>70.0</ele><time>2026-04-26T06:09:53.618Z</time></trkpt><trkpt lat="44.9765855" lon="9.7858445"><ele>70.0</ele><time>2026-04-26T06:09:55.63Z</time></trkpt><trkpt lat="44.9764923" lon="9.7857954"><ele>70.0</ele><time>2026-04-26T06:09:57.626Z</time></trkpt><trkpt lat="44.9764013" lon="9.785748"><ele>70.0</ele><time>2026-04-26T06:09:59.636Z</time></trkpt><trkpt lat="44.9763108" lon="9.7857004"><ele>70.0</ele><time>2026-04-26T06:10:01.625Z</time></trkpt><trkpt lat="44.9762188" lon="9.7856495"><ele>70.0</ele><time>2026-04-26T06:10:03.62Z</time></trkpt><trkpt lat="44.9761298" lon="9.7856014"><ele>70.0</ele><time>2026-04-26T06:10:05.607Z</time></trkpt><trkpt lat="44.9760391" lon="9.785556"><ele>70.0</ele><time>2026-04-26T06:10:07.628Z</time></trkpt><trkpt lat="44.9759468" lon="9.7855094"><ele>70.0</ele><time>2026-04-26T06:10:09.626Z</time></trkpt><trkpt lat="44.9758592" lon="9.7854643"><ele>69.8</ele><time>2026-04-26T06:10:11.636Z</time></trkpt><trkpt lat="44.975768" lon="9.7854146"><ele>69.6</ele><time>2026-04-26T06:10:13.623Z</time></trkpt><trkpt lat="44.9756759" lon="9.7853686"><ele>69.4</ele><time>2026-04-26T06:10:15.609Z</time></trkpt><trkpt lat="44.9755837" lon="9.7853333"><ele>69.2</ele><time>2026-04-26T06:10:17.629Z</time></trkpt><trkpt lat="44.9754936" lon="9.7852897"><ele>69.0</ele><time>2026-04-26T06:10:19.622Z</time></trkpt><trkpt lat="44.975406" lon="9.7852445"><ele>69.0</ele><time>2026-04-26T06:10:21.627Z</time></trkpt><trkpt lat="44.9753203" lon="9.7852014"><ele>69.0</ele><time>2026-04-26T06:10:23.621Z</time></trkpt><trkpt lat="44.9752295" lon="9.7851578"><ele>69.0</ele><time>2026-04-26T06:10:25.622Z</time></trkpt><trkpt lat="44.9751359" lon="9.7851143"><ele>69.0</ele><time>2026-04-26T06:10:27.63Z</time></trkpt><trkpt lat="44.975042" lon="9.7850723"><ele>69.0</ele><time>2026-04-26T06:10:29.63Z</time></trkpt><trkpt lat="44.9749493" lon="9.7850327"><ele>69.0</ele><time>2026-04-26T06:10:31.63Z</time></trkpt><trkpt lat="44.9748558" lon="9.7849846"><ele>69.0</ele><time>2026-04-26T06:10:33.635Z</time></trkpt><trkpt lat="44.9747674" lon="9.7849493"><ele>69.0</ele><time>2026-04-26T06:10:35.625Z</time></trkpt><trkpt lat="44.974679" lon="9.7849083"><ele>69.0</ele><time>2026-04-26T06:10:37.632Z</time></trkpt><trkpt lat="44.9745879" lon="9.7848634"><ele>69.0</ele><time>2026-04-26T06:10:39.626Z</time></trkpt><trkpt lat="44.9744932" lon="9.7848266"><ele>69.0</ele><time>2026-04-26T06:10:41.636Z</time></trkpt><trkpt lat="44.9744049" lon="9.7847903"><ele>69.0</ele><time>2026-04-26T06:10:43.621Z</time></trkpt><trkpt lat="44.9743154" lon="9.7847519"><ele>69.0</ele><time>2026-04-26T06:10:45.635Z</time></trkpt><trkpt lat="44.9742291" lon="9.7847054"><ele>69.0</ele><time>2026-04-26T06:10:47.634Z</time></trkpt><trkpt lat="44.9741409" lon="9.7846607"><ele>69.0</ele><time>2026-04-26T06:10:49.617Z</time></trkpt><trkpt lat="44.9740488" lon="9.7846249"><ele>69.2</ele><time>2026-04-26T06:10:51.619Z</time></trkpt><trkpt lat="44.9739619" lon="9.7845935"><ele>69.4</ele><time>2026-04-26T06:10:53.634Z</time></trkpt><trkpt lat="44.9738761" lon="9.7845501"><ele>69.6</ele><time>2026-04-26T06:10:55.627Z</time></trkpt><trkpt lat="44.9737873" lon="9.784511"><ele>69.8</ele><time>2026-04-26T06:10:57.638Z</time></trkpt><trkpt lat="44.9736956" lon="9.7844718"><ele>70.0</ele><time>2026-04-26T06:10:59.626Z</time></trkpt><trkpt lat="44.9736044" lon="9.7844295"><ele>70.0</ele><time>2026-04-26T06:11:01.621Z</time></trkpt><trkpt lat="44.9735187" lon="9.7843951"><ele>70.0</ele><time>2026-04-26T06:11:03.634Z</time></trkpt><trkpt lat="44.9734289" lon="9.7843513"><ele>70.0</ele><time>2026-04-26T06:11:05.626Z</time></trkpt><trkpt lat="44.9733313" lon="9.7843227"><ele>70.0</ele><time>2026-04-26T06:11:07.63Z</time></trkpt><trkpt lat="44.9732392" lon="9.7842854"><ele>70.0</ele><time>2026-04-26T06:11:09.625Z</time></trkpt><trkpt lat="44.9731519" lon="9.7842585"><ele>70.0</ele><time>2026-04-26T06:11:11.624Z</time></trkpt><trkpt lat="44.9730599" lon="9.7842277"><ele>70.0</ele><time>2026-04-26T06:11:13.617Z</time></trkpt><trkpt lat="44.9729702" lon="9.7841962"><ele>70.0</ele><time>2026-04-26T06:11:15.636Z</time></trkpt><trkpt lat="44.9728834" lon="9.7841672"><ele>70.0</ele><time>2026-04-26T06:11:17.617Z</time></trkpt><trkpt lat="44.9727897" lon="9.7841291"><ele>70.0</ele><time>2026-04-26T06:11:19.633Z</time></trkpt><trkpt lat="44.9726976" lon="9.7840964"><ele>70.0</ele><time>2026-04-26T06:11:21.626Z</time></trkpt><trkpt lat="44.9726059" lon="9.7840646"><ele>70.0</ele><time>2026-04-26T06:11:23.634Z</time></trkpt><trkpt lat="44.972508" lon="9.784036"><ele>70.0</ele><time>2026-04-26T06:11:25.63Z</time></trkpt><trkpt lat="44.9724109" lon="9.7840063"><ele>70.0</ele><time>2026-04-26T06:11:27.62Z</time></trkpt><trkpt lat="44.97232" lon="9.7839704"><ele>70.0</ele><time>2026-04-26T06:11:29.631Z</time></trkpt><trkpt lat="44.9722281" lon="9.7839496"><ele>70.2</ele><time>2026-04-26T06:11:31.626Z</time></trkpt><trkpt lat="44.9721366" lon="9.7839307"><ele>70.4</ele><time>2026-04-26T06:11:33.629Z</time></trkpt><trkpt lat="44.9720478" lon="9.7839026"><ele>70.6</ele><time>2026-04-26T06:11:35.619Z</time></trkpt><trkpt lat="44.9719503" lon="9.7838799"><ele>70.8</ele><time>2026-04-26T06:11:37.624Z</time></trkpt><trkpt lat="44.9718548" lon="9.7838514"><ele>71.0</ele><time>2026-04-26T06:11:39.628Z</time></trkpt><trkpt lat="44.9717666" lon="9.7838183"><ele>71.2</ele><time>2026-04-26T06:11:41.629Z</time></trkpt><trkpt lat="44.9716764" lon="9.7837886"><ele>71.39999999999999</ele><time>2026-04-26T06:11:43.635Z</time></trkpt><trkpt lat="44.9715815" lon="9.7837481"><ele>71.6</ele><time>2026-04-26T06:11:45.622Z</time></trkpt><trkpt lat="44.9714976" lon="9.783717"><ele>71.8</ele><time>2026-04-26T06:11:47.626Z</time></trkpt><trkpt lat="44.9714074" lon="9.7836651"><ele>72.0</ele><time>2026-04-26T06:11:49.626Z</time></trkpt><trkpt lat="44.9713193" lon="9.783608"><ele>72.0</ele><time>2026-04-26T06:11:51.625Z</time></trkpt><trkpt lat="44.9712271" lon="9.7835534"><ele>72.0</ele><time>2026-04-26T06:11:53.633Z</time></trkpt><trkpt lat="44.9711409" lon="9.7834927"><ele>72.0</ele><time>2026-04-26T06:11:55.603Z</time></trkpt><trkpt lat="44.9710567" lon="9.7834238"><ele>72.0</ele><time>2026-04-26T06:11:57.626Z</time></trkpt><trkpt lat="44.970971" lon="9.7833636"><ele>72.0</ele><time>2026-04-26T06:11:59.622Z</time></trkpt><trkpt lat="44.9708778" lon="9.7833077"><ele>72.4</ele><time>2026-04-26T06:12:01.633Z</time></trkpt><trkpt lat="44.970788" lon="9.7832475"><ele>72.80000000000001</ele><time>2026-04-26T06:12:03.629Z</time></trkpt><trkpt lat="44.9706983" lon="9.7831949"><ele>73.2</ele><time>2026-04-26T06:12:05.629Z</time></trkpt><trkpt lat="44.9706008" lon="9.7831351"><ele>73.60000000000001</ele><time>2026-04-26T06:12:07.615Z</time></trkpt><trkpt lat="44.9704998" lon="9.7830982"><ele>74.0</ele><time>2026-04-26T06:12:09.625Z</time></trkpt><trkpt lat="44.970403" lon="9.7830697"><ele>74.0</ele><time>2026-04-26T06:12:11.606Z</time></trkpt><trkpt lat="44.9703097" lon="9.783038"><ele>74.0</ele><time>2026-04-26T06:12:13.625Z</time></trkpt><trkpt lat="44.9702221" lon="9.7830045"><ele>74.0</ele><time>2026-04-26T06:12:15.632Z</time></trkpt><trkpt lat="44.9701274" lon="9.7829721"><ele>74.0</ele><time>2026-04-26T06:12:17.661Z</time></trkpt><trkpt lat="44.9700291" lon="9.7829325"><ele>74.0</ele><time>2026-04-26T06:12:19.634Z</time></trkpt><trkpt lat="44.969932" lon="9.7829154"><ele>74.60000000000001</ele><time>2026-04-26T06:12:21.626Z</time></trkpt><trkpt lat="44.9698333" lon="9.7828924"><ele>75.2</ele><time>2026-04-26T06:12:23.619Z</time></trkpt><trkpt lat="44.9697344" lon="9.7828639"><ele>75.80000000000001</ele><time>2026-04-26T06:12:25.631Z</time></trkpt><trkpt lat="44.9696354" lon="9.7828443"><ele>76.4</ele><time>2026-04-26T06:12:27.624Z</time></trkpt><trkpt lat="44.9695424" lon="9.7828324"><ele>77.0</ele><time>2026-04-26T06:12:29.637Z</time></trkpt><trkpt lat="44.96945" lon="9.7828131"><ele>77.0</ele><time>2026-04-26T06:12:31.634Z</time></trkpt><trkpt lat="44.9693613" lon="9.7827851"><ele>77.0</ele><time>2026-04-26T06:12:33.625Z</time></trkpt><trkpt lat="44.9692754" lon="9.7827519"><ele>77.0</ele><time>2026-04-26T06:12:35.622Z</time></trkpt><trkpt lat="44.9691832" lon="9.7827172"><ele>77.0</ele><time>2026-04-26T06:12:37.627Z</time></trkpt><trkpt lat="44.9690984" lon="9.7826758"><ele>77.0</ele><time>2026-04-26T06:12:39.623Z</time></trkpt><trkpt lat="44.9690055" lon="9.7826386"><ele>77.2</ele><time>2026-04-26T06:12:41.624Z</time></trkpt><trkpt lat="44.9689167" lon="9.7825998"><ele>77.4</ele><time>2026-04-26T06:12:43.617Z</time></trkpt><trkpt lat="44.9688345" lon="9.7825547"><ele>77.6</ele><time>2026-04-26T06:12:45.624Z</time></trkpt><trkpt lat="44.9687413" lon="9.7825143"><ele>77.8</ele><time>2026-04-26T06:12:47.632Z</time></trkpt><trkpt lat="44.9686461" lon="9.7824702"><ele>78.0</ele><time>2026-04-26T06:12:49.624Z</time></trkpt><trkpt lat="44.9685582" lon="9.7824252"><ele>78.0</ele><time>2026-04-26T06:12:51.639Z</time></trkpt><trkpt lat="44.9684731" lon="9.7823771"><ele>78.0</ele><time>2026-04-26T06:12:53.635Z</time></trkpt><trkpt lat="44.9683745" lon="9.7823394"><ele>78.0</ele><time>2026-04-26T06:12:55.627Z</time></trkpt><trkpt lat="44.9682828" lon="9.7822843"><ele>78.0</ele><time>2026-04-26T06:12:57.626Z</time></trkpt><trkpt lat="44.9681909" lon="9.7822504"><ele>78.0</ele><time>2026-04-26T06:12:59.608Z</time></trkpt><trkpt lat="44.9680984" lon="9.7822143"><ele>77.8</ele><time>2026-04-26T06:13:01.626Z</time></trkpt><trkpt lat="44.9680147" lon="9.7821636"><ele>77.6</ele><time>2026-04-26T06:13:03.625Z</time></trkpt><trkpt lat="44.9679225" lon="9.7821172"><ele>77.4</ele><time>2026-04-26T06:13:05.618Z</time></trkpt><trkpt lat="44.9678313" lon="9.7820832"><ele>77.2</ele><time>2026-04-26T06:13:07.621Z</time></trkpt><trkpt lat="44.9677427" lon="9.7820392"><ele>77.0</ele><time>2026-04-26T06:13:09.618Z</time></trkpt><trkpt lat="44.9676496" lon="9.7819938"><ele>77.0</ele><time>2026-04-26T06:13:11.624Z</time></trkpt><trkpt lat="44.967563" lon="9.7819544"><ele>77.0</ele><time>2026-04-26T06:13:13.625Z</time></trkpt><trkpt lat="44.9674794" lon="9.7819019"><ele>77.0</ele><time>2026-04-26T06:13:15.626Z</time></trkpt><trkpt lat="44.9674002" lon="9.7818596"><ele>77.0</ele><time>2026-04-26T06:13:17.633Z</time></trkpt><trkpt lat="44.9673078" lon="9.7818345"><ele>77.0</ele><time>2026-04-26T06:13:19.629Z</time></trkpt><trkpt lat="44.9672169" lon="9.7817951"><ele>77.0</ele><time>2026-04-26T06:13:21.622Z</time></trkpt><trkpt lat="44.9671305" lon="9.781759"><ele>77.0</ele><time>2026-04-26T06:13:23.624Z</time></trkpt><trkpt lat="44.9670371" lon="9.7817103"><ele>77.0</ele><time>2026-04-26T06:13:25.626Z</time></trkpt><trkpt lat="44.966944" lon="9.7816574"><ele>77.0</ele><time>2026-04-26T06:13:27.628Z</time></trkpt><trkpt lat="44.9668601" lon="9.7816113"><ele>77.0</ele><time>2026-04-26T06:13:29.631Z</time></trkpt><trkpt lat="44.9667981" lon="9.7815836"><ele>77.0</ele><time>2026-04-26T06:13:31.629Z</time></trkpt><trkpt lat="44.9667282" lon="9.781568"><ele>77.0</ele><time>2026-04-26T06:13:34.629Z</time></trkpt><trkpt lat="44.9666717" lon="9.7816471"><ele>77.0</ele><time>2026-04-26T06:13:37.629Z</time></trkpt><trkpt lat="44.9666435" lon="9.7817385"><ele>77.0</ele><time>2026-04-26T06:13:40.634Z</time></trkpt><trkpt lat="44.9666143" lon="9.781824"><ele>77.0</ele><time>2026-04-26T06:13:43.622Z</time></trkpt><trkpt lat="44.9665779" lon="9.7819178"><ele>77.0</ele><time>2026-04-26T06:13:46.62Z</time></trkpt><trkpt lat="44.966537" lon="9.7819973"><ele>77.0</ele><time>2026-04-26T06:13:49.638Z</time></trkpt><trkpt lat="44.9664763" lon="9.7820748"><ele>77.0</ele><time>2026-04-26T06:13:52.616Z</time></trkpt><trkpt lat="44.9663804" lon="9.7821073"><ele>77.0</ele><time>2026-04-26T06:13:55.625Z</time></trkpt><trkpt lat="44.9663107" lon="9.7821205"><ele>77.0</ele><time>2026-04-26T06:13:57.627Z</time></trkpt><trkpt lat="44.9662371" lon="9.7821257"><ele>77.0</ele><time>2026-04-26T06:13:59.621Z</time></trkpt><trkpt lat="44.9661543" lon="9.7821079"><ele>77.0</ele><time>2026-04-26T06:14:01.635Z</time></trkpt><trkpt lat="44.9660846" lon="9.7820887"><ele>77.0</ele><time>2026-04-26T06:14:03.629Z</time></trkpt><trkpt lat="44.9660173" lon="9.7820797"><ele>77.0</ele><time>2026-04-26T06:14:05.619Z</time></trkpt><trkpt lat="44.9659542" lon="9.7820588"><ele>77.0</ele><time>2026-04-26T06:14:07.627Z</time></trkpt><trkpt lat="44.9658865" lon="9.7820434"><ele>77.14285714285714</ele><time>2026-04-26T06:14:09.625Z</time></trkpt><trkpt lat="44.9658179" lon="9.7820267"><ele>77.28571428571428</ele><time>2026-04-26T06:14:11.627Z</time></trkpt><trkpt lat="44.9657488" lon="9.7820159"><ele>77.42857142857143</ele><time>2026-04-26T06:14:13.626Z</time></trkpt><trkpt lat="44.9656787" lon="9.7820076"><ele>77.57142857142857</ele><time>2026-04-26T06:14:15.617Z</time></trkpt><trkpt lat="44.9656078" lon="9.7820019"><ele>77.71428571428571</ele><time>2026-04-26T06:14:17.63Z</time></trkpt><trkpt lat="44.9655342" lon="9.7819854"><ele>77.85714285714286</ele><time>2026-04-26T06:14:19.621Z</time></trkpt><trkpt lat="44.9654654" lon="9.7819776"><ele>78.0</ele><time>2026-04-26T06:14:21.619Z</time></trkpt><trkpt lat="44.9653841" lon="9.7819605"><ele>78.0</ele><time>2026-04-26T06:14:23.623Z</time></trkpt><trkpt lat="44.9653135" lon="9.7819455"><ele>78.0</ele><time>2026-04-26T06:14:25.626Z</time></trkpt><trkpt lat="44.9652364" lon="9.7819351"><ele>78.0</ele><time>2026-04-26T06:14:27.623Z</time></trkpt><trkpt lat="44.9651541" lon="9.7819096"><ele>78.0</ele><time>2026-04-26T06:14:29.613Z</time></trkpt><trkpt lat="44.9650789" lon="9.7818874"><ele>78.0</ele><time>2026-04-26T06:14:31.624Z</time></trkpt><trkpt lat="44.964997" lon="9.7818807"><ele>78.0</ele><time>2026-04-26T06:14:33.605Z</time></trkpt><trkpt lat="44.9649261" lon="9.7818654"><ele>78.0</ele><time>2026-04-26T06:14:35.625Z</time></trkpt><trkpt lat="44.9648581" lon="9.7818527"><ele>78.0</ele><time>2026-04-26T06:14:37.623Z</time></trkpt><trkpt lat="44.9647859" lon="9.7818444"><ele>78.0</ele><time>2026-04-26T06:14:39.628Z</time></trkpt><trkpt lat="44.9647195" lon="9.7818407"><ele>78.0</ele><time>2026-04-26T06:14:41.62Z</time></trkpt><trkpt lat="44.9646471" lon="9.7818339"><ele>78.0</ele><time>2026-04-26T06:14:43.628Z</time></trkpt><trkpt lat="44.9645734" lon="9.7818179"><ele>78.0</ele><time>2026-04-26T06:14:45.624Z</time></trkpt><trkpt lat="44.9644985" lon="9.7818017"><ele>78.0</ele><time>2026-04-26T06:14:47.625Z</time></trkpt><trkpt lat="44.9644148" lon="9.7817843"><ele>78.0</ele><time>2026-04-26T06:14:49.617Z</time></trkpt><trkpt lat="44.9643327" lon="9.7817624"><ele>78.0</ele><time>2026-04-26T06:14:51.623Z</time></trkpt><trkpt lat="44.964257" lon="9.7817377"><ele>78.0</ele><time>2026-04-26T06:14:53.622Z</time></trkpt><trkpt lat="44.9641726" lon="9.7817193"><ele>78.0</ele><time>2026-04-26T06:14:55.614Z</time></trkpt><trkpt lat="44.964091" lon="9.7817132"><ele>78.0</ele><time>2026-04-26T06:14:57.61Z</time></trkpt><trkpt lat="44.9640222" lon="9.7816868"><ele>78.0</ele><time>2026-04-26T06:14:59.63Z</time></trkpt><trkpt lat="44.963946" lon="9.7816637"><ele>77.71428571428572</ele><time>2026-04-26T06:15:01.628Z</time></trkpt><trkpt lat="44.9638812" lon="9.7816639"><ele>77.42857142857142</ele><time>2026-04-26T06:15:03.629Z</time></trkpt><trkpt lat="44.9638074" lon="9.7816568"><ele>77.14285714285714</ele><time>2026-04-26T06:15:05.62Z</time></trkpt><trkpt lat="44.9637335" lon="9.7816543"><ele>76.85714285714286</ele><time>2026-04-26T06:15:07.62Z</time></trkpt><trkpt lat="44.9636626" lon="9.7816505"><ele>76.57142857142858</ele><time>2026-04-26T06:15:09.616Z</time></trkpt><trkpt lat="44.9635855" lon="9.7816373"><ele>76.28571428571428</ele><time>2026-04-26T06:15:11.626Z</time></trkpt><trkpt lat="44.9635108" lon="9.781622"><ele>76.0</ele><time>2026-04-26T06:15:13.627Z</time></trkpt><trkpt lat="44.9634337" lon="9.7816191"><ele>76.0</ele><time>2026-04-26T06:15:15.631Z</time></trkpt><trkpt lat="44.9633652" lon="9.7815989"><ele>76.0</ele><time>2026-04-26T06:15:17.624Z</time></trkpt><trkpt lat="44.9632808" lon="9.781584"><ele>76.0</ele><time>2026-04-26T06:15:19.626Z</time></trkpt><trkpt lat="44.9631984" lon="9.7815712"><ele>76.0</ele><time>2026-04-26T06:15:21.615Z</time></trkpt><trkpt lat="44.9631162" lon="9.7815609"><ele>76.0</ele><time>2026-04-26T06:15:23.622Z</time></trkpt><trkpt lat="44.9630372" lon="9.7815391"><ele>76.0</ele><time>2026-04-26T06:15:25.625Z</time></trkpt><trkpt lat="44.9629535" lon="9.7815228"><ele>76.0</ele><time>2026-04-26T06:15:27.605Z</time></trkpt><trkpt lat="44.9628716" lon="9.7815081"><ele>76.0</ele><time>2026-04-26T06:15:29.62Z</time></trkpt><trkpt lat="44.962795" lon="9.781491"><ele>76.0</ele><time>2026-04-26T06:15:31.62Z</time></trkpt><trkpt lat="44.9627057" lon="9.7814724"><ele>76.0</ele><time>2026-04-26T06:15:33.613Z</time></trkpt><trkpt lat="44.9626262" lon="9.781458"><ele>76.0</ele><time>2026-04-26T06:15:35.617Z</time></trkpt><trkpt lat="44.9625453" lon="9.7814501"><ele>76.0</ele><time>2026-04-26T06:15:37.632Z</time></trkpt><trkpt lat="44.962462" lon="9.7814318"><ele>76.0</ele><time>2026-04-26T06:15:39.625Z</time></trkpt><trkpt lat="44.9623839" lon="9.7814177"><ele>76.0</ele><time>2026-04-26T06:15:41.616Z</time></trkpt><trkpt lat="44.9623008" lon="9.7813998"><ele>76.0</ele><time>2026-04-26T06:15:43.624Z</time></trkpt><trkpt lat="44.962218" lon="9.7813865"><ele>76.0</ele><time>2026-04-26T06:15:45.625Z</time></trkpt><trkpt lat="44.9621341" lon="9.7813707"><ele>76.0</ele><time>2026-04-26T06:15:47.623Z</time></trkpt><trkpt lat="44.962054" lon="9.7813525"><ele>76.0</ele><time>2026-04-26T06:15:49.633Z</time></trkpt><trkpt lat="44.9619714" lon="9.7813354"><ele>76.0</ele><time>2026-04-26T06:15:51.629Z</time></trkpt><trkpt lat="44.9618864" lon="9.7813233"><ele>76.0</ele><time>2026-04-26T06:15:53.61Z</time></trkpt><trkpt lat="44.9618045" lon="9.7813105"><ele>76.0</ele><time>2026-04-26T06:15:55.62Z</time></trkpt><trkpt lat="44.961718" lon="9.7812947"><ele>76.0</ele><time>2026-04-26T06:15:57.624Z</time></trkpt><trkpt lat="44.9616293" lon="9.7812743"><ele>76.0</ele><time>2026-04-26T06:15:59.625Z</time></trkpt><trkpt lat="44.9615447" lon="9.7812639"><ele>76.0</ele><time>2026-04-26T06:16:01.619Z</time></trkpt><trkpt lat="44.9614598" lon="9.781241"><ele>76.0</ele><time>2026-04-26T06:16:03.63Z</time></trkpt><trkpt lat="44.9613743" lon="9.7812241"><ele>76.0</ele><time>2026-04-26T06:16:05.619Z</time></trkpt><trkpt lat="44.9612901" lon="9.7812093"><ele>76.0</ele><time>2026-04-26T06:16:07.625Z</time></trkpt><trkpt lat="44.9611982" lon="9.781193"><ele>76.0</ele><time>2026-04-26T06:16:09.639Z</time></trkpt><trkpt lat="44.9611133" lon="9.7811772"><ele>76.0</ele><time>2026-04-26T06:16:11.619Z</time></trkpt><trkpt lat="44.9610273" lon="9.7811617"><ele>76.0</ele><time>2026-04-26T06:16:13.62Z</time></trkpt><trkpt lat="44.9609369" lon="9.7811427"><ele>76.33333333333333</ele><time>2026-04-26T06:16:15.618Z</time></trkpt><trkpt lat="44.9608507" lon="9.7811249"><ele>76.66666666666666</ele><time>2026-04-26T06:16:17.625Z</time></trkpt><trkpt lat="44.9607656" lon="9.7811105"><ele>77.0</ele><time>2026-04-26T06:16:19.625Z</time></trkpt><trkpt lat="44.9606775" lon="9.7810992"><ele>77.33333333333333</ele><time>2026-04-26T06:16:21.618Z</time></trkpt><trkpt lat="44.9605926" lon="9.7810781"><ele>77.66666666666667</ele><time>2026-04-26T06:16:23.62Z</time></trkpt><trkpt lat="44.9605068" lon="9.7810617"><ele>78.0</ele><time>2026-04-26T06:16:25.617Z</time></trkpt><trkpt lat="44.9604255" lon="9.7810361"><ele>78.0</ele><time>2026-04-26T06:16:27.63Z</time></trkpt><trkpt lat="44.9603464" lon="9.7810173"><ele>78.0</ele><time>2026-04-26T06:16:29.626Z</time></trkpt><trkpt lat="44.9602588" lon="9.780991"><ele>78.0</ele><time>2026-04-26T06:16:31.614Z</time></trkpt><trkpt lat="44.9601689" lon="9.7809716"><ele>78.0</ele><time>2026-04-26T06:16:33.622Z</time></trkpt><trkpt lat="44.9600792" lon="9.7809478"><ele>78.0</ele><time>2026-04-26T06:16:35.617Z</time></trkpt><trkpt lat="44.9599968" lon="9.7809277"><ele>78.0</ele><time>2026-04-26T06:16:37.616Z</time></trkpt><trkpt lat="44.9599151" lon="9.7808977"><ele>78.33333333333333</ele><time>2026-04-26T06:16:39.628Z</time></trkpt><trkpt lat="44.9598345" lon="9.7808778"><ele>78.66666666666667</ele><time>2026-04-26T06:16:41.623Z</time></trkpt><trkpt lat="44.9597455" lon="9.7808642"><ele>79.0</ele><time>2026-04-26T06:16:43.63Z</time></trkpt><trkpt lat="44.9596592" lon="9.7808442"><ele>79.33333333333334</ele><time>2026-04-26T06:16:45.634Z</time></trkpt><trkpt lat="44.9595768" lon="9.7808265"><ele>79.66666666666667</ele><time>2026-04-26T06:16:47.638Z</time></trkpt><trkpt lat="44.9594917" lon="9.7808037"><ele>80.0</ele><time>2026-04-26T06:16:49.626Z</time></trkpt><trkpt lat="44.9594066" lon="9.7807719"><ele>80.0</ele><time>2026-04-26T06:16:51.62Z</time></trkpt><trkpt lat="44.9593241" lon="9.78075"><ele>80.0</ele><time>2026-04-26T06:16:53.618Z</time></trkpt><trkpt lat="44.9592436" lon="9.780739"><ele>80.0</ele><time>2026-04-26T06:16:55.61Z</time></trkpt><trkpt lat="44.9591577" lon="9.7807181"><ele>80.0</ele><time>2026-04-26T06:16:57.623Z</time></trkpt><trkpt lat="44.959068" lon="9.7807066"><ele>80.0</ele><time>2026-04-26T06:16:59.619Z</time></trkpt><trkpt lat="44.9589845" lon="9.7806831"><ele>80.0</ele><time>2026-04-26T06:17:01.626Z</time></trkpt><trkpt lat="44.9588985" lon="9.7806562"><ele>79.66666666666667</ele><time>2026-04-26T06:17:03.631Z</time></trkpt><trkpt lat="44.9588135" lon="9.780631"><ele>79.33333333333334</ele><time>2026-04-26T06:17:05.622Z</time></trkpt><trkpt lat="44.9587361" lon="9.7806028"><ele>79.0</ele><time>2026-04-26T06:17:07.626Z</time></trkpt><trkpt lat="44.9586524" lon="9.780579"><ele>78.66666666666667</ele><time>2026-04-26T06:17:09.604Z</time></trkpt><trkpt lat="44.958568" lon="9.7805613"><ele>78.33333333333333</ele><time>2026-04-26T06:17:11.621Z</time></trkpt><trkpt lat="44.9584798" lon="9.7805386"><ele>78.0</ele><time>2026-04-26T06:17:13.622Z</time></trkpt><trkpt lat="44.9583938" lon="9.7805198"><ele>78.16666666666667</ele><time>2026-04-26T06:17:15.621Z</time></trkpt><trkpt lat="44.9583142" lon="9.7804989"><ele>78.33333333333333</ele><time>2026-04-26T06:17:17.621Z</time></trkpt><trkpt lat="44.9582353" lon="9.780478"><ele>78.5</ele><time>2026-04-26T06:17:19.617Z</time></trkpt><trkpt lat="44.9581535" lon="9.780454"><ele>78.66666666666666</ele><time>2026-04-26T06:17:21.624Z</time></trkpt><trkpt lat="44.9580787" lon="9.7804293"><ele>78.83333333333333</ele><time>2026-04-26T06:17:23.621Z</time></trkpt><trkpt lat="44.9579995" lon="9.780404"><ele>79.0</ele><time>2026-04-26T06:17:25.628Z</time></trkpt><trkpt lat="44.9579107" lon="9.780378"><ele>79.0</ele><time>2026-04-26T06:17:27.618Z</time></trkpt><trkpt lat="44.9578221" lon="9.7803521"><ele>79.0</ele><time>2026-04-26T06:17:29.638Z</time></trkpt><trkpt lat="44.9577306" lon="9.7803408"><ele>79.0</ele><time>2026-04-26T06:17:31.643Z</time></trkpt><trkpt lat="44.9576484" lon="9.7803154"><ele>79.0</ele><time>2026-04-26T06:17:33.618Z</time></trkpt><trkpt lat="44.9575594" lon="9.7802988"><ele>79.0</ele><time>2026-04-26T06:17:35.637Z</time></trkpt><trkpt lat="44.9574772" lon="9.7802789"><ele>79.0</ele><time>2026-04-26T06:17:37.624Z</time></trkpt><trkpt lat="44.9573853" lon="9.7802665"><ele>79.2</ele><time>2026-04-26T06:17:39.622Z</time></trkpt><trkpt lat="44.9572933" lon="9.7802438"><ele>79.4</ele><time>2026-04-26T06:17:41.635Z</time></trkpt><trkpt lat="44.9572007" lon="9.7802291"><ele>79.6</ele><time>2026-04-26T06:17:43.628Z</time></trkpt><trkpt lat="44.9571051" lon="9.7801982"><ele>79.8</ele><time>2026-04-26T06:17:45.639Z</time></trkpt><trkpt lat="44.9570134" lon="9.7801775"><ele>80.0</ele><time>2026-04-26T06:17:47.627Z</time></trkpt><trkpt lat="44.9569235" lon="9.7801562"><ele>80.0</ele><time>2026-04-26T06:17:49.637Z</time></trkpt><trkpt lat="44.9568366" lon="9.7801448"><ele>80.0</ele><time>2026-04-26T06:17:51.623Z</time></trkpt><trkpt lat="44.9567461" lon="9.7801492"><ele>80.0</ele><time>2026-04-26T06:17:53.626Z</time></trkpt><trkpt lat="44.9566542" lon="9.7801269"><ele>80.0</ele><time>2026-04-26T06:17:55.62Z</time></trkpt><trkpt lat="44.9565703" lon="9.7801029"><ele>80.0</ele><time>2026-04-26T06:17:57.622Z</time></trkpt><trkpt lat="44.9564907" lon="9.7800609"><ele>80.0</ele><time>2026-04-26T06:17:59.627Z</time></trkpt><trkpt lat="44.9564073" lon="9.7800379"><ele>80.16666666666667</ele><time>2026-04-26T06:18:01.627Z</time></trkpt><trkpt lat="44.9563192" lon="9.779996"><ele>80.33333333333334</ele><time>2026-04-26T06:18:03.625Z</time></trkpt><trkpt lat="44.9562349" lon="9.7799741"><ele>80.5</ele><time>2026-04-26T06:18:05.624Z</time></trkpt><trkpt lat="44.9561518" lon="9.779949"><ele>80.66666666666667</ele><time>2026-04-26T06:18:07.603Z</time></trkpt><trkpt lat="44.9560619" lon="9.779934"><ele>80.83333333333333</ele><time>2026-04-26T06:18:09.627Z</time></trkpt><trkpt lat="44.9559707" lon="9.7799538"><ele>81.0</ele><time>2026-04-26T06:18:11.624Z</time></trkpt><trkpt lat="44.9558892" lon="9.7800233"><ele>81.19999999999999</ele><time>2026-04-26T06:18:13.628Z</time></trkpt><trkpt lat="44.9558285" lon="9.7801039"><ele>81.39999999999999</ele><time>2026-04-26T06:18:15.617Z</time></trkpt><trkpt lat="44.9557722" lon="9.7802099"><ele>81.6</ele><time>2026-04-26T06:18:17.627Z</time></trkpt><trkpt lat="44.9557319" lon="9.7803255"><ele>81.8</ele><time>2026-04-26T06:18:19.627Z</time></trkpt><trkpt lat="44.955696" lon="9.7804436"><ele>82.0</ele><time>2026-04-26T06:18:21.616Z</time></trkpt><trkpt lat="44.955665" lon="9.7805658"><ele>82.0</ele><time>2026-04-26T06:18:23.628Z</time></trkpt><trkpt lat="44.9556481" lon="9.7806917"><ele>82.0</ele><time>2026-04-26T06:18:25.634Z</time></trkpt><trkpt lat="44.9556236" lon="9.7808138"><ele>82.0</ele><time>2026-04-26T06:18:27.607Z</time></trkpt><trkpt lat="44.9556037" lon="9.7809312"><ele>82.0</ele><time>2026-04-26T06:18:29.63Z</time></trkpt><trkpt lat="44.9555825" lon="9.7810548"><ele>82.0</ele><time>2026-04-26T06:18:31.591Z</time></trkpt><trkpt lat="44.9555631" lon="9.7811664"><ele>82.0</ele><time>2026-04-26T06:18:33.596Z</time></trkpt><trkpt lat="44.9555431" lon="9.7812778"><ele>82.0</ele><time>2026-04-26T06:18:35.596Z</time></trkpt><trkpt lat="44.9555252" lon="9.7813976"><ele>82.0</ele><time>2026-04-26T06:18:37.61Z</time></trkpt><trkpt lat="44.9555021" lon="9.7815177"><ele>82.0</ele><time>2026-04-26T06:18:39.618Z</time></trkpt><trkpt lat="44.955477" lon="9.7816434"><ele>82.0</ele><time>2026-04-26T06:18:41.634Z</time></trkpt><trkpt lat="44.9554542" lon="9.7817763"><ele>82.0</ele><time>2026-04-26T06:18:43.606Z</time></trkpt><trkpt lat="44.955437" lon="9.7818997"><ele>82.0</ele><time>2026-04-26T06:18:45.633Z</time></trkpt><trkpt lat="44.9554192" lon="9.7820246"><ele>82.0</ele><time>2026-04-26T06:18:47.623Z</time></trkpt><trkpt lat="44.9553986" lon="9.7821424"><ele>82.0</ele><time>2026-04-26T06:18:49.629Z</time></trkpt><trkpt lat="44.9553757" lon="9.7822602"><ele>82.0</ele><time>2026-04-26T06:18:51.599Z</time></trkpt><trkpt lat="44.9553534" lon="9.7823835"><ele>82.0</ele><time>2026-04-26T06:18:53.625Z</time></trkpt><trkpt lat="44.9553319" lon="9.7824965"><ele>82.0</ele><time>2026-04-26T06:18:55.621Z</time></trkpt><trkpt lat="44.955309" lon="9.7826152"><ele>81.8</ele><time>2026-04-26T06:18:57.616Z</time></trkpt><trkpt lat="44.9552828" lon="9.7827396"><ele>81.6</ele><time>2026-04-26T06:18:59.617Z</time></trkpt><trkpt lat="44.9552576" lon="9.7828705"><ele>81.39999999999999</ele><time>2026-04-26T06:19:01.621Z</time></trkpt><trkpt lat="44.9552309" lon="9.7829956"><ele>81.19999999999999</ele><time>2026-04-26T06:19:03.63Z</time></trkpt><trkpt lat="44.9552083" lon="9.7831199"><ele>81.0</ele><time>2026-04-26T06:19:05.631Z</time></trkpt><trkpt lat="44.9551834" lon="9.7832486"><ele>81.0</ele><time>2026-04-26T06:19:07.626Z</time></trkpt><trkpt lat="44.9551561" lon="9.7833772"><ele>81.0</ele><time>2026-04-26T06:19:09.625Z</time></trkpt><trkpt lat="44.9551302" lon="9.783492"><ele>81.0</ele><time>2026-04-26T06:19:11.624Z</time></trkpt><trkpt lat="44.9551039" lon="9.7836274"><ele>81.0</ele><time>2026-04-26T06:19:13.625Z</time></trkpt><trkpt lat="44.9550816" lon="9.783753"><ele>81.0</ele><time>2026-04-26T06:19:15.619Z</time></trkpt><trkpt lat="44.9550611" lon="9.783873"><ele>81.0</ele><time>2026-04-26T06:19:17.631Z</time></trkpt><trkpt lat="44.9550283" lon="9.7839921"><ele>81.0</ele><time>2026-04-26T06:19:19.623Z</time></trkpt><trkpt lat="44.9549959" lon="9.7840874"><ele>81.0</ele><time>2026-04-26T06:19:21.614Z</time></trkpt><trkpt lat="44.954929" lon="9.7840833"><ele>81.0</ele><time>2026-04-26T06:19:23.625Z</time></trkpt><trkpt lat="44.9548541" lon="9.7840648"><ele>81.0</ele><time>2026-04-26T06:19:25.633Z</time></trkpt><trkpt lat="44.9547756" lon="9.7840415"><ele>81.0</ele><time>2026-04-26T06:19:27.631Z</time></trkpt><trkpt lat="44.9547042" lon="9.7840319"><ele>81.0</ele><time>2026-04-26T06:19:29.622Z</time></trkpt><trkpt lat="44.9546301" lon="9.7840185"><ele>81.0</ele><time>2026-04-26T06:19:31.628Z</time></trkpt><trkpt lat="44.9545497" lon="9.7840022"><ele>81.0</ele><time>2026-04-26T06:19:33.625Z</time></trkpt><trkpt lat="44.9544724" lon="9.7839829"><ele>81.0</ele><time>2026-04-26T06:19:35.615Z</time></trkpt><trkpt lat="44.9543947" lon="9.7839617"><ele>81.0</ele><time>2026-04-26T06:19:37.618Z</time></trkpt><trkpt lat="44.9543141" lon="9.7839465"><ele>81.0</ele><time>2026-04-26T06:19:39.625Z</time></trkpt><trkpt lat="44.954231" lon="9.7839274"><ele>81.0</ele><time>2026-04-26T06:19:41.632Z</time></trkpt><trkpt lat="44.9541494" lon="9.783906"><ele>81.0</ele><time>2026-04-26T06:19:43.622Z</time></trkpt><trkpt lat="44.9540694" lon="9.7838818"><ele>81.0</ele><time>2026-04-26T06:19:45.625Z</time></trkpt><trkpt lat="44.9539911" lon="9.7838681"><ele>81.0</ele><time>2026-04-26T06:19:47.62Z</time></trkpt><trkpt lat="44.9539114" lon="9.7838512"><ele>81.0</ele><time>2026-04-26T06:19:49.626Z</time></trkpt><trkpt lat="44.9538254" lon="9.7838354"><ele>81.0</ele><time>2026-04-26T06:19:51.638Z</time></trkpt><trkpt lat="44.9537428" lon="9.7838207"><ele>81.0</ele><time>2026-04-26T06:19:53.619Z</time></trkpt><trkpt lat="44.9536604" lon="9.7838053"><ele>81.0</ele><time>2026-04-26T06:19:55.612Z</time></trkpt><trkpt lat="44.9535752" lon="9.7838038"><ele>81.0</ele><time>2026-04-26T06:19:57.621Z</time></trkpt><trkpt lat="44.9534906" lon="9.7837838"><ele>81.0</ele><time>2026-04-26T06:19:59.624Z</time></trkpt><trkpt lat="44.9534014" lon="9.7837678"><ele>81.0</ele><time>2026-04-26T06:20:01.636Z</time></trkpt><trkpt lat="44.9533202" lon="9.7837435"><ele>81.0</ele><time>2026-04-26T06:20:03.631Z</time></trkpt><trkpt lat="44.9532394" lon="9.7837212"><ele>81.0</ele><time>2026-04-26T06:20:05.615Z</time></trkpt><trkpt lat="44.9531539" lon="9.783703"><ele>81.0</ele><time>2026-04-26T06:20:07.626Z</time></trkpt><trkpt lat="44.9530677" lon="9.7836833"><ele>81.0</ele><time>2026-04-26T06:20:09.621Z</time></trkpt><trkpt lat="44.9529779" lon="9.7836613"><ele>81.0</ele><time>2026-04-26T06:20:11.619Z</time></trkpt><trkpt lat="44.9528953" lon="9.7836352"><ele>81.0</ele><time>2026-04-26T06:20:13.629Z</time></trkpt><trkpt lat="44.9528094" lon="9.783609"><ele>81.0</ele><time>2026-04-26T06:20:15.629Z</time></trkpt><trkpt lat="44.9527256" lon="9.7835986"><ele>81.0</ele><time>2026-04-26T06:20:17.623Z</time></trkpt><trkpt lat="44.9526414" lon="9.7835844"><ele>81.0</ele><time>2026-04-26T06:20:19.619Z</time></trkpt><trkpt lat="44.9525528" lon="9.7835658"><ele>81.0</ele><time>2026-04-26T06:20:21.618Z</time></trkpt><trkpt lat="44.9524645" lon="9.783548"><ele>81.0</ele><time>2026-04-26T06:20:23.622Z</time></trkpt><trkpt lat="44.9523827" lon="9.783532"><ele>81.0</ele><time>2026-04-26T06:20:25.62Z</time></trkpt><trkpt lat="44.9523047" lon="9.7835051"><ele>81.0</ele><time>2026-04-26T06:20:27.624Z</time></trkpt><trkpt lat="44.9522176" lon="9.7834871"><ele>81.0</ele><time>2026-04-26T06:20:29.619Z</time></trkpt><trkpt lat="44.9521354" lon="9.7834631"><ele>81.0</ele><time>2026-04-26T06:20:31.621Z</time></trkpt><trkpt lat="44.9520487" lon="9.7834437"><ele>81.0</ele><time>2026-04-26T06:20:33.623Z</time></trkpt><trkpt lat="44.9519665" lon="9.7834215"><ele>81.0</ele><time>2026-04-26T06:20:35.628Z</time></trkpt><trkpt lat="44.9518804" lon="9.7833925"><ele>81.0</ele><time>2026-04-26T06:20:37.626Z</time></trkpt><trkpt lat="44.9517977" lon="9.7833781"><ele>81.0</ele><time>2026-04-26T06:20:39.619Z</time></trkpt><trkpt lat="44.951717" lon="9.7833659"><ele>81.5</ele><time>2026-04-26T06:20:41.622Z</time></trkpt><trkpt lat="44.951631" lon="9.783353"><ele>82.0</ele><time>2026-04-26T06:20:43.628Z</time></trkpt><trkpt lat="44.9515441" lon="9.7833401"><ele>82.5</ele><time>2026-04-26T06:20:45.624Z</time></trkpt><trkpt lat="44.9514529" lon="9.7833296"><ele>83.0</ele><time>2026-04-26T06:20:47.625Z</time></trkpt><trkpt lat="44.9513638" lon="9.7833252"><ele>83.5</ele><time>2026-04-26T06:20:49.625Z</time></trkpt><trkpt lat="44.9512726" lon="9.7833286"><ele>84.0</ele><time>2026-04-26T06:20:51.608Z</time></trkpt><trkpt lat="44.9511858" lon="9.7833289"><ele>84.0</ele><time>2026-04-26T06:20:53.637Z</time></trkpt><trkpt lat="44.9510989" lon="9.7833235"><ele>84.0</ele><time>2026-04-26T06:20:55.626Z</time></trkpt><trkpt lat="44.9510167" lon="9.783318"><ele>84.0</ele><time>2026-04-26T06:20:57.627Z</time></trkpt><trkpt lat="44.9509256" lon="9.78331"><ele>84.0</ele><time>2026-04-26T06:20:59.622Z</time></trkpt><trkpt lat="44.9508454" lon="9.7833066"><ele>84.0</ele><time>2026-04-26T06:21:01.629Z</time></trkpt><trkpt lat="44.950761" lon="9.783291"><ele>84.0</ele><time>2026-04-26T06:21:03.617Z</time></trkpt><trkpt lat="44.9506725" lon="9.7832752"><ele>83.83333333333333</ele><time>2026-04-26T06:21:05.62Z</time></trkpt><trkpt lat="44.9505859" lon="9.7832607"><ele>83.66666666666667</ele><time>2026-04-26T06:21:07.633Z</time></trkpt><trkpt lat="44.9505024" lon="9.7832415"><ele>83.5</ele><time>2026-04-26T06:21:09.628Z</time></trkpt><trkpt lat="44.9504171" lon="9.7832186"><ele>83.33333333333334</ele><time>2026-04-26T06:21:11.616Z</time></trkpt><trkpt lat="44.9503356" lon="9.7831935"><ele>83.16666666666667</ele><time>2026-04-26T06:21:13.622Z</time></trkpt><trkpt lat="44.9502582" lon="9.7831593"><ele>83.0</ele><time>2026-04-26T06:21:15.621Z</time></trkpt><trkpt lat="44.9501718" lon="9.7831296"><ele>83.0</ele><time>2026-04-26T06:21:17.626Z</time></trkpt><trkpt lat="44.9500848" lon="9.7830997"><ele>83.0</ele><time>2026-04-26T06:21:19.632Z</time></trkpt><trkpt lat="44.9500013" lon="9.7830646"><ele>83.0</ele><time>2026-04-26T06:21:21.625Z</time></trkpt><trkpt lat="44.9499167" lon="9.7830244"><ele>83.0</ele><time>2026-04-26T06:21:23.62Z</time></trkpt><trkpt lat="44.9498308" lon="9.7829917"><ele>83.0</ele><time>2026-04-26T06:21:25.614Z</time></trkpt><trkpt lat="44.9497433" lon="9.782953"><ele>83.0</ele><time>2026-04-26T06:21:27.621Z</time></trkpt><trkpt lat="44.9496565" lon="9.7829247"><ele>83.0</ele><time>2026-04-26T06:21:29.63Z</time></trkpt><trkpt lat="44.9495654" lon="9.7828914"><ele>83.0</ele><time>2026-04-26T06:21:31.622Z</time></trkpt><trkpt lat="44.9494795" lon="9.7828554"><ele>83.0</ele><time>2026-04-26T06:21:33.63Z</time></trkpt><trkpt lat="44.9493899" lon="9.7828248"><ele>83.0</ele><time>2026-04-26T06:21:35.632Z</time></trkpt><trkpt lat="44.9493018" lon="9.7827927"><ele>83.0</ele><time>2026-04-26T06:21:37.628Z</time></trkpt><trkpt lat="44.9492191" lon="9.7827603"><ele>83.0</ele><time>2026-04-26T06:21:39.621Z</time></trkpt><trkpt lat="44.949134" lon="9.7827304"><ele>83.0</ele><time>2026-04-26T06:21:41.62Z</time></trkpt><trkpt lat="44.9490487" lon="9.7826978"><ele>83.0</ele><time>2026-04-26T06:21:43.623Z</time></trkpt><trkpt lat="44.9489615" lon="9.7826638"><ele>83.0</ele><time>2026-04-26T06:21:45.623Z</time></trkpt><trkpt lat="44.9488757" lon="9.7826251"><ele>83.0</ele><time>2026-04-26T06:21:47.63Z</time></trkpt><trkpt lat="44.9487903" lon="9.7825975"><ele>83.0</ele><time>2026-04-26T06:21:49.626Z</time></trkpt><trkpt lat="44.9487016" lon="9.7825745"><ele>83.0</ele><time>2026-04-26T06:21:51.616Z</time></trkpt><trkpt lat="44.9486222" lon="9.7825427"><ele>83.0</ele><time>2026-04-26T06:21:53.638Z</time></trkpt><trkpt lat="44.9485354" lon="9.7825167"><ele>83.0</ele><time>2026-04-26T06:21:55.63Z</time></trkpt><trkpt lat="44.9484573" lon="9.7824809"><ele>83.0</ele><time>2026-04-26T06:21:57.625Z</time></trkpt><trkpt lat="44.9483743" lon="9.7824549"><ele>83.0</ele><time>2026-04-26T06:21:59.626Z</time></trkpt><trkpt lat="44.9482883" lon="9.782419"><ele>83.0</ele><time>2026-04-26T06:22:01.625Z</time></trkpt><trkpt lat="44.948196" lon="9.7823856"><ele>83.16666666666667</ele><time>2026-04-26T06:22:03.625Z</time></trkpt><trkpt lat="44.9481107" lon="9.7823517"><ele>83.33333333333334</ele><time>2026-04-26T06:22:05.622Z</time></trkpt><trkpt lat="44.9480301" lon="9.7823123"><ele>83.5</ele><time>2026-04-26T06:22:07.624Z</time></trkpt><trkpt lat="44.9479493" lon="9.7822827"><ele>83.66666666666667</ele><time>2026-04-26T06:22:09.637Z</time></trkpt><trkpt lat="44.9478683" lon="9.7822531"><ele>83.83333333333333</ele><time>2026-04-26T06:22:11.62Z</time></trkpt><trkpt lat="44.9477916" lon="9.7822126"><ele>84.0</ele><time>2026-04-26T06:22:13.621Z</time></trkpt><trkpt lat="44.9477333" lon="9.7821466"><ele>84.0</ele><time>2026-04-26T06:22:15.611Z</time></trkpt><trkpt lat="44.9477391" lon="9.7820185"><ele>84.0</ele><time>2026-04-26T06:22:17.623Z</time></trkpt><trkpt lat="44.9477619" lon="9.7819327"><ele>84.0</ele><time>2026-04-26T06:22:19.618Z</time></trkpt><trkpt lat="44.9477782" lon="9.7818268"><ele>84.0</ele><time>2026-04-26T06:22:21.605Z</time></trkpt><trkpt lat="44.9477881" lon="9.7817181"><ele>84.0</ele><time>2026-04-26T06:22:23.622Z</time></trkpt><trkpt lat="44.9478019" lon="9.7816014"><ele>84.0</ele><time>2026-04-26T06:22:25.618Z</time></trkpt><trkpt lat="44.9478162" lon="9.7814812"><ele>83.83333333333333</ele><time>2026-04-26T06:22:27.618Z</time></trkpt><trkpt lat="44.9478251" lon="9.781357"><ele>83.66666666666667</ele><time>2026-04-26T06:22:29.621Z</time></trkpt><trkpt lat="44.947834" lon="9.7812332"><ele>83.5</ele><time>2026-04-26T06:22:31.622Z</time></trkpt><trkpt lat="44.947853" lon="9.7811147"><ele>83.33333333333334</ele><time>2026-04-26T06:22:33.614Z</time></trkpt><trkpt lat="44.9478662" lon="9.7809853"><ele>83.16666666666667</ele><time>2026-04-26T06:22:35.624Z</time></trkpt><trkpt lat="44.9478882" lon="9.7808605"><ele>83.0</ele><time>2026-04-26T06:22:37.622Z</time></trkpt><trkpt lat="44.9479003" lon="9.7807296"><ele>83.0</ele><time>2026-04-26T06:22:39.63Z</time></trkpt><trkpt lat="44.9479149" lon="9.780605"><ele>83.0</ele><time>2026-04-26T06:22:41.622Z</time></trkpt><trkpt lat="44.9479292" lon="9.7804741"><ele>83.0</ele><time>2026-04-26T06:22:43.611Z</time></trkpt><trkpt lat="44.9479477" lon="9.7803473"><ele>83.0</ele><time>2026-04-26T06:22:45.624Z</time></trkpt><trkpt lat="44.9479623" lon="9.7802167"><ele>83.0</ele><time>2026-04-26T06:22:47.619Z</time></trkpt><trkpt lat="44.9479826" lon="9.7800906"><ele>83.4</ele><time>2026-04-26T06:22:49.62Z</time></trkpt><trkpt lat="44.947995" lon="9.7799574"><ele>83.80000000000001</ele><time>2026-04-26T06:22:51.63Z</time></trkpt><trkpt lat="44.9480104" lon="9.7798351"><ele>84.2</ele><time>2026-04-26T06:22:53.634Z</time></trkpt><trkpt lat="44.9480256" lon="9.7796988"><ele>84.6</ele><time>2026-04-26T06:22:55.617Z</time></trkpt><trkpt lat="44.9480436" lon="9.7795789"><ele>85.0</ele><time>2026-04-26T06:22:57.65Z</time></trkpt><trkpt lat="44.9480554" lon="9.7794568"><ele>85.0</ele><time>2026-04-26T06:22:59.623Z</time></trkpt><trkpt lat="44.9480687" lon="9.7793285"><ele>85.0</ele><time>2026-04-26T06:23:01.628Z</time></trkpt><trkpt lat="44.9480824" lon="9.7792012"><ele>85.0</ele><time>2026-04-26T06:23:03.621Z</time></trkpt><trkpt lat="44.9480987" lon="9.7790627"><ele>85.0</ele><time>2026-04-26T06:23:05.603Z</time></trkpt><trkpt lat="44.9481147" lon="9.7789306"><ele>85.0</ele><time>2026-04-26T06:23:07.625Z</time></trkpt><trkpt lat="44.9481283" lon="9.7788021"><ele>85.0</ele><time>2026-04-26T06:23:09.627Z</time></trkpt><trkpt lat="44.9481382" lon="9.7786703"><ele>85.0</ele><time>2026-04-26T06:23:11.623Z</time></trkpt><trkpt lat="44.9481547" lon="9.7785323"><ele>85.0</ele><time>2026-04-26T06:23:13.63Z</time></trkpt><trkpt lat="44.9481562" lon="9.7784135"><ele>85.0</ele><time>2026-04-26T06:23:15.624Z</time></trkpt><trkpt lat="44.9481207" lon="9.7783066"><ele>85.0</ele><time>2026-04-26T06:23:17.629Z</time></trkpt><trkpt lat="44.9480362" lon="9.7782608"><ele>84.8</ele><time>2026-04-26T06:23:19.629Z</time></trkpt><trkpt lat="44.9479566" lon="9.7782215"><ele>84.6</ele><time>2026-04-26T06:23:21.622Z</time></trkpt><trkpt lat="44.9478689" lon="9.7781806"><ele>84.4</ele><time>2026-04-26T06:23:23.628Z</time></trkpt><trkpt lat="44.9477804" lon="9.7781284"><ele>84.2</ele><time>2026-04-26T06:23:25.625Z</time></trkpt><trkpt lat="44.9476958" lon="9.7780814"><ele>84.0</ele><time>2026-04-26T06:23:27.622Z</time></trkpt><trkpt lat="44.9476059" lon="9.7780397"><ele>84.4</ele><time>2026-04-26T06:23:29.615Z</time></trkpt><trkpt lat="44.9475153" lon="9.7779982"><ele>84.80000000000001</ele><time>2026-04-26T06:23:31.631Z</time></trkpt><trkpt lat="44.9474278" lon="9.7779579"><ele>85.19999999999999</ele><time>2026-04-26T06:23:33.621Z</time></trkpt><trkpt lat="44.9473435" lon="9.7779125"><ele>85.6</ele><time>2026-04-26T06:23:35.627Z</time></trkpt><trkpt lat="44.9472585" lon="9.7778758"><ele>86.0</ele><time>2026-04-26T06:23:37.615Z</time></trkpt><trkpt lat="44.947173" lon="9.7778295"><ele>86.0</ele><time>2026-04-26T06:23:39.638Z</time></trkpt><trkpt lat="44.9470811" lon="9.7777808"><ele>86.0</ele><time>2026-04-26T06:23:41.63Z</time></trkpt><trkpt lat="44.9469897" lon="9.7777485"><ele>86.0</ele><time>2026-04-26T06:23:43.617Z</time></trkpt><trkpt lat="44.9469062" lon="9.777703"><ele>86.0</ele><time>2026-04-26T06:23:45.614Z</time></trkpt><trkpt lat="44.9468187" lon="9.7776556"><ele>86.0</ele><time>2026-04-26T06:23:47.63Z</time></trkpt><trkpt lat="44.9467308" lon="9.7776057"><ele>86.4</ele><time>2026-04-26T06:23:49.632Z</time></trkpt><trkpt lat="44.9466398" lon="9.7775625"><ele>86.8</ele><time>2026-04-26T06:23:51.624Z</time></trkpt><trkpt lat="44.9465506" lon="9.7775163"><ele>87.2</ele><time>2026-04-26T06:23:53.606Z</time></trkpt><trkpt lat="44.9464673" lon="9.7774745"><ele>87.60000000000001</ele><time>2026-04-26T06:23:55.631Z</time></trkpt><trkpt lat="44.9463794" lon="9.7774267"><ele>88.0</ele><time>2026-04-26T06:23:57.629Z</time></trkpt><trkpt lat="44.9462859" lon="9.7773719"><ele>88.0</ele><time>2026-04-26T06:23:59.631Z</time></trkpt><trkpt lat="44.9462052" lon="9.7773105"><ele>88.0</ele><time>2026-04-26T06:24:01.619Z</time></trkpt><trkpt lat="44.946121" lon="9.7772597"><ele>88.0</ele><time>2026-04-26T06:24:03.631Z</time></trkpt><trkpt lat="44.9460356" lon="9.7772088"><ele>88.0</ele><time>2026-04-26T06:24:05.626Z</time></trkpt><trkpt lat="44.9459545" lon="9.7771549"><ele>88.0</ele><time>2026-04-26T06:24:07.627Z</time></trkpt><trkpt lat="44.9458673" lon="9.7771036"><ele>88.0</ele><time>2026-04-26T06:24:09.627Z</time></trkpt><trkpt lat="44.9457745" lon="9.7770618"><ele>88.0</ele><time>2026-04-26T06:24:11.63Z</time></trkpt><trkpt lat="44.9456895" lon="9.7770038"><ele>88.0</ele><time>2026-04-26T06:24:13.622Z</time></trkpt><trkpt lat="44.9455935" lon="9.7769474"><ele>88.0</ele><time>2026-04-26T06:24:15.623Z</time></trkpt><trkpt lat="44.9455004" lon="9.7769016"><ele>88.0</ele><time>2026-04-26T06:24:17.625Z</time></trkpt><trkpt lat="44.9454147" lon="9.7768829"><ele>88.0</ele><time>2026-04-26T06:24:19.632Z</time></trkpt><trkpt lat="44.9453217" lon="9.7768783"><ele>88.0</ele><time>2026-04-26T06:24:21.632Z</time></trkpt><trkpt lat="44.9452206" lon="9.7768819"><ele>88.0</ele><time>2026-04-26T06:24:23.625Z</time></trkpt><trkpt lat="44.9451274" lon="9.7768899"><ele>88.0</ele><time>2026-04-26T06:24:25.63Z</time></trkpt><trkpt lat="44.9450289" lon="9.7769075"><ele>88.0</ele><time>2026-04-26T06:24:27.625Z</time></trkpt><trkpt lat="44.944929" lon="9.7769342"><ele>88.0</ele><time>2026-04-26T06:24:29.629Z</time></trkpt><trkpt lat="44.9448288" lon="9.7769683"><ele>88.0</ele><time>2026-04-26T06:24:31.617Z</time></trkpt><trkpt lat="44.9447406" lon="9.7770077"><ele>88.0</ele><time>2026-04-26T06:24:33.626Z</time></trkpt><trkpt lat="44.9446519" lon="9.7770335"><ele>88.0</ele><time>2026-04-26T06:24:35.625Z</time></trkpt><trkpt lat="44.9445537" lon="9.7770724"><ele>88.0</ele><time>2026-04-26T06:24:37.64Z</time></trkpt><trkpt lat="44.9444598" lon="9.77709"><ele>88.0</ele><time>2026-04-26T06:24:39.624Z</time></trkpt><trkpt lat="44.9443627" lon="9.777085"><ele>88.0</ele><time>2026-04-26T06:24:41.635Z</time></trkpt><trkpt lat="44.9442673" lon="9.7770596"><ele>88.0</ele><time>2026-04-26T06:24:43.621Z</time></trkpt><trkpt lat="44.9441809" lon="9.7770244"><ele>88.0</ele><time>2026-04-26T06:24:45.635Z</time></trkpt><trkpt lat="44.9440944" lon="9.7769833"><ele>88.0</ele><time>2026-04-26T06:24:47.622Z</time></trkpt><trkpt lat="44.9440031" lon="9.7769389"><ele>88.0</ele><time>2026-04-26T06:24:49.631Z</time></trkpt><trkpt lat="44.9439151" lon="9.7768972"><ele>88.0</ele><time>2026-04-26T06:24:51.631Z</time></trkpt><trkpt lat="44.9438294" lon="9.7768582"><ele>88.0</ele><time>2026-04-26T06:24:53.636Z</time></trkpt><trkpt lat="44.9437375" lon="9.7768375"><ele>88.0</ele><time>2026-04-26T06:24:55.621Z</time></trkpt><trkpt lat="44.9436421" lon="9.7768178"><ele>88.0</ele><time>2026-04-26T06:24:57.626Z</time></trkpt><trkpt lat="44.9435503" lon="9.7768175"><ele>88.2</ele><time>2026-04-26T06:24:59.626Z</time></trkpt><trkpt lat="44.9434624" lon="9.7768074"><ele>88.4</ele><time>2026-04-26T06:25:01.625Z</time></trkpt><trkpt lat="44.9433686" lon="9.7768082"><ele>88.60000000000001</ele><time>2026-04-26T06:25:03.625Z</time></trkpt><trkpt lat="44.9432657" lon="9.776821"><ele>88.80000000000001</ele><time>2026-04-26T06:25:05.628Z</time></trkpt><trkpt lat="44.9431688" lon="9.7768218"><ele>89.0</ele><time>2026-04-26T06:25:07.639Z</time></trkpt><trkpt lat="44.9430738" lon="9.7768136"><ele>89.0</ele><time>2026-04-26T06:25:09.624Z</time></trkpt><trkpt lat="44.9429759" lon="9.7767915"><ele>89.0</ele><time>2026-04-26T06:25:11.637Z</time></trkpt><trkpt lat="44.942881" lon="9.7767571"><ele>89.0</ele><time>2026-04-26T06:25:13.631Z</time></trkpt><trkpt lat="44.9427905" lon="9.7767337"><ele>89.0</ele><time>2026-04-26T06:25:15.632Z</time></trkpt><trkpt lat="44.9427026" lon="9.7766975"><ele>89.0</ele><time>2026-04-26T06:25:17.628Z</time></trkpt><trkpt lat="44.9426187" lon="9.7766719"><ele>88.80000000000001</ele><time>2026-04-26T06:25:19.638Z</time></trkpt><trkpt lat="44.9425262" lon="9.7766446"><ele>88.60000000000001</ele><time>2026-04-26T06:25:21.617Z</time></trkpt><trkpt lat="44.9424321" lon="9.7766347"><ele>88.4</ele><time>2026-04-26T06:25:23.629Z</time></trkpt><trkpt lat="44.9423428" lon="9.7766266"><ele>88.2</ele><time>2026-04-26T06:25:25.641Z</time></trkpt><trkpt lat="44.9422504" lon="9.7766131"><ele>88.0</ele><time>2026-04-26T06:25:27.643Z</time></trkpt><trkpt lat="44.9421639" lon="9.7765856"><ele>88.0</ele><time>2026-04-26T06:25:29.623Z</time></trkpt><trkpt lat="44.9420755" lon="9.7765808"><ele>88.0</ele><time>2026-04-26T06:25:31.631Z</time></trkpt><trkpt lat="44.9419852" lon="9.7765649"><ele>88.0</ele><time>2026-04-26T06:25:33.63Z</time></trkpt><trkpt lat="44.9418915" lon="9.7765461"><ele>88.0</ele><time>2026-04-26T06:25:35.632Z</time></trkpt><trkpt lat="44.9417998" lon="9.7765291"><ele>88.0</ele><time>2026-04-26T06:25:37.625Z</time></trkpt><trkpt lat="44.9417062" lon="9.776505"><ele>88.2</ele><time>2026-04-26T06:25:39.63Z</time></trkpt><trkpt lat="44.9416134" lon="9.7764825"><ele>88.4</ele><time>2026-04-26T06:25:41.631Z</time></trkpt><trkpt lat="44.9415143" lon="9.7764573"><ele>88.60000000000001</ele><time>2026-04-26T06:25:43.629Z</time></trkpt><trkpt lat="44.9414143" lon="9.7764238"><ele>88.80000000000001</ele><time>2026-04-26T06:25:45.634Z</time></trkpt><trkpt lat="44.9413117" lon="9.7763947"><ele>89.0</ele><time>2026-04-26T06:25:47.613Z</time></trkpt><trkpt lat="44.9412152" lon="9.7763613"><ele>89.0</ele><time>2026-04-26T06:25:49.635Z</time></trkpt><trkpt lat="44.9411254" lon="9.776335"><ele>89.0</ele><time>2026-04-26T06:25:51.617Z</time></trkpt><trkpt lat="44.9410324" lon="9.7763029"><ele>89.0</ele><time>2026-04-26T06:25:53.625Z</time></trkpt><trkpt lat="44.9409388" lon="9.7762613"><ele>89.0</ele><time>2026-04-26T06:25:55.625Z</time></trkpt><trkpt lat="44.9408454" lon="9.7762275"><ele>89.0</ele><time>2026-04-26T06:25:57.634Z</time></trkpt><trkpt lat="44.9407503" lon="9.776194"><ele>89.2</ele><time>2026-04-26T06:25:59.629Z</time></trkpt><trkpt lat="44.9406631" lon="9.7761648"><ele>89.4</ele><time>2026-04-26T06:26:01.638Z</time></trkpt><trkpt lat="44.940576" lon="9.776131"><ele>89.6</ele><time>2026-04-26T06:26:03.627Z</time></trkpt><trkpt lat="44.940484" lon="9.7761159"><ele>89.8</ele><time>2026-04-26T06:26:05.637Z</time></trkpt><trkpt lat="44.9403925" lon="9.7761028"><ele>90.0</ele><time>2026-04-26T06:26:07.611Z</time></trkpt><trkpt lat="44.9402955" lon="9.7760925"><ele>90.0</ele><time>2026-04-26T06:26:09.635Z</time></trkpt><trkpt lat="44.9401912" lon="9.7760782"><ele>90.0</ele><time>2026-04-26T06:26:11.63Z</time></trkpt><trkpt lat="44.9400946" lon="9.7760673"><ele>90.0</ele><time>2026-04-26T06:26:13.631Z</time></trkpt><trkpt lat="44.9399995" lon="9.7760572"><ele>90.0</ele><time>2026-04-26T06:26:15.608Z</time></trkpt><trkpt lat="44.9399127" lon="9.7760583"><ele>90.0</ele><time>2026-04-26T06:26:17.636Z</time></trkpt><trkpt lat="44.9398134" lon="9.7760363"><ele>90.4</ele><time>2026-04-26T06:26:19.636Z</time></trkpt><trkpt lat="44.9397163" lon="9.7760224"><ele>90.8</ele><time>2026-04-26T06:26:21.626Z</time></trkpt><trkpt lat="44.9396262" lon="9.7760068"><ele>91.19999999999999</ele><time>2026-04-26T06:26:23.628Z</time></trkpt><trkpt lat="44.9395338" lon="9.7759854"><ele>91.6</ele><time>2026-04-26T06:26:25.629Z</time></trkpt><trkpt lat="44.9394383" lon="9.7759635"><ele>92.0</ele><time>2026-04-26T06:26:27.626Z</time></trkpt><trkpt lat="44.9393541" lon="9.7759362"><ele>92.0</ele><time>2026-04-26T06:26:29.636Z</time></trkpt><trkpt lat="44.9392769" lon="9.7758955"><ele>92.0</ele><time>2026-04-26T06:26:31.626Z</time></trkpt><trkpt lat="44.9392088" lon="9.7758691"><ele>92.0</ele><time>2026-04-26T06:26:33.637Z</time></trkpt><trkpt lat="44.9391416" lon="9.7758441"><ele>92.0</ele><time>2026-04-26T06:26:35.62Z</time></trkpt><trkpt lat="44.9390604" lon="9.7758164"><ele>92.0</ele><time>2026-04-26T06:26:38.624Z</time></trkpt><trkpt lat="44.938989" lon="9.7758015"><ele>92.0</ele><time>2026-04-26T06:26:41.621Z</time></trkpt><trkpt lat="44.9389087" lon="9.7758001"><ele>92.16666666666667</ele><time>2026-04-26T06:26:43.618Z</time></trkpt><trkpt lat="44.9388225" lon="9.7757723"><ele>92.33333333333334</ele><time>2026-04-26T06:26:45.638Z</time></trkpt><trkpt lat="44.9387377" lon="9.7757614"><ele>92.5</ele><time>2026-04-26T06:26:47.626Z</time></trkpt><trkpt lat="44.9386653" lon="9.7757506"><ele>92.66666666666667</ele><time>2026-04-26T06:26:49.62Z</time></trkpt><trkpt lat="44.9385941" lon="9.77573"><ele>92.83333333333333</ele><time>2026-04-26T06:26:51.624Z</time></trkpt><trkpt lat="44.9385089" lon="9.7757107"><ele>93.0</ele><time>2026-04-26T06:26:53.605Z</time></trkpt><trkpt lat="44.9384152" lon="9.7756991"><ele>93.16666666666667</ele><time>2026-04-26T06:26:55.625Z</time></trkpt><trkpt lat="44.9383381" lon="9.7756734"><ele>93.33333333333333</ele><time>2026-04-26T06:26:57.632Z</time></trkpt><trkpt lat="44.9382558" lon="9.7756532"><ele>93.5</ele><time>2026-04-26T06:26:59.632Z</time></trkpt><trkpt lat="44.9381752" lon="9.7756306"><ele>93.66666666666666</ele><time>2026-04-26T06:27:01.633Z</time></trkpt><trkpt lat="44.9380885" lon="9.7755915"><ele>93.83333333333333</ele><time>2026-04-26T06:27:03.632Z</time></trkpt><trkpt lat="44.9379983" lon="9.7755605"><ele>94.0</ele><time>2026-04-26T06:27:05.623Z</time></trkpt><trkpt lat="44.9379007" lon="9.7755207"><ele>94.0</ele><time>2026-04-26T06:27:07.634Z</time></trkpt><trkpt lat="44.9378071" lon="9.7754812"><ele>94.0</ele><time>2026-04-26T06:27:09.63Z</time></trkpt><trkpt lat="44.9377115" lon="9.77545"><ele>94.0</ele><time>2026-04-26T06:27:11.63Z</time></trkpt><trkpt lat="44.9376167" lon="9.7754182"><ele>94.0</ele><time>2026-04-26T06:27:13.614Z</time></trkpt><trkpt lat="44.9375243" lon="9.7753793"><ele>94.0</ele><time>2026-04-26T06:27:15.621Z</time></trkpt><trkpt lat="44.9374262" lon="9.775347"><ele>94.0</ele><time>2026-04-26T06:27:17.628Z</time></trkpt><trkpt lat="44.9373342" lon="9.7753061"><ele>94.0</ele><time>2026-04-26T06:27:19.63Z</time></trkpt><trkpt lat="44.937242" lon="9.7752701"><ele>94.0</ele><time>2026-04-26T06:27:21.634Z</time></trkpt><trkpt lat="44.937148" lon="9.7752393"><ele>94.0</ele><time>2026-04-26T06:27:23.614Z</time></trkpt><trkpt lat="44.9370575" lon="9.7752126"><ele>94.0</ele><time>2026-04-26T06:27:25.637Z</time></trkpt><trkpt lat="44.9369671" lon="9.7751797"><ele>94.0</ele><time>2026-04-26T06:27:27.63Z</time></trkpt><trkpt lat="44.9368725" lon="9.775147"><ele>94.0</ele><time>2026-04-26T06:27:29.63Z</time></trkpt><trkpt lat="44.9367776" lon="9.775116"><ele>94.0</ele><time>2026-04-26T06:27:31.638Z</time></trkpt><trkpt lat="44.9366824" lon="9.7750947"><ele>94.0</ele><time>2026-04-26T06:27:33.632Z</time></trkpt><trkpt lat="44.9365826" lon="9.7750665"><ele>94.0</ele><time>2026-04-26T06:27:35.631Z</time></trkpt><trkpt lat="44.9364854" lon="9.7750393"><ele>93.6</ele><time>2026-04-26T06:27:37.636Z</time></trkpt><trkpt lat="44.9363859" lon="9.775012"><ele>93.2</ele><time>2026-04-26T06:27:39.639Z</time></trkpt><trkpt lat="44.9362883" lon="9.7749834"><ele>92.8</ele><time>2026-04-26T06:27:41.629Z</time></trkpt><trkpt lat="44.9361983" lon="9.7749575"><ele>92.39999999999999</ele><time>2026-04-26T06:27:43.644Z</time></trkpt><trkpt lat="44.9361011" lon="9.7749375"><ele>92.0</ele><time>2026-04-26T06:27:45.627Z</time></trkpt><trkpt lat="44.9360028" lon="9.774919"><ele>92.0</ele><time>2026-04-26T06:27:47.638Z</time></trkpt><trkpt lat="44.9359038" lon="9.7749066"><ele>92.0</ele><time>2026-04-26T06:27:49.627Z</time></trkpt><trkpt lat="44.9358043" lon="9.7748832"><ele>92.0</ele><time>2026-04-26T06:27:51.641Z</time></trkpt><trkpt lat="44.9357028" lon="9.7748803"><ele>92.0</ele><time>2026-04-26T06:27:53.621Z</time></trkpt><trkpt lat="44.9355999" lon="9.7748835"><ele>92.0</ele><time>2026-04-26T06:27:55.621Z</time></trkpt><trkpt lat="44.9354983" lon="9.7748664"><ele>92.0</ele><time>2026-04-26T06:27:57.626Z</time></trkpt><trkpt lat="44.9353964" lon="9.7748527"><ele>92.0</ele><time>2026-04-26T06:27:59.638Z</time></trkpt><trkpt lat="44.9353027" lon="9.7748461"><ele>92.0</ele><time>2026-04-26T06:28:01.63Z</time></trkpt><trkpt lat="44.9352032" lon="9.7748272"><ele>92.0</ele><time>2026-04-26T06:28:03.631Z</time></trkpt><trkpt lat="44.9351085" lon="9.7748077"><ele>92.0</ele><time>2026-04-26T06:28:05.609Z</time></trkpt><trkpt lat="44.9350114" lon="9.7747991"><ele>92.39999999999999</ele><time>2026-04-26T06:28:07.633Z</time></trkpt><trkpt lat="44.9349154" lon="9.7747834"><ele>92.8</ele><time>2026-04-26T06:28:09.631Z</time></trkpt><trkpt lat="44.9348147" lon="9.7747741"><ele>93.2</ele><time>2026-04-26T06:28:11.646Z</time></trkpt><trkpt lat="44.9347201" lon="9.7747614"><ele>93.6</ele><time>2026-04-26T06:28:13.64Z</time></trkpt><trkpt lat="44.9346253" lon="9.7747539"><ele>94.0</ele><time>2026-04-26T06:28:15.616Z</time></trkpt><trkpt lat="44.9345256" lon="9.7747329"><ele>94.0</ele><time>2026-04-26T06:28:17.632Z</time></trkpt><trkpt lat="44.934432" lon="9.7747175"><ele>94.0</ele><time>2026-04-26T06:28:19.63Z</time></trkpt><trkpt lat="44.9343358" lon="9.7747041"><ele>94.0</ele><time>2026-04-26T06:28:21.631Z</time></trkpt><trkpt lat="44.9342373" lon="9.7746885"><ele>94.0</ele><time>2026-04-26T06:28:23.632Z</time></trkpt><trkpt lat="44.9341414" lon="9.7746751"><ele>94.0</ele><time>2026-04-26T06:28:25.634Z</time></trkpt><trkpt lat="44.9340444" lon="9.7746675"><ele>94.6</ele><time>2026-04-26T06:28:27.625Z</time></trkpt><trkpt lat="44.9339457" lon="9.7746471"><ele>95.2</ele><time>2026-04-26T06:28:29.629Z</time></trkpt><trkpt lat="44.9338485" lon="9.7746363"><ele>95.8</ele><time>2026-04-26T06:28:31.624Z</time></trkpt><trkpt lat="44.9337585" lon="9.7746253"><ele>96.39999999999999</ele><time>2026-04-26T06:28:33.634Z</time></trkpt><trkpt lat="44.9336633" lon="9.7746185"><ele>97.0</ele><time>2026-04-26T06:28:35.633Z</time></trkpt><trkpt lat="44.9335656" lon="9.7746117"><ele>97.0</ele><time>2026-04-26T06:28:37.615Z</time></trkpt><trkpt lat="44.9334689" lon="9.774603"><ele>97.0</ele><time>2026-04-26T06:28:39.634Z</time></trkpt><trkpt lat="44.9333733" lon="9.7745892"><ele>97.0</ele><time>2026-04-26T06:28:41.625Z</time></trkpt><trkpt lat="44.9332772" lon="9.7745794"><ele>97.0</ele><time>2026-04-26T06:28:43.633Z</time></trkpt><trkpt lat="44.9331829" lon="9.7745724"><ele>97.0</ele><time>2026-04-26T06:28:45.634Z</time></trkpt><trkpt lat="44.9330845" lon="9.7745625"><ele>96.8</ele><time>2026-04-26T06:28:47.633Z</time></trkpt><trkpt lat="44.932987" lon="9.7745606"><ele>96.6</ele><time>2026-04-26T06:28:49.63Z</time></trkpt><trkpt lat="44.9328891" lon="9.774551"><ele>96.39999999999999</ele><time>2026-04-26T06:28:51.626Z</time></trkpt><trkpt lat="44.9327962" lon="9.774529"><ele>96.19999999999999</ele><time>2026-04-26T06:28:53.622Z</time></trkpt><trkpt lat="44.9326995" lon="9.7745213"><ele>96.0</ele><time>2026-04-26T06:28:55.636Z</time></trkpt><trkpt lat="44.9326046" lon="9.7745124"><ele>96.0</ele><time>2026-04-26T06:28:57.616Z</time></trkpt><trkpt lat="44.9325087" lon="9.7744964"><ele>96.0</ele><time>2026-04-26T06:28:59.617Z</time></trkpt><trkpt lat="44.9324112" lon="9.7744786"><ele>96.0</ele><time>2026-04-26T06:29:01.634Z</time></trkpt><trkpt lat="44.9323111" lon="9.7744604"><ele>96.0</ele><time>2026-04-26T06:29:03.629Z</time></trkpt><trkpt lat="44.9322132" lon="9.7744377"><ele>96.0</ele><time>2026-04-26T06:29:05.64Z</time></trkpt><trkpt lat="44.9321163" lon="9.7744175"><ele>96.0</ele><time>2026-04-26T06:29:07.637Z</time></trkpt><trkpt lat="44.9320298" lon="9.7743901"><ele>96.0</ele><time>2026-04-26T06:29:09.642Z</time></trkpt><trkpt lat="44.9319435" lon="9.7743585"><ele>96.0</ele><time>2026-04-26T06:29:11.633Z</time></trkpt><trkpt lat="44.931854" lon="9.7743328"><ele>96.0</ele><time>2026-04-26T06:29:13.637Z</time></trkpt><trkpt lat="44.9317615" lon="9.7743015"><ele>96.0</ele><time>2026-04-26T06:29:15.639Z</time></trkpt><trkpt lat="44.9316782" lon="9.7742753"><ele>96.0</ele><time>2026-04-26T06:29:17.621Z</time></trkpt><trkpt lat="44.9315936" lon="9.7742447"><ele>96.0</ele><time>2026-04-26T06:29:19.64Z</time></trkpt><trkpt lat="44.9315094" lon="9.7742105"><ele>96.0</ele><time>2026-04-26T06:29:21.644Z</time></trkpt><trkpt lat="44.9314247" lon="9.7741863"><ele>96.0</ele><time>2026-04-26T06:29:23.629Z</time></trkpt><trkpt lat="44.9313357" lon="9.7741585"><ele>96.0</ele><time>2026-04-26T06:29:25.655Z</time></trkpt><trkpt lat="44.931241" lon="9.7741302"><ele>96.0</ele><time>2026-04-26T06:29:27.635Z</time></trkpt><trkpt lat="44.9311548" lon="9.7741017"><ele>96.0</ele><time>2026-04-26T06:29:29.64Z</time></trkpt><trkpt lat="44.9310585" lon="9.7740826"><ele>96.0</ele><time>2026-04-26T06:29:31.631Z</time></trkpt><trkpt lat="44.9309606" lon="9.7740537"><ele>96.0</ele><time>2026-04-26T06:29:33.624Z</time></trkpt><trkpt lat="44.9308699" lon="9.7740258"><ele>96.0</ele><time>2026-04-26T06:29:35.637Z</time></trkpt><trkpt lat="44.9307719" lon="9.7740039"><ele>96.0</ele><time>2026-04-26T06:29:37.634Z</time></trkpt><trkpt lat="44.93068" lon="9.7739893"><ele>96.19999999999999</ele><time>2026-04-26T06:29:39.634Z</time></trkpt><trkpt lat="44.9305857" lon="9.7739618"><ele>96.39999999999999</ele><time>2026-04-26T06:29:41.633Z</time></trkpt><trkpt lat="44.9305004" lon="9.7739367"><ele>96.6</ele><time>2026-04-26T06:29:43.633Z</time></trkpt><trkpt lat="44.9304035" lon="9.7739099"><ele>96.8</ele><time>2026-04-26T06:29:45.632Z</time></trkpt><trkpt lat="44.9303125" lon="9.773887"><ele>97.0</ele><time>2026-04-26T06:29:47.628Z</time></trkpt><trkpt lat="44.9302242" lon="9.7738663"><ele>97.0</ele><time>2026-04-26T06:29:49.632Z</time></trkpt><trkpt lat="44.9301324" lon="9.7738402"><ele>97.0</ele><time>2026-04-26T06:29:51.626Z</time></trkpt><trkpt lat="44.9300408" lon="9.7738142"><ele>97.0</ele><time>2026-04-26T06:29:53.629Z</time></trkpt><trkpt lat="44.9299433" lon="9.7738035"><ele>97.0</ele><time>2026-04-26T06:29:55.63Z</time></trkpt><trkpt lat="44.9298421" lon="9.7737749"><ele>97.0</ele><time>2026-04-26T06:29:57.625Z</time></trkpt><trkpt lat="44.9297413" lon="9.7737553"><ele>97.19999999999999</ele><time>2026-04-26T06:29:59.633Z</time></trkpt><trkpt lat="44.9296454" lon="9.7737147"><ele>97.4</ele><time>2026-04-26T06:30:01.631Z</time></trkpt><trkpt lat="44.9295646" lon="9.7736605"><ele>97.6</ele><time>2026-04-26T06:30:03.638Z</time></trkpt><trkpt lat="44.9294821" lon="9.7735925"><ele>97.80000000000001</ele><time>2026-04-26T06:30:05.633Z</time></trkpt><trkpt lat="44.9293945" lon="9.7735252"><ele>98.0</ele><time>2026-04-26T06:30:07.639Z</time></trkpt><trkpt lat="44.9293062" lon="9.773452"><ele>98.66666666666666</ele><time>2026-04-26T06:30:09.64Z</time></trkpt><trkpt lat="44.9292137" lon="9.7733725"><ele>99.33333333333333</ele><time>2026-04-26T06:30:11.627Z</time></trkpt><trkpt lat="44.929137" lon="9.7733037"><ele>100.0</ele><time>2026-04-26T06:30:13.623Z</time></trkpt><trkpt lat="44.929074" lon="9.7732466"><ele>100.66666666666666</ele><time>2026-04-26T06:30:15.632Z</time></trkpt><trkpt lat="44.9290154" lon="9.7732064"><ele>101.33333333333333</ele><time>2026-04-26T06:30:17.638Z</time></trkpt><trkpt lat="44.928953" lon="9.7731901"><ele>102.0</ele><time>2026-04-26T06:30:19.637Z</time></trkpt><trkpt lat="44.9288911" lon="9.7731708"><ele>102.0</ele><time>2026-04-26T06:30:21.638Z</time></trkpt><trkpt lat="44.9288208" lon="9.7731584"><ele>102.0</ele><time>2026-04-26T06:30:23.625Z</time></trkpt><trkpt lat="44.9287356" lon="9.7731347"><ele>102.0</ele><time>2026-04-26T06:30:25.62Z</time></trkpt><trkpt lat="44.928638" lon="9.7731299"><ele>102.0</ele><time>2026-04-26T06:30:27.626Z</time></trkpt><trkpt lat="44.9285398" lon="9.7731149"><ele>102.0</ele><time>2026-04-26T06:30:29.638Z</time></trkpt><trkpt lat="44.9284423" lon="9.7731096"><ele>101.39999999999999</ele><time>2026-04-26T06:30:31.632Z</time></trkpt><trkpt lat="44.928346" lon="9.773093"><ele>100.8</ele><time>2026-04-26T06:30:33.629Z</time></trkpt><trkpt lat="44.9282466" lon="9.7730813"><ele>100.2</ele><time>2026-04-26T06:30:35.63Z</time></trkpt><trkpt lat="44.9281525" lon="9.773074"><ele>99.6</ele><time>2026-04-26T06:30:37.631Z</time></trkpt><trkpt lat="44.928064" lon="9.7730535"><ele>99.0</ele><time>2026-04-26T06:30:39.633Z</time></trkpt><trkpt lat="44.9279727" lon="9.7730357"><ele>99.0</ele><time>2026-04-26T06:30:41.623Z</time></trkpt><trkpt lat="44.9278864" lon="9.7730103"><ele>99.0</ele><time>2026-04-26T06:30:43.627Z</time></trkpt><trkpt lat="44.9277997" lon="9.7729881"><ele>99.0</ele><time>2026-04-26T06:30:45.647Z</time></trkpt><trkpt lat="44.9277114" lon="9.7729647"><ele>99.0</ele><time>2026-04-26T06:30:47.627Z</time></trkpt><trkpt lat="44.927622" lon="9.7729389"><ele>99.0</ele><time>2026-04-26T06:30:49.625Z</time></trkpt><trkpt lat="44.9275347" lon="9.7729169"><ele>99.0</ele><time>2026-04-26T06:30:51.633Z</time></trkpt><trkpt lat="44.9274507" lon="9.772892"><ele>99.16666666666667</ele><time>2026-04-26T06:30:53.636Z</time></trkpt><trkpt lat="44.9273719" lon="9.7728667"><ele>99.33333333333334</ele><time>2026-04-26T06:30:55.634Z</time></trkpt><trkpt lat="44.9272864" lon="9.7728595"><ele>99.5</ele><time>2026-04-26T06:30:57.647Z</time></trkpt><trkpt lat="44.9271905" lon="9.772841"><ele>99.66666666666667</ele><time>2026-04-26T06:30:59.624Z</time></trkpt><trkpt lat="44.9270996" lon="9.7728309"><ele>99.83333333333334</ele><time>2026-04-26T06:31:01.633Z</time></trkpt><trkpt lat="44.9270079" lon="9.7728147"><ele>100.0</ele><time>2026-04-26T06:31:03.63Z</time></trkpt><trkpt lat="44.9269116" lon="9.7727888"><ele>100.0</ele><time>2026-04-26T06:31:05.629Z</time></trkpt><trkpt lat="44.9268191" lon="9.7727662"><ele>100.0</ele><time>2026-04-26T06:31:07.629Z</time></trkpt><trkpt lat="44.9267229" lon="9.7727499"><ele>100.0</ele><time>2026-04-26T06:31:09.641Z</time></trkpt><trkpt lat="44.9266314" lon="9.7727324"><ele>100.0</ele><time>2026-04-26T06:31:11.629Z</time></trkpt><trkpt lat="44.9265428" lon="9.772708"><ele>100.0</ele><time>2026-04-26T06:31:13.628Z</time></trkpt><trkpt lat="44.9264477" lon="9.7726857"><ele>100.4</ele><time>2026-04-26T06:31:15.637Z</time></trkpt><trkpt lat="44.9263509" lon="9.7726705"><ele>100.8</ele><time>2026-04-26T06:31:17.63Z</time></trkpt><trkpt lat="44.9262663" lon="9.7726498"><ele>101.19999999999999</ele><time>2026-04-26T06:31:19.621Z</time></trkpt><trkpt lat="44.9261779" lon="9.7726396"><ele>101.6</ele><time>2026-04-26T06:31:21.63Z</time></trkpt><trkpt lat="44.9260879" lon="9.7726071"><ele>102.0</ele><time>2026-04-26T06:31:23.63Z</time></trkpt><trkpt lat="44.9260001" lon="9.7725925"><ele>102.0</ele><time>2026-04-26T06:31:25.638Z</time></trkpt><trkpt lat="44.925918" lon="9.7725708"><ele>102.0</ele><time>2026-04-26T06:31:27.622Z</time></trkpt><trkpt lat="44.9258316" lon="9.7725464"><ele>102.0</ele><time>2026-04-26T06:31:29.632Z</time></trkpt><trkpt lat="44.9257417" lon="9.7725261"><ele>102.0</ele><time>2026-04-26T06:31:31.638Z</time></trkpt><trkpt lat="44.9256487" lon="9.772506"><ele>102.0</ele><time>2026-04-26T06:31:33.633Z</time></trkpt><trkpt lat="44.9255564" lon="9.7724792"><ele>102.19999999999999</ele><time>2026-04-26T06:31:35.636Z</time></trkpt><trkpt lat="44.9254635" lon="9.7724544"><ele>102.4</ele><time>2026-04-26T06:31:37.628Z</time></trkpt><trkpt lat="44.9253747" lon="9.7724437"><ele>102.6</ele><time>2026-04-26T06:31:39.641Z</time></trkpt><trkpt lat="44.925286" lon="9.7724232"><ele>102.80000000000001</ele><time>2026-04-26T06:31:41.63Z</time></trkpt><trkpt lat="44.925194" lon="9.7724099"><ele>103.0</ele><time>2026-04-26T06:31:43.633Z</time></trkpt><trkpt lat="44.9251071" lon="9.7723892"><ele>102.83333333333334</ele><time>2026-04-26T06:31:45.633Z</time></trkpt><trkpt lat="44.9250235" lon="9.7723617"><ele>102.66666666666667</ele><time>2026-04-26T06:31:47.612Z</time></trkpt><trkpt lat="44.9249344" lon="9.7723431"><ele>102.5</ele><time>2026-04-26T06:31:49.617Z</time></trkpt><trkpt lat="44.9248505" lon="9.7723158"><ele>102.33333333333334</ele><time>2026-04-26T06:31:51.629Z</time></trkpt><trkpt lat="44.9247649" lon="9.7722977"><ele>102.16666666666667</ele><time>2026-04-26T06:31:53.624Z</time></trkpt><trkpt lat="44.9246744" lon="9.7722755"><ele>102.0</ele><time>2026-04-26T06:31:55.63Z</time></trkpt><trkpt lat="44.9245871" lon="9.7722528"><ele>102.0</ele><time>2026-04-26T06:31:57.625Z</time></trkpt><trkpt lat="44.9244965" lon="9.7722368"><ele>102.0</ele><time>2026-04-26T06:31:59.639Z</time></trkpt><trkpt lat="44.9244133" lon="9.7722157"><ele>102.0</ele><time>2026-04-26T06:32:01.634Z</time></trkpt><trkpt lat="44.9243263" lon="9.7721995"><ele>102.0</ele><time>2026-04-26T06:32:03.637Z</time></trkpt><trkpt lat="44.9242321" lon="9.7721807"><ele>102.0</ele><time>2026-04-26T06:32:05.63Z</time></trkpt><trkpt lat="44.9241429" lon="9.7721595"><ele>102.0</ele><time>2026-04-26T06:32:07.629Z</time></trkpt><trkpt lat="44.9240508" lon="9.7721354"><ele>101.6</ele><time>2026-04-26T06:32:09.639Z</time></trkpt><trkpt lat="44.9239569" lon="9.7721079"><ele>101.19999999999999</ele><time>2026-04-26T06:32:11.643Z</time></trkpt><trkpt lat="44.9238668" lon="9.7720912"><ele>100.8</ele><time>2026-04-26T06:32:13.622Z</time></trkpt><trkpt lat="44.9237783" lon="9.7720706"><ele>100.4</ele><time>2026-04-26T06:32:15.623Z</time></trkpt><trkpt lat="44.9236888" lon="9.7720511"><ele>100.0</ele><time>2026-04-26T06:32:17.631Z</time></trkpt><trkpt lat="44.9235992" lon="9.772029"><ele>100.0</ele><time>2026-04-26T06:32:19.631Z</time></trkpt><trkpt lat="44.9235034" lon="9.7720071"><ele>100.0</ele><time>2026-04-26T06:32:21.629Z</time></trkpt><trkpt lat="44.9234099" lon="9.7719887"><ele>100.0</ele><time>2026-04-26T06:32:23.626Z</time></trkpt><trkpt lat="44.9233232" lon="9.7719693"><ele>100.0</ele><time>2026-04-26T06:32:25.637Z</time></trkpt><trkpt lat="44.923234" lon="9.7719451"><ele>100.0</ele><time>2026-04-26T06:32:27.631Z</time></trkpt><trkpt lat="44.92314" lon="9.7719191"><ele>100.6</ele><time>2026-04-26T06:32:29.63Z</time></trkpt><trkpt lat="44.9230488" lon="9.7718986"><ele>101.2</ele><time>2026-04-26T06:32:31.636Z</time></trkpt><trkpt lat="44.9229591" lon="9.771878"><ele>101.80000000000001</ele><time>2026-04-26T06:32:33.619Z</time></trkpt><trkpt lat="44.9228734" lon="9.7718581"><ele>102.4</ele><time>2026-04-26T06:32:35.637Z</time></trkpt><trkpt lat="44.9227802" lon="9.7718365"><ele>103.0</ele><time>2026-04-26T06:32:37.629Z</time></trkpt><trkpt lat="44.9226899" lon="9.7718238"><ele>103.2</ele><time>2026-04-26T06:32:39.632Z</time></trkpt><trkpt lat="44.9225997" lon="9.7718181"><ele>103.4</ele><time>2026-04-26T06:32:41.626Z</time></trkpt><trkpt lat="44.9225065" lon="9.771827"><ele>103.60000000000001</ele><time>2026-04-26T06:32:43.625Z</time></trkpt><trkpt lat="44.9224125" lon="9.7718215"><ele>103.80000000000001</ele><time>2026-04-26T06:32:45.615Z</time></trkpt><trkpt lat="44.922319" lon="9.771809"><ele>104.0</ele><time>2026-04-26T06:32:47.629Z</time></trkpt><trkpt lat="44.9222279" lon="9.7717888"><ele>104.4</ele><time>2026-04-26T06:32:49.631Z</time></trkpt><trkpt lat="44.9221299" lon="9.7717688"><ele>104.80000000000001</ele><time>2026-04-26T06:32:51.623Z</time></trkpt><trkpt lat="44.9220399" lon="9.7717438"><ele>105.19999999999999</ele><time>2026-04-26T06:32:53.628Z</time></trkpt><trkpt lat="44.9219489" lon="9.7717203"><ele>105.6</ele><time>2026-04-26T06:32:55.615Z</time></trkpt><trkpt lat="44.9218629" lon="9.7716928"><ele>106.0</ele><time>2026-04-26T06:32:57.639Z</time></trkpt><trkpt lat="44.9217699" lon="9.7716754"><ele>106.00000000000001</ele><time>2026-04-26T06:32:59.64Z</time></trkpt><trkpt lat="44.9216865" lon="9.7716307"><ele>106.0</ele><time>2026-04-26T06:33:01.625Z</time></trkpt><trkpt lat="44.9216018" lon="9.7716101"><ele>106.0</ele><time>2026-04-26T06:33:03.624Z</time></trkpt><trkpt lat="44.921515" lon="9.7715887"><ele>106.0</ele><time>2026-04-26T06:33:05.624Z</time></trkpt><trkpt lat="44.9214269" lon="9.771565"><ele>106.00000000000001</ele><time>2026-04-26T06:33:07.645Z</time></trkpt><trkpt lat="44.9213381" lon="9.7715502"><ele>106.0</ele><time>2026-04-26T06:33:09.626Z</time></trkpt><trkpt lat="44.9212524" lon="9.7715185"><ele>106.00000000000001</ele><time>2026-04-26T06:33:11.631Z</time></trkpt><trkpt lat="44.9211576" lon="9.7714982"><ele>106.0</ele><time>2026-04-26T06:33:13.629Z</time></trkpt><trkpt lat="44.9210737" lon="9.7714698"><ele>106.0</ele><time>2026-04-26T06:33:15.629Z</time></trkpt><trkpt lat="44.9209873" lon="9.771449"><ele>106.0</ele><time>2026-04-26T06:33:17.622Z</time></trkpt><trkpt lat="44.920905" lon="9.7714231"><ele>106.00000000000001</ele><time>2026-04-26T06:33:19.626Z</time></trkpt><trkpt lat="44.9208148" lon="9.7713971"><ele>106.0</ele><time>2026-04-26T06:33:21.631Z</time></trkpt><trkpt lat="44.9207243" lon="9.7713661"><ele>106.50000000000001</ele><time>2026-04-26T06:33:23.629Z</time></trkpt><trkpt lat="44.92064" lon="9.7713473"><ele>107.0</ele><time>2026-04-26T06:33:25.626Z</time></trkpt><trkpt lat="44.9205564" lon="9.7713198"><ele>107.5</ele><time>2026-04-26T06:33:27.614Z</time></trkpt><trkpt lat="44.9204715" lon="9.7712975"><ele>108.0</ele><time>2026-04-26T06:33:29.622Z</time></trkpt><trkpt lat="44.9203772" lon="9.7712708"><ele>108.50000000000001</ele><time>2026-04-26T06:33:31.638Z</time></trkpt><trkpt lat="44.9202907" lon="9.7712387"><ele>109.0</ele><time>2026-04-26T06:33:33.63Z</time></trkpt><trkpt lat="44.9202061" lon="9.7712203"><ele>109.00000000000001</ele><time>2026-04-26T06:33:35.628Z</time></trkpt><trkpt lat="44.920126" lon="9.7711895"><ele>109.0</ele><time>2026-04-26T06:33:37.634Z</time></trkpt><trkpt lat="44.9200437" lon="9.7711797"><ele>109.0</ele><time>2026-04-26T06:33:39.623Z</time></trkpt><trkpt lat="44.9199544" lon="9.7711482"><ele>109.0</ele><time>2026-04-26T06:33:41.624Z</time></trkpt><trkpt lat="44.919869" lon="9.771123"><ele>109.00000000000001</ele><time>2026-04-26T06:33:43.634Z</time></trkpt><trkpt lat="44.9197786" lon="9.771104"><ele>109.0</ele><time>2026-04-26T06:33:45.632Z</time></trkpt><trkpt lat="44.9196897" lon="9.7710767"><ele>109.16666666666667</ele><time>2026-04-26T06:33:47.637Z</time></trkpt><trkpt lat="44.9196038" lon="9.7710431"><ele>109.33333333333334</ele><time>2026-04-26T06:33:49.63Z</time></trkpt><trkpt lat="44.9195199" lon="9.7710219"><ele>109.5</ele><time>2026-04-26T06:33:51.642Z</time></trkpt><trkpt lat="44.9194299" lon="9.7709953"><ele>109.66666666666666</ele><time>2026-04-26T06:33:53.647Z</time></trkpt><trkpt lat="44.9193466" lon="9.7709701"><ele>109.83333333333333</ele><time>2026-04-26T06:33:55.618Z</time></trkpt><trkpt lat="44.9192705" lon="9.77094"><ele>110.0</ele><time>2026-04-26T06:33:57.64Z</time></trkpt><trkpt lat="44.9191958" lon="9.770926"><ele>109.66666666666666</ele><time>2026-04-26T06:33:59.627Z</time></trkpt><trkpt lat="44.9191191" lon="9.7708963"><ele>109.33333333333333</ele><time>2026-04-26T06:34:02.633Z</time></trkpt><trkpt lat="44.9190561" lon="9.7708637"><ele>109.0</ele><time>2026-04-26T06:34:08.619Z</time></trkpt><trkpt lat="44.9189787" lon="9.7709175"><ele>108.66666666666666</ele><time>2026-04-26T06:34:12.632Z</time></trkpt><trkpt lat="44.9189463" lon="9.7710056"><ele>108.33333333333333</ele><time>2026-04-26T06:34:14.638Z</time></trkpt><trkpt lat="44.9189235" lon="9.7711293"><ele>108.0</ele><time>2026-04-26T06:34:16.625Z</time></trkpt><trkpt lat="44.9188987" lon="9.7712545"><ele>107.60000000000001</ele><time>2026-04-26T06:34:18.62Z</time></trkpt><trkpt lat="44.9188765" lon="9.7713843"><ele>107.20000000000002</ele><time>2026-04-26T06:34:20.638Z</time></trkpt><trkpt lat="44.9188528" lon="9.7715085"><ele>106.8</ele><time>2026-04-26T06:34:22.629Z</time></trkpt><trkpt lat="44.9188242" lon="9.7716355"><ele>106.4</ele><time>2026-04-26T06:34:24.637Z</time></trkpt><trkpt lat="44.9187968" lon="9.7717484"><ele>106.0</ele><time>2026-04-26T06:34:26.626Z</time></trkpt><trkpt lat="44.9187773" lon="9.7718713"><ele>105.8</ele><time>2026-04-26T06:34:28.64Z</time></trkpt><trkpt lat="44.9187512" lon="9.771999"><ele>105.6</ele><time>2026-04-26T06:34:30.631Z</time></trkpt><trkpt lat="44.9187233" lon="9.7721285"><ele>105.4</ele><time>2026-04-26T06:34:32.629Z</time></trkpt><trkpt lat="44.9187035" lon="9.7722614"><ele>105.2</ele><time>2026-04-26T06:34:34.623Z</time></trkpt><trkpt lat="44.9186765" lon="9.7723973"><ele>105.0</ele><time>2026-04-26T06:34:36.645Z</time></trkpt><trkpt lat="44.9186486" lon="9.7725187"><ele>105.0</ele><time>2026-04-26T06:34:38.632Z</time></trkpt><trkpt lat="44.918629" lon="9.7726487"><ele>105.0</ele><time>2026-04-26T06:34:40.63Z</time></trkpt><trkpt lat="44.9186" lon="9.772773"><ele>105.0</ele><time>2026-04-26T06:34:42.63Z</time></trkpt><trkpt lat="44.918567" lon="9.7728921"><ele>105.0</ele><time>2026-04-26T06:34:44.628Z</time></trkpt><trkpt lat="44.9185012" lon="9.7729922"><ele>105.0</ele><time>2026-04-26T06:34:46.62Z</time></trkpt><trkpt lat="44.9184197" lon="9.7730505"><ele>105.6</ele><time>2026-04-26T06:34:48.635Z</time></trkpt><trkpt lat="44.9183212" lon="9.773063"><ele>106.2</ele><time>2026-04-26T06:34:50.624Z</time></trkpt><trkpt lat="44.9182286" lon="9.7730502"><ele>106.80000000000001</ele><time>2026-04-26T06:34:52.596Z</time></trkpt><trkpt lat="44.9181303" lon="9.7730361"><ele>107.4</ele><time>2026-04-26T06:34:54.597Z</time></trkpt><trkpt lat="44.9180402" lon="9.7730173"><ele>108.0</ele><time>2026-04-26T06:34:56.596Z</time></trkpt><trkpt lat="44.9179355" lon="9.7730047"><ele>108.0</ele><time>2026-04-26T06:34:58.598Z</time></trkpt><trkpt lat="44.9178398" lon="9.7729833"><ele>108.00000000000001</ele><time>2026-04-26T06:35:00.604Z</time></trkpt><trkpt lat="44.9177452" lon="9.7729574"><ele>108.00000000000001</ele><time>2026-04-26T06:35:02.591Z</time></trkpt><trkpt lat="44.9176511" lon="9.7729254"><ele>108.0</ele><time>2026-04-26T06:35:04.634Z</time></trkpt><trkpt lat="44.917559" lon="9.772905"><ele>108.0</ele><time>2026-04-26T06:35:06.636Z</time></trkpt><trkpt lat="44.9174654" lon="9.7728787"><ele>108.0</ele><time>2026-04-26T06:35:08.607Z</time></trkpt><trkpt lat="44.9173677" lon="9.7728557"><ele>108.00000000000001</ele><time>2026-04-26T06:35:10.639Z</time></trkpt><trkpt lat="44.9172778" lon="9.7728351"><ele>108.00000000000001</ele><time>2026-04-26T06:35:12.602Z</time></trkpt><trkpt lat="44.9171769" lon="9.7728103"><ele>108.0</ele><time>2026-04-26T06:35:14.637Z</time></trkpt><trkpt lat="44.9170806" lon="9.7727836"><ele>108.0</ele><time>2026-04-26T06:35:16.635Z</time></trkpt><trkpt lat="44.9169914" lon="9.7727614"><ele>108.0</ele><time>2026-04-26T06:35:18.629Z</time></trkpt><trkpt lat="44.9169016" lon="9.7727415"><ele>108.00000000000001</ele><time>2026-04-26T06:35:20.633Z</time></trkpt><trkpt lat="44.9168063" lon="9.7727094"><ele>108.00000000000001</ele><time>2026-04-26T06:35:22.63Z</time></trkpt><trkpt lat="44.9167023" lon="9.7726902"><ele>108.0</ele><time>2026-04-26T06:35:24.643Z</time></trkpt><trkpt lat="44.9166065" lon="9.7726716"><ele>108.0</ele><time>2026-04-26T06:35:26.611Z</time></trkpt><trkpt lat="44.9165097" lon="9.7726482"><ele>108.0</ele><time>2026-04-26T06:35:28.636Z</time></trkpt><trkpt lat="44.9164115" lon="9.7726245"><ele>108.00000000000001</ele><time>2026-04-26T06:35:30.634Z</time></trkpt><trkpt lat="44.9163171" lon="9.7726019"><ele>108.00000000000001</ele><time>2026-04-26T06:35:32.627Z</time></trkpt><trkpt lat="44.9162228" lon="9.77258"><ele>108.0</ele><time>2026-04-26T06:35:34.642Z</time></trkpt><trkpt lat="44.9161328" lon="9.7725545"><ele>108.0</ele><time>2026-04-26T06:35:36.637Z</time></trkpt><trkpt lat="44.9160327" lon="9.772534"><ele>108.0</ele><time>2026-04-26T06:35:38.626Z</time></trkpt><trkpt lat="44.9159365" lon="9.7725121"><ele>108.00000000000001</ele><time>2026-04-26T06:35:40.617Z</time></trkpt><trkpt lat="44.9158467" lon="9.7724856"><ele>108.00000000000001</ele><time>2026-04-26T06:35:42.637Z</time></trkpt><trkpt lat="44.9157459" lon="9.7724575"><ele>108.0</ele><time>2026-04-26T06:35:44.638Z</time></trkpt><trkpt lat="44.9156543" lon="9.7724311"><ele>108.0</ele><time>2026-04-26T06:35:46.645Z</time></trkpt><trkpt lat="44.9155651" lon="9.7724027"><ele>108.60000000000001</ele><time>2026-04-26T06:35:48.625Z</time></trkpt><trkpt lat="44.9154683" lon="9.7723837"><ele>109.20000000000002</ele><time>2026-04-26T06:35:50.63Z</time></trkpt><trkpt lat="44.9153712" lon="9.7723602"><ele>109.8</ele><time>2026-04-26T06:35:52.631Z</time></trkpt><trkpt lat="44.9152834" lon="9.7723336"><ele>110.4</ele><time>2026-04-26T06:35:54.642Z</time></trkpt><trkpt lat="44.9151879" lon="9.7723168"><ele>111.0</ele><time>2026-04-26T06:35:56.646Z</time></trkpt><trkpt lat="44.9150919" lon="9.7722854"><ele>111.0</ele><time>2026-04-26T06:35:58.61Z</time></trkpt><trkpt lat="44.9149901" lon="9.77226"><ele>111.0</ele><time>2026-04-26T06:36:00.635Z</time></trkpt><trkpt lat="44.9148929" lon="9.7722346"><ele>111.0</ele><time>2026-04-26T06:36:02.636Z</time></trkpt><trkpt lat="44.9147997" lon="9.7722131"><ele>111.0</ele><time>2026-04-26T06:36:04.626Z</time></trkpt><trkpt lat="44.9147078" lon="9.772188"><ele>111.0</ele><time>2026-04-26T06:36:06.627Z</time></trkpt><trkpt lat="44.914613" lon="9.7721623"><ele>111.0</ele><time>2026-04-26T06:36:08.637Z</time></trkpt><trkpt lat="44.9145157" lon="9.7721392"><ele>111.0</ele><time>2026-04-26T06:36:10.621Z</time></trkpt><trkpt lat="44.9144216" lon="9.7721152"><ele>111.0</ele><time>2026-04-26T06:36:12.629Z</time></trkpt><trkpt lat="44.9143274" lon="9.7720991"><ele>111.0</ele><time>2026-04-26T06:36:14.635Z</time></trkpt><trkpt lat="44.9142313" lon="9.7720738"><ele>111.0</ele><time>2026-04-26T06:36:16.628Z</time></trkpt><trkpt lat="44.9141354" lon="9.772053"><ele>110.8</ele><time>2026-04-26T06:36:18.637Z</time></trkpt><trkpt lat="44.9140409" lon="9.7720219"><ele>110.6</ele><time>2026-04-26T06:36:20.632Z</time></trkpt><trkpt lat="44.913947" lon="9.7720018"><ele>110.4</ele><time>2026-04-26T06:36:22.638Z</time></trkpt><trkpt lat="44.9138508" lon="9.7719804"><ele>110.2</ele><time>2026-04-26T06:36:24.626Z</time></trkpt><trkpt lat="44.9137551" lon="9.7719541"><ele>110.0</ele><time>2026-04-26T06:36:26.619Z</time></trkpt><trkpt lat="44.9136606" lon="9.7719358"><ele>110.0</ele><time>2026-04-26T06:36:28.642Z</time></trkpt><trkpt lat="44.9135617" lon="9.7719174"><ele>110.0</ele><time>2026-04-26T06:36:30.627Z</time></trkpt><trkpt lat="44.9134713" lon="9.7718919"><ele>110.0</ele><time>2026-04-26T06:36:32.632Z</time></trkpt><trkpt lat="44.9133782" lon="9.7718654"><ele>110.0</ele><time>2026-04-26T06:36:34.633Z</time></trkpt><trkpt lat="44.9132856" lon="9.771833"><ele>110.0</ele><time>2026-04-26T06:36:36.629Z</time></trkpt><trkpt lat="44.9132009" lon="9.7718086"><ele>110.2</ele><time>2026-04-26T06:36:38.633Z</time></trkpt><trkpt lat="44.9131155" lon="9.7717815"><ele>110.4</ele><time>2026-04-26T06:36:40.643Z</time></trkpt><trkpt lat="44.9130173" lon="9.7717686"><ele>110.6</ele><time>2026-04-26T06:36:42.627Z</time></trkpt><trkpt lat="44.9129246" lon="9.7717475"><ele>110.8</ele><time>2026-04-26T06:36:44.618Z</time></trkpt><trkpt lat="44.9128321" lon="9.7717322"><ele>111.0</ele><time>2026-04-26T06:36:46.642Z</time></trkpt><trkpt lat="44.9127398" lon="9.7717062"><ele>111.0</ele><time>2026-04-26T06:36:48.631Z</time></trkpt><trkpt lat="44.9126444" lon="9.7716856"><ele>111.0</ele><time>2026-04-26T06:36:50.633Z</time></trkpt><trkpt lat="44.9125595" lon="9.7716519"><ele>111.0</ele><time>2026-04-26T06:36:52.631Z</time></trkpt><trkpt lat="44.9124669" lon="9.7716251"><ele>111.0</ele><time>2026-04-26T06:36:54.615Z</time></trkpt><trkpt lat="44.9123731" lon="9.7716108"><ele>111.0</ele><time>2026-04-26T06:36:56.628Z</time></trkpt><trkpt lat="44.912288" lon="9.7715902"><ele>110.8</ele><time>2026-04-26T06:36:58.622Z</time></trkpt><trkpt lat="44.912192" lon="9.7715615"><ele>110.6</ele><time>2026-04-26T06:37:00.638Z</time></trkpt><trkpt lat="44.9121034" lon="9.7715315"><ele>110.4</ele><time>2026-04-26T06:37:02.637Z</time></trkpt><trkpt lat="44.9120134" lon="9.7715087"><ele>110.2</ele><time>2026-04-26T06:37:04.626Z</time></trkpt><trkpt lat="44.9119242" lon="9.7714933"><ele>110.0</ele><time>2026-04-26T06:37:06.628Z</time></trkpt><trkpt lat="44.9118353" lon="9.7714614"><ele>110.0</ele><time>2026-04-26T06:37:08.627Z</time></trkpt><trkpt lat="44.9117454" lon="9.771435"><ele>110.0</ele><time>2026-04-26T06:37:10.631Z</time></trkpt><trkpt lat="44.911655" lon="9.7714182"><ele>110.0</ele><time>2026-04-26T06:37:12.642Z</time></trkpt><trkpt lat="44.9115666" lon="9.7714"><ele>110.0</ele><time>2026-04-26T06:37:14.636Z</time></trkpt><trkpt lat="44.9114764" lon="9.7713758"><ele>110.0</ele><time>2026-04-26T06:37:16.63Z</time></trkpt><trkpt lat="44.9113846" lon="9.7713514"><ele>110.49999999999999</ele><time>2026-04-26T06:37:18.631Z</time></trkpt><trkpt lat="44.911297" lon="9.7713242"><ele>111.0</ele><time>2026-04-26T06:37:20.623Z</time></trkpt><trkpt lat="44.9112084" lon="9.7712988"><ele>111.5</ele><time>2026-04-26T06:37:22.627Z</time></trkpt><trkpt lat="44.9111207" lon="9.7712817"><ele>112.0</ele><time>2026-04-26T06:37:24.621Z</time></trkpt><trkpt lat="44.9110328" lon="9.7712588"><ele>112.49999999999999</ele><time>2026-04-26T06:37:26.633Z</time></trkpt><trkpt lat="44.9109484" lon="9.7712415"><ele>113.0</ele><time>2026-04-26T06:37:28.633Z</time></trkpt><trkpt lat="44.9108595" lon="9.7712117"><ele>113.49999999999999</ele><time>2026-04-26T06:37:30.613Z</time></trkpt><trkpt lat="44.910774" lon="9.771194"><ele>114.0</ele><time>2026-04-26T06:37:32.63Z</time></trkpt><trkpt lat="44.9106832" lon="9.7711737"><ele>114.5</ele><time>2026-04-26T06:37:34.634Z</time></trkpt><trkpt lat="44.9105971" lon="9.7711518"><ele>115.0</ele><time>2026-04-26T06:37:36.62Z</time></trkpt><trkpt lat="44.9105126" lon="9.7711318"><ele>115.49999999999999</ele><time>2026-04-26T06:37:38.62Z</time></trkpt><trkpt lat="44.9104239" lon="9.7711087"><ele>116.0</ele><time>2026-04-26T06:37:40.628Z</time></trkpt><trkpt lat="44.910331" lon="9.7710844"><ele>116.0</ele><time>2026-04-26T06:37:42.625Z</time></trkpt><trkpt lat="44.9102412" lon="9.7710609"><ele>116.0</ele><time>2026-04-26T06:37:44.643Z</time></trkpt><trkpt lat="44.9101546" lon="9.7710378"><ele>116.0</ele><time>2026-04-26T06:37:46.625Z</time></trkpt><trkpt lat="44.9100662" lon="9.7710155"><ele>116.0</ele><time>2026-04-26T06:37:48.63Z</time></trkpt><trkpt lat="44.9099792" lon="9.7710017"><ele>116.0</ele><time>2026-04-26T06:37:50.631Z</time></trkpt><trkpt lat="44.9098863" lon="9.7709776"><ele>117.0</ele><time>2026-04-26T06:37:52.634Z</time></trkpt><trkpt lat="44.9097924" lon="9.7709503"><ele>118.0</ele><time>2026-04-26T06:37:54.61Z</time></trkpt><trkpt lat="44.9097021" lon="9.7709231"><ele>119.0</ele><time>2026-04-26T06:37:56.629Z</time></trkpt><trkpt lat="44.9096103" lon="9.7708995"><ele>120.0</ele><time>2026-04-26T06:37:58.636Z</time></trkpt><trkpt lat="44.9095221" lon="9.7708757"><ele>121.0</ele><time>2026-04-26T06:38:00.624Z</time></trkpt><trkpt lat="44.9094413" lon="9.7708554"><ele>121.0</ele><time>2026-04-26T06:38:02.624Z</time></trkpt><trkpt lat="44.9093498" lon="9.7708308"><ele>121.0</ele><time>2026-04-26T06:38:04.595Z</time></trkpt><trkpt lat="44.909261" lon="9.7708128"><ele>121.0</ele><time>2026-04-26T06:38:06.626Z</time></trkpt><trkpt lat="44.9091726" lon="9.7707799"><ele>121.0</ele><time>2026-04-26T06:38:08.616Z</time></trkpt><trkpt lat="44.9090851" lon="9.7707611"><ele>121.0</ele><time>2026-04-26T06:38:10.615Z</time></trkpt><trkpt lat="44.9089962" lon="9.77074"><ele>121.33333333333334</ele><time>2026-04-26T06:38:12.625Z</time></trkpt><trkpt lat="44.9089145" lon="9.7707207"><ele>121.66666666666667</ele><time>2026-04-26T06:38:14.623Z</time></trkpt><trkpt lat="44.9088298" lon="9.7707054"><ele>122.0</ele><time>2026-04-26T06:38:16.632Z</time></trkpt><trkpt lat="44.9087457" lon="9.7706723"><ele>122.33333333333334</ele><time>2026-04-26T06:38:18.622Z</time></trkpt><trkpt lat="44.9086572" lon="9.7706578"><ele>122.66666666666667</ele><time>2026-04-26T06:38:20.619Z</time></trkpt><trkpt lat="44.9085707" lon="9.770632"><ele>123.0</ele><time>2026-04-26T06:38:22.643Z</time></trkpt><trkpt lat="44.9084852" lon="9.770614"><ele>122.83333333333333</ele><time>2026-04-26T06:38:24.625Z</time></trkpt><trkpt lat="44.9083928" lon="9.7705869"><ele>122.66666666666666</ele><time>2026-04-26T06:38:26.634Z</time></trkpt><trkpt lat="44.908308" lon="9.7705671"><ele>122.5</ele><time>2026-04-26T06:38:28.626Z</time></trkpt><trkpt lat="44.9082176" lon="9.7705425"><ele>122.33333333333333</ele><time>2026-04-26T06:38:30.629Z</time></trkpt><trkpt lat="44.9081293" lon="9.7705256"><ele>122.16666666666666</ele><time>2026-04-26T06:38:32.625Z</time></trkpt><trkpt lat="44.9080503" lon="9.7705047"><ele>122.0</ele><time>2026-04-26T06:38:34.623Z</time></trkpt><trkpt lat="44.9079634" lon="9.7704813"><ele>122.0</ele><time>2026-04-26T06:38:36.625Z</time></trkpt><trkpt lat="44.9078771" lon="9.7704567"><ele>121.99999999999999</ele><time>2026-04-26T06:38:38.624Z</time></trkpt><trkpt lat="44.9077905" lon="9.7704306"><ele>121.99999999999999</ele><time>2026-04-26T06:38:40.637Z</time></trkpt><trkpt lat="44.9076992" lon="9.7704114"><ele>122.0</ele><time>2026-04-26T06:38:42.621Z</time></trkpt><trkpt lat="44.9076101" lon="9.7703866"><ele>122.0</ele><time>2026-04-26T06:38:44.627Z</time></trkpt><trkpt lat="44.9075197" lon="9.7703588"><ele>121.8</ele><time>2026-04-26T06:38:46.632Z</time></trkpt><trkpt lat="44.9074268" lon="9.7703368"><ele>121.6</ele><time>2026-04-26T06:38:48.63Z</time></trkpt><trkpt lat="44.9073362" lon="9.7703146"><ele>121.39999999999999</ele><time>2026-04-26T06:38:50.633Z</time></trkpt><trkpt lat="44.907241" lon="9.7702825"><ele>121.19999999999999</ele><time>2026-04-26T06:38:52.631Z</time></trkpt><trkpt lat="44.9071507" lon="9.7702524"><ele>121.0</ele><time>2026-04-26T06:38:54.639Z</time></trkpt><trkpt lat="44.9070598" lon="9.7702264"><ele>121.0</ele><time>2026-04-26T06:38:56.634Z</time></trkpt><trkpt lat="44.9069687" lon="9.7702079"><ele>121.0</ele><time>2026-04-26T06:38:58.625Z</time></trkpt><trkpt lat="44.9068794" lon="9.7701848"><ele>121.0</ele><time>2026-04-26T06:39:00.639Z</time></trkpt><trkpt lat="44.9067834" lon="9.7701564"><ele>121.0</ele><time>2026-04-26T06:39:02.634Z</time></trkpt><trkpt lat="44.906687" lon="9.7701353"><ele>121.0</ele><time>2026-04-26T06:39:04.632Z</time></trkpt><trkpt lat="44.9065921" lon="9.7701027"><ele>121.0</ele><time>2026-04-26T06:39:06.634Z</time></trkpt><trkpt lat="44.906499" lon="9.7700671"><ele>121.0</ele><time>2026-04-26T06:39:08.636Z</time></trkpt><trkpt lat="44.9064103" lon="9.7700481"><ele>121.0</ele><time>2026-04-26T06:39:10.634Z</time></trkpt><trkpt lat="44.9063122" lon="9.7700339"><ele>121.0</ele><time>2026-04-26T06:39:12.638Z</time></trkpt><trkpt lat="44.9062188" lon="9.770002"><ele>121.0</ele><time>2026-04-26T06:39:14.629Z</time></trkpt><trkpt lat="44.9061261" lon="9.7699742"><ele>121.0</ele><time>2026-04-26T06:39:16.616Z</time></trkpt><trkpt lat="44.9060254" lon="9.7699493"><ele>121.0</ele><time>2026-04-26T06:39:18.626Z</time></trkpt><trkpt lat="44.9059221" lon="9.7699216"><ele>121.0</ele><time>2026-04-26T06:39:20.631Z</time></trkpt><trkpt lat="44.905831" lon="9.7698891"><ele>121.0</ele><time>2026-04-26T06:39:22.639Z</time></trkpt><trkpt lat="44.9057342" lon="9.7698598"><ele>121.0</ele><time>2026-04-26T06:39:24.639Z</time></trkpt><trkpt lat="44.9056362" lon="9.7698303"><ele>121.0</ele><time>2026-04-26T06:39:26.629Z</time></trkpt><trkpt lat="44.9055393" lon="9.7698001"><ele>121.0</ele><time>2026-04-26T06:39:28.624Z</time></trkpt><trkpt lat="44.9054402" lon="9.7697707"><ele>121.0</ele><time>2026-04-26T06:39:30.637Z</time></trkpt><trkpt lat="44.9053451" lon="9.7697353"><ele>121.0</ele><time>2026-04-26T06:39:32.641Z</time></trkpt><trkpt lat="44.9052495" lon="9.7696967"><ele>121.0</ele><time>2026-04-26T06:39:34.632Z</time></trkpt><trkpt lat="44.9051561" lon="9.7696509"><ele>120.8</ele><time>2026-04-26T06:39:36.632Z</time></trkpt><trkpt lat="44.9050587" lon="9.7695961"><ele>120.6</ele><time>2026-04-26T06:39:38.64Z</time></trkpt><trkpt lat="44.9049677" lon="9.7695515"><ele>120.4</ele><time>2026-04-26T06:39:40.643Z</time></trkpt><trkpt lat="44.9048721" lon="9.7694974"><ele>120.2</ele><time>2026-04-26T06:39:42.627Z</time></trkpt><trkpt lat="44.9047791" lon="9.7694519"><ele>120.0</ele><time>2026-04-26T06:39:44.65Z</time></trkpt><trkpt lat="44.9046821" lon="9.7694011"><ele>120.0</ele><time>2026-04-26T06:39:46.643Z</time></trkpt><trkpt lat="44.9045832" lon="9.7693492"><ele>120.0</ele><time>2026-04-26T06:39:48.631Z</time></trkpt><trkpt lat="44.9044893" lon="9.7693003"><ele>120.0</ele><time>2026-04-26T06:39:50.631Z</time></trkpt><trkpt lat="44.9043933" lon="9.7692538"><ele>120.0</ele><time>2026-04-26T06:39:52.631Z</time></trkpt><trkpt lat="44.9043039" lon="9.7692016"><ele>120.0</ele><time>2026-04-26T06:39:54.629Z</time></trkpt><trkpt lat="44.9042088" lon="9.7691611"><ele>120.0</ele><time>2026-04-26T06:39:56.622Z</time></trkpt><trkpt lat="44.9041144" lon="9.7691138"><ele>120.0</ele><time>2026-04-26T06:39:58.637Z</time></trkpt><trkpt lat="44.9040226" lon="9.7690683"><ele>120.0</ele><time>2026-04-26T06:40:00.637Z</time></trkpt><trkpt lat="44.9039285" lon="9.7690202"><ele>120.0</ele><time>2026-04-26T06:40:02.638Z</time></trkpt><trkpt lat="44.9038392" lon="9.7689703"><ele>120.0</ele><time>2026-04-26T06:40:04.64Z</time></trkpt><trkpt lat="44.9037472" lon="9.7689182"><ele>120.0</ele><time>2026-04-26T06:40:06.635Z</time></trkpt><trkpt lat="44.9036571" lon="9.7688742"><ele>120.0</ele><time>2026-04-26T06:40:08.655Z</time></trkpt><trkpt lat="44.9035614" lon="9.7688259"><ele>120.0</ele><time>2026-04-26T06:40:10.625Z</time></trkpt><trkpt lat="44.9034713" lon="9.7687862"><ele>120.0</ele><time>2026-04-26T06:40:12.63Z</time></trkpt><trkpt lat="44.9033862" lon="9.768737"><ele>120.0</ele><time>2026-04-26T06:40:14.633Z</time></trkpt><trkpt lat="44.9032969" lon="9.7686918"><ele>120.8</ele><time>2026-04-26T06:40:16.627Z</time></trkpt><trkpt lat="44.9032108" lon="9.7686408"><ele>121.6</ele><time>2026-04-26T06:40:18.629Z</time></trkpt><trkpt lat="44.9031187" lon="9.7685994"><ele>122.4</ele><time>2026-04-26T06:40:20.619Z</time></trkpt><trkpt lat="44.9030343" lon="9.7685555"><ele>123.2</ele><time>2026-04-26T06:40:22.631Z</time></trkpt><trkpt lat="44.9029472" lon="9.7685179"><ele>124.0</ele><time>2026-04-26T06:40:24.596Z</time></trkpt><trkpt lat="44.9028584" lon="9.7684761"><ele>124.6</ele><time>2026-04-26T06:40:26.601Z</time></trkpt><trkpt lat="44.9027776" lon="9.7684334"><ele>125.2</ele><time>2026-04-26T06:40:28.619Z</time></trkpt><trkpt lat="44.9026937" lon="9.7683921"><ele>125.79999999999998</ele><time>2026-04-26T06:40:30.639Z</time></trkpt><trkpt lat="44.9026039" lon="9.768343"><ele>126.39999999999999</ele><time>2026-04-26T06:40:32.638Z</time></trkpt><trkpt lat="44.9025149" lon="9.7683013"><ele>127.0</ele><time>2026-04-26T06:40:34.623Z</time></trkpt><trkpt lat="44.9024203" lon="9.7682534"><ele>127.19999999999999</ele><time>2026-04-26T06:40:36.625Z</time></trkpt><trkpt lat="44.9023313" lon="9.7682078"><ele>127.39999999999999</ele><time>2026-04-26T06:40:38.638Z</time></trkpt><trkpt lat="44.9022416" lon="9.7681595"><ele>127.60000000000001</ele><time>2026-04-26T06:40:40.635Z</time></trkpt><trkpt lat="44.9021536" lon="9.7681042"><ele>127.80000000000001</ele><time>2026-04-26T06:40:42.644Z</time></trkpt><trkpt lat="44.9020677" lon="9.7680606"><ele>128.0</ele><time>2026-04-26T06:40:44.625Z</time></trkpt><trkpt lat="44.9019789" lon="9.7680166"><ele>128.0</ele><time>2026-04-26T06:40:46.629Z</time></trkpt><trkpt lat="44.9018897" lon="9.7679722"><ele>128.0</ele><time>2026-04-26T06:40:48.631Z</time></trkpt><trkpt lat="44.9018062" lon="9.7679259"><ele>128.0</ele><time>2026-04-26T06:40:50.613Z</time></trkpt><trkpt lat="44.9017161" lon="9.7678894"><ele>128.0</ele><time>2026-04-26T06:40:52.636Z</time></trkpt><trkpt lat="44.9016365" lon="9.7678467"><ele>128.0</ele><time>2026-04-26T06:40:54.633Z</time></trkpt><trkpt lat="44.9015518" lon="9.7678007"><ele>127.99999999999999</ele><time>2026-04-26T06:40:56.632Z</time></trkpt><trkpt lat="44.901468" lon="9.7677591"><ele>128.0</ele><time>2026-04-26T06:40:58.632Z</time></trkpt><trkpt lat="44.9013783" lon="9.7677155"><ele>128.0</ele><time>2026-04-26T06:41:00.621Z</time></trkpt><trkpt lat="44.9012971" lon="9.7676744"><ele>128.0</ele><time>2026-04-26T06:41:02.627Z</time></trkpt><trkpt lat="44.9012178" lon="9.7676315"><ele>127.99999999999999</ele><time>2026-04-26T06:41:04.644Z</time></trkpt><trkpt lat="44.9011315" lon="9.7675875"><ele>128.0</ele><time>2026-04-26T06:41:06.633Z</time></trkpt><trkpt lat="44.9010482" lon="9.7675356"><ele>127.99999999999999</ele><time>2026-04-26T06:41:08.619Z</time></trkpt><trkpt lat="44.9009572" lon="9.7674942"><ele>128.0</ele><time>2026-04-26T06:41:10.632Z</time></trkpt><trkpt lat="44.9008751" lon="9.7674479"><ele>128.0</ele><time>2026-04-26T06:41:12.64Z</time></trkpt><trkpt lat="44.9007945" lon="9.7674034"><ele>128.0</ele><time>2026-04-26T06:41:14.636Z</time></trkpt><trkpt lat="44.900715" lon="9.7673681"><ele>127.99999999999999</ele><time>2026-04-26T06:41:16.629Z</time></trkpt><trkpt lat="44.9006333" lon="9.7673205"><ele>128.0</ele><time>2026-04-26T06:41:18.628Z</time></trkpt><trkpt lat="44.900552" lon="9.7672759"><ele>128.4</ele><time>2026-04-26T06:41:20.628Z</time></trkpt><trkpt lat="44.9004644" lon="9.7672362"><ele>128.8</ele><time>2026-04-26T06:41:22.634Z</time></trkpt><trkpt lat="44.9003838" lon="9.7671847"><ele>129.2</ele><time>2026-04-26T06:41:24.634Z</time></trkpt><trkpt lat="44.9003008" lon="9.7671464"><ele>129.6</ele><time>2026-04-26T06:41:26.637Z</time></trkpt><trkpt lat="44.9002142" lon="9.767102"><ele>130.0</ele><time>2026-04-26T06:41:28.639Z</time></trkpt><trkpt lat="44.9001221" lon="9.7670635"><ele>130.0</ele><time>2026-04-26T06:41:30.633Z</time></trkpt><trkpt lat="44.9000478" lon="9.7670097"><ele>130.0</ele><time>2026-04-26T06:41:32.64Z</time></trkpt><trkpt lat="44.899957" lon="9.7669714"><ele>130.0</ele><time>2026-04-26T06:41:34.638Z</time></trkpt><trkpt lat="44.8998614" lon="9.7669271"><ele>130.0</ele><time>2026-04-26T06:41:36.621Z</time></trkpt><trkpt lat="44.899771" lon="9.7668833"><ele>130.0</ele><time>2026-04-26T06:41:38.626Z</time></trkpt><trkpt lat="44.8996839" lon="9.7668319"><ele>130.2</ele><time>2026-04-26T06:41:40.633Z</time></trkpt><trkpt lat="44.8995981" lon="9.766793"><ele>130.4</ele><time>2026-04-26T06:41:42.631Z</time></trkpt><trkpt lat="44.8995077" lon="9.7667524"><ele>130.6</ele><time>2026-04-26T06:41:44.644Z</time></trkpt><trkpt lat="44.8994237" lon="9.7667041"><ele>130.8</ele><time>2026-04-26T06:41:46.633Z</time></trkpt><trkpt lat="44.8993383" lon="9.7666557"><ele>131.0</ele><time>2026-04-26T06:41:48.64Z</time></trkpt><trkpt lat="44.8992558" lon="9.7666054"><ele>131.4</ele><time>2026-04-26T06:41:50.644Z</time></trkpt><trkpt lat="44.8991677" lon="9.7665696"><ele>131.8</ele><time>2026-04-26T06:41:52.632Z</time></trkpt><trkpt lat="44.899084" lon="9.766524"><ele>132.20000000000002</ele><time>2026-04-26T06:41:54.631Z</time></trkpt><trkpt lat="44.8989973" lon="9.7664854"><ele>132.6</ele><time>2026-04-26T06:41:56.646Z</time></trkpt><trkpt lat="44.8989118" lon="9.7664414"><ele>133.0</ele><time>2026-04-26T06:41:58.631Z</time></trkpt><trkpt lat="44.8988256" lon="9.7663953"><ele>133.0</ele><time>2026-04-26T06:42:00.64Z</time></trkpt><trkpt lat="44.8987355" lon="9.7663496"><ele>133.0</ele><time>2026-04-26T06:42:02.636Z</time></trkpt><trkpt lat="44.8986539" lon="9.7663093"><ele>133.0</ele><time>2026-04-26T06:42:04.632Z</time></trkpt><trkpt lat="44.8985736" lon="9.7662655"><ele>133.0</ele><time>2026-04-26T06:42:06.631Z</time></trkpt><trkpt lat="44.8984919" lon="9.7662272"><ele>133.0</ele><time>2026-04-26T06:42:08.626Z</time></trkpt><trkpt lat="44.8984149" lon="9.7661813"><ele>133.0</ele><time>2026-04-26T06:42:10.616Z</time></trkpt><trkpt lat="44.8983266" lon="9.7661348"><ele>133.0</ele><time>2026-04-26T06:42:12.643Z</time></trkpt><trkpt lat="44.8982441" lon="9.7660935"><ele>133.0</ele><time>2026-04-26T06:42:14.633Z</time></trkpt><trkpt lat="44.8981561" lon="9.7660593"><ele>133.0</ele><time>2026-04-26T06:42:16.626Z</time></trkpt><trkpt lat="44.8980697" lon="9.7660154"><ele>133.0</ele><time>2026-04-26T06:42:18.639Z</time></trkpt><trkpt lat="44.8979866" lon="9.7659761"><ele>133.0</ele><time>2026-04-26T06:42:20.633Z</time></trkpt><trkpt lat="44.8979001" lon="9.7659355"><ele>133.0</ele><time>2026-04-26T06:42:22.625Z</time></trkpt><trkpt lat="44.8978069" lon="9.7659055"><ele>133.0</ele><time>2026-04-26T06:42:24.645Z</time></trkpt><trkpt lat="44.8977186" lon="9.7658675"><ele>133.0</ele><time>2026-04-26T06:42:26.636Z</time></trkpt><trkpt lat="44.897628" lon="9.7658283"><ele>133.0</ele><time>2026-04-26T06:42:28.632Z</time></trkpt><trkpt lat="44.8975432" lon="9.7657928"><ele>133.0</ele><time>2026-04-26T06:42:30.628Z</time></trkpt><trkpt lat="44.8974604" lon="9.7657597"><ele>133.0</ele><time>2026-04-26T06:42:32.639Z</time></trkpt><trkpt lat="44.8973753" lon="9.7657272"><ele>133.20000000000002</ele><time>2026-04-26T06:42:34.646Z</time></trkpt><trkpt lat="44.8972867" lon="9.7656989"><ele>133.4</ele><time>2026-04-26T06:42:36.642Z</time></trkpt><trkpt lat="44.8971956" lon="9.7656665"><ele>133.60000000000002</ele><time>2026-04-26T06:42:38.604Z</time></trkpt><trkpt lat="44.8971097" lon="9.7656338"><ele>133.8</ele><time>2026-04-26T06:42:40.642Z</time></trkpt><trkpt lat="44.8970216" lon="9.7656035"><ele>134.0</ele><time>2026-04-26T06:42:42.636Z</time></trkpt><trkpt lat="44.8969355" lon="9.7655813"><ele>134.0</ele><time>2026-04-26T06:42:44.632Z</time></trkpt><trkpt lat="44.8968438" lon="9.7655541"><ele>134.0</ele><time>2026-04-26T06:42:46.634Z</time></trkpt><trkpt lat="44.896753" lon="9.7655186"><ele>134.0</ele><time>2026-04-26T06:42:48.638Z</time></trkpt><trkpt lat="44.8966592" lon="9.7654945"><ele>134.0</ele><time>2026-04-26T06:42:50.654Z</time></trkpt><trkpt lat="44.8965685" lon="9.7654686"><ele>134.0</ele><time>2026-04-26T06:42:52.638Z</time></trkpt><trkpt lat="44.8964766" lon="9.76544"><ele>133.8</ele><time>2026-04-26T06:42:54.637Z</time></trkpt><trkpt lat="44.8963821" lon="9.7654058"><ele>133.60000000000002</ele><time>2026-04-26T06:42:56.618Z</time></trkpt><trkpt lat="44.8962849" lon="9.7653855"><ele>133.4</ele><time>2026-04-26T06:42:58.636Z</time></trkpt><trkpt lat="44.8961955" lon="9.7653592"><ele>133.20000000000002</ele><time>2026-04-26T06:43:00.634Z</time></trkpt><trkpt lat="44.8961084" lon="9.7653393"><ele>133.0</ele><time>2026-04-26T06:43:02.634Z</time></trkpt><trkpt lat="44.8960162" lon="9.7653189"><ele>133.0</ele><time>2026-04-26T06:43:04.636Z</time></trkpt><trkpt lat="44.8959232" lon="9.7652898"><ele>133.0</ele><time>2026-04-26T06:43:06.641Z</time></trkpt><trkpt lat="44.8958279" lon="9.7652605"><ele>133.0</ele><time>2026-04-26T06:43:08.61Z</time></trkpt><trkpt lat="44.8957322" lon="9.7652413"><ele>133.0</ele><time>2026-04-26T06:43:10.633Z</time></trkpt><trkpt lat="44.8956371" lon="9.7652199"><ele>133.0</ele><time>2026-04-26T06:43:12.642Z</time></trkpt><trkpt lat="44.8955441" lon="9.7651974"><ele>134.0</ele><time>2026-04-26T06:43:14.644Z</time></trkpt><trkpt lat="44.8954476" lon="9.7651842"><ele>135.0</ele><time>2026-04-26T06:43:16.633Z</time></trkpt><trkpt lat="44.8953555" lon="9.7651672"><ele>136.0</ele><time>2026-04-26T06:43:18.635Z</time></trkpt><trkpt lat="44.8952622" lon="9.7651461"><ele>137.0</ele><time>2026-04-26T06:43:20.647Z</time></trkpt><trkpt lat="44.89517" lon="9.7651308"><ele>138.0</ele><time>2026-04-26T06:43:22.633Z</time></trkpt><trkpt lat="44.8950757" lon="9.7651116"><ele>138.20000000000002</ele><time>2026-04-26T06:43:24.633Z</time></trkpt><trkpt lat="44.894982" lon="9.7650908"><ele>138.4</ele><time>2026-04-26T06:43:26.634Z</time></trkpt><trkpt lat="44.8948889" lon="9.7650746"><ele>138.60000000000002</ele><time>2026-04-26T06:43:28.641Z</time></trkpt><trkpt lat="44.894793" lon="9.7650534"><ele>138.8</ele><time>2026-04-26T06:43:30.637Z</time></trkpt><trkpt lat="44.8946945" lon="9.7650326"><ele>139.0</ele><time>2026-04-26T06:43:32.637Z</time></trkpt><trkpt lat="44.8946052" lon="9.7650152"><ele>139.0</ele><time>2026-04-26T06:43:34.64Z</time></trkpt><trkpt lat="44.8945106" lon="9.7649985"><ele>139.0</ele><time>2026-04-26T06:43:36.636Z</time></trkpt><trkpt lat="44.8944119" lon="9.7649843"><ele>139.0</ele><time>2026-04-26T06:43:38.642Z</time></trkpt><trkpt lat="44.8943215" lon="9.7649646"><ele>139.0</ele><time>2026-04-26T06:43:40.63Z</time></trkpt><trkpt lat="44.8942262" lon="9.7649413"><ele>139.0</ele><time>2026-04-26T06:43:42.634Z</time></trkpt><trkpt lat="44.8941366" lon="9.7649327"><ele>138.6</ele><time>2026-04-26T06:43:44.644Z</time></trkpt><trkpt lat="44.8940497" lon="9.7649116"><ele>138.2</ele><time>2026-04-26T06:43:46.645Z</time></trkpt><trkpt lat="44.8939557" lon="9.7648924"><ele>137.79999999999998</ele><time>2026-04-26T06:43:48.637Z</time></trkpt><trkpt lat="44.8938676" lon="9.7648729"><ele>137.4</ele><time>2026-04-26T06:43:50.626Z</time></trkpt><trkpt lat="44.8937777" lon="9.7648562"><ele>137.0</ele><time>2026-04-26T06:43:52.635Z</time></trkpt><trkpt lat="44.8936876" lon="9.7648253"><ele>137.0</ele><time>2026-04-26T06:43:54.627Z</time></trkpt><trkpt lat="44.8935995" lon="9.7648056"><ele>137.0</ele><time>2026-04-26T06:43:56.622Z</time></trkpt><trkpt lat="44.8935083" lon="9.7647847"><ele>137.0</ele><time>2026-04-26T06:43:58.642Z</time></trkpt><trkpt lat="44.8934179" lon="9.7647671"><ele>137.0</ele><time>2026-04-26T06:44:00.638Z</time></trkpt><trkpt lat="44.8933297" lon="9.7647448"><ele>137.0</ele><time>2026-04-26T06:44:02.643Z</time></trkpt><trkpt lat="44.8932369" lon="9.7647175"><ele>137.6</ele><time>2026-04-26T06:44:04.633Z</time></trkpt><trkpt lat="44.8931417" lon="9.7646888"><ele>138.2</ele><time>2026-04-26T06:44:06.641Z</time></trkpt><trkpt lat="44.8930503" lon="9.7646657"><ele>138.8</ele><time>2026-04-26T06:44:08.648Z</time></trkpt><trkpt lat="44.8929615" lon="9.7646422"><ele>139.4</ele><time>2026-04-26T06:44:10.639Z</time></trkpt><trkpt lat="44.8928692" lon="9.7646107"><ele>140.0</ele><time>2026-04-26T06:44:12.641Z</time></trkpt><trkpt lat="44.8927776" lon="9.7645883"><ele>140.0</ele><time>2026-04-26T06:44:14.635Z</time></trkpt><trkpt lat="44.8926916" lon="9.7645595"><ele>140.0</ele><time>2026-04-26T06:44:16.64Z</time></trkpt><trkpt lat="44.8925934" lon="9.7645321"><ele>140.0</ele><time>2026-04-26T06:44:18.629Z</time></trkpt><trkpt lat="44.8925012" lon="9.7645046"><ele>140.0</ele><time>2026-04-26T06:44:20.641Z</time></trkpt><trkpt lat="44.8924073" lon="9.7644787"><ele>140.0</ele><time>2026-04-26T06:44:22.637Z</time></trkpt><trkpt lat="44.8923101" lon="9.764452"><ele>140.0</ele><time>2026-04-26T06:44:24.647Z</time></trkpt><trkpt lat="44.8922167" lon="9.7644173"><ele>140.0</ele><time>2026-04-26T06:44:26.628Z</time></trkpt><trkpt lat="44.8921252" lon="9.7643922"><ele>140.0</ele><time>2026-04-26T06:44:28.646Z</time></trkpt><trkpt lat="44.8920296" lon="9.7643653"><ele>140.0</ele><time>2026-04-26T06:44:30.637Z</time></trkpt><trkpt lat="44.8919431" lon="9.7643331"><ele>140.0</ele><time>2026-04-26T06:44:32.609Z</time></trkpt><trkpt lat="44.8918509" lon="9.7642995"><ele>140.0</ele><time>2026-04-26T06:44:34.635Z</time></trkpt><trkpt lat="44.8917602" lon="9.7642697"><ele>140.0</ele><time>2026-04-26T06:44:36.64Z</time></trkpt><trkpt lat="44.8916752" lon="9.7642461"><ele>140.0</ele><time>2026-04-26T06:44:38.638Z</time></trkpt><trkpt lat="44.891586" lon="9.7642137"><ele>140.0</ele><time>2026-04-26T06:44:40.643Z</time></trkpt><trkpt lat="44.8914941" lon="9.7641835"><ele>140.0</ele><time>2026-04-26T06:44:42.648Z</time></trkpt><trkpt lat="44.8914094" lon="9.7641585"><ele>139.8</ele><time>2026-04-26T06:44:44.638Z</time></trkpt><trkpt lat="44.8913193" lon="9.7641366"><ele>139.6</ele><time>2026-04-26T06:44:46.641Z</time></trkpt><trkpt lat="44.8912237" lon="9.7641073"><ele>139.4</ele><time>2026-04-26T06:44:48.636Z</time></trkpt><trkpt lat="44.8911325" lon="9.7640787"><ele>139.2</ele><time>2026-04-26T06:44:50.639Z</time></trkpt><trkpt lat="44.8910413" lon="9.7640502"><ele>139.0</ele><time>2026-04-26T06:44:52.64Z</time></trkpt><trkpt lat="44.8909444" lon="9.7640232"><ele>139.8</ele><time>2026-04-26T06:44:54.623Z</time></trkpt><trkpt lat="44.8908527" lon="9.7639934"><ele>140.60000000000002</ele><time>2026-04-26T06:44:56.64Z</time></trkpt><trkpt lat="44.8907625" lon="9.7639677"><ele>141.4</ele><time>2026-04-26T06:44:58.629Z</time></trkpt><trkpt lat="44.8906686" lon="9.7639409"><ele>142.20000000000002</ele><time>2026-04-26T06:45:00.635Z</time></trkpt><trkpt lat="44.8905815" lon="9.7639144"><ele>143.0</ele><time>2026-04-26T06:45:02.635Z</time></trkpt><trkpt lat="44.8904885" lon="9.7638882"><ele>143.0</ele><time>2026-04-26T06:45:04.637Z</time></trkpt><trkpt lat="44.8903976" lon="9.7638489"><ele>143.0</ele><time>2026-04-26T06:45:06.633Z</time></trkpt><trkpt lat="44.890308" lon="9.7638125"><ele>143.0</ele><time>2026-04-26T06:45:08.633Z</time></trkpt><trkpt lat="44.8902105" lon="9.7637818"><ele>143.0</ele><time>2026-04-26T06:45:10.642Z</time></trkpt><trkpt lat="44.8901149" lon="9.7637555"><ele>143.0</ele><time>2026-04-26T06:45:12.638Z</time></trkpt><trkpt lat="44.8900201" lon="9.7637275"><ele>143.0</ele><time>2026-04-26T06:45:14.616Z</time></trkpt><trkpt lat="44.8899252" lon="9.7637"><ele>143.0</ele><time>2026-04-26T06:45:16.634Z</time></trkpt><trkpt lat="44.8898366" lon="9.7636755"><ele>143.0</ele><time>2026-04-26T06:45:18.618Z</time></trkpt><trkpt lat="44.8897424" lon="9.7636493"><ele>143.0</ele><time>2026-04-26T06:45:20.635Z</time></trkpt><trkpt lat="44.8896481" lon="9.7636146"><ele>143.0</ele><time>2026-04-26T06:45:22.641Z</time></trkpt><trkpt lat="44.889557" lon="9.763586"><ele>143.0</ele><time>2026-04-26T06:45:24.628Z</time></trkpt><trkpt lat="44.8894646" lon="9.7635611"><ele>143.0</ele><time>2026-04-26T06:45:26.639Z</time></trkpt><trkpt lat="44.8893702" lon="9.7635334"><ele>143.0</ele><time>2026-04-26T06:45:28.636Z</time></trkpt><trkpt lat="44.8892852" lon="9.7635056"><ele>143.0</ele><time>2026-04-26T06:45:30.644Z</time></trkpt><trkpt lat="44.8891929" lon="9.7634737"><ele>143.0</ele><time>2026-04-26T06:45:32.641Z</time></trkpt><trkpt lat="44.8890977" lon="9.763443"><ele>143.20000000000002</ele><time>2026-04-26T06:45:34.653Z</time></trkpt><trkpt lat="44.8890063" lon="9.763415"><ele>143.4</ele><time>2026-04-26T06:45:36.638Z</time></trkpt><trkpt lat="44.8889151" lon="9.763395"><ele>143.60000000000002</ele><time>2026-04-26T06:45:38.631Z</time></trkpt><trkpt lat="44.8888194" lon="9.763367"><ele>143.8</ele><time>2026-04-26T06:45:40.633Z</time></trkpt><trkpt lat="44.8887279" lon="9.7633402"><ele>144.0</ele><time>2026-04-26T06:45:42.628Z</time></trkpt><trkpt lat="44.8886438" lon="9.763308"><ele>144.0</ele><time>2026-04-26T06:45:44.64Z</time></trkpt><trkpt lat="44.8885551" lon="9.7632748"><ele>144.0</ele><time>2026-04-26T06:45:46.63Z</time></trkpt><trkpt lat="44.888464" lon="9.7632514"><ele>144.0</ele><time>2026-04-26T06:45:48.64Z</time></trkpt><trkpt lat="44.888367" lon="9.7632155"><ele>144.0</ele><time>2026-04-26T06:45:50.637Z</time></trkpt><trkpt lat="44.8882788" lon="9.7631936"><ele>144.0</ele><time>2026-04-26T06:45:52.649Z</time></trkpt><trkpt lat="44.8881878" lon="9.7631692"><ele>144.4</ele><time>2026-04-26T06:45:54.64Z</time></trkpt><trkpt lat="44.8881033" lon="9.7631349"><ele>144.8</ele><time>2026-04-26T06:45:56.635Z</time></trkpt><trkpt lat="44.888014" lon="9.7631015"><ele>145.2</ele><time>2026-04-26T06:45:58.645Z</time></trkpt><trkpt lat="44.887925" lon="9.7630738"><ele>145.6</ele><time>2026-04-26T06:46:00.647Z</time></trkpt><trkpt lat="44.8878383" lon="9.7630479"><ele>146.0</ele><time>2026-04-26T06:46:02.599Z</time></trkpt><trkpt lat="44.8877493" lon="9.7630194"><ele>146.0</ele><time>2026-04-26T06:46:04.624Z</time></trkpt><trkpt lat="44.8876585" lon="9.7629957"><ele>146.0</ele><time>2026-04-26T06:46:06.638Z</time></trkpt><trkpt lat="44.8875738" lon="9.7629749"><ele>146.0</ele><time>2026-04-26T06:46:08.63Z</time></trkpt><trkpt lat="44.8874924" lon="9.7629495"><ele>146.0</ele><time>2026-04-26T06:46:10.617Z</time></trkpt><trkpt lat="44.8874016" lon="9.76292"><ele>146.0</ele><time>2026-04-26T06:46:12.633Z</time></trkpt><trkpt lat="44.8873113" lon="9.7628853"><ele>146.0</ele><time>2026-04-26T06:46:14.637Z</time></trkpt><trkpt lat="44.887224" lon="9.7628558"><ele>146.6</ele><time>2026-04-26T06:46:16.647Z</time></trkpt><trkpt lat="44.8871318" lon="9.7628335"><ele>147.2</ele><time>2026-04-26T06:46:18.642Z</time></trkpt><trkpt lat="44.887044" lon="9.7628055"><ele>147.8</ele><time>2026-04-26T06:46:20.639Z</time></trkpt><trkpt lat="44.8869539" lon="9.7627827"><ele>148.4</ele><time>2026-04-26T06:46:22.64Z</time></trkpt><trkpt lat="44.8868727" lon="9.7627514"><ele>149.0</ele><time>2026-04-26T06:46:24.637Z</time></trkpt><trkpt lat="44.8867841" lon="9.7627178"><ele>148.83333333333331</ele><time>2026-04-26T06:46:26.635Z</time></trkpt><trkpt lat="44.8866994" lon="9.762691"><ele>148.66666666666666</ele><time>2026-04-26T06:46:28.63Z</time></trkpt><trkpt lat="44.8866119" lon="9.7626687"><ele>148.5</ele><time>2026-04-26T06:46:30.633Z</time></trkpt><trkpt lat="44.8865299" lon="9.7626507"><ele>148.33333333333334</ele><time>2026-04-26T06:46:32.637Z</time></trkpt><trkpt lat="44.8864426" lon="9.7626147"><ele>148.16666666666669</ele><time>2026-04-26T06:46:34.639Z</time></trkpt><trkpt lat="44.8863551" lon="9.7625945"><ele>148.0</ele><time>2026-04-26T06:46:36.633Z</time></trkpt><trkpt lat="44.886267" lon="9.7625693"><ele>148.0</ele><time>2026-04-26T06:46:38.628Z</time></trkpt><trkpt lat="44.8861744" lon="9.7625477"><ele>148.0</ele><time>2026-04-26T06:46:40.648Z</time></trkpt><trkpt lat="44.8860893" lon="9.7625123"><ele>148.0</ele><time>2026-04-26T06:46:42.64Z</time></trkpt><trkpt lat="44.886004" lon="9.762485"><ele>148.0</ele><time>2026-04-26T06:46:44.621Z</time></trkpt><trkpt lat="44.8859087" lon="9.7624533"><ele>148.0</ele><time>2026-04-26T06:46:46.617Z</time></trkpt><trkpt lat="44.8858246" lon="9.76242"><ele>148.4</ele><time>2026-04-26T06:46:48.635Z</time></trkpt><trkpt lat="44.885739" lon="9.7624053"><ele>148.8</ele><time>2026-04-26T06:46:50.629Z</time></trkpt><trkpt lat="44.8856522" lon="9.762366"><ele>149.2</ele><time>2026-04-26T06:46:52.617Z</time></trkpt><trkpt lat="44.8855602" lon="9.762332"><ele>149.6</ele><time>2026-04-26T06:46:54.636Z</time></trkpt><trkpt lat="44.8854754" lon="9.7623044"><ele>150.0</ele><time>2026-04-26T06:46:56.636Z</time></trkpt><trkpt lat="44.8853857" lon="9.7622854"><ele>150.0</ele><time>2026-04-26T06:46:58.641Z</time></trkpt><trkpt lat="44.8852991" lon="9.7622709"><ele>150.0</ele><time>2026-04-26T06:47:00.634Z</time></trkpt><trkpt lat="44.8852094" lon="9.762258"><ele>150.0</ele><time>2026-04-26T06:47:02.624Z</time></trkpt><trkpt lat="44.8851269" lon="9.7622104"><ele>150.0</ele><time>2026-04-26T06:47:04.642Z</time></trkpt><trkpt lat="44.8850533" lon="9.7621435"><ele>150.0</ele><time>2026-04-26T06:47:06.628Z</time></trkpt><trkpt lat="44.8849803" lon="9.7620822"><ele>150.0</ele><time>2026-04-26T06:47:08.633Z</time></trkpt><trkpt lat="44.8849065" lon="9.7620351"><ele>150.33333333333334</ele><time>2026-04-26T06:47:10.644Z</time></trkpt><trkpt lat="44.8848367" lon="9.7619851"><ele>150.66666666666666</ele><time>2026-04-26T06:47:12.634Z</time></trkpt><trkpt lat="44.8847568" lon="9.761945"><ele>151.0</ele><time>2026-04-26T06:47:14.633Z</time></trkpt><trkpt lat="44.8846816" lon="9.7618881"><ele>151.33333333333331</ele><time>2026-04-26T06:47:16.613Z</time></trkpt><trkpt lat="44.8846178" lon="9.7618373"><ele>151.66666666666666</ele><time>2026-04-26T06:47:18.636Z</time></trkpt><trkpt lat="44.8845539" lon="9.7617911"><ele>152.0</ele><time>2026-04-26T06:47:20.63Z</time></trkpt><trkpt lat="44.8844856" lon="9.7617392"><ele>152.33333333333331</ele><time>2026-04-26T06:47:22.624Z</time></trkpt><trkpt lat="44.8844171" lon="9.7617008"><ele>152.66666666666666</ele><time>2026-04-26T06:47:24.651Z</time></trkpt><trkpt lat="44.8843528" lon="9.7616658"><ele>153.0</ele><time>2026-04-26T06:47:26.633Z</time></trkpt><trkpt lat="44.8842894" lon="9.7616292"><ele>153.33333333333334</ele><time>2026-04-26T06:47:28.638Z</time></trkpt><trkpt lat="44.8842276" lon="9.7615944"><ele>153.66666666666669</ele><time>2026-04-26T06:47:30.635Z</time></trkpt><trkpt lat="44.8841484" lon="9.7615314"><ele>154.0</ele><time>2026-04-26T06:47:33.636Z</time></trkpt><trkpt lat="44.884065" lon="9.7614777"><ele>154.83333333333334</ele><time>2026-04-26T06:47:36.635Z</time></trkpt><trkpt lat="44.8839976" lon="9.7614212"><ele>155.66666666666669</ele><time>2026-04-26T06:47:39.63Z</time></trkpt><trkpt lat="44.8839195" lon="9.7613623"><ele>156.5</ele><time>2026-04-26T06:47:42.631Z</time></trkpt><trkpt lat="44.8838565" lon="9.7613151"><ele>157.33333333333334</ele><time>2026-04-26T06:47:44.645Z</time></trkpt><trkpt lat="44.8837667" lon="9.7612623"><ele>158.16666666666666</ele><time>2026-04-26T06:47:47.634Z</time></trkpt><trkpt lat="44.8837016" lon="9.7612183"><ele>159.0</ele><time>2026-04-26T06:47:49.642Z</time></trkpt><trkpt lat="44.8836333" lon="9.7611763"><ele>159.0</ele><time>2026-04-26T06:47:51.64Z</time></trkpt><trkpt lat="44.8835607" lon="9.7611378"><ele>159.0</ele><time>2026-04-26T06:47:53.628Z</time></trkpt><trkpt lat="44.8834993" lon="9.761102"><ele>159.0</ele><time>2026-04-26T06:47:55.629Z</time></trkpt><trkpt lat="44.8834103" lon="9.7610482"><ele>159.0</ele><time>2026-04-26T06:47:58.634Z</time></trkpt><trkpt lat="44.8833507" lon="9.7610144"><ele>159.0</ele><time>2026-04-26T06:48:00.63Z</time></trkpt><trkpt lat="44.8832667" lon="9.7609588"><ele>159.0</ele><time>2026-04-26T06:48:03.635Z</time></trkpt><trkpt lat="44.8832055" lon="9.7609165"><ele>159.5</ele><time>2026-04-26T06:48:05.631Z</time></trkpt><trkpt lat="44.8831375" lon="9.7608657"><ele>160.0</ele><time>2026-04-26T06:48:07.617Z</time></trkpt><trkpt lat="44.883069" lon="9.7608175"><ele>160.5</ele><time>2026-04-26T06:48:09.61Z</time></trkpt><trkpt lat="44.8829861" lon="9.7607545"><ele>161.0</ele><time>2026-04-26T06:48:12.625Z</time></trkpt><trkpt lat="44.8829397" lon="9.7606879"><ele>161.5</ele><time>2026-04-26T06:48:14.624Z</time></trkpt><trkpt lat="44.8829082" lon="9.7605897"><ele>162.0</ele><time>2026-04-26T06:48:16.646Z</time></trkpt><trkpt lat="44.8828935" lon="9.7604851"><ele>162.0</ele><time>2026-04-26T06:48:18.636Z</time></trkpt><trkpt lat="44.8828908" lon="9.7603879"><ele>162.0</ele><time>2026-04-26T06:48:20.624Z</time></trkpt><trkpt lat="44.882879" lon="9.760284"><ele>162.0</ele><time>2026-04-26T06:48:22.635Z</time></trkpt><trkpt lat="44.8828777" lon="9.7601832"><ele>162.0</ele><time>2026-04-26T06:48:24.632Z</time></trkpt><trkpt lat="44.8828779" lon="9.7600854"><ele>162.0</ele><time>2026-04-26T06:48:26.619Z</time></trkpt><trkpt lat="44.8828694" lon="9.7599799"><ele>162.0</ele><time>2026-04-26T06:48:28.635Z</time></trkpt><trkpt lat="44.8828608" lon="9.7598777"><ele>162.0</ele><time>2026-04-26T06:48:30.634Z</time></trkpt><trkpt lat="44.8828583" lon="9.7597716"><ele>161.71428571428572</ele><time>2026-04-26T06:48:32.642Z</time></trkpt><trkpt lat="44.882859" lon="9.7596654"><ele>161.42857142857142</ele><time>2026-04-26T06:48:34.63Z</time></trkpt><trkpt lat="44.8828698" lon="9.7595652"><ele>161.14285714285714</ele><time>2026-04-26T06:48:36.638Z</time></trkpt><trkpt lat="44.8828779" lon="9.7594707"><ele>160.85714285714286</ele><time>2026-04-26T06:48:38.621Z</time></trkpt><trkpt lat="44.8828851" lon="9.759365"><ele>160.57142857142858</ele><time>2026-04-26T06:48:40.629Z</time></trkpt><trkpt lat="44.8828948" lon="9.7592695"><ele>160.28571428571428</ele><time>2026-04-26T06:48:42.631Z</time></trkpt><trkpt lat="44.8829076" lon="9.7591775"><ele>160.0</ele><time>2026-04-26T06:48:44.634Z</time></trkpt><trkpt lat="44.8829183" lon="9.7590771"><ele>160.0</ele><time>2026-04-26T06:48:46.637Z</time></trkpt><trkpt lat="44.8829259" lon="9.75898"><ele>160.0</ele><time>2026-04-26T06:48:48.634Z</time></trkpt><trkpt lat="44.8829334" lon="9.7588805"><ele>160.0</ele><time>2026-04-26T06:48:50.635Z</time></trkpt><trkpt lat="44.8829402" lon="9.7587733"><ele>160.0</ele><time>2026-04-26T06:48:52.631Z</time></trkpt><trkpt lat="44.8829532" lon="9.7586702"><ele>160.0</ele><time>2026-04-26T06:48:54.626Z</time></trkpt><trkpt lat="44.8829654" lon="9.7585747"><ele>160.0</ele><time>2026-04-26T06:48:56.655Z</time></trkpt><trkpt lat="44.8829763" lon="9.7584776"><ele>160.0</ele><time>2026-04-26T06:48:58.635Z</time></trkpt><trkpt lat="44.8829891" lon="9.7583374"><ele>161.0</ele><time>2026-04-26T06:49:01.645Z</time></trkpt><trkpt lat="44.8829983" lon="9.7582487"><ele>162.0</ele><time>2026-04-26T06:49:03.63Z</time></trkpt><trkpt lat="44.88301" lon="9.7581542"><ele>163.0</ele><time>2026-04-26T06:49:05.641Z</time></trkpt><trkpt lat="44.8830248" lon="9.7580589"><ele>164.0</ele><time>2026-04-26T06:49:07.628Z</time></trkpt><trkpt lat="44.8830389" lon="9.7579646"><ele>165.0</ele><time>2026-04-26T06:49:09.635Z</time></trkpt><trkpt lat="44.8830443" lon="9.7578641"><ele>166.0</ele><time>2026-04-26T06:49:11.634Z</time></trkpt><trkpt lat="44.8830496" lon="9.7577596"><ele>167.0</ele><time>2026-04-26T06:49:13.641Z</time></trkpt><trkpt lat="44.8830556" lon="9.757645"><ele>167.2</ele><time>2026-04-26T06:49:15.636Z</time></trkpt><trkpt lat="44.8830647" lon="9.7575228"><ele>167.39999999999998</ele><time>2026-04-26T06:49:17.645Z</time></trkpt><trkpt lat="44.883077" lon="9.7574086"><ele>167.60000000000002</ele><time>2026-04-26T06:49:19.641Z</time></trkpt><trkpt lat="44.8830887" lon="9.7572782"><ele>167.8</ele><time>2026-04-26T06:49:21.638Z</time></trkpt><trkpt lat="44.8831064" lon="9.7571449"><ele>168.0</ele><time>2026-04-26T06:49:23.644Z</time></trkpt><trkpt lat="44.8831247" lon="9.7569989"><ele>168.0</ele><time>2026-04-26T06:49:25.658Z</time></trkpt><trkpt lat="44.8831464" lon="9.7568388"><ele>168.0</ele><time>2026-04-26T06:49:27.634Z</time></trkpt><trkpt lat="44.8831692" lon="9.7567517"><ele>168.0</ele><time>2026-04-26T06:49:28.641Z</time></trkpt><trkpt lat="44.8831859" lon="9.7566588"><ele>168.0</ele><time>2026-04-26T06:49:29.644Z</time></trkpt><trkpt lat="44.883202" lon="9.7565604"><ele>168.0</ele><time>2026-04-26T06:49:30.634Z</time></trkpt><trkpt lat="44.8832201" lon="9.7564644"><ele>168.0</ele><time>2026-04-26T06:49:31.638Z</time></trkpt><trkpt lat="44.8832445" lon="9.7563564"><ele>168.0</ele><time>2026-04-26T06:49:32.643Z</time></trkpt><trkpt lat="44.8832625" lon="9.7562482"><ele>168.0</ele><time>2026-04-26T06:49:33.639Z</time></trkpt><trkpt lat="44.8832775" lon="9.7561359"><ele>168.0</ele><time>2026-04-26T06:49:34.635Z</time></trkpt><trkpt lat="44.8832962" lon="9.7560201"><ele>168.0</ele><time>2026-04-26T06:49:35.624Z</time></trkpt><trkpt lat="44.8833214" lon="9.7559181"><ele>168.0</ele><time>2026-04-26T06:49:36.646Z</time></trkpt><trkpt lat="44.8833442" lon="9.7558083"><ele>168.0</ele><time>2026-04-26T06:49:37.646Z</time></trkpt><trkpt lat="44.8833675" lon="9.7557061"><ele>167.33333333333334</ele><time>2026-04-26T06:49:38.628Z</time></trkpt><trkpt lat="44.8833859" lon="9.7556086"><ele>166.66666666666666</ele><time>2026-04-26T06:49:39.638Z</time></trkpt><trkpt lat="44.8834042" lon="9.7555103"><ele>166.0</ele><time>2026-04-26T06:49:40.629Z</time></trkpt><trkpt lat="44.8834218" lon="9.7554202"><ele>165.33333333333331</ele><time>2026-04-26T06:49:41.639Z</time></trkpt><trkpt lat="44.8834367" lon="9.7553286"><ele>164.66666666666666</ele><time>2026-04-26T06:49:42.644Z</time></trkpt><trkpt lat="44.8834632" lon="9.7552473"><ele>164.0</ele><time>2026-04-26T06:49:43.63Z</time></trkpt><trkpt lat="44.8835355" lon="9.7551203"><ele>163.6</ele><time>2026-04-26T06:49:45.643Z</time></trkpt><trkpt lat="44.8836232" lon="9.7550351"><ele>163.2</ele><time>2026-04-26T06:49:47.637Z</time></trkpt><trkpt lat="44.8837264" lon="9.7549807"><ele>162.79999999999998</ele><time>2026-04-26T06:49:49.635Z</time></trkpt><trkpt lat="44.8838208" lon="9.7549218"><ele>162.39999999999998</ele><time>2026-04-26T06:49:51.637Z</time></trkpt><trkpt lat="44.883913" lon="9.7548428"><ele>162.0</ele><time>2026-04-26T06:49:53.614Z</time></trkpt><trkpt lat="44.8839859" lon="9.7547271"><ele>162.0</ele><time>2026-04-26T06:49:55.639Z</time></trkpt><trkpt lat="44.8840311" lon="9.7546021"><ele>162.0</ele><time>2026-04-26T06:49:57.637Z</time></trkpt><trkpt lat="44.8840602" lon="9.7544613"><ele>162.0</ele><time>2026-04-26T06:49:59.632Z</time></trkpt><trkpt lat="44.8840647" lon="9.7543045"><ele>162.0</ele><time>2026-04-26T06:50:01.618Z</time></trkpt><trkpt lat="44.8840623" lon="9.7541449"><ele>162.0</ele><time>2026-04-26T06:50:03.636Z</time></trkpt><trkpt lat="44.8840562" lon="9.7539887"><ele>161.8</ele><time>2026-04-26T06:50:05.642Z</time></trkpt><trkpt lat="44.8840502" lon="9.7538356"><ele>161.6</ele><time>2026-04-26T06:50:07.636Z</time></trkpt><trkpt lat="44.8840442" lon="9.7536887"><ele>161.4</ele><time>2026-04-26T06:50:09.635Z</time></trkpt><trkpt lat="44.8840422" lon="9.7535399"><ele>161.20000000000002</ele><time>2026-04-26T06:50:11.626Z</time></trkpt><trkpt lat="44.8840295" lon="9.753398"><ele>161.0</ele><time>2026-04-26T06:50:13.653Z</time></trkpt><trkpt lat="44.8840049" lon="9.7532496"><ele>161.0</ele><time>2026-04-26T06:50:15.637Z</time></trkpt><trkpt lat="44.8839806" lon="9.753099"><ele>161.0</ele><time>2026-04-26T06:50:17.64Z</time></trkpt><trkpt lat="44.8839544" lon="9.7529464"><ele>161.0</ele><time>2026-04-26T06:50:19.631Z</time></trkpt><trkpt lat="44.8839307" lon="9.7528006"><ele>161.0</ele><time>2026-04-26T06:50:21.652Z</time></trkpt><trkpt lat="44.8839032" lon="9.7526527"><ele>161.0</ele><time>2026-04-26T06:50:23.637Z</time></trkpt><trkpt lat="44.88388" lon="9.752501"><ele>160.8</ele><time>2026-04-26T06:50:25.639Z</time></trkpt><trkpt lat="44.8838554" lon="9.7523557"><ele>160.60000000000002</ele><time>2026-04-26T06:50:27.638Z</time></trkpt><trkpt lat="44.8838328" lon="9.7522132"><ele>160.4</ele><time>2026-04-26T06:50:29.631Z</time></trkpt><trkpt lat="44.8838051" lon="9.7520753"><ele>160.2</ele><time>2026-04-26T06:50:31.638Z</time></trkpt><trkpt lat="44.8837865" lon="9.7519372"><ele>160.0</ele><time>2026-04-26T06:50:33.634Z</time></trkpt><trkpt lat="44.8837687" lon="9.7517887"><ele>160.4</ele><time>2026-04-26T06:50:35.635Z</time></trkpt><trkpt lat="44.8837352" lon="9.7516405"><ele>160.8</ele><time>2026-04-26T06:50:37.641Z</time></trkpt><trkpt lat="44.8837154" lon="9.7514936"><ele>161.2</ele><time>2026-04-26T06:50:39.622Z</time></trkpt><trkpt lat="44.8836938" lon="9.7513492"><ele>161.6</ele><time>2026-04-26T06:50:41.635Z</time></trkpt><trkpt lat="44.8836724" lon="9.7512038"><ele>162.0</ele><time>2026-04-26T06:50:43.636Z</time></trkpt><trkpt lat="44.8836452" lon="9.7510586"><ele>161.8</ele><time>2026-04-26T06:50:45.635Z</time></trkpt><trkpt lat="44.8836249" lon="9.750915"><ele>161.6</ele><time>2026-04-26T06:50:47.633Z</time></trkpt><trkpt lat="44.8836033" lon="9.7507773"><ele>161.4</ele><time>2026-04-26T06:50:49.631Z</time></trkpt><trkpt lat="44.8835831" lon="9.750643"><ele>161.20000000000002</ele><time>2026-04-26T06:50:51.642Z</time></trkpt><trkpt lat="44.8835648" lon="9.7505013"><ele>161.0</ele><time>2026-04-26T06:50:53.599Z</time></trkpt><trkpt lat="44.8835356" lon="9.7503608"><ele>161.0</ele><time>2026-04-26T06:50:55.6Z</time></trkpt><trkpt lat="44.8835086" lon="9.7502142"><ele>161.0</ele><time>2026-04-26T06:50:57.608Z</time></trkpt><trkpt lat="44.88347" lon="9.7500614"><ele>161.0</ele><time>2026-04-26T06:50:59.602Z</time></trkpt><trkpt lat="44.8834254" lon="9.749905"><ele>161.0</ele><time>2026-04-26T06:51:01.604Z</time></trkpt><trkpt lat="44.8833745" lon="9.7497703"><ele>162.0</ele><time>2026-04-26T06:51:03.621Z</time></trkpt><trkpt lat="44.8833038" lon="9.7496452"><ele>163.0</ele><time>2026-04-26T06:51:05.615Z</time></trkpt><trkpt lat="44.8832383" lon="9.7495246"><ele>164.0</ele><time>2026-04-26T06:51:07.638Z</time></trkpt><trkpt lat="44.8831652" lon="9.7493932"><ele>165.0</ele><time>2026-04-26T06:51:09.634Z</time></trkpt><trkpt lat="44.8831" lon="9.7492808"><ele>166.0</ele><time>2026-04-26T06:51:11.612Z</time></trkpt><trkpt lat="44.8830234" lon="9.7491641"><ele>166.0</ele><time>2026-04-26T06:51:13.628Z</time></trkpt><trkpt lat="44.8829505" lon="9.7490474"><ele>166.0</ele><time>2026-04-26T06:51:15.631Z</time></trkpt><trkpt lat="44.8828768" lon="9.7489423"><ele>166.0</ele><time>2026-04-26T06:51:17.639Z</time></trkpt><trkpt lat="44.8828054" lon="9.7488391"><ele>166.0</ele><time>2026-04-26T06:51:19.641Z</time></trkpt><trkpt lat="44.8827367" lon="9.7487296"><ele>166.0</ele><time>2026-04-26T06:51:21.644Z</time></trkpt><trkpt lat="44.8826695" lon="9.7486214"><ele>166.0</ele><time>2026-04-26T06:51:23.632Z</time></trkpt><trkpt lat="44.8826042" lon="9.7485129"><ele>166.0</ele><time>2026-04-26T06:51:25.639Z</time></trkpt><trkpt lat="44.8825356" lon="9.7484125"><ele>166.0</ele><time>2026-04-26T06:51:27.633Z</time></trkpt><trkpt lat="44.8824613" lon="9.7483183"><ele>166.0</ele><time>2026-04-26T06:51:29.612Z</time></trkpt><trkpt lat="44.8823984" lon="9.7482183"><ele>166.0</ele><time>2026-04-26T06:51:31.64Z</time></trkpt><trkpt lat="44.8823379" lon="9.7481275"><ele>166.0</ele><time>2026-04-26T06:51:33.637Z</time></trkpt><trkpt lat="44.882267" lon="9.7480277"><ele>166.0</ele><time>2026-04-26T06:51:35.617Z</time></trkpt><trkpt lat="44.8822032" lon="9.7479288"><ele>166.0</ele><time>2026-04-26T06:51:37.637Z</time></trkpt><trkpt lat="44.8821412" lon="9.7478296"><ele>166.0</ele><time>2026-04-26T06:51:39.637Z</time></trkpt><trkpt lat="44.8820809" lon="9.7477262"><ele>166.0</ele><time>2026-04-26T06:51:41.626Z</time></trkpt><trkpt lat="44.882018" lon="9.747621"><ele>165.8</ele><time>2026-04-26T06:51:43.638Z</time></trkpt><trkpt lat="44.8819563" lon="9.7475285"><ele>165.60000000000002</ele><time>2026-04-26T06:51:45.613Z</time></trkpt><trkpt lat="44.881904" lon="9.7474343"><ele>165.4</ele><time>2026-04-26T06:51:47.621Z</time></trkpt><trkpt lat="44.8818453" lon="9.7473325"><ele>165.2</ele><time>2026-04-26T06:51:49.631Z</time></trkpt><trkpt lat="44.8817795" lon="9.7472297"><ele>165.0</ele><time>2026-04-26T06:51:51.639Z</time></trkpt><trkpt lat="44.8817176" lon="9.7471378"><ele>165.83333333333334</ele><time>2026-04-26T06:51:53.646Z</time></trkpt><trkpt lat="44.8816662" lon="9.7470549"><ele>166.66666666666666</ele><time>2026-04-26T06:51:55.624Z</time></trkpt><trkpt lat="44.8816119" lon="9.7469595"><ele>167.5</ele><time>2026-04-26T06:51:57.616Z</time></trkpt><trkpt lat="44.8815566" lon="9.7468609"><ele>168.33333333333331</ele><time>2026-04-26T06:51:59.629Z</time></trkpt><trkpt lat="44.8814982" lon="9.7467576"><ele>169.16666666666666</ele><time>2026-04-26T06:52:01.623Z</time></trkpt><trkpt lat="44.8814436" lon="9.746657"><ele>170.0</ele><time>2026-04-26T06:52:03.625Z</time></trkpt><trkpt lat="44.881396" lon="9.7465545"><ele>170.0</ele><time>2026-04-26T06:52:05.624Z</time></trkpt><trkpt lat="44.8813361" lon="9.7464555"><ele>170.0</ele><time>2026-04-26T06:52:07.626Z</time></trkpt><trkpt lat="44.8812783" lon="9.7463504"><ele>170.0</ele><time>2026-04-26T06:52:09.629Z</time></trkpt><trkpt lat="44.8812231" lon="9.7462575"><ele>170.0</ele><time>2026-04-26T06:52:11.631Z</time></trkpt><trkpt lat="44.8811615" lon="9.7461635"><ele>170.0</ele><time>2026-04-26T06:52:13.628Z</time></trkpt><trkpt lat="44.8811024" lon="9.7460641"><ele>169.5</ele><time>2026-04-26T06:52:15.634Z</time></trkpt><trkpt lat="44.8810517" lon="9.745979"><ele>169.0</ele><time>2026-04-26T06:52:17.638Z</time></trkpt><trkpt lat="44.8810002" lon="9.7458848"><ele>168.5</ele><time>2026-04-26T06:52:19.633Z</time></trkpt><trkpt lat="44.8809469" lon="9.7457895"><ele>168.0</ele><time>2026-04-26T06:52:21.631Z</time></trkpt><trkpt lat="44.8808928" lon="9.7457004"><ele>167.5</ele><time>2026-04-26T06:52:23.599Z</time></trkpt><trkpt lat="44.8808415" lon="9.7456035"><ele>167.0</ele><time>2026-04-26T06:52:25.632Z</time></trkpt><trkpt lat="44.8807844" lon="9.7455197"><ele>168.0</ele><time>2026-04-26T06:52:27.618Z</time></trkpt><trkpt lat="44.8807274" lon="9.7454294"><ele>169.0</ele><time>2026-04-26T06:52:29.625Z</time></trkpt><trkpt lat="44.8806821" lon="9.7453289"><ele>170.0</ele><time>2026-04-26T06:52:31.618Z</time></trkpt><trkpt lat="44.8806329" lon="9.7452356"><ele>171.0</ele><time>2026-04-26T06:52:33.622Z</time></trkpt><trkpt lat="44.8805775" lon="9.7451388"><ele>172.0</ele><time>2026-04-26T06:52:35.628Z</time></trkpt><trkpt lat="44.8805262" lon="9.7450401"><ele>173.0</ele><time>2026-04-26T06:52:37.622Z</time></trkpt><trkpt lat="44.880469" lon="9.744948"><ele>173.0</ele><time>2026-04-26T06:52:39.629Z</time></trkpt><trkpt lat="44.880423" lon="9.7448501"><ele>173.0</ele><time>2026-04-26T06:52:41.634Z</time></trkpt><trkpt lat="44.8804054" lon="9.7447171"><ele>173.0</ele><time>2026-04-26T06:52:43.627Z</time></trkpt><trkpt lat="44.8804357" lon="9.7445805"><ele>173.0</ele><time>2026-04-26T06:52:45.627Z</time></trkpt><trkpt lat="44.8805067" lon="9.7444674"><ele>173.0</ele><time>2026-04-26T06:52:47.63Z</time></trkpt><trkpt lat="44.8806075" lon="9.7443768"><ele>172.60000000000002</ele><time>2026-04-26T06:52:49.637Z</time></trkpt><trkpt lat="44.880705" lon="9.7442758"><ele>172.20000000000002</ele><time>2026-04-26T06:52:51.637Z</time></trkpt><trkpt lat="44.8807959" lon="9.7441659"><ele>171.8</ele><time>2026-04-26T06:52:53.638Z</time></trkpt><trkpt lat="44.8808307" lon="9.7440109"><ele>171.4</ele><time>2026-04-26T06:52:55.621Z</time></trkpt><trkpt lat="44.8808187" lon="9.7439179"><ele>171.0</ele><time>2026-04-26T06:52:56.629Z</time></trkpt><trkpt lat="44.8807725" lon="9.7437681"><ele>171.0</ele><time>2026-04-26T06:52:58.63Z</time></trkpt><trkpt lat="44.8807114" lon="9.7436399"><ele>171.0</ele><time>2026-04-26T06:53:00.633Z</time></trkpt><trkpt lat="44.8806479" lon="9.7435198"><ele>171.0</ele><time>2026-04-26T06:53:02.637Z</time></trkpt><trkpt lat="44.8805806" lon="9.7433983"><ele>171.0</ele><time>2026-04-26T06:53:04.639Z</time></trkpt><trkpt lat="44.880524" lon="9.7432892"><ele>171.0</ele><time>2026-04-26T06:53:06.626Z</time></trkpt><trkpt lat="44.8804689" lon="9.7431775"><ele>171.0</ele><time>2026-04-26T06:53:08.617Z</time></trkpt><trkpt lat="44.880417" lon="9.743059"><ele>171.0</ele><time>2026-04-26T06:53:10.637Z</time></trkpt><trkpt lat="44.8803643" lon="9.7429449"><ele>171.0</ele><time>2026-04-26T06:53:12.65Z</time></trkpt><trkpt lat="44.8803076" lon="9.7428373"><ele>171.0</ele><time>2026-04-26T06:53:14.632Z</time></trkpt><trkpt lat="44.8802535" lon="9.7427325"><ele>171.0</ele><time>2026-04-26T06:53:16.644Z</time></trkpt><trkpt lat="44.8802028" lon="9.7426191"><ele>171.0</ele><time>2026-04-26T06:53:18.658Z</time></trkpt><trkpt lat="44.8801496" lon="9.7425173"><ele>171.0</ele><time>2026-04-26T06:53:20.643Z</time></trkpt><trkpt lat="44.8801026" lon="9.7424101"><ele>171.0</ele><time>2026-04-26T06:53:22.639Z</time></trkpt><trkpt lat="44.8800592" lon="9.7423075"><ele>171.0</ele><time>2026-04-26T06:53:24.637Z</time></trkpt><trkpt lat="44.8800028" lon="9.7422098"><ele>171.0</ele><time>2026-04-26T06:53:26.629Z</time></trkpt><trkpt lat="44.8799367" lon="9.7421037"><ele>171.20000000000002</ele><time>2026-04-26T06:53:28.642Z</time></trkpt><trkpt lat="44.8798677" lon="9.741996"><ele>171.4</ele><time>2026-04-26T06:53:30.646Z</time></trkpt><trkpt lat="44.8798058" lon="9.7419003"><ele>171.6</ele><time>2026-04-26T06:53:32.636Z</time></trkpt><trkpt lat="44.8797428" lon="9.7418131"><ele>171.8</ele><time>2026-04-26T06:53:34.633Z</time></trkpt><trkpt lat="44.8796854" lon="9.741726"><ele>172.0</ele><time>2026-04-26T06:53:36.633Z</time></trkpt><trkpt lat="44.8796212" lon="9.7416261"><ele>172.0</ele><time>2026-04-26T06:53:38.64Z</time></trkpt><trkpt lat="44.8795595" lon="9.7415125"><ele>172.0</ele><time>2026-04-26T06:53:40.61Z</time></trkpt><trkpt lat="44.8795165" lon="9.7413775"><ele>172.0</ele><time>2026-04-26T06:53:42.634Z</time></trkpt><trkpt lat="44.879475" lon="9.7412532"><ele>172.0</ele><time>2026-04-26T06:53:44.648Z</time></trkpt><trkpt lat="44.8794347" lon="9.7411327"><ele>172.0</ele><time>2026-04-26T06:53:46.635Z</time></trkpt><trkpt lat="44.879388" lon="9.7410144"><ele>172.0</ele><time>2026-04-26T06:53:48.633Z</time></trkpt><trkpt lat="44.8793415" lon="9.7408978"><ele>172.0</ele><time>2026-04-26T06:53:50.635Z</time></trkpt><trkpt lat="44.8792972" lon="9.7407909"><ele>172.0</ele><time>2026-04-26T06:53:52.633Z</time></trkpt><trkpt lat="44.8792442" lon="9.7406825"><ele>172.0</ele><time>2026-04-26T06:53:54.634Z</time></trkpt><trkpt lat="44.8791963" lon="9.7405746"><ele>172.0</ele><time>2026-04-26T06:53:56.642Z</time></trkpt><trkpt lat="44.8791454" lon="9.7404633"><ele>172.2</ele><time>2026-04-26T06:53:58.604Z</time></trkpt><trkpt lat="44.8791001" lon="9.7403544"><ele>172.39999999999998</ele><time>2026-04-26T06:54:00.633Z</time></trkpt><trkpt lat="44.8790504" lon="9.7402406"><ele>172.60000000000002</ele><time>2026-04-26T06:54:02.614Z</time></trkpt><trkpt lat="44.8789985" lon="9.7401316"><ele>172.8</ele><time>2026-04-26T06:54:04.635Z</time></trkpt><trkpt lat="44.8789479" lon="9.7400215"><ele>173.0</ele><time>2026-04-26T06:54:06.636Z</time></trkpt><trkpt lat="44.8788988" lon="9.7399188"><ele>173.0</ele><time>2026-04-26T06:54:08.6Z</time></trkpt><trkpt lat="44.8788519" lon="9.7398117"><ele>173.0</ele><time>2026-04-26T06:54:10.628Z</time></trkpt><trkpt lat="44.8787931" lon="9.7397105"><ele>173.0</ele><time>2026-04-26T06:54:12.63Z</time></trkpt><trkpt lat="44.8787224" lon="9.7396258"><ele>173.0</ele><time>2026-04-26T06:54:14.637Z</time></trkpt><trkpt lat="44.8786431" lon="9.739593"><ele>173.0</ele><time>2026-04-26T06:54:16.63Z</time></trkpt><trkpt lat="44.8785673" lon="9.7395881"><ele>173.0</ele><time>2026-04-26T06:54:18.635Z</time></trkpt><trkpt lat="44.8784869" lon="9.7396214"><ele>174.16666666666666</ele><time>2026-04-26T06:54:20.627Z</time></trkpt><trkpt lat="44.8784086" lon="9.7396748"><ele>175.33333333333331</ele><time>2026-04-26T06:54:22.631Z</time></trkpt><trkpt lat="44.8783363" lon="9.7397277"><ele>176.5</ele><time>2026-04-26T06:54:24.635Z</time></trkpt><trkpt lat="44.8782669" lon="9.7397862"><ele>177.66666666666666</ele><time>2026-04-26T06:54:26.629Z</time></trkpt><trkpt lat="44.8782022" lon="9.7398396"><ele>178.83333333333334</ele><time>2026-04-26T06:54:28.627Z</time></trkpt><trkpt lat="44.8781288" lon="9.7398792"><ele>180.0</ele><time>2026-04-26T06:54:30.634Z</time></trkpt><trkpt lat="44.8780518" lon="9.7398998"><ele>180.0</ele><time>2026-04-26T06:54:32.637Z</time></trkpt><trkpt lat="44.8779644" lon="9.7398866"><ele>180.0</ele><time>2026-04-26T06:54:34.626Z</time></trkpt><trkpt lat="44.8778931" lon="9.7398243"><ele>180.0</ele><time>2026-04-26T06:54:36.632Z</time></trkpt><trkpt lat="44.8778382" lon="9.7397289"><ele>180.0</ele><time>2026-04-26T06:54:38.626Z</time></trkpt><trkpt lat="44.8777947" lon="9.7396229"><ele>180.0</ele><time>2026-04-26T06:54:40.633Z</time></trkpt><trkpt lat="44.8777545" lon="9.7395097"><ele>180.0</ele><time>2026-04-26T06:54:42.636Z</time></trkpt><trkpt lat="44.8777256" lon="9.7393963"><ele>180.0</ele><time>2026-04-26T06:54:44.632Z</time></trkpt><trkpt lat="44.8776923" lon="9.7392754"><ele>180.0</ele><time>2026-04-26T06:54:46.632Z</time></trkpt><trkpt lat="44.8776575" lon="9.7391569"><ele>180.0</ele><time>2026-04-26T06:54:48.62Z</time></trkpt><trkpt lat="44.8776242" lon="9.7390414"><ele>180.0</ele><time>2026-04-26T06:54:50.625Z</time></trkpt><trkpt lat="44.8775897" lon="9.7389172"><ele>180.0</ele><time>2026-04-26T06:54:52.633Z</time></trkpt><trkpt lat="44.877559" lon="9.7387916"><ele>180.0</ele><time>2026-04-26T06:54:54.633Z</time></trkpt><trkpt lat="44.8775206" lon="9.7386665"><ele>180.0</ele><time>2026-04-26T06:54:56.634Z</time></trkpt><trkpt lat="44.8774841" lon="9.738533"><ele>180.0</ele><time>2026-04-26T06:54:58.627Z</time></trkpt><trkpt lat="44.8774452" lon="9.738411"><ele>180.0</ele><time>2026-04-26T06:55:00.63Z</time></trkpt><trkpt lat="44.8774102" lon="9.7382878"><ele>180.0</ele><time>2026-04-26T06:55:02.633Z</time></trkpt><trkpt lat="44.8773723" lon="9.7381612"><ele>179.4</ele><time>2026-04-26T06:55:04.626Z</time></trkpt><trkpt lat="44.877338" lon="9.738034"><ele>178.8</ele><time>2026-04-26T06:55:06.641Z</time></trkpt><trkpt lat="44.8773002" lon="9.7379105"><ele>178.2</ele><time>2026-04-26T06:55:08.629Z</time></trkpt><trkpt lat="44.8772676" lon="9.7377956"><ele>177.6</ele><time>2026-04-26T06:55:10.634Z</time></trkpt><trkpt lat="44.8772235" lon="9.7376784"><ele>177.0</ele><time>2026-04-26T06:55:12.627Z</time></trkpt><trkpt lat="44.8771821" lon="9.7375658"><ele>177.0</ele><time>2026-04-26T06:55:14.639Z</time></trkpt><trkpt lat="44.8771343" lon="9.7374534"><ele>177.0</ele><time>2026-04-26T06:55:16.637Z</time></trkpt><trkpt lat="44.8770767" lon="9.7373373"><ele>177.0</ele><time>2026-04-26T06:55:18.63Z</time></trkpt><trkpt lat="44.8770179" lon="9.7372137"><ele>177.0</ele><time>2026-04-26T06:55:20.64Z</time></trkpt><trkpt lat="44.8769617" lon="9.7370946"><ele>177.0</ele><time>2026-04-26T06:55:22.629Z</time></trkpt><trkpt lat="44.8769056" lon="9.7369729"><ele>177.39999999999998</ele><time>2026-04-26T06:55:24.609Z</time></trkpt><trkpt lat="44.876847" lon="9.7368516"><ele>177.79999999999998</ele><time>2026-04-26T06:55:26.629Z</time></trkpt><trkpt lat="44.8767908" lon="9.7367389"><ele>178.2</ele><time>2026-04-26T06:55:28.628Z</time></trkpt><trkpt lat="44.8767377" lon="9.7366235"><ele>178.6</ele><time>2026-04-26T06:55:30.637Z</time></trkpt><trkpt lat="44.8766818" lon="9.7365185"><ele>179.0</ele><time>2026-04-26T06:55:32.629Z</time></trkpt><trkpt lat="44.8766248" lon="9.7364042"><ele>179.16666666666666</ele><time>2026-04-26T06:55:34.621Z</time></trkpt><trkpt lat="44.8765826" lon="9.7362979"><ele>179.33333333333331</ele><time>2026-04-26T06:55:36.634Z</time></trkpt><trkpt lat="44.8765398" lon="9.7361949"><ele>179.5</ele><time>2026-04-26T06:55:38.638Z</time></trkpt><trkpt lat="44.87649" lon="9.7360935"><ele>179.66666666666666</ele><time>2026-04-26T06:55:40.624Z</time></trkpt><trkpt lat="44.8764409" lon="9.7359891"><ele>179.83333333333334</ele><time>2026-04-26T06:55:42.64Z</time></trkpt><trkpt lat="44.8763829" lon="9.7358857"><ele>180.0</ele><time>2026-04-26T06:55:44.629Z</time></trkpt><trkpt lat="44.8763246" lon="9.7357729"><ele>180.0</ele><time>2026-04-26T06:55:46.633Z</time></trkpt><trkpt lat="44.8762722" lon="9.735655"><ele>180.0</ele><time>2026-04-26T06:55:48.616Z</time></trkpt><trkpt lat="44.8762161" lon="9.7355482"><ele>180.0</ele><time>2026-04-26T06:55:50.63Z</time></trkpt><trkpt lat="44.8761614" lon="9.7354407"><ele>180.0</ele><time>2026-04-26T06:55:52.635Z</time></trkpt><trkpt lat="44.8761017" lon="9.7353371"><ele>180.0</ele><time>2026-04-26T06:55:54.636Z</time></trkpt><trkpt lat="44.8760478" lon="9.735226"><ele>180.2</ele><time>2026-04-26T06:55:56.636Z</time></trkpt><trkpt lat="44.8759984" lon="9.7351256"><ele>180.4</ele><time>2026-04-26T06:55:58.658Z</time></trkpt><trkpt lat="44.8759441" lon="9.7350179"><ele>180.60000000000002</ele><time>2026-04-26T06:56:00.617Z</time></trkpt><trkpt lat="44.8758914" lon="9.7349123"><ele>180.8</ele><time>2026-04-26T06:56:02.631Z</time></trkpt><trkpt lat="44.8758337" lon="9.7348088"><ele>181.0</ele><time>2026-04-26T06:56:04.629Z</time></trkpt><trkpt lat="44.875773" lon="9.734698"><ele>181.4</ele><time>2026-04-26T06:56:06.627Z</time></trkpt><trkpt lat="44.875708" lon="9.7345812"><ele>181.8</ele><time>2026-04-26T06:56:08.633Z</time></trkpt><trkpt lat="44.875648" lon="9.734465"><ele>182.20000000000002</ele><time>2026-04-26T06:56:10.637Z</time></trkpt><trkpt lat="44.8755862" lon="9.7343471"><ele>182.60000000000002</ele><time>2026-04-26T06:56:12.642Z</time></trkpt><trkpt lat="44.8755237" lon="9.73423"><ele>183.0</ele><time>2026-04-26T06:56:14.636Z</time></trkpt><trkpt lat="44.8754616" lon="9.7341207"><ele>183.0</ele><time>2026-04-26T06:56:16.636Z</time></trkpt><trkpt lat="44.8754055" lon="9.7340047"><ele>183.0</ele><time>2026-04-26T06:56:18.637Z</time></trkpt><trkpt lat="44.8753457" lon="9.7338911"><ele>183.0</ele><time>2026-04-26T06:56:20.631Z</time></trkpt><trkpt lat="44.8752822" lon="9.7337828"><ele>183.0</ele><time>2026-04-26T06:56:22.631Z</time></trkpt><trkpt lat="44.8752224" lon="9.7336666"><ele>183.0</ele><time>2026-04-26T06:56:24.642Z</time></trkpt><trkpt lat="44.8751638" lon="9.7335519"><ele>183.2</ele><time>2026-04-26T06:56:26.625Z</time></trkpt><trkpt lat="44.8750949" lon="9.733444"><ele>183.4</ele><time>2026-04-26T06:56:28.633Z</time></trkpt><trkpt lat="44.8750387" lon="9.7333219"><ele>183.6</ele><time>2026-04-26T06:56:30.623Z</time></trkpt><trkpt lat="44.8749785" lon="9.7332072"><ele>183.79999999999998</ele><time>2026-04-26T06:56:32.64Z</time></trkpt><trkpt lat="44.8749236" lon="9.7330924"><ele>184.0</ele><time>2026-04-26T06:56:34.632Z</time></trkpt><trkpt lat="44.8748569" lon="9.7329806"><ele>184.0</ele><time>2026-04-26T06:56:36.643Z</time></trkpt><trkpt lat="44.8747959" lon="9.7328683"><ele>184.0</ele><time>2026-04-26T06:56:38.636Z</time></trkpt><trkpt lat="44.8747401" lon="9.7327582"><ele>184.0</ele><time>2026-04-26T06:56:40.62Z</time></trkpt><trkpt lat="44.8746733" lon="9.732647"><ele>184.0</ele><time>2026-04-26T06:56:42.639Z</time></trkpt><trkpt lat="44.8746144" lon="9.7325356"><ele>184.0</ele><time>2026-04-26T06:56:44.636Z</time></trkpt><trkpt lat="44.8745533" lon="9.7324334"><ele>184.0</ele><time>2026-04-26T06:56:46.648Z</time></trkpt><trkpt lat="44.8744979" lon="9.7323405"><ele>184.0</ele><time>2026-04-26T06:56:48.645Z</time></trkpt><trkpt lat="44.87444" lon="9.7322455"><ele>184.0</ele><time>2026-04-26T06:56:50.641Z</time></trkpt><trkpt lat="44.874383" lon="9.7321462"><ele>184.0</ele><time>2026-04-26T06:56:52.641Z</time></trkpt><trkpt lat="44.8743275" lon="9.7320606"><ele>184.0</ele><time>2026-04-26T06:56:54.637Z</time></trkpt><trkpt lat="44.8742621" lon="9.7319603"><ele>184.0</ele><time>2026-04-26T06:56:56.622Z</time></trkpt><trkpt lat="44.8742057" lon="9.731872"><ele>184.5</ele><time>2026-04-26T06:56:58.62Z</time></trkpt><trkpt lat="44.8741479" lon="9.7317817"><ele>185.0</ele><time>2026-04-26T06:57:00.635Z</time></trkpt><trkpt lat="44.874098" lon="9.7316824"><ele>185.5</ele><time>2026-04-26T06:57:02.627Z</time></trkpt><trkpt lat="44.8740394" lon="9.7315897"><ele>186.0</ele><time>2026-04-26T06:57:04.626Z</time></trkpt><trkpt lat="44.8739751" lon="9.7314985"><ele>186.5</ele><time>2026-04-26T06:57:06.632Z</time></trkpt><trkpt lat="44.8739214" lon="9.7314047"><ele>187.0</ele><time>2026-04-26T06:57:08.633Z</time></trkpt><trkpt lat="44.873867" lon="9.7313107"><ele>187.0</ele><time>2026-04-26T06:57:10.634Z</time></trkpt><trkpt lat="44.8738126" lon="9.7312209"><ele>187.0</ele><time>2026-04-26T06:57:12.632Z</time></trkpt><trkpt lat="44.873745" lon="9.7311357"><ele>187.0</ele><time>2026-04-26T06:57:14.634Z</time></trkpt><trkpt lat="44.8736831" lon="9.7310395"><ele>187.0</ele><time>2026-04-26T06:57:16.64Z</time></trkpt><trkpt lat="44.8736217" lon="9.7309453"><ele>187.0</ele><time>2026-04-26T06:57:18.647Z</time></trkpt><trkpt lat="44.8735556" lon="9.7308452"><ele>187.0</ele><time>2026-04-26T06:57:20.646Z</time></trkpt><trkpt lat="44.8734859" lon="9.7307397"><ele>187.0</ele><time>2026-04-26T06:57:22.634Z</time></trkpt><trkpt lat="44.8734188" lon="9.7306417"><ele>187.0</ele><time>2026-04-26T06:57:24.646Z</time></trkpt><trkpt lat="44.8733555" lon="9.7305366"><ele>187.0</ele><time>2026-04-26T06:57:26.62Z</time></trkpt><trkpt lat="44.8732957" lon="9.7304259"><ele>187.0</ele><time>2026-04-26T06:57:28.637Z</time></trkpt><trkpt lat="44.8732291" lon="9.7303252"><ele>187.6</ele><time>2026-04-26T06:57:30.632Z</time></trkpt><trkpt lat="44.8731633" lon="9.7302201"><ele>188.2</ele><time>2026-04-26T06:57:32.636Z</time></trkpt><trkpt lat="44.8731022" lon="9.7301136"><ele>188.8</ele><time>2026-04-26T06:57:34.644Z</time></trkpt><trkpt lat="44.8730313" lon="9.7300188"><ele>189.4</ele><time>2026-04-26T06:57:36.631Z</time></trkpt><trkpt lat="44.8729723" lon="9.7299196"><ele>190.0</ele><time>2026-04-26T06:57:38.65Z</time></trkpt><trkpt lat="44.872914" lon="9.7298187"><ele>190.0</ele><time>2026-04-26T06:57:40.643Z</time></trkpt><trkpt lat="44.8728589" lon="9.7297202"><ele>190.0</ele><time>2026-04-26T06:57:42.647Z</time></trkpt><trkpt lat="44.8728012" lon="9.7296198"><ele>190.0</ele><time>2026-04-26T06:57:44.613Z</time></trkpt><trkpt lat="44.8727308" lon="9.7295171"><ele>190.0</ele><time>2026-04-26T06:57:46.629Z</time></trkpt><trkpt lat="44.8726587" lon="9.7294186"><ele>190.0</ele><time>2026-04-26T06:57:48.635Z</time></trkpt><trkpt lat="44.8725883" lon="9.7293235"><ele>189.8</ele><time>2026-04-26T06:57:50.643Z</time></trkpt><trkpt lat="44.8725245" lon="9.7292312"><ele>189.6</ele><time>2026-04-26T06:57:52.642Z</time></trkpt><trkpt lat="44.8724574" lon="9.729126"><ele>189.39999999999998</ele><time>2026-04-26T06:57:54.641Z</time></trkpt><trkpt lat="44.8723903" lon="9.7290213"><ele>189.2</ele><time>2026-04-26T06:57:56.63Z</time></trkpt><trkpt lat="44.8723273" lon="9.7289277"><ele>189.0</ele><time>2026-04-26T06:57:58.637Z</time></trkpt><trkpt lat="44.8722632" lon="9.7288346"><ele>189.0</ele><time>2026-04-26T06:58:00.627Z</time></trkpt><trkpt lat="44.8722024" lon="9.7287388"><ele>189.0</ele><time>2026-04-26T06:58:02.634Z</time></trkpt><trkpt lat="44.8721445" lon="9.7286358"><ele>189.0</ele><time>2026-04-26T06:58:04.634Z</time></trkpt><trkpt lat="44.8720801" lon="9.7285425"><ele>189.0</ele><time>2026-04-26T06:58:06.605Z</time></trkpt><trkpt lat="44.872016" lon="9.7284443"><ele>189.0</ele><time>2026-04-26T06:58:08.637Z</time></trkpt><trkpt lat="44.8719577" lon="9.7283402"><ele>188.79999999999998</ele><time>2026-04-26T06:58:10.642Z</time></trkpt><trkpt lat="44.8718919" lon="9.7282411"><ele>188.6</ele><time>2026-04-26T06:58:12.639Z</time></trkpt><trkpt lat="44.871828" lon="9.7281366"><ele>188.4</ele><time>2026-04-26T06:58:14.648Z</time></trkpt><trkpt lat="44.8717627" lon="9.72805"><ele>188.2</ele><time>2026-04-26T06:58:16.642Z</time></trkpt><trkpt lat="44.8716994" lon="9.7279585"><ele>188.0</ele><time>2026-04-26T06:58:18.65Z</time></trkpt><trkpt lat="44.8716373" lon="9.7278521"><ele>188.8</ele><time>2026-04-26T06:58:20.632Z</time></trkpt><trkpt lat="44.8715747" lon="9.7277372"><ele>189.60000000000002</ele><time>2026-04-26T06:58:22.638Z</time></trkpt><trkpt lat="44.871508" lon="9.7276381"><ele>190.39999999999998</ele><time>2026-04-26T06:58:24.649Z</time></trkpt><trkpt lat="44.8714404" lon="9.7275368"><ele>191.2</ele><time>2026-04-26T06:58:26.633Z</time></trkpt><trkpt lat="44.8713799" lon="9.7274312"><ele>192.0</ele><time>2026-04-26T06:58:28.635Z</time></trkpt><trkpt lat="44.8713204" lon="9.7273313"><ele>192.0</ele><time>2026-04-26T06:58:30.633Z</time></trkpt><trkpt lat="44.8712564" lon="9.7272395"><ele>192.0</ele><time>2026-04-26T06:58:32.644Z</time></trkpt><trkpt lat="44.8711884" lon="9.7271465"><ele>192.0</ele><time>2026-04-26T06:58:34.632Z</time></trkpt><trkpt lat="44.871131" lon="9.7270504"><ele>192.0</ele><time>2026-04-26T06:58:36.62Z</time></trkpt><trkpt lat="44.8710792" lon="9.7269519"><ele>192.0</ele><time>2026-04-26T06:58:38.638Z</time></trkpt><trkpt lat="44.8710167" lon="9.7268617"><ele>192.0</ele><time>2026-04-26T06:58:40.637Z</time></trkpt><trkpt lat="44.8709642" lon="9.7267773"><ele>192.0</ele><time>2026-04-26T06:58:42.633Z</time></trkpt><trkpt lat="44.8709111" lon="9.7266888"><ele>192.0</ele><time>2026-04-26T06:58:44.64Z</time></trkpt><trkpt lat="44.8708567" lon="9.7266078"><ele>192.0</ele><time>2026-04-26T06:58:46.636Z</time></trkpt><trkpt lat="44.8708011" lon="9.7265037"><ele>192.0</ele><time>2026-04-26T06:58:48.611Z</time></trkpt><trkpt lat="44.8707474" lon="9.7264224"><ele>192.0</ele><time>2026-04-26T06:58:50.631Z</time></trkpt><trkpt lat="44.8706923" lon="9.7263384"><ele>192.33333333333334</ele><time>2026-04-26T06:58:52.633Z</time></trkpt><trkpt lat="44.8706385" lon="9.7262542"><ele>192.66666666666669</ele><time>2026-04-26T06:58:54.636Z</time></trkpt><trkpt lat="44.8705804" lon="9.7261596"><ele>193.0</ele><time>2026-04-26T06:58:56.636Z</time></trkpt><trkpt lat="44.8705242" lon="9.7260644"><ele>193.33333333333334</ele><time>2026-04-26T06:58:58.637Z</time></trkpt><trkpt lat="44.8704775" lon="9.7259616"><ele>193.66666666666669</ele><time>2026-04-26T06:59:00.631Z</time></trkpt><trkpt lat="44.8704223" lon="9.7258527"><ele>194.0</ele><time>2026-04-26T06:59:02.641Z</time></trkpt><trkpt lat="44.8703816" lon="9.7257281"><ele>194.0</ele><time>2026-04-26T06:59:04.638Z</time></trkpt><trkpt lat="44.8703428" lon="9.7256144"><ele>194.0</ele><time>2026-04-26T06:59:06.632Z</time></trkpt><trkpt lat="44.8703024" lon="9.7255028"><ele>194.0</ele><time>2026-04-26T06:59:08.646Z</time></trkpt><trkpt lat="44.8702656" lon="9.7253735"><ele>194.0</ele><time>2026-04-26T06:59:10.635Z</time></trkpt><trkpt lat="44.870227" lon="9.725248"><ele>194.0</ele><time>2026-04-26T06:59:12.64Z</time></trkpt><trkpt lat="44.8701916" lon="9.7251148"><ele>194.2</ele><time>2026-04-26T06:59:14.638Z</time></trkpt><trkpt lat="44.8701538" lon="9.724986"><ele>194.39999999999998</ele><time>2026-04-26T06:59:16.637Z</time></trkpt><trkpt lat="44.8701203" lon="9.7248619"><ele>194.6</ele><time>2026-04-26T06:59:18.633Z</time></trkpt><trkpt lat="44.8700831" lon="9.7247323"><ele>194.8</ele><time>2026-04-26T06:59:20.626Z</time></trkpt><trkpt lat="44.8700396" lon="9.7246008"><ele>195.0</ele><time>2026-04-26T06:59:22.636Z</time></trkpt><trkpt lat="44.8700028" lon="9.7244715"><ele>195.16666666666666</ele><time>2026-04-26T06:59:24.634Z</time></trkpt><trkpt lat="44.8699697" lon="9.7243531"><ele>195.33333333333331</ele><time>2026-04-26T06:59:26.644Z</time></trkpt><trkpt lat="44.8699368" lon="9.7242376"><ele>195.5</ele><time>2026-04-26T06:59:28.641Z</time></trkpt><trkpt lat="44.8699001" lon="9.7241131"><ele>195.66666666666666</ele><time>2026-04-26T06:59:30.64Z</time></trkpt><trkpt lat="44.8698675" lon="9.7239982"><ele>195.83333333333331</ele><time>2026-04-26T06:59:32.626Z</time></trkpt><trkpt lat="44.8698341" lon="9.7238954"><ele>196.0</ele><time>2026-04-26T06:59:34.632Z</time></trkpt><trkpt lat="44.8698019" lon="9.723774"><ele>195.99999999999997</ele><time>2026-04-26T06:59:36.63Z</time></trkpt><trkpt lat="44.8697666" lon="9.7236586"><ele>196.0</ele><time>2026-04-26T06:59:38.641Z</time></trkpt><trkpt lat="44.8697319" lon="9.7235528"><ele>196.0</ele><time>2026-04-26T06:59:40.641Z</time></trkpt><trkpt lat="44.8697017" lon="9.7234471"><ele>196.0</ele><time>2026-04-26T06:59:42.638Z</time></trkpt><trkpt lat="44.8696675" lon="9.7233518"><ele>195.99999999999997</ele><time>2026-04-26T06:59:44.631Z</time></trkpt><trkpt lat="44.8696377" lon="9.7232446"><ele>196.0</ele><time>2026-04-26T06:59:46.644Z</time></trkpt><trkpt lat="44.8696049" lon="9.7231415"><ele>196.33333333333331</ele><time>2026-04-26T06:59:48.629Z</time></trkpt><trkpt lat="44.8695654" lon="9.7230407"><ele>196.66666666666666</ele><time>2026-04-26T06:59:50.63Z</time></trkpt><trkpt lat="44.8695352" lon="9.7229514"><ele>197.0</ele><time>2026-04-26T06:59:52.631Z</time></trkpt><trkpt lat="44.8695073" lon="9.7228455"><ele>197.33333333333331</ele><time>2026-04-26T06:59:54.637Z</time></trkpt><trkpt lat="44.8694729" lon="9.7227493"><ele>197.66666666666666</ele><time>2026-04-26T06:59:56.64Z</time></trkpt><trkpt lat="44.8694573" lon="9.7226543"><ele>198.0</ele><time>2026-04-26T06:59:58.631Z</time></trkpt><trkpt lat="44.8694845" lon="9.7225271"><ele>198.0</ele><time>2026-04-26T07:00:01.601Z</time></trkpt><trkpt lat="44.869548" lon="9.7224663"><ele>198.0</ele><time>2026-04-26T07:00:03.627Z</time></trkpt><trkpt lat="44.869612" lon="9.7224169"><ele>198.0</ele><time>2026-04-26T07:00:05.647Z</time></trkpt><trkpt lat="44.8696723" lon="9.7223752"><ele>198.0</ele><time>2026-04-26T07:00:07.637Z</time></trkpt><trkpt lat="44.8697349" lon="9.7223365"><ele>198.0</ele><time>2026-04-26T07:00:09.648Z</time></trkpt><trkpt lat="44.8698076" lon="9.7222883"><ele>198.0</ele><time>2026-04-26T07:00:11.639Z</time></trkpt><trkpt lat="44.8698759" lon="9.7222275"><ele>198.0</ele><time>2026-04-26T07:00:13.633Z</time></trkpt><trkpt lat="44.8699416" lon="9.7221643"><ele>198.0</ele><time>2026-04-26T07:00:15.642Z</time></trkpt><trkpt lat="44.870008" lon="9.7221033"><ele>198.0</ele><time>2026-04-26T07:00:17.638Z</time></trkpt><trkpt lat="44.8700815" lon="9.7220442"><ele>198.0</ele><time>2026-04-26T07:00:19.633Z</time></trkpt><trkpt lat="44.8701621" lon="9.7219896"><ele>198.0</ele><time>2026-04-26T07:00:21.612Z</time></trkpt><trkpt lat="44.8702258" lon="9.721932"><ele>198.0</ele><time>2026-04-26T07:00:23.633Z</time></trkpt><trkpt lat="44.8702872" lon="9.7218839"><ele>198.0</ele><time>2026-04-26T07:00:25.637Z</time></trkpt><trkpt lat="44.8703474" lon="9.7218428"><ele>198.60000000000002</ele><time>2026-04-26T07:00:27.629Z</time></trkpt><trkpt lat="44.8703512" lon="9.721741"><ele>199.20000000000002</ele><time>2026-04-26T07:00:30.639Z</time></trkpt><trkpt lat="44.870265" lon="9.7216903"><ele>199.8</ele><time>2026-04-26T07:00:32.628Z</time></trkpt><trkpt lat="44.8701665" lon="9.7216275"><ele>200.4</ele><time>2026-04-26T07:00:34.636Z</time></trkpt><trkpt lat="44.8700709" lon="9.7215456"><ele>201.0</ele><time>2026-04-26T07:00:36.613Z</time></trkpt><trkpt lat="44.8699779" lon="9.7214753"><ele>201.0</ele><time>2026-04-26T07:00:38.632Z</time></trkpt><trkpt lat="44.869886" lon="9.7214032"><ele>201.0</ele><time>2026-04-26T07:00:40.635Z</time></trkpt><trkpt lat="44.8697943" lon="9.7213497"><ele>201.0</ele><time>2026-04-26T07:00:42.633Z</time></trkpt><trkpt lat="44.8697153" lon="9.7212845"><ele>201.0</ele><time>2026-04-26T07:00:44.64Z</time></trkpt><trkpt lat="44.8696305" lon="9.7212169"><ele>201.0</ele><time>2026-04-26T07:00:46.635Z</time></trkpt><trkpt lat="44.8695447" lon="9.721142"><ele>202.0</ele><time>2026-04-26T07:00:48.627Z</time></trkpt><trkpt lat="44.8694765" lon="9.7210367"><ele>203.0</ele><time>2026-04-26T07:00:50.637Z</time></trkpt><trkpt lat="44.8694367" lon="9.7209164"><ele>204.0</ele><time>2026-04-26T07:00:52.629Z</time></trkpt><trkpt lat="44.8694119" lon="9.7207969"><ele>205.0</ele><time>2026-04-26T07:00:54.638Z</time></trkpt><trkpt lat="44.869396" lon="9.7206699"><ele>206.0</ele><time>2026-04-26T07:00:56.637Z</time></trkpt><trkpt lat="44.8693754" lon="9.7205518"><ele>206.00000000000003</ele><time>2026-04-26T07:00:58.623Z</time></trkpt><trkpt lat="44.8693429" lon="9.7204352"><ele>206.0</ele><time>2026-04-26T07:01:00.636Z</time></trkpt><trkpt lat="44.8693053" lon="9.7203243"><ele>206.0</ele><time>2026-04-26T07:01:02.631Z</time></trkpt><trkpt lat="44.8692719" lon="9.7202038"><ele>206.0</ele><time>2026-04-26T07:01:04.635Z</time></trkpt><trkpt lat="44.8692385" lon="9.720085"><ele>206.00000000000003</ele><time>2026-04-26T07:01:06.632Z</time></trkpt><trkpt lat="44.8692161" lon="9.719977"><ele>206.0</ele><time>2026-04-26T07:01:08.64Z</time></trkpt><trkpt lat="44.869185" lon="9.7198678"><ele>205.33333333333334</ele><time>2026-04-26T07:01:10.617Z</time></trkpt><trkpt lat="44.8691478" lon="9.7197564"><ele>204.66666666666669</ele><time>2026-04-26T07:01:12.63Z</time></trkpt><trkpt lat="44.8691144" lon="9.7196533"><ele>204.0</ele><time>2026-04-26T07:01:14.635Z</time></trkpt><trkpt lat="44.8690831" lon="9.719548"><ele>203.33333333333331</ele><time>2026-04-26T07:01:16.624Z</time></trkpt><trkpt lat="44.8690397" lon="9.7194302"><ele>202.66666666666666</ele><time>2026-04-26T07:01:18.631Z</time></trkpt><trkpt lat="44.8690106" lon="9.7193123"><ele>202.0</ele><time>2026-04-26T07:01:20.629Z</time></trkpt><trkpt lat="44.8689747" lon="9.7192067"><ele>203.49999999999997</ele><time>2026-04-26T07:01:22.624Z</time></trkpt><trkpt lat="44.8689373" lon="9.7190976"><ele>205.0</ele><time>2026-04-26T07:01:24.629Z</time></trkpt><trkpt lat="44.8689064" lon="9.7190002"><ele>206.5</ele><time>2026-04-26T07:01:26.63Z</time></trkpt><trkpt lat="44.8688639" lon="9.7188903"><ele>208.0</ele><time>2026-04-26T07:01:28.629Z</time></trkpt><trkpt lat="44.8688182" lon="9.7187887"><ele>209.49999999999997</ele><time>2026-04-26T07:01:30.632Z</time></trkpt><trkpt lat="44.8687726" lon="9.7186925"><ele>211.0</ele><time>2026-04-26T07:01:32.627Z</time></trkpt><trkpt lat="44.8687295" lon="9.7185913"><ele>211.99999999999997</ele><time>2026-04-26T07:01:34.62Z</time></trkpt><trkpt lat="44.8686841" lon="9.7184915"><ele>213.0</ele><time>2026-04-26T07:01:36.637Z</time></trkpt><trkpt lat="44.8686404" lon="9.718397"><ele>214.0</ele><time>2026-04-26T07:01:38.629Z</time></trkpt><trkpt lat="44.8685938" lon="9.718317"><ele>215.0</ele><time>2026-04-26T07:01:40.629Z</time></trkpt><trkpt lat="44.8685433" lon="9.7182335"><ele>215.99999999999997</ele><time>2026-04-26T07:01:42.631Z</time></trkpt><trkpt lat="44.8684826" lon="9.7181497"><ele>217.0</ele><time>2026-04-26T07:01:44.628Z</time></trkpt><trkpt lat="44.8684227" lon="9.7180659"><ele>216.49999999999997</ele><time>2026-04-26T07:01:46.628Z</time></trkpt><trkpt lat="44.8683684" lon="9.717965"><ele>216.0</ele><time>2026-04-26T07:01:48.603Z</time></trkpt><trkpt lat="44.868316" lon="9.7178956"><ele>215.5</ele><time>2026-04-26T07:01:50.626Z</time></trkpt><trkpt lat="44.8682698" lon="9.7178148"><ele>215.0</ele><time>2026-04-26T07:01:52.635Z</time></trkpt><trkpt lat="44.8682201" lon="9.7177345"><ele>214.49999999999997</ele><time>2026-04-26T07:01:54.629Z</time></trkpt><trkpt lat="44.8681668" lon="9.7176554"><ele>214.0</ele><time>2026-04-26T07:01:56.63Z</time></trkpt><trkpt lat="44.8680968" lon="9.7175912"><ele>213.99999999999997</ele><time>2026-04-26T07:01:58.633Z</time></trkpt><trkpt lat="44.8680422" lon="9.7175157"><ele>214.0</ele><time>2026-04-26T07:02:00.638Z</time></trkpt><trkpt lat="44.8679905" lon="9.7174372"><ele>214.0</ele><time>2026-04-26T07:02:02.628Z</time></trkpt><trkpt lat="44.8679293" lon="9.717358"><ele>214.0</ele><time>2026-04-26T07:02:04.63Z</time></trkpt><trkpt lat="44.8678746" lon="9.7172902"><ele>213.99999999999997</ele><time>2026-04-26T07:02:06.622Z</time></trkpt><trkpt lat="44.8678205" lon="9.7172129"><ele>214.0</ele><time>2026-04-26T07:02:08.613Z</time></trkpt><trkpt lat="44.8677663" lon="9.7171376"><ele>214.00000000000003</ele><time>2026-04-26T07:02:10.629Z</time></trkpt><trkpt lat="44.8677023" lon="9.7170699"><ele>214.0</ele><time>2026-04-26T07:02:12.632Z</time></trkpt><trkpt lat="44.8676433" lon="9.7170001"><ele>214.0</ele><time>2026-04-26T07:02:14.63Z</time></trkpt><trkpt lat="44.8675844" lon="9.7169476"><ele>214.0</ele><time>2026-04-26T07:02:16.623Z</time></trkpt><trkpt lat="44.8675225" lon="9.7168852"><ele>214.0</ele><time>2026-04-26T07:02:18.627Z</time></trkpt><trkpt lat="44.8674682" lon="9.7168316"><ele>214.00000000000003</ele><time>2026-04-26T07:02:20.629Z</time></trkpt><trkpt lat="44.8674163" lon="9.7167723"><ele>214.0</ele><time>2026-04-26T07:02:22.629Z</time></trkpt><trkpt lat="44.8673444" lon="9.716697"><ele>213.66666666666666</ele><time>2026-04-26T07:02:25.635Z</time></trkpt><trkpt lat="44.8672957" lon="9.716639"><ele>213.33333333333331</ele><time>2026-04-26T07:02:27.623Z</time></trkpt><trkpt lat="44.8672264" lon="9.7165661"><ele>213.0</ele><time>2026-04-26T07:02:30.626Z</time></trkpt><trkpt lat="44.8671615" lon="9.7164756"><ele>212.66666666666669</ele><time>2026-04-26T07:02:33.618Z</time></trkpt><trkpt lat="44.8671158" lon="9.7163993"><ele>212.33333333333334</ele><time>2026-04-26T07:02:35.63Z</time></trkpt><trkpt lat="44.8670728" lon="9.7163295"><ele>212.0</ele><time>2026-04-26T07:02:37.62Z</time></trkpt><trkpt lat="44.8670357" lon="9.7162361"><ele>212.00000000000003</ele><time>2026-04-26T07:02:39.629Z</time></trkpt><trkpt lat="44.8670073" lon="9.7161342"><ele>212.0</ele><time>2026-04-26T07:02:41.627Z</time></trkpt><trkpt lat="44.8669567" lon="9.7160253"><ele>212.0</ele><time>2026-04-26T07:02:43.615Z</time></trkpt><trkpt lat="44.8669147" lon="9.7159126"><ele>212.0</ele><time>2026-04-26T07:02:45.625Z</time></trkpt><trkpt lat="44.8668795" lon="9.7157976"><ele>212.00000000000003</ele><time>2026-04-26T07:02:47.624Z</time></trkpt><trkpt lat="44.8668496" lon="9.7156897"><ele>212.0</ele><time>2026-04-26T07:02:49.627Z</time></trkpt><trkpt lat="44.866815" lon="9.7155824"><ele>211.66666666666669</ele><time>2026-04-26T07:02:51.624Z</time></trkpt><trkpt lat="44.8667873" lon="9.7154846"><ele>211.33333333333334</ele><time>2026-04-26T07:02:53.621Z</time></trkpt><trkpt lat="44.8667464" lon="9.7153781"><ele>211.0</ele><time>2026-04-26T07:02:55.614Z</time></trkpt><trkpt lat="44.8667178" lon="9.7152696"><ele>210.66666666666669</ele><time>2026-04-26T07:02:57.638Z</time></trkpt><trkpt lat="44.8666624" lon="9.7151838"><ele>210.33333333333334</ele><time>2026-04-26T07:02:59.621Z</time></trkpt><trkpt lat="44.8666138" lon="9.71509"><ele>210.0</ele><time>2026-04-26T07:03:01.63Z</time></trkpt><trkpt lat="44.866563" lon="9.7150098"><ele>211.16666666666666</ele><time>2026-04-26T07:03:03.63Z</time></trkpt><trkpt lat="44.8665124" lon="9.7149285"><ele>212.33333333333331</ele><time>2026-04-26T07:03:05.628Z</time></trkpt><trkpt lat="44.866456" lon="9.7148475"><ele>213.5</ele><time>2026-04-26T07:03:07.608Z</time></trkpt><trkpt lat="44.8664035" lon="9.7147607"><ele>214.66666666666666</ele><time>2026-04-26T07:03:09.638Z</time></trkpt><trkpt lat="44.8663531" lon="9.7146733"><ele>215.83333333333331</ele><time>2026-04-26T07:03:11.634Z</time></trkpt><trkpt lat="44.8663" lon="9.7145877"><ele>217.0</ele><time>2026-04-26T07:03:13.627Z</time></trkpt><trkpt lat="44.8662487" lon="9.7145052"><ele>217.0</ele><time>2026-04-26T07:03:15.611Z</time></trkpt><trkpt lat="44.8661916" lon="9.7144274"><ele>217.0</ele><time>2026-04-26T07:03:17.619Z</time></trkpt><trkpt lat="44.8661384" lon="9.7143492"><ele>217.0</ele><time>2026-04-26T07:03:19.638Z</time></trkpt><trkpt lat="44.86609" lon="9.7142614"><ele>217.0</ele><time>2026-04-26T07:03:21.624Z</time></trkpt><trkpt lat="44.8660446" lon="9.7141855"><ele>217.0</ele><time>2026-04-26T07:03:23.631Z</time></trkpt><trkpt lat="44.8660038" lon="9.7141095"><ele>217.0</ele><time>2026-04-26T07:03:25.62Z</time></trkpt><trkpt lat="44.8659594" lon="9.71403"><ele>217.0</ele><time>2026-04-26T07:03:27.631Z</time></trkpt><trkpt lat="44.8659113" lon="9.7139694"><ele>216.33333333333331</ele><time>2026-04-26T07:03:29.622Z</time></trkpt><trkpt lat="44.8658453" lon="9.7139058"><ele>215.66666666666666</ele><time>2026-04-26T07:03:32.618Z</time></trkpt><trkpt lat="44.8657857" lon="9.7138385"><ele>215.0</ele><time>2026-04-26T07:03:35.617Z</time></trkpt><trkpt lat="44.865724" lon="9.7137796"><ele>214.33333333333331</ele><time>2026-04-26T07:03:38.627Z</time></trkpt><trkpt lat="44.8656692" lon="9.7137298"><ele>213.66666666666666</ele><time>2026-04-26T07:03:41.63Z</time></trkpt><trkpt lat="44.8656122" lon="9.7136918"><ele>213.0</ele><time>2026-04-26T07:03:44.636Z</time></trkpt><trkpt lat="44.8655243" lon="9.7136588"><ele>213.0</ele><time>2026-04-26T07:03:47.63Z</time></trkpt><trkpt lat="44.8654602" lon="9.7136175"><ele>213.0</ele><time>2026-04-26T07:03:49.618Z</time></trkpt><trkpt lat="44.8653918" lon="9.7135833"><ele>213.0</ele><time>2026-04-26T07:03:51.598Z</time></trkpt><trkpt lat="44.8653285" lon="9.7135416"><ele>213.0</ele><time>2026-04-26T07:03:53.625Z</time></trkpt><trkpt lat="44.8652362" lon="9.7134707"><ele>213.0</ele><time>2026-04-26T07:03:56.631Z</time></trkpt><trkpt lat="44.8651526" lon="9.7133836"><ele>213.0</ele><time>2026-04-26T07:03:58.636Z</time></trkpt><trkpt lat="44.8650662" lon="9.7133022"><ele>214.0</ele><time>2026-04-26T07:04:00.626Z</time></trkpt><trkpt lat="44.8649692" lon="9.7132147"><ele>215.0</ele><time>2026-04-26T07:04:02.636Z</time></trkpt><trkpt lat="44.8648745" lon="9.7131332"><ele>216.0</ele><time>2026-04-26T07:04:04.636Z</time></trkpt><trkpt lat="44.8647949" lon="9.7130526"><ele>217.0</ele><time>2026-04-26T07:04:06.625Z</time></trkpt><trkpt lat="44.8647246" lon="9.7129849"><ele>218.0</ele><time>2026-04-26T07:04:08.637Z</time></trkpt><trkpt lat="44.8646541" lon="9.7129073"><ele>218.0</ele><time>2026-04-26T07:04:10.636Z</time></trkpt><trkpt lat="44.8645754" lon="9.7128263"><ele>218.0</ele><time>2026-04-26T07:04:12.634Z</time></trkpt><trkpt lat="44.8644966" lon="9.7127438"><ele>218.0</ele><time>2026-04-26T07:04:14.627Z</time></trkpt><trkpt lat="44.8644227" lon="9.7126752"><ele>218.0</ele><time>2026-04-26T07:04:16.631Z</time></trkpt><trkpt lat="44.8643454" lon="9.7126141"><ele>218.0</ele><time>2026-04-26T07:04:18.634Z</time></trkpt><trkpt lat="44.8642785" lon="9.7125397"><ele>218.00000000000003</ele><time>2026-04-26T07:04:20.628Z</time></trkpt><trkpt lat="44.8642034" lon="9.7124677"><ele>218.0</ele><time>2026-04-26T07:04:22.635Z</time></trkpt><trkpt lat="44.8641307" lon="9.7124033"><ele>218.0</ele><time>2026-04-26T07:04:24.627Z</time></trkpt><trkpt lat="44.8640545" lon="9.7123629"><ele>218.0</ele><time>2026-04-26T07:04:26.629Z</time></trkpt><trkpt lat="44.8639705" lon="9.7123258"><ele>218.00000000000003</ele><time>2026-04-26T07:04:28.631Z</time></trkpt><trkpt lat="44.863894" lon="9.7122773"><ele>218.0</ele><time>2026-04-26T07:04:30.63Z</time></trkpt><trkpt lat="44.8638207" lon="9.7122302"><ele>218.00000000000003</ele><time>2026-04-26T07:04:32.627Z</time></trkpt><trkpt lat="44.8637461" lon="9.7121862"><ele>218.0</ele><time>2026-04-26T07:04:34.638Z</time></trkpt><trkpt lat="44.8636782" lon="9.7121386"><ele>218.0</ele><time>2026-04-26T07:04:36.626Z</time></trkpt><trkpt lat="44.8636033" lon="9.7120878"><ele>218.0</ele><time>2026-04-26T07:04:38.623Z</time></trkpt><trkpt lat="44.8635316" lon="9.7120479"><ele>218.00000000000003</ele><time>2026-04-26T07:04:40.622Z</time></trkpt><trkpt lat="44.8634592" lon="9.7120008"><ele>218.0</ele><time>2026-04-26T07:04:42.637Z</time></trkpt><trkpt lat="44.8633835" lon="9.7119449"><ele>217.85714285714286</ele><time>2026-04-26T07:04:44.63Z</time></trkpt><trkpt lat="44.8633153" lon="9.7119045"><ele>217.71428571428572</ele><time>2026-04-26T07:04:46.628Z</time></trkpt><trkpt lat="44.8632488" lon="9.7118565"><ele>217.57142857142856</ele><time>2026-04-26T07:04:48.633Z</time></trkpt><trkpt lat="44.8631867" lon="9.7118201"><ele>217.42857142857144</ele><time>2026-04-26T07:04:50.62Z</time></trkpt><trkpt lat="44.8631198" lon="9.7117809"><ele>217.28571428571428</ele><time>2026-04-26T07:04:52.63Z</time></trkpt><trkpt lat="44.8630552" lon="9.7117428"><ele>217.14285714285714</ele><time>2026-04-26T07:04:54.626Z</time></trkpt><trkpt lat="44.8629943" lon="9.7116986"><ele>217.0</ele><time>2026-04-26T07:04:56.634Z</time></trkpt><trkpt lat="44.8629309" lon="9.711658"><ele>216.99999999999997</ele><time>2026-04-26T07:04:58.626Z</time></trkpt><trkpt lat="44.8628665" lon="9.7116141"><ele>217.0</ele><time>2026-04-26T07:05:00.627Z</time></trkpt><trkpt lat="44.8627978" lon="9.7115656"><ele>217.0</ele><time>2026-04-26T07:05:02.622Z</time></trkpt><trkpt lat="44.8627329" lon="9.711514"><ele>217.0</ele><time>2026-04-26T07:05:04.632Z</time></trkpt><trkpt lat="44.8626578" lon="9.7114743"><ele>216.99999999999997</ele><time>2026-04-26T07:05:06.627Z</time></trkpt><trkpt lat="44.8625899" lon="9.7114018"><ele>217.0</ele><time>2026-04-26T07:05:08.623Z</time></trkpt><trkpt lat="44.8625143" lon="9.7113412"><ele>216.99999999999997</ele><time>2026-04-26T07:05:10.634Z</time></trkpt><trkpt lat="44.8624412" lon="9.7112787"><ele>217.0</ele><time>2026-04-26T07:05:12.625Z</time></trkpt><trkpt lat="44.8623768" lon="9.711205"><ele>217.0</ele><time>2026-04-26T07:05:14.628Z</time></trkpt><trkpt lat="44.862307" lon="9.7111416"><ele>217.0</ele><time>2026-04-26T07:05:16.627Z</time></trkpt><trkpt lat="44.8622444" lon="9.7110859"><ele>216.99999999999997</ele><time>2026-04-26T07:05:18.636Z</time></trkpt><trkpt lat="44.8621766" lon="9.7110372"><ele>217.0</ele><time>2026-04-26T07:05:20.623Z</time></trkpt><trkpt lat="44.8621047" lon="9.7109689"><ele>217.33333333333331</ele><time>2026-04-26T07:05:22.62Z</time></trkpt><trkpt lat="44.8620318" lon="9.7109019"><ele>217.66666666666666</ele><time>2026-04-26T07:05:24.612Z</time></trkpt><trkpt lat="44.8619648" lon="9.7108242"><ele>218.0</ele><time>2026-04-26T07:05:26.635Z</time></trkpt><trkpt lat="44.8618961" lon="9.7107734"><ele>218.33333333333331</ele><time>2026-04-26T07:05:28.622Z</time></trkpt><trkpt lat="44.861833" lon="9.7107117"><ele>218.66666666666666</ele><time>2026-04-26T07:05:30.631Z</time></trkpt><trkpt lat="44.8617593" lon="9.710648"><ele>219.0</ele><time>2026-04-26T07:05:32.625Z</time></trkpt><trkpt lat="44.861677" lon="9.710608"><ele>219.0</ele><time>2026-04-26T07:05:34.635Z</time></trkpt><trkpt lat="44.8616097" lon="9.7105375"><ele>219.0</ele><time>2026-04-26T07:05:36.647Z</time></trkpt><trkpt lat="44.8615461" lon="9.7104777"><ele>219.0</ele><time>2026-04-26T07:05:38.616Z</time></trkpt><trkpt lat="44.8614878" lon="9.7104026"><ele>219.0</ele><time>2026-04-26T07:05:40.605Z</time></trkpt><trkpt lat="44.8614259" lon="9.7103306"><ele>219.0</ele><time>2026-04-26T07:05:42.623Z</time></trkpt><trkpt lat="44.8613713" lon="9.7102657"><ele>219.0</ele><time>2026-04-26T07:05:44.627Z</time></trkpt><trkpt lat="44.8613096" lon="9.7102041"><ele>219.42857142857144</ele><time>2026-04-26T07:05:46.625Z</time></trkpt><trkpt lat="44.8612509" lon="9.7101436"><ele>219.85714285714283</ele><time>2026-04-26T07:05:48.627Z</time></trkpt><trkpt lat="44.861187" lon="9.7100789"><ele>220.28571428571428</ele><time>2026-04-26T07:05:50.623Z</time></trkpt><trkpt lat="44.8611252" lon="9.710023"><ele>220.71428571428572</ele><time>2026-04-26T07:05:52.63Z</time></trkpt><trkpt lat="44.8610552" lon="9.7099711"><ele>221.14285714285717</ele><time>2026-04-26T07:05:54.627Z</time></trkpt><trkpt lat="44.8610012" lon="9.7099137"><ele>221.57142857142856</ele><time>2026-04-26T07:05:56.627Z</time></trkpt><trkpt lat="44.860944" lon="9.7098389"><ele>222.0</ele><time>2026-04-26T07:05:58.625Z</time></trkpt><trkpt lat="44.8608898" lon="9.7097626"><ele>222.0</ele><time>2026-04-26T07:06:00.63Z</time></trkpt><trkpt lat="44.8608227" lon="9.7096995"><ele>222.0</ele><time>2026-04-26T07:06:02.63Z</time></trkpt><trkpt lat="44.8607537" lon="9.7096418"><ele>222.0</ele><time>2026-04-26T07:06:04.63Z</time></trkpt><trkpt lat="44.860689" lon="9.7095779"><ele>222.0</ele><time>2026-04-26T07:06:06.628Z</time></trkpt><trkpt lat="44.8606291" lon="9.7095088"><ele>222.0</ele><time>2026-04-26T07:06:08.638Z</time></trkpt><trkpt lat="44.8605701" lon="9.7094562"><ele>222.0</ele><time>2026-04-26T07:06:10.62Z</time></trkpt><trkpt lat="44.860502" lon="9.709385"><ele>222.5</ele><time>2026-04-26T07:06:12.629Z</time></trkpt><trkpt lat="44.860428" lon="9.7093255"><ele>223.0</ele><time>2026-04-26T07:06:14.635Z</time></trkpt><trkpt lat="44.8603629" lon="9.7092715"><ele>223.5</ele><time>2026-04-26T07:06:16.632Z</time></trkpt><trkpt lat="44.860293" lon="9.7092214"><ele>224.0</ele><time>2026-04-26T07:06:18.63Z</time></trkpt><trkpt lat="44.8602207" lon="9.7091875"><ele>224.5</ele><time>2026-04-26T07:06:20.629Z</time></trkpt><trkpt lat="44.860142" lon="9.7091605"><ele>225.0</ele><time>2026-04-26T07:06:22.631Z</time></trkpt><trkpt lat="44.8600579" lon="9.709123"><ele>225.0</ele><time>2026-04-26T07:06:24.625Z</time></trkpt><trkpt lat="44.8599895" lon="9.7090723"><ele>225.0</ele><time>2026-04-26T07:06:26.612Z</time></trkpt><trkpt lat="44.8599125" lon="9.7090257"><ele>225.0</ele><time>2026-04-26T07:06:28.624Z</time></trkpt><trkpt lat="44.8598344" lon="9.7089894"><ele>225.0</ele><time>2026-04-26T07:06:30.631Z</time></trkpt><trkpt lat="44.8597604" lon="9.7089542"><ele>225.0</ele><time>2026-04-26T07:06:32.628Z</time></trkpt><trkpt lat="44.8596861" lon="9.7089089"><ele>225.0</ele><time>2026-04-26T07:06:34.629Z</time></trkpt><trkpt lat="44.8596076" lon="9.7088624"><ele>225.0</ele><time>2026-04-26T07:06:36.636Z</time></trkpt><trkpt lat="44.8595367" lon="9.7088216"><ele>225.0</ele><time>2026-04-26T07:06:38.617Z</time></trkpt><trkpt lat="44.859468" lon="9.7087775"><ele>225.0</ele><time>2026-04-26T07:06:40.627Z</time></trkpt><trkpt lat="44.8593949" lon="9.7087438"><ele>225.0</ele><time>2026-04-26T07:06:42.63Z</time></trkpt><trkpt lat="44.8593252" lon="9.7087147"><ele>225.0</ele><time>2026-04-26T07:06:44.626Z</time></trkpt><trkpt lat="44.8592483" lon="9.7086716"><ele>225.0</ele><time>2026-04-26T07:06:46.624Z</time></trkpt><trkpt lat="44.8591804" lon="9.7086405"><ele>224.83333333333334</ele><time>2026-04-26T07:06:48.603Z</time></trkpt><trkpt lat="44.8591137" lon="9.7086198"><ele>224.66666666666669</ele><time>2026-04-26T07:06:50.625Z</time></trkpt><trkpt lat="44.859039" lon="9.7085876"><ele>224.5</ele><time>2026-04-26T07:06:52.629Z</time></trkpt><trkpt lat="44.8589561" lon="9.7085602"><ele>224.33333333333334</ele><time>2026-04-26T07:06:54.63Z</time></trkpt><trkpt lat="44.8588784" lon="9.7085412"><ele>224.16666666666669</ele><time>2026-04-26T07:06:56.628Z</time></trkpt><trkpt lat="44.8588017" lon="9.708518"><ele>224.0</ele><time>2026-04-26T07:06:58.621Z</time></trkpt><trkpt lat="44.8587358" lon="9.7084898"><ele>224.0</ele><time>2026-04-26T07:07:00.628Z</time></trkpt><trkpt lat="44.8586633" lon="9.7084645"><ele>224.0</ele><time>2026-04-26T07:07:02.629Z</time></trkpt><trkpt lat="44.8585881" lon="9.708434"><ele>224.0</ele><time>2026-04-26T07:07:04.628Z</time></trkpt><trkpt lat="44.8585142" lon="9.7084051"><ele>224.0</ele><time>2026-04-26T07:07:06.634Z</time></trkpt><trkpt lat="44.858445" lon="9.7083735"><ele>224.0</ele><time>2026-04-26T07:07:08.629Z</time></trkpt><trkpt lat="44.8583797" lon="9.7083453"><ele>224.0</ele><time>2026-04-26T07:07:10.633Z</time></trkpt><trkpt lat="44.8583069" lon="9.7083105"><ele>224.0</ele><time>2026-04-26T07:07:12.629Z</time></trkpt><trkpt lat="44.8582325" lon="9.7082846"><ele>224.16666666666669</ele><time>2026-04-26T07:07:14.634Z</time></trkpt><trkpt lat="44.8581597" lon="9.7082582"><ele>224.33333333333334</ele><time>2026-04-26T07:07:16.64Z</time></trkpt><trkpt lat="44.8580919" lon="9.7082205"><ele>224.5</ele><time>2026-04-26T07:07:18.645Z</time></trkpt><trkpt lat="44.8580155" lon="9.7081759"><ele>224.66666666666669</ele><time>2026-04-26T07:07:20.633Z</time></trkpt><trkpt lat="44.8579444" lon="9.7081186"><ele>224.83333333333334</ele><time>2026-04-26T07:07:22.629Z</time></trkpt><trkpt lat="44.8578747" lon="9.7080762"><ele>225.0</ele><time>2026-04-26T07:07:24.601Z</time></trkpt><trkpt lat="44.857807" lon="9.708023"><ele>225.0</ele><time>2026-04-26T07:07:26.632Z</time></trkpt><trkpt lat="44.857732" lon="9.707952"><ele>225.0</ele><time>2026-04-26T07:07:28.6Z</time></trkpt><trkpt lat="44.8576669" lon="9.7078809"><ele>225.0</ele><time>2026-04-26T07:07:30.596Z</time></trkpt><trkpt lat="44.8576146" lon="9.7078078"><ele>225.0</ele><time>2026-04-26T07:07:32.609Z</time></trkpt><trkpt lat="44.8575584" lon="9.7077316"><ele>225.0</ele><time>2026-04-26T07:07:34.601Z</time></trkpt><trkpt lat="44.8574867" lon="9.7076507"><ele>225.0</ele><time>2026-04-26T07:07:36.625Z</time></trkpt><trkpt lat="44.8574287" lon="9.7075772"><ele>225.5</ele><time>2026-04-26T07:07:38.64Z</time></trkpt><trkpt lat="44.8573764" lon="9.7075086"><ele>226.0</ele><time>2026-04-26T07:07:40.628Z</time></trkpt><trkpt lat="44.8573243" lon="9.7074256"><ele>226.5</ele><time>2026-04-26T07:07:42.633Z</time></trkpt><trkpt lat="44.8572788" lon="9.707349"><ele>227.0</ele><time>2026-04-26T07:07:44.62Z</time></trkpt><trkpt lat="44.8572276" lon="9.7072668"><ele>227.5</ele><time>2026-04-26T07:07:46.632Z</time></trkpt><trkpt lat="44.857169" lon="9.7071889"><ele>228.0</ele><time>2026-04-26T07:07:48.635Z</time></trkpt><trkpt lat="44.857116" lon="9.7071225"><ele>228.0</ele><time>2026-04-26T07:07:50.63Z</time></trkpt><trkpt lat="44.8570592" lon="9.7070534"><ele>228.0</ele><time>2026-04-26T07:07:52.629Z</time></trkpt><trkpt lat="44.8570004" lon="9.7069816"><ele>228.0</ele><time>2026-04-26T07:07:54.632Z</time></trkpt><trkpt lat="44.8569345" lon="9.7069174"><ele>228.0</ele><time>2026-04-26T07:07:56.635Z</time></trkpt><trkpt lat="44.8568701" lon="9.7068556"><ele>228.0</ele><time>2026-04-26T07:07:58.617Z</time></trkpt><trkpt lat="44.8568075" lon="9.706792"><ele>228.0</ele><time>2026-04-26T07:08:00.634Z</time></trkpt><trkpt lat="44.8567462" lon="9.7067311"><ele>228.5</ele><time>2026-04-26T07:08:02.628Z</time></trkpt><trkpt lat="44.8566845" lon="9.7066537"><ele>229.0</ele><time>2026-04-26T07:08:04.627Z</time></trkpt><trkpt lat="44.8566229" lon="9.706597"><ele>229.5</ele><time>2026-04-26T07:08:06.629Z</time></trkpt><trkpt lat="44.8565566" lon="9.7065438"><ele>230.0</ele><time>2026-04-26T07:08:08.64Z</time></trkpt><trkpt lat="44.8564862" lon="9.7065004"><ele>230.5</ele><time>2026-04-26T07:08:10.626Z</time></trkpt><trkpt lat="44.8564212" lon="9.7064473"><ele>231.0</ele><time>2026-04-26T07:08:12.626Z</time></trkpt><trkpt lat="44.8563604" lon="9.7063964"><ele>231.0</ele><time>2026-04-26T07:08:14.628Z</time></trkpt><trkpt lat="44.856299" lon="9.7063482"><ele>231.0</ele><time>2026-04-26T07:08:16.629Z</time></trkpt><trkpt lat="44.8562283" lon="9.7062956"><ele>231.0</ele><time>2026-04-26T07:08:18.63Z</time></trkpt><trkpt lat="44.856157" lon="9.7062546"><ele>231.0</ele><time>2026-04-26T07:08:20.622Z</time></trkpt><trkpt lat="44.8560878" lon="9.7062033"><ele>231.0</ele><time>2026-04-26T07:08:22.626Z</time></trkpt><trkpt lat="44.8560223" lon="9.7061456"><ele>231.0</ele><time>2026-04-26T07:08:24.638Z</time></trkpt><trkpt lat="44.8559614" lon="9.7060889"><ele>231.57142857142856</ele><time>2026-04-26T07:08:26.627Z</time></trkpt><trkpt lat="44.8559014" lon="9.7060232"><ele>232.14285714285714</ele><time>2026-04-26T07:08:28.624Z</time></trkpt><trkpt lat="44.8558555" lon="9.7059464"><ele>232.71428571428572</ele><time>2026-04-26T07:08:30.641Z</time></trkpt><trkpt lat="44.8558091" lon="9.7058649"><ele>233.28571428571428</ele><time>2026-04-26T07:08:32.632Z</time></trkpt><trkpt lat="44.8557702" lon="9.7057823"><ele>233.85714285714283</ele><time>2026-04-26T07:08:34.615Z</time></trkpt><trkpt lat="44.855727" lon="9.7056966"><ele>234.42857142857142</ele><time>2026-04-26T07:08:36.632Z</time></trkpt><trkpt lat="44.8556807" lon="9.7056096"><ele>235.0</ele><time>2026-04-26T07:08:38.629Z</time></trkpt><trkpt lat="44.8556275" lon="9.7055299"><ele>234.99999999999997</ele><time>2026-04-26T07:08:40.63Z</time></trkpt><trkpt lat="44.8555674" lon="9.7054423"><ele>235.0</ele><time>2026-04-26T07:08:42.628Z</time></trkpt><trkpt lat="44.8555177" lon="9.7053601"><ele>235.0</ele><time>2026-04-26T07:08:44.632Z</time></trkpt><trkpt lat="44.8554683" lon="9.7052794"><ele>235.0</ele><time>2026-04-26T07:08:46.622Z</time></trkpt><trkpt lat="44.8554058" lon="9.7051894"><ele>234.99999999999997</ele><time>2026-04-26T07:08:48.632Z</time></trkpt><trkpt lat="44.8553389" lon="9.7051111"><ele>235.0</ele><time>2026-04-26T07:08:50.632Z</time></trkpt><trkpt lat="44.8552808" lon="9.7050196"><ele>234.99999999999997</ele><time>2026-04-26T07:08:52.632Z</time></trkpt><trkpt lat="44.8552274" lon="9.7049412"><ele>235.0</ele><time>2026-04-26T07:08:54.631Z</time></trkpt><trkpt lat="44.8551701" lon="9.7048574"><ele>235.0</ele><time>2026-04-26T07:08:56.64Z</time></trkpt><trkpt lat="44.8551218" lon="9.7047775"><ele>235.0</ele><time>2026-04-26T07:08:58.621Z</time></trkpt><trkpt lat="44.8550624" lon="9.7046988"><ele>234.99999999999997</ele><time>2026-04-26T07:09:00.637Z</time></trkpt><trkpt lat="44.8550111" lon="9.7046283"><ele>235.0</ele><time>2026-04-26T07:09:02.623Z</time></trkpt><trkpt lat="44.854951" lon="9.704555"><ele>234.99999999999997</ele><time>2026-04-26T07:09:04.634Z</time></trkpt><trkpt lat="44.8548961" lon="9.7044853"><ele>235.0</ele><time>2026-04-26T07:09:06.629Z</time></trkpt><trkpt lat="44.8548371" lon="9.7044036"><ele>235.0</ele><time>2026-04-26T07:09:08.626Z</time></trkpt><trkpt lat="44.8547812" lon="9.7043329"><ele>235.0</ele><time>2026-04-26T07:09:10.635Z</time></trkpt><trkpt lat="44.8547212" lon="9.7042547"><ele>234.99999999999997</ele><time>2026-04-26T07:09:12.637Z</time></trkpt><trkpt lat="44.8546592" lon="9.7041796"><ele>235.0</ele><time>2026-04-26T07:09:14.619Z</time></trkpt><trkpt lat="44.8546027" lon="9.7041005"><ele>234.83333333333331</ele><time>2026-04-26T07:09:16.629Z</time></trkpt><trkpt lat="44.8545493" lon="9.7040266"><ele>234.66666666666666</ele><time>2026-04-26T07:09:18.624Z</time></trkpt><trkpt lat="44.854489" lon="9.7039571"><ele>234.5</ele><time>2026-04-26T07:09:20.608Z</time></trkpt><trkpt lat="44.8544267" lon="9.7038826"><ele>234.33333333333331</ele><time>2026-04-26T07:09:22.632Z</time></trkpt><trkpt lat="44.8543682" lon="9.7038096"><ele>234.16666666666666</ele><time>2026-04-26T07:09:24.63Z</time></trkpt><trkpt lat="44.8543083" lon="9.7037361"><ele>234.0</ele><time>2026-04-26T07:09:26.625Z</time></trkpt><trkpt lat="44.8542553" lon="9.7036582"><ele>234.5</ele><time>2026-04-26T07:09:28.626Z</time></trkpt><trkpt lat="44.8542033" lon="9.7035783"><ele>235.0</ele><time>2026-04-26T07:09:30.632Z</time></trkpt><trkpt lat="44.8541452" lon="9.7034923"><ele>235.5</ele><time>2026-04-26T07:09:32.637Z</time></trkpt><trkpt lat="44.8540949" lon="9.703414"><ele>236.0</ele><time>2026-04-26T07:09:34.623Z</time></trkpt><trkpt lat="44.8540377" lon="9.7033486"><ele>236.5</ele><time>2026-04-26T07:09:36.63Z</time></trkpt><trkpt lat="44.853978" lon="9.7032836"><ele>237.0</ele><time>2026-04-26T07:09:38.611Z</time></trkpt><trkpt lat="44.8539201" lon="9.7032134"><ele>237.0</ele><time>2026-04-26T07:09:40.628Z</time></trkpt><trkpt lat="44.8538602" lon="9.7031332"><ele>237.0</ele><time>2026-04-26T07:09:42.631Z</time></trkpt><trkpt lat="44.8537917" lon="9.7030619"><ele>237.0</ele><time>2026-04-26T07:09:44.616Z</time></trkpt><trkpt lat="44.8537326" lon="9.7029913"><ele>237.0</ele><time>2026-04-26T07:09:46.622Z</time></trkpt><trkpt lat="44.8536828" lon="9.702924"><ele>237.0</ele><time>2026-04-26T07:09:48.627Z</time></trkpt><trkpt lat="44.8536371" lon="9.7028515"><ele>237.0</ele><time>2026-04-26T07:09:50.631Z</time></trkpt><trkpt lat="44.8535699" lon="9.7027738"><ele>236.99999999999997</ele><time>2026-04-26T07:09:52.629Z</time></trkpt><trkpt lat="44.8535205" lon="9.7027003"><ele>237.0</ele><time>2026-04-26T07:09:54.633Z</time></trkpt><trkpt lat="44.8534697" lon="9.7026231"><ele>236.99999999999997</ele><time>2026-04-26T07:09:56.624Z</time></trkpt><trkpt lat="44.85342" lon="9.702548"><ele>236.99999999999997</ele><time>2026-04-26T07:09:58.626Z</time></trkpt><trkpt lat="44.8533751" lon="9.7024611"><ele>237.0</ele><time>2026-04-26T07:10:00.625Z</time></trkpt><trkpt lat="44.8533294" lon="9.7023917"><ele>236.99999999999997</ele><time>2026-04-26T07:10:02.631Z</time></trkpt><trkpt lat="44.8532814" lon="9.7023111"><ele>236.99999999999997</ele><time>2026-04-26T07:10:04.629Z</time></trkpt><trkpt lat="44.8532296" lon="9.7022368"><ele>236.99999999999997</ele><time>2026-04-26T07:10:06.626Z</time></trkpt><trkpt lat="44.853177" lon="9.7021707"><ele>237.0</ele><time>2026-04-26T07:10:08.632Z</time></trkpt><trkpt lat="44.8531226" lon="9.7021058"><ele>236.99999999999997</ele><time>2026-04-26T07:10:10.624Z</time></trkpt><trkpt lat="44.8530761" lon="9.7020401"><ele>236.99999999999997</ele><time>2026-04-26T07:10:12.622Z</time></trkpt><trkpt lat="44.8530274" lon="9.7019748"><ele>237.0</ele><time>2026-04-26T07:10:14.633Z</time></trkpt><trkpt lat="44.8529786" lon="9.7019013"><ele>236.99999999999997</ele><time>2026-04-26T07:10:16.63Z</time></trkpt><trkpt lat="44.8529266" lon="9.7018223"><ele>236.99999999999997</ele><time>2026-04-26T07:10:18.635Z</time></trkpt><trkpt lat="44.8528757" lon="9.7017645"><ele>237.83333333333334</ele><time>2026-04-26T07:10:20.629Z</time></trkpt><trkpt lat="44.8528124" lon="9.7017028"><ele>238.66666666666669</ele><time>2026-04-26T07:10:22.624Z</time></trkpt><trkpt lat="44.8527567" lon="9.701637"><ele>239.5</ele><time>2026-04-26T07:10:24.609Z</time></trkpt><trkpt lat="44.8526997" lon="9.7015614"><ele>240.33333333333334</ele><time>2026-04-26T07:10:26.629Z</time></trkpt><trkpt lat="44.8526404" lon="9.7014909"><ele>241.16666666666669</ele><time>2026-04-26T07:10:28.624Z</time></trkpt><trkpt lat="44.8525705" lon="9.7014174"><ele>242.0</ele><time>2026-04-26T07:10:30.63Z</time></trkpt><trkpt lat="44.8525002" lon="9.701342"><ele>242.00000000000003</ele><time>2026-04-26T07:10:32.621Z</time></trkpt><trkpt lat="44.8524281" lon="9.7012774"><ele>242.0</ele><time>2026-04-26T07:10:34.63Z</time></trkpt><trkpt lat="44.8523517" lon="9.7012217"><ele>242.0</ele><time>2026-04-26T07:10:36.619Z</time></trkpt><trkpt lat="44.8522715" lon="9.7011745"><ele>242.0</ele><time>2026-04-26T07:10:38.628Z</time></trkpt><trkpt lat="44.8521992" lon="9.7011381"><ele>242.00000000000003</ele><time>2026-04-26T07:10:40.626Z</time></trkpt><trkpt lat="44.8521192" lon="9.7010981"><ele>242.0</ele><time>2026-04-26T07:10:42.624Z</time></trkpt><trkpt lat="44.8520364" lon="9.7010728"><ele>242.16666666666669</ele><time>2026-04-26T07:10:44.623Z</time></trkpt><trkpt lat="44.8519553" lon="9.7010552"><ele>242.33333333333334</ele><time>2026-04-26T07:10:46.62Z</time></trkpt><trkpt lat="44.8518726" lon="9.7010274"><ele>242.5</ele><time>2026-04-26T07:10:48.626Z</time></trkpt><trkpt lat="44.8517906" lon="9.701002"><ele>242.66666666666669</ele><time>2026-04-26T07:10:50.625Z</time></trkpt><trkpt lat="44.8517179" lon="9.700981"><ele>242.83333333333334</ele><time>2026-04-26T07:10:52.634Z</time></trkpt><trkpt lat="44.8516499" lon="9.7009538"><ele>243.0</ele><time>2026-04-26T07:10:54.639Z</time></trkpt><trkpt lat="44.8515851" lon="9.7009327"><ele>243.0</ele><time>2026-04-26T07:10:56.629Z</time></trkpt><trkpt lat="44.8515241" lon="9.7008955"><ele>243.0</ele><time>2026-04-26T07:10:58.629Z</time></trkpt><trkpt lat="44.8514523" lon="9.7008489"><ele>243.0</ele><time>2026-04-26T07:11:00.625Z</time></trkpt><trkpt lat="44.8513799" lon="9.700789"><ele>243.0</ele><time>2026-04-26T07:11:02.623Z</time></trkpt><trkpt lat="44.8513182" lon="9.7007432"><ele>243.0</ele><time>2026-04-26T07:11:04.622Z</time></trkpt><trkpt lat="44.8512529" lon="9.7006947"><ele>243.0</ele><time>2026-04-26T07:11:06.625Z</time></trkpt><trkpt lat="44.8511848" lon="9.7006381"><ele>243.0</ele><time>2026-04-26T07:11:08.636Z</time></trkpt><trkpt lat="44.8511254" lon="9.7005941"><ele>243.0</ele><time>2026-04-26T07:11:10.633Z</time></trkpt><trkpt lat="44.8510657" lon="9.7005454"><ele>243.0</ele><time>2026-04-26T07:11:12.624Z</time></trkpt><trkpt lat="44.8510145" lon="9.7004905"><ele>243.0</ele><time>2026-04-26T07:11:14.634Z</time></trkpt><trkpt lat="44.8509581" lon="9.7004365"><ele>243.0</ele><time>2026-04-26T07:11:16.63Z</time></trkpt><trkpt lat="44.8508938" lon="9.7003715"><ele>243.0</ele><time>2026-04-26T07:11:18.625Z</time></trkpt><trkpt lat="44.8508357" lon="9.7003212"><ele>243.0</ele><time>2026-04-26T07:11:20.637Z</time></trkpt><trkpt lat="44.8507756" lon="9.7002628"><ele>243.5</ele><time>2026-04-26T07:11:22.624Z</time></trkpt><trkpt lat="44.8507056" lon="9.700205"><ele>244.0</ele><time>2026-04-26T07:11:24.625Z</time></trkpt><trkpt lat="44.8506368" lon="9.7001489"><ele>244.5</ele><time>2026-04-26T07:11:26.618Z</time></trkpt><trkpt lat="44.850575" lon="9.7000991"><ele>245.0</ele><time>2026-04-26T07:11:28.609Z</time></trkpt><trkpt lat="44.8505062" lon="9.7000346"><ele>245.5</ele><time>2026-04-26T07:11:30.636Z</time></trkpt><trkpt lat="44.8504438" lon="9.6999854"><ele>246.0</ele><time>2026-04-26T07:11:32.625Z</time></trkpt><trkpt lat="44.8503848" lon="9.6999337"><ele>246.0</ele><time>2026-04-26T07:11:34.629Z</time></trkpt><trkpt lat="44.8503193" lon="9.6998725"><ele>246.0</ele><time>2026-04-26T07:11:36.628Z</time></trkpt><trkpt lat="44.8502463" lon="9.6998098"><ele>246.0</ele><time>2026-04-26T07:11:38.626Z</time></trkpt><trkpt lat="44.850185" lon="9.6997507"><ele>246.0</ele><time>2026-04-26T07:11:40.633Z</time></trkpt><trkpt lat="44.8501163" lon="9.6996784"><ele>246.0</ele><time>2026-04-26T07:11:42.627Z</time></trkpt><trkpt lat="44.8500524" lon="9.6996111"><ele>246.0</ele><time>2026-04-26T07:11:44.627Z</time></trkpt><trkpt lat="44.849999" lon="9.6995359"><ele>245.8571428571429</ele><time>2026-04-26T07:11:46.608Z</time></trkpt><trkpt lat="44.8499493" lon="9.6994569"><ele>245.71428571428572</ele><time>2026-04-26T07:11:48.632Z</time></trkpt><trkpt lat="44.8499012" lon="9.6993731"><ele>245.57142857142858</ele><time>2026-04-26T07:11:50.637Z</time></trkpt><trkpt lat="44.8498516" lon="9.699292"><ele>245.42857142857144</ele><time>2026-04-26T07:11:52.63Z</time></trkpt><trkpt lat="44.84981" lon="9.6992124"><ele>245.28571428571428</ele><time>2026-04-26T07:11:54.626Z</time></trkpt><trkpt lat="44.8497725" lon="9.6991262"><ele>245.14285714285714</ele><time>2026-04-26T07:11:56.643Z</time></trkpt><trkpt lat="44.849749" lon="9.6990286"><ele>245.0</ele><time>2026-04-26T07:11:58.632Z</time></trkpt><trkpt lat="44.8497307" lon="9.6989373"><ele>245.28571428571428</ele><time>2026-04-26T07:12:00.61Z</time></trkpt><trkpt lat="44.8497197" lon="9.6988344"><ele>245.57142857142856</ele><time>2026-04-26T07:12:02.611Z</time></trkpt><trkpt lat="44.8497056" lon="9.6987469"><ele>245.85714285714286</ele><time>2026-04-26T07:12:04.635Z</time></trkpt><trkpt lat="44.8496901" lon="9.6986477"><ele>246.14285714285714</ele><time>2026-04-26T07:12:06.637Z</time></trkpt><trkpt lat="44.8496695" lon="9.6985599"><ele>246.42857142857142</ele><time>2026-04-26T07:12:08.626Z</time></trkpt><trkpt lat="44.8496522" lon="9.6984622"><ele>246.71428571428572</ele><time>2026-04-26T07:12:10.62Z</time></trkpt><trkpt lat="44.8496284" lon="9.698378"><ele>247.0</ele><time>2026-04-26T07:12:12.633Z</time></trkpt><trkpt lat="44.8495872" lon="9.698304"><ele>247.66666666666666</ele><time>2026-04-26T07:12:14.623Z</time></trkpt><trkpt lat="44.8495085" lon="9.6982545"><ele>248.33333333333331</ele><time>2026-04-26T07:12:17.63Z</time></trkpt><trkpt lat="44.8494324" lon="9.6983202"><ele>249.0</ele><time>2026-04-26T07:12:20.628Z</time></trkpt><trkpt lat="44.8493858" lon="9.6983837"><ele>249.66666666666669</ele><time>2026-04-26T07:12:22.646Z</time></trkpt><trkpt lat="44.8493244" lon="9.698435"><ele>250.33333333333334</ele><time>2026-04-26T07:12:24.635Z</time></trkpt><trkpt lat="44.8492679" lon="9.6984809"><ele>251.0</ele><time>2026-04-26T07:12:26.622Z</time></trkpt><trkpt lat="44.8491916" lon="9.6985457"><ele>251.00000000000003</ele><time>2026-04-26T07:12:29.628Z</time></trkpt><trkpt lat="44.8491358" lon="9.6986006"><ele>251.0</ele><time>2026-04-26T07:12:31.626Z</time></trkpt><trkpt lat="44.8490729" lon="9.698657"><ele>251.0</ele><time>2026-04-26T07:12:33.63Z</time></trkpt><trkpt lat="44.8489957" lon="9.6986561"><ele>251.0</ele><time>2026-04-26T07:12:35.625Z</time></trkpt><trkpt lat="44.8489284" lon="9.6985899"><ele>251.00000000000003</ele><time>2026-04-26T07:12:37.613Z</time></trkpt><trkpt lat="44.8488733" lon="9.6985078"><ele>251.0</ele><time>2026-04-26T07:12:39.632Z</time></trkpt><trkpt lat="44.8488231" lon="9.6984025"><ele>251.0</ele><time>2026-04-26T07:12:41.636Z</time></trkpt><trkpt lat="44.8487637" lon="9.6982868"><ele>251.00000000000003</ele><time>2026-04-26T07:12:43.633Z</time></trkpt><trkpt lat="44.8487002" lon="9.6981615"><ele>251.00000000000003</ele><time>2026-04-26T07:12:45.633Z</time></trkpt><trkpt lat="44.8486298" lon="9.6980403"><ele>251.0</ele><time>2026-04-26T07:12:47.634Z</time></trkpt><trkpt lat="44.8485541" lon="9.6979287"><ele>251.0</ele><time>2026-04-26T07:12:49.631Z</time></trkpt><trkpt lat="44.8484784" lon="9.6978255"><ele>251.33333333333334</ele><time>2026-04-26T07:12:51.633Z</time></trkpt><trkpt lat="44.8484221" lon="9.697721"><ele>251.66666666666669</ele><time>2026-04-26T07:12:53.633Z</time></trkpt><trkpt lat="44.8483616" lon="9.6976307"><ele>252.0</ele><time>2026-04-26T07:12:55.63Z</time></trkpt><trkpt lat="44.8482984" lon="9.6975419"><ele>252.33333333333331</ele><time>2026-04-26T07:12:57.63Z</time></trkpt><trkpt lat="44.8482435" lon="9.6974586"><ele>252.66666666666666</ele><time>2026-04-26T07:12:59.641Z</time></trkpt><trkpt lat="44.8481889" lon="9.6973831"><ele>253.0</ele><time>2026-04-26T07:13:01.631Z</time></trkpt><trkpt lat="44.8481192" lon="9.6973167"><ele>253.0</ele><time>2026-04-26T07:13:03.618Z</time></trkpt><trkpt lat="44.8480367" lon="9.6972495"><ele>253.0</ele><time>2026-04-26T07:13:05.63Z</time></trkpt><trkpt lat="44.8479563" lon="9.6972098"><ele>253.0</ele><time>2026-04-26T07:13:07.624Z</time></trkpt><trkpt lat="44.8478765" lon="9.6971565"><ele>253.0</ele><time>2026-04-26T07:13:09.626Z</time></trkpt><trkpt lat="44.8477916" lon="9.6971088"><ele>253.0</ele><time>2026-04-26T07:13:11.632Z</time></trkpt><trkpt lat="44.8477092" lon="9.6970569"><ele>252.99999999999997</ele><time>2026-04-26T07:13:13.614Z</time></trkpt><trkpt lat="44.8476315" lon="9.6970022"><ele>253.0</ele><time>2026-04-26T07:13:15.627Z</time></trkpt><trkpt lat="44.8475643" lon="9.6969424"><ele>253.0</ele><time>2026-04-26T07:13:17.626Z</time></trkpt><trkpt lat="44.8474958" lon="9.6968675"><ele>253.0</ele><time>2026-04-26T07:13:19.629Z</time></trkpt><trkpt lat="44.8474378" lon="9.6968006"><ele>252.99999999999997</ele><time>2026-04-26T07:13:21.624Z</time></trkpt><trkpt lat="44.8473799" lon="9.6967258"><ele>253.0</ele><time>2026-04-26T07:13:23.633Z</time></trkpt><trkpt lat="44.8473184" lon="9.6966583"><ele>252.99999999999997</ele><time>2026-04-26T07:13:25.631Z</time></trkpt><trkpt lat="44.8472645" lon="9.6965931"><ele>253.0</ele><time>2026-04-26T07:13:27.637Z</time></trkpt><trkpt lat="44.8472038" lon="9.6965301"><ele>253.0</ele><time>2026-04-26T07:13:29.619Z</time></trkpt><trkpt lat="44.8471441" lon="9.6964883"><ele>253.0</ele><time>2026-04-26T07:13:31.634Z</time></trkpt><trkpt lat="44.8470802" lon="9.6964457"><ele>252.99999999999997</ele><time>2026-04-26T07:13:33.637Z</time></trkpt><trkpt lat="44.8470038" lon="9.6964044"><ele>253.0</ele><time>2026-04-26T07:13:35.631Z</time></trkpt><trkpt lat="44.8469214" lon="9.6963686"><ele>252.99999999999997</ele><time>2026-04-26T07:13:37.627Z</time></trkpt><trkpt lat="44.8468418" lon="9.6963306"><ele>253.0</ele><time>2026-04-26T07:13:39.622Z</time></trkpt><trkpt lat="44.8467589" lon="9.6962877"><ele>253.0</ele><time>2026-04-26T07:13:41.612Z</time></trkpt><trkpt lat="44.8466924" lon="9.69622"><ele>253.0</ele><time>2026-04-26T07:13:43.632Z</time></trkpt><trkpt lat="44.8466216" lon="9.6961558"><ele>252.99999999999997</ele><time>2026-04-26T07:13:45.626Z</time></trkpt><trkpt lat="44.846546" lon="9.696102"><ele>253.0</ele><time>2026-04-26T07:13:47.622Z</time></trkpt><trkpt lat="44.84649" lon="9.6960367"><ele>253.66666666666666</ele><time>2026-04-26T07:13:49.624Z</time></trkpt><trkpt lat="44.8464264" lon="9.6959776"><ele>254.33333333333331</ele><time>2026-04-26T07:13:51.62Z</time></trkpt><trkpt lat="44.8463625" lon="9.6959253"><ele>255.0</ele><time>2026-04-26T07:13:53.634Z</time></trkpt><trkpt lat="44.8462933" lon="9.695859"><ele>255.66666666666669</ele><time>2026-04-26T07:13:55.628Z</time></trkpt><trkpt lat="44.8462318" lon="9.6957999"><ele>256.33333333333337</ele><time>2026-04-26T07:13:57.612Z</time></trkpt><trkpt lat="44.8461806" lon="9.6957249"><ele>257.0</ele><time>2026-04-26T07:13:59.633Z</time></trkpt><trkpt lat="44.8461259" lon="9.6956364"><ele>257.0</ele><time>2026-04-26T07:14:01.621Z</time></trkpt><trkpt lat="44.8460768" lon="9.6955502"><ele>257.0</ele><time>2026-04-26T07:14:03.626Z</time></trkpt><trkpt lat="44.8460291" lon="9.6954655"><ele>257.0</ele><time>2026-04-26T07:14:05.634Z</time></trkpt><trkpt lat="44.8459745" lon="9.6953735"><ele>257.0</ele><time>2026-04-26T07:14:07.632Z</time></trkpt><trkpt lat="44.8459182" lon="9.6952869"><ele>257.0</ele><time>2026-04-26T07:14:09.623Z</time></trkpt><trkpt lat="44.8458662" lon="9.695199"><ele>257.0</ele><time>2026-04-26T07:14:11.623Z</time></trkpt><trkpt lat="44.8458051" lon="9.6951144"><ele>257.83333333333337</ele><time>2026-04-26T07:14:13.624Z</time></trkpt><trkpt lat="44.8457352" lon="9.6950258"><ele>258.6666666666667</ele><time>2026-04-26T07:14:15.628Z</time></trkpt><trkpt lat="44.8456806" lon="9.6949352"><ele>259.5</ele><time>2026-04-26T07:14:17.626Z</time></trkpt><trkpt lat="44.8456225" lon="9.6948623"><ele>260.3333333333333</ele><time>2026-04-26T07:14:19.63Z</time></trkpt><trkpt lat="44.8455687" lon="9.694777"><ele>261.16666666666663</ele><time>2026-04-26T07:14:21.625Z</time></trkpt><trkpt lat="44.8455151" lon="9.6946958"><ele>262.0</ele><time>2026-04-26T07:14:23.62Z</time></trkpt><trkpt lat="44.8454634" lon="9.6946192"><ele>262.0</ele><time>2026-04-26T07:14:25.63Z</time></trkpt><trkpt lat="44.8454101" lon="9.6945425"><ele>262.0</ele><time>2026-04-26T07:14:27.628Z</time></trkpt><trkpt lat="44.8453569" lon="9.6944662"><ele>262.0</ele><time>2026-04-26T07:14:29.629Z</time></trkpt><trkpt lat="44.8453021" lon="9.6943909"><ele>262.0</ele><time>2026-04-26T07:14:31.629Z</time></trkpt><trkpt lat="44.8452483" lon="9.6943215"><ele>262.0</ele><time>2026-04-26T07:14:33.636Z</time></trkpt><trkpt lat="44.8451863" lon="9.6942668"><ele>262.0</ele><time>2026-04-26T07:14:35.627Z</time></trkpt><trkpt lat="44.8451136" lon="9.6942195"><ele>262.0</ele><time>2026-04-26T07:14:37.617Z</time></trkpt><trkpt lat="44.8450464" lon="9.6941704"><ele>262.0</ele><time>2026-04-26T07:14:39.624Z</time></trkpt><trkpt lat="44.8449658" lon="9.694125"><ele>262.0</ele><time>2026-04-26T07:14:41.633Z</time></trkpt><trkpt lat="44.8448821" lon="9.6940759"><ele>262.0</ele><time>2026-04-26T07:14:43.625Z</time></trkpt><trkpt lat="44.8448069" lon="9.6940239"><ele>262.0</ele><time>2026-04-26T07:14:45.632Z</time></trkpt><trkpt lat="44.8447298" lon="9.6939693"><ele>262.0</ele><time>2026-04-26T07:14:47.624Z</time></trkpt><trkpt lat="44.8446457" lon="9.6939248"><ele>262.0</ele><time>2026-04-26T07:14:49.626Z</time></trkpt><trkpt lat="44.8445638" lon="9.6938775"><ele>262.0</ele><time>2026-04-26T07:14:51.633Z</time></trkpt><trkpt lat="44.8444921" lon="9.6938293"><ele>262.0</ele><time>2026-04-26T07:14:53.628Z</time></trkpt><trkpt lat="44.8444176" lon="9.6937842"><ele>262.0</ele><time>2026-04-26T07:14:55.629Z</time></trkpt><trkpt lat="44.8443412" lon="9.6937506"><ele>262.0</ele><time>2026-04-26T07:14:57.618Z</time></trkpt><trkpt lat="44.8442714" lon="9.6937143"><ele>262.0</ele><time>2026-04-26T07:14:59.623Z</time></trkpt><trkpt lat="44.844195" lon="9.6936853"><ele>262.3333333333333</ele><time>2026-04-26T07:15:01.625Z</time></trkpt><trkpt lat="44.8441224" lon="9.6936614"><ele>262.66666666666663</ele><time>2026-04-26T07:15:03.622Z</time></trkpt><trkpt lat="44.8440508" lon="9.6936134"><ele>263.0</ele><time>2026-04-26T07:15:05.619Z</time></trkpt><trkpt lat="44.8439833" lon="9.6935659"><ele>263.3333333333333</ele><time>2026-04-26T07:15:07.616Z</time></trkpt><trkpt lat="44.8439194" lon="9.6935239"><ele>263.6666666666667</ele><time>2026-04-26T07:15:09.608Z</time></trkpt><trkpt lat="44.8438459" lon="9.6934735"><ele>264.0</ele><time>2026-04-26T07:15:11.625Z</time></trkpt><trkpt lat="44.8437693" lon="9.6934282"><ele>264.0</ele><time>2026-04-26T07:15:13.618Z</time></trkpt><trkpt lat="44.8437005" lon="9.6933697"><ele>264.0</ele><time>2026-04-26T07:15:15.617Z</time></trkpt><trkpt lat="44.843641" lon="9.6933066"><ele>264.0</ele><time>2026-04-26T07:15:17.62Z</time></trkpt><trkpt lat="44.8435827" lon="9.6932481"><ele>264.0</ele><time>2026-04-26T07:15:19.606Z</time></trkpt><trkpt lat="44.8435322" lon="9.6931684"><ele>264.0</ele><time>2026-04-26T07:15:21.624Z</time></trkpt><trkpt lat="44.8434726" lon="9.6931008"><ele>264.0</ele><time>2026-04-26T07:15:23.608Z</time></trkpt><trkpt lat="44.8434188" lon="9.6930305"><ele>264.2857142857143</ele><time>2026-04-26T07:15:25.619Z</time></trkpt><trkpt lat="44.8433657" lon="9.6929669"><ele>264.57142857142856</ele><time>2026-04-26T07:15:27.626Z</time></trkpt><trkpt lat="44.8432981" lon="9.6928959"><ele>264.8571428571429</ele><time>2026-04-26T07:15:29.621Z</time></trkpt><trkpt lat="44.843241" lon="9.6928225"><ele>265.1428571428571</ele><time>2026-04-26T07:15:31.628Z</time></trkpt><trkpt lat="44.8431872" lon="9.6927566"><ele>265.42857142857144</ele><time>2026-04-26T07:15:33.636Z</time></trkpt><trkpt lat="44.8431373" lon="9.6926985"><ele>265.7142857142857</ele><time>2026-04-26T07:15:35.623Z</time></trkpt><trkpt lat="44.8430809" lon="9.69264"><ele>266.0</ele><time>2026-04-26T07:15:37.631Z</time></trkpt><trkpt lat="44.8430153" lon="9.6925789"><ele>266.0</ele><time>2026-04-26T07:15:39.612Z</time></trkpt><trkpt lat="44.8429548" lon="9.692519"><ele>266.0</ele><time>2026-04-26T07:15:41.626Z</time></trkpt><trkpt lat="44.8429013" lon="9.6924478"><ele>266.0</ele><time>2026-04-26T07:15:43.612Z</time></trkpt><trkpt lat="44.8428529" lon="9.6923682"><ele>266.0</ele><time>2026-04-26T07:15:45.623Z</time></trkpt><trkpt lat="44.8428044" lon="9.6922865"><ele>266.0</ele><time>2026-04-26T07:15:47.618Z</time></trkpt><trkpt lat="44.8427618" lon="9.6922055"><ele>266.0</ele><time>2026-04-26T07:15:49.606Z</time></trkpt><trkpt lat="44.8427227" lon="9.6921183"><ele>266.0</ele><time>2026-04-26T07:15:51.597Z</time></trkpt><trkpt lat="44.8426857" lon="9.6920337"><ele>266.0</ele><time>2026-04-26T07:15:53.611Z</time></trkpt><trkpt lat="44.8426514" lon="9.6919398"><ele>266.0</ele><time>2026-04-26T07:15:55.624Z</time></trkpt><trkpt lat="44.8426181" lon="9.6918423"><ele>266.0</ele><time>2026-04-26T07:15:57.632Z</time></trkpt><trkpt lat="44.8425774" lon="9.6917484"><ele>266.0</ele><time>2026-04-26T07:15:59.634Z</time></trkpt><trkpt lat="44.8425397" lon="9.691662"><ele>266.0</ele><time>2026-04-26T07:16:01.633Z</time></trkpt><trkpt lat="44.8424973" lon="9.6915639"><ele>266.0</ele><time>2026-04-26T07:16:03.622Z</time></trkpt><trkpt lat="44.8424603" lon="9.6914683"><ele>266.5</ele><time>2026-04-26T07:16:05.613Z</time></trkpt><trkpt lat="44.8424227" lon="9.6913735"><ele>267.0</ele><time>2026-04-26T07:16:07.619Z</time></trkpt><trkpt lat="44.8423734" lon="9.6912841"><ele>267.5</ele><time>2026-04-26T07:16:09.631Z</time></trkpt><trkpt lat="44.8423249" lon="9.6911931"><ele>268.0</ele><time>2026-04-26T07:16:11.617Z</time></trkpt><trkpt lat="44.8422684" lon="9.6911047"><ele>268.5</ele><time>2026-04-26T07:16:13.622Z</time></trkpt><trkpt lat="44.8422072" lon="9.6910521"><ele>269.0</ele><time>2026-04-26T07:16:15.622Z</time></trkpt><trkpt lat="44.8421398" lon="9.6909991"><ele>269.0</ele><time>2026-04-26T07:16:17.634Z</time></trkpt><trkpt lat="44.8420774" lon="9.6909569"><ele>269.0</ele><time>2026-04-26T07:16:19.631Z</time></trkpt><trkpt lat="44.8420053" lon="9.6909104"><ele>269.0</ele><time>2026-04-26T07:16:21.626Z</time></trkpt><trkpt lat="44.8419361" lon="9.690862"><ele>269.0</ele><time>2026-04-26T07:16:23.616Z</time></trkpt><trkpt lat="44.8418623" lon="9.6908166"><ele>269.0</ele><time>2026-04-26T07:16:25.62Z</time></trkpt><trkpt lat="44.8417964" lon="9.6907648"><ele>269.0</ele><time>2026-04-26T07:16:27.618Z</time></trkpt><trkpt lat="44.8417366" lon="9.6907129"><ele>270.14285714285717</ele><time>2026-04-26T07:16:29.632Z</time></trkpt><trkpt lat="44.8416729" lon="9.6906689"><ele>271.28571428571433</ele><time>2026-04-26T07:16:31.625Z</time></trkpt><trkpt lat="44.8416121" lon="9.6906326"><ele>272.42857142857144</ele><time>2026-04-26T07:16:33.626Z</time></trkpt><trkpt lat="44.8415464" lon="9.6905717"><ele>273.57142857142856</ele><time>2026-04-26T07:16:35.612Z</time></trkpt><trkpt lat="44.8414809" lon="9.6905129"><ele>274.71428571428567</ele><time>2026-04-26T07:16:37.63Z</time></trkpt><trkpt lat="44.8414221" lon="9.690454"><ele>275.85714285714283</ele><time>2026-04-26T07:16:39.625Z</time></trkpt><trkpt lat="44.8413567" lon="9.6904019"><ele>277.0</ele><time>2026-04-26T07:16:41.628Z</time></trkpt><trkpt lat="44.8412999" lon="9.6903388"><ele>277.0</ele><time>2026-04-26T07:16:43.626Z</time></trkpt><trkpt lat="44.8412376" lon="9.6902859"><ele>277.0</ele><time>2026-04-26T07:16:45.62Z</time></trkpt><trkpt lat="44.8411699" lon="9.6902299"><ele>277.0</ele><time>2026-04-26T07:16:47.622Z</time></trkpt><trkpt lat="44.8411061" lon="9.6901705"><ele>277.0</ele><time>2026-04-26T07:16:49.62Z</time></trkpt><trkpt lat="44.8410344" lon="9.6901134"><ele>277.0</ele><time>2026-04-26T07:16:51.605Z</time></trkpt><trkpt lat="44.8409693" lon="9.6900457"><ele>277.0</ele><time>2026-04-26T07:16:53.629Z</time></trkpt><trkpt lat="44.8409019" lon="9.6899666"><ele>276.66666666666663</ele><time>2026-04-26T07:16:55.625Z</time></trkpt><trkpt lat="44.840832" lon="9.6898989"><ele>276.3333333333333</ele><time>2026-04-26T07:16:57.619Z</time></trkpt><trkpt lat="44.8407699" lon="9.6898297"><ele>276.0</ele><time>2026-04-26T07:16:59.614Z</time></trkpt><trkpt lat="44.8407055" lon="9.6897561"><ele>275.6666666666667</ele><time>2026-04-26T07:17:01.624Z</time></trkpt><trkpt lat="44.8406459" lon="9.689679"><ele>275.33333333333337</ele><time>2026-04-26T07:17:03.626Z</time></trkpt><trkpt lat="44.8405811" lon="9.6895986"><ele>275.0</ele><time>2026-04-26T07:17:05.614Z</time></trkpt><trkpt lat="44.8405235" lon="9.6895148"><ele>275.0</ele><time>2026-04-26T07:17:07.616Z</time></trkpt><trkpt lat="44.840462" lon="9.6894366"><ele>275.0</ele><time>2026-04-26T07:17:09.617Z</time></trkpt><trkpt lat="44.840405" lon="9.6893631"><ele>275.0</ele><time>2026-04-26T07:17:11.62Z</time></trkpt><trkpt lat="44.8403438" lon="9.6892864"><ele>275.0</ele><time>2026-04-26T07:17:13.613Z</time></trkpt><trkpt lat="44.840282" lon="9.6892145"><ele>275.0</ele><time>2026-04-26T07:17:15.623Z</time></trkpt><trkpt lat="44.8402247" lon="9.6891403"><ele>275.0</ele><time>2026-04-26T07:17:17.62Z</time></trkpt><trkpt lat="44.840157" lon="9.6890646"><ele>275.33333333333337</ele><time>2026-04-26T07:17:19.605Z</time></trkpt><trkpt lat="44.8400889" lon="9.688988"><ele>275.6666666666667</ele><time>2026-04-26T07:17:21.62Z</time></trkpt><trkpt lat="44.8400279" lon="9.6889125"><ele>276.0</ele><time>2026-04-26T07:17:23.619Z</time></trkpt><trkpt lat="44.8399683" lon="9.6888374"><ele>276.3333333333333</ele><time>2026-04-26T07:17:25.62Z</time></trkpt><trkpt lat="44.8398971" lon="9.6887658"><ele>276.66666666666663</ele><time>2026-04-26T07:17:27.623Z</time></trkpt><trkpt lat="44.8398353" lon="9.6886984"><ele>277.0</ele><time>2026-04-26T07:17:29.613Z</time></trkpt><trkpt lat="44.8397725" lon="9.6886308"><ele>276.66666666666663</ele><time>2026-04-26T07:17:31.618Z</time></trkpt><trkpt lat="44.8397012" lon="9.6885637"><ele>276.3333333333333</ele><time>2026-04-26T07:17:33.617Z</time></trkpt><trkpt lat="44.8396331" lon="9.6884955"><ele>276.0</ele><time>2026-04-26T07:17:35.624Z</time></trkpt><trkpt lat="44.839571" lon="9.6884276"><ele>275.6666666666667</ele><time>2026-04-26T07:17:37.617Z</time></trkpt><trkpt lat="44.8395055" lon="9.6883655"><ele>275.33333333333337</ele><time>2026-04-26T07:17:39.626Z</time></trkpt><trkpt lat="44.8394372" lon="9.6883083"><ele>275.0</ele><time>2026-04-26T07:17:41.612Z</time></trkpt><trkpt lat="44.8393738" lon="9.6882441"><ele>275.0</ele><time>2026-04-26T07:17:43.627Z</time></trkpt><trkpt lat="44.8393076" lon="9.6881841"><ele>275.0</ele><time>2026-04-26T07:17:45.618Z</time></trkpt><trkpt lat="44.8392397" lon="9.6881159"><ele>275.0</ele><time>2026-04-26T07:17:47.618Z</time></trkpt><trkpt lat="44.8391743" lon="9.6880525"><ele>275.0</ele><time>2026-04-26T07:17:49.619Z</time></trkpt><trkpt lat="44.8391009" lon="9.6879962"><ele>275.0</ele><time>2026-04-26T07:17:51.611Z</time></trkpt><trkpt lat="44.8390282" lon="9.6879442"><ele>275.0</ele><time>2026-04-26T07:17:53.617Z</time></trkpt><trkpt lat="44.8389607" lon="9.6878914"><ele>275.83333333333337</ele><time>2026-04-26T07:17:55.63Z</time></trkpt><trkpt lat="44.838899" lon="9.6878375"><ele>276.6666666666667</ele><time>2026-04-26T07:17:57.639Z</time></trkpt><trkpt lat="44.8388339" lon="9.6877867"><ele>277.5</ele><time>2026-04-26T07:17:59.633Z</time></trkpt><trkpt lat="44.8387679" lon="9.6877344"><ele>278.3333333333333</ele><time>2026-04-26T07:18:01.603Z</time></trkpt><trkpt lat="44.838703" lon="9.6876763"><ele>279.16666666666663</ele><time>2026-04-26T07:18:03.629Z</time></trkpt><trkpt lat="44.8386335" lon="9.6876158"><ele>280.0</ele><time>2026-04-26T07:18:05.624Z</time></trkpt><trkpt lat="44.8385645" lon="9.6875595"><ele>280.16666666666663</ele><time>2026-04-26T07:18:07.628Z</time></trkpt><trkpt lat="44.8384932" lon="9.6874987"><ele>280.3333333333333</ele><time>2026-04-26T07:18:09.606Z</time></trkpt><trkpt lat="44.838434" lon="9.6874371"><ele>280.5</ele><time>2026-04-26T07:18:11.617Z</time></trkpt><trkpt lat="44.8383657" lon="9.6873692"><ele>280.6666666666667</ele><time>2026-04-26T07:18:13.628Z</time></trkpt><trkpt lat="44.8383042" lon="9.6873076"><ele>280.83333333333337</ele><time>2026-04-26T07:18:15.638Z</time></trkpt><trkpt lat="44.8382371" lon="9.6872495"><ele>281.0</ele><time>2026-04-26T07:18:17.637Z</time></trkpt><trkpt lat="44.838175" lon="9.6871869"><ele>281.0</ele><time>2026-04-26T07:18:19.612Z</time></trkpt><trkpt lat="44.8381032" lon="9.6871294"><ele>281.0</ele><time>2026-04-26T07:18:21.619Z</time></trkpt><trkpt lat="44.8380363" lon="9.6870804"><ele>281.0</ele><time>2026-04-26T07:18:23.639Z</time></trkpt><trkpt lat="44.8379661" lon="9.6870342"><ele>281.0</ele><time>2026-04-26T07:18:25.624Z</time></trkpt><trkpt lat="44.8378882" lon="9.6869973"><ele>281.0</ele><time>2026-04-26T07:18:27.625Z</time></trkpt><trkpt lat="44.8378191" lon="9.6869492"><ele>281.0</ele><time>2026-04-26T07:18:29.648Z</time></trkpt><trkpt lat="44.8377439" lon="9.6869059"><ele>281.0</ele><time>2026-04-26T07:18:31.622Z</time></trkpt><trkpt lat="44.8376704" lon="9.6868694"><ele>281.0</ele><time>2026-04-26T07:18:33.624Z</time></trkpt><trkpt lat="44.8375913" lon="9.6868392"><ele>281.0</ele><time>2026-04-26T07:18:35.623Z</time></trkpt><trkpt lat="44.8375081" lon="9.6868021"><ele>281.0</ele><time>2026-04-26T07:18:37.622Z</time></trkpt><trkpt lat="44.8374368" lon="9.6867728"><ele>281.0</ele><time>2026-04-26T07:18:39.623Z</time></trkpt><trkpt lat="44.8373587" lon="9.6867395"><ele>281.0</ele><time>2026-04-26T07:18:41.638Z</time></trkpt><trkpt lat="44.83728" lon="9.6867105"><ele>281.0</ele><time>2026-04-26T07:18:43.635Z</time></trkpt><trkpt lat="44.8372117" lon="9.6866868"><ele>281.0</ele><time>2026-04-26T07:18:45.628Z</time></trkpt><trkpt lat="44.8371337" lon="9.6866579"><ele>281.0</ele><time>2026-04-26T07:18:47.629Z</time></trkpt><trkpt lat="44.8370522" lon="9.686631"><ele>281.0</ele><time>2026-04-26T07:18:49.629Z</time></trkpt><trkpt lat="44.8369616" lon="9.6865855"><ele>281.0</ele><time>2026-04-26T07:18:51.618Z</time></trkpt><trkpt lat="44.836881" lon="9.6865513"><ele>281.0</ele><time>2026-04-26T07:18:53.639Z</time></trkpt><trkpt lat="44.8368105" lon="9.6865282"><ele>281.8571428571429</ele><time>2026-04-26T07:18:55.631Z</time></trkpt><trkpt lat="44.8367331" lon="9.6865218"><ele>282.7142857142857</ele><time>2026-04-26T07:18:57.631Z</time></trkpt><trkpt lat="44.8366538" lon="9.6865208"><ele>283.57142857142856</ele><time>2026-04-26T07:18:59.625Z</time></trkpt><trkpt lat="44.836578" lon="9.6865399"><ele>284.42857142857144</ele><time>2026-04-26T07:19:01.626Z</time></trkpt><trkpt lat="44.8365126" lon="9.6865676"><ele>285.2857142857143</ele><time>2026-04-26T07:19:03.632Z</time></trkpt><trkpt lat="44.8364497" lon="9.6865856"><ele>286.14285714285717</ele><time>2026-04-26T07:19:05.615Z</time></trkpt><trkpt lat="44.8363819" lon="9.6865919"><ele>287.0</ele><time>2026-04-26T07:19:07.634Z</time></trkpt><trkpt lat="44.8362866" lon="9.6866046"><ele>287.0</ele><time>2026-04-26T07:19:10.642Z</time></trkpt><trkpt lat="44.836198" lon="9.6865785"><ele>287.0</ele><time>2026-04-26T07:19:13.632Z</time></trkpt><trkpt lat="44.8361211" lon="9.6865739"><ele>287.0</ele><time>2026-04-26T07:19:16.639Z</time></trkpt><trkpt lat="44.8360409" lon="9.6865873"><ele>287.0</ele><time>2026-04-26T07:19:19.628Z</time></trkpt><trkpt lat="44.8359579" lon="9.686617"><ele>287.0</ele><time>2026-04-26T07:19:22.627Z</time></trkpt><trkpt lat="44.8358929" lon="9.6866486"><ele>287.0</ele><time>2026-04-26T07:19:24.641Z</time></trkpt><trkpt lat="44.8357996" lon="9.6866886"><ele>287.2</ele><time>2026-04-26T07:19:26.63Z</time></trkpt><trkpt lat="44.835701" lon="9.6867331"><ele>287.4</ele><time>2026-04-26T07:19:28.62Z</time></trkpt><trkpt lat="44.835599" lon="9.6867767"><ele>287.6</ele><time>2026-04-26T07:19:30.635Z</time></trkpt><trkpt lat="44.8354956" lon="9.6867707"><ele>287.8</ele><time>2026-04-26T07:19:32.63Z</time></trkpt><trkpt lat="44.8353941" lon="9.6867542"><ele>288.0</ele><time>2026-04-26T07:19:34.642Z</time></trkpt><trkpt lat="44.835303" lon="9.6867211"><ele>288.0</ele><time>2026-04-26T07:19:36.634Z</time></trkpt><trkpt lat="44.8352117" lon="9.6866927"><ele>288.0</ele><time>2026-04-26T07:19:38.626Z</time></trkpt><trkpt lat="44.8351244" lon="9.6866578"><ele>288.0</ele><time>2026-04-26T07:19:40.632Z</time></trkpt><trkpt lat="44.8350519" lon="9.6865964"><ele>288.0</ele><time>2026-04-26T07:19:42.626Z</time></trkpt><trkpt lat="44.8349821" lon="9.6865458"><ele>288.0</ele><time>2026-04-26T07:19:44.638Z</time></trkpt><trkpt lat="44.8349172" lon="9.6864949"><ele>288.0</ele><time>2026-04-26T07:19:46.625Z</time></trkpt><trkpt lat="44.8348522" lon="9.6864383"><ele>288.0</ele><time>2026-04-26T07:19:48.622Z</time></trkpt><trkpt lat="44.8347792" lon="9.6863863"><ele>288.0</ele><time>2026-04-26T07:19:50.619Z</time></trkpt><trkpt lat="44.8347095" lon="9.6863372"><ele>288.0</ele><time>2026-04-26T07:19:52.621Z</time></trkpt><trkpt lat="44.8346189" lon="9.686304"><ele>288.0</ele><time>2026-04-26T07:19:54.623Z</time></trkpt><trkpt lat="44.8345362" lon="9.6862825"><ele>288.0</ele><time>2026-04-26T07:19:56.625Z</time></trkpt><trkpt lat="44.8344581" lon="9.6862602"><ele>288.0</ele><time>2026-04-26T07:19:58.629Z</time></trkpt><trkpt lat="44.8343681" lon="9.6862473"><ele>288.3333333333333</ele><time>2026-04-26T07:20:00.631Z</time></trkpt><trkpt lat="44.8342731" lon="9.686225"><ele>288.6666666666667</ele><time>2026-04-26T07:20:02.634Z</time></trkpt><trkpt lat="44.8341847" lon="9.6861992"><ele>289.0</ele><time>2026-04-26T07:20:04.623Z</time></trkpt><trkpt lat="44.8341049" lon="9.6861632"><ele>289.33333333333337</ele><time>2026-04-26T07:20:06.641Z</time></trkpt><trkpt lat="44.8340242" lon="9.686137"><ele>289.6666666666667</ele><time>2026-04-26T07:20:08.625Z</time></trkpt><trkpt lat="44.8339563" lon="9.686097"><ele>290.0</ele><time>2026-04-26T07:20:10.625Z</time></trkpt><trkpt lat="44.8338755" lon="9.6860599"><ele>290.0</ele><time>2026-04-26T07:20:12.628Z</time></trkpt><trkpt lat="44.8337961" lon="9.6860133"><ele>290.0</ele><time>2026-04-26T07:20:14.626Z</time></trkpt><trkpt lat="44.833721" lon="9.6859766"><ele>290.0</ele><time>2026-04-26T07:20:16.631Z</time></trkpt><trkpt lat="44.8336398" lon="9.6859188"><ele>290.0</ele><time>2026-04-26T07:20:18.614Z</time></trkpt><trkpt lat="44.8335714" lon="9.6858738"><ele>290.0</ele><time>2026-04-26T07:20:20.62Z</time></trkpt><trkpt lat="44.8334944" lon="9.6858308"><ele>290.0</ele><time>2026-04-26T07:20:22.629Z</time></trkpt><trkpt lat="44.8334198" lon="9.6857868"><ele>291.5</ele><time>2026-04-26T07:20:24.623Z</time></trkpt><trkpt lat="44.8333511" lon="9.6857426"><ele>293.0</ele><time>2026-04-26T07:20:26.622Z</time></trkpt><trkpt lat="44.8332747" lon="9.6856853"><ele>294.5</ele><time>2026-04-26T07:20:28.628Z</time></trkpt><trkpt lat="44.8331991" lon="9.6856344"><ele>296.0</ele><time>2026-04-26T07:20:30.626Z</time></trkpt><trkpt lat="44.8331318" lon="9.6855939"><ele>297.5</ele><time>2026-04-26T07:20:32.635Z</time></trkpt><trkpt lat="44.8330654" lon="9.6855362"><ele>299.0</ele><time>2026-04-26T07:20:34.625Z</time></trkpt><trkpt lat="44.8329961" lon="9.6854758"><ele>299.0</ele><time>2026-04-26T07:20:36.621Z</time></trkpt><trkpt lat="44.8329247" lon="9.6854328"><ele>299.0</ele><time>2026-04-26T07:20:38.634Z</time></trkpt><trkpt lat="44.8328501" lon="9.6853763"><ele>299.0</ele><time>2026-04-26T07:20:40.612Z</time></trkpt><trkpt lat="44.8327807" lon="9.6853205"><ele>299.0</ele><time>2026-04-26T07:20:42.624Z</time></trkpt><trkpt lat="44.8327097" lon="9.6852522"><ele>299.0</ele><time>2026-04-26T07:20:44.632Z</time></trkpt><trkpt lat="44.8326462" lon="9.6851978"><ele>299.0</ele><time>2026-04-26T07:20:46.613Z</time></trkpt><trkpt lat="44.8325729" lon="9.6851396"><ele>298.5</ele><time>2026-04-26T07:20:48.614Z</time></trkpt><trkpt lat="44.8325113" lon="9.6850837"><ele>298.0</ele><time>2026-04-26T07:20:50.626Z</time></trkpt><trkpt lat="44.8324423" lon="9.6850271"><ele>297.5</ele><time>2026-04-26T07:20:52.616Z</time></trkpt><trkpt lat="44.8323798" lon="9.6849683"><ele>297.0</ele><time>2026-04-26T07:20:54.62Z</time></trkpt><trkpt lat="44.8323208" lon="9.6849032"><ele>296.5</ele><time>2026-04-26T07:20:56.623Z</time></trkpt><trkpt lat="44.8322647" lon="9.6848339"><ele>296.0</ele><time>2026-04-26T07:20:58.628Z</time></trkpt><trkpt lat="44.8322056" lon="9.6847555"><ele>296.0</ele><time>2026-04-26T07:21:00.608Z</time></trkpt><trkpt lat="44.832148" lon="9.6846872"><ele>296.0</ele><time>2026-04-26T07:21:02.629Z</time></trkpt><trkpt lat="44.832079" lon="9.6846245"><ele>296.0</ele><time>2026-04-26T07:21:04.622Z</time></trkpt><trkpt lat="44.8320224" lon="9.6845671"><ele>296.0</ele><time>2026-04-26T07:21:06.622Z</time></trkpt><trkpt lat="44.8319651" lon="9.6844978"><ele>296.0</ele><time>2026-04-26T07:21:08.637Z</time></trkpt><trkpt lat="44.8318997" lon="9.6844366"><ele>296.0</ele><time>2026-04-26T07:21:10.626Z</time></trkpt><trkpt lat="44.8318336" lon="9.6843835"><ele>296.1666666666667</ele><time>2026-04-26T07:21:12.628Z</time></trkpt><trkpt lat="44.8317711" lon="9.6843187"><ele>296.33333333333337</ele><time>2026-04-26T07:21:14.626Z</time></trkpt><trkpt lat="44.8316979" lon="9.6842683"><ele>296.5</ele><time>2026-04-26T07:21:16.634Z</time></trkpt><trkpt lat="44.8316274" lon="9.6842294"><ele>296.6666666666667</ele><time>2026-04-26T07:21:18.63Z</time></trkpt><trkpt lat="44.831558" lon="9.6841926"><ele>296.8333333333333</ele><time>2026-04-26T07:21:20.633Z</time></trkpt><trkpt lat="44.8314811" lon="9.6841607"><ele>297.0</ele><time>2026-04-26T07:21:22.634Z</time></trkpt><trkpt lat="44.8314177" lon="9.6841241"><ele>297.0</ele><time>2026-04-26T07:21:24.63Z</time></trkpt><trkpt lat="44.8313466" lon="9.6841074"><ele>297.0</ele><time>2026-04-26T07:21:26.627Z</time></trkpt><trkpt lat="44.831281" lon="9.6840867"><ele>297.0</ele><time>2026-04-26T07:21:28.638Z</time></trkpt><trkpt lat="44.8312032" lon="9.6840688"><ele>297.0</ele><time>2026-04-26T07:21:30.618Z</time></trkpt><trkpt lat="44.8311182" lon="9.6840553"><ele>297.0</ele><time>2026-04-26T07:21:32.634Z</time></trkpt><trkpt lat="44.8310368" lon="9.6840394"><ele>297.0</ele><time>2026-04-26T07:21:34.623Z</time></trkpt><trkpt lat="44.8309556" lon="9.6840094"><ele>297.6666666666667</ele><time>2026-04-26T07:21:36.625Z</time></trkpt><trkpt lat="44.8308728" lon="9.6839935"><ele>298.3333333333333</ele><time>2026-04-26T07:21:38.627Z</time></trkpt><trkpt lat="44.8307949" lon="9.6839753"><ele>299.0</ele><time>2026-04-26T07:21:40.633Z</time></trkpt><trkpt lat="44.8307166" lon="9.6839634"><ele>299.66666666666663</ele><time>2026-04-26T07:21:42.625Z</time></trkpt><trkpt lat="44.8306377" lon="9.6839429"><ele>300.3333333333333</ele><time>2026-04-26T07:21:44.611Z</time></trkpt><trkpt lat="44.8305561" lon="9.6839475"><ele>301.0</ele><time>2026-04-26T07:21:46.629Z</time></trkpt><trkpt lat="44.8304793" lon="9.6839634"><ele>301.0</ele><time>2026-04-26T07:21:48.623Z</time></trkpt><trkpt lat="44.8304094" lon="9.6839822"><ele>301.0</ele><time>2026-04-26T07:21:50.64Z</time></trkpt><trkpt lat="44.8303387" lon="9.6840059"><ele>301.0</ele><time>2026-04-26T07:21:52.631Z</time></trkpt><trkpt lat="44.8302739" lon="9.6840362"><ele>301.0</ele><time>2026-04-26T07:21:54.612Z</time></trkpt><trkpt lat="44.8302108" lon="9.6840782"><ele>301.0</ele><time>2026-04-26T07:21:56.622Z</time></trkpt><trkpt lat="44.8301353" lon="9.6841203"><ele>301.0</ele><time>2026-04-26T07:21:58.629Z</time></trkpt><trkpt lat="44.8300676" lon="9.6841569"><ele>301.0</ele><time>2026-04-26T07:22:00.638Z</time></trkpt><trkpt lat="44.8300031" lon="9.6841992"><ele>301.16666666666663</ele><time>2026-04-26T07:22:02.637Z</time></trkpt><trkpt lat="44.8299318" lon="9.684239"><ele>301.3333333333333</ele><time>2026-04-26T07:22:04.599Z</time></trkpt><trkpt lat="44.8298518" lon="9.6842931"><ele>301.5</ele><time>2026-04-26T07:22:06.634Z</time></trkpt><trkpt lat="44.8297794" lon="9.6843434"><ele>301.6666666666667</ele><time>2026-04-26T07:22:08.634Z</time></trkpt><trkpt lat="44.8297161" lon="9.6844001"><ele>301.83333333333337</ele><time>2026-04-26T07:22:10.64Z</time></trkpt><trkpt lat="44.8296465" lon="9.684443"><ele>302.0</ele><time>2026-04-26T07:22:12.645Z</time></trkpt><trkpt lat="44.829573" lon="9.6845005"><ele>302.6666666666667</ele><time>2026-04-26T07:22:14.629Z</time></trkpt><trkpt lat="44.8295105" lon="9.6845598"><ele>303.33333333333337</ele><time>2026-04-26T07:22:16.625Z</time></trkpt><trkpt lat="44.8294409" lon="9.6846207"><ele>304.0</ele><time>2026-04-26T07:22:18.632Z</time></trkpt><trkpt lat="44.8293668" lon="9.6846793"><ele>304.6666666666667</ele><time>2026-04-26T07:22:20.628Z</time></trkpt><trkpt lat="44.8292923" lon="9.6847321"><ele>305.3333333333333</ele><time>2026-04-26T07:22:22.643Z</time></trkpt><trkpt lat="44.8292162" lon="9.6847744"><ele>306.0</ele><time>2026-04-26T07:22:24.636Z</time></trkpt><trkpt lat="44.8291423" lon="9.6848189"><ele>306.0</ele><time>2026-04-26T07:22:26.634Z</time></trkpt><trkpt lat="44.8290701" lon="9.6848409"><ele>306.0</ele><time>2026-04-26T07:22:28.648Z</time></trkpt><trkpt lat="44.8289911" lon="9.6848639"><ele>306.0</ele><time>2026-04-26T07:22:30.637Z</time></trkpt><trkpt lat="44.8289104" lon="9.6848818"><ele>306.0</ele><time>2026-04-26T07:22:32.623Z</time></trkpt><trkpt lat="44.8288432" lon="9.684882"><ele>306.0</ele><time>2026-04-26T07:22:34.632Z</time></trkpt><trkpt lat="44.8287754" lon="9.6848752"><ele>306.0</ele><time>2026-04-26T07:22:36.633Z</time></trkpt><trkpt lat="44.8287138" lon="9.684833"><ele>306.0</ele><time>2026-04-26T07:22:38.621Z</time></trkpt><trkpt lat="44.8286708" lon="9.684724"><ele>306.0</ele><time>2026-04-26T07:22:41.628Z</time></trkpt><trkpt lat="44.8286639" lon="9.6846026"><ele>306.0</ele><time>2026-04-26T07:22:44.624Z</time></trkpt><trkpt lat="44.8286658" lon="9.6845126"><ele>306.0</ele><time>2026-04-26T07:22:46.623Z</time></trkpt><trkpt lat="44.8286661" lon="9.6844187"><ele>306.0</ele><time>2026-04-26T07:22:48.635Z</time></trkpt><trkpt lat="44.828662" lon="9.6843188"><ele>306.0</ele><time>2026-04-26T07:22:50.636Z</time></trkpt><trkpt lat="44.8286444" lon="9.6842072"><ele>306.0</ele><time>2026-04-26T07:22:52.631Z</time></trkpt><trkpt lat="44.8285846" lon="9.6841006"><ele>306.0</ele><time>2026-04-26T07:22:54.624Z</time></trkpt><trkpt lat="44.8285036" lon="9.6840563"><ele>306.0</ele><time>2026-04-26T07:22:56.636Z</time></trkpt><trkpt lat="44.8284299" lon="9.6840495"><ele>306.0</ele><time>2026-04-26T07:22:58.616Z</time></trkpt><trkpt lat="44.8283608" lon="9.6840431"><ele>306.0</ele><time>2026-04-26T07:23:00.624Z</time></trkpt><trkpt lat="44.8282661" lon="9.6840307"><ele>306.0</ele><time>2026-04-26T07:23:03.626Z</time></trkpt><trkpt lat="44.8282052" lon="9.6840049"><ele>306.0</ele><time>2026-04-26T07:23:05.64Z</time></trkpt><trkpt lat="44.8281232" lon="9.6839624"><ele>306.0</ele><time>2026-04-26T07:23:08.636Z</time></trkpt><trkpt lat="44.8280396" lon="9.6839363"><ele>306.0</ele><time>2026-04-26T07:23:11.63Z</time></trkpt><trkpt lat="44.8279797" lon="9.6839006"><ele>306.0</ele><time>2026-04-26T07:23:13.636Z</time></trkpt><trkpt lat="44.8278909" lon="9.6838655"><ele>306.0</ele><time>2026-04-26T07:23:16.633Z</time></trkpt><trkpt lat="44.8278241" lon="9.6838457"><ele>306.0</ele><time>2026-04-26T07:23:18.64Z</time></trkpt><trkpt lat="44.8277555" lon="9.6838096"><ele>306.0</ele><time>2026-04-26T07:23:20.637Z</time></trkpt><trkpt lat="44.8276946" lon="9.6837751"><ele>306.6666666666667</ele><time>2026-04-26T07:23:22.639Z</time></trkpt><trkpt lat="44.8276312" lon="9.683743"><ele>307.3333333333333</ele><time>2026-04-26T07:23:24.602Z</time></trkpt><trkpt lat="44.8275622" lon="9.6837088"><ele>308.0</ele><time>2026-04-26T07:23:26.608Z</time></trkpt><trkpt lat="44.8274796" lon="9.6836609"><ele>308.66666666666663</ele><time>2026-04-26T07:23:29.631Z</time></trkpt><trkpt lat="44.8274124" lon="9.6836127"><ele>309.3333333333333</ele><time>2026-04-26T07:23:31.615Z</time></trkpt><trkpt lat="44.8273417" lon="9.6835707"><ele>310.0</ele><time>2026-04-26T07:23:33.627Z</time></trkpt><trkpt lat="44.8272734" lon="9.6835287"><ele>310.8333333333333</ele><time>2026-04-26T07:23:35.628Z</time></trkpt><trkpt lat="44.8272072" lon="9.6834793"><ele>311.66666666666663</ele><time>2026-04-26T07:23:37.641Z</time></trkpt><trkpt lat="44.8271377" lon="9.6834206"><ele>312.5</ele><time>2026-04-26T07:23:39.632Z</time></trkpt><trkpt lat="44.8270761" lon="9.6833666"><ele>313.3333333333333</ele><time>2026-04-26T07:23:41.628Z</time></trkpt><trkpt lat="44.827005" lon="9.6833141"><ele>314.1666666666667</ele><time>2026-04-26T07:23:43.635Z</time></trkpt><trkpt lat="44.8269289" lon="9.6832699"><ele>315.0</ele><time>2026-04-26T07:23:45.642Z</time></trkpt><trkpt lat="44.8268521" lon="9.6832324"><ele>314.8333333333333</ele><time>2026-04-26T07:23:47.623Z</time></trkpt><trkpt lat="44.826775" lon="9.6832153"><ele>314.6666666666667</ele><time>2026-04-26T07:23:49.624Z</time></trkpt><trkpt lat="44.8266949" lon="9.6832062"><ele>314.5</ele><time>2026-04-26T07:23:51.647Z</time></trkpt><trkpt lat="44.8266146" lon="9.6831875"><ele>314.33333333333337</ele><time>2026-04-26T07:23:53.625Z</time></trkpt><trkpt lat="44.8265352" lon="9.6831805"><ele>314.1666666666667</ele><time>2026-04-26T07:23:55.621Z</time></trkpt><trkpt lat="44.826455" lon="9.6831767"><ele>314.0</ele><time>2026-04-26T07:23:57.628Z</time></trkpt><trkpt lat="44.8263646" lon="9.6831588"><ele>313.99999999999994</ele><time>2026-04-26T07:24:00.627Z</time></trkpt><trkpt lat="44.8262942" lon="9.6831476"><ele>314.0</ele><time>2026-04-26T07:24:02.635Z</time></trkpt><trkpt lat="44.8262241" lon="9.6831206"><ele>314.0</ele><time>2026-04-26T07:24:04.638Z</time></trkpt><trkpt lat="44.8261543" lon="9.6830998"><ele>314.0</ele><time>2026-04-26T07:24:06.627Z</time></trkpt><trkpt lat="44.8260807" lon="9.6830628"><ele>314.0</ele><time>2026-04-26T07:24:08.63Z</time></trkpt><trkpt lat="44.8260075" lon="9.6830285"><ele>313.99999999999994</ele><time>2026-04-26T07:24:10.635Z</time></trkpt><trkpt lat="44.8259374" lon="9.6830008"><ele>314.0</ele><time>2026-04-26T07:24:12.614Z</time></trkpt><trkpt lat="44.8258594" lon="9.6829749"><ele>314.1666666666667</ele><time>2026-04-26T07:24:14.629Z</time></trkpt><trkpt lat="44.8257839" lon="9.6829567"><ele>314.33333333333337</ele><time>2026-04-26T07:24:16.63Z</time></trkpt><trkpt lat="44.8257073" lon="9.6829299"><ele>314.5</ele><time>2026-04-26T07:24:18.636Z</time></trkpt><trkpt lat="44.8256303" lon="9.6829175"><ele>314.6666666666667</ele><time>2026-04-26T07:24:20.632Z</time></trkpt><trkpt lat="44.8255566" lon="9.6828983"><ele>314.8333333333333</ele><time>2026-04-26T07:24:22.636Z</time></trkpt><trkpt lat="44.8254906" lon="9.6828652"><ele>315.0</ele><time>2026-04-26T07:24:24.639Z</time></trkpt><trkpt lat="44.825414" lon="9.682832"><ele>315.0</ele><time>2026-04-26T07:24:26.629Z</time></trkpt><trkpt lat="44.8253459" lon="9.6827753"><ele>315.0</ele><time>2026-04-26T07:24:28.629Z</time></trkpt><trkpt lat="44.8252848" lon="9.6827266"><ele>315.0</ele><time>2026-04-26T07:24:30.635Z</time></trkpt><trkpt lat="44.8252304" lon="9.6826815"><ele>315.0</ele><time>2026-04-26T07:24:32.61Z</time></trkpt><trkpt lat="44.8251658" lon="9.6826155"><ele>315.0</ele><time>2026-04-26T07:24:35.625Z</time></trkpt><trkpt lat="44.8251012" lon="9.6825499"><ele>315.0</ele><time>2026-04-26T07:24:38.63Z</time></trkpt><trkpt lat="44.8250514" lon="9.682494"><ele>315.0</ele><time>2026-04-26T07:24:40.622Z</time></trkpt><trkpt lat="44.8249967" lon="9.6824294"><ele>315.5</ele><time>2026-04-26T07:24:42.644Z</time></trkpt><trkpt lat="44.8249206" lon="9.6823606"><ele>316.0</ele><time>2026-04-26T07:24:44.639Z</time></trkpt><trkpt lat="44.8248563" lon="9.6822922"><ele>316.5</ele><time>2026-04-26T07:24:46.636Z</time></trkpt><trkpt lat="44.8247867" lon="9.6822244"><ele>317.0</ele><time>2026-04-26T07:24:48.633Z</time></trkpt><trkpt lat="44.8247273" lon="9.682157"><ele>317.5</ele><time>2026-04-26T07:24:50.628Z</time></trkpt><trkpt lat="44.824674" lon="9.6820926"><ele>318.0</ele><time>2026-04-26T07:24:52.626Z</time></trkpt><trkpt lat="44.8246266" lon="9.6820323"><ele>318.0</ele><time>2026-04-26T07:24:54.623Z</time></trkpt><trkpt lat="44.824558" lon="9.6819485"><ele>318.0</ele><time>2026-04-26T07:24:57.636Z</time></trkpt><trkpt lat="44.8244946" lon="9.6818601"><ele>318.0</ele><time>2026-04-26T07:25:00.621Z</time></trkpt><trkpt lat="44.8244483" lon="9.6817894"><ele>318.0</ele><time>2026-04-26T07:25:02.64Z</time></trkpt><trkpt lat="44.824401" lon="9.6817082"><ele>318.0</ele><time>2026-04-26T07:25:04.636Z</time></trkpt><trkpt lat="44.8243575" lon="9.681638"><ele>318.0</ele><time>2026-04-26T07:25:06.634Z</time></trkpt><trkpt lat="44.8243086" lon="9.6815493"><ele>318.7142857142857</ele><time>2026-04-26T07:25:08.637Z</time></trkpt><trkpt lat="44.8242658" lon="9.6814806"><ele>319.42857142857144</ele><time>2026-04-26T07:25:10.637Z</time></trkpt><trkpt lat="44.8242215" lon="9.6814102"><ele>320.14285714285717</ele><time>2026-04-26T07:25:12.64Z</time></trkpt><trkpt lat="44.8241801" lon="9.6813367"><ele>320.8571428571429</ele><time>2026-04-26T07:25:14.655Z</time></trkpt><trkpt lat="44.8241249" lon="9.6812757"><ele>321.57142857142856</ele><time>2026-04-26T07:25:16.628Z</time></trkpt><trkpt lat="44.824069" lon="9.6812237"><ele>322.28571428571433</ele><time>2026-04-26T07:25:18.64Z</time></trkpt><trkpt lat="44.8240141" lon="9.6811782"><ele>323.0</ele><time>2026-04-26T07:25:20.628Z</time></trkpt><trkpt lat="44.8239371" lon="9.6811129"><ele>324.28571428571433</ele><time>2026-04-26T07:25:23.629Z</time></trkpt><trkpt lat="44.8238807" lon="9.68107"><ele>325.57142857142856</ele><time>2026-04-26T07:25:25.628Z</time></trkpt><trkpt lat="44.8238086" lon="9.6810299"><ele>326.8571428571429</ele><time>2026-04-26T07:25:27.639Z</time></trkpt><trkpt lat="44.8237342" lon="9.6809941"><ele>328.14285714285717</ele><time>2026-04-26T07:25:29.629Z</time></trkpt><trkpt lat="44.8236588" lon="9.6809718"><ele>329.42857142857144</ele><time>2026-04-26T07:25:31.618Z</time></trkpt><trkpt lat="44.8235901" lon="9.680959"><ele>330.7142857142857</ele><time>2026-04-26T07:25:33.626Z</time></trkpt><trkpt lat="44.8235272" lon="9.6809379"><ele>332.0</ele><time>2026-04-26T07:25:35.629Z</time></trkpt><trkpt lat="44.8234507" lon="9.6809112"><ele>332.0</ele><time>2026-04-26T07:25:37.632Z</time></trkpt><trkpt lat="44.8233769" lon="9.680883"><ele>332.0</ele><time>2026-04-26T07:25:39.628Z</time></trkpt><trkpt lat="44.8233039" lon="9.6808625"><ele>332.0</ele><time>2026-04-26T07:25:41.632Z</time></trkpt><trkpt lat="44.823231" lon="9.6808329"><ele>332.0</ele><time>2026-04-26T07:25:43.621Z</time></trkpt><trkpt lat="44.8231568" lon="9.6808081"><ele>332.0</ele><time>2026-04-26T07:25:45.623Z</time></trkpt><trkpt lat="44.823082" lon="9.6807893"><ele>332.0</ele><time>2026-04-26T07:25:47.624Z</time></trkpt><trkpt lat="44.8230103" lon="9.680771"><ele>332.0</ele><time>2026-04-26T07:25:49.624Z</time></trkpt><trkpt lat="44.8229401" lon="9.6807497"><ele>332.0</ele><time>2026-04-26T07:25:51.606Z</time></trkpt><trkpt lat="44.8228761" lon="9.6807206"><ele>332.0</ele><time>2026-04-26T07:25:53.608Z</time></trkpt><trkpt lat="44.822807" lon="9.6807007"><ele>332.0</ele><time>2026-04-26T07:25:55.621Z</time></trkpt><trkpt lat="44.8227306" lon="9.6806846"><ele>332.0</ele><time>2026-04-26T07:25:57.615Z</time></trkpt><trkpt lat="44.8226585" lon="9.6806609"><ele>332.0</ele><time>2026-04-26T07:25:59.619Z</time></trkpt><trkpt lat="44.8225858" lon="9.6806473"><ele>332.0</ele><time>2026-04-26T07:26:01.622Z</time></trkpt><trkpt lat="44.8225044" lon="9.6806333"><ele>331.5</ele><time>2026-04-26T07:26:03.625Z</time></trkpt><trkpt lat="44.822428" lon="9.6806163"><ele>331.0</ele><time>2026-04-26T07:26:05.633Z</time></trkpt><trkpt lat="44.8223466" lon="9.6806231"><ele>330.5</ele><time>2026-04-26T07:26:07.629Z</time></trkpt><trkpt lat="44.8222685" lon="9.6806039"><ele>330.0</ele><time>2026-04-26T07:26:09.608Z</time></trkpt><trkpt lat="44.8221955" lon="9.6805857"><ele>329.5</ele><time>2026-04-26T07:26:11.64Z</time></trkpt><trkpt lat="44.8221209" lon="9.6805543"><ele>329.0</ele><time>2026-04-26T07:26:13.625Z</time></trkpt><trkpt lat="44.8220581" lon="9.6805077"><ele>329.0</ele><time>2026-04-26T07:26:15.618Z</time></trkpt><trkpt lat="44.8219882" lon="9.6804589"><ele>329.0</ele><time>2026-04-26T07:26:17.63Z</time></trkpt><trkpt lat="44.8219195" lon="9.6803882"><ele>329.0</ele><time>2026-04-26T07:26:19.629Z</time></trkpt><trkpt lat="44.8218531" lon="9.6803186"><ele>329.0</ele><time>2026-04-26T07:26:21.627Z</time></trkpt><trkpt lat="44.8217825" lon="9.6802523"><ele>329.0</ele><time>2026-04-26T07:26:23.622Z</time></trkpt><trkpt lat="44.8217208" lon="9.6801985"><ele>329.0</ele><time>2026-04-26T07:26:25.633Z</time></trkpt><trkpt lat="44.8216568" lon="9.6801681"><ele>330.79999999999995</ele><time>2026-04-26T07:26:27.623Z</time></trkpt><trkpt lat="44.8215866" lon="9.6801363"><ele>332.59999999999997</ele><time>2026-04-26T07:26:29.631Z</time></trkpt><trkpt lat="44.8214883" lon="9.6801053"><ele>334.4</ele><time>2026-04-26T07:26:31.629Z</time></trkpt><trkpt lat="44.8213872" lon="9.6801064"><ele>336.2</ele><time>2026-04-26T07:26:33.63Z</time></trkpt><trkpt lat="44.8212746" lon="9.6801342"><ele>338.0</ele><time>2026-04-26T07:26:35.625Z</time></trkpt><trkpt lat="44.8211786" lon="9.680168"><ele>338.0</ele><time>2026-04-26T07:26:37.637Z</time></trkpt><trkpt lat="44.8210832" lon="9.6802002"><ele>338.0</ele><time>2026-04-26T07:26:39.623Z</time></trkpt><trkpt lat="44.8209941" lon="9.6802173"><ele>338.0</ele><time>2026-04-26T07:26:41.625Z</time></trkpt><trkpt lat="44.8209034" lon="9.68023"><ele>338.0</ele><time>2026-04-26T07:26:43.607Z</time></trkpt><trkpt lat="44.8208109" lon="9.6802432"><ele>338.0</ele><time>2026-04-26T07:26:45.63Z</time></trkpt><trkpt lat="44.8207164" lon="9.6802575"><ele>336.2</ele><time>2026-04-26T07:26:47.63Z</time></trkpt><trkpt lat="44.8206235" lon="9.6802865"><ele>334.4</ele><time>2026-04-26T07:26:49.635Z</time></trkpt><trkpt lat="44.8205341" lon="9.6802961"><ele>332.59999999999997</ele><time>2026-04-26T07:26:51.633Z</time></trkpt><trkpt lat="44.8204496" lon="9.6803085"><ele>330.79999999999995</ele><time>2026-04-26T07:26:53.63Z</time></trkpt><trkpt lat="44.8203633" lon="9.6803263"><ele>329.0</ele><time>2026-04-26T07:26:55.629Z</time></trkpt><trkpt lat="44.8202692" lon="9.6803347"><ele>329.0</ele><time>2026-04-26T07:26:57.623Z</time></trkpt><trkpt lat="44.8201779" lon="9.6803374"><ele>329.0</ele><time>2026-04-26T07:26:59.637Z</time></trkpt><trkpt lat="44.8200987" lon="9.680349"><ele>329.0</ele><time>2026-04-26T07:27:01.633Z</time></trkpt><trkpt lat="44.8200308" lon="9.6803522"><ele>329.0</ele><time>2026-04-26T07:27:03.633Z</time></trkpt><trkpt lat="44.819961" lon="9.6803642"><ele>329.0</ele><time>2026-04-26T07:27:05.627Z</time></trkpt><trkpt lat="44.8198869" lon="9.6803716"><ele>329.0</ele><time>2026-04-26T07:27:07.63Z</time></trkpt><trkpt lat="44.8198185" lon="9.6803919"><ele>329.6666666666667</ele><time>2026-04-26T07:27:09.634Z</time></trkpt><trkpt lat="44.8197425" lon="9.6803963"><ele>330.33333333333337</ele><time>2026-04-26T07:27:11.637Z</time></trkpt><trkpt lat="44.81967" lon="9.6804181"><ele>331.0</ele><time>2026-04-26T07:27:13.63Z</time></trkpt><trkpt lat="44.8195936" lon="9.6804402"><ele>331.6666666666667</ele><time>2026-04-26T07:27:15.632Z</time></trkpt><trkpt lat="44.8195154" lon="9.6804655"><ele>332.3333333333333</ele><time>2026-04-26T07:27:17.63Z</time></trkpt><trkpt lat="44.819437" lon="9.6804751"><ele>333.0</ele><time>2026-04-26T07:27:19.632Z</time></trkpt><trkpt lat="44.8193669" lon="9.6804951"><ele>333.0</ele><time>2026-04-26T07:27:21.637Z</time></trkpt><trkpt lat="44.8192945" lon="9.6805072"><ele>333.0</ele><time>2026-04-26T07:27:23.635Z</time></trkpt><trkpt lat="44.8192197" lon="9.6805176"><ele>333.0</ele><time>2026-04-26T07:27:25.628Z</time></trkpt><trkpt lat="44.8191412" lon="9.6805274"><ele>333.0</ele><time>2026-04-26T07:27:27.614Z</time></trkpt><trkpt lat="44.8190645" lon="9.6805326"><ele>333.0</ele><time>2026-04-26T07:27:29.628Z</time></trkpt><trkpt lat="44.8189876" lon="9.680532"><ele>333.0</ele><time>2026-04-26T07:27:31.636Z</time></trkpt><trkpt lat="44.8189188" lon="9.6805342"><ele>333.0</ele><time>2026-04-26T07:27:33.635Z</time></trkpt><trkpt lat="44.8188447" lon="9.6805221"><ele>333.0</ele><time>2026-04-26T07:27:35.629Z</time></trkpt><trkpt lat="44.8187707" lon="9.6805045"><ele>333.0</ele><time>2026-04-26T07:27:37.633Z</time></trkpt><trkpt lat="44.8186983" lon="9.6804932"><ele>333.0</ele><time>2026-04-26T07:27:39.627Z</time></trkpt><trkpt lat="44.8186007" lon="9.680488"><ele>333.0</ele><time>2026-04-26T07:27:42.618Z</time></trkpt><trkpt lat="44.8185375" lon="9.6804855"><ele>333.0</ele><time>2026-04-26T07:27:44.646Z</time></trkpt><trkpt lat="44.8184707" lon="9.6804731"><ele>333.0</ele><time>2026-04-26T07:27:46.64Z</time></trkpt><trkpt lat="44.8183738" lon="9.6804709"><ele>333.5</ele><time>2026-04-26T07:27:49.629Z</time></trkpt><trkpt lat="44.818309" lon="9.6804632"><ele>334.0</ele><time>2026-04-26T07:27:51.633Z</time></trkpt><trkpt lat="44.8182161" lon="9.6804518"><ele>334.5</ele><time>2026-04-26T07:27:54.613Z</time></trkpt><trkpt lat="44.8181218" lon="9.680438"><ele>335.0</ele><time>2026-04-26T07:27:57.63Z</time></trkpt><trkpt lat="44.8180351" lon="9.6803994"><ele>335.5</ele><time>2026-04-26T07:28:00.639Z</time></trkpt><trkpt lat="44.8179498" lon="9.680359"><ele>336.0</ele><time>2026-04-26T07:28:03.626Z</time></trkpt><trkpt lat="44.8178874" lon="9.6803241"><ele>336.0</ele><time>2026-04-26T07:28:05.633Z</time></trkpt><trkpt lat="44.8178294" lon="9.6802802"><ele>336.0</ele><time>2026-04-26T07:28:07.639Z</time></trkpt><trkpt lat="44.8177729" lon="9.6802396"><ele>336.0</ele><time>2026-04-26T07:28:09.624Z</time></trkpt><trkpt lat="44.8177098" lon="9.680213"><ele>336.0</ele><time>2026-04-26T07:28:11.632Z</time></trkpt><trkpt lat="44.8176492" lon="9.6801702"><ele>336.0</ele><time>2026-04-26T07:28:13.642Z</time></trkpt><trkpt lat="44.81759" lon="9.6801371"><ele>336.0</ele><time>2026-04-26T07:28:15.637Z</time></trkpt><trkpt lat="44.8175096" lon="9.6800947"><ele>336.0</ele><time>2026-04-26T07:28:18.64Z</time></trkpt><trkpt lat="44.817424" lon="9.6800583"><ele>337.5</ele><time>2026-04-26T07:28:21.635Z</time></trkpt><trkpt lat="44.8173626" lon="9.6800249"><ele>339.0</ele><time>2026-04-26T07:28:23.626Z</time></trkpt><trkpt lat="44.8172936" lon="9.6799969"><ele>340.5</ele><time>2026-04-26T07:28:25.633Z</time></trkpt><trkpt lat="44.8172064" lon="9.6799524"><ele>342.0</ele><time>2026-04-26T07:28:28.636Z</time></trkpt><trkpt lat="44.8171232" lon="9.679928"><ele>343.5</ele><time>2026-04-26T07:28:31.626Z</time></trkpt><trkpt lat="44.8170369" lon="9.6799122"><ele>345.0</ele><time>2026-04-26T07:28:34.629Z</time></trkpt><trkpt lat="44.816951" lon="9.6798906"><ele>345.0</ele><time>2026-04-26T07:28:37.63Z</time></trkpt><trkpt lat="44.8168717" lon="9.6798621"><ele>345.0</ele><time>2026-04-26T07:28:40.62Z</time></trkpt><trkpt lat="44.8167997" lon="9.6798583"><ele>345.0</ele><time>2026-04-26T07:28:43.621Z</time></trkpt><trkpt lat="44.8167157" lon="9.6798439"><ele>345.0</ele><time>2026-04-26T07:28:46.629Z</time></trkpt><trkpt lat="44.8166295" lon="9.6798327"><ele>345.0</ele><time>2026-04-26T07:28:49.592Z</time></trkpt><trkpt lat="44.8165565" lon="9.6798084"><ele>345.0</ele><time>2026-04-26T07:28:52.63Z</time></trkpt><trkpt lat="44.8164942" lon="9.6797693"><ele>345.5</ele><time>2026-04-26T07:28:54.627Z</time></trkpt><trkpt lat="44.8164679" lon="9.6796534"><ele>346.0</ele><time>2026-04-26T07:28:57.629Z</time></trkpt><trkpt lat="44.8164846" lon="9.679561"><ele>346.5</ele><time>2026-04-26T07:28:59.62Z</time></trkpt><trkpt lat="44.8165086" lon="9.6794357"><ele>347.0</ele><time>2026-04-26T07:29:02.621Z</time></trkpt><trkpt lat="44.8165188" lon="9.679324"><ele>347.5</ele><time>2026-04-26T07:29:05.62Z</time></trkpt><trkpt lat="44.8164872" lon="9.6792242"><ele>348.0</ele><time>2026-04-26T07:29:08.619Z</time></trkpt><trkpt lat="44.8164384" lon="9.6791311"><ele>348.0</ele><time>2026-04-26T07:29:11.608Z</time></trkpt><trkpt lat="44.8163952" lon="9.6790584"><ele>348.0</ele><time>2026-04-26T07:29:13.623Z</time></trkpt><trkpt lat="44.8163431" lon="9.6789705"><ele>348.0</ele><time>2026-04-26T07:29:16.62Z</time></trkpt><trkpt lat="44.8162999" lon="9.6788931"><ele>348.0</ele><time>2026-04-26T07:29:19.62Z</time></trkpt><trkpt lat="44.8162575" lon="9.6788248"><ele>348.0</ele><time>2026-04-26T07:29:22.626Z</time></trkpt><trkpt lat="44.8162235" lon="9.678749"><ele>348.0</ele><time>2026-04-26T07:29:26.62Z</time></trkpt><trkpt lat="44.8161762" lon="9.6786659"><ele>348.0</ele><time>2026-04-26T07:29:30.621Z</time></trkpt><trkpt lat="44.8161155" lon="9.6786035"><ele>348.2857142857143</ele><time>2026-04-26T07:29:34.611Z</time></trkpt><trkpt lat="44.8160383" lon="9.6785911"><ele>348.57142857142856</ele><time>2026-04-26T07:29:37.631Z</time></trkpt><trkpt lat="44.8159599" lon="9.6785657"><ele>348.8571428571429</ele><time>2026-04-26T07:29:39.61Z</time></trkpt><trkpt lat="44.8158818" lon="9.6785637"><ele>349.1428571428571</ele><time>2026-04-26T07:29:41.625Z</time></trkpt><trkpt lat="44.8158242" lon="9.6785258"><ele>349.42857142857144</ele><time>2026-04-26T07:29:43.627Z</time></trkpt><trkpt lat="44.8157787" lon="9.6784548"><ele>349.7142857142857</ele><time>2026-04-26T07:29:46.628Z</time></trkpt><trkpt lat="44.8157405" lon="9.678372"><ele>350.0</ele><time>2026-04-26T07:29:50.627Z</time></trkpt><trkpt lat="44.8157323" lon="9.6782678"><ele>350.0</ele><time>2026-04-26T07:29:55.629Z</time></trkpt><trkpt lat="44.815702" lon="9.6781801"><ele>350.0</ele><time>2026-04-26T07:29:59.625Z</time></trkpt><trkpt lat="44.8156592" lon="9.678091"><ele>350.0</ele><time>2026-04-26T07:30:03.62Z</time></trkpt><trkpt lat="44.815595" lon="9.6780311"><ele>350.0</ele><time>2026-04-26T07:30:08.612Z</time></trkpt><trkpt lat="44.815524" lon="9.6780216"><ele>350.0</ele><time>2026-04-26T07:30:12.613Z</time></trkpt><trkpt lat="44.8154504" lon="9.6780599"><ele>350.0</ele><time>2026-04-26T07:30:17.628Z</time></trkpt><trkpt lat="44.8153865" lon="9.6780828"><ele>350.0</ele><time>2026-04-26T07:30:21.629Z</time></trkpt><trkpt lat="44.8153218" lon="9.6781149"><ele>350.0</ele><time>2026-04-26T07:30:25.628Z</time></trkpt><trkpt lat="44.8152668" lon="9.6781678"><ele>350.0</ele><time>2026-04-26T07:30:29.614Z</time></trkpt><trkpt lat="44.8151981" lon="9.6782192"><ele>350.0</ele><time>2026-04-26T07:30:34.631Z</time></trkpt><trkpt lat="44.8151293" lon="9.6782274"><ele>350.0</ele><time>2026-04-26T07:30:38.625Z</time></trkpt><trkpt lat="44.8150666" lon="9.6782188"><ele>350.0</ele><time>2026-04-26T07:30:42.641Z</time></trkpt><trkpt lat="44.8150012" lon="9.6782072"><ele>350.0</ele><time>2026-04-26T07:30:46.628Z</time></trkpt><trkpt lat="44.8149349" lon="9.6781819"><ele>350.0</ele><time>2026-04-26T07:30:51.631Z</time></trkpt><trkpt lat="44.8148624" lon="9.6781596"><ele>350.42857142857144</ele><time>2026-04-26T07:30:55.632Z</time></trkpt><trkpt lat="44.8147917" lon="9.6781467"><ele>350.8571428571429</ele><time>2026-04-26T07:30:59.607Z</time></trkpt><trkpt lat="44.814727" lon="9.678121"><ele>351.2857142857143</ele><time>2026-04-26T07:31:03.624Z</time></trkpt><trkpt lat="44.8146539" lon="9.6780991"><ele>351.7142857142857</ele><time>2026-04-26T07:31:07.633Z</time></trkpt><trkpt lat="44.8145834" lon="9.6780684"><ele>352.14285714285717</ele><time>2026-04-26T07:31:11.633Z</time></trkpt><trkpt lat="44.8145119" lon="9.6780672"><ele>352.57142857142856</ele><time>2026-04-26T07:31:15.636Z</time></trkpt><trkpt lat="44.8144408" lon="9.6780547"><ele>353.0</ele><time>2026-04-26T07:31:19.638Z</time></trkpt><trkpt lat="44.8143685" lon="9.678059"><ele>354.0</ele><time>2026-04-26T07:31:23.623Z</time></trkpt><trkpt lat="44.8142928" lon="9.6780625"><ele>355.0</ele><time>2026-04-26T07:31:27.631Z</time></trkpt><trkpt lat="44.8142277" lon="9.6780789"><ele>356.0</ele><time>2026-04-26T07:31:31.638Z</time></trkpt><trkpt lat="44.8141644" lon="9.6780974"><ele>357.0</ele><time>2026-04-26T07:31:35.628Z</time></trkpt><trkpt lat="44.8140986" lon="9.6781211"><ele>358.0</ele><time>2026-04-26T07:31:40.633Z</time></trkpt><trkpt lat="44.8140312" lon="9.67814"><ele>359.0</ele><time>2026-04-26T07:31:45.629Z</time></trkpt><trkpt lat="44.8139562" lon="9.6781683"><ele>360.0</ele><time>2026-04-26T07:31:50.625Z</time></trkpt><trkpt lat="44.8138913" lon="9.6781824"><ele>360.0</ele><time>2026-04-26T07:31:55.642Z</time></trkpt><trkpt lat="44.8138184" lon="9.6782015"><ele>360.0</ele><time>2026-04-26T07:32:01.633Z</time></trkpt><trkpt lat="44.813745" lon="9.6782072"><ele>360.0</ele><time>2026-04-26T07:32:06.643Z</time></trkpt><trkpt lat="44.813682" lon="9.6782178"><ele>360.0</ele><time>2026-04-26T07:32:10.616Z</time></trkpt><trkpt lat="44.8136138" lon="9.6782529"><ele>360.0</ele><time>2026-04-26T07:32:15.629Z</time></trkpt><trkpt lat="44.8135482" lon="9.6783047"><ele>360.0</ele><time>2026-04-26T07:32:20.609Z</time></trkpt><trkpt lat="44.8134878" lon="9.6783563"><ele>360.0</ele><time>2026-04-26T07:32:25.63Z</time></trkpt><trkpt lat="44.8134267" lon="9.6784196"><ele>360.2857142857143</ele><time>2026-04-26T07:32:30.619Z</time></trkpt><trkpt lat="44.8133699" lon="9.6784848"><ele>360.5714285714286</ele><time>2026-04-26T07:32:35.627Z</time></trkpt><trkpt lat="44.8133222" lon="9.6785545"><ele>360.8571428571429</ele><time>2026-04-26T07:32:39.636Z</time></trkpt><trkpt lat="44.8132702" lon="9.6786085"><ele>361.1428571428571</ele><time>2026-04-26T07:32:43.634Z</time></trkpt><trkpt lat="44.8132084" lon="9.678674"><ele>361.42857142857144</ele><time>2026-04-26T07:32:48.624Z</time></trkpt><trkpt lat="44.8131462" lon="9.6787035"><ele>361.7142857142857</ele><time>2026-04-26T07:32:52.629Z</time></trkpt><trkpt lat="44.8130739" lon="9.6787022"><ele>362.0</ele><time>2026-04-26T07:32:57.623Z</time></trkpt><trkpt lat="44.8130102" lon="9.6786971"><ele>362.0</ele><time>2026-04-26T07:33:01.636Z</time></trkpt><trkpt lat="44.8129391" lon="9.6786646"><ele>362.0</ele><time>2026-04-26T07:33:06.629Z</time></trkpt><trkpt lat="44.8128677" lon="9.6786398"><ele>362.0</ele><time>2026-04-26T07:33:11.638Z</time></trkpt><trkpt lat="44.8127981" lon="9.6786102"><ele>362.0</ele><time>2026-04-26T07:33:16.64Z</time></trkpt><trkpt lat="44.812734" lon="9.6785977"><ele>362.0</ele><time>2026-04-26T07:33:20.638Z</time></trkpt><trkpt lat="44.8126607" lon="9.6785648"><ele>362.0</ele><time>2026-04-26T07:33:25.635Z</time></trkpt><trkpt lat="44.8125883" lon="9.6785285"><ele>362.0</ele><time>2026-04-26T07:33:30.629Z</time></trkpt><trkpt lat="44.8125233" lon="9.678504"><ele>365.33333333333337</ele><time>2026-04-26T07:33:35.618Z</time></trkpt><trkpt lat="44.8124585" lon="9.6784668"><ele>368.6666666666667</ele><time>2026-04-26T07:33:40.635Z</time></trkpt><trkpt lat="44.8123892" lon="9.678441"><ele>372.0</ele><time>2026-04-26T07:33:45.632Z</time></trkpt><trkpt lat="44.8123172" lon="9.6783994"><ele>375.3333333333333</ele><time>2026-04-26T07:33:50.632Z</time></trkpt><trkpt lat="44.8122381" lon="9.678383"><ele>378.66666666666663</ele><time>2026-04-26T07:33:55.626Z</time></trkpt><trkpt lat="44.8121628" lon="9.6783483"><ele>382.0</ele><time>2026-04-26T07:34:00.612Z</time></trkpt><trkpt lat="44.8120943" lon="9.6783172"><ele>382.0</ele><time>2026-04-26T07:34:05.635Z</time></trkpt><trkpt lat="44.8120347" lon="9.6782591"><ele>382.0</ele><time>2026-04-26T07:34:10.651Z</time></trkpt><trkpt lat="44.8119704" lon="9.6782217"><ele>382.0</ele><time>2026-04-26T07:34:15.637Z</time></trkpt><trkpt lat="44.8119103" lon="9.6781738"><ele>382.0</ele><time>2026-04-26T07:34:21.628Z</time></trkpt><trkpt lat="44.8118543" lon="9.6781157"><ele>382.0</ele><time>2026-04-26T07:34:26.629Z</time></trkpt><trkpt lat="44.8117963" lon="9.6780484"><ele>382.0</ele><time>2026-04-26T07:34:31.642Z</time></trkpt><trkpt lat="44.8117531" lon="9.6779811"><ele>382.0</ele><time>2026-04-26T07:34:36.63Z</time></trkpt><trkpt lat="44.8117134" lon="9.6778943"><ele>383.8333333333333</ele><time>2026-04-26T07:34:40.634Z</time></trkpt><trkpt lat="44.81169" lon="9.6777949"><ele>385.66666666666663</ele><time>2026-04-26T07:34:44.625Z</time></trkpt><trkpt lat="44.8116612" lon="9.6777053"><ele>387.5</ele><time>2026-04-26T07:34:48.619Z</time></trkpt><trkpt lat="44.8116117" lon="9.6776115"><ele>389.3333333333333</ele><time>2026-04-26T07:34:52.633Z</time></trkpt><trkpt lat="44.8115575" lon="9.6775384"><ele>391.1666666666667</ele><time>2026-04-26T07:34:56.628Z</time></trkpt><trkpt lat="44.8115007" lon="9.6774708"><ele>393.0</ele><time>2026-04-26T07:35:00.624Z</time></trkpt><trkpt lat="44.8114378" lon="9.6774149"><ele>393.42857142857144</ele><time>2026-04-26T07:35:06.622Z</time></trkpt><trkpt lat="44.8113764" lon="9.6773908"><ele>393.8571428571429</ele><time>2026-04-26T07:35:11.626Z</time></trkpt><trkpt lat="44.81131" lon="9.6773572"><ele>394.28571428571433</ele><time>2026-04-26T07:35:17.626Z</time></trkpt><trkpt lat="44.8112518" lon="9.677319"><ele>394.7142857142857</ele><time>2026-04-26T07:35:21.632Z</time></trkpt><trkpt lat="44.8111905" lon="9.6772748"><ele>395.1428571428571</ele><time>2026-04-26T07:35:26.625Z</time></trkpt><trkpt lat="44.8111411" lon="9.6772095"><ele>395.5714285714286</ele><time>2026-04-26T07:35:31.631Z</time></trkpt><trkpt lat="44.8111204" lon="9.6771086"><ele>396.0</ele><time>2026-04-26T07:35:37.633Z</time></trkpt><trkpt lat="44.8111365" lon="9.677022"><ele>397.8571428571429</ele><time>2026-04-26T07:35:42.626Z</time></trkpt><trkpt lat="44.8111676" lon="9.6769334"><ele>399.71428571428567</ele><time>2026-04-26T07:35:47.619Z</time></trkpt><trkpt lat="44.811221" lon="9.6768623"><ele>401.57142857142856</ele><time>2026-04-26T07:35:52.635Z</time></trkpt><trkpt lat="44.811282" lon="9.67681"><ele>403.42857142857144</ele><time>2026-04-26T07:35:57.635Z</time></trkpt><trkpt lat="44.8113493" lon="9.6767691"><ele>405.28571428571433</ele><time>2026-04-26T07:36:02.631Z</time></trkpt><trkpt lat="44.8113973" lon="9.6767039"><ele>407.1428571428571</ele><time>2026-04-26T07:36:07.607Z</time></trkpt><trkpt lat="44.811458" lon="9.6766606"><ele>409.0</ele><time>2026-04-26T07:36:12.617Z</time></trkpt><trkpt lat="44.811502" lon="9.6765864"><ele>409.0</ele><time>2026-04-26T07:36:17.633Z</time></trkpt><trkpt lat="44.8115255" lon="9.676488"><ele>409.0</ele><time>2026-04-26T07:36:23.63Z</time></trkpt><trkpt lat="44.8115474" lon="9.676387"><ele>409.0</ele><time>2026-04-26T07:36:29.61Z</time></trkpt><trkpt lat="44.8115573" lon="9.676293"><ele>409.0</ele><time>2026-04-26T07:36:35.629Z</time></trkpt><trkpt lat="44.81157" lon="9.6762015"><ele>409.0</ele><time>2026-04-26T07:36:40.632Z</time></trkpt><trkpt lat="44.8115647" lon="9.6761118"><ele>409.0</ele><time>2026-04-26T07:36:45.621Z</time></trkpt><trkpt lat="44.8115659" lon="9.6760199"><ele>409.0</ele><time>2026-04-26T07:36:50.626Z</time></trkpt><trkpt lat="44.8115267" lon="9.6759449"><ele>411.57142857142856</ele><time>2026-04-26T07:36:55.618Z</time></trkpt><trkpt lat="44.8114658" lon="9.6758929"><ele>414.14285714285717</ele><time>2026-04-26T07:37:00.628Z</time></trkpt><trkpt lat="44.811398" lon="9.6758522"><ele>416.7142857142857</ele><time>2026-04-26T07:37:06.634Z</time></trkpt><trkpt lat="44.8113391" lon="9.6758022"><ele>419.2857142857143</ele><time>2026-04-26T07:37:12.623Z</time></trkpt><trkpt lat="44.8112703" lon="9.6757912"><ele>421.8571428571429</ele><time>2026-04-26T07:37:18.613Z</time></trkpt><trkpt lat="44.8112017" lon="9.6757887"><ele>424.42857142857144</ele><time>2026-04-26T07:37:23.622Z</time></trkpt><trkpt lat="44.8111322" lon="9.675824"><ele>427.0</ele><time>2026-04-26T07:37:29.625Z</time></trkpt><trkpt lat="44.8110735" lon="9.6758895"><ele>427.0</ele><time>2026-04-26T07:37:35.611Z</time></trkpt><trkpt lat="44.8110284" lon="9.675957"><ele>427.0</ele><time>2026-04-26T07:37:40.633Z</time></trkpt><trkpt lat="44.8109781" lon="9.6760191"><ele>427.0</ele><time>2026-04-26T07:37:46.622Z</time></trkpt><trkpt lat="44.8109349" lon="9.6760952"><ele>427.0</ele><time>2026-04-26T07:37:52.622Z</time></trkpt><trkpt lat="44.8108815" lon="9.6761618"><ele>427.0</ele><time>2026-04-26T07:37:58.634Z</time></trkpt><trkpt lat="44.8108344" lon="9.6762269"><ele>427.0</ele><time>2026-04-26T07:38:03.629Z</time></trkpt><trkpt lat="44.8107908" lon="9.6762957"><ele>427.0</ele><time>2026-04-26T07:38:09.636Z</time></trkpt><trkpt lat="44.8107419" lon="9.6763622"><ele>426.2857142857143</ele><time>2026-04-26T07:38:14.636Z</time></trkpt><trkpt lat="44.810682" lon="9.6764118"><ele>425.57142857142856</ele><time>2026-04-26T07:38:19.627Z</time></trkpt><trkpt lat="44.8106199" lon="9.6764498"><ele>424.8571428571429</ele><time>2026-04-26T07:38:24.619Z</time></trkpt><trkpt lat="44.8105546" lon="9.6764439"><ele>424.1428571428571</ele><time>2026-04-26T07:38:29.63Z</time></trkpt><trkpt lat="44.8104851" lon="9.6764368"><ele>423.42857142857144</ele><time>2026-04-26T07:38:34.593Z</time></trkpt><trkpt lat="44.8104129" lon="9.6764161"><ele>422.7142857142857</ele><time>2026-04-26T07:38:40.594Z</time></trkpt><trkpt lat="44.8103487" lon="9.6763647"><ele>422.0</ele><time>2026-04-26T07:38:46.62Z</time></trkpt><trkpt lat="44.8103121" lon="9.6762866"><ele>422.0</ele><time>2026-04-26T07:38:51.619Z</time></trkpt><trkpt lat="44.8102656" lon="9.6762195"><ele>422.0</ele><time>2026-04-26T07:38:56.622Z</time></trkpt><trkpt lat="44.8102261" lon="9.6761333"><ele>422.0</ele><time>2026-04-26T07:39:02.612Z</time></trkpt><trkpt lat="44.8101922" lon="9.6760406"><ele>422.0</ele><time>2026-04-26T07:39:08.614Z</time></trkpt><trkpt lat="44.8101723" lon="9.6759513"><ele>422.0</ele><time>2026-04-26T07:39:13.609Z</time></trkpt><trkpt lat="44.8101338" lon="9.6758679"><ele>422.0</ele><time>2026-04-26T07:39:18.614Z</time></trkpt><trkpt lat="44.8101043" lon="9.675784"><ele>422.0</ele><time>2026-04-26T07:39:23.636Z</time></trkpt><trkpt lat="44.8100767" lon="9.6756935"><ele>424.14285714285717</ele><time>2026-04-26T07:39:29.619Z</time></trkpt><trkpt lat="44.8100462" lon="9.6756046"><ele>426.28571428571433</ele><time>2026-04-26T07:39:34.627Z</time></trkpt><trkpt lat="44.810016" lon="9.6755176"><ele>428.42857142857144</ele><time>2026-04-26T07:39:39.614Z</time></trkpt><trkpt lat="44.8099779" lon="9.6754251"><ele>430.57142857142856</ele><time>2026-04-26T07:39:44.617Z</time></trkpt><trkpt lat="44.8099462" lon="9.6753328"><ele>432.7142857142857</ele><time>2026-04-26T07:39:49.623Z</time></trkpt><trkpt lat="44.8099138" lon="9.6752445"><ele>434.85714285714283</ele><time>2026-04-26T07:39:53.628Z</time></trkpt><trkpt lat="44.8098728" lon="9.675141"><ele>437.0</ele><time>2026-04-26T07:39:57.614Z</time></trkpt><trkpt lat="44.8098196" lon="9.6750672"><ele>439.66666666666663</ele><time>2026-04-26T07:40:00.629Z</time></trkpt><trkpt lat="44.8097632" lon="9.6749986"><ele>442.3333333333333</ele><time>2026-04-26T07:40:03.625Z</time></trkpt><trkpt lat="44.8097027" lon="9.6749435"><ele>445.0</ele><time>2026-04-26T07:40:06.608Z</time></trkpt><trkpt lat="44.8096371" lon="9.6749185"><ele>447.66666666666663</ele><time>2026-04-26T07:40:09.617Z</time></trkpt><trkpt lat="44.8095385" lon="9.674916"><ele>450.3333333333333</ele><time>2026-04-26T07:40:12.63Z</time></trkpt><trkpt lat="44.8094492" lon="9.6749484"><ele>453.0</ele><time>2026-04-26T07:40:14.607Z</time></trkpt><trkpt lat="44.8093705" lon="9.6749934"><ele>452.3333333333333</ele><time>2026-04-26T07:40:16.623Z</time></trkpt><trkpt lat="44.8093023" lon="9.6750614"><ele>451.66666666666663</ele><time>2026-04-26T07:40:18.621Z</time></trkpt><trkpt lat="44.8092587" lon="9.6751324"><ele>451.0</ele><time>2026-04-26T07:40:20.618Z</time></trkpt><trkpt lat="44.8092242" lon="9.6752581"><ele>450.3333333333333</ele><time>2026-04-26T07:40:23.63Z</time></trkpt><trkpt lat="44.8092124" lon="9.6753785"><ele>449.66666666666663</ele><time>2026-04-26T07:40:26.618Z</time></trkpt><trkpt lat="44.8092089" lon="9.6754854"><ele>449.0</ele><time>2026-04-26T07:40:29.632Z</time></trkpt><trkpt lat="44.8092028" lon="9.6755821"><ele>449.0</ele><time>2026-04-26T07:40:32.618Z</time></trkpt><trkpt lat="44.8091967" lon="9.6756793"><ele>448.99999999999994</ele><time>2026-04-26T07:40:35.607Z</time></trkpt><trkpt lat="44.8091779" lon="9.6757647"><ele>449.0</ele><time>2026-04-26T07:40:38.619Z</time></trkpt><trkpt lat="44.8091421" lon="9.6758543"><ele>449.0</ele><time>2026-04-26T07:40:42.627Z</time></trkpt><trkpt lat="44.809111" lon="9.6759499"><ele>448.99999999999994</ele><time>2026-04-26T07:40:46.601Z</time></trkpt><trkpt lat="44.8090789" lon="9.676038"><ele>449.0</ele><time>2026-04-26T07:40:49.62Z</time></trkpt><trkpt lat="44.8090506" lon="9.6761433"><ele>449.0</ele><time>2026-04-26T07:40:53.633Z</time></trkpt><trkpt lat="44.8090424" lon="9.6762373"><ele>447.71428571428567</ele><time>2026-04-26T07:40:57.622Z</time></trkpt><trkpt lat="44.8090225" lon="9.6763384"><ele>446.4285714285714</ele><time>2026-04-26T07:41:02.635Z</time></trkpt><trkpt lat="44.8089945" lon="9.6764311"><ele>445.1428571428571</ele><time>2026-04-26T07:41:06.62Z</time></trkpt><trkpt lat="44.8089499" lon="9.6765212"><ele>443.85714285714283</ele><time>2026-04-26T07:41:10.632Z</time></trkpt><trkpt lat="44.8089058" lon="9.676608"><ele>442.57142857142856</ele><time>2026-04-26T07:41:14.625Z</time></trkpt><trkpt lat="44.808858" lon="9.6766788"><ele>441.2857142857142</ele><time>2026-04-26T07:41:18.616Z</time></trkpt><trkpt lat="44.8087913" lon="9.6767309"><ele>440.0</ele><time>2026-04-26T07:41:22.635Z</time></trkpt><trkpt lat="44.8087159" lon="9.6767444"><ele>439.99999999999994</ele><time>2026-04-26T07:41:26.633Z</time></trkpt><trkpt lat="44.80865" lon="9.6767336"><ele>440.0</ele><time>2026-04-26T07:41:30.612Z</time></trkpt><trkpt lat="44.8085815" lon="9.6767325"><ele>440.0</ele><time>2026-04-26T07:41:34.63Z</time></trkpt><trkpt lat="44.8085104" lon="9.6767507"><ele>440.0</ele><time>2026-04-26T07:41:38.626Z</time></trkpt><trkpt lat="44.8084473" lon="9.6767831"><ele>440.0</ele><time>2026-04-26T07:41:42.628Z</time></trkpt><trkpt lat="44.8083679" lon="9.6768259"><ele>439.99999999999994</ele><time>2026-04-26T07:41:46.632Z</time></trkpt><trkpt lat="44.808299" lon="9.6768915"><ele>440.0</ele><time>2026-04-26T07:41:50.623Z</time></trkpt><trkpt lat="44.80824" lon="9.6769474"><ele>439.85714285714283</ele><time>2026-04-26T07:41:54.633Z</time></trkpt><trkpt lat="44.8081856" lon="9.6770109"><ele>439.7142857142857</ele><time>2026-04-26T07:41:58.636Z</time></trkpt><trkpt lat="44.8081208" lon="9.6770614"><ele>439.57142857142856</ele><time>2026-04-26T07:42:02.621Z</time></trkpt><trkpt lat="44.808051" lon="9.6770844"><ele>439.42857142857144</ele><time>2026-04-26T07:42:06.629Z</time></trkpt><trkpt lat="44.8079842" lon="9.6770522"><ele>439.2857142857143</ele><time>2026-04-26T07:42:10.638Z</time></trkpt><trkpt lat="44.8079232" lon="9.676993"><ele>439.1428571428571</ele><time>2026-04-26T07:42:14.629Z</time></trkpt><trkpt lat="44.8078779" lon="9.6769236"><ele>439.0</ele><time>2026-04-26T07:42:17.624Z</time></trkpt><trkpt lat="44.8078315" lon="9.6768277"><ele>441.2857142857143</ele><time>2026-04-26T07:42:21.63Z</time></trkpt><trkpt lat="44.8077877" lon="9.6767573"><ele>443.57142857142856</ele><time>2026-04-26T07:42:24.63Z</time></trkpt><trkpt lat="44.8077466" lon="9.6766789"><ele>445.8571428571429</ele><time>2026-04-26T07:42:27.625Z</time></trkpt><trkpt lat="44.8077102" lon="9.6766055"><ele>448.1428571428571</ele><time>2026-04-26T07:42:30.626Z</time></trkpt><trkpt lat="44.8076733" lon="9.67651"><ele>450.42857142857144</ele><time>2026-04-26T07:42:34.626Z</time></trkpt><trkpt lat="44.8076465" lon="9.6764273"><ele>452.7142857142857</ele><time>2026-04-26T07:42:37.629Z</time></trkpt><trkpt lat="44.8076191" lon="9.6763409"><ele>455.0</ele><time>2026-04-26T07:42:40.625Z</time></trkpt><trkpt lat="44.8075981" lon="9.6762543"><ele>454.99999999999994</ele><time>2026-04-26T07:42:43.628Z</time></trkpt><trkpt lat="44.8075684" lon="9.6761535"><ele>455.0</ele><time>2026-04-26T07:42:47.61Z</time></trkpt><trkpt lat="44.8075375" lon="9.6760452"><ele>455.0</ele><time>2026-04-26T07:42:51.625Z</time></trkpt><trkpt lat="44.8075099" lon="9.6759508"><ele>455.0</ele><time>2026-04-26T07:42:55.616Z</time></trkpt><trkpt lat="44.8074684" lon="9.6758594"><ele>454.99999999999994</ele><time>2026-04-26T07:42:59.621Z</time></trkpt><trkpt lat="44.8074174" lon="9.6757923"><ele>455.0</ele><time>2026-04-26T07:43:02.614Z</time></trkpt><trkpt lat="44.8073531" lon="9.6757247"><ele>456.1428571428571</ele><time>2026-04-26T07:43:06.604Z</time></trkpt><trkpt lat="44.8072942" lon="9.6756665"><ele>457.2857142857143</ele><time>2026-04-26T07:43:10.644Z</time></trkpt><trkpt lat="44.8072439" lon="9.6755975"><ele>458.42857142857144</ele><time>2026-04-26T07:43:14.637Z</time></trkpt><trkpt lat="44.8071855" lon="9.6755283"><ele>459.57142857142856</ele><time>2026-04-26T07:43:18.622Z</time></trkpt><trkpt lat="44.8071324" lon="9.6754459"><ele>460.71428571428567</ele><time>2026-04-26T07:43:22.632Z</time></trkpt><trkpt lat="44.8070897" lon="9.6753575"><ele>461.85714285714283</ele><time>2026-04-26T07:43:26.616Z</time></trkpt><trkpt lat="44.8070353" lon="9.6752845"><ele>463.0</ele><time>2026-04-26T07:43:29.614Z</time></trkpt><trkpt lat="44.8069865" lon="9.6752228"><ele>463.57142857142856</ele><time>2026-04-26T07:43:32.612Z</time></trkpt><trkpt lat="44.8069231" lon="9.6751603"><ele>464.1428571428571</ele><time>2026-04-26T07:43:36.625Z</time></trkpt><trkpt lat="44.8068634" lon="9.6751082"><ele>464.71428571428567</ele><time>2026-04-26T07:43:40.621Z</time></trkpt><trkpt lat="44.8068088" lon="9.6750571"><ele>465.2857142857142</ele><time>2026-04-26T07:43:44.599Z</time></trkpt><trkpt lat="44.806752" lon="9.6749975"><ele>465.85714285714283</ele><time>2026-04-26T07:43:48.626Z</time></trkpt><trkpt lat="44.8066929" lon="9.6749424"><ele>466.42857142857133</ele><time>2026-04-26T07:43:52.618Z</time></trkpt><trkpt lat="44.8066371" lon="9.6748966"><ele>466.99999999999994</ele><time>2026-04-26T07:43:56.625Z</time></trkpt><trkpt lat="44.8065789" lon="9.6748437"><ele>466.99999999999994</ele><time>2026-04-26T07:44:00.626Z</time></trkpt><trkpt lat="44.8065198" lon="9.6748015"><ele>467.0</ele><time>2026-04-26T07:44:04.624Z</time></trkpt><trkpt lat="44.8064584" lon="9.6747538"><ele>466.99999999999994</ele><time>2026-04-26T07:44:08.627Z</time></trkpt><trkpt lat="44.8063926" lon="9.6747293"><ele>466.99999999999994</ele><time>2026-04-26T07:44:12.631Z</time></trkpt><trkpt lat="44.8063334" lon="9.6746904"><ele>467.0</ele><time>2026-04-26T07:44:16.629Z</time></trkpt><trkpt lat="44.8062661" lon="9.6746253"><ele>466.99999999999994</ele><time>2026-04-26T07:44:21.625Z</time></trkpt><trkpt lat="44.8062211" lon="9.6745559"><ele>466.99999999999994</ele><time>2026-04-26T07:44:24.628Z</time></trkpt><trkpt lat="44.8061778" lon="9.6744871"><ele>467.99999999999994</ele><time>2026-04-26T07:44:27.607Z</time></trkpt><trkpt lat="44.8061307" lon="9.6744138"><ele>469.0</ele><time>2026-04-26T07:44:30.626Z</time></trkpt><trkpt lat="44.8060775" lon="9.6743536"><ele>469.99999999999994</ele><time>2026-04-26T07:44:33.629Z</time></trkpt><trkpt lat="44.8060212" lon="9.6742922"><ele>470.99999999999994</ele><time>2026-04-26T07:44:36.62Z</time></trkpt><trkpt lat="44.8059722" lon="9.6742308"><ele>472.0</ele><time>2026-04-26T07:44:39.629Z</time></trkpt><trkpt lat="44.8059332" lon="9.6741563"><ele>472.99999999999994</ele><time>2026-04-26T07:44:42.613Z</time></trkpt><trkpt lat="44.8058747" lon="9.6740921"><ele>473.99999999999994</ele><time>2026-04-26T07:44:46.614Z</time></trkpt><trkpt lat="44.8058175" lon="9.6740239"><ele>473.99999999999994</ele><time>2026-04-26T07:44:50.622Z</time></trkpt><trkpt lat="44.8057582" lon="9.6739495"><ele>474.0</ele><time>2026-04-26T07:44:54.626Z</time></trkpt><trkpt lat="44.8057161" lon="9.673875"><ele>473.99999999999994</ele><time>2026-04-26T07:44:58.622Z</time></trkpt><trkpt lat="44.8056633" lon="9.6737984"><ele>473.99999999999994</ele><time>2026-04-26T07:45:03.626Z</time></trkpt><trkpt lat="44.8056372" lon="9.6737065"><ele>474.0</ele><time>2026-04-26T07:45:07.627Z</time></trkpt><trkpt lat="44.8056276" lon="9.6735981"><ele>473.99999999999994</ele><time>2026-04-26T07:45:12.626Z</time></trkpt><trkpt lat="44.8056182" lon="9.6735053"><ele>473.99999999999994</ele><time>2026-04-26T07:45:16.624Z</time></trkpt><trkpt lat="44.8056124" lon="9.6734055"><ele>476.2857142857142</ele><time>2026-04-26T07:45:20.631Z</time></trkpt><trkpt lat="44.8056113" lon="9.6733114"><ele>478.57142857142856</ele><time>2026-04-26T07:45:24.61Z</time></trkpt><trkpt lat="44.805594" lon="9.6732217"><ele>480.85714285714283</ele><time>2026-04-26T07:45:28.631Z</time></trkpt><trkpt lat="44.8055815" lon="9.67312"><ele>483.1428571428571</ele><time>2026-04-26T07:45:32.632Z</time></trkpt><trkpt lat="44.805558" lon="9.6730052"><ele>485.42857142857144</ele><time>2026-04-26T07:45:36.621Z</time></trkpt><trkpt lat="44.8055335" lon="9.672901"><ele>487.7142857142857</ele><time>2026-04-26T07:45:39.626Z</time></trkpt><trkpt lat="44.8055053" lon="9.6728171"><ele>490.0</ele><time>2026-04-26T07:45:42.631Z</time></trkpt><trkpt lat="44.8054629" lon="9.6727312"><ele>488.83333333333337</ele><time>2026-04-26T07:45:45.62Z</time></trkpt><trkpt lat="44.8054137" lon="9.6726318"><ele>487.6666666666667</ele><time>2026-04-26T07:45:49.622Z</time></trkpt><trkpt lat="44.8053611" lon="9.6725586"><ele>486.5</ele><time>2026-04-26T07:45:52.63Z</time></trkpt><trkpt lat="44.8052977" lon="9.6724895"><ele>485.33333333333337</ele><time>2026-04-26T07:45:55.608Z</time></trkpt><trkpt lat="44.8052238" lon="9.6724367"><ele>484.1666666666667</ele><time>2026-04-26T07:45:58.63Z</time></trkpt><trkpt lat="44.8051536" lon="9.672372"><ele>483.0</ele><time>2026-04-26T07:46:01.642Z</time></trkpt><trkpt lat="44.8050829" lon="9.6723066"><ele>483.0</ele><time>2026-04-26T07:46:04.619Z</time></trkpt><trkpt lat="44.8050267" lon="9.6722474"><ele>483.0</ele><time>2026-04-26T07:46:07.625Z</time></trkpt><trkpt lat="44.8049656" lon="9.672185"><ele>483.0</ele><time>2026-04-26T07:46:10.62Z</time></trkpt><trkpt lat="44.8048989" lon="9.6721122"><ele>483.0</ele><time>2026-04-26T07:46:13.619Z</time></trkpt><trkpt lat="44.8048461" lon="9.6720613"><ele>483.0</ele><time>2026-04-26T07:46:15.628Z</time></trkpt><trkpt lat="44.804793" lon="9.6720016"><ele>483.0</ele><time>2026-04-26T07:46:17.63Z</time></trkpt><trkpt lat="44.8047103" lon="9.6719533"><ele>483.0</ele><time>2026-04-26T07:46:20.623Z</time></trkpt><trkpt lat="44.8046221" lon="9.6719717"><ele>483.0</ele><time>2026-04-26T07:46:23.62Z</time></trkpt><trkpt lat="44.8045484" lon="9.6720268"><ele>483.0</ele><time>2026-04-26T07:46:26.62Z</time></trkpt><trkpt lat="44.8044842" lon="9.6721051"><ele>483.0</ele><time>2026-04-26T07:46:29.624Z</time></trkpt><trkpt lat="44.8044284" lon="9.6721794"><ele>483.0</ele><time>2026-04-26T07:46:32.621Z</time></trkpt><trkpt lat="44.8043826" lon="9.6722522"><ele>483.0</ele><time>2026-04-26T07:46:35.637Z</time></trkpt><trkpt lat="44.8043407" lon="9.6723356"><ele>483.1666666666667</ele><time>2026-04-26T07:46:38.622Z</time></trkpt><trkpt lat="44.8042933" lon="9.6724002"><ele>483.33333333333337</ele><time>2026-04-26T07:46:41.61Z</time></trkpt><trkpt lat="44.8042485" lon="9.6724962"><ele>483.5</ele><time>2026-04-26T07:46:45.613Z</time></trkpt><trkpt lat="44.8041933" lon="9.6725815"><ele>483.6666666666667</ele><time>2026-04-26T07:46:49.616Z</time></trkpt><trkpt lat="44.8041308" lon="9.6726517"><ele>483.83333333333337</ele><time>2026-04-26T07:46:52.597Z</time></trkpt><trkpt lat="44.8040663" lon="9.6727151"><ele>484.0</ele><time>2026-04-26T07:46:54.619Z</time></trkpt><trkpt lat="44.8039822" lon="9.6727598"><ele>484.00000000000006</ele><time>2026-04-26T07:46:56.622Z</time></trkpt><trkpt lat="44.8038902" lon="9.6727664"><ele>484.0</ele><time>2026-04-26T07:46:58.625Z</time></trkpt><trkpt lat="44.8038226" lon="9.6727062"><ele>484.0</ele><time>2026-04-26T07:47:00.616Z</time></trkpt><trkpt lat="44.8037797" lon="9.6726257"><ele>484.0</ele><time>2026-04-26T07:47:03.621Z</time></trkpt><trkpt lat="44.8037398" lon="9.672539"><ele>484.00000000000006</ele><time>2026-04-26T07:47:07.621Z</time></trkpt><trkpt lat="44.803708" lon="9.6724522"><ele>484.0</ele><time>2026-04-26T07:47:11.624Z</time></trkpt><trkpt lat="44.8036584" lon="9.672365"><ele>484.0</ele><time>2026-04-26T07:47:16.624Z</time></trkpt><trkpt lat="44.8036164" lon="9.6722989"><ele>483.99999999999994</ele><time>2026-04-26T07:47:20.615Z</time></trkpt><trkpt lat="44.803568" lon="9.6722396"><ele>484.0</ele><time>2026-04-26T07:47:24.63Z</time></trkpt><trkpt lat="44.8035228" lon="9.672175"><ele>484.0</ele><time>2026-04-26T07:47:28.623Z</time></trkpt><trkpt lat="44.8034636" lon="9.6720979"><ele>483.99999999999994</ele><time>2026-04-26T07:47:33.624Z</time></trkpt><trkpt lat="44.8034077" lon="9.6720439"><ele>484.0</ele><time>2026-04-26T07:47:37.625Z</time></trkpt><trkpt lat="44.8033637" lon="9.6719798"><ele>484.0</ele><time>2026-04-26T07:47:41.625Z</time></trkpt><trkpt lat="44.8033025" lon="9.6719104"><ele>486.85714285714283</ele><time>2026-04-26T07:47:46.626Z</time></trkpt><trkpt lat="44.8032439" lon="9.6718709"><ele>489.71428571428567</ele><time>2026-04-26T07:47:51.611Z</time></trkpt><trkpt lat="44.8031756" lon="9.6718383"><ele>492.57142857142856</ele><time>2026-04-26T07:47:57.625Z</time></trkpt><trkpt lat="44.8031327" lon="9.6717611"><ele>495.42857142857144</ele><time>2026-04-26T07:48:02.623Z</time></trkpt><trkpt lat="44.803155" lon="9.671671"><ele>498.2857142857143</ele><time>2026-04-26T07:48:08.596Z</time></trkpt><trkpt lat="44.8032133" lon="9.6716161"><ele>501.1428571428571</ele><time>2026-04-26T07:48:12.626Z</time></trkpt><trkpt lat="44.8032733" lon="9.6715772"><ele>504.0</ele><time>2026-04-26T07:48:16.624Z</time></trkpt><trkpt lat="44.8033409" lon="9.6715389"><ele>504.0</ele><time>2026-04-26T07:48:21.616Z</time></trkpt><trkpt lat="44.8033749" lon="9.6714494"><ele>504.0</ele><time>2026-04-26T07:48:26.624Z</time></trkpt><trkpt lat="44.8033372" lon="9.6713744"><ele>504.0</ele><time>2026-04-26T07:48:31.629Z</time></trkpt><trkpt lat="44.8032809" lon="9.671333"><ele>504.0</ele><time>2026-04-26T07:48:35.62Z</time></trkpt><trkpt lat="44.8032092" lon="9.6712992"><ele>504.0</ele><time>2026-04-26T07:48:41.621Z</time></trkpt><trkpt lat="44.8031444" lon="9.6712756"><ele>504.0</ele><time>2026-04-26T07:48:46.618Z</time></trkpt><trkpt lat="44.8030716" lon="9.671254"><ele>504.0</ele><time>2026-04-26T07:48:52.597Z</time></trkpt><trkpt lat="44.8030086" lon="9.6712157"><ele>504.0</ele><time>2026-04-26T07:48:56.61Z</time></trkpt><trkpt lat="44.8029758" lon="9.6711325"><ele>504.0</ele><time>2026-04-26T07:49:01.626Z</time></trkpt><trkpt lat="44.8030055" lon="9.6710504"><ele>504.0</ele><time>2026-04-26T07:49:06.617Z</time></trkpt><trkpt lat="44.8030486" lon="9.6709815"><ele>504.0</ele><time>2026-04-26T07:49:12.624Z</time></trkpt><trkpt lat="44.8031074" lon="9.6709466"><ele>504.0</ele><time>2026-04-26T07:49:17.623Z</time></trkpt><trkpt lat="44.8031724" lon="9.6709132"><ele>504.0</ele><time>2026-04-26T07:49:22.624Z</time></trkpt><trkpt lat="44.8032355" lon="9.6708868"><ele>504.0</ele><time>2026-04-26T07:49:27.624Z</time></trkpt><trkpt lat="44.8033065" lon="9.6708665"><ele>505.2857142857143</ele><time>2026-04-26T07:49:33.625Z</time></trkpt><trkpt lat="44.8033738" lon="9.670839"><ele>506.57142857142856</ele><time>2026-04-26T07:49:38.622Z</time></trkpt><trkpt lat="44.8034429" lon="9.6708173"><ele>507.8571428571429</ele><time>2026-04-26T07:49:44.62Z</time></trkpt><trkpt lat="44.80351" lon="9.6707941"><ele>509.14285714285717</ele><time>2026-04-26T07:49:50.613Z</time></trkpt><trkpt lat="44.8035802" lon="9.6707608"><ele>510.42857142857144</ele><time>2026-04-26T07:49:55.61Z</time></trkpt><trkpt lat="44.8036437" lon="9.6707349"><ele>511.7142857142858</ele><time>2026-04-26T07:50:00.625Z</time></trkpt><trkpt lat="44.8037131" lon="9.6706965"><ele>513.0</ele><time>2026-04-26T07:50:05.621Z</time></trkpt><trkpt lat="44.8037745" lon="9.6706614"><ele>513.0000000000001</ele><time>2026-04-26T07:50:10.601Z</time></trkpt><trkpt lat="44.8038434" lon="9.6706076"><ele>513.0</ele><time>2026-04-26T07:50:16.62Z</time></trkpt><trkpt lat="44.8039037" lon="9.6705749"><ele>513.0</ele><time>2026-04-26T07:50:21.618Z</time></trkpt><trkpt lat="44.8039596" lon="9.6705295"><ele>513.0</ele><time>2026-04-26T07:50:27.598Z</time></trkpt><trkpt lat="44.8040181" lon="9.6704834"><ele>513.0</ele><time>2026-04-26T07:50:32.616Z</time></trkpt><trkpt lat="44.8040691" lon="9.6704298"><ele>513.0000000000001</ele><time>2026-04-26T07:50:37.633Z</time></trkpt><trkpt lat="44.8041251" lon="9.6703793"><ele>513.0</ele><time>2026-04-26T07:50:43.627Z</time></trkpt><trkpt lat="44.8041927" lon="9.6703364"><ele>514.8571428571429</ele><time>2026-04-26T07:50:49.62Z</time></trkpt><trkpt lat="44.8042489" lon="9.6702732"><ele>516.7142857142858</ele><time>2026-04-26T07:50:54.628Z</time></trkpt><trkpt lat="44.8043004" lon="9.6702189"><ele>518.5714285714286</ele><time>2026-04-26T07:50:59.612Z</time></trkpt><trkpt lat="44.804331" lon="9.6701322"><ele>520.4285714285714</ele><time>2026-04-26T07:51:05.62Z</time></trkpt><trkpt lat="44.8043575" lon="9.6700431"><ele>522.2857142857142</ele><time>2026-04-26T07:51:10.617Z</time></trkpt><trkpt lat="44.8043776" lon="9.6699529"><ele>524.1428571428571</ele><time>2026-04-26T07:51:15.629Z</time></trkpt><trkpt lat="44.8043825" lon="9.6698605"><ele>526.0</ele><time>2026-04-26T07:51:20.602Z</time></trkpt><trkpt lat="44.804401" lon="9.6697642"><ele>526.0</ele><time>2026-04-26T07:51:25.622Z</time></trkpt><trkpt lat="44.8044176" lon="9.6696616"><ele>526.0</ele><time>2026-04-26T07:51:30.621Z</time></trkpt><trkpt lat="44.8044309" lon="9.6695611"><ele>526.0</ele><time>2026-04-26T07:51:35.618Z</time></trkpt><trkpt lat="44.8044476" lon="9.6694718"><ele>526.0</ele><time>2026-04-26T07:51:40.628Z</time></trkpt><trkpt lat="44.8044745" lon="9.6693859"><ele>526.0</ele><time>2026-04-26T07:51:45.615Z</time></trkpt><trkpt lat="44.8044951" lon="9.6692951"><ele>526.0</ele><time>2026-04-26T07:51:50.621Z</time></trkpt><trkpt lat="44.8045094" lon="9.669204"><ele>526.0</ele><time>2026-04-26T07:51:55.631Z</time></trkpt><trkpt lat="44.8045325" lon="9.6691206"><ele>528.7142857142857</ele><time>2026-04-26T07:52:00.618Z</time></trkpt><trkpt lat="44.8045556" lon="9.6690284"><ele>531.4285714285713</ele><time>2026-04-26T07:52:05.622Z</time></trkpt><trkpt lat="44.8045769" lon="9.6689441"><ele>534.1428571428571</ele><time>2026-04-26T07:52:10.612Z</time></trkpt><trkpt lat="44.8046141" lon="9.6688585"><ele>536.8571428571429</ele><time>2026-04-26T07:52:15.605Z</time></trkpt><trkpt lat="44.8046361" lon="9.6687736"><ele>539.5714285714287</ele><time>2026-04-26T07:52:21.6Z</time></trkpt><trkpt lat="44.8046779" lon="9.668686"><ele>542.2857142857143</ele><time>2026-04-26T07:52:26.619Z</time></trkpt><trkpt lat="44.8047313" lon="9.6686189"><ele>545.0</ele><time>2026-04-26T07:52:31.612Z</time></trkpt><trkpt lat="44.8047961" lon="9.6685822"><ele>546.8571428571429</ele><time>2026-04-26T07:52:37.616Z</time></trkpt><trkpt lat="44.8048605" lon="9.6685651"><ele>548.7142857142858</ele><time>2026-04-26T07:52:42.609Z</time></trkpt><trkpt lat="44.8049287" lon="9.6685379"><ele>550.5714285714286</ele><time>2026-04-26T07:52:47.624Z</time></trkpt><trkpt lat="44.8050014" lon="9.668549"><ele>552.4285714285714</ele><time>2026-04-26T07:52:53.62Z</time></trkpt><trkpt lat="44.8050715" lon="9.6685776"><ele>554.2857142857142</ele><time>2026-04-26T07:52:59.629Z</time></trkpt><trkpt lat="44.805135" lon="9.6686051"><ele>556.1428571428571</ele><time>2026-04-26T07:53:04.625Z</time></trkpt><trkpt lat="44.8052006" lon="9.6686479"><ele>558.0</ele><time>2026-04-26T07:53:09.612Z</time></trkpt><trkpt lat="44.8052673" lon="9.6686847"><ele>559.4285714285713</ele><time>2026-04-26T07:53:14.616Z</time></trkpt><trkpt lat="44.8053237" lon="9.6687245"><ele>560.8571428571429</ele><time>2026-04-26T07:53:19.619Z</time></trkpt><trkpt lat="44.8053872" lon="9.668767"><ele>562.2857142857142</ele><time>2026-04-26T07:53:24.619Z</time></trkpt><trkpt lat="44.8054481" lon="9.6687932"><ele>563.7142857142857</ele><time>2026-04-26T07:53:29.626Z</time></trkpt><trkpt lat="44.8055128" lon="9.6688181"><ele>565.1428571428571</ele><time>2026-04-26T07:53:34.609Z</time></trkpt><trkpt lat="44.8055719" lon="9.6688785"><ele>566.5714285714286</ele><time>2026-04-26T07:54:52.626Z</time></trkpt><trkpt lat="44.8056224" lon="9.6689511"><ele>568.0</ele><time>2026-04-26T07:54:57.62Z</time></trkpt><trkpt lat="44.8056534" lon="9.6690312"><ele>568.0</ele><time>2026-04-26T07:55:02.628Z</time></trkpt><trkpt lat="44.8056751" lon="9.6691312"><ele>568.0</ele><time>2026-04-26T07:55:08.617Z</time></trkpt><trkpt lat="44.8057126" lon="9.6692065"><ele>568.0</ele><time>2026-04-26T07:55:12.621Z</time></trkpt><trkpt lat="44.8057621" lon="9.6692684"><ele>568.0</ele><time>2026-04-26T07:55:16.625Z</time></trkpt><trkpt lat="44.8057984" lon="9.6693561"><ele>568.0</ele><time>2026-04-26T07:55:21.608Z</time></trkpt><trkpt lat="44.8058519" lon="9.669408"><ele>568.0</ele><time>2026-04-26T07:55:25.629Z</time></trkpt><trkpt lat="44.8058971" lon="9.6694709"><ele>568.0</ele><time>2026-04-26T07:55:30.6Z</time></trkpt><trkpt lat="44.805956" lon="9.669518"><ele>567.1428571428571</ele><time>2026-04-26T07:55:35.608Z</time></trkpt><trkpt lat="44.8060136" lon="9.6695775"><ele>566.2857142857142</ele><time>2026-04-26T07:55:40.627Z</time></trkpt><trkpt lat="44.806075" lon="9.6696254"><ele>565.4285714285714</ele><time>2026-04-26T07:55:45.625Z</time></trkpt><trkpt lat="44.8061335" lon="9.6696793"><ele>564.5714285714286</ele><time>2026-04-26T07:55:50.615Z</time></trkpt><trkpt lat="44.8061965" lon="9.669697"><ele>563.7142857142858</ele><time>2026-04-26T07:55:55.611Z</time></trkpt><trkpt lat="44.8062667" lon="9.6696742"><ele>562.8571428571429</ele><time>2026-04-26T07:56:00.617Z</time></trkpt><trkpt lat="44.8063296" lon="9.6696151"><ele>562.0</ele><time>2026-04-26T07:56:05.621Z</time></trkpt><trkpt lat="44.8063789" lon="9.6695567"><ele>562.0000000000001</ele><time>2026-04-26T07:56:09.615Z</time></trkpt><trkpt lat="44.8064285" lon="9.6694979"><ele>562.0</ele><time>2026-04-26T07:56:13.615Z</time></trkpt><trkpt lat="44.8064831" lon="9.6694458"><ele>562.0</ele><time>2026-04-26T07:56:18.627Z</time></trkpt><trkpt lat="44.8065443" lon="9.6694156"><ele>562.0</ele><time>2026-04-26T07:56:23.622Z</time></trkpt><trkpt lat="44.8066106" lon="9.6693996"><ele>562.0</ele><time>2026-04-26T07:56:28.622Z</time></trkpt><trkpt lat="44.8066845" lon="9.6693974"><ele>562.0000000000001</ele><time>2026-04-26T07:56:34.615Z</time></trkpt><trkpt lat="44.8067503" lon="9.6693977"><ele>562.0</ele><time>2026-04-26T07:56:39.617Z</time></trkpt><trkpt lat="44.8067767" lon="9.6693156"><ele>564.7142857142858</ele><time>2026-04-26T07:56:44.608Z</time></trkpt><trkpt lat="44.8067638" lon="9.6692286"><ele>567.4285714285714</ele><time>2026-04-26T07:56:49.599Z</time></trkpt><trkpt lat="44.8067107" lon="9.6691647"><ele>570.1428571428571</ele><time>2026-04-26T07:56:54.612Z</time></trkpt><trkpt lat="44.8066556" lon="9.6691"><ele>572.8571428571429</ele><time>2026-04-26T07:56:59.611Z</time></trkpt><trkpt lat="44.8066002" lon="9.6690379"><ele>575.5714285714286</ele><time>2026-04-26T07:57:04.613Z</time></trkpt><trkpt lat="44.8065444" lon="9.6689929"><ele>578.2857142857143</ele><time>2026-04-26T07:57:09.613Z</time></trkpt><trkpt lat="44.8064822" lon="9.6689391"><ele>581.0</ele><time>2026-04-26T07:57:14.598Z</time></trkpt><trkpt lat="44.8064245" lon="9.6688991"><ele>581.0</ele><time>2026-04-26T07:57:19.612Z</time></trkpt><trkpt lat="44.8063526" lon="9.6689003"><ele>581.0</ele><time>2026-04-26T07:57:24.616Z</time></trkpt><trkpt lat="44.8062779" lon="9.6689104"><ele>581.0</ele><time>2026-04-26T07:57:29.627Z</time></trkpt><trkpt lat="44.8062125" lon="9.6688865"><ele>581.0</ele><time>2026-04-26T07:57:35.622Z</time></trkpt><trkpt lat="44.8061612" lon="9.6688121"><ele>581.0</ele><time>2026-04-26T07:57:41.618Z</time></trkpt><trkpt lat="44.8061508" lon="9.6687241"><ele>581.0</ele><time>2026-04-26T07:57:46.628Z</time></trkpt><trkpt lat="44.8061322" lon="9.668622"><ele>581.0</ele><time>2026-04-26T07:57:52.598Z</time></trkpt><trkpt lat="44.8061034" lon="9.668532"><ele>583.5714285714286</ele><time>2026-04-26T07:57:57.625Z</time></trkpt><trkpt lat="44.8060764" lon="9.668441"><ele>586.1428571428571</ele><time>2026-04-26T07:58:02.603Z</time></trkpt><trkpt lat="44.8061048" lon="9.668348"><ele>588.7142857142858</ele><time>2026-04-26T07:58:07.621Z</time></trkpt><trkpt lat="44.8061535" lon="9.6682824"><ele>591.2857142857142</ele><time>2026-04-26T07:58:12.6Z</time></trkpt><trkpt lat="44.8062204" lon="9.6682859"><ele>593.8571428571429</ele><time>2026-04-26T07:58:17.62Z</time></trkpt><trkpt lat="44.8062876" lon="9.6682851"><ele>596.4285714285714</ele><time>2026-04-26T07:58:22.635Z</time></trkpt><trkpt lat="44.8063582" lon="9.6682826"><ele>599.0</ele><time>2026-04-26T07:58:28.62Z</time></trkpt><trkpt lat="44.806425" lon="9.6682741"><ele>599.0</ele><time>2026-04-26T07:58:33.623Z</time></trkpt><trkpt lat="44.8064927" lon="9.6682983"><ele>599.0</ele><time>2026-04-26T07:58:38.622Z</time></trkpt><trkpt lat="44.8065557" lon="9.668307"><ele>599.0</ele><time>2026-04-26T07:58:43.623Z</time></trkpt><trkpt lat="44.8066162" lon="9.6682546"><ele>599.0</ele><time>2026-04-26T07:58:48.603Z</time></trkpt><trkpt lat="44.8066357" lon="9.6681612"><ele>599.0</ele><time>2026-04-26T07:58:53.612Z</time></trkpt><trkpt lat="44.8066016" lon="9.6680756"><ele>599.0</ele><time>2026-04-26T07:58:58.624Z</time></trkpt><trkpt lat="44.8065518" lon="9.6680178"><ele>599.0</ele><time>2026-04-26T07:59:02.618Z</time></trkpt><trkpt lat="44.8065116" lon="9.6679323"><ele>599.0</ele><time>2026-04-26T07:59:07.62Z</time></trkpt><trkpt lat="44.8064795" lon="9.6678408"><ele>599.0</ele><time>2026-04-26T07:59:13.617Z</time></trkpt><trkpt lat="44.8064603" lon="9.6677435"><ele>599.0</ele><time>2026-04-26T07:59:18.624Z</time></trkpt><trkpt lat="44.8064474" lon="9.6676354"><ele>599.0</ele><time>2026-04-26T07:59:23.637Z</time></trkpt><trkpt lat="44.8064349" lon="9.6675358"><ele>599.0</ele><time>2026-04-26T07:59:28.629Z</time></trkpt><trkpt lat="44.8064278" lon="9.6674371"><ele>599.0</ele><time>2026-04-26T07:59:33.621Z</time></trkpt><trkpt lat="44.8064111" lon="9.6673497"><ele>599.0</ele><time>2026-04-26T07:59:38.623Z</time></trkpt><trkpt lat="44.8064065" lon="9.6672488"><ele>600.4285714285714</ele><time>2026-04-26T07:59:43.622Z</time></trkpt><trkpt lat="44.8064082" lon="9.6671447"><ele>601.8571428571429</ele><time>2026-04-26T07:59:48.619Z</time></trkpt><trkpt lat="44.8063969" lon="9.6670573"><ele>603.2857142857142</ele><time>2026-04-26T07:59:52.623Z</time></trkpt><trkpt lat="44.8063961" lon="9.6669612"><ele>604.7142857142858</ele><time>2026-04-26T07:59:57.625Z</time></trkpt><trkpt lat="44.8063927" lon="9.6668612"><ele>606.1428571428571</ele><time>2026-04-26T08:00:02.622Z</time></trkpt><trkpt lat="44.8063937" lon="9.6667525"><ele>607.5714285714286</ele><time>2026-04-26T08:00:08.606Z</time></trkpt><trkpt lat="44.8063951" lon="9.6666597"><ele>609.0</ele><time>2026-04-26T08:00:13.608Z</time></trkpt><trkpt lat="44.8063876" lon="9.6665551"><ele>609.0</ele><time>2026-04-26T08:00:18.629Z</time></trkpt><trkpt lat="44.8063855" lon="9.6664541"><ele>609.0</ele><time>2026-04-26T08:00:23.624Z</time></trkpt><trkpt lat="44.8063541" lon="9.6663554"><ele>609.0</ele><time>2026-04-26T08:00:28.625Z</time></trkpt><trkpt lat="44.8063311" lon="9.666264"><ele>609.0</ele><time>2026-04-26T08:00:34.62Z</time></trkpt><trkpt lat="44.8062849" lon="9.6661795"><ele>609.0</ele><time>2026-04-26T08:00:39.625Z</time></trkpt><trkpt lat="44.8062373" lon="9.6661008"><ele>609.0</ele><time>2026-04-26T08:00:44.628Z</time></trkpt><trkpt lat="44.8061962" lon="9.6660277"><ele>609.0</ele><time>2026-04-26T08:00:48.628Z</time></trkpt><trkpt lat="44.8061644" lon="9.6659418"><ele>610.1428571428571</ele><time>2026-04-26T08:00:53.622Z</time></trkpt><trkpt lat="44.8061289" lon="9.6658537"><ele>611.2857142857142</ele><time>2026-04-26T08:00:58.627Z</time></trkpt><trkpt lat="44.8061074" lon="9.6657521"><ele>612.4285714285714</ele><time>2026-04-26T08:01:03.63Z</time></trkpt><trkpt lat="44.806085" lon="9.6656691"><ele>613.5714285714286</ele><time>2026-04-26T08:01:07.628Z</time></trkpt><trkpt lat="44.8060542" lon="9.6655697"><ele>614.7142857142857</ele><time>2026-04-26T08:01:13.619Z</time></trkpt><trkpt lat="44.80601" lon="9.6654849"><ele>615.8571428571429</ele><time>2026-04-26T08:01:18.619Z</time></trkpt><trkpt lat="44.805955" lon="9.6654322"><ele>617.0</ele><time>2026-04-26T08:01:23.624Z</time></trkpt><trkpt lat="44.8058992" lon="9.6653815"><ele>617.0</ele><time>2026-04-26T08:01:27.638Z</time></trkpt><trkpt lat="44.8058608" lon="9.665298"><ele>617.0</ele><time>2026-04-26T08:01:32.625Z</time></trkpt><trkpt lat="44.8058418" lon="9.6652052"><ele>617.0</ele><time>2026-04-26T08:01:37.617Z</time></trkpt><trkpt lat="44.8058201" lon="9.6651055"><ele>617.0</ele><time>2026-04-26T08:01:42.628Z</time></trkpt><trkpt lat="44.8057916" lon="9.6650099"><ele>617.0</ele><time>2026-04-26T08:01:47.627Z</time></trkpt><trkpt lat="44.8057602" lon="9.6649224"><ele>617.0</ele><time>2026-04-26T08:01:52.628Z</time></trkpt><trkpt lat="44.8057238" lon="9.6648443"><ele>617.0</ele><time>2026-04-26T08:01:56.625Z</time></trkpt><trkpt lat="44.805672" lon="9.6647904"><ele>617.5714285714286</ele><time>2026-04-26T08:02:00.624Z</time></trkpt><trkpt lat="44.8056319" lon="9.6647133"><ele>618.1428571428571</ele><time>2026-04-26T08:02:04.613Z</time></trkpt><trkpt lat="44.8055998" lon="9.6646306"><ele>618.7142857142857</ele><time>2026-04-26T08:02:09.624Z</time></trkpt><trkpt lat="44.8055953" lon="9.6645358"><ele>619.2857142857142</ele><time>2026-04-26T08:02:14.625Z</time></trkpt><trkpt lat="44.8055973" lon="9.6644363"><ele>619.8571428571429</ele><time>2026-04-26T08:02:19.619Z</time></trkpt><trkpt lat="44.8056016" lon="9.6643426"><ele>620.4285714285713</ele><time>2026-04-26T08:02:23.619Z</time></trkpt><trkpt lat="44.8055888" lon="9.6642376"><ele>621.0</ele><time>2026-04-26T08:02:28.632Z</time></trkpt><trkpt lat="44.8055875" lon="9.6641475"><ele>621.5714285714286</ele><time>2026-04-26T08:02:32.622Z</time></trkpt><trkpt lat="44.8055843" lon="9.6640348"><ele>622.1428571428571</ele><time>2026-04-26T08:02:37.629Z</time></trkpt><trkpt lat="44.8055934" lon="9.6639337"><ele>622.7142857142858</ele><time>2026-04-26T08:02:42.63Z</time></trkpt><trkpt lat="44.8055859" lon="9.6638446"><ele>623.2857142857142</ele><time>2026-04-26T08:02:46.634Z</time></trkpt><trkpt lat="44.8055969" lon="9.6637468"><ele>623.8571428571429</ele><time>2026-04-26T08:02:51.619Z</time></trkpt><trkpt lat="44.8056067" lon="9.6636389"><ele>624.4285714285714</ele><time>2026-04-26T08:02:56.623Z</time></trkpt><trkpt lat="44.80561" lon="9.6635361"><ele>625.0</ele><time>2026-04-26T08:08:16.62Z</time></trkpt><trkpt lat="44.8055807" lon="9.663439"><ele>627.1428571428572</ele><time>2026-04-26T08:08:22.619Z</time></trkpt><trkpt lat="44.805552" lon="9.6633476"><ele>629.2857142857143</ele><time>2026-04-26T08:08:27.623Z</time></trkpt><trkpt lat="44.8055227" lon="9.66326"><ele>631.4285714285714</ele><time>2026-04-26T08:08:32.635Z</time></trkpt><trkpt lat="44.8054709" lon="9.6631979"><ele>633.5714285714287</ele><time>2026-04-26T08:08:37.62Z</time></trkpt><trkpt lat="44.8054031" lon="9.6631538"><ele>635.7142857142858</ele><time>2026-04-26T08:08:42.62Z</time></trkpt><trkpt lat="44.8053481" lon="9.6631084"><ele>637.8571428571429</ele><time>2026-04-26T08:08:46.621Z</time></trkpt><trkpt lat="44.8052876" lon="9.6630662"><ele>640.0</ele><time>2026-04-26T08:08:52.594Z</time></trkpt><trkpt lat="44.805237" lon="9.6629936"><ele>640.0</ele><time>2026-04-26T08:08:59.607Z</time></trkpt><trkpt lat="44.8051961" lon="9.6629184"><ele>640.0</ele><time>2026-04-26T08:09:05.627Z</time></trkpt><trkpt lat="44.8051524" lon="9.6628244"><ele>640.0</ele><time>2026-04-26T08:09:11.621Z</time></trkpt><trkpt lat="44.8051129" lon="9.6627443"><ele>640.0</ele><time>2026-04-26T08:09:16.628Z</time></trkpt><trkpt lat="44.8050766" lon="9.6626678"><ele>640.0</ele><time>2026-04-26T08:09:21.62Z</time></trkpt><trkpt lat="44.80503" lon="9.6626063"><ele>640.0</ele><time>2026-04-26T08:09:26.614Z</time></trkpt><trkpt lat="44.8049913" lon="9.6625317"><ele>640.0</ele><time>2026-04-26T08:09:31.62Z</time></trkpt><trkpt lat="44.8049681" lon="9.662436"><ele>642.0</ele><time>2026-04-26T08:09:36.622Z</time></trkpt><trkpt lat="44.8049348" lon="9.6623464"><ele>644.0</ele><time>2026-04-26T08:09:42.628Z</time></trkpt><trkpt lat="44.8048979" lon="9.6622653"><ele>646.0</ele><time>2026-04-26T08:09:47.622Z</time></trkpt><trkpt lat="44.8048852" lon="9.6621644"><ele>648.0</ele><time>2026-04-26T08:09:53.63Z</time></trkpt><trkpt lat="44.8048807" lon="9.6620681"><ele>650.0</ele><time>2026-04-26T08:09:59.619Z</time></trkpt><trkpt lat="44.8048699" lon="9.6619592"><ele>652.0</ele><time>2026-04-26T08:10:04.612Z</time></trkpt><trkpt lat="44.8048504" lon="9.6618658"><ele>654.0</ele><time>2026-04-26T08:10:09.633Z</time></trkpt><trkpt lat="44.8048333" lon="9.6617688"><ele>655.1428571428571</ele><time>2026-04-26T08:10:14.608Z</time></trkpt><trkpt lat="44.8048054" lon="9.6616806"><ele>656.2857142857143</ele><time>2026-04-26T08:10:19.617Z</time></trkpt><trkpt lat="44.8047881" lon="9.6615802"><ele>657.4285714285714</ele><time>2026-04-26T08:10:24.633Z</time></trkpt><trkpt lat="44.8047992" lon="9.6614888"><ele>658.5714285714286</ele><time>2026-04-26T08:10:29.621Z</time></trkpt><trkpt lat="44.804805" lon="9.6613895"><ele>659.7142857142857</ele><time>2026-04-26T08:10:34.609Z</time></trkpt><trkpt lat="44.8048477" lon="9.6613019"><ele>660.8571428571429</ele><time>2026-04-26T08:10:39.611Z</time></trkpt><trkpt lat="44.8048711" lon="9.6612011"><ele>662.0</ele><time>2026-04-26T08:10:44.621Z</time></trkpt><trkpt lat="44.8048866" lon="9.6610983"><ele>662.0</ele><time>2026-04-26T08:10:50.609Z</time></trkpt><trkpt lat="44.8048908" lon="9.6609975"><ele>662.0</ele><time>2026-04-26T08:10:55.634Z</time></trkpt><trkpt lat="44.8048883" lon="9.6608922"><ele>662.0</ele><time>2026-04-26T08:11:00.626Z</time></trkpt><trkpt lat="44.8048672" lon="9.6607977"><ele>662.0</ele><time>2026-04-26T08:11:05.621Z</time></trkpt><trkpt lat="44.8048314" lon="9.6607208"><ele>662.0</ele><time>2026-04-26T08:11:09.62Z</time></trkpt><trkpt lat="44.8047892" lon="9.6606541"><ele>662.0</ele><time>2026-04-26T08:11:13.628Z</time></trkpt><trkpt lat="44.8047376" lon="9.6605923"><ele>662.0</ele><time>2026-04-26T08:11:17.619Z</time></trkpt><trkpt lat="44.8046864" lon="9.6605254"><ele>662.0</ele><time>2026-04-26T08:11:21.619Z</time></trkpt><trkpt lat="44.8046528" lon="9.6604449"><ele>662.0</ele><time>2026-04-26T08:12:08.621Z</time></trkpt><trkpt lat="44.8046838" lon="9.660365"><ele>662.0</ele><time>2026-04-26T08:12:11.61Z</time></trkpt><trkpt lat="44.8047022" lon="9.6602499"><ele>662.0</ele><time>2026-04-26T08:12:13.628Z</time></trkpt><trkpt lat="44.8047094" lon="9.6601576"><ele>662.0</ele><time>2026-04-26T08:12:15.621Z</time></trkpt><trkpt lat="44.8047242" lon="9.6600572"><ele>662.0</ele><time>2026-04-26T08:14:15.626Z</time></trkpt><trkpt lat="44.8047402" lon="9.6599675"><ele>662.0</ele><time>2026-04-26T08:14:18.62Z</time></trkpt><trkpt lat="44.8047626" lon="9.6598793"><ele>660.4000000000001</ele><time>2026-04-26T08:14:20.613Z</time></trkpt><trkpt lat="44.8047808" lon="9.6597854"><ele>658.8000000000001</ele><time>2026-04-26T08:14:22.632Z</time></trkpt><trkpt lat="44.8047675" lon="9.6596533"><ele>657.2</ele><time>2026-04-26T08:14:24.627Z</time></trkpt><trkpt lat="44.8047494" lon="9.6595303"><ele>655.6</ele><time>2026-04-26T08:14:26.613Z</time></trkpt><trkpt lat="44.8047021" lon="9.6594003"><ele>654.0</ele><time>2026-04-26T08:14:28.635Z</time></trkpt><trkpt lat="44.8046643" lon="9.6592802"><ele>653.2</ele><time>2026-04-26T08:14:30.615Z</time></trkpt><trkpt lat="44.8046301" lon="9.6591659"><ele>652.4000000000001</ele><time>2026-04-26T08:14:32.616Z</time></trkpt><trkpt lat="44.8045935" lon="9.6590574"><ele>651.6</ele><time>2026-04-26T08:14:34.626Z</time></trkpt><trkpt lat="44.8045533" lon="9.6589554"><ele>650.8</ele><time>2026-04-26T08:14:36.621Z</time></trkpt><trkpt lat="44.804551" lon="9.6588167"><ele>650.0</ele><time>2026-04-26T08:14:38.613Z</time></trkpt><trkpt lat="44.8045823" lon="9.6586895"><ele>652.6</ele><time>2026-04-26T08:14:40.624Z</time></trkpt><trkpt lat="44.8046326" lon="9.6586151"><ele>655.2</ele><time>2026-04-26T08:14:42.617Z</time></trkpt><trkpt lat="44.8047077" lon="9.6585648"><ele>657.8</ele><time>2026-04-26T08:14:45.617Z</time></trkpt><trkpt lat="44.8048067" lon="9.6585317"><ele>660.4</ele><time>2026-04-26T08:14:48.629Z</time></trkpt><trkpt lat="44.8048924" lon="9.6585153"><ele>663.0</ele><time>2026-04-26T08:14:50.624Z</time></trkpt><trkpt lat="44.8049933" lon="9.6584726"><ele>663.0</ele><time>2026-04-26T08:14:52.616Z</time></trkpt><trkpt lat="44.8051077" lon="9.6584091"><ele>663.0</ele><time>2026-04-26T08:14:54.625Z</time></trkpt><trkpt lat="44.8052246" lon="9.6583638"><ele>663.0</ele><time>2026-04-26T08:14:56.623Z</time></trkpt><trkpt lat="44.8053531" lon="9.6583581"><ele>663.0</ele><time>2026-04-26T08:14:58.617Z</time></trkpt><trkpt lat="44.8054175" lon="9.6583726"><ele>663.0</ele><time>2026-04-26T08:14:59.622Z</time></trkpt><trkpt lat="44.8055268" lon="9.6584011"><ele>662.4</ele><time>2026-04-26T08:15:01.621Z</time></trkpt><trkpt lat="44.8056315" lon="9.65839"><ele>661.8</ele><time>2026-04-26T08:15:03.615Z</time></trkpt><trkpt lat="44.8057491" lon="9.6583624"><ele>661.2</ele><time>2026-04-26T08:15:05.616Z</time></trkpt><trkpt lat="44.8058128" lon="9.6583648"><ele>660.6</ele><time>2026-04-26T08:15:06.615Z</time></trkpt><trkpt lat="44.8058732" lon="9.6583902"><ele>660.0</ele><time>2026-04-26T08:15:07.621Z</time></trkpt><trkpt lat="44.8059798" lon="9.6584472"><ele>660.0</ele><time>2026-04-26T08:15:09.62Z</time></trkpt><trkpt lat="44.8060352" lon="9.6584902"><ele>660.0</ele><time>2026-04-26T08:15:10.628Z</time></trkpt><trkpt lat="44.8061562" lon="9.6585529"><ele>660.0</ele><time>2026-04-26T08:15:12.618Z</time></trkpt><trkpt lat="44.8062396" lon="9.6585873"><ele>660.0</ele><time>2026-04-26T08:15:14.61Z</time></trkpt><trkpt lat="44.8063187" lon="9.6585958"><ele>660.0</ele><time>2026-04-26T08:15:16.625Z</time></trkpt><trkpt lat="44.8064085" lon="9.6586062"><ele>660.0</ele><time>2026-04-26T08:15:18.618Z</time></trkpt><trkpt lat="44.8065038" lon="9.6586334"><ele>660.0</ele><time>2026-04-26T08:15:20.605Z</time></trkpt><trkpt lat="44.8066042" lon="9.658655"><ele>660.0</ele><time>2026-04-26T08:15:22.596Z</time></trkpt><trkpt lat="44.806714" lon="9.6586497"><ele>660.0</ele><time>2026-04-26T08:15:24.616Z</time></trkpt><trkpt lat="44.8068032" lon="9.6586009"><ele>660.0</ele><time>2026-04-26T08:15:26.619Z</time></trkpt><trkpt lat="44.8068908" lon="9.6585212"><ele>660.0</ele><time>2026-04-26T08:15:28.622Z</time></trkpt><trkpt lat="44.8069695" lon="9.6584449"><ele>656.8</ele><time>2026-04-26T08:15:30.63Z</time></trkpt><trkpt lat="44.8070619" lon="9.6583788"><ele>653.6</ele><time>2026-04-26T08:15:32.617Z</time></trkpt><trkpt lat="44.8071601" lon="9.658322"><ele>650.4000000000001</ele><time>2026-04-26T08:15:34.621Z</time></trkpt><trkpt lat="44.8072594" lon="9.658269"><ele>647.2</ele><time>2026-04-26T08:15:36.633Z</time></trkpt><trkpt lat="44.8073557" lon="9.6582105"><ele>644.0</ele><time>2026-04-26T08:15:38.608Z</time></trkpt><trkpt lat="44.8074295" lon="9.6580797"><ele>644.0</ele><time>2026-04-26T08:15:40.612Z</time></trkpt><trkpt lat="44.8074338" lon="9.6579229"><ele>644.0</ele><time>2026-04-26T08:15:42.613Z</time></trkpt><trkpt lat="44.8074018" lon="9.6578443"><ele>644.0</ele><time>2026-04-26T08:15:43.624Z</time></trkpt><trkpt lat="44.8073371" lon="9.6577127"><ele>644.0</ele><time>2026-04-26T08:15:45.622Z</time></trkpt><trkpt lat="44.8072961" lon="9.6575609"><ele>644.0</ele><time>2026-04-26T08:15:47.617Z</time></trkpt><trkpt lat="44.8073225" lon="9.6573958"><ele>644.8000000000001</ele><time>2026-04-26T08:15:49.63Z</time></trkpt><trkpt lat="44.8074031" lon="9.6572787"><ele>645.6</ele><time>2026-04-26T08:15:51.613Z</time></trkpt><trkpt lat="44.8074808" lon="9.6571731"><ele>646.4</ele><time>2026-04-26T08:15:53.627Z</time></trkpt><trkpt lat="44.8075524" lon="9.6570268"><ele>647.2</ele><time>2026-04-26T08:15:55.631Z</time></trkpt><trkpt lat="44.8075784" lon="9.6569258"><ele>648.0</ele><time>2026-04-26T08:15:56.63Z</time></trkpt><trkpt lat="44.8076142" lon="9.6568341"><ele>648.3333333333334</ele><time>2026-04-26T08:15:57.626Z</time></trkpt><trkpt lat="44.8076505" lon="9.6567471"><ele>648.6666666666666</ele><time>2026-04-26T08:15:58.613Z</time></trkpt><trkpt lat="44.8076819" lon="9.6566576"><ele>649.0</ele><time>2026-04-26T08:15:59.626Z</time></trkpt><trkpt lat="44.8077159" lon="9.6565807"><ele>649.3333333333333</ele><time>2026-04-26T08:16:00.632Z</time></trkpt><trkpt lat="44.8077945" lon="9.6564451"><ele>649.6666666666666</ele><time>2026-04-26T08:16:02.62Z</time></trkpt><trkpt lat="44.8078658" lon="9.6563146"><ele>650.0</ele><time>2026-04-26T08:16:04.618Z</time></trkpt><trkpt lat="44.8078995" lon="9.6561871"><ele>642.8</ele><time>2026-04-26T08:16:06.624Z</time></trkpt><trkpt lat="44.8078903" lon="9.656046"><ele>635.6</ele><time>2026-04-26T08:16:08.631Z</time></trkpt><trkpt lat="44.8078398" lon="9.6559198"><ele>628.4</ele><time>2026-04-26T08:16:10.627Z</time></trkpt><trkpt lat="44.8077737" lon="9.6557839"><ele>621.2</ele><time>2026-04-26T08:16:12.622Z</time></trkpt><trkpt lat="44.8077049" lon="9.6556546"><ele>614.0</ele><time>2026-04-26T08:16:14.622Z</time></trkpt><trkpt lat="44.807702" lon="9.6554996"><ele>614.0</ele><time>2026-04-26T08:16:16.627Z</time></trkpt><trkpt lat="44.8077653" lon="9.655372"><ele>614.0</ele><time>2026-04-26T08:16:18.633Z</time></trkpt><trkpt lat="44.807847" lon="9.655266"><ele>614.0</ele><time>2026-04-26T08:16:20.623Z</time></trkpt><trkpt lat="44.8079006" lon="9.6551225"><ele>614.0</ele><time>2026-04-26T08:16:22.625Z</time></trkpt><trkpt lat="44.8079301" lon="9.654967"><ele>614.1666666666666</ele><time>2026-04-26T08:16:24.622Z</time></trkpt><trkpt lat="44.8079425" lon="9.6548103"><ele>614.3333333333333</ele><time>2026-04-26T08:16:26.63Z</time></trkpt><trkpt lat="44.8079553" lon="9.6546463"><ele>614.5</ele><time>2026-04-26T08:16:28.613Z</time></trkpt><trkpt lat="44.8079639" lon="9.654558"><ele>614.6666666666666</ele><time>2026-04-26T08:16:29.638Z</time></trkpt><trkpt lat="44.8079778" lon="9.654471"><ele>614.8333333333334</ele><time>2026-04-26T08:16:30.628Z</time></trkpt><trkpt lat="44.8080049" lon="9.6543908"><ele>615.0</ele><time>2026-04-26T08:16:31.634Z</time></trkpt><trkpt lat="44.8080406" lon="9.6543167"><ele>615.0</ele><time>2026-04-26T08:16:32.625Z</time></trkpt><trkpt lat="44.8081047" lon="9.6541676"><ele>615.0</ele><time>2026-04-26T08:16:34.625Z</time></trkpt><trkpt lat="44.8081372" lon="9.6540913"><ele>615.0</ele><time>2026-04-26T08:16:35.632Z</time></trkpt><trkpt lat="44.8081924" lon="9.6539416"><ele>615.0</ele><time>2026-04-26T08:16:37.634Z</time></trkpt><trkpt lat="44.808244" lon="9.6538181"><ele>615.0</ele><time>2026-04-26T08:16:39.633Z</time></trkpt><trkpt lat="44.8083055" lon="9.6537173"><ele>615.0</ele><time>2026-04-26T08:16:41.623Z</time></trkpt><trkpt lat="44.8083632" lon="9.6536333"><ele>615.0</ele><time>2026-04-26T08:16:43.621Z</time></trkpt><trkpt lat="44.8084314" lon="9.6535676"><ele>615.0</ele><time>2026-04-26T08:16:45.623Z</time></trkpt><trkpt lat="44.8085168" lon="9.6535866"><ele>615.0</ele><time>2026-04-26T08:16:47.62Z</time></trkpt><trkpt lat="44.8085865" lon="9.6536407"><ele>615.0</ele><time>2026-04-26T08:16:49.622Z</time></trkpt><trkpt lat="44.8086076" lon="9.6537835"><ele>615.0</ele><time>2026-04-26T08:16:51.618Z</time></trkpt><trkpt lat="44.8086215" lon="9.6538711"><ele>612.0</ele><time>2026-04-26T08:16:52.618Z</time></trkpt><trkpt lat="44.8086371" lon="9.6539618"><ele>609.0</ele><time>2026-04-26T08:16:53.626Z</time></trkpt><trkpt lat="44.808685" lon="9.6541124"><ele>606.0</ele><time>2026-04-26T08:16:55.626Z</time></trkpt><trkpt lat="44.8087647" lon="9.6542403"><ele>603.0</ele><time>2026-04-26T08:16:57.627Z</time></trkpt><trkpt lat="44.8088681" lon="9.6543393"><ele>600.0</ele><time>2026-04-26T08:16:59.627Z</time></trkpt><trkpt lat="44.8089707" lon="9.6544207"><ele>599.5</ele><time>2026-04-26T08:17:01.633Z</time></trkpt><trkpt lat="44.8090786" lon="9.6544813"><ele>599.0</ele><time>2026-04-26T08:17:03.626Z</time></trkpt><trkpt lat="44.809174" lon="9.6545525"><ele>598.5</ele><time>2026-04-26T08:17:05.608Z</time></trkpt><trkpt lat="44.8092621" lon="9.6546602"><ele>598.0</ele><time>2026-04-26T08:17:07.626Z</time></trkpt><trkpt lat="44.8093408" lon="9.6547731"><ele>595.8</ele><time>2026-04-26T08:17:09.632Z</time></trkpt><trkpt lat="44.8094095" lon="9.6548893"><ele>593.5999999999999</ele><time>2026-04-26T08:17:11.64Z</time></trkpt><trkpt lat="44.8094904" lon="9.6549949"><ele>591.4000000000001</ele><time>2026-04-26T08:17:13.631Z</time></trkpt><trkpt lat="44.8095895" lon="9.6550781"><ele>589.2</ele><time>2026-04-26T08:17:15.628Z</time></trkpt><trkpt lat="44.8096933" lon="9.6550762"><ele>587.0</ele><time>2026-04-26T08:17:17.632Z</time></trkpt><trkpt lat="44.8097777" lon="9.6549688"><ele>587.0</ele><time>2026-04-26T08:17:19.624Z</time></trkpt><trkpt lat="44.8098599" lon="9.6548409"><ele>587.0</ele><time>2026-04-26T08:17:21.629Z</time></trkpt><trkpt lat="44.8099045" lon="9.6547709"><ele>587.0</ele><time>2026-04-26T08:17:22.63Z</time></trkpt><trkpt lat="44.8099965" lon="9.6546666"><ele>587.0</ele><time>2026-04-26T08:17:24.633Z</time></trkpt><trkpt lat="44.8100968" lon="9.6545834"><ele>587.0</ele><time>2026-04-26T08:17:26.623Z</time></trkpt><trkpt lat="44.8101605" lon="9.6545553"><ele>585.1666666666666</ele><time>2026-04-26T08:17:27.626Z</time></trkpt><trkpt lat="44.8102329" lon="9.6545339"><ele>583.3333333333333</ele><time>2026-04-26T08:17:28.637Z</time></trkpt><trkpt lat="44.8103072" lon="9.6545233"><ele>581.5</ele><time>2026-04-26T08:17:29.626Z</time></trkpt><trkpt lat="44.8103858" lon="9.6545054"><ele>579.6666666666666</ele><time>2026-04-26T08:17:30.614Z</time></trkpt><trkpt lat="44.8104691" lon="9.6544941"><ele>577.8333333333334</ele><time>2026-04-26T08:17:31.633Z</time></trkpt><trkpt lat="44.810551" lon="9.6544937"><ele>576.0</ele><time>2026-04-26T08:17:32.627Z</time></trkpt><trkpt lat="44.8106258" lon="9.6545094"><ele>576.0</ele><time>2026-04-26T08:17:33.638Z</time></trkpt><trkpt lat="44.810708" lon="9.65454"><ele>576.0</ele><time>2026-04-26T08:17:34.625Z</time></trkpt><trkpt lat="44.8107807" lon="9.6545883"><ele>576.0</ele><time>2026-04-26T08:17:35.628Z</time></trkpt><trkpt lat="44.810862" lon="9.6546277"><ele>576.0</ele><time>2026-04-26T08:17:36.626Z</time></trkpt><trkpt lat="44.8109419" lon="9.6546619"><ele>576.0</ele><time>2026-04-26T08:17:37.641Z</time></trkpt><trkpt lat="44.811023" lon="9.6546887"><ele>576.0</ele><time>2026-04-26T08:17:38.632Z</time></trkpt><trkpt lat="44.8111025" lon="9.6547147"><ele>575.8333333333334</ele><time>2026-04-26T08:17:39.633Z</time></trkpt><trkpt lat="44.8111772" lon="9.6547411"><ele>575.6666666666666</ele><time>2026-04-26T08:17:40.629Z</time></trkpt><trkpt lat="44.8112474" lon="9.6547669"><ele>575.5</ele><time>2026-04-26T08:17:41.629Z</time></trkpt><trkpt lat="44.8113127" lon="9.6547859"><ele>575.3333333333333</ele><time>2026-04-26T08:17:42.638Z</time></trkpt><trkpt lat="44.8113752" lon="9.654798"><ele>575.1666666666666</ele><time>2026-04-26T08:17:43.615Z</time></trkpt><trkpt lat="44.8114876" lon="9.6547895"><ele>575.0</ele><time>2026-04-26T08:17:45.629Z</time></trkpt><trkpt lat="44.811581" lon="9.6547748"><ele>575.0</ele><time>2026-04-26T08:17:47.632Z</time></trkpt><trkpt lat="44.8116914" lon="9.6547777"><ele>575.0</ele><time>2026-04-26T08:17:49.615Z</time></trkpt><trkpt lat="44.8118126" lon="9.6547227"><ele>575.0</ele><time>2026-04-26T08:17:51.624Z</time></trkpt><trkpt lat="44.8118745" lon="9.6546907"><ele>575.0</ele><time>2026-04-26T08:17:52.637Z</time></trkpt><trkpt lat="44.8119378" lon="9.6546536"><ele>575.0</ele><time>2026-04-26T08:17:53.624Z</time></trkpt><trkpt lat="44.8120016" lon="9.6546072"><ele>575.0</ele><time>2026-04-26T08:17:54.631Z</time></trkpt><trkpt lat="44.8120577" lon="9.6545658"><ele>576.0</ele><time>2026-04-26T08:17:55.639Z</time></trkpt><trkpt lat="44.8121658" lon="9.6544845"><ele>577.0</ele><time>2026-04-26T08:17:57.617Z</time></trkpt><trkpt lat="44.8122738" lon="9.6544447"><ele>578.0</ele><time>2026-04-26T08:17:59.632Z</time></trkpt><trkpt lat="44.8123677" lon="9.6544425"><ele>579.0</ele><time>2026-04-26T08:18:01.648Z</time></trkpt><trkpt lat="44.8124395" lon="9.6544787"><ele>580.0</ele><time>2026-04-26T08:18:03.618Z</time></trkpt><trkpt lat="44.8124925" lon="9.6545573"><ele>580.1666666666667</ele><time>2026-04-26T08:18:05.622Z</time></trkpt><trkpt lat="44.8125286" lon="9.6546405"><ele>580.3333333333334</ele><time>2026-04-26T08:18:07.646Z</time></trkpt><trkpt lat="44.8125851" lon="9.6547242"><ele>580.5</ele><time>2026-04-26T08:18:09.636Z</time></trkpt><trkpt lat="44.8126493" lon="9.6547658"><ele>580.6666666666666</ele><time>2026-04-26T08:18:11.609Z</time></trkpt><trkpt lat="44.8127299" lon="9.6547313"><ele>580.8333333333333</ele><time>2026-04-26T08:18:14.643Z</time></trkpt><trkpt lat="44.8127972" lon="9.6546785"><ele>581.0</ele><time>2026-04-26T08:18:17.629Z</time></trkpt><trkpt lat="44.8128599" lon="9.6546103"><ele>581.2857142857143</ele><time>2026-04-26T08:18:20.637Z</time></trkpt><trkpt lat="44.8129147" lon="9.6545595"><ele>581.5714285714286</ele><time>2026-04-26T08:18:22.627Z</time></trkpt><trkpt lat="44.8129702" lon="9.6545079"><ele>581.8571428571429</ele><time>2026-04-26T08:18:24.638Z</time></trkpt><trkpt lat="44.8130401" lon="9.6544574"><ele>582.1428571428571</ele><time>2026-04-26T08:18:27.622Z</time></trkpt><trkpt lat="44.8131266" lon="9.6544446"><ele>582.4285714285714</ele><time>2026-04-26T08:18:30.63Z</time></trkpt><trkpt lat="44.8131982" lon="9.6544454"><ele>582.7142857142858</ele><time>2026-04-26T08:18:32.639Z</time></trkpt><trkpt lat="44.8132624" lon="9.6544546"><ele>583.0</ele><time>2026-04-26T08:18:34.634Z</time></trkpt><trkpt lat="44.8133539" lon="9.654483"><ele>584.3333333333334</ele><time>2026-04-26T08:18:37.635Z</time></trkpt><trkpt lat="44.8134088" lon="9.6545272"><ele>585.6666666666667</ele><time>2026-04-26T08:18:39.619Z</time></trkpt><trkpt lat="44.8134583" lon="9.6545885"><ele>587.0</ele><time>2026-04-26T08:18:41.628Z</time></trkpt><trkpt lat="44.813484" lon="9.6547058"><ele>588.3333333333334</ele><time>2026-04-26T08:18:44.625Z</time></trkpt><trkpt lat="44.8134756" lon="9.6548229"><ele>589.6666666666666</ele><time>2026-04-26T08:18:47.624Z</time></trkpt><trkpt lat="44.8134809" lon="9.6549516"><ele>591.0</ele><time>2026-04-26T08:18:50.624Z</time></trkpt><trkpt lat="44.8134879" lon="9.6550527"><ele>590.8333333333334</ele><time>2026-04-26T08:18:52.631Z</time></trkpt><trkpt lat="44.813498" lon="9.6551567"><ele>590.6666666666666</ele><time>2026-04-26T08:18:54.626Z</time></trkpt><trkpt lat="44.8135105" lon="9.6552888"><ele>590.5</ele><time>2026-04-26T08:18:57.628Z</time></trkpt><trkpt lat="44.8135258" lon="9.6553892"><ele>590.3333333333333</ele><time>2026-04-26T08:18:59.639Z</time></trkpt><trkpt lat="44.8135378" lon="9.6554868"><ele>590.1666666666666</ele><time>2026-04-26T08:19:01.632Z</time></trkpt><trkpt lat="44.813562" lon="9.6556099"><ele>590.0</ele><time>2026-04-26T08:19:04.629Z</time></trkpt><trkpt lat="44.8135879" lon="9.6556975"><ele>590.0</ele><time>2026-04-26T08:19:06.623Z</time></trkpt><trkpt lat="44.8136399" lon="9.6558048"><ele>590.0</ele><time>2026-04-26T08:19:09.627Z</time></trkpt><trkpt lat="44.8137006" lon="9.6558965"><ele>590.0</ele><time>2026-04-26T08:19:12.632Z</time></trkpt><trkpt lat="44.8137523" lon="9.655982"><ele>590.0</ele><time>2026-04-26T08:19:15.634Z</time></trkpt><trkpt lat="44.8138091" lon="9.6560801"><ele>590.0</ele><time>2026-04-26T08:19:18.632Z</time></trkpt><trkpt lat="44.8138528" lon="9.6561949"><ele>590.0</ele><time>2026-04-26T08:19:21.632Z</time></trkpt><trkpt lat="44.8138786" lon="9.6562775"><ele>590.4</ele><time>2026-04-26T08:19:23.601Z</time></trkpt><trkpt lat="44.8139089" lon="9.6563643"><ele>590.8</ele><time>2026-04-26T08:19:25.596Z</time></trkpt><trkpt lat="44.8139317" lon="9.6564573"><ele>591.2</ele><time>2026-04-26T08:19:27.636Z</time></trkpt><trkpt lat="44.8139633" lon="9.6565789"><ele>591.6</ele><time>2026-04-26T08:19:29.619Z</time></trkpt><trkpt lat="44.8140064" lon="9.6567173"><ele>592.0</ele><time>2026-04-26T08:19:31.619Z</time></trkpt><trkpt lat="44.8140421" lon="9.6568675"><ele>592.0</ele><time>2026-04-26T08:19:33.639Z</time></trkpt><trkpt lat="44.8140657" lon="9.6569512"><ele>592.0</ele><time>2026-04-26T08:19:34.632Z</time></trkpt><trkpt lat="44.8141083" lon="9.6571087"><ele>592.0</ele><time>2026-04-26T08:19:36.633Z</time></trkpt><trkpt lat="44.8141589" lon="9.6572511"><ele>592.0</ele><time>2026-04-26T08:19:38.625Z</time></trkpt><trkpt lat="44.8142172" lon="9.6573801"><ele>592.0</ele><time>2026-04-26T08:19:40.618Z</time></trkpt><trkpt lat="44.8142924" lon="9.6575079"><ele>588.4</ele><time>2026-04-26T08:19:42.628Z</time></trkpt><trkpt lat="44.81441" lon="9.657584"><ele>584.8000000000001</ele><time>2026-04-26T08:19:44.629Z</time></trkpt><trkpt lat="44.8145381" lon="9.6575915"><ele>581.2</ele><time>2026-04-26T08:19:46.616Z</time></trkpt><trkpt lat="44.814611" lon="9.6575832"><ele>577.6</ele><time>2026-04-26T08:19:47.627Z</time></trkpt><trkpt lat="44.8146805" lon="9.6575713"><ele>574.0</ele><time>2026-04-26T08:19:48.625Z</time></trkpt><trkpt lat="44.814791" lon="9.6576066"><ele>574.0</ele><time>2026-04-26T08:19:50.629Z</time></trkpt><trkpt lat="44.8148325" lon="9.6576762"><ele>574.0</ele><time>2026-04-26T08:19:51.635Z</time></trkpt><trkpt lat="44.8148536" lon="9.6577755"><ele>574.0</ele><time>2026-04-26T08:19:52.621Z</time></trkpt><trkpt lat="44.8148699" lon="9.6578789"><ele>574.0</ele><time>2026-04-26T08:19:53.601Z</time></trkpt><trkpt lat="44.8148832" lon="9.6579778"><ele>574.0</ele><time>2026-04-26T08:19:54.62Z</time></trkpt><trkpt lat="44.8148935" lon="9.6580707"><ele>574.0</ele><time>2026-04-26T08:19:55.649Z</time></trkpt><trkpt lat="44.8149357" lon="9.6581611"><ele>574.0</ele><time>2026-04-26T08:19:56.609Z</time></trkpt><trkpt lat="44.8149924" lon="9.6582344"><ele>573.5</ele><time>2026-04-26T08:19:57.631Z</time></trkpt><trkpt lat="44.8150706" lon="9.6583085"><ele>573.0</ele><time>2026-04-26T08:19:58.623Z</time></trkpt><trkpt lat="44.8151456" lon="9.6583892"><ele>572.5</ele><time>2026-04-26T08:19:59.62Z</time></trkpt><trkpt lat="44.815195" lon="9.6584758"><ele>572.0</ele><time>2026-04-26T08:20:00.637Z</time></trkpt><trkpt lat="44.8152404" lon="9.6585567"><ele>571.5</ele><time>2026-04-26T08:20:01.64Z</time></trkpt><trkpt lat="44.8152817" lon="9.6586264"><ele>571.0</ele><time>2026-04-26T08:20:02.631Z</time></trkpt><trkpt lat="44.815352" lon="9.6587616"><ele>571.0</ele><time>2026-04-26T08:20:04.624Z</time></trkpt><trkpt lat="44.8154259" lon="9.6588759"><ele>571.0</ele><time>2026-04-26T08:20:06.621Z</time></trkpt><trkpt lat="44.8154988" lon="9.6589775"><ele>571.0</ele><time>2026-04-26T08:20:08.626Z</time></trkpt><trkpt lat="44.8155765" lon="9.659057"><ele>571.0</ele><time>2026-04-26T08:20:10.632Z</time></trkpt><trkpt lat="44.8156537" lon="9.6591311"><ele>571.0</ele><time>2026-04-26T08:20:12.62Z</time></trkpt><trkpt lat="44.8157317" lon="9.659203"><ele>571.0</ele><time>2026-04-26T08:20:14.627Z</time></trkpt><trkpt lat="44.8158029" lon="9.6592843"><ele>571.0</ele><time>2026-04-26T08:20:16.626Z</time></trkpt><trkpt lat="44.8158893" lon="9.6593352"><ele>571.0</ele><time>2026-04-26T08:20:18.623Z</time></trkpt><trkpt lat="44.8159648" lon="9.6593845"><ele>571.0</ele><time>2026-04-26T08:20:20.628Z</time></trkpt><trkpt lat="44.816044" lon="9.6594525"><ele>571.0</ele><time>2026-04-26T08:20:22.624Z</time></trkpt><trkpt lat="44.8161357" lon="9.6595065"><ele>570.6</ele><time>2026-04-26T08:20:24.622Z</time></trkpt><trkpt lat="44.8162154" lon="9.6595806"><ele>570.2</ele><time>2026-04-26T08:20:26.614Z</time></trkpt><trkpt lat="44.8163093" lon="9.6596785"><ele>569.8</ele><time>2026-04-26T08:20:28.611Z</time></trkpt><trkpt lat="44.8163897" lon="9.6597768"><ele>569.4</ele><time>2026-04-26T08:20:30.625Z</time></trkpt><trkpt lat="44.8164571" lon="9.6599093"><ele>569.0</ele><time>2026-04-26T08:20:32.617Z</time></trkpt><trkpt lat="44.8165211" lon="9.6600375"><ele>569.0</ele><time>2026-04-26T08:20:34.62Z</time></trkpt><trkpt lat="44.8165686" lon="9.660173"><ele>569.0</ele><time>2026-04-26T08:20:36.628Z</time></trkpt><trkpt lat="44.8166195" lon="9.6602934"><ele>569.0</ele><time>2026-04-26T08:20:38.637Z</time></trkpt><trkpt lat="44.8166669" lon="9.6604071"><ele>569.0</ele><time>2026-04-26T08:20:40.63Z</time></trkpt><trkpt lat="44.8167232" lon="9.6604909"><ele>569.0</ele><time>2026-04-26T08:20:42.633Z</time></trkpt><trkpt lat="44.8167739" lon="9.6605614"><ele>567.6666666666666</ele><time>2026-04-26T08:20:44.626Z</time></trkpt><trkpt lat="44.8168345" lon="9.6606555"><ele>566.3333333333333</ele><time>2026-04-26T08:20:47.627Z</time></trkpt><trkpt lat="44.8168911" lon="9.6607441"><ele>565.0</ele><time>2026-04-26T08:20:50.627Z</time></trkpt><trkpt lat="44.8169383" lon="9.6608061"><ele>563.6666666666666</ele><time>2026-04-26T08:20:52.625Z</time></trkpt><trkpt lat="44.8169873" lon="9.6608724"><ele>562.3333333333334</ele><time>2026-04-26T08:20:54.627Z</time></trkpt><trkpt lat="44.8170445" lon="9.6609502"><ele>561.0</ele><time>2026-04-26T08:20:56.626Z</time></trkpt><trkpt lat="44.8171015" lon="9.6610171"><ele>561.0</ele><time>2026-04-26T08:20:58.634Z</time></trkpt><trkpt lat="44.8171513" lon="9.6610775"><ele>561.0</ele><time>2026-04-26T08:21:00.628Z</time></trkpt><trkpt lat="44.8172059" lon="9.6611345"><ele>561.0</ele><time>2026-04-26T08:21:02.638Z</time></trkpt><trkpt lat="44.8172812" lon="9.6611847"><ele>561.0</ele><time>2026-04-26T08:21:04.625Z</time></trkpt><trkpt lat="44.8173617" lon="9.6612386"><ele>561.0</ele><time>2026-04-26T08:21:06.66Z</time></trkpt><trkpt lat="44.8174272" lon="9.6612979"><ele>561.0</ele><time>2026-04-26T08:21:08.605Z</time></trkpt><trkpt lat="44.8174854" lon="9.6613677"><ele>560.2857142857142</ele><time>2026-04-26T08:21:10.628Z</time></trkpt><trkpt lat="44.8175416" lon="9.6614469"><ele>559.5714285714286</ele><time>2026-04-26T08:21:12.612Z</time></trkpt><trkpt lat="44.8175912" lon="9.6615191"><ele>558.8571428571429</ele><time>2026-04-26T08:21:14.634Z</time></trkpt><trkpt lat="44.817618" lon="9.6616083"><ele>558.1428571428571</ele><time>2026-04-26T08:21:16.595Z</time></trkpt><trkpt lat="44.8176562" lon="9.6616878"><ele>557.4285714285714</ele><time>2026-04-26T08:21:18.596Z</time></trkpt><trkpt lat="44.8176932" lon="9.6617712"><ele>556.7142857142857</ele><time>2026-04-26T08:21:20.625Z</time></trkpt><trkpt lat="44.8177315" lon="9.66185"><ele>556.0</ele><time>2026-04-26T08:21:22.616Z</time></trkpt><trkpt lat="44.8177707" lon="9.6619272"><ele>555.0</ele><time>2026-04-26T08:21:24.633Z</time></trkpt><trkpt lat="44.8178221" lon="9.6620392"><ele>554.0</ele><time>2026-04-26T08:21:27.61Z</time></trkpt><trkpt lat="44.8178748" lon="9.6621413"><ele>553.0</ele><time>2026-04-26T08:21:29.631Z</time></trkpt><trkpt lat="44.817923" lon="9.6622467"><ele>552.0</ele><time>2026-04-26T08:21:31.633Z</time></trkpt><trkpt lat="44.8179642" lon="9.6623426"><ele>551.0</ele><time>2026-04-26T08:21:33.626Z</time></trkpt><trkpt lat="44.8179998" lon="9.6624317"><ele>550.0</ele><time>2026-04-26T08:21:35.625Z</time></trkpt><trkpt lat="44.8180601" lon="9.6625314"><ele>550.0</ele><time>2026-04-26T08:21:38.618Z</time></trkpt><trkpt lat="44.8181278" lon="9.6625448"><ele>550.0</ele><time>2026-04-26T08:21:41.611Z</time></trkpt><trkpt lat="44.8181988" lon="9.6625198"><ele>550.0</ele><time>2026-04-26T08:21:47.636Z</time></trkpt><trkpt lat="44.8182635" lon="9.6625101"><ele>550.0</ele><time>2026-04-26T08:21:55.62Z</time></trkpt><trkpt lat="44.8183336" lon="9.6625398"><ele>550.0</ele><time>2026-04-26T08:22:05.619Z</time></trkpt><trkpt lat="44.8183994" lon="9.6626125"><ele>550.0</ele><time>2026-04-26T08:22:18.631Z</time></trkpt><trkpt lat="44.8184714" lon="9.6626718"><ele>550.0</ele><time>2026-04-26T08:22:22.619Z</time></trkpt><trkpt lat="44.8185235" lon="9.6627241"><ele>545.8333333333334</ele><time>2026-04-26T08:22:25.629Z</time></trkpt><trkpt lat="44.8185771" lon="9.6628025"><ele>541.6666666666667</ele><time>2026-04-26T08:22:29.629Z</time></trkpt><trkpt lat="44.8186175" lon="9.6628842"><ele>537.5</ele><time>2026-04-26T08:22:32.627Z</time></trkpt><trkpt lat="44.8186602" lon="9.6629881"><ele>533.3333333333334</ele><time>2026-04-26T08:22:35.611Z</time></trkpt><trkpt lat="44.818687" lon="9.6630882"><ele>529.1666666666666</ele><time>2026-04-26T08:22:38.616Z</time></trkpt><trkpt lat="44.8187109" lon="9.6631843"><ele>525.0</ele><time>2026-04-26T08:22:41.629Z</time></trkpt><trkpt lat="44.8187492" lon="9.6632788"><ele>525.0</ele><time>2026-04-26T08:22:44.635Z</time></trkpt><trkpt lat="44.8187721" lon="9.663366"><ele>525.0</ele><time>2026-04-26T08:22:47.624Z</time></trkpt><trkpt lat="44.8188073" lon="9.6634522"><ele>525.0</ele><time>2026-04-26T08:22:50.622Z</time></trkpt><trkpt lat="44.8188568" lon="9.6635351"><ele>525.0</ele><time>2026-04-26T08:22:54.624Z</time></trkpt><trkpt lat="44.8188947" lon="9.6636154"><ele>525.0</ele><time>2026-04-26T08:22:58.63Z</time></trkpt><trkpt lat="44.8189069" lon="9.6637074"><ele>525.0</ele><time>2026-04-26T08:23:05.626Z</time></trkpt><trkpt lat="44.8189079" lon="9.6638201"><ele>525.0</ele><time>2026-04-26T08:23:09.631Z</time></trkpt><trkpt lat="44.8189062" lon="9.6639386"><ele>523.5</ele><time>2026-04-26T08:23:12.623Z</time></trkpt><trkpt lat="44.8188871" lon="9.6640474"><ele>522.0</ele><time>2026-04-26T08:23:15.63Z</time></trkpt><trkpt lat="44.8188427" lon="9.6641408"><ele>520.5</ele><time>2026-04-26T08:23:18.617Z</time></trkpt><trkpt lat="44.8188089" lon="9.6642388"><ele>519.0</ele><time>2026-04-26T08:23:21.619Z</time></trkpt><trkpt lat="44.8187725" lon="9.6643455"><ele>517.5</ele><time>2026-04-26T08:23:25.628Z</time></trkpt><trkpt lat="44.8187305" lon="9.6644351"><ele>516.0</ele><time>2026-04-26T08:23:28.622Z</time></trkpt><trkpt lat="44.8187032" lon="9.6645314"><ele>514.6666666666666</ele><time>2026-04-26T08:23:31.623Z</time></trkpt><trkpt lat="44.8186956" lon="9.6646198"><ele>513.3333333333334</ele><time>2026-04-26T08:23:33.618Z</time></trkpt><trkpt lat="44.8186748" lon="9.6647214"><ele>512.0</ele><time>2026-04-26T08:23:35.62Z</time></trkpt><trkpt lat="44.8186464" lon="9.6648493"><ele>510.6666666666667</ele><time>2026-04-26T08:23:37.629Z</time></trkpt><trkpt lat="44.8186289" lon="9.6649769"><ele>509.33333333333337</ele><time>2026-04-26T08:23:39.615Z</time></trkpt><trkpt lat="44.8186027" lon="9.6650858"><ele>508.0</ele><time>2026-04-26T08:23:41.64Z</time></trkpt><trkpt lat="44.818565" lon="9.6651848"><ele>508.1666666666667</ele><time>2026-04-26T08:23:43.61Z</time></trkpt><trkpt lat="44.8185466" lon="9.6652917"><ele>508.33333333333337</ele><time>2026-04-26T08:23:45.631Z</time></trkpt><trkpt lat="44.8185802" lon="9.6654129"><ele>508.5</ele><time>2026-04-26T08:23:48.626Z</time></trkpt><trkpt lat="44.8186393" lon="9.6655049"><ele>508.66666666666663</ele><time>2026-04-26T08:23:51.622Z</time></trkpt><trkpt lat="44.8187011" lon="9.6655512"><ele>508.8333333333333</ele><time>2026-04-26T08:23:53.622Z</time></trkpt><trkpt lat="44.8187586" lon="9.665611"><ele>509.0</ele><time>2026-04-26T08:23:55.606Z</time></trkpt><trkpt lat="44.8188162" lon="9.6656891"><ele>508.99999999999994</ele><time>2026-04-26T08:23:58.627Z</time></trkpt><trkpt lat="44.818873" lon="9.6657493"><ele>509.0</ele><time>2026-04-26T08:24:01.63Z</time></trkpt><trkpt lat="44.8189327" lon="9.6657879"><ele>508.99999999999994</ele><time>2026-04-26T08:24:04.614Z</time></trkpt><trkpt lat="44.8190045" lon="9.6657996"><ele>508.99999999999994</ele><time>2026-04-26T08:24:07.63Z</time></trkpt><trkpt lat="44.819077" lon="9.6657864"><ele>509.0</ele><time>2026-04-26T08:24:11.627Z</time></trkpt><trkpt lat="44.8191443" lon="9.6657887"><ele>508.99999999999994</ele><time>2026-04-26T08:24:16.603Z</time></trkpt><trkpt lat="44.8192073" lon="9.6657863"><ele>508.99999999999994</ele><time>2026-04-26T08:24:20.604Z</time></trkpt><trkpt lat="44.8192797" lon="9.6657556"><ele>510.2857142857142</ele><time>2026-04-26T08:24:25.622Z</time></trkpt><trkpt lat="44.8193484" lon="9.6657266"><ele>511.57142857142856</ele><time>2026-04-26T08:24:30.626Z</time></trkpt><trkpt lat="44.8194145" lon="9.665695"><ele>512.8571428571429</ele><time>2026-04-26T08:24:35.624Z</time></trkpt><trkpt lat="44.8194707" lon="9.6656537"><ele>514.1428571428571</ele><time>2026-04-26T08:24:39.633Z</time></trkpt><trkpt lat="44.819537" lon="9.6655975"><ele>515.4285714285714</ele><time>2026-04-26T08:24:43.607Z</time></trkpt><trkpt lat="44.8196007" lon="9.6655455"><ele>516.7142857142857</ele><time>2026-04-26T08:24:47.637Z</time></trkpt><trkpt lat="44.8196629" lon="9.6654914"><ele>518.0</ele><time>2026-04-26T08:24:51.64Z</time></trkpt><trkpt lat="44.819725" lon="9.6654567"><ele>518.0</ele><time>2026-04-26T08:24:55.625Z</time></trkpt><trkpt lat="44.8197863" lon="9.6654196"><ele>518.0</ele><time>2026-04-26T08:25:00.624Z</time></trkpt><trkpt lat="44.8198494" lon="9.6654085"><ele>518.0</ele><time>2026-04-26T08:25:03.614Z</time></trkpt><trkpt lat="44.8199131" lon="9.6654201"><ele>518.0</ele><time>2026-04-26T08:25:07.635Z</time></trkpt><trkpt lat="44.8199762" lon="9.6654308"><ele>518.0</ele><time>2026-04-26T08:25:12.612Z</time></trkpt><trkpt lat="44.820048" lon="9.665445"><ele>518.0</ele><time>2026-04-26T08:25:17.623Z</time></trkpt><trkpt lat="44.8201171" lon="9.6654429"><ele>518.0</ele><time>2026-04-26T08:25:22.627Z</time></trkpt><trkpt lat="44.8201947" lon="9.6654443"><ele>518.7142857142857</ele><time>2026-04-26T08:25:27.632Z</time></trkpt><trkpt lat="44.8202749" lon="9.6654445"><ele>519.4285714285714</ele><time>2026-04-26T08:25:32.626Z</time></trkpt><trkpt lat="44.8203381" lon="9.6654435"><ele>520.1428571428571</ele><time>2026-04-26T08:25:36.617Z</time></trkpt><trkpt lat="44.8204091" lon="9.6654593"><ele>520.8571428571429</ele><time>2026-04-26T08:25:40.631Z</time></trkpt><trkpt lat="44.8204766" lon="9.6654802"><ele>521.5714285714286</ele><time>2026-04-26T08:25:45.624Z</time></trkpt><trkpt lat="44.8205436" lon="9.6655068"><ele>522.2857142857142</ele><time>2026-04-26T08:25:50.644Z</time></trkpt><trkpt lat="44.8206048" lon="9.6655658"><ele>523.0</ele><time>2026-04-26T08:25:55.633Z</time></trkpt><trkpt lat="44.8206576" lon="9.6656234"><ele>522.9999999999999</ele><time>2026-04-26T08:26:00.629Z</time></trkpt><trkpt lat="44.8207047" lon="9.6656867"><ele>523.0</ele><time>2026-04-26T08:26:05.624Z</time></trkpt><trkpt lat="44.8207545" lon="9.6657641"><ele>523.0</ele><time>2026-04-26T08:26:10.624Z</time></trkpt><trkpt lat="44.8207926" lon="9.6658402"><ele>523.0</ele><time>2026-04-26T08:26:14.631Z</time></trkpt><trkpt lat="44.8208198" lon="9.6659386"><ele>523.0</ele><time>2026-04-26T08:26:19.634Z</time></trkpt><trkpt lat="44.8208378" lon="9.6660239"><ele>522.9999999999999</ele><time>2026-04-26T08:26:23.618Z</time></trkpt><trkpt lat="44.820837" lon="9.6661142"><ele>523.0</ele><time>2026-04-26T08:26:27.624Z</time></trkpt><trkpt lat="44.8208043" lon="9.6662153"><ele>524.1428571428571</ele><time>2026-04-26T08:26:32.637Z</time></trkpt><trkpt lat="44.8207547" lon="9.6663057"><ele>525.2857142857142</ele><time>2026-04-26T08:26:37.633Z</time></trkpt><trkpt lat="44.8207201" lon="9.6663825"><ele>526.4285714285714</ele><time>2026-04-26T08:26:41.631Z</time></trkpt><trkpt lat="44.8206995" lon="9.6664758"><ele>527.5714285714286</ele><time>2026-04-26T08:26:45.624Z</time></trkpt><trkpt lat="44.8206956" lon="9.6665678"><ele>528.7142857142858</ele><time>2026-04-26T08:26:49.632Z</time></trkpt><trkpt lat="44.8207178" lon="9.6666562"><ele>529.8571428571429</ele><time>2026-04-26T08:26:53.624Z</time></trkpt><trkpt lat="44.8207455" lon="9.6667439"><ele>531.0</ele><time>2026-04-26T08:26:57.633Z</time></trkpt><trkpt lat="44.8207729" lon="9.6668449"><ele>531.0</ele><time>2026-04-26T08:27:02.626Z</time></trkpt><trkpt lat="44.8208111" lon="9.6669364"><ele>531.0</ele><time>2026-04-26T08:27:06.645Z</time></trkpt><trkpt lat="44.8208472" lon="9.6670136"><ele>531.0</ele><time>2026-04-26T08:27:10.637Z</time></trkpt><trkpt lat="44.8208769" lon="9.6670975"><ele>531.0</ele><time>2026-04-26T08:27:14.636Z</time></trkpt><trkpt lat="44.8209053" lon="9.6671821"><ele>531.0</ele><time>2026-04-26T08:27:18.627Z</time></trkpt><trkpt lat="44.8209359" lon="9.6672649"><ele>531.0</ele><time>2026-04-26T08:27:22.633Z</time></trkpt><trkpt lat="44.8209728" lon="9.6673574"><ele>531.0</ele><time>2026-04-26T08:27:26.628Z</time></trkpt><trkpt lat="44.821" lon="9.6674408"><ele>530.3333333333334</ele><time>2026-04-26T08:27:30.638Z</time></trkpt><trkpt lat="44.8210313" lon="9.6675317"><ele>529.6666666666666</ele><time>2026-04-26T08:27:34.621Z</time></trkpt><trkpt lat="44.8210562" lon="9.6676367"><ele>529.0</ele><time>2026-04-26T08:27:38.633Z</time></trkpt><trkpt lat="44.8210943" lon="9.6677302"><ele>528.3333333333333</ele><time>2026-04-26T08:27:41.634Z</time></trkpt><trkpt lat="44.8211309" lon="9.6678444"><ele>527.6666666666666</ele><time>2026-04-26T08:27:44.637Z</time></trkpt><trkpt lat="44.8211712" lon="9.6679159"><ele>527.0</ele><time>2026-04-26T08:27:46.629Z</time></trkpt><trkpt lat="44.8212252" lon="9.6680016"><ele>527.0</ele><time>2026-04-26T08:27:48.605Z</time></trkpt><trkpt lat="44.8212806" lon="9.668096"><ele>527.0</ele><time>2026-04-26T08:27:50.635Z</time></trkpt><trkpt lat="44.8213399" lon="9.6682122"><ele>527.0</ele><time>2026-04-26T08:27:52.629Z</time></trkpt><trkpt lat="44.8214197" lon="9.6683594"><ele>527.0</ele><time>2026-04-26T08:27:54.609Z</time></trkpt><trkpt lat="44.821466" lon="9.668435"><ele>527.0</ele><time>2026-04-26T08:27:55.621Z</time></trkpt><trkpt lat="44.8215052" lon="9.6685099"><ele>527.0</ele><time>2026-04-26T08:27:56.628Z</time></trkpt><trkpt lat="44.8215453" lon="9.6685857"><ele>527.0</ele><time>2026-04-26T08:27:57.614Z</time></trkpt><trkpt lat="44.8215895" lon="9.6686693"><ele>527.0</ele><time>2026-04-26T08:27:58.637Z</time></trkpt><trkpt lat="44.8216367" lon="9.6687538"><ele>527.0</ele><time>2026-04-26T08:27:59.628Z</time></trkpt><trkpt lat="44.8216807" lon="9.6688375"><ele>527.0</ele><time>2026-04-26T08:28:00.605Z</time></trkpt><trkpt lat="44.821724" lon="9.6689271"><ele>527.0</ele><time>2026-04-26T08:28:01.616Z</time></trkpt><trkpt lat="44.8217696" lon="9.6690278"><ele>527.4</ele><time>2026-04-26T08:28:02.634Z</time></trkpt><trkpt lat="44.821814" lon="9.6691326"><ele>527.8000000000001</ele><time>2026-04-26T08:28:03.633Z</time></trkpt><trkpt lat="44.8218522" lon="9.6692414"><ele>528.2</ele><time>2026-04-26T08:28:04.612Z</time></trkpt><trkpt lat="44.8218955" lon="9.6693662"><ele>528.6</ele><time>2026-04-26T08:28:05.64Z</time></trkpt><trkpt lat="44.821939" lon="9.66949"><ele>529.0</ele><time>2026-04-26T08:28:06.631Z</time></trkpt><trkpt lat="44.8219795" lon="9.6696114"><ele>528.0</ele><time>2026-04-26T08:28:07.635Z</time></trkpt><trkpt lat="44.8220328" lon="9.6697201"><ele>527.0</ele><time>2026-04-26T08:28:08.605Z</time></trkpt><trkpt lat="44.8221074" lon="9.669811"><ele>526.0</ele><time>2026-04-26T08:28:09.636Z</time></trkpt><trkpt lat="44.8221813" lon="9.6698892"><ele>525.0</ele><time>2026-04-26T08:28:10.609Z</time></trkpt><trkpt lat="44.8222581" lon="9.6699508"><ele>524.0</ele><time>2026-04-26T08:28:11.634Z</time></trkpt><trkpt lat="44.8223354" lon="9.669996"><ele>524.0</ele><time>2026-04-26T08:28:12.631Z</time></trkpt><trkpt lat="44.8224135" lon="9.6700335"><ele>524.0</ele><time>2026-04-26T08:28:13.636Z</time></trkpt><trkpt lat="44.822491" lon="9.6700691"><ele>524.0</ele><time>2026-04-26T08:28:14.629Z</time></trkpt><trkpt lat="44.8225642" lon="9.6701035"><ele>524.0</ele><time>2026-04-26T08:28:15.631Z</time></trkpt><trkpt lat="44.8226313" lon="9.6701376"><ele>524.0</ele><time>2026-04-26T08:28:16.64Z</time></trkpt><trkpt lat="44.822694" lon="9.6701734"><ele>524.0</ele><time>2026-04-26T08:28:17.641Z</time></trkpt><trkpt lat="44.8227568" lon="9.6701971"><ele>524.0</ele><time>2026-04-26T08:28:18.629Z</time></trkpt><trkpt lat="44.822885" lon="9.6702467"><ele>523.3333333333333</ele><time>2026-04-26T08:28:20.634Z</time></trkpt><trkpt lat="44.8229592" lon="9.6702781"><ele>522.6666666666666</ele><time>2026-04-26T08:28:21.636Z</time></trkpt><trkpt lat="44.8230339" lon="9.6703123"><ele>522.0</ele><time>2026-04-26T08:28:22.607Z</time></trkpt><trkpt lat="44.8231164" lon="9.6703423"><ele>521.3333333333334</ele><time>2026-04-26T08:28:23.64Z</time></trkpt><trkpt lat="44.8232058" lon="9.6703759"><ele>520.6666666666667</ele><time>2026-04-26T08:28:24.647Z</time></trkpt><trkpt lat="44.8232983" lon="9.6704055"><ele>520.0</ele><time>2026-04-26T08:28:25.632Z</time></trkpt><trkpt lat="44.8233986" lon="9.6704329"><ele>518.8</ele><time>2026-04-26T08:28:26.626Z</time></trkpt><trkpt lat="44.8234998" lon="9.6704593"><ele>517.6</ele><time>2026-04-26T08:28:27.633Z</time></trkpt><trkpt lat="44.8236006" lon="9.6704892"><ele>516.4</ele><time>2026-04-26T08:28:28.609Z</time></trkpt><trkpt lat="44.8237004" lon="9.6705317"><ele>515.2</ele><time>2026-04-26T08:28:29.628Z</time></trkpt><trkpt lat="44.8237988" lon="9.6705755"><ele>514.0</ele><time>2026-04-26T08:28:30.624Z</time></trkpt><trkpt lat="44.8238866" lon="9.6706344"><ele>514.0</ele><time>2026-04-26T08:28:31.629Z</time></trkpt><trkpt lat="44.823959" lon="9.6707018"><ele>514.0</ele><time>2026-04-26T08:28:32.646Z</time></trkpt><trkpt lat="44.8240354" lon="9.670779"><ele>514.0</ele><time>2026-04-26T08:28:33.608Z</time></trkpt><trkpt lat="44.8241101" lon="9.6708565"><ele>514.0</ele><time>2026-04-26T08:28:34.635Z</time></trkpt><trkpt lat="44.8241877" lon="9.6709402"><ele>514.0</ele><time>2026-04-26T08:28:35.628Z</time></trkpt><trkpt lat="44.8242672" lon="9.6710233"><ele>511.79999999999995</ele><time>2026-04-26T08:28:36.61Z</time></trkpt><trkpt lat="44.8243558" lon="9.6711055"><ele>509.59999999999997</ele><time>2026-04-26T08:28:37.634Z</time></trkpt><trkpt lat="44.8244401" lon="9.6711813"><ele>507.4</ele><time>2026-04-26T08:28:38.634Z</time></trkpt><trkpt lat="44.8245168" lon="9.6712641"><ele>505.2</ele><time>2026-04-26T08:28:39.631Z</time></trkpt><trkpt lat="44.8245767" lon="9.671358"><ele>503.0</ele><time>2026-04-26T08:28:40.625Z</time></trkpt><trkpt lat="44.8246326" lon="9.6714596"><ele>502.99999999999994</ele><time>2026-04-26T08:28:41.617Z</time></trkpt><trkpt lat="44.8246822" lon="9.6715639"><ele>503.0</ele><time>2026-04-26T08:28:42.638Z</time></trkpt><trkpt lat="44.8247345" lon="9.6716577"><ele>503.0</ele><time>2026-04-26T08:28:43.647Z</time></trkpt><trkpt lat="44.8247943" lon="9.6717475"><ele>503.0</ele><time>2026-04-26T08:28:44.635Z</time></trkpt><trkpt lat="44.824856" lon="9.6718343"><ele>502.99999999999994</ele><time>2026-04-26T08:28:45.625Z</time></trkpt><trkpt lat="44.8249216" lon="9.6719131"><ele>503.0</ele><time>2026-04-26T08:28:46.634Z</time></trkpt><trkpt lat="44.8249883" lon="9.6719865"><ele>501.0</ele><time>2026-04-26T08:28:47.626Z</time></trkpt><trkpt lat="44.8250671" lon="9.6720674"><ele>498.99999999999994</ele><time>2026-04-26T08:28:48.608Z</time></trkpt><trkpt lat="44.8251549" lon="9.6721498"><ele>496.99999999999994</ele><time>2026-04-26T08:28:49.633Z</time></trkpt><trkpt lat="44.8252381" lon="9.672242"><ele>495.0</ele><time>2026-04-26T08:28:50.631Z</time></trkpt><trkpt lat="44.825313" lon="9.6723423"><ele>493.0</ele><time>2026-04-26T08:28:51.628Z</time></trkpt><trkpt lat="44.8253881" lon="9.6724506"><ele>492.4</ele><time>2026-04-26T08:28:52.64Z</time></trkpt><trkpt lat="44.825463" lon="9.6725553"><ele>491.79999999999995</ele><time>2026-04-26T08:28:53.636Z</time></trkpt><trkpt lat="44.8255437" lon="9.6726433"><ele>491.2</ele><time>2026-04-26T08:28:54.638Z</time></trkpt><trkpt lat="44.8256349" lon="9.6727082"><ele>490.6</ele><time>2026-04-26T08:28:55.633Z</time></trkpt><trkpt lat="44.8257319" lon="9.6727788"><ele>490.0</ele><time>2026-04-26T08:28:56.634Z</time></trkpt><trkpt lat="44.8258144" lon="9.672859"><ele>490.0</ele><time>2026-04-26T08:28:57.62Z</time></trkpt><trkpt lat="44.825888" lon="9.6729503"><ele>490.0</ele><time>2026-04-26T08:28:58.617Z</time></trkpt><trkpt lat="44.8259551" lon="9.6730527"><ele>490.0</ele><time>2026-04-26T08:28:59.625Z</time></trkpt><trkpt lat="44.8260219" lon="9.6731686"><ele>490.0</ele><time>2026-04-26T08:29:00.629Z</time></trkpt><trkpt lat="44.8260901" lon="9.6732779"><ele>490.0</ele><time>2026-04-26T08:29:01.635Z</time></trkpt><trkpt lat="44.8261779" lon="9.6733704"><ele>488.4</ele><time>2026-04-26T08:29:02.625Z</time></trkpt><trkpt lat="44.8262824" lon="9.6734356"><ele>486.8</ele><time>2026-04-26T08:29:03.626Z</time></trkpt><trkpt lat="44.826383" lon="9.673498"><ele>485.20000000000005</ele><time>2026-04-26T08:29:04.608Z</time></trkpt><trkpt lat="44.8264786" lon="9.6735557"><ele>483.6</ele><time>2026-04-26T08:29:05.614Z</time></trkpt><trkpt lat="44.8265603" lon="9.6736064"><ele>482.0</ele><time>2026-04-26T08:29:06.623Z</time></trkpt><trkpt lat="44.8266334" lon="9.6736499"><ele>481.99999999999994</ele><time>2026-04-26T08:29:07.627Z</time></trkpt><trkpt lat="44.8267007" lon="9.6736919"><ele>482.0</ele><time>2026-04-26T08:29:08.634Z</time></trkpt><trkpt lat="44.8267711" lon="9.6737068"><ele>482.0</ele><time>2026-04-26T08:29:09.632Z</time></trkpt><trkpt lat="44.8268537" lon="9.6736659"><ele>482.0</ele><time>2026-04-26T08:29:10.628Z</time></trkpt><trkpt lat="44.8269182" lon="9.6736094"><ele>481.99999999999994</ele><time>2026-04-26T08:29:11.625Z</time></trkpt><trkpt lat="44.826988" lon="9.6735342"><ele>482.0</ele><time>2026-04-26T08:29:12.642Z</time></trkpt><trkpt lat="44.8270683" lon="9.6734742"><ele>479.8</ele><time>2026-04-26T08:29:13.639Z</time></trkpt><trkpt lat="44.8271603" lon="9.6734179"><ele>477.6</ele><time>2026-04-26T08:29:14.637Z</time></trkpt><trkpt lat="44.8272496" lon="9.6733591"><ele>475.40000000000003</ele><time>2026-04-26T08:29:15.633Z</time></trkpt><trkpt lat="44.8273405" lon="9.6732962"><ele>473.20000000000005</ele><time>2026-04-26T08:29:16.626Z</time></trkpt><trkpt lat="44.8274319" lon="9.6732388"><ele>471.0</ele><time>2026-04-26T08:29:17.636Z</time></trkpt><trkpt lat="44.8275122" lon="9.6731847"><ele>471.0</ele><time>2026-04-26T08:29:18.624Z</time></trkpt><trkpt lat="44.8275944" lon="9.6731596"><ele>471.0</ele><time>2026-04-26T08:29:19.632Z</time></trkpt><trkpt lat="44.8276736" lon="9.6731473"><ele>471.0</ele><time>2026-04-26T08:29:20.631Z</time></trkpt><trkpt lat="44.8277573" lon="9.6731273"><ele>471.0</ele><time>2026-04-26T08:29:21.635Z</time></trkpt><trkpt lat="44.8278347" lon="9.6730999"><ele>471.0</ele><time>2026-04-26T08:29:22.637Z</time></trkpt><trkpt lat="44.8279425" lon="9.6730939"><ele>471.0</ele><time>2026-04-26T08:29:24.639Z</time></trkpt><trkpt lat="44.8280314" lon="9.6731198"><ele>469.4</ele><time>2026-04-26T08:29:26.62Z</time></trkpt><trkpt lat="44.8281123" lon="9.6731716"><ele>467.8</ele><time>2026-04-26T08:29:28.643Z</time></trkpt><trkpt lat="44.8281991" lon="9.6732534"><ele>466.19999999999993</ele><time>2026-04-26T08:29:30.625Z</time></trkpt><trkpt lat="44.8283046" lon="9.6733203"><ele>464.59999999999997</ele><time>2026-04-26T08:29:32.638Z</time></trkpt><trkpt lat="44.8284302" lon="9.6733524"><ele>463.0</ele><time>2026-04-26T08:29:34.639Z</time></trkpt><trkpt lat="44.8285076" lon="9.6733445"><ele>462.1428571428571</ele><time>2026-04-26T08:29:35.635Z</time></trkpt><trkpt lat="44.8285866" lon="9.6733431"><ele>461.2857142857142</ele><time>2026-04-26T08:29:36.63Z</time></trkpt><trkpt lat="44.828664" lon="9.6733451"><ele>460.42857142857144</ele><time>2026-04-26T08:29:37.63Z</time></trkpt><trkpt lat="44.8287436" lon="9.6733446"><ele>459.57142857142856</ele><time>2026-04-26T08:29:38.639Z</time></trkpt><trkpt lat="44.8288135" lon="9.6733537"><ele>458.7142857142857</ele><time>2026-04-26T08:29:39.638Z</time></trkpt><trkpt lat="44.8288838" lon="9.6733686"><ele>457.8571428571429</ele><time>2026-04-26T08:29:40.635Z</time></trkpt><trkpt lat="44.8289546" lon="9.6733765"><ele>457.00000000000006</ele><time>2026-04-26T08:29:41.63Z</time></trkpt><trkpt lat="44.829064" lon="9.6733523"><ele>457.0</ele><time>2026-04-26T08:29:43.637Z</time></trkpt><trkpt lat="44.8291553" lon="9.6733018"><ele>457.00000000000006</ele><time>2026-04-26T08:29:45.634Z</time></trkpt><trkpt lat="44.8292429" lon="9.6732457"><ele>457.00000000000006</ele><time>2026-04-26T08:29:47.638Z</time></trkpt><trkpt lat="44.8293438" lon="9.6732208"><ele>457.0</ele><time>2026-04-26T08:29:49.638Z</time></trkpt><trkpt lat="44.8294553" lon="9.6732744"><ele>457.0</ele><time>2026-04-26T08:29:51.628Z</time></trkpt><trkpt lat="44.829551" lon="9.673382"><ele>454.4285714285715</ele><time>2026-04-26T08:29:53.617Z</time></trkpt><trkpt lat="44.8295977" lon="9.6734419"><ele>451.8571428571429</ele><time>2026-04-26T08:29:54.638Z</time></trkpt><trkpt lat="44.8296453" lon="9.6735084"><ele>449.28571428571433</ele><time>2026-04-26T08:29:55.63Z</time></trkpt><trkpt lat="44.8296959" lon="9.6735805"><ele>446.7142857142858</ele><time>2026-04-26T08:29:56.634Z</time></trkpt><trkpt lat="44.829749" lon="9.6736532"><ele>444.1428571428571</ele><time>2026-04-26T08:29:57.647Z</time></trkpt><trkpt lat="44.8298217" lon="9.6737119"><ele>441.57142857142856</ele><time>2026-04-26T08:29:58.635Z</time></trkpt><trkpt lat="44.8298939" lon="9.6737676"><ele>439.0</ele><time>2026-04-26T08:29:59.637Z</time></trkpt><trkpt lat="44.829967" lon="9.6738264"><ele>438.50000000000006</ele><time>2026-04-26T08:30:00.635Z</time></trkpt><trkpt lat="44.8300427" lon="9.6738739"><ele>438.0</ele><time>2026-04-26T08:30:01.636Z</time></trkpt><trkpt lat="44.8301163" lon="9.6739113"><ele>437.5</ele><time>2026-04-26T08:30:02.635Z</time></trkpt><trkpt lat="44.8301855" lon="9.6739294"><ele>437.0</ele><time>2026-04-26T08:30:03.631Z</time></trkpt><trkpt lat="44.8302549" lon="9.6739456"><ele>436.50000000000006</ele><time>2026-04-26T08:30:04.637Z</time></trkpt><trkpt lat="44.8303738" lon="9.6739682"><ele>436.0</ele><time>2026-04-26T08:30:06.641Z</time></trkpt><trkpt lat="44.830495" lon="9.6740051"><ele>435.20000000000005</ele><time>2026-04-26T08:30:08.625Z</time></trkpt><trkpt lat="44.830604" lon="9.6740628"><ele>434.40000000000003</ele><time>2026-04-26T08:30:10.61Z</time></trkpt><trkpt lat="44.8306824" lon="9.6740983"><ele>433.6</ele><time>2026-04-26T08:30:12.631Z</time></trkpt><trkpt lat="44.8307632" lon="9.6740932"><ele>432.8</ele><time>2026-04-26T08:30:14.629Z</time></trkpt><trkpt lat="44.8308255" lon="9.674029"><ele>432.0</ele><time>2026-04-26T08:30:16.637Z</time></trkpt><trkpt lat="44.830874" lon="9.6739102"><ele>432.0</ele><time>2026-04-26T08:30:18.63Z</time></trkpt><trkpt lat="44.8309352" lon="9.6737772"><ele>432.00000000000006</ele><time>2026-04-26T08:30:20.627Z</time></trkpt><trkpt lat="44.8310075" lon="9.6736514"><ele>432.00000000000006</ele><time>2026-04-26T08:30:22.631Z</time></trkpt><trkpt lat="44.831051" lon="9.6735823"><ele>432.0</ele><time>2026-04-26T08:30:23.645Z</time></trkpt><trkpt lat="44.831104" lon="9.6735269"><ele>432.0</ele><time>2026-04-26T08:30:24.632Z</time></trkpt><trkpt lat="44.8312295" lon="9.6734934"><ele>430.0</ele><time>2026-04-26T08:30:26.628Z</time></trkpt><trkpt lat="44.831302" lon="9.6734847"><ele>428.0</ele><time>2026-04-26T08:30:27.629Z</time></trkpt><trkpt lat="44.8313726" lon="9.6734796"><ele>426.0</ele><time>2026-04-26T08:30:28.632Z</time></trkpt><trkpt lat="44.8314455" lon="9.6734705"><ele>424.0</ele><time>2026-04-26T08:30:29.641Z</time></trkpt><trkpt lat="44.8315208" lon="9.6734588"><ele>422.0</ele><time>2026-04-26T08:30:30.643Z</time></trkpt><trkpt lat="44.8316013" lon="9.6734415"><ele>420.0</ele><time>2026-04-26T08:30:31.636Z</time></trkpt><trkpt lat="44.8316751" lon="9.6734292"><ele>418.0</ele><time>2026-04-26T08:30:32.644Z</time></trkpt><trkpt lat="44.8317481" lon="9.673416"><ele>414.59999999999997</ele><time>2026-04-26T08:30:33.633Z</time></trkpt><trkpt lat="44.8318142" lon="9.6734012"><ele>411.2</ele><time>2026-04-26T08:30:34.644Z</time></trkpt><trkpt lat="44.8319205" lon="9.6734416"><ele>407.8</ele><time>2026-04-26T08:30:36.633Z</time></trkpt><trkpt lat="44.8320071" lon="9.673588"><ele>404.4</ele><time>2026-04-26T08:30:38.63Z</time></trkpt><trkpt lat="44.8320532" lon="9.6736819"><ele>401.0</ele><time>2026-04-26T08:30:39.64Z</time></trkpt><trkpt lat="44.8321058" lon="9.6737837"><ele>400.4</ele><time>2026-04-26T08:30:40.634Z</time></trkpt><trkpt lat="44.8321608" lon="9.6738969"><ele>399.8</ele><time>2026-04-26T08:30:41.632Z</time></trkpt><trkpt lat="44.8322137" lon="9.6740144"><ele>399.2</ele><time>2026-04-26T08:30:42.645Z</time></trkpt><trkpt lat="44.8322693" lon="9.6741304"><ele>398.59999999999997</ele><time>2026-04-26T08:30:43.626Z</time></trkpt><trkpt lat="44.8323185" lon="9.6742569"><ele>398.0</ele><time>2026-04-26T08:30:44.629Z</time></trkpt><trkpt lat="44.8323671" lon="9.6743678"><ele>397.79999999999995</ele><time>2026-04-26T08:30:45.638Z</time></trkpt><trkpt lat="44.832416" lon="9.6744791"><ele>397.6</ele><time>2026-04-26T08:30:46.642Z</time></trkpt><trkpt lat="44.8324791" lon="9.674581"><ele>397.4</ele><time>2026-04-26T08:30:47.639Z</time></trkpt><trkpt lat="44.8325472" lon="9.6746781"><ele>397.20000000000005</ele><time>2026-04-26T08:30:48.619Z</time></trkpt><trkpt lat="44.8326187" lon="9.6747653"><ele>397.0</ele><time>2026-04-26T08:30:49.638Z</time></trkpt><trkpt lat="44.8326859" lon="9.6748517"><ele>397.00000000000006</ele><time>2026-04-26T08:30:50.633Z</time></trkpt><trkpt lat="44.8327481" lon="9.6749365"><ele>397.0</ele><time>2026-04-26T08:30:51.626Z</time></trkpt><trkpt lat="44.8328121" lon="9.6750108"><ele>397.0</ele><time>2026-04-26T08:30:52.642Z</time></trkpt><trkpt lat="44.8328711" lon="9.6750622"><ele>397.0</ele><time>2026-04-26T08:30:53.636Z</time></trkpt><trkpt lat="44.832974" lon="9.6751204"><ele>397.00000000000006</ele><time>2026-04-26T08:30:55.625Z</time></trkpt><trkpt lat="44.833064" lon="9.6751658"><ele>397.0</ele><time>2026-04-26T08:30:57.63Z</time></trkpt><trkpt lat="44.8331415" lon="9.6752333"><ele>398.20000000000005</ele><time>2026-04-26T08:30:59.637Z</time></trkpt><trkpt lat="44.8332276" lon="9.6752927"><ele>399.4</ele><time>2026-04-26T08:31:01.61Z</time></trkpt><trkpt lat="44.8333136" lon="9.6753655"><ele>400.6</ele><time>2026-04-26T08:31:03.631Z</time></trkpt><trkpt lat="44.8334037" lon="9.675444"><ele>401.79999999999995</ele><time>2026-04-26T08:31:05.634Z</time></trkpt><trkpt lat="44.8334854" lon="9.6755084"><ele>403.0</ele><time>2026-04-26T08:31:07.617Z</time></trkpt><trkpt lat="44.8335564" lon="9.6755426"><ele>403.1666666666667</ele><time>2026-04-26T08:31:09.635Z</time></trkpt><trkpt lat="44.8336354" lon="9.6755754"><ele>403.33333333333337</ele><time>2026-04-26T08:31:11.626Z</time></trkpt><trkpt lat="44.8337146" lon="9.6755883"><ele>403.5</ele><time>2026-04-26T08:31:13.639Z</time></trkpt><trkpt lat="44.8337958" lon="9.6756183"><ele>403.66666666666663</ele><time>2026-04-26T08:31:15.634Z</time></trkpt><trkpt lat="44.8338842" lon="9.675647"><ele>403.8333333333333</ele><time>2026-04-26T08:31:17.636Z</time></trkpt><trkpt lat="44.8339758" lon="9.6756774"><ele>404.0</ele><time>2026-04-26T08:31:19.634Z</time></trkpt><trkpt lat="44.8340651" lon="9.675698"><ele>403.99999999999994</ele><time>2026-04-26T08:31:21.633Z</time></trkpt><trkpt lat="44.834149" lon="9.6757206"><ele>404.0</ele><time>2026-04-26T08:31:23.636Z</time></trkpt><trkpt lat="44.8342342" lon="9.6757318"><ele>404.0</ele><time>2026-04-26T08:31:25.625Z</time></trkpt><trkpt lat="44.8343235" lon="9.6757327"><ele>404.0</ele><time>2026-04-26T08:31:27.639Z</time></trkpt><trkpt lat="44.8344136" lon="9.6757222"><ele>403.99999999999994</ele><time>2026-04-26T08:31:29.632Z</time></trkpt><trkpt lat="44.8345025" lon="9.67571"><ele>404.0</ele><time>2026-04-26T08:31:31.631Z</time></trkpt><trkpt lat="44.8345867" lon="9.6756956"><ele>404.49999999999994</ele><time>2026-04-26T08:31:33.638Z</time></trkpt><trkpt lat="44.8346787" lon="9.675677"><ele>405.0</ele><time>2026-04-26T08:31:35.636Z</time></trkpt><trkpt lat="44.8347681" lon="9.6756654"><ele>405.5</ele><time>2026-04-26T08:31:37.633Z</time></trkpt><trkpt lat="44.8348533" lon="9.6756492"><ele>406.0</ele><time>2026-04-26T08:31:39.633Z</time></trkpt><trkpt lat="44.8349382" lon="9.675614"><ele>406.49999999999994</ele><time>2026-04-26T08:31:41.64Z</time></trkpt><trkpt lat="44.835012" lon="9.6756023"><ele>407.0</ele><time>2026-04-26T08:31:43.627Z</time></trkpt><trkpt lat="44.8350803" lon="9.6755919"><ele>406.66666666666663</ele><time>2026-04-26T08:31:45.631Z</time></trkpt><trkpt lat="44.8351454" lon="9.6755756"><ele>406.3333333333333</ele><time>2026-04-26T08:31:47.637Z</time></trkpt><trkpt lat="44.8352337" lon="9.6755517"><ele>406.0</ele><time>2026-04-26T08:31:50.635Z</time></trkpt><trkpt lat="44.8352997" lon="9.6755389"><ele>405.66666666666663</ele><time>2026-04-26T08:31:52.629Z</time></trkpt><trkpt lat="44.8353806" lon="9.6755426"><ele>405.3333333333333</ele><time>2026-04-26T08:31:54.632Z</time></trkpt><trkpt lat="44.8354867" lon="9.675547"><ele>405.0</ele><time>2026-04-26T08:31:56.641Z</time></trkpt><trkpt lat="44.8355864" lon="9.6755528"><ele>405.0</ele><time>2026-04-26T08:31:58.64Z</time></trkpt><trkpt lat="44.8356834" lon="9.6755489"><ele>405.0</ele><time>2026-04-26T08:32:00.638Z</time></trkpt><trkpt lat="44.8357904" lon="9.6755612"><ele>405.0</ele><time>2026-04-26T08:32:02.638Z</time></trkpt><trkpt lat="44.8358787" lon="9.6756097"><ele>405.0</ele><time>2026-04-26T08:32:04.635Z</time></trkpt><trkpt lat="44.8359757" lon="9.6756595"><ele>405.0</ele><time>2026-04-26T08:32:06.631Z</time></trkpt><trkpt lat="44.8360461" lon="9.6757428"><ele>402.6</ele><time>2026-04-26T08:32:08.645Z</time></trkpt><trkpt lat="44.8360785" lon="9.6758964"><ele>400.2</ele><time>2026-04-26T08:32:10.629Z</time></trkpt><trkpt lat="44.8360988" lon="9.6760755"><ele>397.79999999999995</ele><time>2026-04-26T08:32:12.627Z</time></trkpt><trkpt lat="44.8361152" lon="9.6761909"><ele>395.4</ele><time>2026-04-26T08:32:13.63Z</time></trkpt><trkpt lat="44.8361447" lon="9.6762883"><ele>393.0</ele><time>2026-04-26T08:32:14.634Z</time></trkpt><trkpt lat="44.8361775" lon="9.676384"><ele>393.0</ele><time>2026-04-26T08:32:15.629Z</time></trkpt><trkpt lat="44.8362184" lon="9.6764785"><ele>393.0</ele><time>2026-04-26T08:32:16.64Z</time></trkpt><trkpt lat="44.8362695" lon="9.6765624"><ele>393.0</ele><time>2026-04-26T08:32:17.623Z</time></trkpt><trkpt lat="44.8363286" lon="9.6766303"><ele>393.0</ele><time>2026-04-26T08:32:18.629Z</time></trkpt><trkpt lat="44.8363912" lon="9.6766813"><ele>393.0</ele><time>2026-04-26T08:32:19.639Z</time></trkpt><trkpt lat="44.8365015" lon="9.6767494"><ele>393.0</ele><time>2026-04-26T08:32:21.638Z</time></trkpt><trkpt lat="44.8366023" lon="9.6768303"><ele>393.0</ele><time>2026-04-26T08:32:23.629Z</time></trkpt><trkpt lat="44.8366611" lon="9.6768821"><ele>393.0</ele><time>2026-04-26T08:32:24.636Z</time></trkpt><trkpt lat="44.8367303" lon="9.6769418"><ele>393.0</ele><time>2026-04-26T08:32:25.646Z</time></trkpt><trkpt lat="44.8368002" lon="9.6769937"><ele>393.0</ele><time>2026-04-26T08:32:26.651Z</time></trkpt><trkpt lat="44.8368673" lon="9.6770362"><ele>393.0</ele><time>2026-04-26T08:32:27.644Z</time></trkpt><trkpt lat="44.8369318" lon="9.6770691"><ele>393.0</ele><time>2026-04-26T08:32:28.642Z</time></trkpt><trkpt lat="44.8370203" lon="9.6771432"><ele>391.5</ele><time>2026-04-26T08:32:30.645Z</time></trkpt><trkpt lat="44.8370579" lon="9.6772444"><ele>390.0</ele><time>2026-04-26T08:32:32.63Z</time></trkpt><trkpt lat="44.8371022" lon="9.6773178"><ele>388.5</ele><time>2026-04-26T08:33:05.609Z</time></trkpt><trkpt lat="44.8370669" lon="9.6772127"><ele>387.0</ele><time>2026-04-26T08:33:54.623Z</time></trkpt><trkpt lat="44.8371115" lon="9.6771278"><ele>385.5</ele><time>2026-04-26T08:33:57.628Z</time></trkpt><trkpt lat="44.8371729" lon="9.6772127"><ele>384.0</ele><time>2026-04-26T08:34:00.642Z</time></trkpt><trkpt lat="44.8372333" lon="9.6772605"><ele>384.0</ele><time>2026-04-26T08:34:02.631Z</time></trkpt><trkpt lat="44.8373158" lon="9.6773435"><ele>384.0</ele><time>2026-04-26T08:34:04.634Z</time></trkpt><trkpt lat="44.8374083" lon="9.6774146"><ele>384.0</ele><time>2026-04-26T08:34:06.63Z</time></trkpt><trkpt lat="44.8375104" lon="9.6774951"><ele>384.0</ele><time>2026-04-26T08:34:08.626Z</time></trkpt><trkpt lat="44.8375628" lon="9.6775465"><ele>384.0</ele><time>2026-04-26T08:34:09.636Z</time></trkpt><trkpt lat="44.8376172" lon="9.6775975"><ele>383.3333333333333</ele><time>2026-04-26T08:34:10.636Z</time></trkpt><trkpt lat="44.8376801" lon="9.6776214"><ele>382.6666666666667</ele><time>2026-04-26T08:34:11.633Z</time></trkpt><trkpt lat="44.8377564" lon="9.6776385"><ele>382.0</ele><time>2026-04-26T08:34:12.635Z</time></trkpt><trkpt lat="44.8378223" lon="9.6776213"><ele>381.33333333333337</ele><time>2026-04-26T08:34:13.628Z</time></trkpt><trkpt lat="44.8379037" lon="9.6775607"><ele>380.6666666666667</ele><time>2026-04-26T08:34:15.622Z</time></trkpt><trkpt lat="44.8379921" lon="9.6775103"><ele>380.0</ele><time>2026-04-26T08:34:17.628Z</time></trkpt><trkpt lat="44.8380896" lon="9.6774895"><ele>380.0</ele><time>2026-04-26T08:34:19.631Z</time></trkpt><trkpt lat="44.8382156" lon="9.6775084"><ele>380.0</ele><time>2026-04-26T08:34:21.633Z</time></trkpt><trkpt lat="44.8382797" lon="9.6775301"><ele>380.0</ele><time>2026-04-26T08:34:22.634Z</time></trkpt><trkpt lat="44.8383453" lon="9.6775494"><ele>380.0</ele><time>2026-04-26T08:34:23.637Z</time></trkpt><trkpt lat="44.8384077" lon="9.677566"><ele>380.0</ele><time>2026-04-26T08:34:24.63Z</time></trkpt><trkpt lat="44.8385176" lon="9.6775706"><ele>380.0</ele><time>2026-04-26T08:34:26.625Z</time></trkpt><trkpt lat="44.8386306" lon="9.6775201"><ele>379.5</ele><time>2026-04-26T08:34:28.63Z</time></trkpt><trkpt lat="44.8386847" lon="9.6774707"><ele>379.0</ele><time>2026-04-26T08:34:29.629Z</time></trkpt><trkpt lat="44.8387387" lon="9.6774072"><ele>378.5</ele><time>2026-04-26T08:34:30.638Z</time></trkpt><trkpt lat="44.8387855" lon="9.6773438"><ele>378.0</ele><time>2026-04-26T08:34:31.628Z</time></trkpt><trkpt lat="44.8388381" lon="9.6772805"><ele>377.5</ele><time>2026-04-26T08:34:32.617Z</time></trkpt><trkpt lat="44.8389321" lon="9.6772049"><ele>377.0</ele><time>2026-04-26T08:34:34.624Z</time></trkpt><trkpt lat="44.8390435" lon="9.6771932"><ele>377.0</ele><time>2026-04-26T08:34:36.625Z</time></trkpt><trkpt lat="44.8391509" lon="9.6772696"><ele>377.0</ele><time>2026-04-26T08:34:38.618Z</time></trkpt><trkpt lat="44.8392544" lon="9.6773365"><ele>377.0</ele><time>2026-04-26T08:34:40.629Z</time></trkpt><trkpt lat="44.8393314" lon="9.6773765"><ele>377.0</ele><time>2026-04-26T08:34:42.623Z</time></trkpt><trkpt lat="44.839416" lon="9.6774053"><ele>377.0</ele><time>2026-04-26T08:34:57.621Z</time></trkpt><trkpt lat="44.8394821" lon="9.6774344"><ele>376.0</ele><time>2026-04-26T08:34:59.635Z</time></trkpt><trkpt lat="44.8395858" lon="9.6774894"><ele>375.0</ele><time>2026-04-26T08:35:01.621Z</time></trkpt><trkpt lat="44.8396518" lon="9.6775216"><ele>374.0</ele><time>2026-04-26T08:35:02.616Z</time></trkpt><trkpt lat="44.8397252" lon="9.6775616"><ele>373.0</ele><time>2026-04-26T08:35:03.607Z</time></trkpt><trkpt lat="44.8397948" lon="9.6775977"><ele>372.0</ele><time>2026-04-26T08:35:04.636Z</time></trkpt><trkpt lat="44.8398626" lon="9.6775973"><ele>371.0</ele><time>2026-04-26T08:35:05.629Z</time></trkpt><trkpt lat="44.8399196" lon="9.6775457"><ele>371.0</ele><time>2026-04-26T08:35:06.627Z</time></trkpt><trkpt lat="44.8399578" lon="9.677462"><ele>371.0</ele><time>2026-04-26T08:35:07.625Z</time></trkpt><trkpt lat="44.8399885" lon="9.6773752"><ele>371.0</ele><time>2026-04-26T08:35:08.619Z</time></trkpt><trkpt lat="44.8400221" lon="9.6772925"><ele>371.0</ele><time>2026-04-26T08:35:09.637Z</time></trkpt><trkpt lat="44.8400595" lon="9.6772195"><ele>371.0</ele><time>2026-04-26T08:35:10.637Z</time></trkpt><trkpt lat="44.8400933" lon="9.6771367"><ele>371.0</ele><time>2026-04-26T08:35:11.625Z</time></trkpt><trkpt lat="44.8401404" lon="9.6769651"><ele>370.57142857142856</ele><time>2026-04-26T08:35:13.623Z</time></trkpt><trkpt lat="44.8401589" lon="9.6768692"><ele>370.1428571428571</ele><time>2026-04-26T08:35:14.629Z</time></trkpt><trkpt lat="44.8401771" lon="9.6767762"><ele>369.7142857142857</ele><time>2026-04-26T08:35:15.629Z</time></trkpt><trkpt lat="44.8401953" lon="9.6766799"><ele>369.2857142857143</ele><time>2026-04-26T08:35:16.624Z</time></trkpt><trkpt lat="44.8402232" lon="9.6765767"><ele>368.85714285714283</ele><time>2026-04-26T08:35:17.629Z</time></trkpt><trkpt lat="44.8402781" lon="9.6764982"><ele>368.42857142857144</ele><time>2026-04-26T08:35:18.612Z</time></trkpt><trkpt lat="44.8403491" lon="9.6764708"><ele>368.0</ele><time>2026-04-26T08:35:19.629Z</time></trkpt><trkpt lat="44.8404268" lon="9.6764563"><ele>368.0</ele><time>2026-04-26T08:35:20.624Z</time></trkpt><trkpt lat="44.8404985" lon="9.6764392"><ele>368.0</ele><time>2026-04-26T08:35:21.62Z</time></trkpt><trkpt lat="44.8405727" lon="9.6764177"><ele>368.0</ele><time>2026-04-26T08:35:22.624Z</time></trkpt><trkpt lat="44.84065" lon="9.6763999"><ele>368.0</ele><time>2026-04-26T08:35:23.612Z</time></trkpt><trkpt lat="44.8407209" lon="9.6763736"><ele>368.0</ele><time>2026-04-26T08:35:24.632Z</time></trkpt><trkpt lat="44.8408023" lon="9.6763483"><ele>368.0</ele><time>2026-04-26T08:35:25.628Z</time></trkpt><trkpt lat="44.8408837" lon="9.6763294"><ele>368.0</ele><time>2026-04-26T08:35:26.638Z</time></trkpt><trkpt lat="44.8409609" lon="9.6763203"><ele>368.0</ele><time>2026-04-26T08:35:27.627Z</time></trkpt><trkpt lat="44.8410378" lon="9.6763373"><ele>368.0</ele><time>2026-04-26T08:35:28.63Z</time></trkpt><trkpt lat="44.8411104" lon="9.6763681"><ele>368.0</ele><time>2026-04-26T08:35:29.635Z</time></trkpt><trkpt lat="44.8411743" lon="9.6763634"><ele>368.0</ele><time>2026-04-26T08:35:30.625Z</time></trkpt><trkpt lat="44.8412354" lon="9.6762357"><ele>368.0</ele><time>2026-04-26T08:35:32.629Z</time></trkpt><trkpt lat="44.841206" lon="9.6761526"><ele>364.6666666666667</ele><time>2026-04-26T08:35:33.62Z</time></trkpt><trkpt lat="44.8411504" lon="9.6760873"><ele>361.33333333333337</ele><time>2026-04-26T08:35:34.599Z</time></trkpt><trkpt lat="44.8410892" lon="9.676041"><ele>358.0</ele><time>2026-04-26T08:35:35.599Z</time></trkpt><trkpt lat="44.8410173" lon="9.6759881"><ele>354.6666666666667</ele><time>2026-04-26T08:35:36.623Z</time></trkpt><trkpt lat="44.8409352" lon="9.6759599"><ele>351.3333333333333</ele><time>2026-04-26T08:35:37.629Z</time></trkpt><trkpt lat="44.8408523" lon="9.6759504"><ele>348.0</ele><time>2026-04-26T08:35:38.621Z</time></trkpt><trkpt lat="44.8407616" lon="9.6759613"><ele>348.0</ele><time>2026-04-26T08:35:39.634Z</time></trkpt><trkpt lat="44.8406836" lon="9.6759877"><ele>348.0</ele><time>2026-04-26T08:35:40.632Z</time></trkpt><trkpt lat="44.8406114" lon="9.6760356"><ele>348.0</ele><time>2026-04-26T08:35:41.626Z</time></trkpt><trkpt lat="44.8405349" lon="9.6760686"><ele>348.0</ele><time>2026-04-26T08:35:42.618Z</time></trkpt><trkpt lat="44.8404552" lon="9.6760994"><ele>348.0</ele><time>2026-04-26T08:35:43.638Z</time></trkpt><trkpt lat="44.8403687" lon="9.6760959"><ele>348.0</ele><time>2026-04-26T08:35:44.634Z</time></trkpt><trkpt lat="44.8402775" lon="9.6760709"><ele>348.0</ele><time>2026-04-26T08:35:45.626Z</time></trkpt><trkpt lat="44.8401837" lon="9.6760344"><ele>348.0</ele><time>2026-04-26T08:35:46.629Z</time></trkpt><trkpt lat="44.8400842" lon="9.6760172"><ele>348.0</ele><time>2026-04-26T08:35:47.622Z</time></trkpt><trkpt lat="44.8399948" lon="9.6760171"><ele>348.0</ele><time>2026-04-26T08:35:48.629Z</time></trkpt><trkpt lat="44.8398959" lon="9.6760113"><ele>348.0</ele><time>2026-04-26T08:35:49.627Z</time></trkpt><trkpt lat="44.8397981" lon="9.6759666"><ele>348.0</ele><time>2026-04-26T08:35:50.626Z</time></trkpt><trkpt lat="44.839726" lon="9.6758845"><ele>348.0</ele><time>2026-04-26T08:35:51.617Z</time></trkpt><trkpt lat="44.8396806" lon="9.6757634"><ele>348.0</ele><time>2026-04-26T08:35:52.627Z</time></trkpt><trkpt lat="44.839657" lon="9.6756369"><ele>348.0</ele><time>2026-04-26T08:35:53.62Z</time></trkpt><trkpt lat="44.8396313" lon="9.6755101"><ele>348.0</ele><time>2026-04-26T08:35:54.603Z</time></trkpt><trkpt lat="44.8395913" lon="9.6754015"><ele>348.0</ele><time>2026-04-26T08:35:55.623Z</time></trkpt><trkpt lat="44.8395255" lon="9.6752884"><ele>348.0</ele><time>2026-04-26T08:35:56.638Z</time></trkpt><trkpt lat="44.8394444" lon="9.6752081"><ele>348.0</ele><time>2026-04-26T08:35:57.624Z</time></trkpt><trkpt lat="44.8393546" lon="9.6751494"><ele>348.0</ele><time>2026-04-26T08:35:58.629Z</time></trkpt><trkpt lat="44.8392665" lon="9.6750975"><ele>348.0</ele><time>2026-04-26T08:35:59.627Z</time></trkpt><trkpt lat="44.8391716" lon="9.6750764"><ele>346.0</ele><time>2026-04-26T08:36:00.629Z</time></trkpt><trkpt lat="44.8390678" lon="9.6750593"><ele>344.0</ele><time>2026-04-26T08:36:01.622Z</time></trkpt><trkpt lat="44.8389713" lon="9.6750433"><ele>342.0</ele><time>2026-04-26T08:36:02.623Z</time></trkpt><trkpt lat="44.8388681" lon="9.675031"><ele>340.0</ele><time>2026-04-26T08:36:03.626Z</time></trkpt><trkpt lat="44.8387726" lon="9.6750245"><ele>338.0</ele><time>2026-04-26T08:36:04.61Z</time></trkpt><trkpt lat="44.8386877" lon="9.6749861"><ele>338.0</ele><time>2026-04-26T08:36:05.624Z</time></trkpt><trkpt lat="44.8386021" lon="9.6749241"><ele>338.0</ele><time>2026-04-26T08:36:06.627Z</time></trkpt><trkpt lat="44.8385435" lon="9.6748414"><ele>338.0</ele><time>2026-04-26T08:36:07.625Z</time></trkpt><trkpt lat="44.8385125" lon="9.6747347"><ele>338.0</ele><time>2026-04-26T08:36:08.614Z</time></trkpt><trkpt lat="44.8385047" lon="9.6746234"><ele>338.0</ele><time>2026-04-26T08:36:09.621Z</time></trkpt><trkpt lat="44.8385287" lon="9.6745287"><ele>338.0</ele><time>2026-04-26T08:36:10.622Z</time></trkpt><trkpt lat="44.8385781" lon="9.6744617"><ele>338.0</ele><time>2026-04-26T08:36:11.629Z</time></trkpt><trkpt lat="44.8386561" lon="9.6744593"><ele>338.0</ele><time>2026-04-26T08:36:12.623Z</time></trkpt><trkpt lat="44.8387381" lon="9.6744993"><ele>338.0</ele><time>2026-04-26T08:36:13.628Z</time></trkpt><trkpt lat="44.8388148" lon="9.674529"><ele>338.0</ele><time>2026-04-26T08:36:14.616Z</time></trkpt><trkpt lat="44.8388918" lon="9.6745572"><ele>338.0</ele><time>2026-04-26T08:36:15.627Z</time></trkpt><trkpt lat="44.838972" lon="9.6745837"><ele>338.0</ele><time>2026-04-26T08:36:16.625Z</time></trkpt><trkpt lat="44.839055" lon="9.6746066"><ele>338.0</ele><time>2026-04-26T08:36:17.629Z</time></trkpt><trkpt lat="44.8391407" lon="9.6746149"><ele>338.0</ele><time>2026-04-26T08:36:18.629Z</time></trkpt><trkpt lat="44.839229" lon="9.6746184"><ele>338.0</ele><time>2026-04-26T08:36:19.628Z</time></trkpt><trkpt lat="44.8393173" lon="9.6746172"><ele>338.0</ele><time>2026-04-26T08:36:20.633Z</time></trkpt><trkpt lat="44.8394015" lon="9.6746134"><ele>338.0</ele><time>2026-04-26T08:36:21.617Z</time></trkpt><trkpt lat="44.8394886" lon="9.6746174"><ele>338.0</ele><time>2026-04-26T08:36:22.629Z</time></trkpt><trkpt lat="44.8395743" lon="9.6746089"><ele>337.2</ele><time>2026-04-26T08:36:23.617Z</time></trkpt><trkpt lat="44.8396592" lon="9.6745805"><ele>336.4</ele><time>2026-04-26T08:36:24.633Z</time></trkpt><trkpt lat="44.8397493" lon="9.674545"><ele>335.59999999999997</ele><time>2026-04-26T08:36:25.625Z</time></trkpt><trkpt lat="44.8398354" lon="9.6745038"><ele>334.79999999999995</ele><time>2026-04-26T08:36:26.63Z</time></trkpt><trkpt lat="44.8399214" lon="9.6744746"><ele>334.0</ele><time>2026-04-26T08:36:27.626Z</time></trkpt><trkpt lat="44.8400174" lon="9.6744905"><ele>334.0</ele><time>2026-04-26T08:36:28.632Z</time></trkpt><trkpt lat="44.8401159" lon="9.674529"><ele>334.0</ele><time>2026-04-26T08:36:29.627Z</time></trkpt><trkpt lat="44.8402167" lon="9.6745247"><ele>334.0</ele><time>2026-04-26T08:36:30.625Z</time></trkpt><trkpt lat="44.8403166" lon="9.6744969"><ele>334.0</ele><time>2026-04-26T08:36:31.633Z</time></trkpt><trkpt lat="44.8404079" lon="9.6744764"><ele>334.0</ele><time>2026-04-26T08:36:32.621Z</time></trkpt><trkpt lat="44.8404982" lon="9.6744767"><ele>333.1428571428571</ele><time>2026-04-26T08:36:33.625Z</time></trkpt><trkpt lat="44.8405679" lon="9.6745249"><ele>332.2857142857143</ele><time>2026-04-26T08:36:34.603Z</time></trkpt><trkpt lat="44.8406374" lon="9.6745853"><ele>331.42857142857144</ele><time>2026-04-26T08:36:35.62Z</time></trkpt><trkpt lat="44.8407057" lon="9.6746251"><ele>330.57142857142856</ele><time>2026-04-26T08:36:36.631Z</time></trkpt><trkpt lat="44.8407701" lon="9.6746566"><ele>329.7142857142857</ele><time>2026-04-26T08:36:37.605Z</time></trkpt><trkpt lat="44.8408356" lon="9.6746857"><ele>328.85714285714283</ele><time>2026-04-26T08:36:38.63Z</time></trkpt><trkpt lat="44.8408997" lon="9.6747257"><ele>328.0</ele><time>2026-04-26T08:36:39.617Z</time></trkpt><trkpt lat="44.8409667" lon="9.6747474"><ele>327.2857142857143</ele><time>2026-04-26T08:36:40.619Z</time></trkpt><trkpt lat="44.8410302" lon="9.6747699"><ele>326.57142857142856</ele><time>2026-04-26T08:36:41.633Z</time></trkpt><trkpt lat="44.8410998" lon="9.6747832"><ele>325.8571428571429</ele><time>2026-04-26T08:36:42.629Z</time></trkpt><trkpt lat="44.8411668" lon="9.6747964"><ele>325.1428571428571</ele><time>2026-04-26T08:36:43.625Z</time></trkpt><trkpt lat="44.8412326" lon="9.6748019"><ele>324.42857142857144</ele><time>2026-04-26T08:36:44.619Z</time></trkpt><trkpt lat="44.8412979" lon="9.6747989"><ele>323.7142857142857</ele><time>2026-04-26T08:36:45.624Z</time></trkpt><trkpt lat="44.8413663" lon="9.6747832"><ele>323.0</ele><time>2026-04-26T08:36:46.627Z</time></trkpt><trkpt lat="44.8414378" lon="9.6747616"><ele>323.0</ele><time>2026-04-26T08:36:47.627Z</time></trkpt><trkpt lat="44.8415044" lon="9.6747326"><ele>323.0</ele><time>2026-04-26T08:36:48.628Z</time></trkpt><trkpt lat="44.8415711" lon="9.6746908"><ele>323.0</ele><time>2026-04-26T08:36:49.621Z</time></trkpt><trkpt lat="44.8416301" lon="9.67465"><ele>323.0</ele><time>2026-04-26T08:36:50.636Z</time></trkpt><trkpt lat="44.841689" lon="9.6746081"><ele>323.0</ele><time>2026-04-26T08:36:51.624Z</time></trkpt><trkpt lat="44.8417513" lon="9.6745727"><ele>323.0</ele><time>2026-04-26T08:36:52.628Z</time></trkpt><trkpt lat="44.8418618" lon="9.6745294"><ele>322.5</ele><time>2026-04-26T08:36:54.637Z</time></trkpt><trkpt lat="44.8419721" lon="9.674498"><ele>322.0</ele><time>2026-04-26T08:36:56.648Z</time></trkpt><trkpt lat="44.8420891" lon="9.6744703"><ele>321.5</ele><time>2026-04-26T08:36:58.641Z</time></trkpt><trkpt lat="44.842206" lon="9.6744438"><ele>321.0</ele><time>2026-04-26T08:37:00.599Z</time></trkpt><trkpt lat="44.8423346" lon="9.6744226"><ele>320.99999999999994</ele><time>2026-04-26T08:37:02.627Z</time></trkpt><trkpt lat="44.8424067" lon="9.6743929"><ele>321.0</ele><time>2026-04-26T08:37:03.625Z</time></trkpt><trkpt lat="44.842476" lon="9.6743657"><ele>321.0</ele><time>2026-04-26T08:37:04.623Z</time></trkpt><trkpt lat="44.8425397" lon="9.674341"><ele>321.0</ele><time>2026-04-26T08:37:05.637Z</time></trkpt><trkpt lat="44.8426006" lon="9.6743038"><ele>321.0</ele><time>2026-04-26T08:37:06.64Z</time></trkpt><trkpt lat="44.8426642" lon="9.6742612"><ele>320.99999999999994</ele><time>2026-04-26T08:37:07.626Z</time></trkpt><trkpt lat="44.8427252" lon="9.6742042"><ele>321.0</ele><time>2026-04-26T08:37:08.626Z</time></trkpt><trkpt lat="44.8427868" lon="9.6741453"><ele>319.6666666666667</ele><time>2026-04-26T08:37:09.62Z</time></trkpt><trkpt lat="44.842846" lon="9.6740864"><ele>318.3333333333333</ele><time>2026-04-26T08:37:10.63Z</time></trkpt><trkpt lat="44.8429054" lon="9.6740274"><ele>317.0</ele><time>2026-04-26T08:37:11.598Z</time></trkpt><trkpt lat="44.8429629" lon="9.6739792"><ele>315.66666666666663</ele><time>2026-04-26T08:37:12.622Z</time></trkpt><trkpt lat="44.8430243" lon="9.6739395"><ele>314.3333333333333</ele><time>2026-04-26T08:37:13.627Z</time></trkpt><trkpt lat="44.8430845" lon="9.6739054"><ele>313.0</ele><time>2026-04-26T08:37:14.625Z</time></trkpt><trkpt lat="44.8431957" lon="9.6738576"><ele>313.0</ele><time>2026-04-26T08:37:16.629Z</time></trkpt><trkpt lat="44.8433135" lon="9.6738033"><ele>313.0</ele><time>2026-04-26T08:37:18.61Z</time></trkpt><trkpt lat="44.8434097" lon="9.6737552"><ele>313.0</ele><time>2026-04-26T08:37:20.628Z</time></trkpt><trkpt lat="44.8434975" lon="9.6737054"><ele>313.0</ele><time>2026-04-26T08:37:22.629Z</time></trkpt><trkpt lat="44.8435736" lon="9.6736395"><ele>313.0</ele><time>2026-04-26T08:37:24.628Z</time></trkpt><trkpt lat="44.8436361" lon="9.6735914"><ele>314.8333333333333</ele><time>2026-04-26T08:37:26.637Z</time></trkpt><trkpt lat="44.8437136" lon="9.6735431"><ele>316.66666666666663</ele><time>2026-04-26T08:37:29.627Z</time></trkpt><trkpt lat="44.8437935" lon="9.6735032"><ele>318.5</ele><time>2026-04-26T08:37:32.632Z</time></trkpt><trkpt lat="44.8438711" lon="9.6734534"><ele>320.3333333333333</ele><time>2026-04-26T08:37:35.621Z</time></trkpt><trkpt lat="44.8439468" lon="9.673399"><ele>322.1666666666667</ele><time>2026-04-26T08:37:38.615Z</time></trkpt><trkpt lat="44.8440026" lon="9.6733267"><ele>324.0</ele><time>2026-04-26T08:37:41.611Z</time></trkpt><trkpt lat="44.8440583" lon="9.6732423"><ele>324.0</ele><time>2026-04-26T08:37:44.638Z</time></trkpt><trkpt lat="44.8441034" lon="9.6731412"><ele>324.0</ele><time>2026-04-26T08:37:47.633Z</time></trkpt><trkpt lat="44.844156" lon="9.6730542"><ele>324.0</ele><time>2026-04-26T08:37:50.636Z</time></trkpt><trkpt lat="44.8442305" lon="9.6729781"><ele>324.0</ele><time>2026-04-26T08:37:53.621Z</time></trkpt><trkpt lat="44.8443023" lon="9.6729192"><ele>324.0</ele><time>2026-04-26T08:37:56.63Z</time></trkpt><trkpt lat="44.8443774" lon="9.6728617"><ele>324.0</ele><time>2026-04-26T08:37:59.622Z</time></trkpt><trkpt lat="44.8444491" lon="9.672804"><ele>324.1666666666667</ele><time>2026-04-26T08:38:02.625Z</time></trkpt><trkpt lat="44.8445155" lon="9.6727337"><ele>324.3333333333333</ele><time>2026-04-26T08:38:05.626Z</time></trkpt><trkpt lat="44.8445711" lon="9.672641"><ele>324.5</ele><time>2026-04-26T08:38:08.62Z</time></trkpt><trkpt lat="44.8446196" lon="9.6725345"><ele>324.66666666666663</ele><time>2026-04-26T08:38:11.631Z</time></trkpt><trkpt lat="44.8446485" lon="9.6724201"><ele>324.8333333333333</ele><time>2026-04-26T08:38:14.638Z</time></trkpt><trkpt lat="44.8446637" lon="9.6723247"><ele>325.0</ele><time>2026-04-26T08:38:17.634Z</time></trkpt><trkpt lat="44.8446757" lon="9.6722242"><ele>325.0</ele><time>2026-04-26T08:38:21.625Z</time></trkpt><trkpt lat="44.8446766" lon="9.6721215"><ele>325.0</ele><time>2026-04-26T08:38:25.629Z</time></trkpt><trkpt lat="44.8446719" lon="9.6720313"><ele>325.0</ele><time>2026-04-26T08:38:29.625Z</time></trkpt><trkpt lat="44.8446629" lon="9.6719334"><ele>325.0</ele><time>2026-04-26T08:38:33.625Z</time></trkpt><trkpt lat="44.8446756" lon="9.6718331"><ele>325.0</ele><time>2026-04-26T08:38:38.63Z</time></trkpt><trkpt lat="44.8446615" lon="9.6717237"><ele>325.0</ele><time>2026-04-26T08:38:42.626Z</time></trkpt><trkpt lat="44.8446709" lon="9.6716191"><ele>325.0</ele><time>2026-04-26T08:38:47.626Z</time></trkpt><trkpt lat="44.8446673" lon="9.671525"><ele>325.57142857142856</ele><time>2026-04-26T08:38:51.619Z</time></trkpt><trkpt lat="44.8446742" lon="9.6714326"><ele>326.14285714285717</ele><time>2026-04-26T08:38:55.609Z</time></trkpt><trkpt lat="44.8446719" lon="9.6713306"><ele>326.7142857142857</ele><time>2026-04-26T08:39:00.63Z</time></trkpt><trkpt lat="44.8446872" lon="9.6712226"><ele>327.2857142857143</ele><time>2026-04-26T08:39:05.628Z</time></trkpt><trkpt lat="44.8446974" lon="9.6711319"><ele>327.8571428571429</ele><time>2026-04-26T08:39:09.615Z</time></trkpt><trkpt lat="44.8447141" lon="9.6710252"><ele>328.42857142857144</ele><time>2026-04-26T08:39:14.634Z</time></trkpt><trkpt lat="44.8447298" lon="9.6709176"><ele>329.0</ele><time>2026-04-26T08:39:19.626Z</time></trkpt><trkpt lat="44.8447609" lon="9.6708213"><ele>330.0</ele><time>2026-04-26T08:39:24.615Z</time></trkpt><trkpt lat="44.8447765" lon="9.6707329"><ele>331.0</ele><time>2026-04-26T08:39:28.628Z</time></trkpt><trkpt lat="44.8447945" lon="9.6706406"><ele>332.0</ele><time>2026-04-26T08:39:32.626Z</time></trkpt><trkpt lat="44.8448134" lon="9.670546"><ele>333.0</ele><time>2026-04-26T08:39:36.635Z</time></trkpt><trkpt lat="44.8448164" lon="9.6704432"><ele>334.0</ele><time>2026-04-26T08:39:40.626Z</time></trkpt><trkpt lat="44.8448386" lon="9.6703469"><ele>335.0</ele><time>2026-04-26T08:39:44.624Z</time></trkpt><trkpt lat="44.8448659" lon="9.6702541"><ele>336.0</ele><time>2026-04-26T08:39:48.638Z</time></trkpt><trkpt lat="44.8448849" lon="9.6701548"><ele>337.0</ele><time>2026-04-26T08:39:52.629Z</time></trkpt><trkpt lat="44.8448937" lon="9.6700621"><ele>338.0</ele><time>2026-04-26T08:39:56.62Z</time></trkpt><trkpt lat="44.8449034" lon="9.6699633"><ele>339.0</ele><time>2026-04-26T08:40:00.629Z</time></trkpt><trkpt lat="44.8449247" lon="9.6698512"><ele>340.0</ele><time>2026-04-26T08:40:04.645Z</time></trkpt><trkpt lat="44.8449405" lon="9.6697467"><ele>341.0</ele><time>2026-04-26T08:40:08.629Z</time></trkpt><trkpt lat="44.8449477" lon="9.669642"><ele>342.0</ele><time>2026-04-26T08:40:12.644Z</time></trkpt><trkpt lat="44.8449634" lon="9.6695532"><ele>343.0</ele><time>2026-04-26T08:40:16.626Z</time></trkpt><trkpt lat="44.8449775" lon="9.6694539"><ele>344.0</ele><time>2026-04-26T08:40:20.634Z</time></trkpt><trkpt lat="44.8449907" lon="9.6693525"><ele>345.0</ele><time>2026-04-26T08:40:24.629Z</time></trkpt><trkpt lat="44.8450026" lon="9.6692442"><ele>346.0</ele><time>2026-04-26T08:40:28.62Z</time></trkpt><trkpt lat="44.8450259" lon="9.6691469"><ele>347.0</ele><time>2026-04-26T08:40:31.632Z</time></trkpt><trkpt lat="44.8450783" lon="9.6690845"><ele>348.0</ele><time>2026-04-26T08:40:33.627Z</time></trkpt><trkpt lat="44.8451615" lon="9.6690742"><ele>349.0</ele><time>2026-04-26T08:40:35.637Z</time></trkpt><trkpt lat="44.8452278" lon="9.6690989"><ele>350.0</ele><time>2026-04-26T08:40:37.632Z</time></trkpt><trkpt lat="44.8453027" lon="9.6691506"><ele>350.1666666666667</ele><time>2026-04-26T08:40:40.621Z</time></trkpt><trkpt lat="44.8453701" lon="9.6692229"><ele>350.33333333333337</ele><time>2026-04-26T08:40:43.628Z</time></trkpt><trkpt lat="44.8454224" lon="9.6693169"><ele>350.5</ele><time>2026-04-26T08:40:46.629Z</time></trkpt><trkpt lat="44.8454536" lon="9.6694142"><ele>350.6666666666667</ele><time>2026-04-26T08:40:49.629Z</time></trkpt><trkpt lat="44.8454963" lon="9.6695017"><ele>350.8333333333333</ele><time>2026-04-26T08:40:52.613Z</time></trkpt><trkpt lat="44.8455461" lon="9.6695704"><ele>351.0</ele><time>2026-04-26T08:40:55.626Z</time></trkpt><trkpt lat="44.8455967" lon="9.6696365"><ele>351.00000000000006</ele><time>2026-04-26T08:40:58.638Z</time></trkpt><trkpt lat="44.8456428" lon="9.6696991"><ele>351.0</ele><time>2026-04-26T08:41:01.63Z</time></trkpt><trkpt lat="44.8457153" lon="9.6697631"><ele>351.0</ele><time>2026-04-26T08:41:05.631Z</time></trkpt><trkpt lat="44.8457845" lon="9.6698006"><ele>351.0</ele><time>2026-04-26T08:41:08.638Z</time></trkpt><trkpt lat="44.8458544" lon="9.669832"><ele>351.0</ele><time>2026-04-26T08:41:11.634Z</time></trkpt><trkpt lat="44.8459262" lon="9.6698477"><ele>351.00000000000006</ele><time>2026-04-26T08:41:14.63Z</time></trkpt><trkpt lat="44.8459999" lon="9.6698891"><ele>351.0</ele><time>2026-04-26T08:41:17.63Z</time></trkpt><trkpt lat="44.8460589" lon="9.6699293"><ele>352.5714285714286</ele><time>2026-04-26T08:41:20.633Z</time></trkpt><trkpt lat="44.8461168" lon="9.6699833"><ele>354.14285714285717</ele><time>2026-04-26T08:41:23.627Z</time></trkpt><trkpt lat="44.846171" lon="9.6700454"><ele>355.7142857142857</ele><time>2026-04-26T08:41:26.642Z</time></trkpt><trkpt lat="44.846212" lon="9.6701323"><ele>357.28571428571433</ele><time>2026-04-26T08:41:29.625Z</time></trkpt><trkpt lat="44.8462413" lon="9.6702117"><ele>358.85714285714283</ele><time>2026-04-26T08:41:32.612Z</time></trkpt><trkpt lat="44.8462735" lon="9.6702973"><ele>360.42857142857144</ele><time>2026-04-26T08:41:35.609Z</time></trkpt><trkpt lat="44.846307" lon="9.6703816"><ele>362.0</ele><time>2026-04-26T08:41:38.618Z</time></trkpt><trkpt lat="44.8463378" lon="9.6704638"><ele>362.0</ele><time>2026-04-26T08:41:41.628Z</time></trkpt><trkpt lat="44.8463764" lon="9.6705686"><ele>362.0</ele><time>2026-04-26T08:41:45.627Z</time></trkpt><trkpt lat="44.8464151" lon="9.6706535"><ele>362.0</ele><time>2026-04-26T08:41:48.622Z</time></trkpt><trkpt lat="44.8464579" lon="9.6707338"><ele>362.0</ele><time>2026-04-26T08:41:51.633Z</time></trkpt><trkpt lat="44.8465119" lon="9.6708108"><ele>362.0</ele><time>2026-04-26T08:41:55.63Z</time></trkpt><trkpt lat="44.8465684" lon="9.6708873"><ele>362.0</ele><time>2026-04-26T08:41:59.626Z</time></trkpt><trkpt lat="44.8466246" lon="9.6709708"><ele>362.0</ele><time>2026-04-26T08:42:03.634Z</time></trkpt><trkpt lat="44.8466885" lon="9.6710424"><ele>362.0</ele><time>2026-04-26T08:42:07.621Z</time></trkpt><trkpt lat="44.8467475" lon="9.6710801"><ele>362.0</ele><time>2026-04-26T08:42:10.628Z</time></trkpt><trkpt lat="44.8468297" lon="9.6711103"><ele>362.0</ele><time>2026-04-26T08:42:14.612Z</time></trkpt><trkpt lat="44.8468969" lon="9.6711019"><ele>362.0</ele><time>2026-04-26T08:42:17.62Z</time></trkpt><trkpt lat="44.8469704" lon="9.6710907"><ele>362.0</ele><time>2026-04-26T08:42:20.625Z</time></trkpt><trkpt lat="44.8470407" lon="9.6710801"><ele>362.0</ele><time>2026-04-26T08:42:23.635Z</time></trkpt><trkpt lat="44.8471162" lon="9.6710772"><ele>363.1428571428571</ele><time>2026-04-26T08:42:26.635Z</time></trkpt><trkpt lat="44.8471885" lon="9.6710851"><ele>364.2857142857143</ele><time>2026-04-26T08:42:29.632Z</time></trkpt><trkpt lat="44.8472567" lon="9.6711266"><ele>365.42857142857144</ele><time>2026-04-26T08:42:33.623Z</time></trkpt><trkpt lat="44.8473216" lon="9.6711737"><ele>366.57142857142856</ele><time>2026-04-26T08:42:37.626Z</time></trkpt><trkpt lat="44.8473884" lon="9.671192"><ele>367.7142857142857</ele><time>2026-04-26T08:42:41.613Z</time></trkpt><trkpt lat="44.8474647" lon="9.671205"><ele>368.85714285714283</ele><time>2026-04-26T08:42:45.632Z</time></trkpt><trkpt lat="44.8475418" lon="9.6711996"><ele>370.0</ele><time>2026-04-26T08:42:49.621Z</time></trkpt><trkpt lat="44.8476087" lon="9.6711752"><ele>369.57142857142856</ele><time>2026-04-26T08:42:53.64Z</time></trkpt><trkpt lat="44.8476804" lon="9.6711355"><ele>369.1428571428571</ele><time>2026-04-26T08:42:57.619Z</time></trkpt><trkpt lat="44.8477515" lon="9.6710825"><ele>368.71428571428567</ele><time>2026-04-26T08:43:00.61Z</time></trkpt><trkpt lat="44.8478071" lon="9.671038"><ele>368.2857142857143</ele><time>2026-04-26T08:43:03.621Z</time></trkpt><trkpt lat="44.8478714" lon="9.6709846"><ele>367.8571428571429</ele><time>2026-04-26T08:43:07.619Z</time></trkpt><trkpt lat="44.8479239" lon="9.6709347"><ele>367.4285714285714</ele><time>2026-04-26T08:43:10.633Z</time></trkpt><trkpt lat="44.8479883" lon="9.6708572"><ele>367.0</ele><time>2026-04-26T08:43:14.618Z</time></trkpt><trkpt lat="44.8480432" lon="9.6707948"><ele>367.0</ele><time>2026-04-26T08:43:18.632Z</time></trkpt><trkpt lat="44.848097" lon="9.6707371"><ele>367.0</ele><time>2026-04-26T08:43:21.632Z</time></trkpt><trkpt lat="44.8481551" lon="9.6706712"><ele>367.0</ele><time>2026-04-26T08:43:25.631Z</time></trkpt><trkpt lat="44.8481991" lon="9.6706067"><ele>367.0</ele><time>2026-04-26T08:43:28.63Z</time></trkpt><trkpt lat="44.8482493" lon="9.6705382"><ele>367.0</ele><time>2026-04-26T08:43:32.624Z</time></trkpt><trkpt lat="44.8483013" lon="9.6704483"><ele>367.0</ele><time>2026-04-26T08:43:36.613Z</time></trkpt><trkpt lat="44.8483407" lon="9.6703581"><ele>367.0</ele><time>2026-04-26T08:43:40.632Z</time></trkpt><trkpt lat="44.8483765" lon="9.6702663"><ele>369.0</ele><time>2026-04-26T08:43:44.616Z</time></trkpt><trkpt lat="44.8484194" lon="9.6701838"><ele>371.0</ele><time>2026-04-26T08:43:48.625Z</time></trkpt><trkpt lat="44.8484759" lon="9.6701117"><ele>373.0</ele><time>2026-04-26T08:43:52.636Z</time></trkpt><trkpt lat="44.8485406" lon="9.6700541"><ele>375.0</ele><time>2026-04-26T08:43:56.626Z</time></trkpt><trkpt lat="44.848611" lon="9.6700056"><ele>377.0</ele><time>2026-04-26T08:44:00.621Z</time></trkpt><trkpt lat="44.8486867" lon="9.6699645"><ele>379.0</ele><time>2026-04-26T08:44:04.634Z</time></trkpt><trkpt lat="44.8487695" lon="9.6699338"><ele>379.00000000000006</ele><time>2026-04-26T08:44:08.63Z</time></trkpt><trkpt lat="44.8488366" lon="9.6699307"><ele>379.0</ele><time>2026-04-26T08:44:11.627Z</time></trkpt><trkpt lat="44.8489083" lon="9.6699278"><ele>379.0</ele><time>2026-04-26T08:44:15.606Z</time></trkpt><trkpt lat="44.8489854" lon="9.6699333"><ele>379.0</ele><time>2026-04-26T08:44:19.615Z</time></trkpt><trkpt lat="44.8490545" lon="9.6699316"><ele>379.0</ele><time>2026-04-26T08:44:23.621Z</time></trkpt><trkpt lat="44.8491252" lon="9.6699535"><ele>379.00000000000006</ele><time>2026-04-26T08:44:27.62Z</time></trkpt><trkpt lat="44.8491986" lon="9.6699565"><ele>379.0</ele><time>2026-04-26T08:44:31.62Z</time></trkpt><trkpt lat="44.8492772" lon="9.6699634"><ele>378.8571428571429</ele><time>2026-04-26T08:44:35.619Z</time></trkpt><trkpt lat="44.849343" lon="9.6699582"><ele>378.7142857142857</ele><time>2026-04-26T08:44:39.621Z</time></trkpt><trkpt lat="44.8494143" lon="9.6699376"><ele>378.57142857142856</ele><time>2026-04-26T08:44:44.614Z</time></trkpt><trkpt lat="44.8494789" lon="9.6699113"><ele>378.42857142857144</ele><time>2026-04-26T08:44:48.627Z</time></trkpt><trkpt lat="44.849538" lon="9.6698736"><ele>378.2857142857143</ele><time>2026-04-26T08:44:52.625Z</time></trkpt><trkpt lat="44.8495976" lon="9.6698344"><ele>378.14285714285717</ele><time>2026-04-26T08:44:56.632Z</time></trkpt><trkpt lat="44.8496525" lon="9.6697575"><ele>378.0</ele><time>2026-04-26T08:45:00.617Z</time></trkpt><trkpt lat="44.8496994" lon="9.6696842"><ele>378.0</ele><time>2026-04-26T08:45:04.633Z</time></trkpt><trkpt lat="44.8497421" lon="9.6696142"><ele>378.0</ele><time>2026-04-26T08:45:07.615Z</time></trkpt><trkpt lat="44.8498023" lon="9.6695396"><ele>378.0</ele><time>2026-04-26T08:45:11.621Z</time></trkpt><trkpt lat="44.8498477" lon="9.6694752"><ele>378.0</ele><time>2026-04-26T08:45:14.628Z</time></trkpt><trkpt lat="44.8499045" lon="9.6693958"><ele>378.0</ele><time>2026-04-26T08:45:18.614Z</time></trkpt><trkpt lat="44.8499643" lon="9.6693324"><ele>378.0</ele><time>2026-04-26T08:45:22.624Z</time></trkpt><trkpt lat="44.8500311" lon="9.6692846"><ele>378.0</ele><time>2026-04-26T08:45:26.615Z</time></trkpt><trkpt lat="44.8500925" lon="9.6692618"><ele>379.85714285714283</ele><time>2026-04-26T08:45:31.626Z</time></trkpt><trkpt lat="44.8501586" lon="9.6692555"><ele>381.7142857142857</ele><time>2026-04-26T08:45:35.64Z</time></trkpt><trkpt lat="44.8502281" lon="9.6692599"><ele>383.57142857142856</ele><time>2026-04-26T08:45:39.623Z</time></trkpt><trkpt lat="44.8503037" lon="9.6692954"><ele>385.42857142857144</ele><time>2026-04-26T08:45:44.635Z</time></trkpt><trkpt lat="44.8503788" lon="9.6693344"><ele>387.2857142857143</ele><time>2026-04-26T08:45:48.62Z</time></trkpt><trkpt lat="44.8504396" lon="9.6693639"><ele>389.1428571428571</ele><time>2026-04-26T08:45:51.638Z</time></trkpt><trkpt lat="44.8505065" lon="9.6693941"><ele>391.0</ele><time>2026-04-26T08:45:55.624Z</time></trkpt><trkpt lat="44.8505859" lon="9.6694128"><ele>390.99999999999994</ele><time>2026-04-26T08:45:59.615Z</time></trkpt><trkpt lat="44.8506618" lon="9.6694103"><ele>391.0</ele><time>2026-04-26T08:46:03.619Z</time></trkpt><trkpt lat="44.8507262" lon="9.6693921"><ele>391.0</ele><time>2026-04-26T08:46:06.626Z</time></trkpt><trkpt lat="44.8507893" lon="9.6693571"><ele>391.0</ele><time>2026-04-26T08:46:09.626Z</time></trkpt><trkpt lat="44.8508508" lon="9.6693306"><ele>391.0</ele><time>2026-04-26T08:46:12.63Z</time></trkpt><trkpt lat="44.8509204" lon="9.6692752"><ele>390.99999999999994</ele><time>2026-04-26T08:46:16.626Z</time></trkpt><trkpt lat="44.8509927" lon="9.6692242"><ele>391.0</ele><time>2026-04-26T08:46:20.629Z</time></trkpt><trkpt lat="44.8510589" lon="9.6691566"><ele>391.1666666666667</ele><time>2026-04-26T08:46:24.632Z</time></trkpt><trkpt lat="44.8511126" lon="9.6690976"><ele>391.33333333333337</ele><time>2026-04-26T08:46:27.626Z</time></trkpt><trkpt lat="44.8511759" lon="9.66902"><ele>391.5</ele><time>2026-04-26T08:46:31.616Z</time></trkpt><trkpt lat="44.8512441" lon="9.6689573"><ele>391.66666666666663</ele><time>2026-04-26T08:46:35.633Z</time></trkpt><trkpt lat="44.851314" lon="9.6689111"><ele>391.8333333333333</ele><time>2026-04-26T08:46:39.625Z</time></trkpt><trkpt lat="44.8513888" lon="9.6688811"><ele>392.0</ele><time>2026-04-26T08:46:43.629Z</time></trkpt><trkpt lat="44.851467" lon="9.6688867"><ele>391.99999999999994</ele><time>2026-04-26T08:46:47.612Z</time></trkpt><trkpt lat="44.8515404" lon="9.6688782"><ele>392.0</ele><time>2026-04-26T08:46:50.624Z</time></trkpt><trkpt lat="44.8516038" lon="9.6688577"><ele>392.0</ele><time>2026-04-26T08:46:53.624Z</time></trkpt><trkpt lat="44.8516802" lon="9.6687968"><ele>392.0</ele><time>2026-04-26T08:46:57.623Z</time></trkpt><trkpt lat="44.851727" lon="9.6687129"><ele>391.99999999999994</ele><time>2026-04-26T08:47:01.626Z</time></trkpt><trkpt lat="44.8517477" lon="9.6686181"><ele>392.0</ele><time>2026-04-26T08:47:04.608Z</time></trkpt><trkpt lat="44.8517427" lon="9.6684866"><ele>392.8</ele><time>2026-04-26T08:47:07.62Z</time></trkpt><trkpt lat="44.8517209" lon="9.668385"><ele>393.6</ele><time>2026-04-26T08:47:09.624Z</time></trkpt><trkpt lat="44.8516965" lon="9.6682754"><ele>394.40000000000003</ele><time>2026-04-26T08:47:11.63Z</time></trkpt><trkpt lat="44.8516759" lon="9.6681523"><ele>395.20000000000005</ele><time>2026-04-26T08:47:13.632Z</time></trkpt><trkpt lat="44.8516634" lon="9.6680076"><ele>396.0</ele><time>2026-04-26T08:47:15.631Z</time></trkpt><trkpt lat="44.8516542" lon="9.6678377"><ele>395.3333333333333</ele><time>2026-04-26T08:47:17.621Z</time></trkpt><trkpt lat="44.8516488" lon="9.6677422"><ele>394.66666666666663</ele><time>2026-04-26T08:47:18.628Z</time></trkpt><trkpt lat="44.8516414" lon="9.6676385"><ele>394.0</ele><time>2026-04-26T08:47:19.633Z</time></trkpt><trkpt lat="44.8516406" lon="9.6675306"><ele>393.3333333333333</ele><time>2026-04-26T08:47:20.625Z</time></trkpt><trkpt lat="44.8516404" lon="9.6674194"><ele>392.66666666666663</ele><time>2026-04-26T08:47:21.627Z</time></trkpt><trkpt lat="44.8516413" lon="9.6673062"><ele>392.0</ele><time>2026-04-26T08:47:22.634Z</time></trkpt><trkpt lat="44.8516486" lon="9.6671935"><ele>392.0</ele><time>2026-04-26T08:47:23.622Z</time></trkpt><trkpt lat="44.8516534" lon="9.6670809"><ele>392.0</ele><time>2026-04-26T08:47:24.626Z</time></trkpt><trkpt lat="44.8516521" lon="9.6669694"><ele>392.0</ele><time>2026-04-26T08:47:25.609Z</time></trkpt><trkpt lat="44.8516386" lon="9.6668657"><ele>392.0</ele><time>2026-04-26T08:47:26.626Z</time></trkpt><trkpt lat="44.8516188" lon="9.6667704"><ele>392.0</ele><time>2026-04-26T08:47:27.626Z</time></trkpt><trkpt lat="44.8515923" lon="9.6666833"><ele>392.0</ele><time>2026-04-26T08:47:28.621Z</time></trkpt><trkpt lat="44.8515629" lon="9.6665996"><ele>392.0</ele><time>2026-04-26T08:47:29.62Z</time></trkpt><trkpt lat="44.8515342" lon="9.6665071"><ele>391.3333333333333</ele><time>2026-04-26T08:47:30.629Z</time></trkpt><trkpt lat="44.8515179" lon="9.6663995"><ele>390.66666666666663</ele><time>2026-04-26T08:47:31.619Z</time></trkpt><trkpt lat="44.8515196" lon="9.6662923"><ele>390.0</ele><time>2026-04-26T08:47:32.624Z</time></trkpt><trkpt lat="44.8515378" lon="9.6661958"><ele>389.33333333333337</ele><time>2026-04-26T08:47:33.623Z</time></trkpt><trkpt lat="44.8516162" lon="9.6661118"><ele>388.6666666666667</ele><time>2026-04-26T08:47:35.629Z</time></trkpt><trkpt lat="44.8517306" lon="9.666177"><ele>388.0</ele><time>2026-04-26T08:47:37.627Z</time></trkpt><trkpt lat="44.8517833" lon="9.6662385"><ele>387.50000000000006</ele><time>2026-04-26T08:47:38.615Z</time></trkpt><trkpt lat="44.8518296" lon="9.6663055"><ele>387.0</ele><time>2026-04-26T08:47:39.627Z</time></trkpt><trkpt lat="44.8518822" lon="9.6663674"><ele>386.5</ele><time>2026-04-26T08:47:40.631Z</time></trkpt><trkpt lat="44.8519451" lon="9.6664279"><ele>386.0</ele><time>2026-04-26T08:47:41.629Z</time></trkpt><trkpt lat="44.852006" lon="9.6664987"><ele>385.50000000000006</ele><time>2026-04-26T08:47:42.633Z</time></trkpt><trkpt lat="44.8520692" lon="9.666576"><ele>385.0</ele><time>2026-04-26T08:47:43.63Z</time></trkpt><trkpt lat="44.8521298" lon="9.6666643"><ele>385.00000000000006</ele><time>2026-04-26T08:47:44.64Z</time></trkpt><trkpt lat="44.8521867" lon="9.6667548"><ele>385.0</ele><time>2026-04-26T08:47:45.623Z</time></trkpt><trkpt lat="44.8522501" lon="9.6668491"><ele>385.0</ele><time>2026-04-26T08:47:46.633Z</time></trkpt><trkpt lat="44.8523121" lon="9.6669362"><ele>385.0</ele><time>2026-04-26T08:47:47.632Z</time></trkpt><trkpt lat="44.8523735" lon="9.6670272"><ele>385.00000000000006</ele><time>2026-04-26T08:47:48.629Z</time></trkpt><trkpt lat="44.8524418" lon="9.667114"><ele>385.0</ele><time>2026-04-26T08:47:49.62Z</time></trkpt><trkpt lat="44.8525157" lon="9.6671844"><ele>384.6666666666667</ele><time>2026-04-26T08:47:50.623Z</time></trkpt><trkpt lat="44.8526032" lon="9.6672404"><ele>384.33333333333337</ele><time>2026-04-26T08:47:51.618Z</time></trkpt><trkpt lat="44.8526801" lon="9.6672748"><ele>384.0</ele><time>2026-04-26T08:47:52.631Z</time></trkpt><trkpt lat="44.8527513" lon="9.6673"><ele>383.6666666666667</ele><time>2026-04-26T08:47:53.633Z</time></trkpt><trkpt lat="44.85281" lon="9.6673336"><ele>383.33333333333337</ele><time>2026-04-26T08:47:54.632Z</time></trkpt><trkpt lat="44.8529056" lon="9.6673781"><ele>383.0</ele><time>2026-04-26T08:47:56.637Z</time></trkpt><trkpt lat="44.8529943" lon="9.6674206"><ele>383.0</ele><time>2026-04-26T08:47:58.624Z</time></trkpt><trkpt lat="44.8530799" lon="9.6674476"><ele>383.0</ele><time>2026-04-26T08:48:00.624Z</time></trkpt><trkpt lat="44.8531617" lon="9.6674692"><ele>383.0</ele><time>2026-04-26T08:48:02.629Z</time></trkpt><trkpt lat="44.8532414" lon="9.6674999"><ele>383.0</ele><time>2026-04-26T08:48:04.629Z</time></trkpt><trkpt lat="44.8533099" lon="9.6675233"><ele>383.0</ele><time>2026-04-26T08:48:06.624Z</time></trkpt><trkpt lat="44.853379" lon="9.6675522"><ele>383.0</ele><time>2026-04-26T08:48:08.625Z</time></trkpt><trkpt lat="44.8534405" lon="9.6675735"><ele>383.6666666666667</ele><time>2026-04-26T08:48:10.62Z</time></trkpt><trkpt lat="44.8535053" lon="9.6675846"><ele>384.33333333333337</ele><time>2026-04-26T08:48:12.625Z</time></trkpt><trkpt lat="44.8535713" lon="9.6675961"><ele>385.0</ele><time>2026-04-26T08:48:14.634Z</time></trkpt><trkpt lat="44.8536621" lon="9.6675918"><ele>385.6666666666667</ele><time>2026-04-26T08:48:17.631Z</time></trkpt><trkpt lat="44.8537423" lon="9.667573"><ele>386.3333333333333</ele><time>2026-04-26T08:48:20.628Z</time></trkpt><trkpt lat="44.8538237" lon="9.6675347"><ele>387.0</ele><time>2026-04-26T08:48:23.628Z</time></trkpt><trkpt lat="44.8539104" lon="9.6674821"><ele>387.0</ele><time>2026-04-26T08:48:26.63Z</time></trkpt><trkpt lat="44.8539824" lon="9.6674227"><ele>387.0</ele><time>2026-04-26T08:48:29.63Z</time></trkpt><trkpt lat="44.8540397" lon="9.667373"><ele>387.0</ele><time>2026-04-26T08:48:32.626Z</time></trkpt><trkpt lat="44.8541078" lon="9.6673265"><ele>387.0</ele><time>2026-04-26T08:48:35.623Z</time></trkpt><trkpt lat="44.854189" lon="9.6672734"><ele>387.0</ele><time>2026-04-26T08:48:38.63Z</time></trkpt><trkpt lat="44.8542526" lon="9.6672422"><ele>387.0</ele><time>2026-04-26T08:48:40.621Z</time></trkpt><trkpt lat="44.8543235" lon="9.6672202"><ele>387.42857142857144</ele><time>2026-04-26T08:48:42.615Z</time></trkpt><trkpt lat="44.8543905" lon="9.6671977"><ele>387.8571428571429</ele><time>2026-04-26T08:48:44.616Z</time></trkpt><trkpt lat="44.8544844" lon="9.6672114"><ele>388.2857142857143</ele><time>2026-04-26T08:48:47.625Z</time></trkpt><trkpt lat="44.8545537" lon="9.6672186"><ele>388.7142857142857</ele><time>2026-04-26T08:48:49.628Z</time></trkpt><trkpt lat="44.8546187" lon="9.6672335"><ele>389.1428571428571</ele><time>2026-04-26T08:48:51.624Z</time></trkpt><trkpt lat="44.8546805" lon="9.6672658"><ele>389.57142857142856</ele><time>2026-04-26T08:48:53.621Z</time></trkpt><trkpt lat="44.8547414" lon="9.6673073"><ele>390.0</ele><time>2026-04-26T08:48:55.618Z</time></trkpt><trkpt lat="44.8548051" lon="9.667353"><ele>390.0</ele><time>2026-04-26T08:48:57.613Z</time></trkpt><trkpt lat="44.854862" lon="9.6673917"><ele>390.0</ele><time>2026-04-26T08:48:59.632Z</time></trkpt><trkpt lat="44.8549403" lon="9.6674449"><ele>390.0</ele><time>2026-04-26T08:49:02.622Z</time></trkpt><trkpt lat="44.8550181" lon="9.6674776"><ele>390.0</ele><time>2026-04-26T08:49:05.622Z</time></trkpt><trkpt lat="44.8551014" lon="9.6675157"><ele>390.0</ele><time>2026-04-26T08:49:08.625Z</time></trkpt><trkpt lat="44.8551785" lon="9.6675229"><ele>390.0</ele><time>2026-04-26T08:49:11.641Z</time></trkpt><trkpt lat="44.8552537" lon="9.6674861"><ele>390.3333333333333</ele><time>2026-04-26T08:49:14.626Z</time></trkpt><trkpt lat="44.8553208" lon="9.6674503"><ele>390.66666666666663</ele><time>2026-04-26T08:49:17.629Z</time></trkpt><trkpt lat="44.8553917" lon="9.6674264"><ele>391.0</ele><time>2026-04-26T08:49:20.623Z</time></trkpt><trkpt lat="44.8554656" lon="9.6674834"><ele>391.3333333333333</ele><time>2026-04-26T08:49:23.643Z</time></trkpt><trkpt lat="44.8555286" lon="9.6675515"><ele>391.66666666666663</ele><time>2026-04-26T08:49:26.625Z</time></trkpt><trkpt lat="44.8555863" lon="9.6676452"><ele>392.0</ele><time>2026-04-26T08:49:29.614Z</time></trkpt><trkpt lat="44.8556499" lon="9.6677213"><ele>391.8333333333333</ele><time>2026-04-26T08:49:32.624Z</time></trkpt><trkpt lat="44.8557125" lon="9.6677859"><ele>391.66666666666663</ele><time>2026-04-26T08:49:35.623Z</time></trkpt><trkpt lat="44.8557689" lon="9.6678741"><ele>391.5</ele><time>2026-04-26T08:49:38.618Z</time></trkpt><trkpt lat="44.8558409" lon="9.6679395"><ele>391.33333333333337</ele><time>2026-04-26T08:49:41.621Z</time></trkpt><trkpt lat="44.8559119" lon="9.6680114"><ele>391.1666666666667</ele><time>2026-04-26T08:49:44.626Z</time></trkpt><trkpt lat="44.8559791" lon="9.6680731"><ele>391.0</ele><time>2026-04-26T08:49:47.623Z</time></trkpt><trkpt lat="44.8560566" lon="9.6681144"><ele>391.57142857142856</ele><time>2026-04-26T08:49:50.62Z</time></trkpt><trkpt lat="44.8561393" lon="9.6681401"><ele>392.1428571428571</ele><time>2026-04-26T08:49:53.602Z</time></trkpt><trkpt lat="44.856206" lon="9.6681639"><ele>392.71428571428567</ele><time>2026-04-26T08:49:56.63Z</time></trkpt><trkpt lat="44.8562712" lon="9.6681923"><ele>393.2857142857143</ele><time>2026-04-26T08:49:59.629Z</time></trkpt><trkpt lat="44.8563395" lon="9.6682243"><ele>393.8571428571429</ele><time>2026-04-26T08:50:02.634Z</time></trkpt><trkpt lat="44.8564097" lon="9.6682734"><ele>394.4285714285714</ele><time>2026-04-26T08:50:05.61Z</time></trkpt><trkpt lat="44.8564716" lon="9.6683376"><ele>395.0</ele><time>2026-04-26T08:50:08.629Z</time></trkpt><trkpt lat="44.8565156" lon="9.6684215"><ele>395.0</ele><time>2026-04-26T08:50:11.629Z</time></trkpt><trkpt lat="44.8565499" lon="9.6685152"><ele>395.0</ele><time>2026-04-26T08:50:14.623Z</time></trkpt><trkpt lat="44.8565734" lon="9.6686201"><ele>395.0</ele><time>2026-04-26T08:50:17.629Z</time></trkpt><trkpt lat="44.8565957" lon="9.668714"><ele>395.0</ele><time>2026-04-26T08:50:20.626Z</time></trkpt><trkpt lat="44.856612" lon="9.6688245"><ele>395.0</ele><time>2026-04-26T08:50:23.626Z</time></trkpt><trkpt lat="44.8566301" lon="9.6689122"><ele>395.0</ele><time>2026-04-26T08:50:26.616Z</time></trkpt><trkpt lat="44.8566403" lon="9.669023"><ele>395.0</ele><time>2026-04-26T08:50:30.603Z</time></trkpt><trkpt lat="44.8566689" lon="9.6691077"><ele>395.16666666666663</ele><time>2026-04-26T08:50:33.618Z</time></trkpt><trkpt lat="44.856709" lon="9.6691974"><ele>395.3333333333333</ele><time>2026-04-26T08:50:36.62Z</time></trkpt><trkpt lat="44.8567625" lon="9.6692672"><ele>395.5</ele><time>2026-04-26T08:50:39.617Z</time></trkpt><trkpt lat="44.8568254" lon="9.6693312"><ele>395.66666666666663</ele><time>2026-04-26T08:50:42.634Z</time></trkpt><trkpt lat="44.8568907" lon="9.6693889"><ele>395.8333333333333</ele><time>2026-04-26T08:50:45.621Z</time></trkpt><trkpt lat="44.8569582" lon="9.6694369"><ele>396.0</ele><time>2026-04-26T08:50:48.619Z</time></trkpt><trkpt lat="44.8570329" lon="9.6695044"><ele>396.5</ele><time>2026-04-26T08:50:51.611Z</time></trkpt><trkpt lat="44.8570997" lon="9.669586"><ele>397.0</ele><time>2026-04-26T08:50:54.635Z</time></trkpt><trkpt lat="44.8571669" lon="9.6696506"><ele>397.5</ele><time>2026-04-26T08:50:57.613Z</time></trkpt><trkpt lat="44.8572357" lon="9.6697126"><ele>398.0</ele><time>2026-04-26T08:51:00.62Z</time></trkpt><trkpt lat="44.8572983" lon="9.6697682"><ele>398.5</ele><time>2026-04-26T08:51:03.633Z</time></trkpt><trkpt lat="44.8573563" lon="9.6698181"><ele>399.0</ele><time>2026-04-26T08:51:06.617Z</time></trkpt><trkpt lat="44.8574145" lon="9.6698884"><ele>399.0</ele><time>2026-04-26T08:51:09.599Z</time></trkpt><trkpt lat="44.8574798" lon="9.6699528"><ele>399.0</ele><time>2026-04-26T08:51:12.635Z</time></trkpt><trkpt lat="44.8575325" lon="9.6700084"><ele>399.0</ele><time>2026-04-26T08:51:14.625Z</time></trkpt><trkpt lat="44.857584" lon="9.6700622"><ele>399.0</ele><time>2026-04-26T08:51:16.622Z</time></trkpt><trkpt lat="44.8576607" lon="9.6701386"><ele>399.0</ele><time>2026-04-26T08:51:19.627Z</time></trkpt><trkpt lat="44.8577169" lon="9.6701962"><ele>399.0</ele><time>2026-04-26T08:51:21.622Z</time></trkpt><trkpt lat="44.8577708" lon="9.6702444"><ele>399.0</ele><time>2026-04-26T08:51:23.634Z</time></trkpt><trkpt lat="44.8578263" lon="9.670308"><ele>399.1666666666667</ele><time>2026-04-26T08:51:25.612Z</time></trkpt><trkpt lat="44.8578814" lon="9.6703714"><ele>399.33333333333337</ele><time>2026-04-26T08:51:27.617Z</time></trkpt><trkpt lat="44.8579471" lon="9.6704475"><ele>399.5</ele><time>2026-04-26T08:51:29.625Z</time></trkpt><trkpt lat="44.8580114" lon="9.6705262"><ele>399.6666666666667</ele><time>2026-04-26T08:51:31.617Z</time></trkpt><trkpt lat="44.8580671" lon="9.6706325"><ele>399.83333333333337</ele><time>2026-04-26T08:51:33.617Z</time></trkpt><trkpt lat="44.8581235" lon="9.6707586"><ele>400.0</ele><time>2026-04-26T08:51:35.632Z</time></trkpt><trkpt lat="44.8581686" lon="9.6709012"><ele>400.00000000000006</ele><time>2026-04-26T08:51:37.629Z</time></trkpt><trkpt lat="44.8582146" lon="9.6710618"><ele>400.0</ele><time>2026-04-26T08:51:39.623Z</time></trkpt><trkpt lat="44.8582442" lon="9.6712271"><ele>400.0</ele><time>2026-04-26T08:51:41.63Z</time></trkpt><trkpt lat="44.8582526" lon="9.6713162"><ele>400.0</ele><time>2026-04-26T08:51:42.633Z</time></trkpt><trkpt lat="44.8582576" lon="9.6714059"><ele>400.00000000000006</ele><time>2026-04-26T08:51:43.614Z</time></trkpt><trkpt lat="44.8582651" lon="9.6714992"><ele>400.0</ele><time>2026-04-26T08:51:44.635Z</time></trkpt><trkpt lat="44.8582834" lon="9.6715967"><ele>399.50000000000006</ele><time>2026-04-26T08:51:45.638Z</time></trkpt><trkpt lat="44.8583114" lon="9.671699"><ele>399.0</ele><time>2026-04-26T08:51:46.615Z</time></trkpt><trkpt lat="44.8583501" lon="9.6718023"><ele>398.5</ele><time>2026-04-26T08:51:47.632Z</time></trkpt><trkpt lat="44.8584015" lon="9.6719025"><ele>398.0</ele><time>2026-04-26T08:51:48.638Z</time></trkpt><trkpt lat="44.8584634" lon="9.672002"><ele>397.50000000000006</ele><time>2026-04-26T08:51:49.624Z</time></trkpt><trkpt lat="44.8585289" lon="9.6720961"><ele>397.0</ele><time>2026-04-26T08:51:50.625Z</time></trkpt><trkpt lat="44.8585993" lon="9.672191"><ele>395.40000000000003</ele><time>2026-04-26T08:51:51.62Z</time></trkpt><trkpt lat="44.8586742" lon="9.672283"><ele>393.8</ele><time>2026-04-26T08:51:52.636Z</time></trkpt><trkpt lat="44.8587478" lon="9.6723739"><ele>392.2</ele><time>2026-04-26T08:51:53.629Z</time></trkpt><trkpt lat="44.8588205" lon="9.672461"><ele>390.6</ele><time>2026-04-26T08:51:54.624Z</time></trkpt><trkpt lat="44.858899" lon="9.672548"><ele>389.0</ele><time>2026-04-26T08:51:55.613Z</time></trkpt><trkpt lat="44.8589724" lon="9.6726347"><ele>389.0</ele><time>2026-04-26T08:51:56.614Z</time></trkpt><trkpt lat="44.859051" lon="9.6727178"><ele>389.0</ele><time>2026-04-26T08:51:57.625Z</time></trkpt><trkpt lat="44.8591259" lon="9.672798"><ele>389.0</ele><time>2026-04-26T08:51:58.618Z</time></trkpt><trkpt lat="44.8591968" lon="9.6728759"><ele>389.0</ele><time>2026-04-26T08:51:59.615Z</time></trkpt><trkpt lat="44.8592707" lon="9.6729436"><ele>389.0</ele><time>2026-04-26T08:52:00.643Z</time></trkpt><trkpt lat="44.8593456" lon="9.6730136"><ele>387.66666666666663</ele><time>2026-04-26T08:52:01.631Z</time></trkpt><trkpt lat="44.8594186" lon="9.6730837"><ele>386.3333333333333</ele><time>2026-04-26T08:52:02.629Z</time></trkpt><trkpt lat="44.8594926" lon="9.673154"><ele>385.0</ele><time>2026-04-26T08:52:03.632Z</time></trkpt><trkpt lat="44.8595639" lon="9.6732257"><ele>383.66666666666663</ele><time>2026-04-26T08:52:04.631Z</time></trkpt><trkpt lat="44.8596231" lon="9.6733036"><ele>382.3333333333333</ele><time>2026-04-26T08:52:05.627Z</time></trkpt><trkpt lat="44.8596726" lon="9.6733734"><ele>381.0</ele><time>2026-04-26T08:52:06.639Z</time></trkpt><trkpt lat="44.8597162" lon="9.67344"><ele>381.0</ele><time>2026-04-26T08:52:07.64Z</time></trkpt><trkpt lat="44.8597998" lon="9.673484"><ele>381.0</ele><time>2026-04-26T08:52:09.624Z</time></trkpt><trkpt lat="44.8598762" lon="9.6734037"><ele>381.0</ele><time>2026-04-26T08:52:11.633Z</time></trkpt><trkpt lat="44.8599311" lon="9.6732852"><ele>381.0</ele><time>2026-04-26T08:52:13.635Z</time></trkpt><trkpt lat="44.8599934" lon="9.6731925"><ele>381.0</ele><time>2026-04-26T08:52:15.669Z</time></trkpt><trkpt lat="44.8600631" lon="9.6730992"><ele>379.0</ele><time>2026-04-26T08:52:17.624Z</time></trkpt><trkpt lat="44.8601351" lon="9.6730282"><ele>377.0</ele><time>2026-04-26T08:52:19.628Z</time></trkpt><trkpt lat="44.8602184" lon="9.6729622"><ele>375.0</ele><time>2026-04-26T08:52:21.635Z</time></trkpt><trkpt lat="44.8603107" lon="9.6729178"><ele>373.0</ele><time>2026-04-26T08:52:23.634Z</time></trkpt><trkpt lat="44.8604146" lon="9.6728965"><ele>371.0</ele><time>2026-04-26T08:52:25.637Z</time></trkpt><trkpt lat="44.8605376" lon="9.6728867"><ele>371.0</ele><time>2026-04-26T08:52:27.636Z</time></trkpt><trkpt lat="44.8606025" lon="9.6728861"><ele>371.0</ele><time>2026-04-26T08:52:28.625Z</time></trkpt><trkpt lat="44.8606662" lon="9.6728811"><ele>371.0</ele><time>2026-04-26T08:52:29.626Z</time></trkpt><trkpt lat="44.8607885" lon="9.6728805"><ele>371.0</ele><time>2026-04-26T08:52:31.63Z</time></trkpt><trkpt lat="44.8609067" lon="9.6728749"><ele>371.0</ele><time>2026-04-26T08:52:33.623Z</time></trkpt><trkpt lat="44.8610411" lon="9.6728614"><ele>369.6666666666667</ele><time>2026-04-26T08:52:35.628Z</time></trkpt><trkpt lat="44.8611289" lon="9.6728428"><ele>368.33333333333337</ele><time>2026-04-26T08:52:36.624Z</time></trkpt><trkpt lat="44.8612171" lon="9.6728232"><ele>367.0</ele><time>2026-04-26T08:52:37.628Z</time></trkpt><trkpt lat="44.8612992" lon="9.6728115"><ele>365.6666666666667</ele><time>2026-04-26T08:52:38.604Z</time></trkpt><trkpt lat="44.8613871" lon="9.6728075"><ele>364.3333333333333</ele><time>2026-04-26T08:52:39.639Z</time></trkpt><trkpt lat="44.8614764" lon="9.6728155"><ele>363.0</ele><time>2026-04-26T08:52:40.628Z</time></trkpt><trkpt lat="44.861559" lon="9.6728396"><ele>363.0</ele><time>2026-04-26T08:52:41.629Z</time></trkpt><trkpt lat="44.86164" lon="9.6728711"><ele>363.0</ele><time>2026-04-26T08:52:42.62Z</time></trkpt><trkpt lat="44.8617165" lon="9.672914"><ele>363.0</ele><time>2026-04-26T08:52:43.634Z</time></trkpt><trkpt lat="44.8617911" lon="9.6729583"><ele>363.0</ele><time>2026-04-26T08:52:44.63Z</time></trkpt><trkpt lat="44.8618622" lon="9.6730085"><ele>363.0</ele><time>2026-04-26T08:52:45.645Z</time></trkpt><trkpt lat="44.8619329" lon="9.6730493"><ele>363.0</ele><time>2026-04-26T08:52:46.636Z</time></trkpt><trkpt lat="44.8619977" lon="9.6730969"><ele>362.57142857142856</ele><time>2026-04-26T08:52:47.629Z</time></trkpt><trkpt lat="44.8620612" lon="9.6731479"><ele>362.1428571428571</ele><time>2026-04-26T08:52:48.629Z</time></trkpt><trkpt lat="44.8621241" lon="9.6731991"><ele>361.71428571428567</ele><time>2026-04-26T08:52:49.628Z</time></trkpt><trkpt lat="44.8621873" lon="9.6732469"><ele>361.2857142857143</ele><time>2026-04-26T08:52:50.632Z</time></trkpt><trkpt lat="44.8622514" lon="9.6732971"><ele>360.8571428571429</ele><time>2026-04-26T08:52:51.62Z</time></trkpt><trkpt lat="44.8623158" lon="9.6733439"><ele>360.4285714285714</ele><time>2026-04-26T08:52:52.626Z</time></trkpt><trkpt lat="44.8623785" lon="9.6733821"><ele>360.0</ele><time>2026-04-26T08:52:53.627Z</time></trkpt><trkpt lat="44.8624406" lon="9.6734246"><ele>360.0</ele><time>2026-04-26T08:52:54.628Z</time></trkpt><trkpt lat="44.8624975" lon="9.673469"><ele>360.0</ele><time>2026-04-26T08:52:55.629Z</time></trkpt><trkpt lat="44.8625555" lon="9.6735171"><ele>360.0</ele><time>2026-04-26T08:52:56.619Z</time></trkpt><trkpt lat="44.8626624" lon="9.6736135"><ele>360.0</ele><time>2026-04-26T08:52:58.606Z</time></trkpt><trkpt lat="44.8627174" lon="9.6736581"><ele>360.0</ele><time>2026-04-26T08:52:59.627Z</time></trkpt><trkpt lat="44.8627739" lon="9.6737029"><ele>360.0</ele><time>2026-04-26T08:53:00.628Z</time></trkpt><trkpt lat="44.8628732" lon="9.6737974"><ele>358.75</ele><time>2026-04-26T08:53:02.633Z</time></trkpt><trkpt lat="44.8629684" lon="9.67389"><ele>357.5</ele><time>2026-04-26T08:53:04.624Z</time></trkpt><trkpt lat="44.8630612" lon="9.673982"><ele>356.25</ele><time>2026-04-26T08:53:06.633Z</time></trkpt><trkpt lat="44.8631506" lon="9.6740749"><ele>355.0</ele><time>2026-04-26T08:53:08.642Z</time></trkpt><trkpt lat="44.8632461" lon="9.6741679"><ele>355.0</ele><time>2026-04-26T08:53:10.624Z</time></trkpt><trkpt lat="44.8633448" lon="9.674241"><ele>355.0</ele><time>2026-04-26T08:53:12.624Z</time></trkpt><trkpt lat="44.86346" lon="9.6743022"><ele>355.0</ele><time>2026-04-26T08:53:14.641Z</time></trkpt><trkpt lat="44.8635612" lon="9.6743946"><ele>355.0</ele><time>2026-04-26T08:53:16.637Z</time></trkpt><trkpt lat="44.86366" lon="9.6744955"><ele>355.5</ele><time>2026-04-26T08:53:18.632Z</time></trkpt><trkpt lat="44.8637601" lon="9.6745637"><ele>356.0</ele><time>2026-04-26T08:53:20.627Z</time></trkpt><trkpt lat="44.8638692" lon="9.6746366"><ele>356.5</ele><time>2026-04-26T08:53:22.629Z</time></trkpt><trkpt lat="44.8639854" lon="9.6746824"><ele>357.0</ele><time>2026-04-26T08:53:24.618Z</time></trkpt><trkpt lat="44.8641079" lon="9.6747338"><ele>357.0</ele><time>2026-04-26T08:53:26.63Z</time></trkpt><trkpt lat="44.8641696" lon="9.674765"><ele>357.0</ele><time>2026-04-26T08:53:27.635Z</time></trkpt><trkpt lat="44.8642271" lon="9.6748023"><ele>357.0</ele><time>2026-04-26T08:53:28.629Z</time></trkpt><trkpt lat="44.8642866" lon="9.6748326"><ele>357.0</ele><time>2026-04-26T08:53:29.614Z</time></trkpt><trkpt lat="44.864399" lon="9.6748979"><ele>357.0</ele><time>2026-04-26T08:53:31.624Z</time></trkpt><trkpt lat="44.8644559" lon="9.6749376"><ele>357.0</ele><time>2026-04-26T08:53:32.615Z</time></trkpt><trkpt lat="44.8645145" lon="9.6749829"><ele>357.0</ele><time>2026-04-26T08:53:33.623Z</time></trkpt><trkpt lat="44.8645782" lon="9.6750189"><ele>356.0</ele><time>2026-04-26T08:53:34.632Z</time></trkpt><trkpt lat="44.8646407" lon="9.6750627"><ele>355.0</ele><time>2026-04-26T08:53:35.626Z</time></trkpt><trkpt lat="44.8646967" lon="9.6751158"><ele>354.0</ele><time>2026-04-26T08:53:36.63Z</time></trkpt><trkpt lat="44.8647523" lon="9.6751632"><ele>353.0</ele><time>2026-04-26T08:53:37.624Z</time></trkpt><trkpt lat="44.8648087" lon="9.6752057"><ele>352.0</ele><time>2026-04-26T08:53:38.619Z</time></trkpt><trkpt lat="44.8648657" lon="9.675252"><ele>351.0</ele><time>2026-04-26T08:53:39.633Z</time></trkpt><trkpt lat="44.8649248" lon="9.6752969"><ele>350.0</ele><time>2026-04-26T08:53:40.632Z</time></trkpt><trkpt lat="44.8649852" lon="9.6753428"><ele>349.7142857142857</ele><time>2026-04-26T08:53:41.635Z</time></trkpt><trkpt lat="44.8650542" lon="9.6753872"><ele>349.42857142857144</ele><time>2026-04-26T08:53:42.623Z</time></trkpt><trkpt lat="44.8651189" lon="9.6754359"><ele>349.1428571428571</ele><time>2026-04-26T08:53:43.606Z</time></trkpt><trkpt lat="44.8651875" lon="9.6754828"><ele>348.8571428571429</ele><time>2026-04-26T08:53:44.627Z</time></trkpt><trkpt lat="44.8652534" lon="9.6755271"><ele>348.57142857142856</ele><time>2026-04-26T08:53:45.635Z</time></trkpt><trkpt lat="44.8653171" lon="9.6755694"><ele>348.2857142857143</ele><time>2026-04-26T08:53:46.624Z</time></trkpt><trkpt lat="44.8653807" lon="9.6756068"><ele>348.0</ele><time>2026-04-26T08:53:47.625Z</time></trkpt><trkpt lat="44.8654415" lon="9.6756422"><ele>347.3333333333333</ele><time>2026-04-26T08:53:48.632Z</time></trkpt><trkpt lat="44.8654999" lon="9.6756773"><ele>346.6666666666667</ele><time>2026-04-26T08:53:49.629Z</time></trkpt><trkpt lat="44.8655599" lon="9.6757158"><ele>346.0</ele><time>2026-04-26T08:53:50.622Z</time></trkpt><trkpt lat="44.8656692" lon="9.6757875"><ele>345.33333333333337</ele><time>2026-04-26T08:53:52.626Z</time></trkpt><trkpt lat="44.8657266" lon="9.6758274"><ele>344.6666666666667</ele><time>2026-04-26T08:53:53.633Z</time></trkpt><trkpt lat="44.8658141" lon="9.6759145"><ele>344.0</ele><time>2026-04-26T08:53:55.626Z</time></trkpt><trkpt lat="44.8659204" lon="9.675949"><ele>343.0</ele><time>2026-04-26T08:53:57.612Z</time></trkpt><trkpt lat="44.8660276" lon="9.6759585"><ele>342.0</ele><time>2026-04-26T08:53:59.629Z</time></trkpt><trkpt lat="44.86614" lon="9.6759648"><ele>341.0</ele><time>2026-04-26T08:54:01.619Z</time></trkpt><trkpt lat="44.8662048" lon="9.6759737"><ele>340.0</ele><time>2026-04-26T08:54:02.622Z</time></trkpt><trkpt lat="44.8663299" lon="9.6759865"><ele>339.0</ele><time>2026-04-26T08:54:04.622Z</time></trkpt><trkpt lat="44.8663933" lon="9.6759817"><ele>339.0</ele><time>2026-04-26T08:54:05.62Z</time></trkpt><trkpt lat="44.8664563" lon="9.6759777"><ele>339.0</ele><time>2026-04-26T08:54:06.627Z</time></trkpt><trkpt lat="44.8665821" lon="9.6759826"><ele>339.0</ele><time>2026-04-26T08:54:08.623Z</time></trkpt><trkpt lat="44.8667066" lon="9.675994"><ele>339.0</ele><time>2026-04-26T08:54:10.61Z</time></trkpt><trkpt lat="44.8667717" lon="9.6760032"><ele>339.0</ele><time>2026-04-26T08:54:11.612Z</time></trkpt><trkpt lat="44.8668345" lon="9.6760129"><ele>339.0</ele><time>2026-04-26T08:54:12.64Z</time></trkpt><trkpt lat="44.8669642" lon="9.6760277"><ele>338.5</ele><time>2026-04-26T08:54:14.638Z</time></trkpt><trkpt lat="44.8670284" lon="9.6760362"><ele>338.0</ele><time>2026-04-26T08:54:15.615Z</time></trkpt><trkpt lat="44.8671529" lon="9.676046"><ele>337.5</ele><time>2026-04-26T08:54:17.63Z</time></trkpt><trkpt lat="44.867219" lon="9.6760533"><ele>337.0</ele><time>2026-04-26T08:54:18.623Z</time></trkpt><trkpt lat="44.867284" lon="9.6760536"><ele>336.5</ele><time>2026-04-26T08:54:19.625Z</time></trkpt><trkpt lat="44.8673503" lon="9.676053"><ele>336.0</ele><time>2026-04-26T08:54:20.627Z</time></trkpt><trkpt lat="44.8674167" lon="9.6760679"><ele>336.0</ele><time>2026-04-26T08:54:21.623Z</time></trkpt><trkpt lat="44.867547" lon="9.6760855"><ele>336.0</ele><time>2026-04-26T08:54:23.621Z</time></trkpt><trkpt lat="44.8676135" lon="9.6760989"><ele>336.0</ele><time>2026-04-26T08:54:24.62Z</time></trkpt><trkpt lat="44.8676815" lon="9.6761177"><ele>336.0</ele><time>2026-04-26T08:54:25.622Z</time></trkpt><trkpt lat="44.8677479" lon="9.6761553"><ele>336.0</ele><time>2026-04-26T08:54:26.609Z</time></trkpt><trkpt lat="44.8678085" lon="9.6762095"><ele>336.0</ele><time>2026-04-26T08:54:27.624Z</time></trkpt><trkpt lat="44.8678643" lon="9.6762598"><ele>335.1666666666667</ele><time>2026-04-26T08:54:28.627Z</time></trkpt><trkpt lat="44.8679314" lon="9.6762989"><ele>334.3333333333333</ele><time>2026-04-26T08:54:29.63Z</time></trkpt><trkpt lat="44.8680024" lon="9.6763346"><ele>333.5</ele><time>2026-04-26T08:54:30.626Z</time></trkpt><trkpt lat="44.8680755" lon="9.6763775"><ele>332.66666666666663</ele><time>2026-04-26T08:54:31.623Z</time></trkpt><trkpt lat="44.8681477" lon="9.6764266"><ele>331.8333333333333</ele><time>2026-04-26T08:54:32.621Z</time></trkpt><trkpt lat="44.8682206" lon="9.6764892"><ele>331.0</ele><time>2026-04-26T08:54:33.621Z</time></trkpt><trkpt lat="44.868284" lon="9.6765559"><ele>331.0</ele><time>2026-04-26T08:54:34.629Z</time></trkpt><trkpt lat="44.8683533" lon="9.6766235"><ele>331.0</ele><time>2026-04-26T08:54:35.632Z</time></trkpt><trkpt lat="44.8684269" lon="9.6766977"><ele>331.0</ele><time>2026-04-26T08:54:36.64Z</time></trkpt><trkpt lat="44.8684962" lon="9.6767707"><ele>331.0</ele><time>2026-04-26T08:54:37.608Z</time></trkpt><trkpt lat="44.8685679" lon="9.6768386"><ele>331.0</ele><time>2026-04-26T08:54:38.632Z</time></trkpt><trkpt lat="44.868637" lon="9.6769044"><ele>331.0</ele><time>2026-04-26T08:54:39.64Z</time></trkpt><trkpt lat="44.8687105" lon="9.6769698"><ele>330.16666666666663</ele><time>2026-04-26T08:54:40.62Z</time></trkpt><trkpt lat="44.8687864" lon="9.6770298"><ele>329.3333333333333</ele><time>2026-04-26T08:54:41.637Z</time></trkpt><trkpt lat="44.8688622" lon="9.6770777"><ele>328.5</ele><time>2026-04-26T08:54:42.614Z</time></trkpt><trkpt lat="44.8689302" lon="9.6771155"><ele>327.6666666666667</ele><time>2026-04-26T08:54:43.633Z</time></trkpt><trkpt lat="44.8690181" lon="9.6771979"><ele>326.83333333333337</ele><time>2026-04-26T08:54:45.627Z</time></trkpt><trkpt lat="44.8690751" lon="9.6773077"><ele>326.0</ele><time>2026-04-26T08:54:47.624Z</time></trkpt><trkpt lat="44.8691471" lon="9.6773327"><ele>326.0</ele><time>2026-04-26T08:54:49.633Z</time></trkpt><trkpt lat="44.8691939" lon="9.6772732"><ele>326.0</ele><time>2026-04-26T08:54:51.624Z</time></trkpt><trkpt lat="44.8692593" lon="9.6772597"><ele>326.0</ele><time>2026-04-26T08:54:53.625Z</time></trkpt><trkpt lat="44.8693424" lon="9.6773246"><ele>326.0</ele><time>2026-04-26T08:54:55.613Z</time></trkpt><trkpt lat="44.8694246" lon="9.6774224"><ele>326.0</ele><time>2026-04-26T08:54:57.627Z</time></trkpt><trkpt lat="44.8695166" lon="9.677491"><ele>326.0</ele><time>2026-04-26T08:54:59.631Z</time></trkpt><trkpt lat="44.8696141" lon="9.6775541"><ele>325.4</ele><time>2026-04-26T08:55:01.619Z</time></trkpt><trkpt lat="44.8697118" lon="9.6776158"><ele>324.8</ele><time>2026-04-26T08:55:03.622Z</time></trkpt><trkpt lat="44.8698151" lon="9.6776819"><ele>324.2</ele><time>2026-04-26T08:55:05.625Z</time></trkpt><trkpt lat="44.8699233" lon="9.6777411"><ele>323.59999999999997</ele><time>2026-04-26T08:55:07.62Z</time></trkpt><trkpt lat="44.8700231" lon="9.677809"><ele>323.0</ele><time>2026-04-26T08:55:09.63Z</time></trkpt><trkpt lat="44.8701129" lon="9.6778988"><ele>322.2</ele><time>2026-04-26T08:55:11.633Z</time></trkpt><trkpt lat="44.8701882" lon="9.6779893"><ele>321.4</ele><time>2026-04-26T08:55:13.627Z</time></trkpt><trkpt lat="44.8702626" lon="9.6780894"><ele>320.59999999999997</ele><time>2026-04-26T08:55:15.629Z</time></trkpt><trkpt lat="44.8703413" lon="9.678173"><ele>319.79999999999995</ele><time>2026-04-26T08:55:17.623Z</time></trkpt><trkpt lat="44.870437" lon="9.6782087"><ele>319.0</ele><time>2026-04-26T08:55:19.633Z</time></trkpt><trkpt lat="44.8705307" lon="9.678225"><ele>319.0</ele><time>2026-04-26T08:55:21.629Z</time></trkpt><trkpt lat="44.8706343" lon="9.6782349"><ele>319.0</ele><time>2026-04-26T08:55:23.623Z</time></trkpt><trkpt lat="44.870699" lon="9.6782466"><ele>319.0</ele><time>2026-04-26T08:55:24.634Z</time></trkpt><trkpt lat="44.8708162" lon="9.6782597"><ele>319.0</ele><time>2026-04-26T08:55:26.628Z</time></trkpt><trkpt lat="44.8709412" lon="9.6782756"><ele>319.0</ele><time>2026-04-26T08:55:28.615Z</time></trkpt><trkpt lat="44.8710078" lon="9.6782802"><ele>318.42857142857144</ele><time>2026-04-26T08:55:29.628Z</time></trkpt><trkpt lat="44.8710797" lon="9.6782884"><ele>317.85714285714283</ele><time>2026-04-26T08:55:30.632Z</time></trkpt><trkpt lat="44.8711546" lon="9.6782963"><ele>317.2857142857143</ele><time>2026-04-26T08:55:31.627Z</time></trkpt><trkpt lat="44.8712276" lon="9.6783116"><ele>316.7142857142857</ele><time>2026-04-26T08:55:32.626Z</time></trkpt><trkpt lat="44.8712876" lon="9.6783468"><ele>316.1428571428571</ele><time>2026-04-26T08:55:33.621Z</time></trkpt><trkpt lat="44.8713415" lon="9.6784056"><ele>315.57142857142856</ele><time>2026-04-26T08:55:34.631Z</time></trkpt><trkpt lat="44.871389" lon="9.6784704"><ele>315.0</ele><time>2026-04-26T08:55:35.638Z</time></trkpt><trkpt lat="44.8714336" lon="9.6785404"><ele>314.6666666666667</ele><time>2026-04-26T08:55:36.635Z</time></trkpt><trkpt lat="44.8714583" lon="9.6786226"><ele>314.3333333333333</ele><time>2026-04-26T08:55:37.63Z</time></trkpt><trkpt lat="44.8714738" lon="9.6787128"><ele>314.0</ele><time>2026-04-26T08:55:38.623Z</time></trkpt><trkpt lat="44.8714856" lon="9.6788037"><ele>313.66666666666663</ele><time>2026-04-26T08:55:39.64Z</time></trkpt><trkpt lat="44.8715014" lon="9.6788979"><ele>313.3333333333333</ele><time>2026-04-26T08:55:40.625Z</time></trkpt><trkpt lat="44.8715823" lon="9.6790233"><ele>313.0</ele><time>2026-04-26T08:55:42.632Z</time></trkpt><trkpt lat="44.8716457" lon="9.6790625"><ele>313.0</ele><time>2026-04-26T08:55:43.621Z</time></trkpt><trkpt lat="44.8717145" lon="9.6790903"><ele>313.0</ele><time>2026-04-26T08:55:44.603Z</time></trkpt><trkpt lat="44.871784" lon="9.6791158"><ele>313.0</ele><time>2026-04-26T08:55:45.637Z</time></trkpt><trkpt lat="44.871852" lon="9.6791287"><ele>313.0</ele><time>2026-04-26T08:55:46.618Z</time></trkpt><trkpt lat="44.8719308" lon="9.679145"><ele>313.0</ele><time>2026-04-26T08:55:47.622Z</time></trkpt><trkpt lat="44.8720105" lon="9.679154"><ele>313.0</ele><time>2026-04-26T08:55:48.622Z</time></trkpt><trkpt lat="44.8720843" lon="9.6791703"><ele>313.0</ele><time>2026-04-26T08:55:49.631Z</time></trkpt><trkpt lat="44.8721647" lon="9.6791809"><ele>312.66666666666663</ele><time>2026-04-26T08:55:50.636Z</time></trkpt><trkpt lat="44.8722455" lon="9.6791994"><ele>312.3333333333333</ele><time>2026-04-26T08:55:51.62Z</time></trkpt><trkpt lat="44.8723243" lon="9.6792184"><ele>312.0</ele><time>2026-04-26T08:55:52.624Z</time></trkpt><trkpt lat="44.8724052" lon="9.6792446"><ele>311.6666666666667</ele><time>2026-04-26T08:55:53.625Z</time></trkpt><trkpt lat="44.8724842" lon="9.6792752"><ele>311.33333333333337</ele><time>2026-04-26T08:55:54.627Z</time></trkpt><trkpt lat="44.8725582" lon="9.6793051"><ele>311.0</ele><time>2026-04-26T08:55:55.629Z</time></trkpt><trkpt lat="44.8726288" lon="9.6793406"><ele>309.6666666666667</ele><time>2026-04-26T08:55:56.622Z</time></trkpt><trkpt lat="44.8727024" lon="9.6793661"><ele>308.33333333333337</ele><time>2026-04-26T08:55:57.629Z</time></trkpt><trkpt lat="44.8727691" lon="9.6793739"><ele>307.0</ele><time>2026-04-26T08:55:58.642Z</time></trkpt><trkpt lat="44.8728446" lon="9.6793663"><ele>305.6666666666667</ele><time>2026-04-26T08:55:59.632Z</time></trkpt><trkpt lat="44.8729181" lon="9.6793488"><ele>304.3333333333333</ele><time>2026-04-26T08:56:00.626Z</time></trkpt><trkpt lat="44.8729979" lon="9.6793464"><ele>303.0</ele><time>2026-04-26T08:56:01.624Z</time></trkpt><trkpt lat="44.8730747" lon="9.6793599"><ele>303.0</ele><time>2026-04-26T08:56:02.627Z</time></trkpt><trkpt lat="44.8731439" lon="9.6793639"><ele>303.0</ele><time>2026-04-26T08:56:03.63Z</time></trkpt><trkpt lat="44.8732116" lon="9.6793798"><ele>303.0</ele><time>2026-04-26T08:56:04.63Z</time></trkpt><trkpt lat="44.8732831" lon="9.679403"><ele>303.0</ele><time>2026-04-26T08:56:05.63Z</time></trkpt><trkpt lat="44.8733589" lon="9.6794317"><ele>303.0</ele><time>2026-04-26T08:56:06.629Z</time></trkpt><trkpt lat="44.87344" lon="9.6794723"><ele>303.0</ele><time>2026-04-26T08:56:07.622Z</time></trkpt><trkpt lat="44.873518" lon="9.6795094"><ele>302.57142857142856</ele><time>2026-04-26T08:56:08.627Z</time></trkpt><trkpt lat="44.8735879" lon="9.679553"><ele>302.1428571428571</ele><time>2026-04-26T08:56:09.626Z</time></trkpt><trkpt lat="44.8736599" lon="9.6795857"><ele>301.71428571428567</ele><time>2026-04-26T08:56:10.625Z</time></trkpt><trkpt lat="44.8737246" lon="9.6796086"><ele>301.2857142857143</ele><time>2026-04-26T08:56:11.629Z</time></trkpt><trkpt lat="44.8737857" lon="9.6796323"><ele>300.85714285714283</ele><time>2026-04-26T08:56:12.63Z</time></trkpt><trkpt lat="44.8738477" lon="9.6796497"><ele>300.4285714285714</ele><time>2026-04-26T08:56:13.622Z</time></trkpt><trkpt lat="44.873937" lon="9.6797141"><ele>300.0</ele><time>2026-04-26T08:56:15.628Z</time></trkpt><trkpt lat="44.8739752" lon="9.6798491"><ele>300.0</ele><time>2026-04-26T08:56:17.627Z</time></trkpt><trkpt lat="44.8739806" lon="9.6799893"><ele>300.0</ele><time>2026-04-26T08:56:19.63Z</time></trkpt><trkpt lat="44.8739855" lon="9.6801306"><ele>300.0</ele><time>2026-04-26T08:56:21.63Z</time></trkpt><trkpt lat="44.8739915" lon="9.6802721"><ele>300.0</ele><time>2026-04-26T08:56:23.604Z</time></trkpt><trkpt lat="44.8739808" lon="9.6804025"><ele>300.0</ele><time>2026-04-26T08:56:25.633Z</time></trkpt><trkpt lat="44.8739573" lon="9.6805336"><ele>300.2</ele><time>2026-04-26T08:56:27.621Z</time></trkpt><trkpt lat="44.8739492" lon="9.6806498"><ele>300.4</ele><time>2026-04-26T08:56:29.616Z</time></trkpt><trkpt lat="44.8739446" lon="9.6807746"><ele>300.6</ele><time>2026-04-26T08:56:31.618Z</time></trkpt><trkpt lat="44.8739524" lon="9.6809102"><ele>300.8</ele><time>2026-04-26T08:56:33.614Z</time></trkpt><trkpt lat="44.873977" lon="9.6810413"><ele>301.0</ele><time>2026-04-26T08:56:35.629Z</time></trkpt><trkpt lat="44.8740127" lon="9.6811718"><ele>300.6</ele><time>2026-04-26T08:56:37.624Z</time></trkpt><trkpt lat="44.8740308" lon="9.6812909"><ele>300.20000000000005</ele><time>2026-04-26T08:56:39.626Z</time></trkpt><trkpt lat="44.8740199" lon="9.6814437"><ele>299.79999999999995</ele><time>2026-04-26T08:56:41.621Z</time></trkpt><trkpt lat="44.8739847" lon="9.6815931"><ele>299.4</ele><time>2026-04-26T08:56:43.632Z</time></trkpt><trkpt lat="44.8739379" lon="9.6817335"><ele>299.0</ele><time>2026-04-26T08:56:45.621Z</time></trkpt><trkpt lat="44.8738917" lon="9.6818775"><ele>298.4</ele><time>2026-04-26T08:56:47.633Z</time></trkpt><trkpt lat="44.8738586" lon="9.682019"><ele>297.79999999999995</ele><time>2026-04-26T08:56:49.627Z</time></trkpt><trkpt lat="44.8738529" lon="9.6821804"><ele>297.20000000000005</ele><time>2026-04-26T08:56:51.622Z</time></trkpt><trkpt lat="44.873876" lon="9.6823307"><ele>296.6</ele><time>2026-04-26T08:56:53.61Z</time></trkpt><trkpt lat="44.873938" lon="9.6824476"><ele>296.0</ele><time>2026-04-26T08:56:55.63Z</time></trkpt><trkpt lat="44.8740374" lon="9.6825429"><ele>296.0</ele><time>2026-04-26T08:56:57.63Z</time></trkpt><trkpt lat="44.8740911" lon="9.6825937"><ele>296.0</ele><time>2026-04-26T08:56:58.634Z</time></trkpt><trkpt lat="44.8741488" lon="9.6826378"><ele>296.0</ele><time>2026-04-26T08:56:59.631Z</time></trkpt><trkpt lat="44.8742065" lon="9.6826827"><ele>296.0</ele><time>2026-04-26T08:57:00.63Z</time></trkpt><trkpt lat="44.8742643" lon="9.6827218"><ele>296.0</ele><time>2026-04-26T08:57:01.628Z</time></trkpt><trkpt lat="44.8743282" lon="9.6827474"><ele>296.0</ele><time>2026-04-26T08:57:02.626Z</time></trkpt><trkpt lat="44.8743905" lon="9.6827683"><ele>296.0</ele><time>2026-04-26T08:57:03.625Z</time></trkpt><trkpt lat="44.8745083" lon="9.6828144"><ele>295.25</ele><time>2026-04-26T08:57:05.629Z</time></trkpt><trkpt lat="44.8746224" lon="9.6828735"><ele>294.5</ele><time>2026-04-26T08:57:07.631Z</time></trkpt><trkpt lat="44.8747325" lon="9.6829187"><ele>293.75</ele><time>2026-04-26T08:57:09.628Z</time></trkpt><trkpt lat="44.8748344" lon="9.6829767"><ele>293.0</ele><time>2026-04-26T08:57:11.636Z</time></trkpt><trkpt lat="44.8749256" lon="9.6830553"><ele>293.0</ele><time>2026-04-26T08:57:13.63Z</time></trkpt><trkpt lat="44.875017" lon="9.683148"><ele>293.0</ele><time>2026-04-26T08:57:15.623Z</time></trkpt><trkpt lat="44.8751134" lon="9.6832386"><ele>293.0</ele><time>2026-04-26T08:57:17.623Z</time></trkpt><trkpt lat="44.8752077" lon="9.6833273"><ele>293.0</ele><time>2026-04-26T08:57:19.629Z</time></trkpt><trkpt lat="44.875296" lon="9.6834148"><ele>291.0</ele><time>2026-04-26T08:57:21.627Z</time></trkpt><trkpt lat="44.8753861" lon="9.6835101"><ele>289.0</ele><time>2026-04-26T08:57:23.623Z</time></trkpt><trkpt lat="44.8754769" lon="9.6836043"><ele>287.0</ele><time>2026-04-26T08:57:25.628Z</time></trkpt><trkpt lat="44.8755709" lon="9.6837017"><ele>285.0</ele><time>2026-04-26T08:57:27.643Z</time></trkpt><trkpt lat="44.875668" lon="9.6837951"><ele>285.0</ele><time>2026-04-26T08:57:29.639Z</time></trkpt><trkpt lat="44.8757677" lon="9.6838948"><ele>285.0</ele><time>2026-04-26T08:57:31.626Z</time></trkpt><trkpt lat="44.8758803" lon="9.6839863"><ele>285.0</ele><time>2026-04-26T08:57:33.62Z</time></trkpt><trkpt lat="44.8759353" lon="9.684035"><ele>285.0</ele><time>2026-04-26T08:57:34.622Z</time></trkpt><trkpt lat="44.8759853" lon="9.6840909"><ele>285.0</ele><time>2026-04-26T08:57:35.616Z</time></trkpt><trkpt lat="44.8760879" lon="9.6841904"><ele>283.6</ele><time>2026-04-26T08:57:37.623Z</time></trkpt><trkpt lat="44.8761718" lon="9.6842969"><ele>282.2</ele><time>2026-04-26T08:57:39.627Z</time></trkpt><trkpt lat="44.8762252" lon="9.684447"><ele>280.8</ele><time>2026-04-26T08:57:41.629Z</time></trkpt><trkpt lat="44.8762868" lon="9.6845849"><ele>279.4</ele><time>2026-04-26T08:57:43.628Z</time></trkpt><trkpt lat="44.876375" lon="9.6845707"><ele>278.0</ele><time>2026-04-26T08:57:46.631Z</time></trkpt><trkpt lat="44.8764502" lon="9.6845109"><ele>277.6</ele><time>2026-04-26T08:57:48.62Z</time></trkpt><trkpt lat="44.8765416" lon="9.6844209"><ele>277.20000000000005</ele><time>2026-04-26T08:57:50.626Z</time></trkpt><trkpt lat="44.8766331" lon="9.6843044"><ele>276.8</ele><time>2026-04-26T08:57:52.614Z</time></trkpt><trkpt lat="44.8767276" lon="9.6841975"><ele>276.40000000000003</ele><time>2026-04-26T08:57:54.628Z</time></trkpt><trkpt lat="44.8767828" lon="9.6841465"><ele>276.0</ele><time>2026-04-26T08:57:55.629Z</time></trkpt><trkpt lat="44.8768424" lon="9.6841072"><ele>273.8</ele><time>2026-04-26T08:57:56.607Z</time></trkpt><trkpt lat="44.8769021" lon="9.684072"><ele>271.6</ele><time>2026-04-26T08:57:57.634Z</time></trkpt><trkpt lat="44.8770187" lon="9.6839991"><ele>269.4</ele><time>2026-04-26T08:57:59.601Z</time></trkpt><trkpt lat="44.8771336" lon="9.6839121"><ele>267.2</ele><time>2026-04-26T08:58:01.599Z</time></trkpt><trkpt lat="44.8772293" lon="9.6838042"><ele>265.0</ele><time>2026-04-26T08:58:03.618Z</time></trkpt><trkpt lat="44.8773227" lon="9.6837023"><ele>265.0</ele><time>2026-04-26T08:58:05.63Z</time></trkpt><trkpt lat="44.877438" lon="9.6836591"><ele>265.0</ele><time>2026-04-26T08:58:07.62Z</time></trkpt><trkpt lat="44.8775479" lon="9.6836669"><ele>265.0</ele><time>2026-04-26T08:58:09.623Z</time></trkpt><trkpt lat="44.8776608" lon="9.6837344"><ele>265.0</ele><time>2026-04-26T08:58:11.624Z</time></trkpt><trkpt lat="44.8777199" lon="9.6837722"><ele>265.0</ele><time>2026-04-26T08:58:12.625Z</time></trkpt><trkpt lat="44.877779" lon="9.6838057"><ele>263.6</ele><time>2026-04-26T08:58:13.619Z</time></trkpt><trkpt lat="44.8778447" lon="9.6838257"><ele>262.2</ele><time>2026-04-26T08:58:14.63Z</time></trkpt><trkpt lat="44.877965" lon="9.6837894"><ele>260.8</ele><time>2026-04-26T08:58:16.616Z</time></trkpt><trkpt lat="44.878046" lon="9.683693"><ele>259.4</ele><time>2026-04-26T08:58:18.625Z</time></trkpt><trkpt lat="44.8780654" lon="9.6836064"><ele>258.0</ele><time>2026-04-26T08:58:19.617Z</time></trkpt><trkpt lat="44.8780558" lon="9.6834365"><ele>258.0</ele><time>2026-04-26T08:58:21.624Z</time></trkpt><trkpt lat="44.8780186" lon="9.6833638"><ele>258.0</ele><time>2026-04-26T08:58:22.624Z</time></trkpt><trkpt lat="44.877933" lon="9.6832642"><ele>258.0</ele><time>2026-04-26T08:58:24.635Z</time></trkpt><trkpt lat="44.8778753" lon="9.6832199"><ele>258.0</ele><time>2026-04-26T08:58:25.623Z</time></trkpt><trkpt lat="44.877828" lon="9.6831599"><ele>258.0</ele><time>2026-04-26T08:58:26.613Z</time></trkpt><trkpt lat="44.8777974" lon="9.6830347"><ele>258.0</ele><time>2026-04-26T08:58:28.621Z</time></trkpt><trkpt lat="44.877862" lon="9.682979"><ele>258.0</ele><time>2026-04-26T08:58:30.63Z</time></trkpt><trkpt lat="44.8779385" lon="9.6830146"><ele>258.0</ele><time>2026-04-26T08:58:32.637Z</time></trkpt><trkpt lat="44.8780214" lon="9.683047"><ele>258.0</ele><time>2026-04-26T08:58:34.624Z</time></trkpt><trkpt lat="44.8781076" lon="9.683074"><ele>258.0</ele><time>2026-04-26T08:58:36.627Z</time></trkpt><trkpt lat="44.8781891" lon="9.6830793"><ele>258.0</ele><time>2026-04-26T08:58:38.621Z</time></trkpt><trkpt lat="44.8782979" lon="9.6830952"><ele>258.0</ele><time>2026-04-26T08:58:40.627Z</time></trkpt><trkpt lat="44.8784228" lon="9.6830921"><ele>257.2857142857143</ele><time>2026-04-26T08:58:42.623Z</time></trkpt><trkpt lat="44.8784861" lon="9.6830922"><ele>256.57142857142856</ele><time>2026-04-26T08:58:43.628Z</time></trkpt><trkpt lat="44.8785527" lon="9.683087"><ele>255.85714285714286</ele><time>2026-04-26T08:58:44.64Z</time></trkpt><trkpt lat="44.8786187" lon="9.6830693"><ele>255.14285714285714</ele><time>2026-04-26T08:58:45.63Z</time></trkpt><trkpt lat="44.8786865" lon="9.6830471"><ele>254.42857142857144</ele><time>2026-04-26T08:58:46.632Z</time></trkpt><trkpt lat="44.8787603" lon="9.6830133"><ele>253.71428571428575</ele><time>2026-04-26T08:58:47.624Z</time></trkpt><trkpt lat="44.8788298" lon="9.6829795"><ele>253.00000000000003</ele><time>2026-04-26T08:58:48.629Z</time></trkpt><trkpt lat="44.8788993" lon="9.6829466"><ele>253.0</ele><time>2026-04-26T08:58:49.633Z</time></trkpt><trkpt lat="44.8790194" lon="9.682949"><ele>253.0</ele><time>2026-04-26T08:58:51.618Z</time></trkpt><trkpt lat="44.8791399" lon="9.6830086"><ele>253.0</ele><time>2026-04-26T08:58:53.613Z</time></trkpt><trkpt lat="44.8792622" lon="9.6830642"><ele>253.0</ele><time>2026-04-26T08:58:55.625Z</time></trkpt><trkpt lat="44.8793257" lon="9.6830893"><ele>253.0</ele><time>2026-04-26T08:58:56.636Z</time></trkpt><trkpt lat="44.8793931" lon="9.6831117"><ele>252.8571428571429</ele><time>2026-04-26T08:58:57.636Z</time></trkpt><trkpt lat="44.8794576" lon="9.6831405"><ele>252.71428571428572</ele><time>2026-04-26T08:58:58.621Z</time></trkpt><trkpt lat="44.8795243" lon="9.6831665"><ele>252.57142857142858</ele><time>2026-04-26T08:58:59.626Z</time></trkpt><trkpt lat="44.879595" lon="9.6831899"><ele>252.42857142857144</ele><time>2026-04-26T08:59:00.639Z</time></trkpt><trkpt lat="44.8796605" lon="9.68322"><ele>252.28571428571428</ele><time>2026-04-26T08:59:01.62Z</time></trkpt><trkpt lat="44.8797238" lon="9.6832437"><ele>252.14285714285714</ele><time>2026-04-26T08:59:02.633Z</time></trkpt><trkpt lat="44.8797932" lon="9.6832738"><ele>252.0</ele><time>2026-04-26T08:59:03.629Z</time></trkpt><trkpt lat="44.879859" lon="9.6833013"><ele>252.0</ele><time>2026-04-26T08:59:04.619Z</time></trkpt><trkpt lat="44.8799208" lon="9.6833277"><ele>252.0</ele><time>2026-04-26T08:59:05.636Z</time></trkpt><trkpt lat="44.8799879" lon="9.6833567"><ele>252.0</ele><time>2026-04-26T08:59:06.629Z</time></trkpt><trkpt lat="44.8800523" lon="9.6833926"><ele>252.0</ele><time>2026-04-26T08:59:07.627Z</time></trkpt><trkpt lat="44.8801185" lon="9.6834192"><ele>252.0</ele><time>2026-04-26T08:59:08.626Z</time></trkpt><trkpt lat="44.8801809" lon="9.6834481"><ele>252.0</ele><time>2026-04-26T08:59:09.624Z</time></trkpt><trkpt lat="44.8802423" lon="9.6834729"><ele>252.0</ele><time>2026-04-26T08:59:10.629Z</time></trkpt><trkpt lat="44.8803034" lon="9.6835018"><ele>251.42857142857144</ele><time>2026-04-26T08:59:11.615Z</time></trkpt><trkpt lat="44.8803657" lon="9.683535"><ele>250.85714285714286</ele><time>2026-04-26T08:59:12.614Z</time></trkpt><trkpt lat="44.8804342" lon="9.6835636"><ele>250.28571428571428</ele><time>2026-04-26T08:59:13.622Z</time></trkpt><trkpt lat="44.8804983" lon="9.6835924"><ele>249.71428571428572</ele><time>2026-04-26T08:59:14.632Z</time></trkpt><trkpt lat="44.8805622" lon="9.6836197"><ele>249.14285714285717</ele><time>2026-04-26T08:59:15.631Z</time></trkpt><trkpt lat="44.8806231" lon="9.6836504"><ele>248.57142857142858</ele><time>2026-04-26T08:59:16.631Z</time></trkpt><trkpt lat="44.8806843" lon="9.6836772"><ele>248.0</ele><time>2026-04-26T08:59:17.624Z</time></trkpt><trkpt lat="44.8807458" lon="9.6836971"><ele>248.0</ele><time>2026-04-26T08:59:18.633Z</time></trkpt><trkpt lat="44.8808578" lon="9.6837493"><ele>248.0</ele><time>2026-04-26T08:59:20.63Z</time></trkpt><trkpt lat="44.8809703" lon="9.6837988"><ele>248.0</ele><time>2026-04-26T08:59:22.621Z</time></trkpt><trkpt lat="44.8810741" lon="9.6838348"><ele>248.0</ele><time>2026-04-26T08:59:24.625Z</time></trkpt><trkpt lat="44.8811703" lon="9.6837628"><ele>247.75</ele><time>2026-04-26T08:59:26.622Z</time></trkpt><trkpt lat="44.8812377" lon="9.6836324"><ele>247.5</ele><time>2026-04-26T08:59:28.622Z</time></trkpt><trkpt lat="44.8813161" lon="9.6835115"><ele>247.25</ele><time>2026-04-26T08:59:30.621Z</time></trkpt><trkpt lat="44.8814287" lon="9.6835367"><ele>247.0</ele><time>2026-04-26T08:59:32.612Z</time></trkpt><trkpt lat="44.8815199" lon="9.6836173"><ele>246.66666666666666</ele><time>2026-04-26T08:59:34.613Z</time></trkpt><trkpt lat="44.8816166" lon="9.6837163"><ele>246.33333333333331</ele><time>2026-04-26T08:59:36.623Z</time></trkpt><trkpt lat="44.8816687" lon="9.6837676"><ele>246.0</ele><time>2026-04-26T08:59:37.62Z</time></trkpt><trkpt lat="44.8817822" lon="9.6838537"><ele>245.66666666666669</ele><time>2026-04-26T08:59:39.611Z</time></trkpt><trkpt lat="44.8818422" lon="9.6838991"><ele>245.33333333333334</ele><time>2026-04-26T08:59:40.637Z</time></trkpt><trkpt lat="44.8818988" lon="9.6839453"><ele>245.0</ele><time>2026-04-26T08:59:41.614Z</time></trkpt><trkpt lat="44.8820061" lon="9.6840416"><ele>244.85714285714286</ele><time>2026-04-26T08:59:43.609Z</time></trkpt><trkpt lat="44.8820647" lon="9.6840842"><ele>244.71428571428572</ele><time>2026-04-26T08:59:44.627Z</time></trkpt><trkpt lat="44.8821223" lon="9.6841288"><ele>244.57142857142856</ele><time>2026-04-26T08:59:45.626Z</time></trkpt><trkpt lat="44.8821822" lon="9.6841733"><ele>244.42857142857142</ele><time>2026-04-26T08:59:46.625Z</time></trkpt><trkpt lat="44.8822393" lon="9.6842223"><ele>244.28571428571428</ele><time>2026-04-26T08:59:47.619Z</time></trkpt><trkpt lat="44.8822923" lon="9.6842771"><ele>244.1428571428571</ele><time>2026-04-26T08:59:48.626Z</time></trkpt><trkpt lat="44.8823494" lon="9.6843294"><ele>243.99999999999997</ele><time>2026-04-26T08:59:49.631Z</time></trkpt><trkpt lat="44.8824042" lon="9.6843871"><ele>243.83333333333331</ele><time>2026-04-26T08:59:50.608Z</time></trkpt><trkpt lat="44.8824592" lon="9.6844411"><ele>243.66666666666666</ele><time>2026-04-26T08:59:51.624Z</time></trkpt><trkpt lat="44.882513" lon="9.6844883"><ele>243.5</ele><time>2026-04-26T08:59:52.622Z</time></trkpt><trkpt lat="44.8825724" lon="9.6845371"><ele>243.33333333333331</ele><time>2026-04-26T08:59:53.634Z</time></trkpt><trkpt lat="44.882634" lon="9.6845804"><ele>243.16666666666666</ele><time>2026-04-26T08:59:54.622Z</time></trkpt><trkpt lat="44.8827559" lon="9.6846452"><ele>243.0</ele><time>2026-04-26T08:59:56.626Z</time></trkpt><trkpt lat="44.8828158" lon="9.6846819"><ele>242.66666666666666</ele><time>2026-04-26T08:59:57.623Z</time></trkpt><trkpt lat="44.8829354" lon="9.6847508"><ele>242.33333333333331</ele><time>2026-04-26T08:59:59.623Z</time></trkpt><trkpt lat="44.8829956" lon="9.6847834"><ele>242.0</ele><time>2026-04-26T09:00:00.61Z</time></trkpt><trkpt lat="44.8830582" lon="9.6848194"><ele>241.66666666666666</ele><time>2026-04-26T09:00:01.626Z</time></trkpt><trkpt lat="44.8831238" lon="9.6848488"><ele>241.33333333333331</ele><time>2026-04-26T09:00:02.626Z</time></trkpt><trkpt lat="44.8831857" lon="9.6848697"><ele>241.0</ele><time>2026-04-26T09:00:03.635Z</time></trkpt><trkpt lat="44.8832514" lon="9.6848838"><ele>241.0</ele><time>2026-04-26T09:00:04.625Z</time></trkpt><trkpt lat="44.8833183" lon="9.6849043"><ele>241.00000000000003</ele><time>2026-04-26T09:00:05.63Z</time></trkpt><trkpt lat="44.8833812" lon="9.6849291"><ele>241.0</ele><time>2026-04-26T09:00:06.637Z</time></trkpt><trkpt lat="44.8834425" lon="9.6849543"><ele>241.0</ele><time>2026-04-26T09:00:07.626Z</time></trkpt><trkpt lat="44.8835063" lon="9.684984"><ele>241.00000000000003</ele><time>2026-04-26T09:00:08.613Z</time></trkpt><trkpt lat="44.8835721" lon="9.6850239"><ele>241.0</ele><time>2026-04-26T09:00:09.624Z</time></trkpt><trkpt lat="44.8836316" lon="9.6850595"><ele>241.0</ele><time>2026-04-26T09:00:10.625Z</time></trkpt><trkpt lat="44.8836908" lon="9.6850999"><ele>240.49999999999997</ele><time>2026-04-26T09:00:11.631Z</time></trkpt><trkpt lat="44.8837469" lon="9.6851448"><ele>240.0</ele><time>2026-04-26T09:00:12.62Z</time></trkpt><trkpt lat="44.8838021" lon="9.68519"><ele>239.5</ele><time>2026-04-26T09:00:13.627Z</time></trkpt><trkpt lat="44.8839066" lon="9.6852866"><ele>239.0</ele><time>2026-04-26T09:00:15.613Z</time></trkpt><trkpt lat="44.8839621" lon="9.6853368"><ele>238.49999999999997</ele><time>2026-04-26T09:00:16.622Z</time></trkpt><trkpt lat="44.8840153" lon="9.685392"><ele>238.0</ele><time>2026-04-26T09:00:17.633Z</time></trkpt><trkpt lat="44.8841197" lon="9.6854865"><ele>237.85714285714286</ele><time>2026-04-26T09:00:19.639Z</time></trkpt><trkpt lat="44.8841736" lon="9.6855344"><ele>237.71428571428572</ele><time>2026-04-26T09:00:20.632Z</time></trkpt><trkpt lat="44.8842287" lon="9.6855829"><ele>237.57142857142856</ele><time>2026-04-26T09:00:21.601Z</time></trkpt><trkpt lat="44.8842831" lon="9.6856347"><ele>237.42857142857142</ele><time>2026-04-26T09:00:22.637Z</time></trkpt><trkpt lat="44.8843406" lon="9.6856929"><ele>237.28571428571428</ele><time>2026-04-26T09:00:23.626Z</time></trkpt><trkpt lat="44.8843934" lon="9.685746"><ele>237.1428571428571</ele><time>2026-04-26T09:00:24.63Z</time></trkpt><trkpt lat="44.884448" lon="9.6857943"><ele>236.99999999999997</ele><time>2026-04-26T09:00:25.621Z</time></trkpt><trkpt lat="44.8845225" lon="9.6858917"><ele>236.6</ele><time>2026-04-26T09:00:27.633Z</time></trkpt><trkpt lat="44.8845474" lon="9.6860132"><ele>236.2</ele><time>2026-04-26T09:00:29.627Z</time></trkpt><trkpt lat="44.8845411" lon="9.6861479"><ele>235.8</ele><time>2026-04-26T09:00:31.632Z</time></trkpt><trkpt lat="44.8845262" lon="9.686269"><ele>235.4</ele><time>2026-04-26T09:00:33.632Z</time></trkpt><trkpt lat="44.8845046" lon="9.686396"><ele>235.0</ele><time>2026-04-26T09:00:35.607Z</time></trkpt><trkpt lat="44.8844887" lon="9.6865246"><ele>235.0</ele><time>2026-04-26T09:00:37.631Z</time></trkpt><trkpt lat="44.8845087" lon="9.6866275"><ele>235.0</ele><time>2026-04-26T09:00:39.634Z</time></trkpt><trkpt lat="44.8845462" lon="9.6867446"><ele>235.0</ele><time>2026-04-26T09:00:41.63Z</time></trkpt><trkpt lat="44.8845931" lon="9.6868548"><ele>235.0</ele><time>2026-04-26T09:00:43.631Z</time></trkpt><trkpt lat="44.8846716" lon="9.6869594"><ele>235.0</ele><time>2026-04-26T09:00:45.623Z</time></trkpt><trkpt lat="44.8847715" lon="9.6870372"><ele>235.0</ele><time>2026-04-26T09:00:47.615Z</time></trkpt><trkpt lat="44.8848844" lon="9.6870564"><ele>235.0</ele><time>2026-04-26T09:00:49.614Z</time></trkpt><trkpt lat="44.88499" lon="9.6870536"><ele>235.0</ele><time>2026-04-26T09:00:51.633Z</time></trkpt><trkpt lat="44.8850996" lon="9.6870365"><ele>235.0</ele><time>2026-04-26T09:00:53.625Z</time></trkpt><trkpt lat="44.8852228" lon="9.687007"><ele>233.99999999999997</ele><time>2026-04-26T09:00:55.635Z</time></trkpt><trkpt lat="44.8853481" lon="9.6869658"><ele>233.0</ele><time>2026-04-26T09:00:57.626Z</time></trkpt><trkpt lat="44.8854154" lon="9.6869542"><ele>232.0</ele><time>2026-04-26T09:00:58.63Z</time></trkpt><trkpt lat="44.8854872" lon="9.6869446"><ele>231.0</ele><time>2026-04-26T09:00:59.633Z</time></trkpt><trkpt lat="44.8855596" lon="9.6869376"><ele>229.99999999999997</ele><time>2026-04-26T09:01:00.633Z</time></trkpt><trkpt lat="44.8856334" lon="9.6869367"><ele>229.0</ele><time>2026-04-26T09:01:01.63Z</time></trkpt><trkpt lat="44.8857055" lon="9.6869423"><ele>229.0</ele><time>2026-04-26T09:01:02.617Z</time></trkpt><trkpt lat="44.8857769" lon="9.6869585"><ele>229.0</ele><time>2026-04-26T09:01:03.621Z</time></trkpt><trkpt lat="44.8858424" lon="9.6869952"><ele>229.0</ele><time>2026-04-26T09:01:04.628Z</time></trkpt><trkpt lat="44.8859037" lon="9.6870364"><ele>229.0</ele><time>2026-04-26T09:01:05.633Z</time></trkpt><trkpt lat="44.8859703" lon="9.6870779"><ele>229.0</ele><time>2026-04-26T09:01:06.624Z</time></trkpt><trkpt lat="44.886036" lon="9.6871287"><ele>229.0</ele><time>2026-04-26T09:01:07.631Z</time></trkpt><trkpt lat="44.8860948" lon="9.6871734"><ele>229.0</ele><time>2026-04-26T09:01:08.636Z</time></trkpt><trkpt lat="44.8861568" lon="9.6872197"><ele>228.42857142857142</ele><time>2026-04-26T09:01:09.641Z</time></trkpt><trkpt lat="44.886219" lon="9.687262"><ele>227.8571428571429</ele><time>2026-04-26T09:01:10.626Z</time></trkpt><trkpt lat="44.8862824" lon="9.6873038"><ele>227.2857142857143</ele><time>2026-04-26T09:01:11.627Z</time></trkpt><trkpt lat="44.8863424" lon="9.687346"><ele>226.71428571428572</ele><time>2026-04-26T09:01:12.64Z</time></trkpt><trkpt lat="44.8864009" lon="9.6873938"><ele>226.14285714285717</ele><time>2026-04-26T09:01:13.631Z</time></trkpt><trkpt lat="44.8864596" lon="9.687441"><ele>225.5714285714286</ele><time>2026-04-26T09:01:14.627Z</time></trkpt><trkpt lat="44.8865173" lon="9.6874868"><ele>225.00000000000003</ele><time>2026-04-26T09:01:15.633Z</time></trkpt><trkpt lat="44.8865758" lon="9.6875303"><ele>225.00000000000003</ele><time>2026-04-26T09:01:16.637Z</time></trkpt><trkpt lat="44.8866371" lon="9.6875781"><ele>225.0</ele><time>2026-04-26T09:01:17.619Z</time></trkpt><trkpt lat="44.8866931" lon="9.6876277"><ele>225.00000000000003</ele><time>2026-04-26T09:01:18.641Z</time></trkpt><trkpt lat="44.8867563" lon="9.6876739"><ele>225.00000000000003</ele><time>2026-04-26T09:01:19.631Z</time></trkpt><trkpt lat="44.8868206" lon="9.6877187"><ele>225.0</ele><time>2026-04-26T09:01:20.622Z</time></trkpt><trkpt lat="44.8868839" lon="9.6877669"><ele>225.00000000000003</ele><time>2026-04-26T09:01:21.636Z</time></trkpt><trkpt lat="44.886943" lon="9.6878116"><ele>225.00000000000003</ele><time>2026-04-26T09:01:22.627Z</time></trkpt><trkpt lat="44.8870065" lon="9.6878479"><ele>224.5714285714286</ele><time>2026-04-26T09:01:23.606Z</time></trkpt><trkpt lat="44.8870769" lon="9.6878751"><ele>224.14285714285717</ele><time>2026-04-26T09:01:24.623Z</time></trkpt><trkpt lat="44.8871518" lon="9.6878826"><ele>223.71428571428572</ele><time>2026-04-26T09:01:25.617Z</time></trkpt><trkpt lat="44.8872234" lon="9.6878811"><ele>223.2857142857143</ele><time>2026-04-26T09:01:26.619Z</time></trkpt><trkpt lat="44.8872994" lon="9.6878821"><ele>222.8571428571429</ele><time>2026-04-26T09:01:27.621Z</time></trkpt><trkpt lat="44.8873679" lon="9.6878729"><ele>222.42857142857142</ele><time>2026-04-26T09:01:28.63Z</time></trkpt><trkpt lat="44.8874364" lon="9.6878748"><ele>222.0</ele><time>2026-04-26T09:01:29.629Z</time></trkpt><trkpt lat="44.8875039" lon="9.6878785"><ele>222.0</ele><time>2026-04-26T09:01:30.627Z</time></trkpt><trkpt lat="44.8875693" lon="9.6878957"><ele>222.0</ele><time>2026-04-26T09:01:31.629Z</time></trkpt><trkpt lat="44.8876281" lon="9.6879321"><ele>222.0</ele><time>2026-04-26T09:01:32.637Z</time></trkpt><trkpt lat="44.8876822" lon="9.6879857"><ele>222.0</ele><time>2026-04-26T09:01:33.611Z</time></trkpt><trkpt lat="44.8877848" lon="9.6880951"><ele>222.0</ele><time>2026-04-26T09:01:35.636Z</time></trkpt><trkpt lat="44.8878395" lon="9.6881517"><ele>222.0</ele><time>2026-04-26T09:01:36.632Z</time></trkpt><trkpt lat="44.8878953" lon="9.6882057"><ele>221.5</ele><time>2026-04-26T09:01:37.626Z</time></trkpt><trkpt lat="44.8879505" lon="9.6882597"><ele>221.0</ele><time>2026-04-26T09:01:38.617Z</time></trkpt><trkpt lat="44.8880057" lon="9.6883134"><ele>220.5</ele><time>2026-04-26T09:01:39.62Z</time></trkpt><trkpt lat="44.8880606" lon="9.6883659"><ele>220.0</ele><time>2026-04-26T09:01:40.621Z</time></trkpt><trkpt lat="44.8881644" lon="9.688464"><ele>219.5</ele><time>2026-04-26T09:01:42.639Z</time></trkpt><trkpt lat="44.8882167" lon="9.6885195"><ele>219.0</ele><time>2026-04-26T09:01:43.624Z</time></trkpt><trkpt lat="44.8882705" lon="9.6885733"><ele>219.0</ele><time>2026-04-26T09:01:44.626Z</time></trkpt><trkpt lat="44.8883271" lon="9.688625"><ele>219.0</ele><time>2026-04-26T09:01:45.628Z</time></trkpt><trkpt lat="44.888387" lon="9.6886811"><ele>219.0</ele><time>2026-04-26T09:01:46.629Z</time></trkpt><trkpt lat="44.8884434" lon="9.6887343"><ele>219.0</ele><time>2026-04-26T09:01:47.625Z</time></trkpt><trkpt lat="44.8885053" lon="9.6887833"><ele>219.0</ele><time>2026-04-26T09:01:48.629Z</time></trkpt><trkpt lat="44.8885654" lon="9.6888304"><ele>219.0</ele><time>2026-04-26T09:01:49.625Z</time></trkpt><trkpt lat="44.8886248" lon="9.6888767"><ele>219.0</ele><time>2026-04-26T09:01:50.628Z</time></trkpt><trkpt lat="44.8886879" lon="9.6889207"><ele>218.42857142857144</ele><time>2026-04-26T09:01:51.62Z</time></trkpt><trkpt lat="44.888747" lon="9.6889723"><ele>217.85714285714283</ele><time>2026-04-26T09:01:52.628Z</time></trkpt><trkpt lat="44.888804" lon="9.6890218"><ele>217.28571428571428</ele><time>2026-04-26T09:01:53.629Z</time></trkpt><trkpt lat="44.8888566" lon="9.6890725"><ele>216.71428571428572</ele><time>2026-04-26T09:01:54.629Z</time></trkpt><trkpt lat="44.8889073" lon="9.6891273"><ele>216.14285714285717</ele><time>2026-04-26T09:01:55.626Z</time></trkpt><trkpt lat="44.888959" lon="9.6891806"><ele>215.57142857142856</ele><time>2026-04-26T09:01:56.616Z</time></trkpt><trkpt lat="44.8890594" lon="9.689274"><ele>215.0</ele><time>2026-04-26T09:01:58.597Z</time></trkpt><trkpt lat="44.8891135" lon="9.6893207"><ele>215.0</ele><time>2026-04-26T09:01:59.636Z</time></trkpt><trkpt lat="44.8892148" lon="9.6894123"><ele>215.0</ele><time>2026-04-26T09:02:01.618Z</time></trkpt><trkpt lat="44.8893124" lon="9.6895133"><ele>215.0</ele><time>2026-04-26T09:02:03.634Z</time></trkpt><trkpt lat="44.8894072" lon="9.6896086"><ele>215.0</ele><time>2026-04-26T09:02:05.63Z</time></trkpt><trkpt lat="44.8895052" lon="9.6896953"><ele>215.0</ele><time>2026-04-26T09:02:07.631Z</time></trkpt><trkpt lat="44.8896054" lon="9.6897856"><ele>215.0</ele><time>2026-04-26T09:02:09.635Z</time></trkpt><trkpt lat="44.8896997" lon="9.6898913"><ele>215.0</ele><time>2026-04-26T09:02:11.638Z</time></trkpt><trkpt lat="44.8897948" lon="9.6899927"><ele>215.0</ele><time>2026-04-26T09:02:13.623Z</time></trkpt><trkpt lat="44.8898968" lon="9.6900914"><ele>215.0</ele><time>2026-04-26T09:02:15.627Z</time></trkpt><trkpt lat="44.8899496" lon="9.6901444"><ele>215.0</ele><time>2026-04-26T09:02:16.625Z</time></trkpt><trkpt lat="44.8900008" lon="9.6902007"><ele>215.0</ele><time>2026-04-26T09:02:17.626Z</time></trkpt><trkpt lat="44.8900554" lon="9.6902534"><ele>215.0</ele><time>2026-04-26T09:02:18.634Z</time></trkpt><trkpt lat="44.8901092" lon="9.6903095"><ele>215.0</ele><time>2026-04-26T09:02:19.636Z</time></trkpt><trkpt lat="44.8901636" lon="9.6903631"><ele>215.0</ele><time>2026-04-26T09:02:20.632Z</time></trkpt><trkpt lat="44.8902241" lon="9.6904056"><ele>215.0</ele><time>2026-04-26T09:02:21.638Z</time></trkpt><trkpt lat="44.8902918" lon="9.6904124"><ele>214.4</ele><time>2026-04-26T09:02:22.638Z</time></trkpt><trkpt lat="44.890357" lon="9.6903896"><ele>213.8</ele><time>2026-04-26T09:02:23.642Z</time></trkpt><trkpt lat="44.8904212" lon="9.6903652"><ele>213.2</ele><time>2026-04-26T09:02:24.6Z</time></trkpt><trkpt lat="44.8905397" lon="9.690347"><ele>212.6</ele><time>2026-04-26T09:02:26.63Z</time></trkpt><trkpt lat="44.8906515" lon="9.6903895"><ele>212.0</ele><time>2026-04-26T09:02:28.626Z</time></trkpt><trkpt lat="44.8907522" lon="9.6904689"><ele>212.0</ele><time>2026-04-26T09:02:30.636Z</time></trkpt><trkpt lat="44.890847" lon="9.6905503"><ele>212.0</ele><time>2026-04-26T09:02:32.634Z</time></trkpt><trkpt lat="44.8909511" lon="9.6906393"><ele>212.0</ele><time>2026-04-26T09:02:34.635Z</time></trkpt><trkpt lat="44.8910502" lon="9.690725"><ele>212.0</ele><time>2026-04-26T09:02:36.641Z</time></trkpt><trkpt lat="44.8911526" lon="9.6908228"><ele>211.33333333333334</ele><time>2026-04-26T09:02:38.637Z</time></trkpt><trkpt lat="44.8912565" lon="9.6909173"><ele>210.66666666666669</ele><time>2026-04-26T09:02:40.633Z</time></trkpt><trkpt lat="44.8913605" lon="9.6910067"><ele>210.0</ele><time>2026-04-26T09:02:42.637Z</time></trkpt><trkpt lat="44.8914156" lon="9.6910528"><ele>209.33333333333331</ele><time>2026-04-26T09:02:43.629Z</time></trkpt><trkpt lat="44.8914712" lon="9.6910957"><ele>208.66666666666666</ele><time>2026-04-26T09:02:44.628Z</time></trkpt><trkpt lat="44.8915287" lon="9.6911395"><ele>208.0</ele><time>2026-04-26T09:02:45.622Z</time></trkpt><trkpt lat="44.891592" lon="9.6911815"><ele>208.0</ele><time>2026-04-26T09:02:46.632Z</time></trkpt><trkpt lat="44.8916554" lon="9.6912314"><ele>208.0</ele><time>2026-04-26T09:02:47.617Z</time></trkpt><trkpt lat="44.8917226" lon="9.691286"><ele>208.0</ele><time>2026-04-26T09:02:48.621Z</time></trkpt><trkpt lat="44.8917827" lon="9.6913323"><ele>208.0</ele><time>2026-04-26T09:02:49.62Z</time></trkpt><trkpt lat="44.8918405" lon="9.6913789"><ele>208.0</ele><time>2026-04-26T09:02:50.626Z</time></trkpt><trkpt lat="44.8919022" lon="9.6914213"><ele>208.0</ele><time>2026-04-26T09:02:51.627Z</time></trkpt><trkpt lat="44.8919666" lon="9.6914631"><ele>208.0</ele><time>2026-04-26T09:02:52.635Z</time></trkpt><trkpt lat="44.892077" lon="9.6915398"><ele>207.42857142857142</ele><time>2026-04-26T09:02:54.634Z</time></trkpt><trkpt lat="44.8921378" lon="9.6915807"><ele>206.85714285714286</ele><time>2026-04-26T09:02:55.638Z</time></trkpt><trkpt lat="44.8922006" lon="9.6916182"><ele>206.28571428571428</ele><time>2026-04-26T09:02:56.612Z</time></trkpt><trkpt lat="44.8922669" lon="9.6916604"><ele>205.71428571428572</ele><time>2026-04-26T09:02:57.628Z</time></trkpt><trkpt lat="44.8923312" lon="9.6917038"><ele>205.14285714285717</ele><time>2026-04-26T09:02:58.63Z</time></trkpt><trkpt lat="44.8923889" lon="9.691749"><ele>204.57142857142858</ele><time>2026-04-26T09:02:59.636Z</time></trkpt><trkpt lat="44.8924562" lon="9.6917873"><ele>204.0</ele><time>2026-04-26T09:03:00.625Z</time></trkpt><trkpt lat="44.8925339" lon="9.6918003"><ele>203.16666666666666</ele><time>2026-04-26T09:03:01.633Z</time></trkpt><trkpt lat="44.8926066" lon="9.6917541"><ele>202.33333333333331</ele><time>2026-04-26T09:03:02.629Z</time></trkpt><trkpt lat="44.8926552" lon="9.691673"><ele>201.5</ele><time>2026-04-26T09:03:03.629Z</time></trkpt><trkpt lat="44.8926918" lon="9.6915618"><ele>200.66666666666666</ele><time>2026-04-26T09:03:04.632Z</time></trkpt><trkpt lat="44.8927141" lon="9.6914514"><ele>199.83333333333331</ele><time>2026-04-26T09:03:05.633Z</time></trkpt><trkpt lat="44.8927339" lon="9.6913343"><ele>199.0</ele><time>2026-04-26T09:03:06.635Z</time></trkpt><trkpt lat="44.8927549" lon="9.6912119"><ele>198.99999999999997</ele><time>2026-04-26T09:03:07.632Z</time></trkpt><trkpt lat="44.8927804" lon="9.6910963"><ele>199.0</ele><time>2026-04-26T09:03:08.628Z</time></trkpt><trkpt lat="44.8928058" lon="9.6909713"><ele>199.0</ele><time>2026-04-26T09:03:09.624Z</time></trkpt><trkpt lat="44.8928284" lon="9.690857"><ele>199.0</ele><time>2026-04-26T09:03:10.627Z</time></trkpt><trkpt lat="44.8928487" lon="9.6907332"><ele>198.99999999999997</ele><time>2026-04-26T09:03:11.629Z</time></trkpt><trkpt lat="44.8928678" lon="9.6906146"><ele>199.0</ele><time>2026-04-26T09:03:12.629Z</time></trkpt><trkpt lat="44.8928933" lon="9.6904916"><ele>197.66666666666666</ele><time>2026-04-26T09:03:13.646Z</time></trkpt><trkpt lat="44.8929214" lon="9.6903681"><ele>196.33333333333331</ele><time>2026-04-26T09:03:14.605Z</time></trkpt><trkpt lat="44.8929363" lon="9.6902464"><ele>195.0</ele><time>2026-04-26T09:03:15.631Z</time></trkpt><trkpt lat="44.8929303" lon="9.6901323"><ele>193.66666666666666</ele><time>2026-04-26T09:03:16.624Z</time></trkpt><trkpt lat="44.8929027" lon="9.6900246"><ele>192.33333333333331</ele><time>2026-04-26T09:03:17.627Z</time></trkpt><trkpt lat="44.8928554" lon="9.6899308"><ele>191.0</ele><time>2026-04-26T09:03:18.632Z</time></trkpt><trkpt lat="44.8927795" lon="9.6898508"><ele>191.4</ele><time>2026-04-26T09:03:19.623Z</time></trkpt><trkpt lat="44.8927027" lon="9.6897769"><ele>191.8</ele><time>2026-04-26T09:03:20.618Z</time></trkpt><trkpt lat="44.8926231" lon="9.6897098"><ele>192.20000000000002</ele><time>2026-04-26T09:03:21.612Z</time></trkpt><trkpt lat="44.8925469" lon="9.6896422"><ele>192.60000000000002</ele><time>2026-04-26T09:03:22.632Z</time></trkpt><trkpt lat="44.8924712" lon="9.6895744"><ele>193.0</ele><time>2026-04-26T09:03:23.658Z</time></trkpt><trkpt lat="44.8923963" lon="9.6895081"><ele>193.0</ele><time>2026-04-26T09:03:24.625Z</time></trkpt><trkpt lat="44.892329" lon="9.6894316"><ele>193.0</ele><time>2026-04-26T09:03:25.63Z</time></trkpt><trkpt lat="44.8922539" lon="9.6893549"><ele>193.0</ele><time>2026-04-26T09:03:26.623Z</time></trkpt><trkpt lat="44.8921784" lon="9.6892739"><ele>193.0</ele><time>2026-04-26T09:03:27.631Z</time></trkpt><trkpt lat="44.8921087" lon="9.6891915"><ele>193.0</ele><time>2026-04-26T09:03:28.629Z</time></trkpt><trkpt lat="44.8920464" lon="9.6891094"><ele>191.49999999999997</ele><time>2026-04-26T09:03:29.631Z</time></trkpt><trkpt lat="44.8919996" lon="9.6890202"><ele>190.0</ele><time>2026-04-26T09:03:30.627Z</time></trkpt><trkpt lat="44.8920128" lon="9.6888304"><ele>188.5</ele><time>2026-04-26T09:03:32.616Z</time></trkpt><trkpt lat="44.8920543" lon="9.6887337"><ele>187.0</ele><time>2026-04-26T09:03:33.628Z</time></trkpt><trkpt lat="44.892101" lon="9.6886489"><ele>185.5</ele><time>2026-04-26T09:03:34.626Z</time></trkpt><trkpt lat="44.8921475" lon="9.6885631"><ele>184.0</ele><time>2026-04-26T09:03:35.626Z</time></trkpt><trkpt lat="44.8921828" lon="9.6884668"><ele>183.16666666666669</ele><time>2026-04-26T09:03:36.638Z</time></trkpt><trkpt lat="44.8922258" lon="9.6883785"><ele>182.33333333333334</ele><time>2026-04-26T09:03:37.63Z</time></trkpt><trkpt lat="44.8922635" lon="9.6883036"><ele>181.5</ele><time>2026-04-26T09:03:38.627Z</time></trkpt><trkpt lat="44.8922982" lon="9.6882255"><ele>180.66666666666666</ele><time>2026-04-26T09:03:39.625Z</time></trkpt><trkpt lat="44.8923482" lon="9.6881036"><ele>179.83333333333331</ele><time>2026-04-26T09:03:41.632Z</time></trkpt><trkpt lat="44.8924275" lon="9.6880927"><ele>179.0</ele><time>2026-04-26T09:03:43.627Z</time></trkpt><trkpt lat="44.8925367" lon="9.6881283"><ele>178.0</ele><time>2026-04-26T09:03:45.615Z</time></trkpt><trkpt lat="44.8926398" lon="9.6881933"><ele>177.0</ele><time>2026-04-26T09:03:47.628Z</time></trkpt><trkpt lat="44.8927463" lon="9.6882597"><ele>176.0</ele><time>2026-04-26T09:03:49.623Z</time></trkpt><trkpt lat="44.8928453" lon="9.6883352"><ele>175.0</ele><time>2026-04-26T09:03:51.624Z</time></trkpt><trkpt lat="44.8929338" lon="9.6884137"><ele>174.0</ele><time>2026-04-26T09:03:53.629Z</time></trkpt><trkpt lat="44.8930318" lon="9.6884421"><ele>174.0</ele><time>2026-04-26T09:03:55.624Z</time></trkpt><trkpt lat="44.8931455" lon="9.6884352"><ele>174.0</ele><time>2026-04-26T09:03:57.63Z</time></trkpt><trkpt lat="44.8932534" lon="9.6884649"><ele>174.0</ele><time>2026-04-26T09:03:59.628Z</time></trkpt><trkpt lat="44.8933666" lon="9.6884917"><ele>174.0</ele><time>2026-04-26T09:04:01.609Z</time></trkpt><trkpt lat="44.8934814" lon="9.688533"><ele>173.5</ele><time>2026-04-26T09:04:03.63Z</time></trkpt><trkpt lat="44.893608" lon="9.6885752"><ele>173.0</ele><time>2026-04-26T09:04:05.619Z</time></trkpt><trkpt lat="44.8936749" lon="9.6885998"><ele>172.5</ele><time>2026-04-26T09:04:06.631Z</time></trkpt><trkpt lat="44.8937466" lon="9.6886074"><ele>172.0</ele><time>2026-04-26T09:04:07.627Z</time></trkpt><trkpt lat="44.8938183" lon="9.6886027"><ele>171.5</ele><time>2026-04-26T09:04:08.609Z</time></trkpt><trkpt lat="44.8938848" lon="9.68858"><ele>171.0</ele><time>2026-04-26T09:04:09.609Z</time></trkpt><trkpt lat="44.8939461" lon="9.6885339"><ele>170.99999999999997</ele><time>2026-04-26T09:04:10.623Z</time></trkpt><trkpt lat="44.8940113" lon="9.6884837"><ele>171.0</ele><time>2026-04-26T09:04:11.618Z</time></trkpt><trkpt lat="44.894072" lon="9.6884338"><ele>171.0</ele><time>2026-04-26T09:04:12.638Z</time></trkpt><trkpt lat="44.8941322" lon="9.6883857"><ele>171.0</ele><time>2026-04-26T09:04:13.635Z</time></trkpt><trkpt lat="44.8941914" lon="9.6883344"><ele>171.0</ele><time>2026-04-26T09:04:14.625Z</time></trkpt><trkpt lat="44.8942572" lon="9.6882865"><ele>170.99999999999997</ele><time>2026-04-26T09:04:15.623Z</time></trkpt><trkpt lat="44.8943223" lon="9.6882522"><ele>171.0</ele><time>2026-04-26T09:04:16.619Z</time></trkpt><trkpt lat="44.8943957" lon="9.6882219"><ele>170.42857142857142</ele><time>2026-04-26T09:04:17.616Z</time></trkpt><trkpt lat="44.8944663" lon="9.6881969"><ele>169.85714285714286</ele><time>2026-04-26T09:04:18.627Z</time></trkpt><trkpt lat="44.8945332" lon="9.6881691"><ele>169.28571428571428</ele><time>2026-04-26T09:04:19.624Z</time></trkpt><trkpt lat="44.8946002" lon="9.6881355"><ele>168.71428571428572</ele><time>2026-04-26T09:04:20.629Z</time></trkpt><trkpt lat="44.894666" lon="9.6881095"><ele>168.14285714285714</ele><time>2026-04-26T09:04:21.626Z</time></trkpt><trkpt lat="44.8947324" lon="9.6880846"><ele>167.57142857142856</ele><time>2026-04-26T09:04:22.623Z</time></trkpt><trkpt lat="44.8947958" lon="9.6880675"><ele>167.0</ele><time>2026-04-26T09:04:23.624Z</time></trkpt><trkpt lat="44.8948586" lon="9.688044"><ele>167.0</ele><time>2026-04-26T09:04:24.632Z</time></trkpt><trkpt lat="44.8949224" lon="9.6880183"><ele>167.0</ele><time>2026-04-26T09:04:25.625Z</time></trkpt><trkpt lat="44.8949858" lon="9.6879994"><ele>167.0</ele><time>2026-04-26T09:04:26.624Z</time></trkpt><trkpt lat="44.8951125" lon="9.6880165"><ele>167.0</ele><time>2026-04-26T09:04:28.635Z</time></trkpt><trkpt lat="44.8951755" lon="9.6880348"><ele>167.0</ele><time>2026-04-26T09:04:29.628Z</time></trkpt><trkpt lat="44.8952975" lon="9.6880645"><ele>167.0</ele><time>2026-04-26T09:04:31.611Z</time></trkpt><trkpt lat="44.8954164" lon="9.6881004"><ele>166.71428571428572</ele><time>2026-04-26T09:04:33.63Z</time></trkpt><trkpt lat="44.8954814" lon="9.6881136"><ele>166.42857142857144</ele><time>2026-04-26T09:04:34.626Z</time></trkpt><trkpt lat="44.8955446" lon="9.6881224"><ele>166.14285714285717</ele><time>2026-04-26T09:04:35.635Z</time></trkpt><trkpt lat="44.8956654" lon="9.6881452"><ele>165.85714285714286</ele><time>2026-04-26T09:04:37.641Z</time></trkpt><trkpt lat="44.8957282" lon="9.6881577"><ele>165.57142857142858</ele><time>2026-04-26T09:04:38.613Z</time></trkpt><trkpt lat="44.8957904" lon="9.6881735"><ele>165.2857142857143</ele><time>2026-04-26T09:04:39.63Z</time></trkpt><trkpt lat="44.8958532" lon="9.6881893"><ele>165.0</ele><time>2026-04-26T09:04:40.633Z</time></trkpt><trkpt lat="44.8959707" lon="9.6882296"><ele>165.0</ele><time>2026-04-26T09:04:42.625Z</time></trkpt><trkpt lat="44.8960926" lon="9.6882677"><ele>165.0</ele><time>2026-04-26T09:04:44.64Z</time></trkpt><trkpt lat="44.8961561" lon="9.6882833"><ele>165.0</ele><time>2026-04-26T09:04:45.629Z</time></trkpt><trkpt lat="44.8962201" lon="9.6882986"><ele>165.0</ele><time>2026-04-26T09:04:46.626Z</time></trkpt><trkpt lat="44.8963442" lon="9.6883234"><ele>165.0</ele><time>2026-04-26T09:04:48.629Z</time></trkpt><trkpt lat="44.8964092" lon="9.6883283"><ele>165.0</ele><time>2026-04-26T09:04:49.628Z</time></trkpt><trkpt lat="44.8965247" lon="9.6883561"><ele>165.0</ele><time>2026-04-26T09:04:51.635Z</time></trkpt><trkpt lat="44.8966424" lon="9.6883864"><ele>165.0</ele><time>2026-04-26T09:04:53.627Z</time></trkpt><trkpt lat="44.8967044" lon="9.6884036"><ele>165.0</ele><time>2026-04-26T09:04:54.634Z</time></trkpt><trkpt lat="44.8968262" lon="9.6884384"><ele>165.0</ele><time>2026-04-26T09:04:56.634Z</time></trkpt><trkpt lat="44.8968888" lon="9.6884529"><ele>165.0</ele><time>2026-04-26T09:04:57.63Z</time></trkpt><trkpt lat="44.8970118" lon="9.6884869"><ele>164.83333333333334</ele><time>2026-04-26T09:04:59.631Z</time></trkpt><trkpt lat="44.8970764" lon="9.6884942"><ele>164.66666666666666</ele><time>2026-04-26T09:05:00.628Z</time></trkpt><trkpt lat="44.89714" lon="9.6885068"><ele>164.5</ele><time>2026-04-26T09:05:01.632Z</time></trkpt><trkpt lat="44.8972025" lon="9.6885249"><ele>164.33333333333331</ele><time>2026-04-26T09:05:02.635Z</time></trkpt><trkpt lat="44.8973196" lon="9.6885578"><ele>164.16666666666666</ele><time>2026-04-26T09:05:04.629Z</time></trkpt><trkpt lat="44.8973829" lon="9.6885656"><ele>164.0</ele><time>2026-04-26T09:05:05.632Z</time></trkpt><trkpt lat="44.8975017" lon="9.6886026"><ele>163.79999999999998</ele><time>2026-04-26T09:05:07.634Z</time></trkpt><trkpt lat="44.8975636" lon="9.6886203"><ele>163.6</ele><time>2026-04-26T09:05:08.62Z</time></trkpt><trkpt lat="44.8976856" lon="9.6886494"><ele>163.4</ele><time>2026-04-26T09:05:10.639Z</time></trkpt><trkpt lat="44.8978041" lon="9.6886823"><ele>163.2</ele><time>2026-04-26T09:05:12.619Z</time></trkpt><trkpt lat="44.8979287" lon="9.6887069"><ele>163.0</ele><time>2026-04-26T09:05:14.631Z</time></trkpt><trkpt lat="44.8980443" lon="9.6887313"><ele>163.0</ele><time>2026-04-26T09:05:16.63Z</time></trkpt><trkpt lat="44.8981598" lon="9.6887732"><ele>163.0</ele><time>2026-04-26T09:05:18.633Z</time></trkpt><trkpt lat="44.8982792" lon="9.6888078"><ele>163.0</ele><time>2026-04-26T09:05:20.638Z</time></trkpt><trkpt lat="44.8984016" lon="9.6888297"><ele>163.0</ele><time>2026-04-26T09:05:22.628Z</time></trkpt><trkpt lat="44.8985221" lon="9.6888465"><ele>163.2</ele><time>2026-04-26T09:05:24.629Z</time></trkpt><trkpt lat="44.8986482" lon="9.6888532"><ele>163.4</ele><time>2026-04-26T09:05:26.622Z</time></trkpt><trkpt lat="44.8987125" lon="9.6888536"><ele>163.6</ele><time>2026-04-26T09:05:27.629Z</time></trkpt><trkpt lat="44.8988364" lon="9.6888517"><ele>163.79999999999998</ele><time>2026-04-26T09:05:29.632Z</time></trkpt><trkpt lat="44.8989535" lon="9.6888443"><ele>164.0</ele><time>2026-04-26T09:05:31.627Z</time></trkpt><trkpt lat="44.8990718" lon="9.6888425"><ele>164.0</ele><time>2026-04-26T09:05:33.636Z</time></trkpt><trkpt lat="44.8991943" lon="9.6888281"><ele>164.0</ele><time>2026-04-26T09:05:35.621Z</time></trkpt><trkpt lat="44.8993147" lon="9.6888132"><ele>164.0</ele><time>2026-04-26T09:05:37.639Z</time></trkpt><trkpt lat="44.8994318" lon="9.6888094"><ele>164.0</ele><time>2026-04-26T09:05:39.634Z</time></trkpt><trkpt lat="44.8995521" lon="9.6888215"><ele>163.66666666666666</ele><time>2026-04-26T09:05:41.622Z</time></trkpt><trkpt lat="44.8996151" lon="9.688855"><ele>163.33333333333331</ele><time>2026-04-26T09:05:42.627Z</time></trkpt><trkpt lat="44.8997265" lon="9.6889162"><ele>163.0</ele><time>2026-04-26T09:05:44.632Z</time></trkpt><trkpt lat="44.8998329" lon="9.6889914"><ele>162.66666666666666</ele><time>2026-04-26T09:05:46.632Z</time></trkpt><trkpt lat="44.8998904" lon="9.6890277"><ele>162.33333333333334</ele><time>2026-04-26T09:05:47.626Z</time></trkpt><trkpt lat="44.8999478" lon="9.6890657"><ele>162.0</ele><time>2026-04-26T09:05:48.625Z</time></trkpt><trkpt lat="44.9000079" lon="9.6891091"><ele>161.6</ele><time>2026-04-26T09:05:49.643Z</time></trkpt><trkpt lat="44.9001298" lon="9.6891601"><ele>161.2</ele><time>2026-04-26T09:05:51.628Z</time></trkpt><trkpt lat="44.9002502" lon="9.6892022"><ele>160.8</ele><time>2026-04-26T09:05:53.628Z</time></trkpt><trkpt lat="44.9003116" lon="9.6892238"><ele>160.4</ele><time>2026-04-26T09:05:54.633Z</time></trkpt><trkpt lat="44.9004293" lon="9.6892688"><ele>160.0</ele><time>2026-04-26T09:05:56.633Z</time></trkpt><trkpt lat="44.900548" lon="9.6893185"><ele>160.0</ele><time>2026-04-26T09:05:58.624Z</time></trkpt><trkpt lat="44.9006669" lon="9.6893491"><ele>160.0</ele><time>2026-04-26T09:06:00.63Z</time></trkpt><trkpt lat="44.9007843" lon="9.6893753"><ele>160.0</ele><time>2026-04-26T09:06:02.627Z</time></trkpt><trkpt lat="44.900904" lon="9.689406"><ele>160.0</ele><time>2026-04-26T09:06:04.631Z</time></trkpt><trkpt lat="44.9010136" lon="9.6894413"><ele>160.0</ele><time>2026-04-26T09:06:06.633Z</time></trkpt><trkpt lat="44.9011357" lon="9.6894626"><ele>160.0</ele><time>2026-04-26T09:06:08.63Z</time></trkpt><trkpt lat="44.9012532" lon="9.6894984"><ele>160.0</ele><time>2026-04-26T09:06:10.634Z</time></trkpt><trkpt lat="44.9013642" lon="9.6895386"><ele>160.0</ele><time>2026-04-26T09:06:12.626Z</time></trkpt><trkpt lat="44.9014891" lon="9.6895661"><ele>160.0</ele><time>2026-04-26T09:06:14.625Z</time></trkpt><trkpt lat="44.9015512" lon="9.689581"><ele>160.0</ele><time>2026-04-26T09:06:15.629Z</time></trkpt><trkpt lat="44.9016147" lon="9.689599"><ele>160.0</ele><time>2026-04-26T09:06:16.616Z</time></trkpt><trkpt lat="44.9017324" lon="9.6896341"><ele>160.0</ele><time>2026-04-26T09:06:18.634Z</time></trkpt><trkpt lat="44.901855" lon="9.6896676"><ele>160.0</ele><time>2026-04-26T09:06:20.628Z</time></trkpt><trkpt lat="44.9019725" lon="9.6897027"><ele>159.75</ele><time>2026-04-26T09:06:22.63Z</time></trkpt><trkpt lat="44.90209" lon="9.6897381"><ele>159.5</ele><time>2026-04-26T09:06:24.613Z</time></trkpt><trkpt lat="44.9022076" lon="9.6897692"><ele>159.25</ele><time>2026-04-26T09:06:26.638Z</time></trkpt><trkpt lat="44.902328" lon="9.6898082"><ele>159.0</ele><time>2026-04-26T09:06:28.636Z</time></trkpt><trkpt lat="44.9024424" lon="9.689848"><ele>159.0</ele><time>2026-04-26T09:06:30.64Z</time></trkpt><trkpt lat="44.9025617" lon="9.6898785"><ele>159.0</ele><time>2026-04-26T09:06:32.639Z</time></trkpt><trkpt lat="44.9026799" lon="9.6899173"><ele>159.0</ele><time>2026-04-26T09:06:34.635Z</time></trkpt><trkpt lat="44.9027955" lon="9.6899613"><ele>159.0</ele><time>2026-04-26T09:06:36.63Z</time></trkpt><trkpt lat="44.9029135" lon="9.6900012"><ele>159.0</ele><time>2026-04-26T09:06:38.634Z</time></trkpt><trkpt lat="44.9030333" lon="9.69004"><ele>159.0</ele><time>2026-04-26T09:06:40.634Z</time></trkpt><trkpt lat="44.903152" lon="9.6900797"><ele>159.0</ele><time>2026-04-26T09:06:42.621Z</time></trkpt><trkpt lat="44.9032666" lon="9.6901277"><ele>159.0</ele><time>2026-04-26T09:06:44.635Z</time></trkpt><trkpt lat="44.9033826" lon="9.6901764"><ele>159.0</ele><time>2026-04-26T09:06:46.62Z</time></trkpt><trkpt lat="44.9034437" lon="9.6902111"><ele>159.0</ele><time>2026-04-26T09:06:47.639Z</time></trkpt><trkpt lat="44.9034924" lon="9.690271"><ele>159.0</ele><time>2026-04-26T09:06:48.62Z</time></trkpt><trkpt lat="44.9035367" lon="9.690339"><ele>159.0</ele><time>2026-04-26T09:06:49.626Z</time></trkpt><trkpt lat="44.9035859" lon="9.6903996"><ele>159.0</ele><time>2026-04-26T09:06:50.63Z</time></trkpt><trkpt lat="44.9036426" lon="9.6904433"><ele>159.0</ele><time>2026-04-26T09:06:51.624Z</time></trkpt><trkpt lat="44.9037073" lon="9.6904605"><ele>159.0</ele><time>2026-04-26T09:06:52.637Z</time></trkpt><trkpt lat="44.9037749" lon="9.6904638"><ele>159.0</ele><time>2026-04-26T09:06:53.624Z</time></trkpt><trkpt lat="44.9038913" lon="9.6904479"><ele>159.0</ele><time>2026-04-26T09:06:55.64Z</time></trkpt><trkpt lat="44.9040081" lon="9.6904024"><ele>159.0</ele><time>2026-04-26T09:06:57.632Z</time></trkpt><trkpt lat="44.9041343" lon="9.6903862"><ele>159.0</ele><time>2026-04-26T09:06:59.632Z</time></trkpt><trkpt lat="44.9042552" lon="9.6904019"><ele>158.4</ele><time>2026-04-26T09:07:01.632Z</time></trkpt><trkpt lat="44.9043185" lon="9.6904115"><ele>157.8</ele><time>2026-04-26T09:07:02.629Z</time></trkpt><trkpt lat="44.9043823" lon="9.6904198"><ele>157.2</ele><time>2026-04-26T09:07:03.637Z</time></trkpt><trkpt lat="44.9045056" lon="9.6904427"><ele>156.6</ele><time>2026-04-26T09:07:05.631Z</time></trkpt><trkpt lat="44.9046256" lon="9.6904698"><ele>156.0</ele><time>2026-04-26T09:07:07.638Z</time></trkpt><trkpt lat="44.9047464" lon="9.6904923"><ele>156.0</ele><time>2026-04-26T09:07:09.634Z</time></trkpt><trkpt lat="44.9048633" lon="9.6905196"><ele>156.0</ele><time>2026-04-26T09:07:11.643Z</time></trkpt><trkpt lat="44.9049791" lon="9.6905484"><ele>156.0</ele><time>2026-04-26T09:07:13.643Z</time></trkpt><trkpt lat="44.9051011" lon="9.6905747"><ele>156.0</ele><time>2026-04-26T09:07:15.637Z</time></trkpt><trkpt lat="44.9052162" lon="9.6905962"><ele>156.25</ele><time>2026-04-26T09:07:17.641Z</time></trkpt><trkpt lat="44.9053362" lon="9.6906187"><ele>156.5</ele><time>2026-04-26T09:07:19.626Z</time></trkpt><trkpt lat="44.9054503" lon="9.690643"><ele>156.75</ele><time>2026-04-26T09:07:21.633Z</time></trkpt><trkpt lat="44.9055626" lon="9.6906633"><ele>157.0</ele><time>2026-04-26T09:07:23.62Z</time></trkpt><trkpt lat="44.905669" lon="9.6906885"><ele>157.0</ele><time>2026-04-26T09:07:25.64Z</time></trkpt><trkpt lat="44.9057784" lon="9.6907135"><ele>157.0</ele><time>2026-04-26T09:07:27.637Z</time></trkpt><trkpt lat="44.9058874" lon="9.6907406"><ele>157.0</ele><time>2026-04-26T09:07:29.632Z</time></trkpt><trkpt lat="44.9060018" lon="9.6907604"><ele>157.0</ele><time>2026-04-26T09:07:31.636Z</time></trkpt><trkpt lat="44.9061143" lon="9.6907759"><ele>156.5</ele><time>2026-04-26T09:07:33.628Z</time></trkpt><trkpt lat="44.9062253" lon="9.690813"><ele>156.0</ele><time>2026-04-26T09:07:35.628Z</time></trkpt><trkpt lat="44.9063337" lon="9.6909006"><ele>155.5</ele><time>2026-04-26T09:07:37.63Z</time></trkpt><trkpt lat="44.9064176" lon="9.6910067"><ele>155.0</ele><time>2026-04-26T09:07:39.636Z</time></trkpt><trkpt lat="44.9065007" lon="9.691108"><ele>155.0</ele><time>2026-04-26T09:07:41.631Z</time></trkpt><trkpt lat="44.906577" lon="9.6912126"><ele>155.0</ele><time>2026-04-26T09:07:43.641Z</time></trkpt><trkpt lat="44.9066615" lon="9.691319"><ele>155.0</ele><time>2026-04-26T09:07:45.626Z</time></trkpt><trkpt lat="44.9067422" lon="9.6914132"><ele>155.0</ele><time>2026-04-26T09:07:47.622Z</time></trkpt><trkpt lat="44.9068072" lon="9.6915132"><ele>155.0</ele><time>2026-04-26T09:07:49.621Z</time></trkpt><trkpt lat="44.906882" lon="9.6916222"><ele>154.6</ele><time>2026-04-26T09:07:51.636Z</time></trkpt><trkpt lat="44.9069598" lon="9.6917262"><ele>154.2</ele><time>2026-04-26T09:07:53.629Z</time></trkpt><trkpt lat="44.9070296" lon="9.691836"><ele>153.8</ele><time>2026-04-26T09:07:55.631Z</time></trkpt><trkpt lat="44.9071017" lon="9.6919571"><ele>153.4</ele><time>2026-04-26T09:07:57.632Z</time></trkpt><trkpt lat="44.9071717" lon="9.6920744"><ele>153.0</ele><time>2026-04-26T09:07:59.629Z</time></trkpt><trkpt lat="44.9072303" lon="9.6921904"><ele>152.8</ele><time>2026-04-26T09:08:01.637Z</time></trkpt><trkpt lat="44.9072815" lon="9.6922969"><ele>152.60000000000002</ele><time>2026-04-26T09:08:03.636Z</time></trkpt><trkpt lat="44.9073481" lon="9.6923541"><ele>152.39999999999998</ele><time>2026-04-26T09:08:05.627Z</time></trkpt><trkpt lat="44.9074132" lon="9.6922733"><ele>152.2</ele><time>2026-04-26T09:08:07.625Z</time></trkpt><trkpt lat="44.9074675" lon="9.692138"><ele>152.0</ele><time>2026-04-26T09:08:09.628Z</time></trkpt><trkpt lat="44.9075057" lon="9.6919885"><ele>152.0</ele><time>2026-04-26T09:08:11.638Z</time></trkpt><trkpt lat="44.9075712" lon="9.6918925"><ele>152.0</ele><time>2026-04-26T09:08:13.625Z</time></trkpt><trkpt lat="44.9076555" lon="9.6918386"><ele>152.0</ele><time>2026-04-26T09:08:15.628Z</time></trkpt><trkpt lat="44.9077248" lon="9.6917882"><ele>152.0</ele><time>2026-04-26T09:08:17.628Z</time></trkpt><trkpt lat="44.9077906" lon="9.6917928"><ele>152.0</ele><time>2026-04-26T09:08:19.636Z</time></trkpt><trkpt lat="44.9078739" lon="9.6917977"><ele>152.0</ele><time>2026-04-26T09:08:22.633Z</time></trkpt><trkpt lat="44.9079697" lon="9.6917181"><ele>152.0</ele><time>2026-04-26T09:08:25.639Z</time></trkpt><trkpt lat="44.9080463" lon="9.6916707"><ele>152.0</ele><time>2026-04-26T09:08:27.642Z</time></trkpt><trkpt lat="44.9081314" lon="9.6916511"><ele>152.0</ele><time>2026-04-26T09:08:29.635Z</time></trkpt><trkpt lat="44.9082096" lon="9.6916404"><ele>152.0</ele><time>2026-04-26T09:08:31.625Z</time></trkpt><trkpt lat="44.9082957" lon="9.6916635"><ele>152.0</ele><time>2026-04-26T09:08:33.624Z</time></trkpt><trkpt lat="44.9083796" lon="9.6917087"><ele>152.0</ele><time>2026-04-26T09:08:35.635Z</time></trkpt><trkpt lat="44.9084431" lon="9.6917854"><ele>151.5</ele><time>2026-04-26T09:08:37.628Z</time></trkpt><trkpt lat="44.9085091" lon="9.6918665"><ele>151.0</ele><time>2026-04-26T09:08:39.63Z</time></trkpt><trkpt lat="44.9085702" lon="9.6919468"><ele>150.5</ele><time>2026-04-26T09:08:41.633Z</time></trkpt><trkpt lat="44.9086302" lon="9.6920356"><ele>150.0</ele><time>2026-04-26T09:08:43.638Z</time></trkpt><trkpt lat="44.9086826" lon="9.692103"><ele>149.5</ele><time>2026-04-26T09:08:45.625Z</time></trkpt><trkpt lat="44.908731" lon="9.6921776"><ele>149.0</ele><time>2026-04-26T09:08:47.631Z</time></trkpt><trkpt lat="44.9087844" lon="9.6922851"><ele>149.0</ele><time>2026-04-26T09:08:49.63Z</time></trkpt><trkpt lat="44.90883" lon="9.6923855"><ele>149.0</ele><time>2026-04-26T09:08:51.64Z</time></trkpt><trkpt lat="44.9088749" lon="9.6924836"><ele>149.0</ele><time>2026-04-26T09:08:53.633Z</time></trkpt><trkpt lat="44.9089114" lon="9.6925999"><ele>149.0</ele><time>2026-04-26T09:08:55.61Z</time></trkpt><trkpt lat="44.9089496" lon="9.6927001"><ele>149.0</ele><time>2026-04-26T09:08:57.619Z</time></trkpt><trkpt lat="44.9090005" lon="9.6927939"><ele>149.0</ele><time>2026-04-26T09:08:59.625Z</time></trkpt><trkpt lat="44.9090626" lon="9.6928832"><ele>149.0</ele><time>2026-04-26T09:09:01.62Z</time></trkpt><trkpt lat="44.9091185" lon="9.6929641"><ele>149.0</ele><time>2026-04-26T09:09:03.623Z</time></trkpt><trkpt lat="44.909175" lon="9.6930448"><ele>149.0</ele><time>2026-04-26T09:09:05.608Z</time></trkpt><trkpt lat="44.9092349" lon="9.6931363"><ele>149.0</ele><time>2026-04-26T09:09:07.624Z</time></trkpt><trkpt lat="44.9092937" lon="9.6932272"><ele>149.0</ele><time>2026-04-26T09:09:09.638Z</time></trkpt><trkpt lat="44.9093558" lon="9.6933204"><ele>149.0</ele><time>2026-04-26T09:09:11.636Z</time></trkpt><trkpt lat="44.909402" lon="9.6934165"><ele>149.0</ele><time>2026-04-26T09:09:13.632Z</time></trkpt><trkpt lat="44.9094519" lon="9.6935121"><ele>149.0</ele><time>2026-04-26T09:09:15.629Z</time></trkpt><trkpt lat="44.9095023" lon="9.69361"><ele>149.0</ele><time>2026-04-26T09:09:17.637Z</time></trkpt><trkpt lat="44.909571" lon="9.6936918"><ele>149.0</ele><time>2026-04-26T09:09:19.63Z</time></trkpt><trkpt lat="44.90964" lon="9.6937698"><ele>149.0</ele><time>2026-04-26T09:09:21.63Z</time></trkpt><trkpt lat="44.9097126" lon="9.6938542"><ele>149.0</ele><time>2026-04-26T09:09:23.631Z</time></trkpt><trkpt lat="44.9097683" lon="9.693962"><ele>149.0</ele><time>2026-04-26T09:09:25.634Z</time></trkpt><trkpt lat="44.909832" lon="9.6940516"><ele>149.0</ele><time>2026-04-26T09:09:27.632Z</time></trkpt><trkpt lat="44.9098929" lon="9.694107"><ele>149.0</ele><time>2026-04-26T09:09:29.629Z</time></trkpt><trkpt lat="44.9099507" lon="9.6941469"><ele>149.0</ele><time>2026-04-26T09:09:31.638Z</time></trkpt><trkpt lat="44.9100373" lon="9.6941734"><ele>149.0</ele><time>2026-04-26T09:09:33.632Z</time></trkpt><trkpt lat="44.910128" lon="9.6941754"><ele>149.0</ele><time>2026-04-26T09:09:35.628Z</time></trkpt><trkpt lat="44.9101889" lon="9.6940957"><ele>148.83333333333331</ele><time>2026-04-26T09:09:37.628Z</time></trkpt><trkpt lat="44.9102309" lon="9.6940038"><ele>148.66666666666666</ele><time>2026-04-26T09:09:39.633Z</time></trkpt><trkpt lat="44.9102945" lon="9.6940505"><ele>148.5</ele><time>2026-04-26T09:09:42.628Z</time></trkpt><trkpt lat="44.9103646" lon="9.6941008"><ele>148.33333333333334</ele><time>2026-04-26T09:09:44.633Z</time></trkpt><trkpt lat="44.9104445" lon="9.694153"><ele>148.16666666666669</ele><time>2026-04-26T09:09:47.629Z</time></trkpt><trkpt lat="44.9105077" lon="9.6942467"><ele>148.0</ele><time>2026-04-26T09:09:50.625Z</time></trkpt><trkpt lat="44.9105802" lon="9.6942639"><ele>148.0</ele><time>2026-04-26T09:09:52.625Z</time></trkpt><trkpt lat="44.9106722" lon="9.694264"><ele>148.0</ele><time>2026-04-26T09:09:54.619Z</time></trkpt><trkpt lat="44.9107743" lon="9.6942817"><ele>148.0</ele><time>2026-04-26T09:09:56.643Z</time></trkpt><trkpt lat="44.9108494" lon="9.6943054"><ele>148.0</ele><time>2026-04-26T09:09:58.643Z</time></trkpt><trkpt lat="44.9109255" lon="9.6943417"><ele>148.0</ele><time>2026-04-26T09:10:00.649Z</time></trkpt><trkpt lat="44.9109976" lon="9.6943844"><ele>148.0</ele><time>2026-04-26T09:10:02.631Z</time></trkpt><trkpt lat="44.9110756" lon="9.6944241"><ele>147.66666666666669</ele><time>2026-04-26T09:10:04.633Z</time></trkpt><trkpt lat="44.9111491" lon="9.6944532"><ele>147.33333333333334</ele><time>2026-04-26T09:10:06.621Z</time></trkpt><trkpt lat="44.9112245" lon="9.6944963"><ele>147.0</ele><time>2026-04-26T09:10:08.636Z</time></trkpt><trkpt lat="44.9113009" lon="9.6945471"><ele>146.66666666666666</ele><time>2026-04-26T09:10:10.628Z</time></trkpt><trkpt lat="44.9113793" lon="9.6945991"><ele>146.33333333333331</ele><time>2026-04-26T09:10:12.603Z</time></trkpt><trkpt lat="44.9114628" lon="9.694663"><ele>146.0</ele><time>2026-04-26T09:10:14.631Z</time></trkpt><trkpt lat="44.9115423" lon="9.6947257"><ele>146.0</ele><time>2026-04-26T09:10:16.638Z</time></trkpt><trkpt lat="44.9116242" lon="9.6948012"><ele>146.0</ele><time>2026-04-26T09:10:18.64Z</time></trkpt><trkpt lat="44.9117091" lon="9.694856"><ele>146.0</ele><time>2026-04-26T09:10:20.637Z</time></trkpt><trkpt lat="44.9117902" lon="9.6949123"><ele>146.0</ele><time>2026-04-26T09:10:22.645Z</time></trkpt><trkpt lat="44.9118676" lon="9.6949701"><ele>146.0</ele><time>2026-04-26T09:10:24.627Z</time></trkpt><trkpt lat="44.9119509" lon="9.6950491"><ele>146.0</ele><time>2026-04-26T09:10:26.609Z</time></trkpt><trkpt lat="44.9120233" lon="9.6951238"><ele>146.0</ele><time>2026-04-26T09:10:28.631Z</time></trkpt><trkpt lat="44.912102" lon="9.6951882"><ele>146.0</ele><time>2026-04-26T09:10:30.636Z</time></trkpt><trkpt lat="44.9121796" lon="9.6952626"><ele>146.0</ele><time>2026-04-26T09:10:32.635Z</time></trkpt><trkpt lat="44.9122524" lon="9.6953576"><ele>146.0</ele><time>2026-04-26T09:10:34.64Z</time></trkpt><trkpt lat="44.9123229" lon="9.6954294"><ele>146.0</ele><time>2026-04-26T09:10:36.634Z</time></trkpt><trkpt lat="44.912404" lon="9.6954846"><ele>146.0</ele><time>2026-04-26T09:10:38.633Z</time></trkpt><trkpt lat="44.9124879" lon="9.6955458"><ele>146.0</ele><time>2026-04-26T09:10:40.63Z</time></trkpt><trkpt lat="44.9125723" lon="9.6956108"><ele>146.0</ele><time>2026-04-26T09:10:42.612Z</time></trkpt><trkpt lat="44.9126514" lon="9.695675"><ele>146.0</ele><time>2026-04-26T09:10:44.631Z</time></trkpt><trkpt lat="44.9127328" lon="9.695743"><ele>145.8</ele><time>2026-04-26T09:10:46.628Z</time></trkpt><trkpt lat="44.9128112" lon="9.6958154"><ele>145.6</ele><time>2026-04-26T09:10:48.626Z</time></trkpt><trkpt lat="44.9128924" lon="9.6958862"><ele>145.4</ele><time>2026-04-26T09:10:50.635Z</time></trkpt><trkpt lat="44.9129833" lon="9.6959389"><ele>145.2</ele><time>2026-04-26T09:10:52.623Z</time></trkpt><trkpt lat="44.9130694" lon="9.6959915"><ele>145.0</ele><time>2026-04-26T09:10:54.634Z</time></trkpt><trkpt lat="44.9131479" lon="9.6960386"><ele>144.83333333333334</ele><time>2026-04-26T09:10:56.631Z</time></trkpt><trkpt lat="44.9131824" lon="9.6961393"><ele>144.66666666666669</ele><time>2026-04-26T09:10:58.636Z</time></trkpt><trkpt lat="44.9131792" lon="9.696257"><ele>144.5</ele><time>2026-04-26T09:11:00.622Z</time></trkpt><trkpt lat="44.9131961" lon="9.6963579"><ele>144.33333333333334</ele><time>2026-04-26T09:11:02.647Z</time></trkpt><trkpt lat="44.9132696" lon="9.6964381"><ele>144.16666666666666</ele><time>2026-04-26T09:11:04.63Z</time></trkpt><trkpt lat="44.9133662" lon="9.6964681"><ele>144.0</ele><time>2026-04-26T09:11:06.624Z</time></trkpt><trkpt lat="44.9134663" lon="9.6964789"><ele>144.0</ele><time>2026-04-26T09:11:08.61Z</time></trkpt><trkpt lat="44.9135519" lon="9.696514"><ele>144.0</ele><time>2026-04-26T09:11:10.639Z</time></trkpt><trkpt lat="44.9136232" lon="9.6965929"><ele>144.0</ele><time>2026-04-26T09:11:12.631Z</time></trkpt><trkpt lat="44.9136694" lon="9.6967102"><ele>144.0</ele><time>2026-04-26T09:11:14.625Z</time></trkpt><trkpt lat="44.9136876" lon="9.6968444"><ele>144.0</ele><time>2026-04-26T09:11:16.631Z</time></trkpt><trkpt lat="44.9136936" lon="9.6969747"><ele>144.2</ele><time>2026-04-26T09:11:18.632Z</time></trkpt><trkpt lat="44.9137293" lon="9.6970996"><ele>144.4</ele><time>2026-04-26T09:11:20.632Z</time></trkpt><trkpt lat="44.9137669" lon="9.6972286"><ele>144.6</ele><time>2026-04-26T09:11:22.635Z</time></trkpt><trkpt lat="44.9137866" lon="9.6973612"><ele>144.8</ele><time>2026-04-26T09:11:24.63Z</time></trkpt><trkpt lat="44.9138197" lon="9.6974985"><ele>145.0</ele><time>2026-04-26T09:11:26.634Z</time></trkpt><trkpt lat="44.9138762" lon="9.6976134"><ele>145.0</ele><time>2026-04-26T09:11:28.632Z</time></trkpt><trkpt lat="44.9139153" lon="9.6977249"><ele>145.0</ele><time>2026-04-26T09:11:30.636Z</time></trkpt><trkpt lat="44.9139749" lon="9.6978253"><ele>145.0</ele><time>2026-04-26T09:11:32.633Z</time></trkpt><trkpt lat="44.9140585" lon="9.6978873"><ele>145.0</ele><time>2026-04-26T09:11:34.632Z</time></trkpt><trkpt lat="44.9141369" lon="9.6979378"><ele>145.0</ele><time>2026-04-26T09:11:36.641Z</time></trkpt><trkpt lat="44.9142302" lon="9.6979749"><ele>144.8</ele><time>2026-04-26T09:11:38.641Z</time></trkpt><trkpt lat="44.9143182" lon="9.6980201"><ele>144.6</ele><time>2026-04-26T09:11:40.636Z</time></trkpt><trkpt lat="44.9144181" lon="9.698041"><ele>144.4</ele><time>2026-04-26T09:11:42.636Z</time></trkpt><trkpt lat="44.9145254" lon="9.6980657"><ele>144.2</ele><time>2026-04-26T09:11:44.634Z</time></trkpt><trkpt lat="44.9146385" lon="9.6980768"><ele>144.0</ele><time>2026-04-26T09:11:46.625Z</time></trkpt><trkpt lat="44.9147414" lon="9.6980905"><ele>144.0</ele><time>2026-04-26T09:11:48.644Z</time></trkpt><trkpt lat="44.9148452" lon="9.6980851"><ele>144.0</ele><time>2026-04-26T09:11:50.629Z</time></trkpt><trkpt lat="44.9149562" lon="9.6980795"><ele>144.0</ele><time>2026-04-26T09:11:52.634Z</time></trkpt><trkpt lat="44.9150697" lon="9.698075"><ele>144.0</ele><time>2026-04-26T09:11:54.637Z</time></trkpt><trkpt lat="44.9151761" lon="9.6980757"><ele>144.0</ele><time>2026-04-26T09:11:56.629Z</time></trkpt><trkpt lat="44.9152842" lon="9.6980793"><ele>143.8</ele><time>2026-04-26T09:11:58.63Z</time></trkpt><trkpt lat="44.915393" lon="9.698118"><ele>143.60000000000002</ele><time>2026-04-26T09:12:00.606Z</time></trkpt><trkpt lat="44.9154996" lon="9.6981597"><ele>143.4</ele><time>2026-04-26T09:12:02.637Z</time></trkpt><trkpt lat="44.9155915" lon="9.6982279"><ele>143.20000000000002</ele><time>2026-04-26T09:12:04.633Z</time></trkpt><trkpt lat="44.9156891" lon="9.6982911"><ele>143.0</ele><time>2026-04-26T09:12:06.639Z</time></trkpt><trkpt lat="44.9157848" lon="9.6983712"><ele>143.0</ele><time>2026-04-26T09:12:08.626Z</time></trkpt><trkpt lat="44.9158711" lon="9.6984666"><ele>143.0</ele><time>2026-04-26T09:12:10.618Z</time></trkpt><trkpt lat="44.9159414" lon="9.6985625"><ele>143.0</ele><time>2026-04-26T09:12:12.627Z</time></trkpt><trkpt lat="44.916022" lon="9.6986747"><ele>143.0</ele><time>2026-04-26T09:12:14.642Z</time></trkpt><trkpt lat="44.9161046" lon="9.6987845"><ele>143.0</ele><time>2026-04-26T09:12:16.636Z</time></trkpt><trkpt lat="44.9161743" lon="9.6988851"><ele>142.6</ele><time>2026-04-26T09:12:18.632Z</time></trkpt><trkpt lat="44.916223" lon="9.699008"><ele>142.20000000000002</ele><time>2026-04-26T09:12:20.641Z</time></trkpt><trkpt lat="44.9162551" lon="9.6991478"><ele>141.8</ele><time>2026-04-26T09:12:22.637Z</time></trkpt><trkpt lat="44.9162533" lon="9.699312"><ele>141.4</ele><time>2026-04-26T09:12:24.635Z</time></trkpt><trkpt lat="44.9162153" lon="9.6994648"><ele>141.0</ele><time>2026-04-26T09:12:26.637Z</time></trkpt><trkpt lat="44.9161843" lon="9.699625"><ele>141.0</ele><time>2026-04-26T09:12:28.62Z</time></trkpt><trkpt lat="44.9161696" lon="9.6997844"><ele>141.0</ele><time>2026-04-26T09:12:30.641Z</time></trkpt><trkpt lat="44.9161764" lon="9.6999399"><ele>141.0</ele><time>2026-04-26T09:12:32.623Z</time></trkpt><trkpt lat="44.9161814" lon="9.7001022"><ele>141.0</ele><time>2026-04-26T09:12:34.628Z</time></trkpt><trkpt lat="44.9161844" lon="9.700258"><ele>140.8</ele><time>2026-04-26T09:12:36.623Z</time></trkpt><trkpt lat="44.9161887" lon="9.7004058"><ele>140.6</ele><time>2026-04-26T09:12:38.627Z</time></trkpt><trkpt lat="44.9161946" lon="9.7005534"><ele>140.4</ele><time>2026-04-26T09:12:40.638Z</time></trkpt><trkpt lat="44.9161978" lon="9.7007055"><ele>140.2</ele><time>2026-04-26T09:12:42.635Z</time></trkpt><trkpt lat="44.9162269" lon="9.7008622"><ele>140.0</ele><time>2026-04-26T09:12:44.633Z</time></trkpt><trkpt lat="44.9162808" lon="9.7009965"><ele>140.0</ele><time>2026-04-26T09:12:46.621Z</time></trkpt><trkpt lat="44.9163608" lon="9.7011117"><ele>140.0</ele><time>2026-04-26T09:12:48.64Z</time></trkpt><trkpt lat="44.9164562" lon="9.7012074"><ele>140.0</ele><time>2026-04-26T09:12:50.629Z</time></trkpt><trkpt lat="44.9165597" lon="9.7012925"><ele>140.0</ele><time>2026-04-26T09:12:52.634Z</time></trkpt><trkpt lat="44.9166603" lon="9.7013734"><ele>139.5</ele><time>2026-04-26T09:12:54.64Z</time></trkpt><trkpt lat="44.9167618" lon="9.7014449"><ele>139.0</ele><time>2026-04-26T09:12:56.624Z</time></trkpt><trkpt lat="44.9168638" lon="9.7015246"><ele>138.5</ele><time>2026-04-26T09:12:58.629Z</time></trkpt><trkpt lat="44.9169612" lon="9.7015995"><ele>138.0</ele><time>2026-04-26T09:13:00.644Z</time></trkpt><trkpt lat="44.9170631" lon="9.701674"><ele>138.0</ele><time>2026-04-26T09:13:02.641Z</time></trkpt><trkpt lat="44.9171625" lon="9.7017511"><ele>138.0</ele><time>2026-04-26T09:13:04.635Z</time></trkpt><trkpt lat="44.9172611" lon="9.7018247"><ele>138.0</ele><time>2026-04-26T09:13:06.639Z</time></trkpt><trkpt lat="44.9173573" lon="9.7019066"><ele>138.0</ele><time>2026-04-26T09:13:08.639Z</time></trkpt><trkpt lat="44.9174603" lon="9.7019805"><ele>138.0</ele><time>2026-04-26T09:13:10.63Z</time></trkpt><trkpt lat="44.9175616" lon="9.7020519"><ele>138.0</ele><time>2026-04-26T09:13:12.635Z</time></trkpt><trkpt lat="44.9176556" lon="9.7021265"><ele>138.0</ele><time>2026-04-26T09:13:14.615Z</time></trkpt><trkpt lat="44.9177578" lon="9.70219"><ele>138.0</ele><time>2026-04-26T09:13:16.637Z</time></trkpt><trkpt lat="44.9178548" lon="9.702253"><ele>138.0</ele><time>2026-04-26T09:13:18.647Z</time></trkpt><trkpt lat="44.917952" lon="9.7023146"><ele>137.8</ele><time>2026-04-26T09:13:20.631Z</time></trkpt><trkpt lat="44.9180568" lon="9.7023867"><ele>137.60000000000002</ele><time>2026-04-26T09:13:22.636Z</time></trkpt><trkpt lat="44.9181658" lon="9.7024645"><ele>137.39999999999998</ele><time>2026-04-26T09:13:24.636Z</time></trkpt><trkpt lat="44.9182226" lon="9.7025143"><ele>137.2</ele><time>2026-04-26T09:13:25.632Z</time></trkpt><trkpt lat="44.9182765" lon="9.702566"><ele>137.0</ele><time>2026-04-26T09:13:26.639Z</time></trkpt><trkpt lat="44.9183829" lon="9.7026547"><ele>136.79999999999998</ele><time>2026-04-26T09:13:28.631Z</time></trkpt><trkpt lat="44.9184735" lon="9.7027516"><ele>136.6</ele><time>2026-04-26T09:13:30.645Z</time></trkpt><trkpt lat="44.9185263" lon="9.7028123"><ele>136.39999999999998</ele><time>2026-04-26T09:13:31.633Z</time></trkpt><trkpt lat="44.9185794" lon="9.7028607"><ele>136.2</ele><time>2026-04-26T09:13:32.632Z</time></trkpt><trkpt lat="44.9186835" lon="9.7029563"><ele>136.0</ele><time>2026-04-26T09:13:34.634Z</time></trkpt><trkpt lat="44.918783" lon="9.703057"><ele>136.0</ele><time>2026-04-26T09:13:36.617Z</time></trkpt><trkpt lat="44.9188869" lon="9.7031471"><ele>136.0</ele><time>2026-04-26T09:13:38.633Z</time></trkpt><trkpt lat="44.9189804" lon="9.7032446"><ele>136.0</ele><time>2026-04-26T09:13:40.639Z</time></trkpt><trkpt lat="44.9190716" lon="9.7033535"><ele>136.0</ele><time>2026-04-26T09:13:42.642Z</time></trkpt><trkpt lat="44.919164" lon="9.7034575"><ele>136.0</ele><time>2026-04-26T09:13:44.636Z</time></trkpt><trkpt lat="44.9192544" lon="9.70357"><ele>136.0</ele><time>2026-04-26T09:13:46.626Z</time></trkpt><trkpt lat="44.9193413" lon="9.7036747"><ele>136.0</ele><time>2026-04-26T09:13:48.628Z</time></trkpt><trkpt lat="44.919426" lon="9.7037738"><ele>136.0</ele><time>2026-04-26T09:13:50.628Z</time></trkpt><trkpt lat="44.9195197" lon="9.7038529"><ele>136.25</ele><time>2026-04-26T09:13:52.637Z</time></trkpt><trkpt lat="44.9196459" lon="9.7038295"><ele>136.5</ele><time>2026-04-26T09:13:54.633Z</time></trkpt><trkpt lat="44.9197518" lon="9.7037628"><ele>136.75</ele><time>2026-04-26T09:13:56.64Z</time></trkpt><trkpt lat="44.9198567" lon="9.7037024"><ele>137.0</ele><time>2026-04-26T09:13:58.632Z</time></trkpt><trkpt lat="44.9199623" lon="9.7036355"><ele>137.2</ele><time>2026-04-26T09:14:00.597Z</time></trkpt><trkpt lat="44.9200762" lon="9.7035718"><ele>137.39999999999998</ele><time>2026-04-26T09:14:02.608Z</time></trkpt><trkpt lat="44.9201352" lon="9.7035405"><ele>137.60000000000002</ele><time>2026-04-26T09:14:03.602Z</time></trkpt><trkpt lat="44.9202494" lon="9.7034727"><ele>137.8</ele><time>2026-04-26T09:14:05.603Z</time></trkpt><trkpt lat="44.9203161" lon="9.7034495"><ele>138.0</ele><time>2026-04-26T09:14:06.61Z</time></trkpt><trkpt lat="44.9204273" lon="9.7033763"><ele>138.0</ele><time>2026-04-26T09:14:08.603Z</time></trkpt><trkpt lat="44.9204834" lon="9.7033307"><ele>138.0</ele><time>2026-04-26T09:14:09.62Z</time></trkpt><trkpt lat="44.9206001" lon="9.7032706"><ele>138.0</ele><time>2026-04-26T09:14:11.614Z</time></trkpt><trkpt lat="44.9206583" lon="9.7032327"><ele>138.0</ele><time>2026-04-26T09:14:12.62Z</time></trkpt><trkpt lat="44.9207727" lon="9.7031575"><ele>138.0</ele><time>2026-04-26T09:14:14.634Z</time></trkpt><trkpt lat="44.9208325" lon="9.7031247"><ele>138.0</ele><time>2026-04-26T09:14:15.612Z</time></trkpt><trkpt lat="44.9208926" lon="9.7030977"><ele>137.66666666666666</ele><time>2026-04-26T09:14:16.636Z</time></trkpt><trkpt lat="44.9209569" lon="9.7030786"><ele>137.33333333333334</ele><time>2026-04-26T09:14:17.637Z</time></trkpt><trkpt lat="44.921021" lon="9.7030734"><ele>137.0</ele><time>2026-04-26T09:14:18.621Z</time></trkpt><trkpt lat="44.9210857" lon="9.7030723"><ele>136.66666666666669</ele><time>2026-04-26T09:14:19.639Z</time></trkpt><trkpt lat="44.9211492" lon="9.7030814"><ele>136.33333333333334</ele><time>2026-04-26T09:14:20.633Z</time></trkpt><trkpt lat="44.9212677" lon="9.703137"><ele>136.0</ele><time>2026-04-26T09:14:22.619Z</time></trkpt><trkpt lat="44.921328" lon="9.7031798"><ele>136.0</ele><time>2026-04-26T09:14:23.636Z</time></trkpt><trkpt lat="44.9213856" lon="9.7032273"><ele>136.0</ele><time>2026-04-26T09:14:24.633Z</time></trkpt><trkpt lat="44.9214424" lon="9.7032665"><ele>136.0</ele><time>2026-04-26T09:14:25.638Z</time></trkpt><trkpt lat="44.9215491" lon="9.7033488"><ele>136.0</ele><time>2026-04-26T09:14:27.648Z</time></trkpt><trkpt lat="44.9216584" lon="9.7034321"><ele>136.0</ele><time>2026-04-26T09:14:29.64Z</time></trkpt><trkpt lat="44.9217628" lon="9.7035149"><ele>135.33333333333334</ele><time>2026-04-26T09:14:31.627Z</time></trkpt><trkpt lat="44.9218766" lon="9.7035951"><ele>134.66666666666669</ele><time>2026-04-26T09:14:33.609Z</time></trkpt><trkpt lat="44.9219822" lon="9.7036766"><ele>134.0</ele><time>2026-04-26T09:14:35.63Z</time></trkpt><trkpt lat="44.9220381" lon="9.7037221"><ele>133.33333333333334</ele><time>2026-04-26T09:14:36.64Z</time></trkpt><trkpt lat="44.9220965" lon="9.7037618"><ele>132.66666666666666</ele><time>2026-04-26T09:14:37.64Z</time></trkpt><trkpt lat="44.9221562" lon="9.703808"><ele>132.0</ele><time>2026-04-26T09:14:38.637Z</time></trkpt><trkpt lat="44.9222617" lon="9.7038969"><ele>132.0</ele><time>2026-04-26T09:14:40.618Z</time></trkpt><trkpt lat="44.9223151" lon="9.7039485"><ele>132.0</ele><time>2026-04-26T09:14:41.611Z</time></trkpt><trkpt lat="44.9223672" lon="9.7040042"><ele>132.0</ele><time>2026-04-26T09:14:42.631Z</time></trkpt><trkpt lat="44.9224191" lon="9.7040638"><ele>132.0</ele><time>2026-04-26T09:14:43.639Z</time></trkpt><trkpt lat="44.9224679" lon="9.7041305"><ele>132.0</ele><time>2026-04-26T09:14:44.623Z</time></trkpt><trkpt lat="44.9225116" lon="9.7042025"><ele>132.0</ele><time>2026-04-26T09:14:45.632Z</time></trkpt><trkpt lat="44.9225512" lon="9.7042818"><ele>132.0</ele><time>2026-04-26T09:14:46.631Z</time></trkpt><trkpt lat="44.9225855" lon="9.7043663"><ele>132.14285714285714</ele><time>2026-04-26T09:14:47.634Z</time></trkpt><trkpt lat="44.9226202" lon="9.7044447"><ele>132.28571428571428</ele><time>2026-04-26T09:14:48.629Z</time></trkpt><trkpt lat="44.9226523" lon="9.7045278"><ele>132.42857142857144</ele><time>2026-04-26T09:14:49.628Z</time></trkpt><trkpt lat="44.9226883" lon="9.7046039"><ele>132.57142857142856</ele><time>2026-04-26T09:14:50.631Z</time></trkpt><trkpt lat="44.9227233" lon="9.7046837"><ele>132.71428571428572</ele><time>2026-04-26T09:14:51.632Z</time></trkpt><trkpt lat="44.9227585" lon="9.7047671"><ele>132.85714285714286</ele><time>2026-04-26T09:14:52.628Z</time></trkpt><trkpt lat="44.9227947" lon="9.7048508"><ele>133.0</ele><time>2026-04-26T09:14:53.635Z</time></trkpt><trkpt lat="44.9228298" lon="9.7049391"><ele>133.0</ele><time>2026-04-26T09:14:54.635Z</time></trkpt><trkpt lat="44.9228639" lon="9.7050272"><ele>133.0</ele><time>2026-04-26T09:14:55.631Z</time></trkpt><trkpt lat="44.9229011" lon="9.7051127"><ele>133.0</ele><time>2026-04-26T09:14:56.616Z</time></trkpt><trkpt lat="44.9229358" lon="9.7051972"><ele>133.0</ele><time>2026-04-26T09:14:57.631Z</time></trkpt><trkpt lat="44.9229695" lon="9.705277"><ele>133.0</ele><time>2026-04-26T09:14:58.64Z</time></trkpt><trkpt lat="44.9230074" lon="9.7053592"><ele>133.0</ele><time>2026-04-26T09:14:59.637Z</time></trkpt><trkpt lat="44.9230452" lon="9.7054476"><ele>133.0</ele><time>2026-04-26T09:15:00.639Z</time></trkpt><trkpt lat="44.9230781" lon="9.7055333"><ele>133.14285714285714</ele><time>2026-04-26T09:15:01.635Z</time></trkpt><trkpt lat="44.9231175" lon="9.705617"><ele>133.28571428571428</ele><time>2026-04-26T09:15:02.609Z</time></trkpt><trkpt lat="44.9231523" lon="9.7057092"><ele>133.42857142857144</ele><time>2026-04-26T09:15:03.629Z</time></trkpt><trkpt lat="44.92319" lon="9.7057957"><ele>133.57142857142856</ele><time>2026-04-26T09:15:04.623Z</time></trkpt><trkpt lat="44.9232262" lon="9.7058865"><ele>133.71428571428572</ele><time>2026-04-26T09:15:05.629Z</time></trkpt><trkpt lat="44.9232622" lon="9.7059716"><ele>133.85714285714286</ele><time>2026-04-26T09:15:06.627Z</time></trkpt><trkpt lat="44.9232959" lon="9.7060534"><ele>134.0</ele><time>2026-04-26T09:15:07.639Z</time></trkpt><trkpt lat="44.9233343" lon="9.7061409"><ele>134.14285714285714</ele><time>2026-04-26T09:15:08.633Z</time></trkpt><trkpt lat="44.9233675" lon="9.706226"><ele>134.28571428571428</ele><time>2026-04-26T09:15:09.617Z</time></trkpt><trkpt lat="44.9234043" lon="9.7063119"><ele>134.42857142857142</ele><time>2026-04-26T09:15:10.632Z</time></trkpt><trkpt lat="44.9234409" lon="9.7063969"><ele>134.57142857142856</ele><time>2026-04-26T09:15:11.61Z</time></trkpt><trkpt lat="44.9234778" lon="9.7064783"><ele>134.7142857142857</ele><time>2026-04-26T09:15:12.619Z</time></trkpt><trkpt lat="44.9235131" lon="9.7065584"><ele>134.85714285714286</ele><time>2026-04-26T09:15:13.638Z</time></trkpt><trkpt lat="44.9235494" lon="9.7066374"><ele>135.0</ele><time>2026-04-26T09:15:14.629Z</time></trkpt><trkpt lat="44.9235887" lon="9.7067154"><ele>134.5</ele><time>2026-04-26T09:15:15.64Z</time></trkpt><trkpt lat="44.9236237" lon="9.7067962"><ele>134.0</ele><time>2026-04-26T09:15:16.624Z</time></trkpt><trkpt lat="44.9236596" lon="9.7068784"><ele>133.5</ele><time>2026-04-26T09:15:17.632Z</time></trkpt><trkpt lat="44.923691" lon="9.7069609"><ele>133.0</ele><time>2026-04-26T09:15:18.633Z</time></trkpt><trkpt lat="44.9237629" lon="9.7071132"><ele>132.5</ele><time>2026-04-26T09:15:20.633Z</time></trkpt><trkpt lat="44.9237961" lon="9.7071932"><ele>132.0</ele><time>2026-04-26T09:15:21.636Z</time></trkpt><trkpt lat="44.9238313" lon="9.7072732"><ele>132.0</ele><time>2026-04-26T09:15:22.63Z</time></trkpt><trkpt lat="44.9238995" lon="9.7074246"><ele>132.0</ele><time>2026-04-26T09:15:24.634Z</time></trkpt><trkpt lat="44.9239327" lon="9.7075024"><ele>132.0</ele><time>2026-04-26T09:15:25.629Z</time></trkpt><trkpt lat="44.9239677" lon="9.7075781"><ele>132.0</ele><time>2026-04-26T09:15:26.638Z</time></trkpt><trkpt lat="44.9239987" lon="9.7076571"><ele>132.0</ele><time>2026-04-26T09:15:27.627Z</time></trkpt><trkpt lat="44.9240505" lon="9.7078107"><ele>132.0</ele><time>2026-04-26T09:15:29.635Z</time></trkpt><trkpt lat="44.9240801" lon="9.7079613"><ele>131.79999999999998</ele><time>2026-04-26T09:15:31.638Z</time></trkpt><trkpt lat="44.9241181" lon="9.7081074"><ele>131.6</ele><time>2026-04-26T09:15:33.633Z</time></trkpt><trkpt lat="44.9241766" lon="9.7082379"><ele>131.39999999999998</ele><time>2026-04-26T09:15:35.619Z</time></trkpt><trkpt lat="44.924247" lon="9.7083584"><ele>131.2</ele><time>2026-04-26T09:15:37.631Z</time></trkpt><trkpt lat="44.9242962" lon="9.7085079"><ele>131.0</ele><time>2026-04-26T09:15:39.633Z</time></trkpt><trkpt lat="44.924313" lon="9.7085973"><ele>130.85714285714286</ele><time>2026-04-26T09:15:40.628Z</time></trkpt><trkpt lat="44.9243332" lon="9.7086836"><ele>130.71428571428572</ele><time>2026-04-26T09:15:41.632Z</time></trkpt><trkpt lat="44.924386" lon="9.7088364"><ele>130.57142857142858</ele><time>2026-04-26T09:15:43.637Z</time></trkpt><trkpt lat="44.9244238" lon="9.7089102"><ele>130.42857142857144</ele><time>2026-04-26T09:15:44.634Z</time></trkpt><trkpt lat="44.9244642" lon="9.7089872"><ele>130.28571428571428</ele><time>2026-04-26T09:15:45.634Z</time></trkpt><trkpt lat="44.9244996" lon="9.7090609"><ele>130.14285714285717</ele><time>2026-04-26T09:15:46.626Z</time></trkpt><trkpt lat="44.9245325" lon="9.709139"><ele>130.0</ele><time>2026-04-26T09:15:47.626Z</time></trkpt><trkpt lat="44.9245652" lon="9.7092175"><ele>130.0</ele><time>2026-04-26T09:15:48.632Z</time></trkpt><trkpt lat="44.924646" lon="9.7093492"><ele>130.0</ele><time>2026-04-26T09:15:50.618Z</time></trkpt><trkpt lat="44.9246868" lon="9.7094179"><ele>130.0</ele><time>2026-04-26T09:15:51.639Z</time></trkpt><trkpt lat="44.9247684" lon="9.7095458"><ele>130.0</ele><time>2026-04-26T09:15:53.633Z</time></trkpt><trkpt lat="44.9248126" lon="9.7096097"><ele>130.0</ele><time>2026-04-26T09:15:54.632Z</time></trkpt><trkpt lat="44.9249054" lon="9.7097293"><ele>130.16666666666669</ele><time>2026-04-26T09:15:56.627Z</time></trkpt><trkpt lat="44.9249532" lon="9.7097925"><ele>130.33333333333334</ele><time>2026-04-26T09:15:57.64Z</time></trkpt><trkpt lat="44.9249935" lon="9.7098693"><ele>130.5</ele><time>2026-04-26T09:15:58.618Z</time></trkpt><trkpt lat="44.9250269" lon="9.7099505"><ele>130.66666666666666</ele><time>2026-04-26T09:15:59.64Z</time></trkpt><trkpt lat="44.9250616" lon="9.7100291"><ele>130.83333333333331</ele><time>2026-04-26T09:16:00.635Z</time></trkpt><trkpt lat="44.9251502" lon="9.710159"><ele>131.0</ele><time>2026-04-26T09:16:02.61Z</time></trkpt><trkpt lat="44.9251974" lon="9.71022"><ele>130.83333333333331</ele><time>2026-04-26T09:16:03.629Z</time></trkpt><trkpt lat="44.9252467" lon="9.7102778"><ele>130.66666666666666</ele><time>2026-04-26T09:16:04.632Z</time></trkpt><trkpt lat="44.9252949" lon="9.7103421"><ele>130.5</ele><time>2026-04-26T09:16:05.639Z</time></trkpt><trkpt lat="44.9253452" lon="9.7104"><ele>130.33333333333334</ele><time>2026-04-26T09:16:06.625Z</time></trkpt><trkpt lat="44.9254432" lon="9.7105094"><ele>130.16666666666669</ele><time>2026-04-26T09:16:08.641Z</time></trkpt><trkpt lat="44.9254894" lon="9.7105705"><ele>130.0</ele><time>2026-04-26T09:16:09.644Z</time></trkpt><trkpt lat="44.9255913" lon="9.71068"><ele>130.00000000000003</ele><time>2026-04-26T09:16:11.624Z</time></trkpt><trkpt lat="44.9256492" lon="9.7107294"><ele>130.0</ele><time>2026-04-26T09:16:12.632Z</time></trkpt><trkpt lat="44.9257059" lon="9.7107762"><ele>130.0</ele><time>2026-04-26T09:16:13.633Z</time></trkpt><trkpt lat="44.9257639" lon="9.7108196"><ele>130.0</ele><time>2026-04-26T09:16:14.642Z</time></trkpt><trkpt lat="44.9258238" lon="9.7108653"><ele>130.0</ele><time>2026-04-26T09:16:15.642Z</time></trkpt><trkpt lat="44.9258826" lon="9.7109105"><ele>130.00000000000003</ele><time>2026-04-26T09:16:16.64Z</time></trkpt><trkpt lat="44.9259371" lon="9.7109609"><ele>130.0</ele><time>2026-04-26T09:16:17.621Z</time></trkpt><trkpt lat="44.9259887" lon="9.7110126"><ele>129.85714285714286</ele><time>2026-04-26T09:16:18.639Z</time></trkpt><trkpt lat="44.9260424" lon="9.7110689"><ele>129.71428571428572</ele><time>2026-04-26T09:16:19.629Z</time></trkpt><trkpt lat="44.926099" lon="9.7111162"><ele>129.57142857142856</ele><time>2026-04-26T09:16:20.632Z</time></trkpt><trkpt lat="44.9261565" lon="9.711164"><ele>129.42857142857144</ele><time>2026-04-26T09:16:21.63Z</time></trkpt><trkpt lat="44.926212" lon="9.7112126"><ele>129.28571428571428</ele><time>2026-04-26T09:16:22.636Z</time></trkpt><trkpt lat="44.9262746" lon="9.7112544"><ele>129.14285714285714</ele><time>2026-04-26T09:16:23.631Z</time></trkpt><trkpt lat="44.9263346" lon="9.7112994"><ele>129.0</ele><time>2026-04-26T09:16:24.642Z</time></trkpt><trkpt lat="44.9263929" lon="9.7113513"><ele>128.99999999999997</ele><time>2026-04-26T09:16:25.64Z</time></trkpt><trkpt lat="44.9264539" lon="9.7114022"><ele>129.0</ele><time>2026-04-26T09:16:26.633Z</time></trkpt><trkpt lat="44.9265157" lon="9.7114539"><ele>129.0</ele><time>2026-04-26T09:16:27.637Z</time></trkpt><trkpt lat="44.9265761" lon="9.7115087"><ele>129.0</ele><time>2026-04-26T09:16:28.631Z</time></trkpt><trkpt lat="44.9266405" lon="9.7115594"><ele>129.0</ele><time>2026-04-26T09:16:29.635Z</time></trkpt><trkpt lat="44.9267009" lon="9.7116121"><ele>128.99999999999997</ele><time>2026-04-26T09:16:30.602Z</time></trkpt><trkpt lat="44.9267605" lon="9.7116703"><ele>129.0</ele><time>2026-04-26T09:16:31.628Z</time></trkpt><trkpt lat="44.9268168" lon="9.7117221"><ele>129.0</ele><time>2026-04-26T09:16:32.634Z</time></trkpt><trkpt lat="44.9268716" lon="9.7117725"><ele>129.0</ele><time>2026-04-26T09:16:33.611Z</time></trkpt><trkpt lat="44.9269259" lon="9.7118236"><ele>129.0</ele><time>2026-04-26T09:16:34.625Z</time></trkpt><trkpt lat="44.9269806" lon="9.7118736"><ele>129.0</ele><time>2026-04-26T09:16:35.634Z</time></trkpt><trkpt lat="44.927086" lon="9.7119699"><ele>129.0</ele><time>2026-04-26T09:16:37.626Z</time></trkpt><trkpt lat="44.92714" lon="9.7120224"><ele>129.0</ele><time>2026-04-26T09:16:38.621Z</time></trkpt><trkpt lat="44.9272423" lon="9.7121246"><ele>129.0</ele><time>2026-04-26T09:16:40.631Z</time></trkpt><trkpt lat="44.9272945" lon="9.7121784"><ele>129.0</ele><time>2026-04-26T09:16:41.626Z</time></trkpt><trkpt lat="44.9273988" lon="9.7122757"><ele>129.0</ele><time>2026-04-26T09:16:43.631Z</time></trkpt><trkpt lat="44.9274511" lon="9.7123274"><ele>129.0</ele><time>2026-04-26T09:16:44.635Z</time></trkpt><trkpt lat="44.9275053" lon="9.7123893"><ele>129.0</ele><time>2026-04-26T09:16:45.632Z</time></trkpt><trkpt lat="44.9275551" lon="9.7124502"><ele>129.0</ele><time>2026-04-26T09:16:46.63Z</time></trkpt><trkpt lat="44.9276076" lon="9.7125087"><ele>128.8</ele><time>2026-04-26T09:16:47.638Z</time></trkpt><trkpt lat="44.9276604" lon="9.7125649"><ele>128.60000000000002</ele><time>2026-04-26T09:16:48.636Z</time></trkpt><trkpt lat="44.9277149" lon="9.712623"><ele>128.4</ele><time>2026-04-26T09:16:49.636Z</time></trkpt><trkpt lat="44.9278153" lon="9.7127344"><ele>128.20000000000002</ele><time>2026-04-26T09:16:51.607Z</time></trkpt><trkpt lat="44.9278693" lon="9.712784"><ele>128.0</ele><time>2026-04-26T09:16:52.6Z</time></trkpt><trkpt lat="44.927977" lon="9.7128726"><ele>127.99999999999999</ele><time>2026-04-26T09:16:54.6Z</time></trkpt><trkpt lat="44.928035" lon="9.7129154"><ele>128.0</ele><time>2026-04-26T09:16:55.636Z</time></trkpt><trkpt lat="44.9280917" lon="9.7129572"><ele>128.0</ele><time>2026-04-26T09:16:56.641Z</time></trkpt><trkpt lat="44.9281982" lon="9.7130472"><ele>128.0</ele><time>2026-04-26T09:16:58.64Z</time></trkpt><trkpt lat="44.9282547" lon="9.713088"><ele>127.99999999999999</ele><time>2026-04-26T09:16:59.631Z</time></trkpt><trkpt lat="44.9283637" lon="9.7131696"><ele>128.0</ele><time>2026-04-26T09:17:01.632Z</time></trkpt><trkpt lat="44.9284194" lon="9.7132127"><ele>127.66666666666666</ele><time>2026-04-26T09:17:02.619Z</time></trkpt><trkpt lat="44.9284758" lon="9.7132584"><ele>127.33333333333333</ele><time>2026-04-26T09:17:03.604Z</time></trkpt><trkpt lat="44.9285833" lon="9.7133472"><ele>127.0</ele><time>2026-04-26T09:17:05.632Z</time></trkpt><trkpt lat="44.9286385" lon="9.7133976"><ele>126.66666666666666</ele><time>2026-04-26T09:17:06.639Z</time></trkpt><trkpt lat="44.9286928" lon="9.7134444"><ele>126.33333333333333</ele><time>2026-04-26T09:17:07.63Z</time></trkpt><trkpt lat="44.9287931" lon="9.7135381"><ele>126.0</ele><time>2026-04-26T09:17:09.632Z</time></trkpt><trkpt lat="44.9288956" lon="9.7136179"><ele>125.8</ele><time>2026-04-26T09:17:11.642Z</time></trkpt><trkpt lat="44.928955" lon="9.7136516"><ele>125.6</ele><time>2026-04-26T09:17:12.636Z</time></trkpt><trkpt lat="44.9290621" lon="9.7137369"><ele>125.4</ele><time>2026-04-26T09:17:14.625Z</time></trkpt><trkpt lat="44.9291646" lon="9.7138323"><ele>125.2</ele><time>2026-04-26T09:17:16.641Z</time></trkpt><trkpt lat="44.9292502" lon="9.713937"><ele>125.0</ele><time>2026-04-26T09:17:18.637Z</time></trkpt><trkpt lat="44.9293377" lon="9.7140343"><ele>125.0</ele><time>2026-04-26T09:17:20.632Z</time></trkpt><trkpt lat="44.9294185" lon="9.7141591"><ele>125.0</ele><time>2026-04-26T09:17:22.638Z</time></trkpt><trkpt lat="44.9295004" lon="9.7142799"><ele>125.0</ele><time>2026-04-26T09:17:24.638Z</time></trkpt><trkpt lat="44.9295906" lon="9.714385"><ele>125.0</ele><time>2026-04-26T09:17:26.637Z</time></trkpt><trkpt lat="44.9296903" lon="9.7144751"><ele>125.0</ele><time>2026-04-26T09:17:28.639Z</time></trkpt><trkpt lat="44.9297801" lon="9.7145928"><ele>125.0</ele><time>2026-04-26T09:17:30.639Z</time></trkpt><trkpt lat="44.929861" lon="9.7147202"><ele>125.0</ele><time>2026-04-26T09:17:32.637Z</time></trkpt><trkpt lat="44.929946" lon="9.7148382"><ele>125.0</ele><time>2026-04-26T09:17:34.631Z</time></trkpt><trkpt lat="44.9300183" lon="9.7149749"><ele>125.0</ele><time>2026-04-26T09:17:36.636Z</time></trkpt><trkpt lat="44.9300578" lon="9.7150471"><ele>125.0</ele><time>2026-04-26T09:17:37.637Z</time></trkpt><trkpt lat="44.930132" lon="9.7151732"><ele>125.0</ele><time>2026-04-26T09:17:39.633Z</time></trkpt><trkpt lat="44.9302094" lon="9.7153068"><ele>125.0</ele><time>2026-04-26T09:17:41.63Z</time></trkpt><trkpt lat="44.9302868" lon="9.7154252"><ele>125.0</ele><time>2026-04-26T09:17:43.644Z</time></trkpt><trkpt lat="44.930367" lon="9.7155338"><ele>124.75</ele><time>2026-04-26T09:17:45.63Z</time></trkpt><trkpt lat="44.930445" lon="9.7156671"><ele>124.5</ele><time>2026-04-26T09:17:47.632Z</time></trkpt><trkpt lat="44.9305164" lon="9.7157993"><ele>124.25</ele><time>2026-04-26T09:17:49.624Z</time></trkpt><trkpt lat="44.9305908" lon="9.7159375"><ele>124.0</ele><time>2026-04-26T09:17:51.614Z</time></trkpt><trkpt lat="44.9306368" lon="9.7160762"><ele>123.80000000000001</ele><time>2026-04-26T09:17:53.63Z</time></trkpt><trkpt lat="44.9306669" lon="9.7162043"><ele>123.60000000000001</ele><time>2026-04-26T09:17:55.639Z</time></trkpt><trkpt lat="44.9306885" lon="9.7163552"><ele>123.4</ele><time>2026-04-26T09:17:57.64Z</time></trkpt><trkpt lat="44.930692" lon="9.7164992"><ele>123.2</ele><time>2026-04-26T09:17:59.638Z</time></trkpt><trkpt lat="44.9306698" lon="9.7166426"><ele>123.0</ele><time>2026-04-26T09:18:01.64Z</time></trkpt><trkpt lat="44.9306378" lon="9.716787"><ele>122.80000000000001</ele><time>2026-04-26T09:18:03.635Z</time></trkpt><trkpt lat="44.9305993" lon="9.7169286"><ele>122.60000000000001</ele><time>2026-04-26T09:18:05.632Z</time></trkpt><trkpt lat="44.93056" lon="9.7170762"><ele>122.39999999999999</ele><time>2026-04-26T09:18:07.641Z</time></trkpt><trkpt lat="44.9305205" lon="9.7172312"><ele>122.19999999999999</ele><time>2026-04-26T09:18:09.63Z</time></trkpt><trkpt lat="44.9304833" lon="9.7173768"><ele>122.0</ele><time>2026-04-26T09:18:11.633Z</time></trkpt><trkpt lat="44.9304446" lon="9.7175279"><ele>122.0</ele><time>2026-04-26T09:18:13.64Z</time></trkpt><trkpt lat="44.9304046" lon="9.7176733"><ele>121.99999999999999</ele><time>2026-04-26T09:18:15.643Z</time></trkpt><trkpt lat="44.9303673" lon="9.71782"><ele>121.99999999999999</ele><time>2026-04-26T09:18:17.64Z</time></trkpt><trkpt lat="44.9303298" lon="9.7179713"><ele>122.0</ele><time>2026-04-26T09:18:19.632Z</time></trkpt><trkpt lat="44.9302878" lon="9.7181181"><ele>122.0</ele><time>2026-04-26T09:18:21.643Z</time></trkpt><trkpt lat="44.9302437" lon="9.7182642"><ele>122.0</ele><time>2026-04-26T09:18:23.63Z</time></trkpt><trkpt lat="44.9302134" lon="9.7184127"><ele>121.99999999999999</ele><time>2026-04-26T09:18:25.635Z</time></trkpt><trkpt lat="44.9301764" lon="9.7185485"><ele>121.99999999999999</ele><time>2026-04-26T09:18:27.614Z</time></trkpt><trkpt lat="44.930157" lon="9.7186736"><ele>122.0</ele><time>2026-04-26T09:18:29.618Z</time></trkpt><trkpt lat="44.9301749" lon="9.7187793"><ele>122.0</ele><time>2026-04-26T09:18:31.631Z</time></trkpt><trkpt lat="44.9302084" lon="9.7188716"><ele>122.0</ele><time>2026-04-26T09:18:33.633Z</time></trkpt><trkpt lat="44.9301795" lon="9.7189834"><ele>121.99999999999999</ele><time>2026-04-26T09:18:35.627Z</time></trkpt><trkpt lat="44.9301357" lon="9.719127"><ele>121.99999999999999</ele><time>2026-04-26T09:18:37.626Z</time></trkpt><trkpt lat="44.9301075" lon="9.7192668"><ele>122.0</ele><time>2026-04-26T09:18:39.639Z</time></trkpt><trkpt lat="44.9300837" lon="9.7194024"><ele>122.0</ele><time>2026-04-26T09:18:41.638Z</time></trkpt><trkpt lat="44.9300551" lon="9.7195512"><ele>122.25</ele><time>2026-04-26T09:18:43.626Z</time></trkpt><trkpt lat="44.9300255" lon="9.7197059"><ele>122.5</ele><time>2026-04-26T09:18:45.625Z</time></trkpt><trkpt lat="44.9299943" lon="9.7198635"><ele>122.75</ele><time>2026-04-26T09:18:47.62Z</time></trkpt><trkpt lat="44.9299585" lon="9.7200241"><ele>123.0</ele><time>2026-04-26T09:18:49.635Z</time></trkpt><trkpt lat="44.9299205" lon="9.7201847"><ele>123.0</ele><time>2026-04-26T09:18:51.637Z</time></trkpt><trkpt lat="44.9299016" lon="9.7202698"><ele>123.00000000000001</ele><time>2026-04-26T09:18:52.64Z</time></trkpt><trkpt lat="44.929871" lon="9.7204315"><ele>123.00000000000001</ele><time>2026-04-26T09:18:54.617Z</time></trkpt><trkpt lat="44.9298395" lon="9.7205991"><ele>123.0</ele><time>2026-04-26T09:18:56.621Z</time></trkpt><trkpt lat="44.9298143" lon="9.7207693"><ele>123.0</ele><time>2026-04-26T09:18:58.638Z</time></trkpt><trkpt lat="44.9297864" lon="9.7209297"><ele>123.0</ele><time>2026-04-26T09:19:00.635Z</time></trkpt><trkpt lat="44.9297581" lon="9.7210964"><ele>123.0</ele><time>2026-04-26T09:19:02.629Z</time></trkpt><trkpt lat="44.9297291" lon="9.7212673"><ele>123.0</ele><time>2026-04-26T09:19:04.638Z</time></trkpt><trkpt lat="44.9296973" lon="9.7214337"><ele>123.0</ele><time>2026-04-26T09:19:06.627Z</time></trkpt><trkpt lat="44.9296709" lon="9.7215963"><ele>123.0</ele><time>2026-04-26T09:19:08.628Z</time></trkpt><trkpt lat="44.9296542" lon="9.7217638"><ele>123.00000000000001</ele><time>2026-04-26T09:19:10.622Z</time></trkpt><trkpt lat="44.9296174" lon="9.7219305"><ele>123.00000000000001</ele><time>2026-04-26T09:19:12.597Z</time></trkpt><trkpt lat="44.9295961" lon="9.7220143"><ele>123.0</ele><time>2026-04-26T09:19:13.615Z</time></trkpt><trkpt lat="44.9295639" lon="9.7221796"><ele>123.0</ele><time>2026-04-26T09:19:15.628Z</time></trkpt><trkpt lat="44.9295265" lon="9.7223519"><ele>122.60000000000001</ele><time>2026-04-26T09:19:17.633Z</time></trkpt><trkpt lat="44.9294919" lon="9.7225153"><ele>122.20000000000002</ele><time>2026-04-26T09:19:19.628Z</time></trkpt><trkpt lat="44.9294782" lon="9.7226033"><ele>121.8</ele><time>2026-04-26T09:19:20.636Z</time></trkpt><trkpt lat="44.9294455" lon="9.7227662"><ele>121.4</ele><time>2026-04-26T09:19:22.64Z</time></trkpt><trkpt lat="44.9294051" lon="9.7229361"><ele>121.0</ele><time>2026-04-26T09:19:24.638Z</time></trkpt><trkpt lat="44.929366" lon="9.7231035"><ele>120.8</ele><time>2026-04-26T09:19:26.631Z</time></trkpt><trkpt lat="44.9293487" lon="9.7231907"><ele>120.6</ele><time>2026-04-26T09:19:27.642Z</time></trkpt><trkpt lat="44.9293144" lon="9.7233579"><ele>120.4</ele><time>2026-04-26T09:19:29.634Z</time></trkpt><trkpt lat="44.9292728" lon="9.723524"><ele>120.2</ele><time>2026-04-26T09:19:31.632Z</time></trkpt><trkpt lat="44.9292552" lon="9.7236098"><ele>120.0</ele><time>2026-04-26T09:19:32.642Z</time></trkpt><trkpt lat="44.9292235" lon="9.7237723"><ele>120.5</ele><time>2026-04-26T09:19:34.639Z</time></trkpt><trkpt lat="44.9291871" lon="9.7239343"><ele>121.0</ele><time>2026-04-26T09:19:36.636Z</time></trkpt><trkpt lat="44.9291507" lon="9.7240955"><ele>121.5</ele><time>2026-04-26T09:19:38.631Z</time></trkpt><trkpt lat="44.9291146" lon="9.7242642"><ele>122.0</ele><time>2026-04-26T09:19:40.623Z</time></trkpt><trkpt lat="44.9290783" lon="9.7244352"><ele>122.5</ele><time>2026-04-26T09:19:42.633Z</time></trkpt><trkpt lat="44.9290469" lon="9.7245986"><ele>123.0</ele><time>2026-04-26T09:19:44.641Z</time></trkpt><trkpt lat="44.929017" lon="9.7247508"><ele>123.5</ele><time>2026-04-26T09:19:46.635Z</time></trkpt><trkpt lat="44.9289967" lon="9.7249126"><ele>124.0</ele><time>2026-04-26T09:19:48.62Z</time></trkpt><trkpt lat="44.9289652" lon="9.7250605"><ele>124.0</ele><time>2026-04-26T09:19:50.645Z</time></trkpt><trkpt lat="44.9289342" lon="9.7252151"><ele>124.0</ele><time>2026-04-26T09:19:52.621Z</time></trkpt><trkpt lat="44.9289009" lon="9.7253719"><ele>124.0</ele><time>2026-04-26T09:19:54.642Z</time></trkpt><trkpt lat="44.9288669" lon="9.7255238"><ele>124.0</ele><time>2026-04-26T09:19:56.634Z</time></trkpt><trkpt lat="44.9288329" lon="9.7256761"><ele>124.0</ele><time>2026-04-26T09:19:58.633Z</time></trkpt><trkpt lat="44.9287969" lon="9.7258339"><ele>124.0</ele><time>2026-04-26T09:20:00.64Z</time></trkpt><trkpt lat="44.92877" lon="9.7259796"><ele>124.0</ele><time>2026-04-26T09:20:02.645Z</time></trkpt><trkpt lat="44.9287305" lon="9.7261139"><ele>124.0</ele><time>2026-04-26T09:20:04.636Z</time></trkpt><trkpt lat="44.9286997" lon="9.7262556"><ele>124.0</ele><time>2026-04-26T09:20:06.646Z</time></trkpt><trkpt lat="44.9286673" lon="9.7263952"><ele>123.6</ele><time>2026-04-26T09:20:08.62Z</time></trkpt><trkpt lat="44.9286338" lon="9.7265298"><ele>123.2</ele><time>2026-04-26T09:20:10.64Z</time></trkpt><trkpt lat="44.9285987" lon="9.7266666"><ele>122.79999999999998</ele><time>2026-04-26T09:20:12.62Z</time></trkpt><trkpt lat="44.9285653" lon="9.7268012"><ele>122.39999999999999</ele><time>2026-04-26T09:20:14.635Z</time></trkpt><trkpt lat="44.9285386" lon="9.7269326"><ele>122.0</ele><time>2026-04-26T09:20:16.626Z</time></trkpt><trkpt lat="44.9285157" lon="9.7270606"><ele>121.99999999999999</ele><time>2026-04-26T09:20:18.636Z</time></trkpt><trkpt lat="44.9284882" lon="9.72719"><ele>122.0</ele><time>2026-04-26T09:20:20.633Z</time></trkpt><trkpt lat="44.9284561" lon="9.727305"><ele>122.0</ele><time>2026-04-26T09:20:22.64Z</time></trkpt><trkpt lat="44.9284301" lon="9.72741"><ele>122.0</ele><time>2026-04-26T09:20:24.64Z</time></trkpt><trkpt lat="44.9284044" lon="9.7275032"><ele>121.99999999999999</ele><time>2026-04-26T09:20:26.638Z</time></trkpt><trkpt lat="44.9283722" lon="9.7276087"><ele>122.0</ele><time>2026-04-26T09:20:29.63Z</time></trkpt><trkpt lat="44.9283576" lon="9.7277077"><ele>121.66666666666666</ele><time>2026-04-26T09:21:32.633Z</time></trkpt><trkpt lat="44.9283994" lon="9.7277808"><ele>121.33333333333333</ele><time>2026-04-26T09:21:37.625Z</time></trkpt><trkpt lat="44.9284693" lon="9.7278464"><ele>121.0</ele><time>2026-04-26T09:21:40.611Z</time></trkpt><trkpt lat="44.9285379" lon="9.7278714"><ele>120.66666666666666</ele><time>2026-04-26T09:21:42.641Z</time></trkpt><trkpt lat="44.9286185" lon="9.7278901"><ele>120.33333333333333</ele><time>2026-04-26T09:21:44.625Z</time></trkpt><trkpt lat="44.9286981" lon="9.7279179"><ele>120.0</ele><time>2026-04-26T09:21:46.629Z</time></trkpt><trkpt lat="44.9287757" lon="9.7279397"><ele>120.0</ele><time>2026-04-26T09:21:48.629Z</time></trkpt><trkpt lat="44.9288584" lon="9.7279745"><ele>120.0</ele><time>2026-04-26T09:21:50.624Z</time></trkpt><trkpt lat="44.9289456" lon="9.7279919"><ele>120.0</ele><time>2026-04-26T09:21:52.641Z</time></trkpt><trkpt lat="44.9290375" lon="9.7280129"><ele>120.0</ele><time>2026-04-26T09:21:54.635Z</time></trkpt><trkpt lat="44.9291376" lon="9.7280409"><ele>120.0</ele><time>2026-04-26T09:21:56.632Z</time></trkpt><trkpt lat="44.9292416" lon="9.7280662"><ele>120.0</ele><time>2026-04-26T09:21:58.612Z</time></trkpt><trkpt lat="44.9293503" lon="9.7280953"><ele>120.0</ele><time>2026-04-26T09:22:00.632Z</time></trkpt><trkpt lat="44.9294717" lon="9.7281247"><ele>120.0</ele><time>2026-04-26T09:22:02.635Z</time></trkpt><trkpt lat="44.9295845" lon="9.7281549"><ele>120.0</ele><time>2026-04-26T09:22:04.624Z</time></trkpt><trkpt lat="44.929707" lon="9.7281891"><ele>120.0</ele><time>2026-04-26T09:22:06.633Z</time></trkpt><trkpt lat="44.9298271" lon="9.7282176"><ele>120.0</ele><time>2026-04-26T09:22:08.635Z</time></trkpt><trkpt lat="44.9299429" lon="9.7282504"><ele>120.0</ele><time>2026-04-26T09:22:10.626Z</time></trkpt><trkpt lat="44.9300627" lon="9.7282787"><ele>120.0</ele><time>2026-04-26T09:22:12.635Z</time></trkpt><trkpt lat="44.9301816" lon="9.7283121"><ele>120.2</ele><time>2026-04-26T09:22:14.637Z</time></trkpt><trkpt lat="44.9302995" lon="9.7283373"><ele>120.4</ele><time>2026-04-26T09:22:16.624Z</time></trkpt><trkpt lat="44.9303628" lon="9.7283485"><ele>120.6</ele><time>2026-04-26T09:22:17.626Z</time></trkpt><trkpt lat="44.9304257" lon="9.7283656"><ele>120.8</ele><time>2026-04-26T09:22:18.64Z</time></trkpt><trkpt lat="44.9305468" lon="9.7284055"><ele>121.0</ele><time>2026-04-26T09:22:20.629Z</time></trkpt><trkpt lat="44.9306661" lon="9.7284323"><ele>121.0</ele><time>2026-04-26T09:22:22.632Z</time></trkpt><trkpt lat="44.930789" lon="9.7284677"><ele>121.0</ele><time>2026-04-26T09:22:24.634Z</time></trkpt><trkpt lat="44.9308525" lon="9.7284793"><ele>121.0</ele><time>2026-04-26T09:22:25.641Z</time></trkpt><trkpt lat="44.9309729" lon="9.7285192"><ele>121.0</ele><time>2026-04-26T09:22:27.635Z</time></trkpt><trkpt lat="44.9310982" lon="9.7285443"><ele>121.0</ele><time>2026-04-26T09:22:29.624Z</time></trkpt><trkpt lat="44.9311626" lon="9.7285553"><ele>120.50000000000001</ele><time>2026-04-26T09:22:30.642Z</time></trkpt><trkpt lat="44.9312253" lon="9.7285649"><ele>120.0</ele><time>2026-04-26T09:22:31.636Z</time></trkpt><trkpt lat="44.931288" lon="9.7285745"><ele>119.5</ele><time>2026-04-26T09:22:32.635Z</time></trkpt><trkpt lat="44.9314117" lon="9.7285979"><ele>119.0</ele><time>2026-04-26T09:22:34.634Z</time></trkpt><trkpt lat="44.9315354" lon="9.728622"><ele>118.50000000000001</ele><time>2026-04-26T09:22:36.637Z</time></trkpt><trkpt lat="44.9316012" lon="9.728635"><ele>118.0</ele><time>2026-04-26T09:22:37.637Z</time></trkpt><trkpt lat="44.9316657" lon="9.728644"><ele>118.0</ele><time>2026-04-26T09:22:38.622Z</time></trkpt><trkpt lat="44.9317305" lon="9.7286529"><ele>118.0</ele><time>2026-04-26T09:22:39.627Z</time></trkpt><trkpt lat="44.9317958" lon="9.7286614"><ele>118.0</ele><time>2026-04-26T09:22:40.637Z</time></trkpt><trkpt lat="44.931858" lon="9.728677"><ele>118.0</ele><time>2026-04-26T09:22:41.633Z</time></trkpt><trkpt lat="44.9319226" lon="9.7286842"><ele>118.0</ele><time>2026-04-26T09:22:42.63Z</time></trkpt><trkpt lat="44.9319857" lon="9.7286989"><ele>118.0</ele><time>2026-04-26T09:22:43.631Z</time></trkpt><trkpt lat="44.9321074" lon="9.7287227"><ele>118.0</ele><time>2026-04-26T09:22:45.632Z</time></trkpt><trkpt lat="44.9321721" lon="9.7287337"><ele>118.0</ele><time>2026-04-26T09:22:46.644Z</time></trkpt><trkpt lat="44.9322948" lon="9.7287618"><ele>118.00000000000001</ele><time>2026-04-26T09:22:48.642Z</time></trkpt><trkpt lat="44.9323585" lon="9.72878"><ele>118.00000000000001</ele><time>2026-04-26T09:22:49.633Z</time></trkpt><trkpt lat="44.9324803" lon="9.7288029"><ele>118.0</ele><time>2026-04-26T09:22:51.645Z</time></trkpt><trkpt lat="44.9325453" lon="9.7288146"><ele>118.0</ele><time>2026-04-26T09:22:52.635Z</time></trkpt><trkpt lat="44.9326679" lon="9.7288324"><ele>117.66666666666667</ele><time>2026-04-26T09:22:54.637Z</time></trkpt><trkpt lat="44.9327309" lon="9.7288411"><ele>117.33333333333334</ele><time>2026-04-26T09:22:55.636Z</time></trkpt><trkpt lat="44.9328578" lon="9.7288566"><ele>117.0</ele><time>2026-04-26T09:22:57.632Z</time></trkpt><trkpt lat="44.9329241" lon="9.728863"><ele>116.66666666666666</ele><time>2026-04-26T09:22:58.634Z</time></trkpt><trkpt lat="44.9329924" lon="9.7288676"><ele>116.33333333333333</ele><time>2026-04-26T09:22:59.633Z</time></trkpt><trkpt lat="44.9330615" lon="9.7288754"><ele>116.0</ele><time>2026-04-26T09:23:00.646Z</time></trkpt><trkpt lat="44.9331331" lon="9.7288825"><ele>116.00000000000001</ele><time>2026-04-26T09:23:01.641Z</time></trkpt><trkpt lat="44.9332047" lon="9.7288897"><ele>116.0</ele><time>2026-04-26T09:23:02.621Z</time></trkpt><trkpt lat="44.9332742" lon="9.7288992"><ele>116.00000000000001</ele><time>2026-04-26T09:23:03.63Z</time></trkpt><trkpt lat="44.9333427" lon="9.7289088"><ele>116.00000000000001</ele><time>2026-04-26T09:23:04.622Z</time></trkpt><trkpt lat="44.933412" lon="9.7289183"><ele>116.0</ele><time>2026-04-26T09:23:05.627Z</time></trkpt><trkpt lat="44.933483" lon="9.7289236"><ele>116.00000000000001</ele><time>2026-04-26T09:23:06.617Z</time></trkpt><trkpt lat="44.9335488" lon="9.7289337"><ele>116.00000000000001</ele><time>2026-04-26T09:23:07.637Z</time></trkpt><trkpt lat="44.9336137" lon="9.7289422"><ele>115.85714285714288</ele><time>2026-04-26T09:23:08.62Z</time></trkpt><trkpt lat="44.9336813" lon="9.7289516"><ele>115.71428571428572</ele><time>2026-04-26T09:23:09.612Z</time></trkpt><trkpt lat="44.9337475" lon="9.7289602"><ele>115.57142857142857</ele><time>2026-04-26T09:23:10.642Z</time></trkpt><trkpt lat="44.9338148" lon="9.7289732"><ele>115.42857142857143</ele><time>2026-04-26T09:23:11.633Z</time></trkpt><trkpt lat="44.9338816" lon="9.7289826"><ele>115.28571428571428</ele><time>2026-04-26T09:23:12.636Z</time></trkpt><trkpt lat="44.9339486" lon="9.7289896"><ele>115.14285714285712</ele><time>2026-04-26T09:23:13.629Z</time></trkpt><trkpt lat="44.9340168" lon="9.7289989"><ele>114.99999999999999</ele><time>2026-04-26T09:23:14.63Z</time></trkpt><trkpt lat="44.9340866" lon="9.7290089"><ele>114.99999999999999</ele><time>2026-04-26T09:23:15.627Z</time></trkpt><trkpt lat="44.9341589" lon="9.7290187"><ele>115.0</ele><time>2026-04-26T09:23:16.638Z</time></trkpt><trkpt lat="44.9342322" lon="9.7290215"><ele>114.99999999999999</ele><time>2026-04-26T09:23:17.635Z</time></trkpt><trkpt lat="44.934308" lon="9.7290279"><ele>114.99999999999999</ele><time>2026-04-26T09:23:18.632Z</time></trkpt><trkpt lat="44.9343769" lon="9.7290328"><ele>115.0</ele><time>2026-04-26T09:23:19.639Z</time></trkpt><trkpt lat="44.9344458" lon="9.729036"><ele>114.99999999999999</ele><time>2026-04-26T09:23:20.632Z</time></trkpt><trkpt lat="44.934516" lon="9.7290442"><ele>114.99999999999999</ele><time>2026-04-26T09:23:21.64Z</time></trkpt><trkpt lat="44.9345885" lon="9.7290434"><ele>114.99999999999999</ele><time>2026-04-26T09:23:22.639Z</time></trkpt><trkpt lat="44.934662" lon="9.7290472"><ele>115.0</ele><time>2026-04-26T09:23:23.632Z</time></trkpt><trkpt lat="44.9347316" lon="9.7290485"><ele>114.99999999999999</ele><time>2026-04-26T09:23:24.634Z</time></trkpt><trkpt lat="44.9348037" lon="9.7290518"><ele>114.99999999999999</ele><time>2026-04-26T09:23:25.615Z</time></trkpt><trkpt lat="44.9348788" lon="9.7290474"><ele>115.0</ele><time>2026-04-26T09:23:26.641Z</time></trkpt><trkpt lat="44.9349545" lon="9.7290421"><ele>114.99999999999999</ele><time>2026-04-26T09:23:27.622Z</time></trkpt><trkpt lat="44.9350276" lon="9.7290331"><ele>114.99999999999999</ele><time>2026-04-26T09:23:28.64Z</time></trkpt><trkpt lat="44.9351063" lon="9.729025"><ele>114.83333333333334</ele><time>2026-04-26T09:23:29.633Z</time></trkpt><trkpt lat="44.935181" lon="9.7290216"><ele>114.66666666666667</ele><time>2026-04-26T09:23:30.639Z</time></trkpt><trkpt lat="44.9352534" lon="9.7290237"><ele>114.5</ele><time>2026-04-26T09:23:31.645Z</time></trkpt><trkpt lat="44.9353277" lon="9.7290206"><ele>114.33333333333334</ele><time>2026-04-26T09:23:32.627Z</time></trkpt><trkpt lat="44.9354013" lon="9.7290196"><ele>114.16666666666667</ele><time>2026-04-26T09:23:33.632Z</time></trkpt><trkpt lat="44.9354797" lon="9.7290186"><ele>114.0</ele><time>2026-04-26T09:23:34.622Z</time></trkpt><trkpt lat="44.9355575" lon="9.7290158"><ele>114.0</ele><time>2026-04-26T09:23:35.64Z</time></trkpt><trkpt lat="44.9356329" lon="9.7290114"><ele>113.99999999999999</ele><time>2026-04-26T09:23:36.645Z</time></trkpt><trkpt lat="44.935708" lon="9.7290124"><ele>114.0</ele><time>2026-04-26T09:23:37.626Z</time></trkpt><trkpt lat="44.9357825" lon="9.729009"><ele>114.0</ele><time>2026-04-26T09:23:38.645Z</time></trkpt><trkpt lat="44.9358546" lon="9.7290103"><ele>113.99999999999999</ele><time>2026-04-26T09:23:39.635Z</time></trkpt><trkpt lat="44.9359285" lon="9.7290076"><ele>114.0</ele><time>2026-04-26T09:23:40.602Z</time></trkpt><trkpt lat="44.9360045" lon="9.7290046"><ele>114.0</ele><time>2026-04-26T09:23:41.633Z</time></trkpt><trkpt lat="44.9360815" lon="9.7290019"><ele>114.0</ele><time>2026-04-26T09:23:42.637Z</time></trkpt><trkpt lat="44.9361542" lon="9.7290048"><ele>113.99999999999999</ele><time>2026-04-26T09:23:43.638Z</time></trkpt><trkpt lat="44.9362249" lon="9.7290015"><ele>114.0</ele><time>2026-04-26T09:23:44.63Z</time></trkpt><trkpt lat="44.9362999" lon="9.7290007"><ele>114.0</ele><time>2026-04-26T09:23:45.636Z</time></trkpt><trkpt lat="44.9363746" lon="9.7289954"><ele>113.99999999999999</ele><time>2026-04-26T09:23:46.636Z</time></trkpt><trkpt lat="44.9364505" lon="9.7289947"><ele>114.0</ele><time>2026-04-26T09:23:47.609Z</time></trkpt><trkpt lat="44.9365279" lon="9.7289984"><ele>114.0</ele><time>2026-04-26T09:23:48.638Z</time></trkpt><trkpt lat="44.9366034" lon="9.7289993"><ele>114.0</ele><time>2026-04-26T09:23:49.644Z</time></trkpt><trkpt lat="44.9366805" lon="9.7289938"><ele>113.99999999999999</ele><time>2026-04-26T09:23:50.629Z</time></trkpt><trkpt lat="44.9367547" lon="9.7289872"><ele>114.0</ele><time>2026-04-26T09:23:51.636Z</time></trkpt><trkpt lat="44.9368281" lon="9.7289846"><ele>114.0</ele><time>2026-04-26T09:23:52.637Z</time></trkpt><trkpt lat="44.9368978" lon="9.7289858"><ele>113.99999999999999</ele><time>2026-04-26T09:23:53.625Z</time></trkpt><trkpt lat="44.9369702" lon="9.7289846"><ele>114.0</ele><time>2026-04-26T09:23:54.622Z</time></trkpt><trkpt lat="44.9370427" lon="9.7289844"><ele>114.0</ele><time>2026-04-26T09:23:55.621Z</time></trkpt><trkpt lat="44.937116" lon="9.7289842"><ele>114.14285714285714</ele><time>2026-04-26T09:23:56.629Z</time></trkpt><trkpt lat="44.937189" lon="9.7289794"><ele>114.28571428571428</ele><time>2026-04-26T09:23:57.632Z</time></trkpt><trkpt lat="44.9372605" lon="9.7289773"><ele>114.42857142857142</ele><time>2026-04-26T09:23:58.628Z</time></trkpt><trkpt lat="44.9373294" lon="9.7289748"><ele>114.57142857142856</ele><time>2026-04-26T09:23:59.635Z</time></trkpt><trkpt lat="44.9374009" lon="9.7289743"><ele>114.71428571428571</ele><time>2026-04-26T09:24:00.633Z</time></trkpt><trkpt lat="44.9374699" lon="9.7289736"><ele>114.85714285714283</ele><time>2026-04-26T09:24:01.63Z</time></trkpt><trkpt lat="44.9375409" lon="9.7289729"><ele>114.99999999999999</ele><time>2026-04-26T09:24:02.626Z</time></trkpt><trkpt lat="44.9376102" lon="9.7289727"><ele>114.99999999999999</ele><time>2026-04-26T09:24:03.626Z</time></trkpt><trkpt lat="44.9376818" lon="9.728972"><ele>115.0</ele><time>2026-04-26T09:24:04.629Z</time></trkpt><trkpt lat="44.9377489" lon="9.7289803"><ele>114.99999999999999</ele><time>2026-04-26T09:24:05.647Z</time></trkpt><trkpt lat="44.9378222" lon="9.7289846"><ele>114.99999999999999</ele><time>2026-04-26T09:24:06.634Z</time></trkpt><trkpt lat="44.9378903" lon="9.7290028"><ele>115.0</ele><time>2026-04-26T09:24:07.632Z</time></trkpt><trkpt lat="44.9379648" lon="9.7290184"><ele>114.99999999999999</ele><time>2026-04-26T09:24:08.632Z</time></trkpt><trkpt lat="44.9380393" lon="9.7290433"><ele>114.99999999999999</ele><time>2026-04-26T09:24:09.633Z</time></trkpt><trkpt lat="44.9381099" lon="9.729067"><ele>114.99999999999999</ele><time>2026-04-26T09:24:10.62Z</time></trkpt><trkpt lat="44.9381833" lon="9.729096"><ele>115.0</ele><time>2026-04-26T09:24:11.656Z</time></trkpt><trkpt lat="44.9382515" lon="9.7291332"><ele>114.99999999999999</ele><time>2026-04-26T09:24:12.644Z</time></trkpt><trkpt lat="44.9383222" lon="9.7291672"><ele>114.99999999999999</ele><time>2026-04-26T09:24:13.647Z</time></trkpt><trkpt lat="44.9383899" lon="9.7292018"><ele>115.0</ele><time>2026-04-26T09:24:14.638Z</time></trkpt><trkpt lat="44.9384584" lon="9.7292325"><ele>114.99999999999999</ele><time>2026-04-26T09:24:15.64Z</time></trkpt><trkpt lat="44.9385293" lon="9.7292616"><ele>114.99999999999999</ele><time>2026-04-26T09:24:16.636Z</time></trkpt><trkpt lat="44.9385971" lon="9.7292915"><ele>114.50000000000001</ele><time>2026-04-26T09:24:17.635Z</time></trkpt><trkpt lat="44.9386692" lon="9.7293289"><ele>114.0</ele><time>2026-04-26T09:24:18.649Z</time></trkpt><trkpt lat="44.9387399" lon="9.7293619"><ele>113.5</ele><time>2026-04-26T09:24:19.627Z</time></trkpt><trkpt lat="44.9388123" lon="9.7293992"><ele>113.0</ele><time>2026-04-26T09:24:20.631Z</time></trkpt><trkpt lat="44.9388836" lon="9.7294406"><ele>112.50000000000001</ele><time>2026-04-26T09:24:21.634Z</time></trkpt><trkpt lat="44.9389556" lon="9.7294714"><ele>112.0</ele><time>2026-04-26T09:24:22.633Z</time></trkpt><trkpt lat="44.9390291" lon="9.7295053"><ele>112.00000000000001</ele><time>2026-04-26T09:24:23.62Z</time></trkpt><trkpt lat="44.9390979" lon="9.729545"><ele>112.0</ele><time>2026-04-26T09:24:24.634Z</time></trkpt><trkpt lat="44.9391691" lon="9.7295835"><ele>112.0</ele><time>2026-04-26T09:24:25.636Z</time></trkpt><trkpt lat="44.9392411" lon="9.72962"><ele>112.0</ele><time>2026-04-26T09:24:26.626Z</time></trkpt><trkpt lat="44.9393125" lon="9.7296554"><ele>112.00000000000001</ele><time>2026-04-26T09:24:27.628Z</time></trkpt><trkpt lat="44.9393839" lon="9.7296903"><ele>112.0</ele><time>2026-04-26T09:24:28.629Z</time></trkpt><trkpt lat="44.9394545" lon="9.7297235"><ele>112.0</ele><time>2026-04-26T09:24:29.627Z</time></trkpt><trkpt lat="44.9395267" lon="9.7297589"><ele>112.0</ele><time>2026-04-26T09:24:30.639Z</time></trkpt><trkpt lat="44.9395945" lon="9.7297932"><ele>112.0</ele><time>2026-04-26T09:24:31.632Z</time></trkpt><trkpt lat="44.9396654" lon="9.7298297"><ele>112.0</ele><time>2026-04-26T09:24:32.637Z</time></trkpt><trkpt lat="44.9397323" lon="9.7298677"><ele>112.0</ele><time>2026-04-26T09:24:33.627Z</time></trkpt><trkpt lat="44.9398" lon="9.7299025"><ele>112.0</ele><time>2026-04-26T09:24:34.635Z</time></trkpt><trkpt lat="44.9398694" lon="9.7299351"><ele>112.0</ele><time>2026-04-26T09:24:35.616Z</time></trkpt><trkpt lat="44.939937" lon="9.7299673"><ele>112.0</ele><time>2026-04-26T09:24:36.627Z</time></trkpt><trkpt lat="44.9400023" lon="9.730004"><ele>112.0</ele><time>2026-04-26T09:24:37.632Z</time></trkpt><trkpt lat="44.940067" lon="9.7300386"><ele>112.0</ele><time>2026-04-26T09:24:38.633Z</time></trkpt><trkpt lat="44.9401329" lon="9.7300697"><ele>112.0</ele><time>2026-04-26T09:24:39.631Z</time></trkpt><trkpt lat="44.940202" lon="9.730101"><ele>112.0</ele><time>2026-04-26T09:24:40.624Z</time></trkpt><trkpt lat="44.9402707" lon="9.7301341"><ele>112.0</ele><time>2026-04-26T09:24:41.637Z</time></trkpt><trkpt lat="44.9403382" lon="9.730167"><ele>112.0</ele><time>2026-04-26T09:24:42.63Z</time></trkpt><trkpt lat="44.9404092" lon="9.7302009"><ele>112.0</ele><time>2026-04-26T09:24:43.629Z</time></trkpt><trkpt lat="44.9404811" lon="9.7302355"><ele>112.0</ele><time>2026-04-26T09:24:44.631Z</time></trkpt><trkpt lat="44.9405506" lon="9.7302716"><ele>112.0</ele><time>2026-04-26T09:24:45.63Z</time></trkpt><trkpt lat="44.9406178" lon="9.730303"><ele>112.0</ele><time>2026-04-26T09:24:46.632Z</time></trkpt><trkpt lat="44.9406876" lon="9.7303377"><ele>112.0</ele><time>2026-04-26T09:24:47.632Z</time></trkpt><trkpt lat="44.9407552" lon="9.730378"><ele>112.0</ele><time>2026-04-26T09:24:48.611Z</time></trkpt><trkpt lat="44.9408229" lon="9.7304106"><ele>112.0</ele><time>2026-04-26T09:24:49.625Z</time></trkpt><trkpt lat="44.940893" lon="9.730442"><ele>112.0</ele><time>2026-04-26T09:24:50.632Z</time></trkpt><trkpt lat="44.9409579" lon="9.7304745"><ele>112.0</ele><time>2026-04-26T09:24:51.623Z</time></trkpt><trkpt lat="44.9410241" lon="9.7305113"><ele>112.0</ele><time>2026-04-26T09:24:52.627Z</time></trkpt><trkpt lat="44.9410928" lon="9.7305473"><ele>112.0</ele><time>2026-04-26T09:24:53.632Z</time></trkpt><trkpt lat="44.941162" lon="9.730584"><ele>112.0</ele><time>2026-04-26T09:24:54.634Z</time></trkpt><trkpt lat="44.941232" lon="9.730618"><ele>112.0</ele><time>2026-04-26T09:24:55.628Z</time></trkpt><trkpt lat="44.9413018" lon="9.7306544"><ele>112.0</ele><time>2026-04-26T09:24:56.639Z</time></trkpt><trkpt lat="44.9413659" lon="9.7306845"><ele>112.0</ele><time>2026-04-26T09:24:57.636Z</time></trkpt><trkpt lat="44.9414339" lon="9.7307179"><ele>112.0</ele><time>2026-04-26T09:24:58.618Z</time></trkpt><trkpt lat="44.9415014" lon="9.7307507"><ele>112.0</ele><time>2026-04-26T09:24:59.638Z</time></trkpt><trkpt lat="44.9415676" lon="9.730784"><ele>112.0</ele><time>2026-04-26T09:25:00.638Z</time></trkpt><trkpt lat="44.9416353" lon="9.7308149"><ele>112.0</ele><time>2026-04-26T09:25:01.634Z</time></trkpt><trkpt lat="44.9416979" lon="9.7308495"><ele>112.0</ele><time>2026-04-26T09:25:02.631Z</time></trkpt><trkpt lat="44.9417674" lon="9.7308821"><ele>112.0</ele><time>2026-04-26T09:25:03.629Z</time></trkpt><trkpt lat="44.9418364" lon="9.7309144"><ele>111.85714285714286</ele><time>2026-04-26T09:25:04.625Z</time></trkpt><trkpt lat="44.9419045" lon="9.7309506"><ele>111.71428571428572</ele><time>2026-04-26T09:25:05.624Z</time></trkpt><trkpt lat="44.941971" lon="9.7309843"><ele>111.57142857142857</ele><time>2026-04-26T09:25:06.613Z</time></trkpt><trkpt lat="44.9420373" lon="9.7310129"><ele>111.42857142857143</ele><time>2026-04-26T09:25:07.629Z</time></trkpt><trkpt lat="44.9421041" lon="9.7310436"><ele>111.28571428571429</ele><time>2026-04-26T09:25:08.614Z</time></trkpt><trkpt lat="44.9421693" lon="9.7310788"><ele>111.14285714285714</ele><time>2026-04-26T09:25:09.636Z</time></trkpt><trkpt lat="44.9422385" lon="9.7311152"><ele>111.0</ele><time>2026-04-26T09:25:10.611Z</time></trkpt><trkpt lat="44.9423077" lon="9.7311482"><ele>110.85714285714285</ele><time>2026-04-26T09:25:11.627Z</time></trkpt><trkpt lat="44.9423755" lon="9.7311834"><ele>110.71428571428572</ele><time>2026-04-26T09:25:12.631Z</time></trkpt><trkpt lat="44.9424439" lon="9.7312173"><ele>110.57142857142857</ele><time>2026-04-26T09:25:13.634Z</time></trkpt><trkpt lat="44.9425117" lon="9.7312507"><ele>110.42857142857142</ele><time>2026-04-26T09:25:14.637Z</time></trkpt><trkpt lat="44.9425791" lon="9.7312818"><ele>110.28571428571428</ele><time>2026-04-26T09:25:15.63Z</time></trkpt><trkpt lat="44.9426463" lon="9.7313172"><ele>110.14285714285714</ele><time>2026-04-26T09:25:16.638Z</time></trkpt><trkpt lat="44.9427138" lon="9.7313491"><ele>110.0</ele><time>2026-04-26T09:25:17.633Z</time></trkpt><trkpt lat="44.942781" lon="9.7313798"><ele>109.71428571428571</ele><time>2026-04-26T09:25:18.64Z</time></trkpt><trkpt lat="44.9428502" lon="9.7314135"><ele>109.42857142857143</ele><time>2026-04-26T09:25:19.63Z</time></trkpt><trkpt lat="44.9429161" lon="9.7314384"><ele>109.14285714285714</ele><time>2026-04-26T09:25:20.639Z</time></trkpt><trkpt lat="44.9429803" lon="9.7314571"><ele>108.85714285714286</ele><time>2026-04-26T09:25:21.628Z</time></trkpt><trkpt lat="44.9430428" lon="9.7314789"><ele>108.57142857142857</ele><time>2026-04-26T09:25:22.635Z</time></trkpt><trkpt lat="44.9431072" lon="9.731497"><ele>108.28571428571428</ele><time>2026-04-26T09:25:23.627Z</time></trkpt><trkpt lat="44.9431704" lon="9.7315129"><ele>108.0</ele><time>2026-04-26T09:25:24.642Z</time></trkpt><trkpt lat="44.9432339" lon="9.7315248"><ele>108.0</ele><time>2026-04-26T09:25:25.634Z</time></trkpt><trkpt lat="44.94336" lon="9.7315508"><ele>108.00000000000001</ele><time>2026-04-26T09:25:27.647Z</time></trkpt><trkpt lat="44.943426" lon="9.7315634"><ele>108.00000000000001</ele><time>2026-04-26T09:25:28.627Z</time></trkpt><trkpt lat="44.9435447" lon="9.7315842"><ele>108.0</ele><time>2026-04-26T09:25:30.621Z</time></trkpt><trkpt lat="44.9436594" lon="9.7316016"><ele>108.0</ele><time>2026-04-26T09:25:32.634Z</time></trkpt><trkpt lat="44.9437721" lon="9.7316266"><ele>108.4</ele><time>2026-04-26T09:25:34.627Z</time></trkpt><trkpt lat="44.9438713" lon="9.7316583"><ele>108.80000000000001</ele><time>2026-04-26T09:25:36.631Z</time></trkpt><trkpt lat="44.9439731" lon="9.731654"><ele>109.2</ele><time>2026-04-26T09:25:38.63Z</time></trkpt><trkpt lat="44.944043" lon="9.7315462"><ele>109.6</ele><time>2026-04-26T09:25:40.629Z</time></trkpt><trkpt lat="44.9440749" lon="9.7314043"><ele>110.0</ele><time>2026-04-26T09:25:42.644Z</time></trkpt><trkpt lat="44.9440941" lon="9.731264"><ele>110.0</ele><time>2026-04-26T09:25:44.65Z</time></trkpt><trkpt lat="44.9441208" lon="9.73112"><ele>110.0</ele><time>2026-04-26T09:25:46.632Z</time></trkpt><trkpt lat="44.9441405" lon="9.730966"><ele>110.0</ele><time>2026-04-26T09:25:48.641Z</time></trkpt><trkpt lat="44.9441559" lon="9.7308104"><ele>110.0</ele><time>2026-04-26T09:25:50.64Z</time></trkpt><trkpt lat="44.9441861" lon="9.7306679"><ele>110.0</ele><time>2026-04-26T09:25:52.626Z</time></trkpt><trkpt lat="44.9442108" lon="9.7305274"><ele>109.8</ele><time>2026-04-26T09:25:54.632Z</time></trkpt><trkpt lat="44.9442355" lon="9.7303881"><ele>109.6</ele><time>2026-04-26T09:25:56.632Z</time></trkpt><trkpt lat="44.9442559" lon="9.7302563"><ele>109.4</ele><time>2026-04-26T09:25:58.605Z</time></trkpt><trkpt lat="44.9442787" lon="9.7301365"><ele>109.2</ele><time>2026-04-26T09:26:00.63Z</time></trkpt><trkpt lat="44.9442989" lon="9.7300212"><ele>109.0</ele><time>2026-04-26T09:26:02.627Z</time></trkpt><trkpt lat="44.9443196" lon="9.7298979"><ele>109.0</ele><time>2026-04-26T09:26:04.63Z</time></trkpt><trkpt lat="44.9443454" lon="9.7297574"><ele>109.0</ele><time>2026-04-26T09:26:06.627Z</time></trkpt><trkpt lat="44.9443691" lon="9.7296223"><ele>109.0</ele><time>2026-04-26T09:26:08.635Z</time></trkpt><trkpt lat="44.9443946" lon="9.7294913"><ele>109.0</ele><time>2026-04-26T09:26:10.627Z</time></trkpt><trkpt lat="44.9444158" lon="9.72936"><ele>109.0</ele><time>2026-04-26T09:26:12.638Z</time></trkpt><trkpt lat="44.9444357" lon="9.7292286"><ele>108.80000000000001</ele><time>2026-04-26T09:26:14.628Z</time></trkpt><trkpt lat="44.9444521" lon="9.7290944"><ele>108.60000000000001</ele><time>2026-04-26T09:26:16.637Z</time></trkpt><trkpt lat="44.9444784" lon="9.7289569"><ele>108.4</ele><time>2026-04-26T09:26:18.63Z</time></trkpt><trkpt lat="44.944496" lon="9.7288265"><ele>108.2</ele><time>2026-04-26T09:26:20.635Z</time></trkpt><trkpt lat="44.9445166" lon="9.7286944"><ele>108.0</ele><time>2026-04-26T09:26:22.639Z</time></trkpt><trkpt lat="44.9445387" lon="9.7285635"><ele>108.0</ele><time>2026-04-26T09:26:24.63Z</time></trkpt><trkpt lat="44.9445617" lon="9.7284454"><ele>108.0</ele><time>2026-04-26T09:26:26.624Z</time></trkpt><trkpt lat="44.9445811" lon="9.7283192"><ele>108.0</ele><time>2026-04-26T09:26:28.626Z</time></trkpt><trkpt lat="44.9446043" lon="9.7281937"><ele>108.0</ele><time>2026-04-26T09:26:30.641Z</time></trkpt><trkpt lat="44.9446267" lon="9.728077"><ele>108.0</ele><time>2026-04-26T09:26:32.625Z</time></trkpt><trkpt lat="44.9446489" lon="9.7279558"><ele>108.0</ele><time>2026-04-26T09:26:34.626Z</time></trkpt><trkpt lat="44.9446716" lon="9.7278211"><ele>108.4</ele><time>2026-04-26T09:26:36.643Z</time></trkpt><trkpt lat="44.9446946" lon="9.7276865"><ele>108.80000000000001</ele><time>2026-04-26T09:26:38.627Z</time></trkpt><trkpt lat="44.9447154" lon="9.7275525"><ele>109.2</ele><time>2026-04-26T09:26:40.633Z</time></trkpt><trkpt lat="44.9447404" lon="9.7274247"><ele>109.6</ele><time>2026-04-26T09:26:42.631Z</time></trkpt><trkpt lat="44.9447678" lon="9.7273072"><ele>110.0</ele><time>2026-04-26T09:26:44.612Z</time></trkpt><trkpt lat="44.9447882" lon="9.727173"><ele>110.0</ele><time>2026-04-26T09:26:46.624Z</time></trkpt><trkpt lat="44.9448078" lon="9.7270374"><ele>110.0</ele><time>2026-04-26T09:26:48.632Z</time></trkpt><trkpt lat="44.9448309" lon="9.7269118"><ele>110.0</ele><time>2026-04-26T09:26:50.623Z</time></trkpt><trkpt lat="44.9448557" lon="9.7267852"><ele>110.0</ele><time>2026-04-26T09:26:52.63Z</time></trkpt><trkpt lat="44.944879" lon="9.7266671"><ele>110.0</ele><time>2026-04-26T09:26:54.627Z</time></trkpt><trkpt lat="44.9449043" lon="9.7265449"><ele>110.2</ele><time>2026-04-26T09:26:56.632Z</time></trkpt><trkpt lat="44.9449332" lon="9.7264241"><ele>110.4</ele><time>2026-04-26T09:26:58.628Z</time></trkpt><trkpt lat="44.944951" lon="9.7263065"><ele>110.6</ele><time>2026-04-26T09:27:00.628Z</time></trkpt><trkpt lat="44.9449148" lon="9.726192"><ele>110.8</ele><time>2026-04-26T09:27:02.633Z</time></trkpt><trkpt lat="44.9448405" lon="9.7261172"><ele>111.0</ele><time>2026-04-26T09:27:04.629Z</time></trkpt><trkpt lat="44.9447586" lon="9.7260359"><ele>111.0</ele><time>2026-04-26T09:27:06.628Z</time></trkpt><trkpt lat="44.9446827" lon="9.7259446"><ele>111.0</ele><time>2026-04-26T09:27:08.63Z</time></trkpt><trkpt lat="44.9446111" lon="9.725856"><ele>111.0</ele><time>2026-04-26T09:27:10.636Z</time></trkpt><trkpt lat="44.9445475" lon="9.7257651"><ele>111.0</ele><time>2026-04-26T09:27:12.621Z</time></trkpt><trkpt lat="44.9445315" lon="9.7256519"><ele>111.0</ele><time>2026-04-26T09:27:14.631Z</time></trkpt><trkpt lat="44.9445636" lon="9.7255252"><ele>111.0</ele><time>2026-04-26T09:27:16.62Z</time></trkpt><trkpt lat="44.944612" lon="9.7253986"><ele>111.0</ele><time>2026-04-26T09:27:18.624Z</time></trkpt><trkpt lat="44.9446474" lon="9.72526"><ele>111.0</ele><time>2026-04-26T09:27:20.622Z</time></trkpt><trkpt lat="44.9446761" lon="9.7251231"><ele>111.0</ele><time>2026-04-26T09:27:22.636Z</time></trkpt><trkpt lat="44.9446908" lon="9.7249852"><ele>111.0</ele><time>2026-04-26T09:27:24.63Z</time></trkpt><trkpt lat="44.9447224" lon="9.724866"><ele>111.0</ele><time>2026-04-26T09:27:26.64Z</time></trkpt><trkpt lat="44.9447487" lon="9.7247333"><ele>111.0</ele><time>2026-04-26T09:27:28.63Z</time></trkpt><trkpt lat="44.9447745" lon="9.72461"><ele>111.0</ele><time>2026-04-26T09:27:30.635Z</time></trkpt><trkpt lat="44.9448552" lon="9.7245287"><ele>111.0</ele><time>2026-04-26T09:27:32.621Z</time></trkpt><trkpt lat="44.9449583" lon="9.7245303"><ele>111.0</ele><time>2026-04-26T09:27:34.63Z</time></trkpt><trkpt lat="44.945061" lon="9.7245826"><ele>110.6</ele><time>2026-04-26T09:27:36.632Z</time></trkpt><trkpt lat="44.9451536" lon="9.7246478"><ele>110.19999999999999</ele><time>2026-04-26T09:27:38.621Z</time></trkpt><trkpt lat="44.9452456" lon="9.7247199"><ele>109.80000000000001</ele><time>2026-04-26T09:27:40.627Z</time></trkpt><trkpt lat="44.9453426" lon="9.7247703"><ele>109.4</ele><time>2026-04-26T09:27:42.625Z</time></trkpt><trkpt lat="44.9454363" lon="9.7248535"><ele>109.0</ele><time>2026-04-26T09:27:44.63Z</time></trkpt><trkpt lat="44.9455156" lon="9.7249564"><ele>109.0</ele><time>2026-04-26T09:27:46.634Z</time></trkpt><trkpt lat="44.9455955" lon="9.7250577"><ele>109.0</ele><time>2026-04-26T09:27:48.627Z</time></trkpt><trkpt lat="44.9456799" lon="9.7251417"><ele>109.0</ele><time>2026-04-26T09:27:50.609Z</time></trkpt><trkpt lat="44.9457674" lon="9.7252177"><ele>109.0</ele><time>2026-04-26T09:27:52.632Z</time></trkpt><trkpt lat="44.9458479" lon="9.7252941"><ele>109.0</ele><time>2026-04-26T09:27:54.633Z</time></trkpt><trkpt lat="44.9459289" lon="9.7253534"><ele>109.2</ele><time>2026-04-26T09:27:56.629Z</time></trkpt><trkpt lat="44.9460138" lon="9.725414"><ele>109.4</ele><time>2026-04-26T09:27:58.627Z</time></trkpt><trkpt lat="44.9460999" lon="9.7254654"><ele>109.6</ele><time>2026-04-26T09:28:00.634Z</time></trkpt><trkpt lat="44.9461933" lon="9.7255177"><ele>109.8</ele><time>2026-04-26T09:28:02.634Z</time></trkpt><trkpt lat="44.9463012" lon="9.7255542"><ele>110.0</ele><time>2026-04-26T09:28:04.628Z</time></trkpt><trkpt lat="44.9464064" lon="9.7255832"><ele>110.0</ele><time>2026-04-26T09:28:06.633Z</time></trkpt><trkpt lat="44.946496" lon="9.7255865"><ele>110.0</ele><time>2026-04-26T09:28:08.626Z</time></trkpt><trkpt lat="44.9465837" lon="9.7255887"><ele>110.0</ele><time>2026-04-26T09:28:10.634Z</time></trkpt><trkpt lat="44.9466893" lon="9.7255749"><ele>110.0</ele><time>2026-04-26T09:28:12.617Z</time></trkpt><trkpt lat="44.9467971" lon="9.7255694"><ele>110.0</ele><time>2026-04-26T09:28:14.626Z</time></trkpt><trkpt lat="44.9469009" lon="9.7255611"><ele>109.8</ele><time>2026-04-26T09:28:16.629Z</time></trkpt><trkpt lat="44.9470037" lon="9.7255725"><ele>109.6</ele><time>2026-04-26T09:28:18.646Z</time></trkpt><trkpt lat="44.9471086" lon="9.7255683"><ele>109.4</ele><time>2026-04-26T09:28:20.629Z</time></trkpt><trkpt lat="44.9472106" lon="9.7255765"><ele>109.2</ele><time>2026-04-26T09:28:22.63Z</time></trkpt><trkpt lat="44.9473145" lon="9.725583"><ele>109.0</ele><time>2026-04-26T09:28:24.629Z</time></trkpt><trkpt lat="44.9474187" lon="9.7256002"><ele>109.0</ele><time>2026-04-26T09:28:26.637Z</time></trkpt><trkpt lat="44.9475269" lon="9.7256233"><ele>109.0</ele><time>2026-04-26T09:28:28.633Z</time></trkpt><trkpt lat="44.9476381" lon="9.7256568"><ele>109.0</ele><time>2026-04-26T09:28:30.625Z</time></trkpt><trkpt lat="44.947737" lon="9.7256731"><ele>109.0</ele><time>2026-04-26T09:28:32.624Z</time></trkpt><trkpt lat="44.9478426" lon="9.725688"><ele>109.0</ele><time>2026-04-26T09:28:34.627Z</time></trkpt><trkpt lat="44.9479476" lon="9.7257233"><ele>108.6</ele><time>2026-04-26T09:28:36.626Z</time></trkpt><trkpt lat="44.9480501" lon="9.7257472"><ele>108.2</ele><time>2026-04-26T09:28:38.636Z</time></trkpt><trkpt lat="44.9481514" lon="9.7257756"><ele>107.79999999999998</ele><time>2026-04-26T09:28:40.617Z</time></trkpt><trkpt lat="44.9482526" lon="9.7258034"><ele>107.39999999999999</ele><time>2026-04-26T09:28:42.623Z</time></trkpt><trkpt lat="44.948348" lon="9.7258312"><ele>107.0</ele><time>2026-04-26T09:28:44.621Z</time></trkpt><trkpt lat="44.9484416" lon="9.7258632"><ele>106.83333333333333</ele><time>2026-04-26T09:28:46.633Z</time></trkpt><trkpt lat="44.9485387" lon="9.7258777"><ele>106.66666666666666</ele><time>2026-04-26T09:28:48.62Z</time></trkpt><trkpt lat="44.9486309" lon="9.7258916"><ele>106.5</ele><time>2026-04-26T09:28:50.627Z</time></trkpt><trkpt lat="44.9487067" lon="9.7259149"><ele>106.33333333333334</ele><time>2026-04-26T09:28:52.62Z</time></trkpt><trkpt lat="44.9487746" lon="9.7259235"><ele>106.16666666666667</ele><time>2026-04-26T09:28:54.63Z</time></trkpt><trkpt lat="44.9488422" lon="9.7259187"><ele>106.0</ele><time>2026-04-26T09:28:56.624Z</time></trkpt><trkpt lat="44.9489146" lon="9.7259266"><ele>106.00000000000001</ele><time>2026-04-26T09:28:59.638Z</time></trkpt><trkpt lat="44.9489869" lon="9.7259366"><ele>106.0</ele><time>2026-04-26T09:29:02.629Z</time></trkpt><trkpt lat="44.9490552" lon="9.7259364"><ele>106.0</ele><time>2026-04-26T09:29:04.627Z</time></trkpt><trkpt lat="44.9491427" lon="9.7259407"><ele>106.0</ele><time>2026-04-26T09:29:06.617Z</time></trkpt><trkpt lat="44.9492215" lon="9.7259503"><ele>106.00000000000001</ele><time>2026-04-26T09:29:08.625Z</time></trkpt><trkpt lat="44.9492975" lon="9.7259604"><ele>106.0</ele><time>2026-04-26T09:29:10.612Z</time></trkpt><trkpt lat="44.9493736" lon="9.7259807"><ele>105.66666666666667</ele><time>2026-04-26T09:29:12.627Z</time></trkpt><trkpt lat="44.9494635" lon="9.7259978"><ele>105.33333333333334</ele><time>2026-04-26T09:29:14.637Z</time></trkpt><trkpt lat="44.9495596" lon="9.7260036"><ele>105.0</ele><time>2026-04-26T09:29:16.646Z</time></trkpt><trkpt lat="44.9496573" lon="9.7259995"><ele>104.66666666666666</ele><time>2026-04-26T09:29:18.643Z</time></trkpt><trkpt lat="44.9497405" lon="9.7260063"><ele>104.33333333333333</ele><time>2026-04-26T09:29:20.633Z</time></trkpt><trkpt lat="44.9498197" lon="9.7260248"><ele>104.0</ele><time>2026-04-26T09:29:22.603Z</time></trkpt><trkpt lat="44.9499072" lon="9.7260444"><ele>104.33333333333333</ele><time>2026-04-26T09:29:24.639Z</time></trkpt><trkpt lat="44.9499948" lon="9.7260764"><ele>104.66666666666666</ele><time>2026-04-26T09:29:26.628Z</time></trkpt><trkpt lat="44.9500628" lon="9.7261594"><ele>105.0</ele><time>2026-04-26T09:29:28.626Z</time></trkpt><trkpt lat="44.9501178" lon="9.7262611"><ele>105.33333333333334</ele><time>2026-04-26T09:29:30.633Z</time></trkpt><trkpt lat="44.9501674" lon="9.7263601"><ele>105.66666666666667</ele><time>2026-04-26T09:29:32.642Z</time></trkpt><trkpt lat="44.9502069" lon="9.7264443"><ele>106.0</ele><time>2026-04-26T09:29:34.614Z</time></trkpt><trkpt lat="44.950276" lon="9.7264628"><ele>106.00000000000001</ele><time>2026-04-26T09:29:36.626Z</time></trkpt><trkpt lat="44.9503427" lon="9.726518"><ele>106.0</ele><time>2026-04-26T09:29:39.627Z</time></trkpt><trkpt lat="44.9503942" lon="9.7265786"><ele>106.0</ele><time>2026-04-26T09:29:42.623Z</time></trkpt><trkpt lat="44.9504537" lon="9.726611"><ele>106.0</ele><time>2026-04-26T09:29:45.625Z</time></trkpt><trkpt lat="44.9505221" lon="9.7266538"><ele>106.00000000000001</ele><time>2026-04-26T09:29:48.627Z</time></trkpt><trkpt lat="44.9505987" lon="9.7267421"><ele>106.0</ele><time>2026-04-26T09:29:51.629Z</time></trkpt><trkpt lat="44.9506676" lon="9.726795"><ele>106.0</ele><time>2026-04-26T09:29:54.609Z</time></trkpt><trkpt lat="44.9506943" lon="9.7269002"><ele>106.0</ele><time>2026-04-26T09:29:57.626Z</time></trkpt><trkpt lat="44.9507479" lon="9.7269489"><ele>106.0</ele><time>2026-04-26T09:29:59.628Z</time></trkpt><trkpt lat="44.9508523" lon="9.7270302"><ele>106.0</ele><time>2026-04-26T09:30:01.628Z</time></trkpt><trkpt lat="44.9509433" lon="9.7271125"><ele>106.0</ele><time>2026-04-26T09:30:03.628Z</time></trkpt><trkpt lat="44.9510284" lon="9.7271707"><ele>105.8</ele><time>2026-04-26T09:30:05.637Z</time></trkpt><trkpt lat="44.951119" lon="9.7272291"><ele>105.6</ele><time>2026-04-26T09:30:07.631Z</time></trkpt><trkpt lat="44.9511934" lon="9.7273161"><ele>105.4</ele><time>2026-04-26T09:30:09.618Z</time></trkpt><trkpt lat="44.9512747" lon="9.7274044"><ele>105.2</ele><time>2026-04-26T09:30:11.644Z</time></trkpt><trkpt lat="44.9513457" lon="9.7275088"><ele>105.0</ele><time>2026-04-26T09:30:13.64Z</time></trkpt><trkpt lat="44.9514368" lon="9.7275968"><ele>105.0</ele><time>2026-04-26T09:30:15.615Z</time></trkpt><trkpt lat="44.9515244" lon="9.7276645"><ele>105.0</ele><time>2026-04-26T09:30:17.644Z</time></trkpt><trkpt lat="44.9516105" lon="9.7277054"><ele>105.0</ele><time>2026-04-26T09:30:19.629Z</time></trkpt><trkpt lat="44.9516961" lon="9.7277487"><ele>105.0</ele><time>2026-04-26T09:30:21.629Z</time></trkpt><trkpt lat="44.9517886" lon="9.7278324"><ele>105.0</ele><time>2026-04-26T09:30:23.631Z</time></trkpt><trkpt lat="44.9518892" lon="9.7279002"><ele>105.0</ele><time>2026-04-26T09:30:25.634Z</time></trkpt><trkpt lat="44.951983" lon="9.7279673"><ele>105.0</ele><time>2026-04-26T09:30:27.646Z</time></trkpt><trkpt lat="44.9520825" lon="9.7280222"><ele>105.0</ele><time>2026-04-26T09:30:29.643Z</time></trkpt><trkpt lat="44.9521683" lon="9.7280914"><ele>105.0</ele><time>2026-04-26T09:30:31.634Z</time></trkpt><trkpt lat="44.9522488" lon="9.7281789"><ele>105.0</ele><time>2026-04-26T09:30:33.64Z</time></trkpt><trkpt lat="44.9523346" lon="9.7282622"><ele>105.0</ele><time>2026-04-26T09:30:35.627Z</time></trkpt><trkpt lat="44.9524181" lon="9.7283433"><ele>105.0</ele><time>2026-04-26T09:30:37.627Z</time></trkpt><trkpt lat="44.9525026" lon="9.7284495"><ele>105.0</ele><time>2026-04-26T09:30:39.624Z</time></trkpt><trkpt lat="44.9525744" lon="9.7285534"><ele>105.0</ele><time>2026-04-26T09:30:41.633Z</time></trkpt><trkpt lat="44.9526323" lon="9.7286645"><ele>105.0</ele><time>2026-04-26T09:30:43.639Z</time></trkpt><trkpt lat="44.9526847" lon="9.7287802"><ele>104.5</ele><time>2026-04-26T09:30:45.627Z</time></trkpt><trkpt lat="44.9527311" lon="9.7288908"><ele>104.0</ele><time>2026-04-26T09:30:47.642Z</time></trkpt><trkpt lat="44.9527736" lon="9.7289722"><ele>103.5</ele><time>2026-04-26T09:30:49.632Z</time></trkpt><trkpt lat="44.9528264" lon="9.7290567"><ele>103.0</ele><time>2026-04-26T09:30:52.628Z</time></trkpt><trkpt lat="44.9529004" lon="9.7291386"><ele>102.5</ele><time>2026-04-26T09:30:55.62Z</time></trkpt><trkpt lat="44.9529501" lon="9.7292001"><ele>102.0</ele><time>2026-04-26T09:30:57.597Z</time></trkpt><trkpt lat="44.9530271" lon="9.7292631"><ele>102.0</ele><time>2026-04-26T09:30:59.607Z</time></trkpt><trkpt lat="44.9530958" lon="9.7293555"><ele>102.0</ele><time>2026-04-26T09:31:01.633Z</time></trkpt><trkpt lat="44.9531691" lon="9.7294369"><ele>102.0</ele><time>2026-04-26T09:31:03.635Z</time></trkpt><trkpt lat="44.9532539" lon="9.7294976"><ele>102.0</ele><time>2026-04-26T09:31:05.634Z</time></trkpt><trkpt lat="44.9533541" lon="9.7295384"><ele>102.0</ele><time>2026-04-26T09:31:07.628Z</time></trkpt><trkpt lat="44.9534622" lon="9.729541"><ele>102.19999999999999</ele><time>2026-04-26T09:31:09.637Z</time></trkpt><trkpt lat="44.9535656" lon="9.7295856"><ele>102.4</ele><time>2026-04-26T09:31:11.631Z</time></trkpt><trkpt lat="44.9536648" lon="9.7296625"><ele>102.6</ele><time>2026-04-26T09:31:13.62Z</time></trkpt><trkpt lat="44.9537484" lon="9.7297425"><ele>102.80000000000001</ele><time>2026-04-26T09:31:15.627Z</time></trkpt><trkpt lat="44.9538468" lon="9.7298064"><ele>103.0</ele><time>2026-04-26T09:31:17.642Z</time></trkpt><trkpt lat="44.9539263" lon="9.7298775"><ele>103.0</ele><time>2026-04-26T09:31:19.625Z</time></trkpt><trkpt lat="44.9539971" lon="9.729968"><ele>103.0</ele><time>2026-04-26T09:31:21.63Z</time></trkpt><trkpt lat="44.9540884" lon="9.7300405"><ele>103.0</ele><time>2026-04-26T09:31:23.624Z</time></trkpt><trkpt lat="44.954183" lon="9.7300886"><ele>103.0</ele><time>2026-04-26T09:31:25.626Z</time></trkpt><trkpt lat="44.9542801" lon="9.7301232"><ele>103.0</ele><time>2026-04-26T09:31:27.63Z</time></trkpt><trkpt lat="44.9543841" lon="9.7301685"><ele>102.80000000000001</ele><time>2026-04-26T09:31:29.636Z</time></trkpt><trkpt lat="44.9544872" lon="9.7302225"><ele>102.6</ele><time>2026-04-26T09:31:31.639Z</time></trkpt><trkpt lat="44.9545975" lon="9.7302611"><ele>102.4</ele><time>2026-04-26T09:31:33.598Z</time></trkpt><trkpt lat="44.9547104" lon="9.7303056"><ele>102.19999999999999</ele><time>2026-04-26T09:31:35.595Z</time></trkpt><trkpt lat="44.9548131" lon="9.7303507"><ele>102.0</ele><time>2026-04-26T09:31:37.638Z</time></trkpt><trkpt lat="44.9548966" lon="9.7304347"><ele>101.8</ele><time>2026-04-26T09:31:39.628Z</time></trkpt><trkpt lat="44.9549576" lon="9.7305535"><ele>101.6</ele><time>2026-04-26T09:31:41.644Z</time></trkpt><trkpt lat="44.9550145" lon="9.7306661"><ele>101.39999999999999</ele><time>2026-04-26T09:31:43.623Z</time></trkpt><trkpt lat="44.9550716" lon="9.7307666"><ele>101.19999999999999</ele><time>2026-04-26T09:31:45.641Z</time></trkpt><trkpt lat="44.9551429" lon="9.7308853"><ele>101.0</ele><time>2026-04-26T09:31:47.636Z</time></trkpt><trkpt lat="44.9552113" lon="9.731009"><ele>101.19999999999999</ele><time>2026-04-26T09:31:49.63Z</time></trkpt><trkpt lat="44.9552804" lon="9.7311245"><ele>101.39999999999999</ele><time>2026-04-26T09:31:51.628Z</time></trkpt><trkpt lat="44.9553483" lon="9.7312362"><ele>101.6</ele><time>2026-04-26T09:31:53.631Z</time></trkpt><trkpt lat="44.9554129" lon="9.7313434"><ele>101.8</ele><time>2026-04-26T09:31:55.617Z</time></trkpt><trkpt lat="44.9554801" lon="9.7314383"><ele>102.0</ele><time>2026-04-26T09:31:57.633Z</time></trkpt><trkpt lat="44.9555613" lon="9.7315086"><ele>102.0</ele><time>2026-04-26T09:31:59.637Z</time></trkpt><trkpt lat="44.9556305" lon="9.7315218"><ele>102.0</ele><time>2026-04-26T09:32:01.623Z</time></trkpt><trkpt lat="44.9557376" lon="9.7314438"><ele>102.0</ele><time>2026-04-26T09:32:03.624Z</time></trkpt><trkpt lat="44.9557946" lon="9.7313984"><ele>102.0</ele><time>2026-04-26T09:32:04.63Z</time></trkpt><trkpt lat="44.9558586" lon="9.7313983"><ele>102.0</ele><time>2026-04-26T09:32:05.646Z</time></trkpt><trkpt lat="44.9559239" lon="9.7314065"><ele>102.0</ele><time>2026-04-26T09:32:06.637Z</time></trkpt><trkpt lat="44.9560319" lon="9.7313929"><ele>101.8</ele><time>2026-04-26T09:32:08.622Z</time></trkpt><trkpt lat="44.9561411" lon="9.7314102"><ele>101.6</ele><time>2026-04-26T09:32:10.617Z</time></trkpt><trkpt lat="44.956248" lon="9.7314317"><ele>101.39999999999999</ele><time>2026-04-26T09:32:12.627Z</time></trkpt><trkpt lat="44.9563499" lon="9.7314349"><ele>101.19999999999999</ele><time>2026-04-26T09:32:14.613Z</time></trkpt><trkpt lat="44.9564445" lon="9.7314559"><ele>101.0</ele><time>2026-04-26T09:32:16.629Z</time></trkpt><trkpt lat="44.9565146" lon="9.7315175"><ele>100.99999999999999</ele><time>2026-04-26T09:32:18.629Z</time></trkpt><trkpt lat="44.9565537" lon="9.7316011"><ele>101.0</ele><time>2026-04-26T09:32:29.636Z</time></trkpt><trkpt lat="44.9566141" lon="9.7316552"><ele>101.0</ele><time>2026-04-26T09:32:36.63Z</time></trkpt><trkpt lat="44.9566887" lon="9.7316129"><ele>101.0</ele><time>2026-04-26T09:32:40.631Z</time></trkpt><trkpt lat="44.956776" lon="9.7316001"><ele>100.99999999999999</ele><time>2026-04-26T09:32:43.606Z</time></trkpt><trkpt lat="44.9568647" lon="9.7316414"><ele>101.0</ele><time>2026-04-26T09:32:46.634Z</time></trkpt><trkpt lat="44.9569283" lon="9.7316735"><ele>100.66666666666666</ele><time>2026-04-26T09:32:48.632Z</time></trkpt><trkpt lat="44.9570083" lon="9.7317424"><ele>100.33333333333333</ele><time>2026-04-26T09:32:51.625Z</time></trkpt><trkpt lat="44.9570935" lon="9.7317947"><ele>100.0</ele><time>2026-04-26T09:32:54.635Z</time></trkpt><trkpt lat="44.9571711" lon="9.7318377"><ele>99.66666666666666</ele><time>2026-04-26T09:32:57.63Z</time></trkpt><trkpt lat="44.9572391" lon="9.731848"><ele>99.33333333333333</ele><time>2026-04-26T09:33:00.617Z</time></trkpt><trkpt lat="44.9573083" lon="9.7318605"><ele>99.0</ele><time>2026-04-26T09:33:03.632Z</time></trkpt><trkpt lat="44.9573735" lon="9.7318791"><ele>99.0</ele><time>2026-04-26T09:33:06.623Z</time></trkpt><trkpt lat="44.9574415" lon="9.7319156"><ele>99.0</ele><time>2026-04-26T09:33:11.639Z</time></trkpt><trkpt lat="44.9575069" lon="9.7319044"><ele>99.0</ele><time>2026-04-26T09:33:24.624Z</time></trkpt><trkpt lat="44.957587" lon="9.7318648"><ele>99.0</ele><time>2026-04-26T09:33:28.63Z</time></trkpt><trkpt lat="44.9576706" lon="9.7318886"><ele>99.0</ele><time>2026-04-26T09:33:31.625Z</time></trkpt><trkpt lat="44.9577306" lon="9.7319184"><ele>99.0</ele><time>2026-04-26T09:33:33.633Z</time></trkpt><trkpt lat="44.9577901" lon="9.7319658"><ele>99.0</ele><time>2026-04-26T09:33:35.634Z</time></trkpt><trkpt lat="44.9578742" lon="9.7320088"><ele>99.0</ele><time>2026-04-26T09:33:37.627Z</time></trkpt><trkpt lat="44.9579566" lon="9.7320441"><ele>99.0</ele><time>2026-04-26T09:33:39.629Z</time></trkpt><trkpt lat="44.9580365" lon="9.732099"><ele>99.0</ele><time>2026-04-26T09:33:41.625Z</time></trkpt><trkpt lat="44.958069" lon="9.7321887"><ele>99.0</ele><time>2026-04-26T09:33:43.622Z</time></trkpt><trkpt lat="44.9581008" lon="9.7322714"><ele>99.0</ele><time>2026-04-26T09:33:45.634Z</time></trkpt><trkpt lat="44.9581388" lon="9.7323552"><ele>99.0</ele><time>2026-04-26T09:33:47.623Z</time></trkpt><trkpt lat="44.9581573" lon="9.7324715"><ele>99.0</ele><time>2026-04-26T09:33:49.632Z</time></trkpt><trkpt lat="44.9581315" lon="9.7325849"><ele>99.0</ele><time>2026-04-26T09:33:51.628Z</time></trkpt><trkpt lat="44.9581111" lon="9.7326857"><ele>99.0</ele><time>2026-04-26T09:33:53.634Z</time></trkpt><trkpt lat="44.9580998" lon="9.7327904"><ele>99.0</ele><time>2026-04-26T09:33:55.624Z</time></trkpt><trkpt lat="44.958067" lon="9.732907"><ele>99.0</ele><time>2026-04-26T09:33:57.621Z</time></trkpt><trkpt lat="44.9580406" lon="9.7330135"><ele>99.0</ele><time>2026-04-26T09:33:59.633Z</time></trkpt><trkpt lat="44.9580067" lon="9.7331276"><ele>99.0</ele><time>2026-04-26T09:34:01.624Z</time></trkpt><trkpt lat="44.9579703" lon="9.7332623"><ele>99.0</ele><time>2026-04-26T09:34:03.609Z</time></trkpt><trkpt lat="44.957941" lon="9.733381"><ele>99.0</ele><time>2026-04-26T09:34:05.621Z</time></trkpt><trkpt lat="44.9579069" lon="9.7335096"><ele>99.0</ele><time>2026-04-26T09:34:07.639Z</time></trkpt><trkpt lat="44.9578792" lon="9.7336176"><ele>99.0</ele><time>2026-04-26T09:34:09.622Z</time></trkpt><trkpt lat="44.9578544" lon="9.733737"><ele>98.83333333333333</ele><time>2026-04-26T09:34:11.614Z</time></trkpt><trkpt lat="44.9578119" lon="9.7338549"><ele>98.66666666666666</ele><time>2026-04-26T09:34:13.626Z</time></trkpt><trkpt lat="44.9577743" lon="9.7339555"><ele>98.5</ele><time>2026-04-26T09:34:15.627Z</time></trkpt><trkpt lat="44.9577458" lon="9.7340554"><ele>98.33333333333333</ele><time>2026-04-26T09:34:17.639Z</time></trkpt><trkpt lat="44.9577204" lon="9.7341585"><ele>98.16666666666666</ele><time>2026-04-26T09:34:19.624Z</time></trkpt><trkpt lat="44.9576905" lon="9.7342751"><ele>98.0</ele><time>2026-04-26T09:34:21.627Z</time></trkpt><trkpt lat="44.9576583" lon="9.7343734"><ele>98.0</ele><time>2026-04-26T09:34:23.631Z</time></trkpt><trkpt lat="44.9576241" lon="9.7344797"><ele>98.0</ele><time>2026-04-26T09:34:25.618Z</time></trkpt><trkpt lat="44.9575872" lon="9.7346064"><ele>98.0</ele><time>2026-04-26T09:34:27.636Z</time></trkpt><trkpt lat="44.9575515" lon="9.7347252"><ele>98.0</ele><time>2026-04-26T09:34:29.632Z</time></trkpt><trkpt lat="44.9575201" lon="9.7348366"><ele>98.0</ele><time>2026-04-26T09:34:31.625Z</time></trkpt><trkpt lat="44.9574789" lon="9.7349659"><ele>99.0</ele><time>2026-04-26T09:34:33.641Z</time></trkpt><trkpt lat="44.9574519" lon="9.735087"><ele>100.0</ele><time>2026-04-26T09:34:35.631Z</time></trkpt><trkpt lat="44.9574203" lon="9.7352088"><ele>101.0</ele><time>2026-04-26T09:34:37.636Z</time></trkpt><trkpt lat="44.9573876" lon="9.7353269"><ele>102.0</ele><time>2026-04-26T09:34:39.628Z</time></trkpt><trkpt lat="44.9573539" lon="9.7354532"><ele>103.0</ele><time>2026-04-26T09:34:41.611Z</time></trkpt><trkpt lat="44.9573187" lon="9.735582"><ele>103.00000000000001</ele><time>2026-04-26T09:34:43.625Z</time></trkpt><trkpt lat="44.9572877" lon="9.7357119"><ele>103.0</ele><time>2026-04-26T09:34:45.623Z</time></trkpt><trkpt lat="44.9572575" lon="9.7358341"><ele>103.0</ele><time>2026-04-26T09:34:47.636Z</time></trkpt><trkpt lat="44.9572147" lon="9.735947"><ele>103.0</ele><time>2026-04-26T09:34:49.636Z</time></trkpt><trkpt lat="44.9571818" lon="9.7360508"><ele>103.00000000000001</ele><time>2026-04-26T09:34:51.633Z</time></trkpt><trkpt lat="44.957152" lon="9.7361524"><ele>103.0</ele><time>2026-04-26T09:34:53.63Z</time></trkpt><trkpt lat="44.9571119" lon="9.7362741"><ele>102.80000000000001</ele><time>2026-04-26T09:34:55.615Z</time></trkpt><trkpt lat="44.9570677" lon="9.7364021"><ele>102.6</ele><time>2026-04-26T09:34:57.634Z</time></trkpt><trkpt lat="44.9570313" lon="9.7365362"><ele>102.4</ele><time>2026-04-26T09:34:59.629Z</time></trkpt><trkpt lat="44.9569973" lon="9.7366661"><ele>102.19999999999999</ele><time>2026-04-26T09:35:01.624Z</time></trkpt><trkpt lat="44.9569677" lon="9.7367955"><ele>102.0</ele><time>2026-04-26T09:35:03.623Z</time></trkpt><trkpt lat="44.9569396" lon="9.7369222"><ele>102.0</ele><time>2026-04-26T09:35:05.631Z</time></trkpt><trkpt lat="44.9569127" lon="9.7370237"><ele>102.0</ele><time>2026-04-26T09:35:08.627Z</time></trkpt><trkpt lat="44.9568714" lon="9.7371328"><ele>102.0</ele><time>2026-04-26T09:35:12.624Z</time></trkpt><trkpt lat="44.956848" lon="9.7372217"><ele>102.0</ele><time>2026-04-26T09:35:14.605Z</time></trkpt><trkpt lat="44.9568171" lon="9.7373683"><ele>102.0</ele><time>2026-04-26T09:35:16.635Z</time></trkpt><trkpt lat="44.9567986" lon="9.7374956"><ele>102.0</ele><time>2026-04-26T09:35:18.636Z</time></trkpt><trkpt lat="44.9567822" lon="9.7376111"><ele>102.0</ele><time>2026-04-26T09:35:20.631Z</time></trkpt><trkpt lat="44.9567695" lon="9.7377369"><ele>102.0</ele><time>2026-04-26T09:35:22.63Z</time></trkpt><trkpt lat="44.9567565" lon="9.7378597"><ele>102.0</ele><time>2026-04-26T09:35:24.641Z</time></trkpt><trkpt lat="44.9567421" lon="9.7379711"><ele>102.0</ele><time>2026-04-26T09:35:26.632Z</time></trkpt><trkpt lat="44.9567391" lon="9.7380752"><ele>102.0</ele><time>2026-04-26T09:35:28.631Z</time></trkpt><trkpt lat="44.9567377" lon="9.7381767"><ele>102.0</ele><time>2026-04-26T09:35:30.632Z</time></trkpt><trkpt lat="44.9567345" lon="9.7382798"><ele>102.0</ele><time>2026-04-26T09:35:32.623Z</time></trkpt><trkpt lat="44.956731" lon="9.7383783"><ele>102.0</ele><time>2026-04-26T09:35:35.634Z</time></trkpt><trkpt lat="44.9567276" lon="9.7384806"><ele>102.0</ele><time>2026-04-26T09:36:01.648Z</time></trkpt><trkpt lat="44.9567254" lon="9.7385857"><ele>102.0</ele><time>2026-04-26T09:36:04.639Z</time></trkpt><trkpt lat="44.9567139" lon="9.7387119"><ele>102.0</ele><time>2026-04-26T09:36:06.625Z</time></trkpt><trkpt lat="44.956728" lon="9.7388392"><ele>102.0</ele><time>2026-04-26T09:36:08.61Z</time></trkpt><trkpt lat="44.9567169" lon="9.7389668"><ele>101.6</ele><time>2026-04-26T09:36:10.631Z</time></trkpt><trkpt lat="44.9567164" lon="9.7390957"><ele>101.19999999999999</ele><time>2026-04-26T09:36:12.636Z</time></trkpt><trkpt lat="44.9567235" lon="9.7392346"><ele>100.8</ele><time>2026-04-26T09:36:14.623Z</time></trkpt><trkpt lat="44.9567215" lon="9.7393694"><ele>100.4</ele><time>2026-04-26T09:36:16.634Z</time></trkpt><trkpt lat="44.9567157" lon="9.7394966"><ele>100.0</ele><time>2026-04-26T09:36:18.635Z</time></trkpt><trkpt lat="44.9567178" lon="9.7396282"><ele>99.8</ele><time>2026-04-26T09:36:20.643Z</time></trkpt><trkpt lat="44.9567258" lon="9.7397631"><ele>99.6</ele><time>2026-04-26T09:36:22.631Z</time></trkpt><trkpt lat="44.9567282" lon="9.7399015"><ele>99.4</ele><time>2026-04-26T09:36:24.641Z</time></trkpt><trkpt lat="44.956723" lon="9.7400372"><ele>99.2</ele><time>2026-04-26T09:36:26.63Z</time></trkpt><trkpt lat="44.9567318" lon="9.7401785"><ele>99.0</ele><time>2026-04-26T09:36:28.635Z</time></trkpt><trkpt lat="44.9567301" lon="9.7403193"><ele>99.0</ele><time>2026-04-26T09:36:30.637Z</time></trkpt><trkpt lat="44.9567403" lon="9.7404395"><ele>99.0</ele><time>2026-04-26T09:36:32.626Z</time></trkpt><trkpt lat="44.956751" lon="9.7405713"><ele>99.0</ele><time>2026-04-26T09:36:34.611Z</time></trkpt><trkpt lat="44.9567816" lon="9.740685"><ele>99.0</ele><time>2026-04-26T09:36:36.632Z</time></trkpt><trkpt lat="44.9568231" lon="9.7407927"><ele>99.0</ele><time>2026-04-26T09:36:38.626Z</time></trkpt><trkpt lat="44.9568831" lon="9.7409069"><ele>99.0</ele><time>2026-04-26T09:36:40.631Z</time></trkpt><trkpt lat="44.9569481" lon="9.7410178"><ele>99.0</ele><time>2026-04-26T09:36:42.635Z</time></trkpt><trkpt lat="44.9570194" lon="9.7411247"><ele>99.0</ele><time>2026-04-26T09:36:44.637Z</time></trkpt><trkpt lat="44.9570866" lon="9.741241"><ele>99.0</ele><time>2026-04-26T09:36:46.623Z</time></trkpt><trkpt lat="44.9571525" lon="9.7413438"><ele>99.0</ele><time>2026-04-26T09:36:48.635Z</time></trkpt><trkpt lat="44.9572161" lon="9.7414528"><ele>98.80000000000001</ele><time>2026-04-26T09:36:50.633Z</time></trkpt><trkpt lat="44.9572784" lon="9.741568"><ele>98.60000000000001</ele><time>2026-04-26T09:36:52.628Z</time></trkpt><trkpt lat="44.9573462" lon="9.7416605"><ele>98.4</ele><time>2026-04-26T09:36:54.645Z</time></trkpt><trkpt lat="44.9574144" lon="9.7417639"><ele>98.2</ele><time>2026-04-26T09:36:56.632Z</time></trkpt><trkpt lat="44.9574868" lon="9.7418753"><ele>98.0</ele><time>2026-04-26T09:36:58.635Z</time></trkpt><trkpt lat="44.9575637" lon="9.7420005"><ele>98.0</ele><time>2026-04-26T09:37:00.633Z</time></trkpt><trkpt lat="44.957639" lon="9.7421189"><ele>98.0</ele><time>2026-04-26T09:37:02.631Z</time></trkpt><trkpt lat="44.9577149" lon="9.7422422"><ele>98.0</ele><time>2026-04-26T09:37:04.635Z</time></trkpt><trkpt lat="44.9577977" lon="9.7423555"><ele>98.0</ele><time>2026-04-26T09:37:06.628Z</time></trkpt><trkpt lat="44.9578709" lon="9.7424849"><ele>97.99999999999999</ele><time>2026-04-26T09:37:08.619Z</time></trkpt><trkpt lat="44.9579492" lon="9.742615"><ele>98.0</ele><time>2026-04-26T09:37:10.634Z</time></trkpt><trkpt lat="44.957992" lon="9.7426825"><ele>98.0</ele><time>2026-04-26T09:37:11.627Z</time></trkpt><trkpt lat="44.9580356" lon="9.742748"><ele>98.0</ele><time>2026-04-26T09:37:12.62Z</time></trkpt><trkpt lat="44.9581109" lon="9.7428873"><ele>97.99999999999999</ele><time>2026-04-26T09:37:14.629Z</time></trkpt><trkpt lat="44.958148" lon="9.7429607"><ele>98.0</ele><time>2026-04-26T09:37:15.633Z</time></trkpt><trkpt lat="44.9582143" lon="9.7431034"><ele>97.5</ele><time>2026-04-26T09:37:17.627Z</time></trkpt><trkpt lat="44.9582708" lon="9.7432374"><ele>97.0</ele><time>2026-04-26T09:37:19.631Z</time></trkpt><trkpt lat="44.9583338" lon="9.7433743"><ele>96.5</ele><time>2026-04-26T09:37:21.628Z</time></trkpt><trkpt lat="44.9583938" lon="9.7435258"><ele>96.0</ele><time>2026-04-26T09:37:23.625Z</time></trkpt><trkpt lat="44.958451" lon="9.7436665"><ele>96.0</ele><time>2026-04-26T09:37:25.632Z</time></trkpt><trkpt lat="44.9585104" lon="9.7438184"><ele>96.0</ele><time>2026-04-26T09:37:27.627Z</time></trkpt><trkpt lat="44.9585709" lon="9.7439655"><ele>96.0</ele><time>2026-04-26T09:37:29.644Z</time></trkpt><trkpt lat="44.9586309" lon="9.744111"><ele>96.0</ele><time>2026-04-26T09:37:31.633Z</time></trkpt><trkpt lat="44.958697" lon="9.7442562"><ele>96.0</ele><time>2026-04-26T09:37:33.637Z</time></trkpt><trkpt lat="44.9587573" lon="9.7444068"><ele>96.0</ele><time>2026-04-26T09:37:35.633Z</time></trkpt><trkpt lat="44.9588229" lon="9.7445541"><ele>96.0</ele><time>2026-04-26T09:37:37.635Z</time></trkpt><trkpt lat="44.9588803" lon="9.7447085"><ele>96.0</ele><time>2026-04-26T09:37:39.63Z</time></trkpt><trkpt lat="44.9589336" lon="9.7448637"><ele>96.0</ele><time>2026-04-26T09:37:41.645Z</time></trkpt><trkpt lat="44.9589941" lon="9.7450117"><ele>96.0</ele><time>2026-04-26T09:37:43.629Z</time></trkpt><trkpt lat="44.9590592" lon="9.7451476"><ele>96.0</ele><time>2026-04-26T09:37:45.632Z</time></trkpt><trkpt lat="44.9591194" lon="9.7452997"><ele>96.0</ele><time>2026-04-26T09:37:47.625Z</time></trkpt><trkpt lat="44.9591526" lon="9.7453775"><ele>96.0</ele><time>2026-04-26T09:37:48.626Z</time></trkpt><trkpt lat="44.9592156" lon="9.7455264"><ele>96.0</ele><time>2026-04-26T09:37:50.64Z</time></trkpt><trkpt lat="44.959264" lon="9.7456764"><ele>96.0</ele><time>2026-04-26T09:37:52.637Z</time></trkpt><trkpt lat="44.9593145" lon="9.7458389"><ele>96.0</ele><time>2026-04-26T09:37:54.635Z</time></trkpt><trkpt lat="44.9593495" lon="9.7460037"><ele>96.0</ele><time>2026-04-26T09:37:56.629Z</time></trkpt><trkpt lat="44.9593641" lon="9.7460995"><ele>96.0</ele><time>2026-04-26T09:37:57.635Z</time></trkpt><trkpt lat="44.9593766" lon="9.7461881"><ele>95.66666666666667</ele><time>2026-04-26T09:37:58.628Z</time></trkpt><trkpt lat="44.9593873" lon="9.7463614"><ele>95.33333333333333</ele><time>2026-04-26T09:38:00.632Z</time></trkpt><trkpt lat="44.9593901" lon="9.7464533"><ele>95.0</ele><time>2026-04-26T09:38:01.621Z</time></trkpt><trkpt lat="44.9593946" lon="9.7465454"><ele>94.66666666666666</ele><time>2026-04-26T09:38:02.63Z</time></trkpt><trkpt lat="44.9593991" lon="9.7466383"><ele>94.33333333333333</ele><time>2026-04-26T09:38:03.63Z</time></trkpt><trkpt lat="44.9594065" lon="9.746815"><ele>94.0</ele><time>2026-04-26T09:38:05.636Z</time></trkpt><trkpt lat="44.9594094" lon="9.7469068"><ele>94.0</ele><time>2026-04-26T09:38:06.641Z</time></trkpt><trkpt lat="44.9594131" lon="9.7470872"><ele>94.0</ele><time>2026-04-26T09:38:08.604Z</time></trkpt><trkpt lat="44.9594114" lon="9.7472644"><ele>94.0</ele><time>2026-04-26T09:38:10.637Z</time></trkpt><trkpt lat="44.9594154" lon="9.7474453"><ele>94.0</ele><time>2026-04-26T09:38:12.633Z</time></trkpt><trkpt lat="44.9594178" lon="9.7476207"><ele>93.6</ele><time>2026-04-26T09:38:14.633Z</time></trkpt><trkpt lat="44.9594181" lon="9.7477148"><ele>93.2</ele><time>2026-04-26T09:38:15.626Z</time></trkpt><trkpt lat="44.9594136" lon="9.7478893"><ele>92.8</ele><time>2026-04-26T09:38:17.624Z</time></trkpt><trkpt lat="44.9594118" lon="9.7480602"><ele>92.39999999999999</ele><time>2026-04-26T09:38:19.64Z</time></trkpt><trkpt lat="44.9594114" lon="9.7482382"><ele>92.0</ele><time>2026-04-26T09:38:21.632Z</time></trkpt><trkpt lat="44.9594102" lon="9.7483292"><ele>92.0</ele><time>2026-04-26T09:38:22.629Z</time></trkpt><trkpt lat="44.9594129" lon="9.74851"><ele>92.0</ele><time>2026-04-26T09:38:24.639Z</time></trkpt><trkpt lat="44.9594172" lon="9.7486016"><ele>92.0</ele><time>2026-04-26T09:38:25.63Z</time></trkpt><trkpt lat="44.959423" lon="9.7486908"><ele>92.0</ele><time>2026-04-26T09:38:26.629Z</time></trkpt><trkpt lat="44.9594219" lon="9.7488668"><ele>92.0</ele><time>2026-04-26T09:38:28.626Z</time></trkpt><trkpt lat="44.9594155" lon="9.749039"><ele>91.5</ele><time>2026-04-26T09:38:30.621Z</time></trkpt><trkpt lat="44.9594168" lon="9.7492143"><ele>91.0</ele><time>2026-04-26T09:38:32.646Z</time></trkpt><trkpt lat="44.9594204" lon="9.7493858"><ele>90.5</ele><time>2026-04-26T09:38:34.636Z</time></trkpt><trkpt lat="44.959419" lon="9.7495563"><ele>90.0</ele><time>2026-04-26T09:38:36.629Z</time></trkpt><trkpt lat="44.9594031" lon="9.7497254"><ele>90.0</ele><time>2026-04-26T09:38:38.637Z</time></trkpt><trkpt lat="44.9593901" lon="9.7498174"><ele>90.0</ele><time>2026-04-26T09:38:39.633Z</time></trkpt><trkpt lat="44.9593823" lon="9.7499105"><ele>90.0</ele><time>2026-04-26T09:38:40.641Z</time></trkpt><trkpt lat="44.9593737" lon="9.7500012"><ele>90.0</ele><time>2026-04-26T09:38:41.625Z</time></trkpt><trkpt lat="44.9593494" lon="9.7501733"><ele>90.0</ele><time>2026-04-26T09:38:43.627Z</time></trkpt><trkpt lat="44.9593405" lon="9.7502615"><ele>90.0</ele><time>2026-04-26T09:38:44.633Z</time></trkpt><trkpt lat="44.9593328" lon="9.7503508"><ele>90.0</ele><time>2026-04-26T09:38:45.628Z</time></trkpt><trkpt lat="44.9593241" lon="9.7504412"><ele>90.2</ele><time>2026-04-26T09:38:46.625Z</time></trkpt><trkpt lat="44.9593114" lon="9.7505326"><ele>90.4</ele><time>2026-04-26T09:38:47.626Z</time></trkpt><trkpt lat="44.9592971" lon="9.7507021"><ele>90.6</ele><time>2026-04-26T09:38:49.637Z</time></trkpt><trkpt lat="44.9592766" lon="9.7508786"><ele>90.8</ele><time>2026-04-26T09:38:51.638Z</time></trkpt><trkpt lat="44.9592658" lon="9.7509669"><ele>91.0</ele><time>2026-04-26T09:38:52.633Z</time></trkpt><trkpt lat="44.9592443" lon="9.7511454"><ele>91.0</ele><time>2026-04-26T09:38:54.637Z</time></trkpt><trkpt lat="44.9592207" lon="9.7513207"><ele>91.0</ele><time>2026-04-26T09:38:56.641Z</time></trkpt><trkpt lat="44.959205" lon="9.7514117"><ele>91.0</ele><time>2026-04-26T09:38:57.638Z</time></trkpt><trkpt lat="44.9591869" lon="9.7514997"><ele>91.0</ele><time>2026-04-26T09:38:58.631Z</time></trkpt><trkpt lat="44.9591683" lon="9.7515878"><ele>91.0</ele><time>2026-04-26T09:38:59.634Z</time></trkpt><trkpt lat="44.9591513" lon="9.7516737"><ele>91.0</ele><time>2026-04-26T09:39:00.609Z</time></trkpt><trkpt lat="44.9591369" lon="9.7517631"><ele>90.85714285714286</ele><time>2026-04-26T09:39:01.631Z</time></trkpt><trkpt lat="44.959122" lon="9.7518537"><ele>90.71428571428572</ele><time>2026-04-26T09:39:02.636Z</time></trkpt><trkpt lat="44.959109" lon="9.7519442"><ele>90.57142857142857</ele><time>2026-04-26T09:39:03.64Z</time></trkpt><trkpt lat="44.9590984" lon="9.7520406"><ele>90.42857142857143</ele><time>2026-04-26T09:39:04.632Z</time></trkpt><trkpt lat="44.9590876" lon="9.7521423"><ele>90.28571428571429</ele><time>2026-04-26T09:39:05.629Z</time></trkpt><trkpt lat="44.9590774" lon="9.7522432"><ele>90.14285714285714</ele><time>2026-04-26T09:39:06.632Z</time></trkpt><trkpt lat="44.9590653" lon="9.7523484"><ele>90.0</ele><time>2026-04-26T09:39:07.634Z</time></trkpt><trkpt lat="44.959057" lon="9.7524468"><ele>90.0</ele><time>2026-04-26T09:39:08.634Z</time></trkpt><trkpt lat="44.9590519" lon="9.7525446"><ele>90.0</ele><time>2026-04-26T09:39:09.623Z</time></trkpt><trkpt lat="44.9590486" lon="9.7526407"><ele>90.0</ele><time>2026-04-26T09:39:10.64Z</time></trkpt><trkpt lat="44.9590478" lon="9.7527468"><ele>90.0</ele><time>2026-04-26T09:39:11.626Z</time></trkpt><trkpt lat="44.9590534" lon="9.7528515"><ele>90.0</ele><time>2026-04-26T09:39:12.634Z</time></trkpt><trkpt lat="44.9590563" lon="9.7529573"><ele>90.0</ele><time>2026-04-26T09:39:13.638Z</time></trkpt><trkpt lat="44.9590604" lon="9.7530676"><ele>90.0</ele><time>2026-04-26T09:39:14.616Z</time></trkpt><trkpt lat="44.959064" lon="9.7531643"><ele>90.0</ele><time>2026-04-26T09:39:15.625Z</time></trkpt><trkpt lat="44.9590933" lon="9.7533391"><ele>90.0</ele><time>2026-04-26T09:39:17.626Z</time></trkpt><trkpt lat="44.9591379" lon="9.7535083"><ele>90.0</ele><time>2026-04-26T09:39:19.633Z</time></trkpt><trkpt lat="44.9591626" lon="9.7535947"><ele>90.0</ele><time>2026-04-26T09:39:20.642Z</time></trkpt><trkpt lat="44.9592143" lon="9.7537633"><ele>90.0</ele><time>2026-04-26T09:39:22.634Z</time></trkpt><trkpt lat="44.9592405" lon="9.7538467"><ele>90.0</ele><time>2026-04-26T09:39:23.635Z</time></trkpt><trkpt lat="44.9592675" lon="9.7539277"><ele>90.0</ele><time>2026-04-26T09:39:24.641Z</time></trkpt><trkpt lat="44.9593168" lon="9.7540873"><ele>90.0</ele><time>2026-04-26T09:39:26.624Z</time></trkpt><trkpt lat="44.9593707" lon="9.7542412"><ele>90.0</ele><time>2026-04-26T09:39:28.637Z</time></trkpt><trkpt lat="44.959423" lon="9.7543994"><ele>90.28571428571428</ele><time>2026-04-26T09:39:30.631Z</time></trkpt><trkpt lat="44.959471" lon="9.7545626"><ele>90.57142857142858</ele><time>2026-04-26T09:39:32.645Z</time></trkpt><trkpt lat="44.959492" lon="9.7546469"><ele>90.85714285714286</ele><time>2026-04-26T09:39:33.642Z</time></trkpt><trkpt lat="44.9595103" lon="9.7547366"><ele>91.14285714285714</ele><time>2026-04-26T09:39:34.631Z</time></trkpt><trkpt lat="44.9595297" lon="9.7548241"><ele>91.42857142857142</ele><time>2026-04-26T09:39:35.636Z</time></trkpt><trkpt lat="44.959548" lon="9.7549093"><ele>91.71428571428572</ele><time>2026-04-26T09:39:36.63Z</time></trkpt><trkpt lat="44.9595618" lon="9.7550015"><ele>92.0</ele><time>2026-04-26T09:39:37.643Z</time></trkpt><trkpt lat="44.9595729" lon="9.7550917"><ele>92.0</ele><time>2026-04-26T09:39:38.631Z</time></trkpt><trkpt lat="44.9595854" lon="9.7551796"><ele>92.0</ele><time>2026-04-26T09:39:39.637Z</time></trkpt><trkpt lat="44.9595976" lon="9.7552679"><ele>92.0</ele><time>2026-04-26T09:39:40.636Z</time></trkpt><trkpt lat="44.9596177" lon="9.7554368"><ele>92.0</ele><time>2026-04-26T09:39:42.631Z</time></trkpt><trkpt lat="44.9596397" lon="9.7556127"><ele>92.0</ele><time>2026-04-26T09:39:44.635Z</time></trkpt><trkpt lat="44.9596544" lon="9.7557878"><ele>91.66666666666667</ele><time>2026-04-26T09:39:46.618Z</time></trkpt><trkpt lat="44.9596642" lon="9.7558779"><ele>91.33333333333334</ele><time>2026-04-26T09:39:47.641Z</time></trkpt><trkpt lat="44.9596748" lon="9.7559697"><ele>91.0</ele><time>2026-04-26T09:39:48.628Z</time></trkpt><trkpt lat="44.9596831" lon="9.7560615"><ele>90.66666666666667</ele><time>2026-04-26T09:39:49.631Z</time></trkpt><trkpt lat="44.9596939" lon="9.756151"><ele>90.33333333333333</ele><time>2026-04-26T09:39:50.625Z</time></trkpt><trkpt lat="44.9597114" lon="9.7563252"><ele>90.0</ele><time>2026-04-26T09:39:52.635Z</time></trkpt><trkpt lat="44.9597182" lon="9.7564172"><ele>89.85714285714285</ele><time>2026-04-26T09:39:53.63Z</time></trkpt><trkpt lat="44.9597284" lon="9.7565064"><ele>89.71428571428572</ele><time>2026-04-26T09:39:54.641Z</time></trkpt><trkpt lat="44.9597436" lon="9.7566779"><ele>89.57142857142857</ele><time>2026-04-26T09:39:56.626Z</time></trkpt><trkpt lat="44.9597517" lon="9.7567683"><ele>89.42857142857142</ele><time>2026-04-26T09:39:57.635Z</time></trkpt><trkpt lat="44.9597616" lon="9.7568596"><ele>89.28571428571428</ele><time>2026-04-26T09:39:58.632Z</time></trkpt><trkpt lat="44.9597724" lon="9.7569519"><ele>89.14285714285714</ele><time>2026-04-26T09:39:59.631Z</time></trkpt><trkpt lat="44.9597841" lon="9.7570415"><ele>89.0</ele><time>2026-04-26T09:40:00.634Z</time></trkpt><trkpt lat="44.9597937" lon="9.7571323"><ele>89.0</ele><time>2026-04-26T09:40:01.636Z</time></trkpt><trkpt lat="44.9598121" lon="9.7573145"><ele>89.0</ele><time>2026-04-26T09:40:03.618Z</time></trkpt><trkpt lat="44.9598212" lon="9.7574089"><ele>89.0</ele><time>2026-04-26T09:40:04.629Z</time></trkpt><trkpt lat="44.9598247" lon="9.7574982"><ele>89.0</ele><time>2026-04-26T09:40:05.636Z</time></trkpt><trkpt lat="44.9598305" lon="9.7575927"><ele>89.0</ele><time>2026-04-26T09:40:06.634Z</time></trkpt><trkpt lat="44.9598419" lon="9.7576859"><ele>89.0</ele><time>2026-04-26T09:40:07.618Z</time></trkpt><trkpt lat="44.9598523" lon="9.7577844"><ele>89.0</ele><time>2026-04-26T09:40:08.624Z</time></trkpt><trkpt lat="44.9598577" lon="9.7578743"><ele>89.0</ele><time>2026-04-26T09:40:09.639Z</time></trkpt><trkpt lat="44.9598677" lon="9.7579683"><ele>89.0</ele><time>2026-04-26T09:40:10.636Z</time></trkpt><trkpt lat="44.9598747" lon="9.7580629"><ele>89.0</ele><time>2026-04-26T09:40:11.63Z</time></trkpt><trkpt lat="44.9598822" lon="9.7581564"><ele>89.0</ele><time>2026-04-26T09:40:12.621Z</time></trkpt><trkpt lat="44.9599011" lon="9.7583317"><ele>89.0</ele><time>2026-04-26T09:40:14.637Z</time></trkpt><trkpt lat="44.9599094" lon="9.7584199"><ele>88.80000000000001</ele><time>2026-04-26T09:40:15.634Z</time></trkpt><trkpt lat="44.9599279" lon="9.7585875"><ele>88.60000000000001</ele><time>2026-04-26T09:40:17.627Z</time></trkpt><trkpt lat="44.9599434" lon="9.7587565"><ele>88.4</ele><time>2026-04-26T09:40:19.638Z</time></trkpt><trkpt lat="44.9599501" lon="9.7588464"><ele>88.2</ele><time>2026-04-26T09:40:20.64Z</time></trkpt><trkpt lat="44.959962" lon="9.7590085"><ele>88.0</ele><time>2026-04-26T09:40:22.639Z</time></trkpt><trkpt lat="44.9599823" lon="9.7591261"><ele>88.0</ele><time>2026-04-26T09:40:24.636Z</time></trkpt><trkpt lat="44.9600534" lon="9.7591333"><ele>88.0</ele><time>2026-04-26T09:41:58.606Z</time></trkpt><trkpt lat="44.9600265" lon="9.759234"><ele>88.0</ele><time>2026-04-26T09:42:01.634Z</time></trkpt><trkpt lat="44.9599875" lon="9.7593415"><ele>88.0</ele><time>2026-04-26T09:42:04.618Z</time></trkpt><trkpt lat="44.9599907" lon="9.7594436"><ele>88.0</ele><time>2026-04-26T09:42:06.631Z</time></trkpt><trkpt lat="44.9600051" lon="9.759569"><ele>88.0</ele><time>2026-04-26T09:42:08.637Z</time></trkpt><trkpt lat="44.9600165" lon="9.7596935"><ele>87.80000000000001</ele><time>2026-04-26T09:42:10.637Z</time></trkpt><trkpt lat="44.960028" lon="9.7598409"><ele>87.6</ele><time>2026-04-26T09:42:12.634Z</time></trkpt><trkpt lat="44.9600498" lon="9.7599836"><ele>87.4</ele><time>2026-04-26T09:42:14.637Z</time></trkpt><trkpt lat="44.9600859" lon="9.7601238"><ele>87.19999999999999</ele><time>2026-04-26T09:42:16.63Z</time></trkpt><trkpt lat="44.9601397" lon="9.7602641"><ele>87.0</ele><time>2026-04-26T09:42:18.634Z</time></trkpt><trkpt lat="44.9601951" lon="9.7604112"><ele>87.0</ele><time>2026-04-26T09:42:20.632Z</time></trkpt><trkpt lat="44.960258" lon="9.7605654"><ele>87.0</ele><time>2026-04-26T09:42:22.638Z</time></trkpt><trkpt lat="44.9603242" lon="9.760716"><ele>87.0</ele><time>2026-04-26T09:42:24.64Z</time></trkpt><trkpt lat="44.9603841" lon="9.760872"><ele>87.0</ele><time>2026-04-26T09:42:26.625Z</time></trkpt><trkpt lat="44.960413" lon="9.7609515"><ele>87.0</ele><time>2026-04-26T09:42:27.632Z</time></trkpt><trkpt lat="44.9604749" lon="9.7611012"><ele>86.8</ele><time>2026-04-26T09:42:29.639Z</time></trkpt><trkpt lat="44.960506" lon="9.7611798"><ele>86.6</ele><time>2026-04-26T09:42:30.634Z</time></trkpt><trkpt lat="44.9605716" lon="9.7613253"><ele>86.39999999999999</ele><time>2026-04-26T09:42:32.618Z</time></trkpt><trkpt lat="44.9606297" lon="9.7614774"><ele>86.19999999999999</ele><time>2026-04-26T09:42:34.633Z</time></trkpt><trkpt lat="44.9606579" lon="9.7615592"><ele>86.0</ele><time>2026-04-26T09:42:35.614Z</time></trkpt><trkpt lat="44.9607165" lon="9.7616995"><ele>86.0</ele><time>2026-04-26T09:42:37.63Z</time></trkpt><trkpt lat="44.9607832" lon="9.7618461"><ele>86.0</ele><time>2026-04-26T09:42:39.639Z</time></trkpt><trkpt lat="44.9608471" lon="9.7619921"><ele>86.0</ele><time>2026-04-26T09:42:41.631Z</time></trkpt><trkpt lat="44.960877" lon="9.7620714"><ele>86.0</ele><time>2026-04-26T09:42:42.637Z</time></trkpt><trkpt lat="44.9609413" lon="9.7622196"><ele>86.0</ele><time>2026-04-26T09:42:44.631Z</time></trkpt><trkpt lat="44.9609736" lon="9.7622989"><ele>86.0</ele><time>2026-04-26T09:42:45.627Z</time></trkpt><trkpt lat="44.9610063" lon="9.7623757"><ele>86.0</ele><time>2026-04-26T09:42:46.626Z</time></trkpt><trkpt lat="44.9610635" lon="9.7625289"><ele>86.0</ele><time>2026-04-26T09:42:48.633Z</time></trkpt><trkpt lat="44.9610918" lon="9.7626148"><ele>86.0</ele><time>2026-04-26T09:42:49.632Z</time></trkpt><trkpt lat="44.9611178" lon="9.7626984"><ele>86.0</ele><time>2026-04-26T09:42:50.633Z</time></trkpt><trkpt lat="44.9611438" lon="9.7627824"><ele>86.0</ele><time>2026-04-26T09:42:51.64Z</time></trkpt><trkpt lat="44.9611917" lon="9.7629553"><ele>85.83333333333334</ele><time>2026-04-26T09:42:53.625Z</time></trkpt><trkpt lat="44.96121" lon="9.7630417"><ele>85.66666666666667</ele><time>2026-04-26T09:42:54.603Z</time></trkpt><trkpt lat="44.9612336" lon="9.7631308"><ele>85.5</ele><time>2026-04-26T09:42:55.601Z</time></trkpt><trkpt lat="44.961256" lon="9.7632143"><ele>85.33333333333333</ele><time>2026-04-26T09:42:56.636Z</time></trkpt><trkpt lat="44.9612953" lon="9.7633825"><ele>85.16666666666666</ele><time>2026-04-26T09:42:58.597Z</time></trkpt><trkpt lat="44.9613375" lon="9.7635486"><ele>85.0</ele><time>2026-04-26T09:43:00.633Z</time></trkpt><trkpt lat="44.9613883" lon="9.763714"><ele>85.0</ele><time>2026-04-26T09:43:02.64Z</time></trkpt><trkpt lat="44.9614167" lon="9.7637972"><ele>85.0</ele><time>2026-04-26T09:43:03.637Z</time></trkpt><trkpt lat="44.9614758" lon="9.7639608"><ele>85.0</ele><time>2026-04-26T09:43:05.629Z</time></trkpt><trkpt lat="44.9615096" lon="9.7640488"><ele>85.0</ele><time>2026-04-26T09:43:06.601Z</time></trkpt><trkpt lat="44.9615399" lon="9.7641306"><ele>85.0</ele><time>2026-04-26T09:43:07.642Z</time></trkpt><trkpt lat="44.9615675" lon="9.7642118"><ele>85.0</ele><time>2026-04-26T09:43:08.614Z</time></trkpt><trkpt lat="44.9615946" lon="9.7642924"><ele>85.0</ele><time>2026-04-26T09:43:09.609Z</time></trkpt><trkpt lat="44.9616491" lon="9.7644586"><ele>85.0</ele><time>2026-04-26T09:43:11.632Z</time></trkpt><trkpt lat="44.9617111" lon="9.76462"><ele>85.0</ele><time>2026-04-26T09:43:13.628Z</time></trkpt><trkpt lat="44.9617386" lon="9.7647018"><ele>85.0</ele><time>2026-04-26T09:43:14.63Z</time></trkpt><trkpt lat="44.9617664" lon="9.7647845"><ele>85.0</ele><time>2026-04-26T09:43:15.64Z</time></trkpt><trkpt lat="44.961826" lon="9.7649398"><ele>85.0</ele><time>2026-04-26T09:43:17.626Z</time></trkpt><trkpt lat="44.9618528" lon="9.7650205"><ele>85.0</ele><time>2026-04-26T09:43:18.618Z</time></trkpt><trkpt lat="44.9618846" lon="9.7650985"><ele>85.0</ele><time>2026-04-26T09:43:19.628Z</time></trkpt><trkpt lat="44.9619176" lon="9.7651799"><ele>85.0</ele><time>2026-04-26T09:43:20.636Z</time></trkpt><trkpt lat="44.9619739" lon="9.7653372"><ele>85.0</ele><time>2026-04-26T09:43:22.634Z</time></trkpt><trkpt lat="44.962001" lon="9.7654203"><ele>85.0</ele><time>2026-04-26T09:43:23.648Z</time></trkpt><trkpt lat="44.9620528" lon="9.7655795"><ele>85.0</ele><time>2026-04-26T09:43:25.649Z</time></trkpt><trkpt lat="44.9620771" lon="9.765665"><ele>85.0</ele><time>2026-04-26T09:43:26.618Z</time></trkpt><trkpt lat="44.962102" lon="9.7657519"><ele>85.0</ele><time>2026-04-26T09:43:27.626Z</time></trkpt><trkpt lat="44.9621392" lon="9.7659203"><ele>85.0</ele><time>2026-04-26T09:43:29.648Z</time></trkpt><trkpt lat="44.9621588" lon="9.7660076"><ele>85.0</ele><time>2026-04-26T09:43:30.634Z</time></trkpt><trkpt lat="44.9621762" lon="9.7661016"><ele>85.0</ele><time>2026-04-26T09:43:31.639Z</time></trkpt><trkpt lat="44.9621915" lon="9.7661907"><ele>84.8</ele><time>2026-04-26T09:43:32.637Z</time></trkpt><trkpt lat="44.962207" lon="9.7662794"><ele>84.6</ele><time>2026-04-26T09:43:33.636Z</time></trkpt><trkpt lat="44.9622306" lon="9.7664509"><ele>84.4</ele><time>2026-04-26T09:43:35.631Z</time></trkpt><trkpt lat="44.9622482" lon="9.7666238"><ele>84.2</ele><time>2026-04-26T09:43:37.631Z</time></trkpt><trkpt lat="44.9622636" lon="9.7667145"><ele>84.0</ele><time>2026-04-26T09:43:38.641Z</time></trkpt><trkpt lat="44.9622839" lon="9.7668871"><ele>83.83333333333333</ele><time>2026-04-26T09:43:40.634Z</time></trkpt><trkpt lat="44.9622932" lon="9.7669775"><ele>83.66666666666667</ele><time>2026-04-26T09:43:41.634Z</time></trkpt><trkpt lat="44.9623127" lon="9.7671503"><ele>83.5</ele><time>2026-04-26T09:43:43.637Z</time></trkpt><trkpt lat="44.9623329" lon="9.7673232"><ele>83.33333333333334</ele><time>2026-04-26T09:43:45.64Z</time></trkpt><trkpt lat="44.9623422" lon="9.767415"><ele>83.16666666666667</ele><time>2026-04-26T09:43:46.63Z</time></trkpt><trkpt lat="44.962353" lon="9.767505"><ele>83.0</ele><time>2026-04-26T09:43:47.628Z</time></trkpt><trkpt lat="44.9623745" lon="9.7676818"><ele>82.85714285714285</ele><time>2026-04-26T09:43:49.64Z</time></trkpt><trkpt lat="44.9623945" lon="9.7677674"><ele>82.71428571428572</ele><time>2026-04-26T09:43:50.633Z</time></trkpt><trkpt lat="44.9624245" lon="9.7678518"><ele>82.57142857142857</ele><time>2026-04-26T09:43:51.635Z</time></trkpt><trkpt lat="44.9624525" lon="9.767934"><ele>82.42857142857142</ele><time>2026-04-26T09:43:52.642Z</time></trkpt><trkpt lat="44.9624784" lon="9.7680227"><ele>82.28571428571428</ele><time>2026-04-26T09:43:53.632Z</time></trkpt><trkpt lat="44.9625085" lon="9.7681095"><ele>82.14285714285714</ele><time>2026-04-26T09:43:54.622Z</time></trkpt><trkpt lat="44.962537" lon="9.7681944"><ele>82.0</ele><time>2026-04-26T09:43:55.63Z</time></trkpt><trkpt lat="44.9625627" lon="9.7682802"><ele>81.99999999999999</ele><time>2026-04-26T09:43:56.639Z</time></trkpt><trkpt lat="44.9625894" lon="9.7683663"><ele>82.0</ele><time>2026-04-26T09:43:57.634Z</time></trkpt><trkpt lat="44.9626152" lon="9.7684515"><ele>82.0</ele><time>2026-04-26T09:43:58.635Z</time></trkpt><trkpt lat="44.962641" lon="9.7685335"><ele>82.0</ele><time>2026-04-26T09:43:59.628Z</time></trkpt><trkpt lat="44.9626655" lon="9.7686185"><ele>82.0</ele><time>2026-04-26T09:44:00.633Z</time></trkpt><trkpt lat="44.9626896" lon="9.7687021"><ele>81.99999999999999</ele><time>2026-04-26T09:44:01.633Z</time></trkpt><trkpt lat="44.9627197" lon="9.7687852"><ele>82.0</ele><time>2026-04-26T09:44:02.625Z</time></trkpt><trkpt lat="44.962744" lon="9.7688677"><ele>81.99999999999999</ele><time>2026-04-26T09:44:03.63Z</time></trkpt><trkpt lat="44.9627714" lon="9.7689514"><ele>82.0</ele><time>2026-04-26T09:44:04.625Z</time></trkpt><trkpt lat="44.9627958" lon="9.769035"><ele>82.0</ele><time>2026-04-26T09:44:05.63Z</time></trkpt><trkpt lat="44.9628217" lon="9.7691181"><ele>82.0</ele><time>2026-04-26T09:44:06.631Z</time></trkpt><trkpt lat="44.96285" lon="9.769206"><ele>82.0</ele><time>2026-04-26T09:44:07.619Z</time></trkpt><trkpt lat="44.9628762" lon="9.7692899"><ele>81.99999999999999</ele><time>2026-04-26T09:44:08.626Z</time></trkpt><trkpt lat="44.9629038" lon="9.7693786"><ele>82.0</ele><time>2026-04-26T09:44:09.626Z</time></trkpt><trkpt lat="44.9629309" lon="9.7694661"><ele>81.85714285714285</ele><time>2026-04-26T09:44:10.626Z</time></trkpt><trkpt lat="44.9629579" lon="9.769549"><ele>81.71428571428571</ele><time>2026-04-26T09:44:11.637Z</time></trkpt><trkpt lat="44.962988" lon="9.769633"><ele>81.57142857142857</ele><time>2026-04-26T09:44:12.603Z</time></trkpt><trkpt lat="44.9630126" lon="9.7697158"><ele>81.42857142857142</ele><time>2026-04-26T09:44:13.637Z</time></trkpt><trkpt lat="44.9630435" lon="9.769803"><ele>81.28571428571428</ele><time>2026-04-26T09:44:14.63Z</time></trkpt><trkpt lat="44.9630707" lon="9.7698861"><ele>81.14285714285714</ele><time>2026-04-26T09:44:15.639Z</time></trkpt><trkpt lat="44.9630963" lon="9.7699705"><ele>81.0</ele><time>2026-04-26T09:44:16.628Z</time></trkpt><trkpt lat="44.9631229" lon="9.770054"><ele>81.0</ele><time>2026-04-26T09:44:17.637Z</time></trkpt><trkpt lat="44.9631472" lon="9.7701376"><ele>81.0</ele><time>2026-04-26T09:44:18.622Z</time></trkpt><trkpt lat="44.9631754" lon="9.770218"><ele>81.0</ele><time>2026-04-26T09:44:19.63Z</time></trkpt><trkpt lat="44.9632052" lon="9.7702985"><ele>81.0</ele><time>2026-04-26T09:44:20.642Z</time></trkpt><trkpt lat="44.9632338" lon="9.7703799"><ele>81.0</ele><time>2026-04-26T09:44:21.634Z</time></trkpt><trkpt lat="44.9632645" lon="9.7704608"><ele>81.0</ele><time>2026-04-26T09:44:22.633Z</time></trkpt><trkpt lat="44.9632922" lon="9.7705494"><ele>81.0</ele><time>2026-04-26T09:44:23.641Z</time></trkpt><trkpt lat="44.9633202" lon="9.7706416"><ele>81.0</ele><time>2026-04-26T09:44:24.635Z</time></trkpt><trkpt lat="44.9633469" lon="9.7707256"><ele>81.0</ele><time>2026-04-26T09:44:25.637Z</time></trkpt><trkpt lat="44.9633727" lon="9.7708103"><ele>81.0</ele><time>2026-04-26T09:44:26.632Z</time></trkpt><trkpt lat="44.9633982" lon="9.7708919"><ele>81.0</ele><time>2026-04-26T09:44:27.635Z</time></trkpt><trkpt lat="44.9634539" lon="9.7710475"><ele>81.0</ele><time>2026-04-26T09:44:29.641Z</time></trkpt><trkpt lat="44.963507" lon="9.7712068"><ele>81.0</ele><time>2026-04-26T09:44:31.637Z</time></trkpt><trkpt lat="44.9635347" lon="9.7712877"><ele>80.83333333333333</ele><time>2026-04-26T09:44:32.634Z</time></trkpt><trkpt lat="44.9635606" lon="9.7713701"><ele>80.66666666666667</ele><time>2026-04-26T09:44:33.626Z</time></trkpt><trkpt lat="44.9635886" lon="9.771456"><ele>80.5</ele><time>2026-04-26T09:44:34.643Z</time></trkpt><trkpt lat="44.9636348" lon="9.7716224"><ele>80.33333333333334</ele><time>2026-04-26T09:44:36.636Z</time></trkpt><trkpt lat="44.9636656" lon="9.7717076"><ele>80.16666666666667</ele><time>2026-04-26T09:44:37.631Z</time></trkpt><trkpt lat="44.9636914" lon="9.7717967"><ele>80.0</ele><time>2026-04-26T09:44:38.641Z</time></trkpt><trkpt lat="44.9637182" lon="9.7718847"><ele>80.28571428571428</ele><time>2026-04-26T09:44:39.643Z</time></trkpt><trkpt lat="44.9637482" lon="9.7719752"><ele>80.57142857142857</ele><time>2026-04-26T09:44:40.627Z</time></trkpt><trkpt lat="44.9637734" lon="9.7720627"><ele>80.85714285714286</ele><time>2026-04-26T09:44:41.631Z</time></trkpt><trkpt lat="44.9638015" lon="9.7721477"><ele>81.14285714285714</ele><time>2026-04-26T09:44:42.638Z</time></trkpt><trkpt lat="44.9638284" lon="9.7722381"><ele>81.42857142857143</ele><time>2026-04-26T09:44:43.638Z</time></trkpt><trkpt lat="44.9638552" lon="9.7723287"><ele>81.71428571428571</ele><time>2026-04-26T09:44:44.642Z</time></trkpt><trkpt lat="44.9638843" lon="9.7724141"><ele>82.0</ele><time>2026-04-26T09:44:45.647Z</time></trkpt><trkpt lat="44.9639128" lon="9.7725066"><ele>81.99999999999999</ele><time>2026-04-26T09:44:46.643Z</time></trkpt><trkpt lat="44.9639369" lon="9.7725987"><ele>82.0</ele><time>2026-04-26T09:44:47.639Z</time></trkpt><trkpt lat="44.9639604" lon="9.77269"><ele>82.0</ele><time>2026-04-26T09:44:48.631Z</time></trkpt><trkpt lat="44.9639807" lon="9.7727811"><ele>82.0</ele><time>2026-04-26T09:44:49.63Z</time></trkpt><trkpt lat="44.9639965" lon="9.7728775"><ele>82.0</ele><time>2026-04-26T09:44:50.631Z</time></trkpt><trkpt lat="44.9640097" lon="9.7729761"><ele>81.99999999999999</ele><time>2026-04-26T09:44:51.64Z</time></trkpt><trkpt lat="44.9640148" lon="9.7730728"><ele>82.0</ele><time>2026-04-26T09:44:52.621Z</time></trkpt><trkpt lat="44.964021" lon="9.7731639"><ele>81.71428571428571</ele><time>2026-04-26T09:44:53.629Z</time></trkpt><trkpt lat="44.9640241" lon="9.7732568"><ele>81.42857142857143</ele><time>2026-04-26T09:44:54.64Z</time></trkpt><trkpt lat="44.9640281" lon="9.7733514"><ele>81.14285714285714</ele><time>2026-04-26T09:44:55.636Z</time></trkpt><trkpt lat="44.9640317" lon="9.77345"><ele>80.85714285714286</ele><time>2026-04-26T09:44:56.633Z</time></trkpt><trkpt lat="44.9640332" lon="9.7735437"><ele>80.57142857142857</ele><time>2026-04-26T09:44:57.638Z</time></trkpt><trkpt lat="44.9640328" lon="9.7736366"><ele>80.28571428571428</ele><time>2026-04-26T09:44:58.641Z</time></trkpt><trkpt lat="44.9640358" lon="9.7737292"><ele>80.0</ele><time>2026-04-26T09:44:59.636Z</time></trkpt><trkpt lat="44.9640363" lon="9.7738225"><ele>79.85714285714286</ele><time>2026-04-26T09:45:00.636Z</time></trkpt><trkpt lat="44.9640344" lon="9.7739133"><ele>79.71428571428572</ele><time>2026-04-26T09:45:01.634Z</time></trkpt><trkpt lat="44.9640322" lon="9.7740878"><ele>79.57142857142858</ele><time>2026-04-26T09:45:03.629Z</time></trkpt><trkpt lat="44.9640299" lon="9.7741776"><ele>79.42857142857143</ele><time>2026-04-26T09:45:04.633Z</time></trkpt><trkpt lat="44.9640258" lon="9.7742717"><ele>79.28571428571429</ele><time>2026-04-26T09:45:05.625Z</time></trkpt><trkpt lat="44.9640214" lon="9.7743619"><ele>79.14285714285715</ele><time>2026-04-26T09:45:06.634Z</time></trkpt><trkpt lat="44.9640198" lon="9.7744564"><ele>79.0</ele><time>2026-04-26T09:45:07.63Z</time></trkpt><trkpt lat="44.964014" lon="9.7745515"><ele>78.71428571428572</ele><time>2026-04-26T09:45:08.63Z</time></trkpt><trkpt lat="44.964011" lon="9.7746456"><ele>78.42857142857143</ele><time>2026-04-26T09:45:09.634Z</time></trkpt><trkpt lat="44.9640085" lon="9.7747363"><ele>78.14285714285714</ele><time>2026-04-26T09:45:10.636Z</time></trkpt><trkpt lat="44.9640104" lon="9.7749167"><ele>77.85714285714286</ele><time>2026-04-26T09:45:12.638Z</time></trkpt><trkpt lat="44.9640132" lon="9.7750066"><ele>77.57142857142857</ele><time>2026-04-26T09:45:13.641Z</time></trkpt><trkpt lat="44.9640131" lon="9.7750963"><ele>77.28571428571429</ele><time>2026-04-26T09:45:14.631Z</time></trkpt><trkpt lat="44.9640118" lon="9.7751862"><ele>77.0</ele><time>2026-04-26T09:45:15.644Z</time></trkpt><trkpt lat="44.9640115" lon="9.7752798"><ele>77.0</ele><time>2026-04-26T09:45:16.635Z</time></trkpt><trkpt lat="44.9640121" lon="9.7753696"><ele>77.0</ele><time>2026-04-26T09:45:17.642Z</time></trkpt><trkpt lat="44.964015" lon="9.7755491"><ele>77.0</ele><time>2026-04-26T09:45:19.633Z</time></trkpt><trkpt lat="44.9640209" lon="9.7756422"><ele>77.0</ele><time>2026-04-26T09:45:20.627Z</time></trkpt><trkpt lat="44.9640197" lon="9.7757316"><ele>77.0</ele><time>2026-04-26T09:45:21.635Z</time></trkpt><trkpt lat="44.9640212" lon="9.7758207"><ele>77.0</ele><time>2026-04-26T09:45:22.644Z</time></trkpt><trkpt lat="44.9640211" lon="9.7759112"><ele>77.0</ele><time>2026-04-26T09:45:23.649Z</time></trkpt><trkpt lat="44.964025" lon="9.7760868"><ele>77.25</ele><time>2026-04-26T09:45:25.646Z</time></trkpt><trkpt lat="44.9640336" lon="9.7762615"><ele>77.5</ele><time>2026-04-26T09:45:27.634Z</time></trkpt><trkpt lat="44.9640381" lon="9.7764371"><ele>77.75</ele><time>2026-04-26T09:45:29.632Z</time></trkpt><trkpt lat="44.9640594" lon="9.7766083"><ele>78.0</ele><time>2026-04-26T09:45:31.636Z</time></trkpt><trkpt lat="44.9641471" lon="9.7767321"><ele>78.2</ele><time>2026-04-26T09:45:33.633Z</time></trkpt><trkpt lat="44.9642651" lon="9.776798"><ele>78.4</ele><time>2026-04-26T09:45:35.634Z</time></trkpt><trkpt lat="44.9643922" lon="9.7768079"><ele>78.60000000000001</ele><time>2026-04-26T09:45:37.64Z</time></trkpt><trkpt lat="44.9644586" lon="9.7768147"><ele>78.8</ele><time>2026-04-26T09:45:38.621Z</time></trkpt><trkpt lat="44.9645228" lon="9.7768262"><ele>79.0</ele><time>2026-04-26T09:45:39.631Z</time></trkpt><trkpt lat="44.9646423" lon="9.7768382"><ele>79.0</ele><time>2026-04-26T09:45:41.638Z</time></trkpt><trkpt lat="44.9647591" lon="9.7768562"><ele>79.0</ele><time>2026-04-26T09:45:43.636Z</time></trkpt><trkpt lat="44.9648846" lon="9.7768776"><ele>79.0</ele><time>2026-04-26T09:45:45.633Z</time></trkpt><trkpt lat="44.9650034" lon="9.7768885"><ele>79.0</ele><time>2026-04-26T09:45:47.64Z</time></trkpt><trkpt lat="44.9651267" lon="9.7769057"><ele>78.75</ele><time>2026-04-26T09:45:49.638Z</time></trkpt><trkpt lat="44.9652513" lon="9.776927"><ele>78.5</ele><time>2026-04-26T09:45:51.635Z</time></trkpt><trkpt lat="44.9653737" lon="9.7769603"><ele>78.25</ele><time>2026-04-26T09:45:53.638Z</time></trkpt><trkpt lat="44.9654932" lon="9.7770057"><ele>78.0</ele><time>2026-04-26T09:45:55.629Z</time></trkpt><trkpt lat="44.9656191" lon="9.7770368"><ele>78.0</ele><time>2026-04-26T09:45:57.637Z</time></trkpt><trkpt lat="44.9657435" lon="9.7770332"><ele>78.0</ele><time>2026-04-26T09:45:59.629Z</time></trkpt><trkpt lat="44.9658074" lon="9.7770257"><ele>78.0</ele><time>2026-04-26T09:46:00.639Z</time></trkpt><trkpt lat="44.965928" lon="9.7770176"><ele>78.0</ele><time>2026-04-26T09:46:02.636Z</time></trkpt><trkpt lat="44.9660435" lon="9.7769997"><ele>78.0</ele><time>2026-04-26T09:46:04.632Z</time></trkpt><trkpt lat="44.9661606" lon="9.7769808"><ele>78.16666666666667</ele><time>2026-04-26T09:46:06.63Z</time></trkpt><trkpt lat="44.9662724" lon="9.7769733"><ele>78.33333333333333</ele><time>2026-04-26T09:46:08.625Z</time></trkpt><trkpt lat="44.9663716" lon="9.7770756"><ele>78.5</ele><time>2026-04-26T09:46:10.64Z</time></trkpt><trkpt lat="44.9663875" lon="9.7771639"><ele>78.66666666666666</ele><time>2026-04-26T09:46:11.626Z</time></trkpt><trkpt lat="44.9663972" lon="9.7772615"><ele>78.83333333333333</ele><time>2026-04-26T09:46:12.624Z</time></trkpt><trkpt lat="44.9664058" lon="9.7773527"><ele>79.0</ele><time>2026-04-26T09:46:13.627Z</time></trkpt><trkpt lat="44.9664239" lon="9.7775261"><ele>79.0</ele><time>2026-04-26T09:46:15.639Z</time></trkpt><trkpt lat="44.966434" lon="9.7776191"><ele>79.0</ele><time>2026-04-26T09:46:16.633Z</time></trkpt><trkpt lat="44.9664392" lon="9.7777143"><ele>79.0</ele><time>2026-04-26T09:46:17.628Z</time></trkpt><trkpt lat="44.9664477" lon="9.7778071"><ele>79.0</ele><time>2026-04-26T09:46:18.634Z</time></trkpt><trkpt lat="44.9664588" lon="9.7779029"><ele>79.0</ele><time>2026-04-26T09:46:19.603Z</time></trkpt><trkpt lat="44.9664727" lon="9.7779941"><ele>79.0</ele><time>2026-04-26T09:46:20.64Z</time></trkpt><trkpt lat="44.966501" lon="9.7781693"><ele>79.0</ele><time>2026-04-26T09:46:22.606Z</time></trkpt><trkpt lat="44.9665148" lon="9.7782613"><ele>79.0</ele><time>2026-04-26T09:46:23.598Z</time></trkpt><trkpt lat="44.9665491" lon="9.7784296"><ele>79.0</ele><time>2026-04-26T09:46:25.633Z</time></trkpt><trkpt lat="44.9665885" lon="9.7785976"><ele>79.0</ele><time>2026-04-26T09:46:27.638Z</time></trkpt><trkpt lat="44.9666257" lon="9.7787618"><ele>79.0</ele><time>2026-04-26T09:46:29.627Z</time></trkpt><trkpt lat="44.9666457" lon="9.7788472"><ele>79.0</ele><time>2026-04-26T09:46:30.633Z</time></trkpt><trkpt lat="44.9666901" lon="9.7789973"><ele>79.0</ele><time>2026-04-26T09:46:32.633Z</time></trkpt><trkpt lat="44.9667332" lon="9.779151"><ele>79.0</ele><time>2026-04-26T09:46:34.628Z</time></trkpt><trkpt lat="44.9667759" lon="9.779312"><ele>79.0</ele><time>2026-04-26T09:46:36.644Z</time></trkpt><trkpt lat="44.9668062" lon="9.7794828"><ele>78.71428571428572</ele><time>2026-04-26T09:46:38.63Z</time></trkpt><trkpt lat="44.9668193" lon="9.7796562"><ele>78.42857142857143</ele><time>2026-04-26T09:46:40.643Z</time></trkpt><trkpt lat="44.9668325" lon="9.7797488"><ele>78.14285714285714</ele><time>2026-04-26T09:46:41.636Z</time></trkpt><trkpt lat="44.9668392" lon="9.7798382"><ele>77.85714285714286</ele><time>2026-04-26T09:46:42.624Z</time></trkpt><trkpt lat="44.9668474" lon="9.7799297"><ele>77.57142857142857</ele><time>2026-04-26T09:46:43.643Z</time></trkpt><trkpt lat="44.9668448" lon="9.78002"><ele>77.28571428571429</ele><time>2026-04-26T09:46:44.632Z</time></trkpt><trkpt lat="44.9668532" lon="9.780112"><ele>77.0</ele><time>2026-04-26T09:46:45.649Z</time></trkpt><trkpt lat="44.9668768" lon="9.7802803"><ele>77.0</ele><time>2026-04-26T09:46:47.64Z</time></trkpt><trkpt lat="44.9668832" lon="9.7804495"><ele>77.0</ele><time>2026-04-26T09:46:49.649Z</time></trkpt><trkpt lat="44.9668851" lon="9.7805405"><ele>77.0</ele><time>2026-04-26T09:46:50.631Z</time></trkpt><trkpt lat="44.9668775" lon="9.7806346"><ele>77.0</ele><time>2026-04-26T09:46:51.618Z</time></trkpt><trkpt lat="44.9668652" lon="9.7808068"><ele>77.0</ele><time>2026-04-26T09:46:53.629Z</time></trkpt><trkpt lat="44.9668512" lon="9.7809751"><ele>77.0</ele><time>2026-04-26T09:46:55.634Z</time></trkpt><trkpt lat="44.9668225" lon="9.7811094"><ele>77.0</ele><time>2026-04-26T09:46:57.642Z</time></trkpt><trkpt lat="44.9667967" lon="9.7812532"><ele>77.0</ele><time>2026-04-26T09:46:59.631Z</time></trkpt><trkpt lat="44.9667655" lon="9.78138"><ele>77.0</ele><time>2026-04-26T09:47:01.623Z</time></trkpt><trkpt lat="44.9667383" lon="9.7814999"><ele>77.0</ele><time>2026-04-26T09:47:03.627Z</time></trkpt><trkpt lat="44.9667261" lon="9.7816082"><ele>77.0</ele><time>2026-04-26T09:47:05.621Z</time></trkpt><trkpt lat="44.9667975" lon="9.7816706"><ele>77.0</ele><time>2026-04-26T09:47:07.628Z</time></trkpt><trkpt lat="44.9668929" lon="9.7817216"><ele>77.0</ele><time>2026-04-26T09:47:09.63Z</time></trkpt><trkpt lat="44.9669924" lon="9.7817625"><ele>77.0</ele><time>2026-04-26T09:47:11.63Z</time></trkpt><trkpt lat="44.9671047" lon="9.7818064"><ele>77.0</ele><time>2026-04-26T09:47:13.628Z</time></trkpt><trkpt lat="44.9672097" lon="9.7818538"><ele>77.0</ele><time>2026-04-26T09:47:15.628Z</time></trkpt><trkpt lat="44.9673189" lon="9.7819135"><ele>77.0</ele><time>2026-04-26T09:47:17.626Z</time></trkpt><trkpt lat="44.9674252" lon="9.7819655"><ele>77.0</ele><time>2026-04-26T09:47:19.642Z</time></trkpt><trkpt lat="44.9675385" lon="9.7820113"><ele>77.0</ele><time>2026-04-26T09:47:21.641Z</time></trkpt><trkpt lat="44.9676517" lon="9.7820725"><ele>77.0</ele><time>2026-04-26T09:47:23.625Z</time></trkpt><trkpt lat="44.96776" lon="9.7821265"><ele>77.0</ele><time>2026-04-26T09:47:25.632Z</time></trkpt><trkpt lat="44.9678756" lon="9.7821905"><ele>77.0</ele><time>2026-04-26T09:47:27.634Z</time></trkpt><trkpt lat="44.9679386" lon="9.782216"><ele>77.0</ele><time>2026-04-26T09:47:28.625Z</time></trkpt><trkpt lat="44.9680033" lon="9.7822495"><ele>77.0</ele><time>2026-04-26T09:47:29.638Z</time></trkpt><trkpt lat="44.9680661" lon="9.7822793"><ele>77.0</ele><time>2026-04-26T09:47:30.636Z</time></trkpt><trkpt lat="44.9681255" lon="9.7823122"><ele>77.0</ele><time>2026-04-26T09:47:31.634Z</time></trkpt><trkpt lat="44.9681853" lon="9.7823402"><ele>77.0</ele><time>2026-04-26T09:47:32.645Z</time></trkpt><trkpt lat="44.9682527" lon="9.7823746"><ele>77.0</ele><time>2026-04-26T09:47:33.628Z</time></trkpt><trkpt lat="44.9683669" lon="9.7824274"><ele>77.0</ele><time>2026-04-26T09:47:35.63Z</time></trkpt><trkpt lat="44.9684292" lon="9.7824531"><ele>77.0</ele><time>2026-04-26T09:47:36.635Z</time></trkpt><trkpt lat="44.9684915" lon="9.7824726"><ele>77.0</ele><time>2026-04-26T09:47:37.639Z</time></trkpt><trkpt lat="44.9685534" lon="9.7825036"><ele>77.0</ele><time>2026-04-26T09:47:38.629Z</time></trkpt><trkpt lat="44.9686731" lon="9.7825676"><ele>77.2</ele><time>2026-04-26T09:47:40.616Z</time></trkpt><trkpt lat="44.9687378" lon="9.7825905"><ele>77.4</ele><time>2026-04-26T09:47:41.631Z</time></trkpt><trkpt lat="44.9688595" lon="9.7826448"><ele>77.6</ele><time>2026-04-26T09:47:43.625Z</time></trkpt><trkpt lat="44.9689243" lon="9.7826748"><ele>77.8</ele><time>2026-04-26T09:47:44.631Z</time></trkpt><trkpt lat="44.9689844" lon="9.7827051"><ele>78.0</ele><time>2026-04-26T09:47:45.64Z</time></trkpt><trkpt lat="44.9691061" lon="9.7827668"><ele>78.0</ele><time>2026-04-26T09:47:47.626Z</time></trkpt><trkpt lat="44.9691667" lon="9.7827955"><ele>78.0</ele><time>2026-04-26T09:47:48.641Z</time></trkpt><trkpt lat="44.9692303" lon="9.7828212"><ele>78.0</ele><time>2026-04-26T09:47:49.627Z</time></trkpt><trkpt lat="44.9693493" lon="9.7828639"><ele>78.0</ele><time>2026-04-26T09:47:51.64Z</time></trkpt><trkpt lat="44.9694151" lon="9.7828868"><ele>78.0</ele><time>2026-04-26T09:47:52.624Z</time></trkpt><trkpt lat="44.9694804" lon="9.782903"><ele>78.0</ele><time>2026-04-26T09:47:53.622Z</time></trkpt><trkpt lat="44.9695477" lon="9.7829205"><ele>77.85714285714286</ele><time>2026-04-26T09:47:54.632Z</time></trkpt><trkpt lat="44.9696132" lon="9.7829374"><ele>77.71428571428571</ele><time>2026-04-26T09:47:55.622Z</time></trkpt><trkpt lat="44.9696803" lon="9.7829556"><ele>77.57142857142857</ele><time>2026-04-26T09:47:56.638Z</time></trkpt><trkpt lat="44.9697505" lon="9.7829749"><ele>77.42857142857143</ele><time>2026-04-26T09:47:57.63Z</time></trkpt><trkpt lat="44.9698175" lon="9.7829975"><ele>77.28571428571428</ele><time>2026-04-26T09:47:58.636Z</time></trkpt><trkpt lat="44.9698847" lon="9.7830161"><ele>77.14285714285714</ele><time>2026-04-26T09:47:59.634Z</time></trkpt><trkpt lat="44.9699531" lon="9.7830348"><ele>77.0</ele><time>2026-04-26T09:48:00.638Z</time></trkpt><trkpt lat="44.9700195" lon="9.7830539"><ele>76.57142857142857</ele><time>2026-04-26T09:48:01.63Z</time></trkpt><trkpt lat="44.9700849" lon="9.7830754"><ele>76.14285714285714</ele><time>2026-04-26T09:48:02.604Z</time></trkpt><trkpt lat="44.9701551" lon="9.7830944"><ele>75.71428571428572</ele><time>2026-04-26T09:48:03.637Z</time></trkpt><trkpt lat="44.9702199" lon="9.7831115"><ele>75.28571428571428</ele><time>2026-04-26T09:48:04.637Z</time></trkpt><trkpt lat="44.9702885" lon="9.7831281"><ele>74.85714285714286</ele><time>2026-04-26T09:48:05.636Z</time></trkpt><trkpt lat="44.9703541" lon="9.783142"><ele>74.42857142857143</ele><time>2026-04-26T09:48:06.631Z</time></trkpt><trkpt lat="44.9704149" lon="9.7831678"><ele>74.0</ele><time>2026-04-26T09:48:07.633Z</time></trkpt><trkpt lat="44.9704795" lon="9.7831952"><ele>74.0</ele><time>2026-04-26T09:48:08.64Z</time></trkpt><trkpt lat="44.9705493" lon="9.7832176"><ele>74.0</ele><time>2026-04-26T09:48:09.628Z</time></trkpt><trkpt lat="44.9706287" lon="9.7832463"><ele>74.0</ele><time>2026-04-26T09:48:10.634Z</time></trkpt><trkpt lat="44.9706983" lon="9.7832783"><ele>74.0</ele><time>2026-04-26T09:48:11.627Z</time></trkpt><trkpt lat="44.9707643" lon="9.7833083"><ele>74.0</ele><time>2026-04-26T09:48:12.63Z</time></trkpt><trkpt lat="44.9708294" lon="9.7833503"><ele>74.0</ele><time>2026-04-26T09:48:13.624Z</time></trkpt><trkpt lat="44.9708909" lon="9.7833941"><ele>74.0</ele><time>2026-04-26T09:48:14.632Z</time></trkpt><trkpt lat="44.9709529" lon="9.7834425"><ele>73.71428571428572</ele><time>2026-04-26T09:48:15.635Z</time></trkpt><trkpt lat="44.971015" lon="9.7834838"><ele>73.42857142857143</ele><time>2026-04-26T09:48:16.639Z</time></trkpt><trkpt lat="44.9710746" lon="9.7835305"><ele>73.14285714285714</ele><time>2026-04-26T09:48:17.648Z</time></trkpt><trkpt lat="44.9711355" lon="9.7835724"><ele>72.85714285714286</ele><time>2026-04-26T09:48:18.639Z</time></trkpt><trkpt lat="44.9711995" lon="9.7836141"><ele>72.57142857142857</ele><time>2026-04-26T09:48:19.636Z</time></trkpt><trkpt lat="44.9712582" lon="9.7836557"><ele>72.28571428571429</ele><time>2026-04-26T09:48:20.625Z</time></trkpt><trkpt lat="44.9713191" lon="9.7837033"><ele>72.0</ele><time>2026-04-26T09:48:21.632Z</time></trkpt><trkpt lat="44.9713795" lon="9.7837367"><ele>72.00000000000001</ele><time>2026-04-26T09:48:22.634Z</time></trkpt><trkpt lat="44.9714426" lon="9.7837731"><ele>72.0</ele><time>2026-04-26T09:48:23.633Z</time></trkpt><trkpt lat="44.9715053" lon="9.7838102"><ele>72.0</ele><time>2026-04-26T09:48:24.63Z</time></trkpt><trkpt lat="44.9715729" lon="9.7838465"><ele>72.0</ele><time>2026-04-26T09:48:25.633Z</time></trkpt><trkpt lat="44.9716434" lon="9.7838812"><ele>72.0</ele><time>2026-04-26T09:48:26.631Z</time></trkpt><trkpt lat="44.9717129" lon="9.7839019"><ele>72.00000000000001</ele><time>2026-04-26T09:48:27.63Z</time></trkpt><trkpt lat="44.9717846" lon="9.783926"><ele>72.0</ele><time>2026-04-26T09:48:28.636Z</time></trkpt><trkpt lat="44.9718542" lon="9.7839438"><ele>71.85714285714286</ele><time>2026-04-26T09:48:29.621Z</time></trkpt><trkpt lat="44.9719215" lon="9.7839641"><ele>71.71428571428572</ele><time>2026-04-26T09:48:30.632Z</time></trkpt><trkpt lat="44.9719926" lon="9.7839814"><ele>71.57142857142857</ele><time>2026-04-26T09:48:31.635Z</time></trkpt><trkpt lat="44.9720566" lon="9.7840023"><ele>71.42857142857143</ele><time>2026-04-26T09:48:32.639Z</time></trkpt><trkpt lat="44.9721237" lon="9.7840194"><ele>71.28571428571428</ele><time>2026-04-26T09:48:33.638Z</time></trkpt><trkpt lat="44.9721917" lon="9.7840364"><ele>71.14285714285714</ele><time>2026-04-26T09:48:34.639Z</time></trkpt><trkpt lat="44.9722625" lon="9.7840571"><ele>71.0</ele><time>2026-04-26T09:48:35.626Z</time></trkpt><trkpt lat="44.9723305" lon="9.784073"><ele>71.0</ele><time>2026-04-26T09:48:36.639Z</time></trkpt><trkpt lat="44.9723959" lon="9.7840908"><ele>71.0</ele><time>2026-04-26T09:48:37.623Z</time></trkpt><trkpt lat="44.9724621" lon="9.7841126"><ele>71.0</ele><time>2026-04-26T09:48:38.635Z</time></trkpt><trkpt lat="44.9725292" lon="9.7841305"><ele>71.0</ele><time>2026-04-26T09:48:39.635Z</time></trkpt><trkpt lat="44.9725948" lon="9.7841514"><ele>71.0</ele><time>2026-04-26T09:48:40.629Z</time></trkpt><trkpt lat="44.9726596" lon="9.7841718"><ele>71.0</ele><time>2026-04-26T09:48:41.646Z</time></trkpt><trkpt lat="44.972725" lon="9.7841931"><ele>71.0</ele><time>2026-04-26T09:48:42.627Z</time></trkpt><trkpt lat="44.9727896" lon="9.7842177"><ele>71.0</ele><time>2026-04-26T09:48:43.637Z</time></trkpt><trkpt lat="44.972858" lon="9.7842359"><ele>71.0</ele><time>2026-04-26T09:48:44.624Z</time></trkpt><trkpt lat="44.9729227" lon="9.7842589"><ele>71.0</ele><time>2026-04-26T09:48:45.631Z</time></trkpt><trkpt lat="44.9729916" lon="9.7842843"><ele>71.0</ele><time>2026-04-26T09:48:46.632Z</time></trkpt><trkpt lat="44.9730583" lon="9.7843099"><ele>71.0</ele><time>2026-04-26T09:48:47.614Z</time></trkpt><trkpt lat="44.9731258" lon="9.7843319"><ele>71.0</ele><time>2026-04-26T09:48:48.637Z</time></trkpt><trkpt lat="44.9731917" lon="9.7843551"><ele>71.0</ele><time>2026-04-26T09:48:49.63Z</time></trkpt><trkpt lat="44.9732587" lon="9.7843811"><ele>71.0</ele><time>2026-04-26T09:48:50.634Z</time></trkpt><trkpt lat="44.9733274" lon="9.7844074"><ele>71.0</ele><time>2026-04-26T09:48:51.642Z</time></trkpt><trkpt lat="44.9733954" lon="9.7844357"><ele>71.0</ele><time>2026-04-26T09:48:52.649Z</time></trkpt><trkpt lat="44.9734621" lon="9.7844664"><ele>71.0</ele><time>2026-04-26T09:48:53.632Z</time></trkpt><trkpt lat="44.9735279" lon="9.7844965"><ele>71.0</ele><time>2026-04-26T09:48:54.637Z</time></trkpt><trkpt lat="44.9735892" lon="9.7845303"><ele>71.0</ele><time>2026-04-26T09:48:55.612Z</time></trkpt><trkpt lat="44.9736565" lon="9.7845625"><ele>71.0</ele><time>2026-04-26T09:48:56.638Z</time></trkpt><trkpt lat="44.9737273" lon="9.7845899"><ele>70.85714285714286</ele><time>2026-04-26T09:48:57.634Z</time></trkpt><trkpt lat="44.9737971" lon="9.7846177"><ele>70.71428571428571</ele><time>2026-04-26T09:48:58.64Z</time></trkpt><trkpt lat="44.9738631" lon="9.7846519"><ele>70.57142857142857</ele><time>2026-04-26T09:48:59.607Z</time></trkpt><trkpt lat="44.9739319" lon="9.7846803"><ele>70.42857142857143</ele><time>2026-04-26T09:49:00.638Z</time></trkpt><trkpt lat="44.9740008" lon="9.7847061"><ele>70.28571428571428</ele><time>2026-04-26T09:49:01.636Z</time></trkpt><trkpt lat="44.9740698" lon="9.7847338"><ele>70.14285714285714</ele><time>2026-04-26T09:49:02.641Z</time></trkpt><trkpt lat="44.9741389" lon="9.7847639"><ele>70.0</ele><time>2026-04-26T09:49:03.634Z</time></trkpt><trkpt lat="44.9742051" lon="9.7847942"><ele>69.85714285714286</ele><time>2026-04-26T09:49:04.625Z</time></trkpt><trkpt lat="44.9742707" lon="9.7848255"><ele>69.71428571428572</ele><time>2026-04-26T09:49:05.64Z</time></trkpt><trkpt lat="44.9743385" lon="9.7848548"><ele>69.57142857142857</ele><time>2026-04-26T09:49:06.625Z</time></trkpt><trkpt lat="44.9744034" lon="9.784887"><ele>69.42857142857143</ele><time>2026-04-26T09:49:07.637Z</time></trkpt><trkpt lat="44.9744675" lon="9.7849177"><ele>69.28571428571429</ele><time>2026-04-26T09:49:08.629Z</time></trkpt><trkpt lat="44.9745341" lon="9.7849457"><ele>69.14285714285714</ele><time>2026-04-26T09:49:09.616Z</time></trkpt><trkpt lat="44.9746008" lon="9.7849745"><ele>69.0</ele><time>2026-04-26T09:49:10.635Z</time></trkpt><trkpt lat="44.9746697" lon="9.7850012"><ele>69.0</ele><time>2026-04-26T09:49:11.621Z</time></trkpt><trkpt lat="44.9747344" lon="9.7850287"><ele>69.0</ele><time>2026-04-26T09:49:12.641Z</time></trkpt><trkpt lat="44.974801" lon="9.7850585"><ele>69.0</ele><time>2026-04-26T09:49:13.63Z</time></trkpt><trkpt lat="44.9748707" lon="9.7850851"><ele>69.0</ele><time>2026-04-26T09:49:14.624Z</time></trkpt><trkpt lat="44.9749412" lon="9.7851132"><ele>69.0</ele><time>2026-04-26T09:49:15.629Z</time></trkpt><trkpt lat="44.9750087" lon="9.7851483"><ele>69.0</ele><time>2026-04-26T09:49:16.631Z</time></trkpt><trkpt lat="44.9750758" lon="9.785184"><ele>69.0</ele><time>2026-04-26T09:49:17.633Z</time></trkpt><trkpt lat="44.9751413" lon="9.785218"><ele>69.0</ele><time>2026-04-26T09:49:18.635Z</time></trkpt><trkpt lat="44.975208" lon="9.7852494"><ele>69.0</ele><time>2026-04-26T09:49:19.63Z</time></trkpt><trkpt lat="44.975277" lon="9.7852845"><ele>69.0</ele><time>2026-04-26T09:49:20.637Z</time></trkpt><trkpt lat="44.9753448" lon="9.7853193"><ele>69.0</ele><time>2026-04-26T09:49:21.638Z</time></trkpt><trkpt lat="44.975411" lon="9.7853485"><ele>69.0</ele><time>2026-04-26T09:49:22.631Z</time></trkpt><trkpt lat="44.9754778" lon="9.7853848"><ele>69.0</ele><time>2026-04-26T09:49:23.638Z</time></trkpt><trkpt lat="44.9755432" lon="9.7854174"><ele>69.0</ele><time>2026-04-26T09:49:24.64Z</time></trkpt><trkpt lat="44.9756101" lon="9.7854516"><ele>69.0</ele><time>2026-04-26T09:49:25.634Z</time></trkpt><trkpt lat="44.9756818" lon="9.7854835"><ele>69.0</ele><time>2026-04-26T09:49:26.633Z</time></trkpt><trkpt lat="44.9757502" lon="9.785513"><ele>69.0</ele><time>2026-04-26T09:49:27.632Z</time></trkpt><trkpt lat="44.9758165" lon="9.7855455"><ele>69.0</ele><time>2026-04-26T09:49:28.642Z</time></trkpt><trkpt lat="44.9758807" lon="9.7855799"><ele>69.0</ele><time>2026-04-26T09:49:29.638Z</time></trkpt><trkpt lat="44.975947" lon="9.7856158"><ele>69.0</ele><time>2026-04-26T09:49:30.639Z</time></trkpt><trkpt lat="44.9760158" lon="9.7856513"><ele>69.0</ele><time>2026-04-26T09:49:31.638Z</time></trkpt><trkpt lat="44.9760808" lon="9.7856835"><ele>69.14285714285714</ele><time>2026-04-26T09:49:32.64Z</time></trkpt><trkpt lat="44.9761493" lon="9.7857202"><ele>69.28571428571429</ele><time>2026-04-26T09:49:33.644Z</time></trkpt><trkpt lat="44.9762153" lon="9.7857588"><ele>69.42857142857143</ele><time>2026-04-26T09:49:34.645Z</time></trkpt><trkpt lat="44.9762767" lon="9.7857961"><ele>69.57142857142857</ele><time>2026-04-26T09:49:35.632Z</time></trkpt><trkpt lat="44.9763424" lon="9.7858324"><ele>69.71428571428572</ele><time>2026-04-26T09:49:36.644Z</time></trkpt><trkpt lat="44.9764069" lon="9.7858659"><ele>69.85714285714286</ele><time>2026-04-26T09:49:37.636Z</time></trkpt><trkpt lat="44.976473" lon="9.7858987"><ele>70.0</ele><time>2026-04-26T09:49:38.627Z</time></trkpt><trkpt lat="44.9765394" lon="9.7859352"><ele>70.0</ele><time>2026-04-26T09:49:39.627Z</time></trkpt><trkpt lat="44.9766056" lon="9.7859742"><ele>70.0</ele><time>2026-04-26T09:49:40.644Z</time></trkpt><trkpt lat="44.9766727" lon="9.7860077"><ele>70.0</ele><time>2026-04-26T09:49:41.621Z</time></trkpt><trkpt lat="44.9767388" lon="9.7860393"><ele>70.0</ele><time>2026-04-26T09:49:42.635Z</time></trkpt><trkpt lat="44.9768046" lon="9.786075"><ele>70.0</ele><time>2026-04-26T09:49:43.634Z</time></trkpt><trkpt lat="44.9768693" lon="9.7861069"><ele>70.0</ele><time>2026-04-26T09:49:44.64Z</time></trkpt><trkpt lat="44.9769379" lon="9.7861394"><ele>70.0</ele><time>2026-04-26T09:49:45.632Z</time></trkpt><trkpt lat="44.9770028" lon="9.7861717"><ele>69.85714285714286</ele><time>2026-04-26T09:49:46.627Z</time></trkpt><trkpt lat="44.9770669" lon="9.7862081"><ele>69.71428571428572</ele><time>2026-04-26T09:49:47.632Z</time></trkpt><trkpt lat="44.9771323" lon="9.7862454"><ele>69.57142857142857</ele><time>2026-04-26T09:49:48.629Z</time></trkpt><trkpt lat="44.9772011" lon="9.7862798"><ele>69.42857142857143</ele><time>2026-04-26T09:49:49.638Z</time></trkpt><trkpt lat="44.9772653" lon="9.7863139"><ele>69.28571428571429</ele><time>2026-04-26T09:49:50.638Z</time></trkpt><trkpt lat="44.9773288" lon="9.7863507"><ele>69.14285714285714</ele><time>2026-04-26T09:49:51.613Z</time></trkpt><trkpt lat="44.9773962" lon="9.7863825"><ele>69.0</ele><time>2026-04-26T09:49:52.628Z</time></trkpt><trkpt lat="44.9774627" lon="9.7864136"><ele>69.28571428571429</ele><time>2026-04-26T09:49:53.625Z</time></trkpt><trkpt lat="44.9775294" lon="9.7864445"><ele>69.57142857142858</ele><time>2026-04-26T09:49:54.638Z</time></trkpt><trkpt lat="44.9775971" lon="9.7864816"><ele>69.85714285714286</ele><time>2026-04-26T09:49:55.63Z</time></trkpt><trkpt lat="44.9776629" lon="9.7865155"><ele>70.14285714285714</ele><time>2026-04-26T09:49:56.633Z</time></trkpt><trkpt lat="44.9777272" lon="9.7865453"><ele>70.42857142857142</ele><time>2026-04-26T09:49:57.629Z</time></trkpt><trkpt lat="44.9777921" lon="9.7865772"><ele>70.71428571428571</ele><time>2026-04-26T09:49:58.635Z</time></trkpt><trkpt lat="44.9778558" lon="9.7866125"><ele>71.0</ele><time>2026-04-26T09:49:59.633Z</time></trkpt><trkpt lat="44.977919" lon="9.7866448"><ele>71.0</ele><time>2026-04-26T09:50:00.618Z</time></trkpt><trkpt lat="44.9779772" lon="9.7866801"><ele>71.0</ele><time>2026-04-26T09:50:01.617Z</time></trkpt><trkpt lat="44.9780387" lon="9.7867122"><ele>71.0</ele><time>2026-04-26T09:50:02.609Z</time></trkpt><trkpt lat="44.9780997" lon="9.7867446"><ele>71.0</ele><time>2026-04-26T09:50:03.622Z</time></trkpt><trkpt lat="44.9781623" lon="9.786776"><ele>71.0</ele><time>2026-04-26T09:50:04.63Z</time></trkpt><trkpt lat="44.9782264" lon="9.7868119"><ele>71.0</ele><time>2026-04-26T09:50:05.625Z</time></trkpt><trkpt lat="44.9782916" lon="9.7868495"><ele>71.0</ele><time>2026-04-26T09:50:06.628Z</time></trkpt><trkpt lat="44.9783515" lon="9.7868861"><ele>70.71428571428571</ele><time>2026-04-26T09:50:07.63Z</time></trkpt><trkpt lat="44.9784166" lon="9.7869185"><ele>70.42857142857142</ele><time>2026-04-26T09:50:08.612Z</time></trkpt><trkpt lat="44.9784822" lon="9.7869474"><ele>70.14285714285714</ele><time>2026-04-26T09:50:09.622Z</time></trkpt><trkpt lat="44.9785439" lon="9.7869792"><ele>69.85714285714286</ele><time>2026-04-26T09:50:10.624Z</time></trkpt><trkpt lat="44.9786053" lon="9.7870116"><ele>69.57142857142858</ele><time>2026-04-26T09:50:11.621Z</time></trkpt><trkpt lat="44.978666" lon="9.7870476"><ele>69.28571428571429</ele><time>2026-04-26T09:50:12.622Z</time></trkpt><trkpt lat="44.9787265" lon="9.787077"><ele>69.0</ele><time>2026-04-26T09:50:13.634Z</time></trkpt><trkpt lat="44.9787849" lon="9.7871113"><ele>69.0</ele><time>2026-04-26T09:50:14.624Z</time></trkpt><trkpt lat="44.9788465" lon="9.7871428"><ele>69.0</ele><time>2026-04-26T09:50:15.633Z</time></trkpt><trkpt lat="44.9789649" lon="9.7872037"><ele>69.0</ele><time>2026-04-26T09:50:17.627Z</time></trkpt><trkpt lat="44.9790267" lon="9.7872314"><ele>69.0</ele><time>2026-04-26T09:50:18.634Z</time></trkpt><trkpt lat="44.97909" lon="9.7872613"><ele>69.0</ele><time>2026-04-26T09:50:19.621Z</time></trkpt><trkpt lat="44.979151" lon="9.7872969"><ele>69.0</ele><time>2026-04-26T09:50:20.641Z</time></trkpt><trkpt lat="44.9792138" lon="9.7873304"><ele>68.83333333333333</ele><time>2026-04-26T09:50:21.635Z</time></trkpt><trkpt lat="44.9792754" lon="9.7873637"><ele>68.66666666666667</ele><time>2026-04-26T09:50:22.626Z</time></trkpt><trkpt lat="44.9793374" lon="9.7873929"><ele>68.5</ele><time>2026-04-26T09:50:23.632Z</time></trkpt><trkpt lat="44.9793997" lon="9.787419"><ele>68.33333333333334</ele><time>2026-04-26T09:50:24.631Z</time></trkpt><trkpt lat="44.9795236" lon="9.7874395"><ele>68.16666666666667</ele><time>2026-04-26T09:50:26.628Z</time></trkpt><trkpt lat="44.9796452" lon="9.7873889"><ele>68.0</ele><time>2026-04-26T09:50:28.629Z</time></trkpt><trkpt lat="44.9796989" lon="9.7873375"><ele>67.99999999999999</ele><time>2026-04-26T09:50:29.628Z</time></trkpt><trkpt lat="44.9797466" lon="9.7872717"><ele>68.0</ele><time>2026-04-26T09:50:30.635Z</time></trkpt><trkpt lat="44.9797846" lon="9.7871924"><ele>68.0</ele><time>2026-04-26T09:50:31.632Z</time></trkpt><trkpt lat="44.9798257" lon="9.7871151"><ele>68.0</ele><time>2026-04-26T09:50:32.62Z</time></trkpt><trkpt lat="44.9798754" lon="9.7870398"><ele>68.0</ele><time>2026-04-26T09:50:33.638Z</time></trkpt><trkpt lat="44.9799319" lon="9.7869823"><ele>67.99999999999999</ele><time>2026-04-26T09:50:34.627Z</time></trkpt><trkpt lat="44.9799915" lon="9.7869423"><ele>68.0</ele><time>2026-04-26T09:50:35.631Z</time></trkpt><trkpt lat="44.9801216" lon="9.7869085"><ele>67.71428571428571</ele><time>2026-04-26T09:50:37.618Z</time></trkpt><trkpt lat="44.9801902" lon="9.7869153"><ele>67.42857142857143</ele><time>2026-04-26T09:50:38.644Z</time></trkpt><trkpt lat="44.9802533" lon="9.786939"><ele>67.14285714285714</ele><time>2026-04-26T09:50:39.628Z</time></trkpt><trkpt lat="44.980315" lon="9.7869744"><ele>66.85714285714286</ele><time>2026-04-26T09:50:40.631Z</time></trkpt><trkpt lat="44.9803786" lon="9.7870188"><ele>66.57142857142857</ele><time>2026-04-26T09:50:41.622Z</time></trkpt><trkpt lat="44.9804347" lon="9.7870665"><ele>66.28571428571428</ele><time>2026-04-26T09:50:42.617Z</time></trkpt><trkpt lat="44.9804892" lon="9.7871119"><ele>66.0</ele><time>2026-04-26T09:50:43.625Z</time></trkpt><trkpt lat="44.9805444" lon="9.7871613"><ele>66.0</ele><time>2026-04-26T09:50:44.632Z</time></trkpt><trkpt lat="44.9806028" lon="9.7872093"><ele>66.0</ele><time>2026-04-26T09:50:45.632Z</time></trkpt><trkpt lat="44.9806614" lon="9.7872545"><ele>66.0</ele><time>2026-04-26T09:50:46.636Z</time></trkpt><trkpt lat="44.980719" lon="9.7873026"><ele>66.0</ele><time>2026-04-26T09:50:47.63Z</time></trkpt><trkpt lat="44.9807758" lon="9.7873471"><ele>66.0</ele><time>2026-04-26T09:50:48.639Z</time></trkpt><trkpt lat="44.980832" lon="9.7873918"><ele>66.0</ele><time>2026-04-26T09:50:49.626Z</time></trkpt><trkpt lat="44.9808931" lon="9.7874359"><ele>66.0</ele><time>2026-04-26T09:50:50.632Z</time></trkpt><trkpt lat="44.980953" lon="9.7874772"><ele>66.0</ele><time>2026-04-26T09:50:51.625Z</time></trkpt><trkpt lat="44.9810106" lon="9.7875242"><ele>66.0</ele><time>2026-04-26T09:50:52.634Z</time></trkpt><trkpt lat="44.9810685" lon="9.7875731"><ele>66.0</ele><time>2026-04-26T09:50:53.628Z</time></trkpt><trkpt lat="44.9811285" lon="9.7876194"><ele>66.0</ele><time>2026-04-26T09:50:54.626Z</time></trkpt><trkpt lat="44.9811882" lon="9.7876635"><ele>66.0</ele><time>2026-04-26T09:50:55.624Z</time></trkpt><trkpt lat="44.9812492" lon="9.7877045"><ele>66.0</ele><time>2026-04-26T09:50:56.636Z</time></trkpt><trkpt lat="44.9813098" lon="9.7877508"><ele>66.0</ele><time>2026-04-26T09:50:57.633Z</time></trkpt><trkpt lat="44.9813692" lon="9.7877959"><ele>66.0</ele><time>2026-04-26T09:50:58.639Z</time></trkpt><trkpt lat="44.981426" lon="9.7878429"><ele>66.0</ele><time>2026-04-26T09:50:59.63Z</time></trkpt><trkpt lat="44.9814837" lon="9.7878901"><ele>66.0</ele><time>2026-04-26T09:51:00.642Z</time></trkpt><trkpt lat="44.9815421" lon="9.7879331"><ele>66.0</ele><time>2026-04-26T09:51:01.621Z</time></trkpt><trkpt lat="44.9816023" lon="9.7879813"><ele>66.0</ele><time>2026-04-26T09:51:02.632Z</time></trkpt><trkpt lat="44.9816614" lon="9.7880248"><ele>66.0</ele><time>2026-04-26T09:51:03.62Z</time></trkpt><trkpt lat="44.9817232" lon="9.7880699"><ele>66.0</ele><time>2026-04-26T09:51:04.632Z</time></trkpt><trkpt lat="44.9817844" lon="9.7881155"><ele>66.0</ele><time>2026-04-26T09:51:05.638Z</time></trkpt><trkpt lat="44.9818436" lon="9.7881668"><ele>66.0</ele><time>2026-04-26T09:51:06.632Z</time></trkpt><trkpt lat="44.9819031" lon="9.7882139"><ele>66.0</ele><time>2026-04-26T09:51:07.632Z</time></trkpt><trkpt lat="44.9819622" lon="9.7882597"><ele>66.0</ele><time>2026-04-26T09:51:08.615Z</time></trkpt><trkpt lat="44.982023" lon="9.788305"><ele>66.0</ele><time>2026-04-26T09:51:09.624Z</time></trkpt><trkpt lat="44.9820822" lon="9.7883502"><ele>66.0</ele><time>2026-04-26T09:51:10.63Z</time></trkpt><trkpt lat="44.9821463" lon="9.7883946"><ele>66.0</ele><time>2026-04-26T09:51:11.629Z</time></trkpt><trkpt lat="44.9822048" lon="9.7884402"><ele>66.0</ele><time>2026-04-26T09:51:12.633Z</time></trkpt><trkpt lat="44.9822645" lon="9.7884877"><ele>66.0</ele><time>2026-04-26T09:51:13.62Z</time></trkpt><trkpt lat="44.9823254" lon="9.7885327"><ele>66.0</ele><time>2026-04-26T09:51:14.614Z</time></trkpt><trkpt lat="44.9823821" lon="9.7885776"><ele>66.0</ele><time>2026-04-26T09:51:15.634Z</time></trkpt><trkpt lat="44.9824416" lon="9.788622"><ele>66.0</ele><time>2026-04-26T09:51:16.64Z</time></trkpt><trkpt lat="44.9824991" lon="9.7886687"><ele>66.0</ele><time>2026-04-26T09:51:17.607Z</time></trkpt><trkpt lat="44.9825577" lon="9.7887156"><ele>66.0</ele><time>2026-04-26T09:51:18.622Z</time></trkpt><trkpt lat="44.982619" lon="9.7887573"><ele>66.0</ele><time>2026-04-26T09:51:19.633Z</time></trkpt><trkpt lat="44.9826831" lon="9.7887858"><ele>66.0</ele><time>2026-04-26T09:51:20.642Z</time></trkpt><trkpt lat="44.9827439" lon="9.7888124"><ele>66.0</ele><time>2026-04-26T09:51:21.613Z</time></trkpt><trkpt lat="44.9828699" lon="9.7888085"><ele>66.0</ele><time>2026-04-26T09:51:23.627Z</time></trkpt><trkpt lat="44.9829336" lon="9.7887681"><ele>66.0</ele><time>2026-04-26T09:51:24.629Z</time></trkpt><trkpt lat="44.9829882" lon="9.7887129"><ele>66.0</ele><time>2026-04-26T09:51:25.631Z</time></trkpt><trkpt lat="44.9830409" lon="9.7886558"><ele>66.0</ele><time>2026-04-26T09:51:26.628Z</time></trkpt><trkpt lat="44.983096" lon="9.7886"><ele>66.0</ele><time>2026-04-26T09:51:27.63Z</time></trkpt><trkpt lat="44.9831587" lon="9.7885459"><ele>66.0</ele><time>2026-04-26T09:51:28.628Z</time></trkpt><trkpt lat="44.9832284" lon="9.7885163"><ele>66.0</ele><time>2026-04-26T09:51:29.632Z</time></trkpt><trkpt lat="44.9832948" lon="9.7885039"><ele>66.0</ele><time>2026-04-26T09:51:30.634Z</time></trkpt><trkpt lat="44.9833664" lon="9.7885174"><ele>66.0</ele><time>2026-04-26T09:51:31.628Z</time></trkpt><trkpt lat="44.9834305" lon="9.7885413"><ele>66.0</ele><time>2026-04-26T09:51:32.627Z</time></trkpt><trkpt lat="44.9834945" lon="9.7885641"><ele>65.85714285714286</ele><time>2026-04-26T09:51:33.629Z</time></trkpt><trkpt lat="44.9835586" lon="9.7885824"><ele>65.71428571428572</ele><time>2026-04-26T09:51:34.627Z</time></trkpt><trkpt lat="44.9836253" lon="9.7886074"><ele>65.57142857142858</ele><time>2026-04-26T09:51:35.63Z</time></trkpt><trkpt lat="44.9836889" lon="9.7886303"><ele>65.42857142857143</ele><time>2026-04-26T09:51:36.634Z</time></trkpt><trkpt lat="44.9837527" lon="9.7886515"><ele>65.28571428571429</ele><time>2026-04-26T09:51:37.633Z</time></trkpt><trkpt lat="44.9838178" lon="9.7886734"><ele>65.14285714285715</ele><time>2026-04-26T09:51:38.623Z</time></trkpt><trkpt lat="44.9838863" lon="9.788695"><ele>65.0</ele><time>2026-04-26T09:51:39.629Z</time></trkpt><trkpt lat="44.9839508" lon="9.7887142"><ele>65.00000000000001</ele><time>2026-04-26T09:51:40.629Z</time></trkpt><trkpt lat="44.9840188" lon="9.7887386"><ele>65.0</ele><time>2026-04-26T09:51:41.627Z</time></trkpt><trkpt lat="44.9840854" lon="9.7887642"><ele>65.0</ele><time>2026-04-26T09:51:42.632Z</time></trkpt><trkpt lat="44.9841512" lon="9.788791"><ele>65.0</ele><time>2026-04-26T09:51:43.627Z</time></trkpt><trkpt lat="44.9842181" lon="9.7888171"><ele>65.0</ele><time>2026-04-26T09:51:44.622Z</time></trkpt><trkpt lat="44.9842854" lon="9.7888437"><ele>65.00000000000001</ele><time>2026-04-26T09:51:45.643Z</time></trkpt><trkpt lat="44.984352" lon="9.788865"><ele>65.0</ele><time>2026-04-26T09:51:46.628Z</time></trkpt><trkpt lat="44.9844177" lon="9.7888863"><ele>64.57142857142858</ele><time>2026-04-26T09:51:47.642Z</time></trkpt><trkpt lat="44.9844874" lon="9.7889096"><ele>64.14285714285714</ele><time>2026-04-26T09:51:48.635Z</time></trkpt><trkpt lat="44.9845545" lon="9.7889324"><ele>63.71428571428572</ele><time>2026-04-26T09:51:49.612Z</time></trkpt><trkpt lat="44.9846217" lon="9.788955"><ele>63.28571428571429</ele><time>2026-04-26T09:51:50.627Z</time></trkpt><trkpt lat="44.9846902" lon="9.7889779"><ele>62.85714285714286</ele><time>2026-04-26T09:51:51.639Z</time></trkpt><trkpt lat="44.9847542" lon="9.7889982"><ele>62.42857142857143</ele><time>2026-04-26T09:51:52.62Z</time></trkpt><trkpt lat="44.9848169" lon="9.7890186"><ele>62.0</ele><time>2026-04-26T09:51:53.641Z</time></trkpt><trkpt lat="44.9848807" lon="9.7890423"><ele>62.0</ele><time>2026-04-26T09:51:54.629Z</time></trkpt><trkpt lat="44.9849443" lon="9.7890673"><ele>62.00000000000001</ele><time>2026-04-26T09:51:55.629Z</time></trkpt><trkpt lat="44.985012" lon="9.7890883"><ele>62.0</ele><time>2026-04-26T09:51:56.631Z</time></trkpt><trkpt lat="44.9850753" lon="9.7891134"><ele>62.0</ele><time>2026-04-26T09:51:57.635Z</time></trkpt><trkpt lat="44.9851409" lon="9.7891382"><ele>62.00000000000001</ele><time>2026-04-26T09:51:58.598Z</time></trkpt><trkpt lat="44.9852045" lon="9.7891633"><ele>62.0</ele><time>2026-04-26T09:51:59.612Z</time></trkpt><trkpt lat="44.9852665" lon="9.7891877"><ele>62.0</ele><time>2026-04-26T09:52:00.643Z</time></trkpt><trkpt lat="44.9853311" lon="9.7892069"><ele>62.28571428571429</ele><time>2026-04-26T09:52:01.63Z</time></trkpt><trkpt lat="44.9853947" lon="9.7892322"><ele>62.57142857142858</ele><time>2026-04-26T09:52:02.632Z</time></trkpt><trkpt lat="44.9854588" lon="9.789254"><ele>62.85714285714286</ele><time>2026-04-26T09:52:03.625Z</time></trkpt><trkpt lat="44.9855227" lon="9.7892629"><ele>63.14285714285714</ele><time>2026-04-26T09:52:04.637Z</time></trkpt><trkpt lat="44.9855903" lon="9.789256"><ele>63.42857142857142</ele><time>2026-04-26T09:52:05.626Z</time></trkpt><trkpt lat="44.9856594" lon="9.7892422"><ele>63.71428571428571</ele><time>2026-04-26T09:52:06.632Z</time></trkpt><trkpt lat="44.9857282" lon="9.7892122"><ele>64.0</ele><time>2026-04-26T09:52:07.61Z</time></trkpt><trkpt lat="44.985794" lon="9.7891721"><ele>64.28571428571428</ele><time>2026-04-26T09:52:08.623Z</time></trkpt><trkpt lat="44.9858477" lon="9.7891119"><ele>64.57142857142857</ele><time>2026-04-26T09:52:09.626Z</time></trkpt><trkpt lat="44.9858974" lon="9.7890436"><ele>64.85714285714286</ele><time>2026-04-26T09:52:10.634Z</time></trkpt><trkpt lat="44.9859377" lon="9.7889569"><ele>65.14285714285714</ele><time>2026-04-26T09:52:11.629Z</time></trkpt><trkpt lat="44.9859693" lon="9.788864"><ele>65.42857142857143</ele><time>2026-04-26T09:52:12.628Z</time></trkpt><trkpt lat="44.9859934" lon="9.788772"><ele>65.71428571428571</ele><time>2026-04-26T09:52:13.617Z</time></trkpt><trkpt lat="44.986016" lon="9.7886698"><ele>66.0</ele><time>2026-04-26T09:52:14.627Z</time></trkpt><trkpt lat="44.9860324" lon="9.7885755"><ele>66.0</ele><time>2026-04-26T09:52:15.629Z</time></trkpt><trkpt lat="44.9860484" lon="9.7884866"><ele>66.0</ele><time>2026-04-26T09:52:16.633Z</time></trkpt><trkpt lat="44.9860769" lon="9.7883068"><ele>66.0</ele><time>2026-04-26T09:52:18.642Z</time></trkpt><trkpt lat="44.9860937" lon="9.7882139"><ele>66.0</ele><time>2026-04-26T09:52:19.627Z</time></trkpt><trkpt lat="44.9861225" lon="9.788043"><ele>66.0</ele><time>2026-04-26T09:52:21.631Z</time></trkpt><trkpt lat="44.98615" lon="9.7878612"><ele>66.0</ele><time>2026-04-26T09:52:23.627Z</time></trkpt><trkpt lat="44.9861655" lon="9.7877662"><ele>66.0</ele><time>2026-04-26T09:52:24.627Z</time></trkpt><trkpt lat="44.9861782" lon="9.7876723"><ele>66.0</ele><time>2026-04-26T09:52:25.625Z</time></trkpt><trkpt lat="44.9861961" lon="9.787584"><ele>66.0</ele><time>2026-04-26T09:52:26.63Z</time></trkpt><trkpt lat="44.9862166" lon="9.787497"><ele>66.0</ele><time>2026-04-26T09:52:27.644Z</time></trkpt><trkpt lat="44.9862378" lon="9.7874073"><ele>66.0</ele><time>2026-04-26T09:52:28.63Z</time></trkpt><trkpt lat="44.9862729" lon="9.7873302"><ele>66.0</ele><time>2026-04-26T09:52:29.628Z</time></trkpt><trkpt lat="44.9863191" lon="9.7872618"><ele>65.57142857142857</ele><time>2026-04-26T09:52:30.636Z</time></trkpt><trkpt lat="44.9863726" lon="9.7872074"><ele>65.14285714285714</ele><time>2026-04-26T09:52:31.623Z</time></trkpt><trkpt lat="44.9864311" lon="9.7871664"><ele>64.71428571428572</ele><time>2026-04-26T09:52:32.627Z</time></trkpt><trkpt lat="44.9864942" lon="9.7871344"><ele>64.28571428571428</ele><time>2026-04-26T09:52:33.624Z</time></trkpt><trkpt lat="44.9865622" lon="9.7871272"><ele>63.85714285714286</ele><time>2026-04-26T09:52:34.634Z</time></trkpt><trkpt lat="44.9866279" lon="9.7871296"><ele>63.42857142857143</ele><time>2026-04-26T09:52:35.643Z</time></trkpt><trkpt lat="44.9866967" lon="9.7871489"><ele>63.0</ele><time>2026-04-26T09:52:36.64Z</time></trkpt><trkpt lat="44.986768" lon="9.7871716"><ele>62.85714285714286</ele><time>2026-04-26T09:52:37.63Z</time></trkpt><trkpt lat="44.9868319" lon="9.7871926"><ele>62.714285714285715</ele><time>2026-04-26T09:52:38.647Z</time></trkpt><trkpt lat="44.9868951" lon="9.7872128"><ele>62.57142857142857</ele><time>2026-04-26T09:52:39.63Z</time></trkpt><trkpt lat="44.9869576" lon="9.7872349"><ele>62.42857142857143</ele><time>2026-04-26T09:52:40.634Z</time></trkpt><trkpt lat="44.9870238" lon="9.7872613"><ele>62.28571428571429</ele><time>2026-04-26T09:52:41.633Z</time></trkpt><trkpt lat="44.9870919" lon="9.7872852"><ele>62.142857142857146</ele><time>2026-04-26T09:52:42.628Z</time></trkpt><trkpt lat="44.9871597" lon="9.7873017"><ele>62.0</ele><time>2026-04-26T09:52:43.617Z</time></trkpt><trkpt lat="44.987226" lon="9.7873267"><ele>62.0</ele><time>2026-04-26T09:52:44.626Z</time></trkpt><trkpt lat="44.9872894" lon="9.7873506"><ele>62.00000000000001</ele><time>2026-04-26T09:52:45.626Z</time></trkpt><trkpt lat="44.9873531" lon="9.7873767"><ele>62.0</ele><time>2026-04-26T09:52:46.64Z</time></trkpt><trkpt lat="44.9874213" lon="9.7873989"><ele>62.0</ele><time>2026-04-26T09:52:47.623Z</time></trkpt><trkpt lat="44.9874872" lon="9.7874194"><ele>62.00000000000001</ele><time>2026-04-26T09:52:48.629Z</time></trkpt><trkpt lat="44.9875569" lon="9.7874416"><ele>62.0</ele><time>2026-04-26T09:52:49.632Z</time></trkpt><trkpt lat="44.9876266" lon="9.7874641"><ele>62.0</ele><time>2026-04-26T09:52:50.633Z</time></trkpt><trkpt lat="44.9876924" lon="9.7874898"><ele>62.0</ele><time>2026-04-26T09:52:51.637Z</time></trkpt><trkpt lat="44.9877598" lon="9.7875112"><ele>62.00000000000001</ele><time>2026-04-26T09:52:52.636Z</time></trkpt><trkpt lat="44.9878269" lon="9.7875368"><ele>62.0</ele><time>2026-04-26T09:52:53.627Z</time></trkpt><trkpt lat="44.9878919" lon="9.7875602"><ele>62.0</ele><time>2026-04-26T09:52:54.633Z</time></trkpt><trkpt lat="44.987959" lon="9.7875876"><ele>62.00000000000001</ele><time>2026-04-26T09:52:55.633Z</time></trkpt><trkpt lat="44.9880234" lon="9.7876069"><ele>62.0</ele><time>2026-04-26T09:52:56.634Z</time></trkpt><trkpt lat="44.9880874" lon="9.7876301"><ele>62.0</ele><time>2026-04-26T09:52:57.627Z</time></trkpt><trkpt lat="44.9881529" lon="9.7876499"><ele>62.00000000000001</ele><time>2026-04-26T09:52:58.632Z</time></trkpt><trkpt lat="44.9882193" lon="9.787673"><ele>62.0</ele><time>2026-04-26T09:52:59.625Z</time></trkpt><trkpt lat="44.9883449" lon="9.7877233"><ele>62.0</ele><time>2026-04-26T09:53:01.631Z</time></trkpt><trkpt lat="44.9884111" lon="9.7877467"><ele>62.0</ele><time>2026-04-26T09:53:02.627Z</time></trkpt><trkpt lat="44.9884744" lon="9.7877714"><ele>62.00000000000001</ele><time>2026-04-26T09:53:03.639Z</time></trkpt><trkpt lat="44.9885368" lon="9.7877959"><ele>62.0</ele><time>2026-04-26T09:53:04.631Z</time></trkpt><trkpt lat="44.9886009" lon="9.7878197"><ele>62.2</ele><time>2026-04-26T09:53:05.615Z</time></trkpt><trkpt lat="44.9886695" lon="9.7878394"><ele>62.400000000000006</ele><time>2026-04-26T09:53:06.631Z</time></trkpt><trkpt lat="44.9887325" lon="9.7878627"><ele>62.599999999999994</ele><time>2026-04-26T09:53:07.628Z</time></trkpt><trkpt lat="44.9888567" lon="9.7879031"><ele>62.8</ele><time>2026-04-26T09:53:09.631Z</time></trkpt><trkpt lat="44.9889773" lon="9.7879396"><ele>63.0</ele><time>2026-04-26T09:53:11.627Z</time></trkpt><trkpt lat="44.9890427" lon="9.7879576"><ele>63.0</ele><time>2026-04-26T09:53:12.635Z</time></trkpt><trkpt lat="44.9891059" lon="9.7879745"><ele>63.0</ele><time>2026-04-26T09:53:13.609Z</time></trkpt><trkpt lat="44.9891722" lon="9.7879957"><ele>63.0</ele><time>2026-04-26T09:53:14.622Z</time></trkpt><trkpt lat="44.9892405" lon="9.78802"><ele>63.0</ele><time>2026-04-26T09:53:15.63Z</time></trkpt><trkpt lat="44.9893075" lon="9.788034"><ele>63.0</ele><time>2026-04-26T09:53:16.646Z</time></trkpt><trkpt lat="44.989376" lon="9.7880511"><ele>63.0</ele><time>2026-04-26T09:53:17.627Z</time></trkpt><trkpt lat="44.989444" lon="9.788067"><ele>63.0</ele><time>2026-04-26T09:53:18.623Z</time></trkpt><trkpt lat="44.9895119" lon="9.7880797"><ele>63.0</ele><time>2026-04-26T09:53:19.631Z</time></trkpt><trkpt lat="44.9895774" lon="9.7880979"><ele>63.0</ele><time>2026-04-26T09:53:20.625Z</time></trkpt><trkpt lat="44.9896437" lon="9.788115"><ele>63.0</ele><time>2026-04-26T09:53:21.63Z</time></trkpt><trkpt lat="44.9897116" lon="9.7881322"><ele>63.0</ele><time>2026-04-26T09:53:22.628Z</time></trkpt><trkpt lat="44.9897773" lon="9.7881482"><ele>63.0</ele><time>2026-04-26T09:53:23.632Z</time></trkpt><trkpt lat="44.9898417" lon="9.7881632"><ele>63.0</ele><time>2026-04-26T09:53:24.631Z</time></trkpt><trkpt lat="44.9899069" lon="9.7881737"><ele>63.0</ele><time>2026-04-26T09:53:25.612Z</time></trkpt><trkpt lat="44.9899733" lon="9.7881888"><ele>63.285714285714285</ele><time>2026-04-26T09:53:26.641Z</time></trkpt><trkpt lat="44.9900397" lon="9.788203"><ele>63.57142857142857</ele><time>2026-04-26T09:53:27.626Z</time></trkpt><trkpt lat="44.9901047" lon="9.7882146"><ele>63.85714285714286</ele><time>2026-04-26T09:53:28.634Z</time></trkpt><trkpt lat="44.9901696" lon="9.7882261"><ele>64.14285714285714</ele><time>2026-04-26T09:53:29.632Z</time></trkpt><trkpt lat="44.9902367" lon="9.7882424"><ele>64.42857142857143</ele><time>2026-04-26T09:53:30.635Z</time></trkpt><trkpt lat="44.9903022" lon="9.7882554"><ele>64.71428571428572</ele><time>2026-04-26T09:53:31.624Z</time></trkpt><trkpt lat="44.9903698" lon="9.7882657"><ele>65.0</ele><time>2026-04-26T09:53:32.624Z</time></trkpt><trkpt lat="44.9904382" lon="9.7882814"><ele>65.00000000000001</ele><time>2026-04-26T09:53:33.631Z</time></trkpt><trkpt lat="44.9905052" lon="9.7883002"><ele>65.0</ele><time>2026-04-26T09:53:34.636Z</time></trkpt><trkpt lat="44.9905691" lon="9.7883154"><ele>65.0</ele><time>2026-04-26T09:53:35.639Z</time></trkpt><trkpt lat="44.9906336" lon="9.7883265"><ele>65.0</ele><time>2026-04-26T09:53:36.626Z</time></trkpt><trkpt lat="44.9907015" lon="9.7883336"><ele>65.0</ele><time>2026-04-26T09:53:37.626Z</time></trkpt><trkpt lat="44.9907693" lon="9.7883429"><ele>65.00000000000001</ele><time>2026-04-26T09:53:38.643Z</time></trkpt><trkpt lat="44.9908387" lon="9.7883553"><ele>65.0</ele><time>2026-04-26T09:53:39.645Z</time></trkpt><trkpt lat="44.9909014" lon="9.7883714"><ele>65.0</ele><time>2026-04-26T09:53:40.643Z</time></trkpt><trkpt lat="44.9909675" lon="9.7883837"><ele>65.0</ele><time>2026-04-26T09:53:41.64Z</time></trkpt><trkpt lat="44.9910348" lon="9.7883971"><ele>65.0</ele><time>2026-04-26T09:53:42.627Z</time></trkpt><trkpt lat="44.9911012" lon="9.7884086"><ele>65.0</ele><time>2026-04-26T09:53:43.634Z</time></trkpt><trkpt lat="44.9912194" lon="9.7884273"><ele>65.0</ele><time>2026-04-26T09:53:45.634Z</time></trkpt><trkpt lat="44.9912905" lon="9.7884311"><ele>65.0</ele><time>2026-04-26T09:53:46.636Z</time></trkpt><trkpt lat="44.9913562" lon="9.7884433"><ele>65.00000000000001</ele><time>2026-04-26T09:53:47.629Z</time></trkpt><trkpt lat="44.9914204" lon="9.7884526"><ele>65.0</ele><time>2026-04-26T09:53:48.649Z</time></trkpt><trkpt lat="44.991488" lon="9.7884625"><ele>65.0</ele><time>2026-04-26T09:53:49.642Z</time></trkpt><trkpt lat="44.9915554" lon="9.7884744"><ele>65.0</ele><time>2026-04-26T09:53:50.625Z</time></trkpt><trkpt lat="44.9916219" lon="9.7884805"><ele>65.0</ele><time>2026-04-26T09:53:51.633Z</time></trkpt><trkpt lat="44.9916887" lon="9.7884978"><ele>65.00000000000001</ele><time>2026-04-26T09:53:52.632Z</time></trkpt><trkpt lat="44.9917555" lon="9.7885093"><ele>65.0</ele><time>2026-04-26T09:53:53.638Z</time></trkpt><trkpt lat="44.9918243" lon="9.7885179"><ele>64.8</ele><time>2026-04-26T09:53:54.631Z</time></trkpt><trkpt lat="44.9918911" lon="9.7885237"><ele>64.6</ele><time>2026-04-26T09:53:55.604Z</time></trkpt><trkpt lat="44.9919548" lon="9.7885362"><ele>64.4</ele><time>2026-04-26T09:53:56.632Z</time></trkpt><trkpt lat="44.9920826" lon="9.7885571"><ele>64.2</ele><time>2026-04-26T09:53:58.633Z</time></trkpt><trkpt lat="44.9921457" lon="9.7885681"><ele>64.0</ele><time>2026-04-26T09:53:59.633Z</time></trkpt><trkpt lat="44.9922731" lon="9.7885882"><ele>63.99999999999999</ele><time>2026-04-26T09:54:01.628Z</time></trkpt><trkpt lat="44.9923373" lon="9.7886005"><ele>64.0</ele><time>2026-04-26T09:54:02.635Z</time></trkpt><trkpt lat="44.9924547" lon="9.7886397"><ele>64.0</ele><time>2026-04-26T09:54:04.633Z</time></trkpt><trkpt lat="44.9925772" lon="9.7886612"><ele>64.0</ele><time>2026-04-26T09:54:06.609Z</time></trkpt><trkpt lat="44.9926419" lon="9.7886743"><ele>63.99999999999999</ele><time>2026-04-26T09:54:07.642Z</time></trkpt><trkpt lat="44.9927077" lon="9.7886868"><ele>64.0</ele><time>2026-04-26T09:54:08.638Z</time></trkpt><trkpt lat="44.9927714" lon="9.7886936"><ele>64.0</ele><time>2026-04-26T09:54:09.631Z</time></trkpt><trkpt lat="44.9928891" lon="9.7887063"><ele>64.0</ele><time>2026-04-26T09:54:11.639Z</time></trkpt><trkpt lat="44.9930025" lon="9.7887259"><ele>64.0</ele><time>2026-04-26T09:54:13.634Z</time></trkpt><trkpt lat="44.9931016" lon="9.7887417"><ele>64.0</ele><time>2026-04-26T09:54:15.637Z</time></trkpt><trkpt lat="44.9932033" lon="9.7887516"><ele>64.0</ele><time>2026-04-26T09:54:17.636Z</time></trkpt><trkpt lat="44.9932729" lon="9.788663"><ele>64.0</ele><time>2026-04-26T09:54:19.632Z</time></trkpt><trkpt lat="44.9932921" lon="9.7885112"><ele>64.0</ele><time>2026-04-26T09:54:21.593Z</time></trkpt><trkpt lat="44.993279" lon="9.788351"><ele>64.0</ele><time>2026-04-26T09:54:23.635Z</time></trkpt><trkpt lat="44.9933235" lon="9.7882054"><ele>64.0</ele><time>2026-04-26T09:54:25.603Z</time></trkpt><trkpt lat="44.99341" lon="9.7880937"><ele>64.2</ele><time>2026-04-26T09:54:27.599Z</time></trkpt><trkpt lat="44.9934525" lon="9.7880251"><ele>64.4</ele><time>2026-04-26T09:54:28.595Z</time></trkpt><trkpt lat="44.9935246" lon="9.7878764"><ele>64.6</ele><time>2026-04-26T09:54:30.63Z</time></trkpt><trkpt lat="44.9936011" lon="9.7877389"><ele>64.8</ele><time>2026-04-26T09:54:32.614Z</time></trkpt><trkpt lat="44.9936452" lon="9.7876661"><ele>65.0</ele><time>2026-04-26T09:54:33.634Z</time></trkpt><trkpt lat="44.993696" lon="9.7876032"><ele>65.2</ele><time>2026-04-26T09:54:34.621Z</time></trkpt><trkpt lat="44.9937417" lon="9.787522"><ele>65.4</ele><time>2026-04-26T09:54:35.631Z</time></trkpt><trkpt lat="44.9937888" lon="9.7874421"><ele>65.6</ele><time>2026-04-26T09:54:36.638Z</time></trkpt><trkpt lat="44.9938729" lon="9.7873136"><ele>65.8</ele><time>2026-04-26T09:54:38.623Z</time></trkpt><trkpt lat="44.9939118" lon="9.7872381"><ele>66.0</ele><time>2026-04-26T09:54:39.621Z</time></trkpt><trkpt lat="44.9939951" lon="9.7871012"><ele>66.0</ele><time>2026-04-26T09:54:41.621Z</time></trkpt><trkpt lat="44.9940745" lon="9.7869761"><ele>66.0</ele><time>2026-04-26T09:54:43.626Z</time></trkpt><trkpt lat="44.9941151" lon="9.7869034"><ele>66.0</ele><time>2026-04-26T09:54:44.62Z</time></trkpt><trkpt lat="44.9941876" lon="9.7867565"><ele>66.0</ele><time>2026-04-26T09:54:46.626Z</time></trkpt><trkpt lat="44.9942666" lon="9.7866227"><ele>66.0</ele><time>2026-04-26T09:54:48.639Z</time></trkpt><trkpt lat="44.9943436" lon="9.7864957"><ele>66.39999999999999</ele><time>2026-04-26T09:54:50.64Z</time></trkpt><trkpt lat="44.9944213" lon="9.7863527"><ele>66.8</ele><time>2026-04-26T09:54:52.624Z</time></trkpt><trkpt lat="44.9945058" lon="9.7862236"><ele>67.19999999999999</ele><time>2026-04-26T09:54:54.639Z</time></trkpt><trkpt lat="44.9945505" lon="9.7861567"><ele>67.6</ele><time>2026-04-26T09:54:55.624Z</time></trkpt><trkpt lat="44.9945923" lon="9.78609"><ele>68.0</ele><time>2026-04-26T09:54:56.631Z</time></trkpt><trkpt lat="44.994698" lon="9.7860151"><ele>68.0</ele><time>2026-04-26T09:54:58.633Z</time></trkpt><trkpt lat="44.9948129" lon="9.786029"><ele>68.0</ele><time>2026-04-26T09:55:00.637Z</time></trkpt><trkpt lat="44.9949398" lon="9.7860774"><ele>68.0</ele><time>2026-04-26T09:55:02.626Z</time></trkpt><trkpt lat="44.9950437" lon="9.7861496"><ele>68.0</ele><time>2026-04-26T09:55:04.634Z</time></trkpt><trkpt lat="44.99516" lon="9.7862215"><ele>67.75</ele><time>2026-04-26T09:55:06.631Z</time></trkpt><trkpt lat="44.9952739" lon="9.7862921"><ele>67.5</ele><time>2026-04-26T09:55:08.635Z</time></trkpt><trkpt lat="44.9953802" lon="9.7863616"><ele>67.25</ele><time>2026-04-26T09:55:10.636Z</time></trkpt><trkpt lat="44.9954923" lon="9.7864379"><ele>67.0</ele><time>2026-04-26T09:55:12.615Z</time></trkpt><trkpt lat="44.9956004" lon="9.7865055"><ele>67.0</ele><time>2026-04-26T09:55:14.621Z</time></trkpt><trkpt lat="44.9957108" lon="9.786572"><ele>67.0</ele><time>2026-04-26T09:55:16.64Z</time></trkpt><trkpt lat="44.9958131" lon="9.7866418"><ele>67.0</ele><time>2026-04-26T09:55:18.63Z</time></trkpt><trkpt lat="44.9959176" lon="9.7867063"><ele>67.0</ele><time>2026-04-26T09:55:20.633Z</time></trkpt><trkpt lat="44.9960179" lon="9.7867851"><ele>66.8</ele><time>2026-04-26T09:55:22.628Z</time></trkpt><trkpt lat="44.9961129" lon="9.7868675"><ele>66.6</ele><time>2026-04-26T09:55:24.635Z</time></trkpt><trkpt lat="44.9961988" lon="9.7869603"><ele>66.39999999999999</ele><time>2026-04-26T09:55:26.635Z</time></trkpt><trkpt lat="44.996289" lon="9.7870636"><ele>66.2</ele><time>2026-04-26T09:55:28.638Z</time></trkpt><trkpt lat="44.9963676" lon="9.7871538"><ele>66.0</ele><time>2026-04-26T09:55:30.615Z</time></trkpt><trkpt lat="44.9964509" lon="9.7872461"><ele>66.0</ele><time>2026-04-26T09:55:32.599Z</time></trkpt><trkpt lat="44.9965271" lon="9.7873555"><ele>66.0</ele><time>2026-04-26T09:55:34.597Z</time></trkpt><trkpt lat="44.9966059" lon="9.7874558"><ele>66.0</ele><time>2026-04-26T09:55:36.616Z</time></trkpt><trkpt lat="44.9966816" lon="9.7875505"><ele>66.0</ele><time>2026-04-26T09:55:38.627Z</time></trkpt><trkpt lat="44.9967604" lon="9.7876394"><ele>66.0</ele><time>2026-04-26T09:55:40.624Z</time></trkpt><trkpt lat="44.9968343" lon="9.7877383"><ele>66.2</ele><time>2026-04-26T09:55:42.612Z</time></trkpt><trkpt lat="44.9969078" lon="9.7878299"><ele>66.39999999999999</ele><time>2026-04-26T09:55:44.609Z</time></trkpt><trkpt lat="44.9969773" lon="9.7879322"><ele>66.6</ele><time>2026-04-26T09:55:46.622Z</time></trkpt><trkpt lat="44.997046" lon="9.7880323"><ele>66.8</ele><time>2026-04-26T09:55:48.635Z</time></trkpt><trkpt lat="44.9971118" lon="9.7881156"><ele>67.0</ele><time>2026-04-26T09:55:50.631Z</time></trkpt><trkpt lat="44.9971743" lon="9.7882123"><ele>67.0</ele><time>2026-04-26T09:55:52.63Z</time></trkpt><trkpt lat="44.9971505" lon="9.78833"><ele>67.0</ele><time>2026-04-26T09:55:55.635Z</time></trkpt><trkpt lat="44.9971327" lon="9.7884404"><ele>67.0</ele><time>2026-04-26T09:56:24.628Z</time></trkpt><trkpt lat="44.997151" lon="9.7885328"><ele>67.0</ele><time>2026-04-26T09:56:32.628Z</time></trkpt><trkpt lat="44.9971575" lon="9.7886222"><ele>67.0</ele><time>2026-04-26T09:56:51.637Z</time></trkpt><trkpt lat="44.9971358" lon="9.7885356"><ele>67.0</ele><time>2026-04-26T09:57:37.632Z</time></trkpt><trkpt lat="44.9971691" lon="9.788454"><ele>67.0</ele><time>2026-04-26T09:57:54.612Z</time></trkpt><trkpt lat="44.9971176" lon="9.7885145"><ele>66.0</ele><time>2026-04-26T09:58:17.611Z</time></trkpt><trkpt lat="44.9972569" lon="9.7884679"><ele>67.0</ele><time>2026-04-26T10:01:16.583Z</time></trkpt></trkseg></trk></gpx>